<?xml version="1.0" encoding="UTF-8" standalone="no" ?>
<gpx xmlns="http://www.topografix.com/GPX/1/1" xmlns:xsi="http://www.w3.org/2001/XMLSchema-instance" xsi:schemaLocation="http://www.topografix.com/GPX/1/1 http://www.topografix.com/GPX/1/1/gpx.xsd" version="1.1" creator="VisuGPX - https://www.visugpx.com">
  <metadata>
    <name>2017-04-05 Bike ride-Amberieux en Dombes O via Toussieux</name>
    <desc><![CDATA[2017-04-05 Bike ride-Amberieux en Dombes O via Toussieux]]></desc>
  </metadata>
  <wpt lat="45.92473" lon="4.73712">
    <ele>174</ele>
    <name><![CDATA[2017-04-05 10:21 (Start)]]></name>
  </wpt>
  <wpt lat="45.9246" lon="4.73709">
    <ele>174</ele>
    <name><![CDATA[2017-04-05 10:21 (End)]]></name>
    <desc><![CDATA[Created by Google My Tracks on Android  Name: 2017-04-05 10:21 Activity type: biking Description: - Total distance: 41.02 km (25.5 mi) Total time: 2:06:01 Moving time: 2:04:25 Average speed: 19.53 km/h (12.1 mi/h) Average moving speed: 19.78 km/h (12.3 mi/h) Max speed: 42.45 km/h (26.4 mi/h) Average pace: 3:04 min/km (4:57 min/mi) Average moving pace: 3:02 min/km (4:53 min/mi) Fastest pace: 1:25 min/km (2:16 min/mi) Max elevation: 329 m (1078 ft) Min elevation: 161 m (530 ft) Elevation gain: 595 m (1953 ft) Max grade: 17 % Min grade: -18 % Recorded: 05/04/2017 10:21]]></desc>
  </wpt>
  <trk>
    <name><![CDATA[2017-04-05 10:21]]></name>
    <trkseg>
      <trkpt lat="45.92473" lon="4.73712">
        <ele>174</ele>
        <time>2017-04-05T08:21:37.13Z</time>
      </trkpt>
      <trkpt lat="45.92473" lon="4.73712">
        <ele>174</ele>
        <time>2017-04-05T08:22:24Z</time>
      </trkpt>
      <trkpt lat="45.92463" lon="4.73712">
        <ele>174</ele>
        <time>2017-04-05T08:22:26Z</time>
      </trkpt>
      <trkpt lat="45.92469" lon="4.73703">
        <ele>174</ele>
        <time>2017-04-05T08:22:33Z</time>
      </trkpt>
      <trkpt lat="45.9247" lon="4.73702">
        <ele>174</ele>
        <time>2017-04-05T08:22:34Z</time>
      </trkpt>
      <trkpt lat="45.92472" lon="4.73691">
        <ele>174</ele>
        <time>2017-04-05T08:22:39Z</time>
      </trkpt>
      <trkpt lat="45.92472" lon="4.73688">
        <ele>174</ele>
        <time>2017-04-05T08:22:40Z</time>
      </trkpt>
      <trkpt lat="45.92472" lon="4.73678">
        <ele>174</ele>
        <time>2017-04-05T08:22:43Z</time>
      </trkpt>
      <trkpt lat="45.92473" lon="4.73674">
        <ele>174</ele>
        <time>2017-04-05T08:22:44Z</time>
      </trkpt>
      <trkpt lat="45.92473" lon="4.73664">
        <ele>174</ele>
        <time>2017-04-05T08:22:47Z</time>
      </trkpt>
      <trkpt lat="45.92474" lon="4.73661">
        <ele>174</ele>
        <time>2017-04-05T08:22:48Z</time>
      </trkpt>
      <trkpt lat="45.92476" lon="4.73653">
        <ele>174</ele>
        <time>2017-04-05T08:22:50Z</time>
      </trkpt>
      <trkpt lat="45.92475" lon="4.73648">
        <ele>174</ele>
        <time>2017-04-05T08:22:51Z</time>
      </trkpt>
      <trkpt lat="45.92482" lon="4.73639">
        <ele>174</ele>
        <time>2017-04-05T08:22:54Z</time>
      </trkpt>
      <trkpt lat="45.92485" lon="4.73637">
        <ele>174</ele>
        <time>2017-04-05T08:22:55Z</time>
      </trkpt>
      <trkpt lat="45.92493" lon="4.73637">
        <ele>174</ele>
        <time>2017-04-05T08:22:58Z</time>
      </trkpt>
      <trkpt lat="45.92497" lon="4.73638">
        <ele>174</ele>
        <time>2017-04-05T08:22:59Z</time>
      </trkpt>
      <trkpt lat="45.92502" lon="4.73639">
        <ele>174</ele>
        <time>2017-04-05T08:23:00Z</time>
      </trkpt>
      <trkpt lat="45.92507" lon="4.73638">
        <ele>174</ele>
        <time>2017-04-05T08:23:01Z</time>
      </trkpt>
      <trkpt lat="45.92515" lon="4.73635">
        <ele>173</ele>
        <time>2017-04-05T08:23:03Z</time>
      </trkpt>
      <trkpt lat="45.9252" lon="4.73635">
        <ele>173</ele>
        <time>2017-04-05T08:23:04Z</time>
      </trkpt>
      <trkpt lat="45.92525" lon="4.73634">
        <ele>173</ele>
        <time>2017-04-05T08:23:05Z</time>
      </trkpt>
      <trkpt lat="45.9253" lon="4.73633">
        <ele>173</ele>
        <time>2017-04-05T08:23:06Z</time>
      </trkpt>
      <trkpt lat="45.92536" lon="4.73632">
        <ele>173</ele>
        <time>2017-04-05T08:23:07Z</time>
      </trkpt>
      <trkpt lat="45.9254" lon="4.73632">
        <ele>173</ele>
        <time>2017-04-05T08:23:08Z</time>
      </trkpt>
      <trkpt lat="45.92544" lon="4.73631">
        <ele>173</ele>
        <time>2017-04-05T08:23:09Z</time>
      </trkpt>
      <trkpt lat="45.92549" lon="4.7363">
        <ele>173</ele>
        <time>2017-04-05T08:23:10Z</time>
      </trkpt>
      <trkpt lat="45.92554" lon="4.73628">
        <ele>173</ele>
        <time>2017-04-05T08:23:11Z</time>
      </trkpt>
      <trkpt lat="45.92559" lon="4.73627">
        <ele>173</ele>
        <time>2017-04-05T08:23:12Z</time>
      </trkpt>
      <trkpt lat="45.92565" lon="4.73625">
        <ele>173</ele>
        <time>2017-04-05T08:23:13Z</time>
      </trkpt>
      <trkpt lat="45.9257" lon="4.73624">
        <ele>173</ele>
        <time>2017-04-05T08:23:14Z</time>
      </trkpt>
      <trkpt lat="45.92575" lon="4.73622">
        <ele>173</ele>
        <time>2017-04-05T08:23:15Z</time>
      </trkpt>
      <trkpt lat="45.9258" lon="4.73621">
        <ele>173</ele>
        <time>2017-04-05T08:23:16Z</time>
      </trkpt>
      <trkpt lat="45.92584" lon="4.7362">
        <ele>173</ele>
        <time>2017-04-05T08:23:17Z</time>
      </trkpt>
      <trkpt lat="45.92589" lon="4.73619">
        <ele>173</ele>
        <time>2017-04-05T08:23:18Z</time>
      </trkpt>
      <trkpt lat="45.92594" lon="4.73619">
        <ele>173</ele>
        <time>2017-04-05T08:23:19Z</time>
      </trkpt>
      <trkpt lat="45.92599" lon="4.73618">
        <ele>173</ele>
        <time>2017-04-05T08:23:20Z</time>
      </trkpt>
      <trkpt lat="45.92605" lon="4.73618">
        <ele>173</ele>
        <time>2017-04-05T08:23:21Z</time>
      </trkpt>
      <trkpt lat="45.9261" lon="4.73618">
        <ele>173</ele>
        <time>2017-04-05T08:23:22Z</time>
      </trkpt>
      <trkpt lat="45.92614" lon="4.7362">
        <ele>173</ele>
        <time>2017-04-05T08:23:23Z</time>
      </trkpt>
      <trkpt lat="45.92618" lon="4.73624">
        <ele>173</ele>
        <time>2017-04-05T08:23:24Z</time>
      </trkpt>
      <trkpt lat="45.92621" lon="4.73628">
        <ele>173</ele>
        <time>2017-04-05T08:23:25Z</time>
      </trkpt>
      <trkpt lat="45.92624" lon="4.73634">
        <ele>173</ele>
        <time>2017-04-05T08:23:26Z</time>
      </trkpt>
      <trkpt lat="45.92627" lon="4.7364">
        <ele>173</ele>
        <time>2017-04-05T08:23:27Z</time>
      </trkpt>
      <trkpt lat="45.92629" lon="4.73647">
        <ele>173</ele>
        <time>2017-04-05T08:23:28Z</time>
      </trkpt>
      <trkpt lat="45.92631" lon="4.73654">
        <ele>173</ele>
        <time>2017-04-05T08:23:29Z</time>
      </trkpt>
      <trkpt lat="45.92634" lon="4.73661">
        <ele>173</ele>
        <time>2017-04-05T08:23:30Z</time>
      </trkpt>
      <trkpt lat="45.92636" lon="4.73667">
        <ele>173</ele>
        <time>2017-04-05T08:23:31Z</time>
      </trkpt>
      <trkpt lat="45.92639" lon="4.73674">
        <ele>173</ele>
        <time>2017-04-05T08:23:32Z</time>
      </trkpt>
      <trkpt lat="45.92642" lon="4.73679">
        <ele>173</ele>
        <time>2017-04-05T08:23:33Z</time>
      </trkpt>
      <trkpt lat="45.92646" lon="4.73684">
        <ele>173</ele>
        <time>2017-04-05T08:23:34Z</time>
      </trkpt>
      <trkpt lat="45.92651" lon="4.73688">
        <ele>173</ele>
        <time>2017-04-05T08:23:35Z</time>
      </trkpt>
      <trkpt lat="45.92655" lon="4.73692">
        <ele>173</ele>
        <time>2017-04-05T08:23:36Z</time>
      </trkpt>
      <trkpt lat="45.9266" lon="4.73696">
        <ele>173</ele>
        <time>2017-04-05T08:23:37Z</time>
      </trkpt>
      <trkpt lat="45.92665" lon="4.73699">
        <ele>173</ele>
        <time>2017-04-05T08:23:38Z</time>
      </trkpt>
      <trkpt lat="45.92671" lon="4.73702">
        <ele>174</ele>
        <time>2017-04-05T08:23:39Z</time>
      </trkpt>
      <trkpt lat="45.92676" lon="4.73704">
        <ele>173</ele>
        <time>2017-04-05T08:23:40Z</time>
      </trkpt>
      <trkpt lat="45.92681" lon="4.73706">
        <ele>173</ele>
        <time>2017-04-05T08:23:41Z</time>
      </trkpt>
      <trkpt lat="45.92686" lon="4.73708">
        <ele>173</ele>
        <time>2017-04-05T08:23:42Z</time>
      </trkpt>
      <trkpt lat="45.92692" lon="4.73709">
        <ele>173</ele>
        <time>2017-04-05T08:23:43Z</time>
      </trkpt>
      <trkpt lat="45.92697" lon="4.7371">
        <ele>173</ele>
        <time>2017-04-05T08:23:44Z</time>
      </trkpt>
      <trkpt lat="45.92703" lon="4.73712">
        <ele>173</ele>
        <time>2017-04-05T08:23:45Z</time>
      </trkpt>
      <trkpt lat="45.92708" lon="4.73713">
        <ele>173</ele>
        <time>2017-04-05T08:23:46Z</time>
      </trkpt>
      <trkpt lat="45.92714" lon="4.73715">
        <ele>173</ele>
        <time>2017-04-05T08:23:47Z</time>
      </trkpt>
      <trkpt lat="45.92719" lon="4.73716">
        <ele>173</ele>
        <time>2017-04-05T08:23:48Z</time>
      </trkpt>
      <trkpt lat="45.92723" lon="4.73717">
        <ele>173</ele>
        <time>2017-04-05T08:23:49Z</time>
      </trkpt>
      <trkpt lat="45.92728" lon="4.73718">
        <ele>173</ele>
        <time>2017-04-05T08:23:50Z</time>
      </trkpt>
      <trkpt lat="45.92733" lon="4.73718">
        <ele>173</ele>
        <time>2017-04-05T08:23:51Z</time>
      </trkpt>
      <trkpt lat="45.92738" lon="4.73718">
        <ele>173</ele>
        <time>2017-04-05T08:23:52Z</time>
      </trkpt>
      <trkpt lat="45.92744" lon="4.73718">
        <ele>173</ele>
        <time>2017-04-05T08:23:53Z</time>
      </trkpt>
      <trkpt lat="45.92749" lon="4.73719">
        <ele>173</ele>
        <time>2017-04-05T08:23:54Z</time>
      </trkpt>
      <trkpt lat="45.92753" lon="4.7372">
        <ele>172</ele>
        <time>2017-04-05T08:23:55Z</time>
      </trkpt>
      <trkpt lat="45.92758" lon="4.73722">
        <ele>172</ele>
        <time>2017-04-05T08:23:56Z</time>
      </trkpt>
      <trkpt lat="45.92763" lon="4.73723">
        <ele>172</ele>
        <time>2017-04-05T08:23:57Z</time>
      </trkpt>
      <trkpt lat="45.92768" lon="4.73725">
        <ele>172</ele>
        <time>2017-04-05T08:23:58Z</time>
      </trkpt>
      <trkpt lat="45.92774" lon="4.73727">
        <ele>172</ele>
        <time>2017-04-05T08:24:00Z</time>
      </trkpt>
      <trkpt lat="45.92777" lon="4.7373">
        <ele>172</ele>
        <time>2017-04-05T08:24:01Z</time>
      </trkpt>
      <trkpt lat="45.92778" lon="4.73738">
        <ele>172</ele>
        <time>2017-04-05T08:24:03Z</time>
      </trkpt>
      <trkpt lat="45.9278" lon="4.73743">
        <ele>172</ele>
        <time>2017-04-05T08:24:04Z</time>
      </trkpt>
      <trkpt lat="45.92787" lon="4.73748">
        <ele>172</ele>
        <time>2017-04-05T08:24:06Z</time>
      </trkpt>
      <trkpt lat="45.92791" lon="4.7375">
        <ele>172</ele>
        <time>2017-04-05T08:24:07Z</time>
      </trkpt>
      <trkpt lat="45.92799" lon="4.73756">
        <ele>173</ele>
        <time>2017-04-05T08:24:09Z</time>
      </trkpt>
      <trkpt lat="45.92803" lon="4.7376">
        <ele>173</ele>
        <time>2017-04-05T08:24:10Z</time>
      </trkpt>
      <trkpt lat="45.92807" lon="4.73764">
        <ele>173</ele>
        <time>2017-04-05T08:24:11Z</time>
      </trkpt>
      <trkpt lat="45.92811" lon="4.73767">
        <ele>173</ele>
        <time>2017-04-05T08:24:12Z</time>
      </trkpt>
      <trkpt lat="45.92815" lon="4.7377">
        <ele>173</ele>
        <time>2017-04-05T08:24:13Z</time>
      </trkpt>
      <trkpt lat="45.92819" lon="4.73774">
        <ele>173</ele>
        <time>2017-04-05T08:24:14Z</time>
      </trkpt>
      <trkpt lat="45.92823" lon="4.73778">
        <ele>173</ele>
        <time>2017-04-05T08:24:15Z</time>
      </trkpt>
      <trkpt lat="45.92827" lon="4.73781">
        <ele>173</ele>
        <time>2017-04-05T08:24:16Z</time>
      </trkpt>
      <trkpt lat="45.92832" lon="4.73785">
        <ele>173</ele>
        <time>2017-04-05T08:24:17Z</time>
      </trkpt>
      <trkpt lat="45.92836" lon="4.73789">
        <ele>173</ele>
        <time>2017-04-05T08:24:18Z</time>
      </trkpt>
      <trkpt lat="45.92841" lon="4.73793">
        <ele>173</ele>
        <time>2017-04-05T08:24:19Z</time>
      </trkpt>
      <trkpt lat="45.92845" lon="4.73797">
        <ele>173</ele>
        <time>2017-04-05T08:24:20Z</time>
      </trkpt>
      <trkpt lat="45.92847" lon="4.73803">
        <ele>173</ele>
        <time>2017-04-05T08:24:21Z</time>
      </trkpt>
      <trkpt lat="45.9285" lon="4.73809">
        <ele>173</ele>
        <time>2017-04-05T08:24:22Z</time>
      </trkpt>
      <trkpt lat="45.92852" lon="4.73816">
        <ele>173</ele>
        <time>2017-04-05T08:24:23Z</time>
      </trkpt>
      <trkpt lat="45.92854" lon="4.73823">
        <ele>173</ele>
        <time>2017-04-05T08:24:24Z</time>
      </trkpt>
      <trkpt lat="45.92856" lon="4.7383">
        <ele>173</ele>
        <time>2017-04-05T08:24:25Z</time>
      </trkpt>
      <trkpt lat="45.92858" lon="4.73837">
        <ele>173</ele>
        <time>2017-04-05T08:24:26Z</time>
      </trkpt>
      <trkpt lat="45.92859" lon="4.73844">
        <ele>173</ele>
        <time>2017-04-05T08:24:27Z</time>
      </trkpt>
      <trkpt lat="45.92861" lon="4.73851">
        <ele>173</ele>
        <time>2017-04-05T08:24:28Z</time>
      </trkpt>
      <trkpt lat="45.92862" lon="4.73857">
        <ele>173</ele>
        <time>2017-04-05T08:24:29Z</time>
      </trkpt>
      <trkpt lat="45.92863" lon="4.73864">
        <ele>173</ele>
        <time>2017-04-05T08:24:30Z</time>
      </trkpt>
      <trkpt lat="45.92866" lon="4.73871">
        <ele>173</ele>
        <time>2017-04-05T08:24:31Z</time>
      </trkpt>
      <trkpt lat="45.92867" lon="4.73878">
        <ele>173</ele>
        <time>2017-04-05T08:24:32Z</time>
      </trkpt>
      <trkpt lat="45.92868" lon="4.73886">
        <ele>173</ele>
        <time>2017-04-05T08:24:33Z</time>
      </trkpt>
      <trkpt lat="45.92869" lon="4.73894">
        <ele>173</ele>
        <time>2017-04-05T08:24:34Z</time>
      </trkpt>
      <trkpt lat="45.92871" lon="4.73902">
        <ele>173</ele>
        <time>2017-04-05T08:24:35Z</time>
      </trkpt>
      <trkpt lat="45.92873" lon="4.7391">
        <ele>173</ele>
        <time>2017-04-05T08:24:36Z</time>
      </trkpt>
      <trkpt lat="45.92879" lon="4.73918">
        <ele>172</ele>
        <time>2017-04-05T08:24:37Z</time>
      </trkpt>
      <trkpt lat="45.9288" lon="4.73926">
        <ele>172</ele>
        <time>2017-04-05T08:24:38Z</time>
      </trkpt>
      <trkpt lat="45.92881" lon="4.73934">
        <ele>172</ele>
        <time>2017-04-05T08:24:39Z</time>
      </trkpt>
      <trkpt lat="45.92882" lon="4.73941">
        <ele>172</ele>
        <time>2017-04-05T08:24:40Z</time>
      </trkpt>
      <trkpt lat="45.92882" lon="4.73949">
        <ele>172</ele>
        <time>2017-04-05T08:24:41Z</time>
      </trkpt>
      <trkpt lat="45.92883" lon="4.73957">
        <ele>172</ele>
        <time>2017-04-05T08:24:42Z</time>
      </trkpt>
      <trkpt lat="45.92883" lon="4.73965">
        <ele>172</ele>
        <time>2017-04-05T08:24:43Z</time>
      </trkpt>
      <trkpt lat="45.92882" lon="4.73972">
        <ele>172</ele>
        <time>2017-04-05T08:24:44Z</time>
      </trkpt>
      <trkpt lat="45.92882" lon="4.73979">
        <ele>172</ele>
        <time>2017-04-05T08:24:45Z</time>
      </trkpt>
      <trkpt lat="45.92881" lon="4.73986">
        <ele>172</ele>
        <time>2017-04-05T08:24:46Z</time>
      </trkpt>
      <trkpt lat="45.92879" lon="4.73993">
        <ele>172</ele>
        <time>2017-04-05T08:24:47Z</time>
      </trkpt>
      <trkpt lat="45.92877" lon="4.74">
        <ele>172</ele>
        <time>2017-04-05T08:24:48Z</time>
      </trkpt>
      <trkpt lat="45.92875" lon="4.74007">
        <ele>172</ele>
        <time>2017-04-05T08:24:49Z</time>
      </trkpt>
      <trkpt lat="45.92874" lon="4.74015">
        <ele>172</ele>
        <time>2017-04-05T08:24:50Z</time>
      </trkpt>
      <trkpt lat="45.92872" lon="4.74022">
        <ele>172</ele>
        <time>2017-04-05T08:24:51Z</time>
      </trkpt>
      <trkpt lat="45.92871" lon="4.7403">
        <ele>172</ele>
        <time>2017-04-05T08:24:52Z</time>
      </trkpt>
      <trkpt lat="45.92869" lon="4.74037">
        <ele>172</ele>
        <time>2017-04-05T08:24:53Z</time>
      </trkpt>
      <trkpt lat="45.92866" lon="4.74044">
        <ele>172</ele>
        <time>2017-04-05T08:24:54Z</time>
      </trkpt>
      <trkpt lat="45.92862" lon="4.7405">
        <ele>172</ele>
        <time>2017-04-05T08:24:55Z</time>
      </trkpt>
      <trkpt lat="45.92857" lon="4.74056">
        <ele>172</ele>
        <time>2017-04-05T08:24:56Z</time>
      </trkpt>
      <trkpt lat="45.92853" lon="4.74061">
        <ele>172</ele>
        <time>2017-04-05T08:24:57Z</time>
      </trkpt>
      <trkpt lat="45.92849" lon="4.74066">
        <ele>172</ele>
        <time>2017-04-05T08:24:58Z</time>
      </trkpt>
      <trkpt lat="45.92845" lon="4.74072">
        <ele>172</ele>
        <time>2017-04-05T08:24:59Z</time>
      </trkpt>
      <trkpt lat="45.92841" lon="4.74077">
        <ele>171</ele>
        <time>2017-04-05T08:25:00Z</time>
      </trkpt>
      <trkpt lat="45.92836" lon="4.74082">
        <ele>171</ele>
        <time>2017-04-05T08:25:01Z</time>
      </trkpt>
      <trkpt lat="45.92831" lon="4.74087">
        <ele>171</ele>
        <time>2017-04-05T08:25:02Z</time>
      </trkpt>
      <trkpt lat="45.92827" lon="4.74092">
        <ele>171</ele>
        <time>2017-04-05T08:25:03Z</time>
      </trkpt>
      <trkpt lat="45.92822" lon="4.74097">
        <ele>171</ele>
        <time>2017-04-05T08:25:04Z</time>
      </trkpt>
      <trkpt lat="45.92817" lon="4.74102">
        <ele>171</ele>
        <time>2017-04-05T08:25:05Z</time>
      </trkpt>
      <trkpt lat="45.92813" lon="4.74108">
        <ele>172</ele>
        <time>2017-04-05T08:25:06Z</time>
      </trkpt>
      <trkpt lat="45.92808" lon="4.74113">
        <ele>172</ele>
        <time>2017-04-05T08:25:07Z</time>
      </trkpt>
      <trkpt lat="45.92803" lon="4.74119">
        <ele>172</ele>
        <time>2017-04-05T08:25:08Z</time>
      </trkpt>
      <trkpt lat="45.92798" lon="4.74124">
        <ele>172</ele>
        <time>2017-04-05T08:25:09Z</time>
      </trkpt>
      <trkpt lat="45.92794" lon="4.74129">
        <ele>172</ele>
        <time>2017-04-05T08:25:10Z</time>
      </trkpt>
      <trkpt lat="45.92789" lon="4.74134">
        <ele>172</ele>
        <time>2017-04-05T08:25:11Z</time>
      </trkpt>
      <trkpt lat="45.92784" lon="4.74139">
        <ele>172</ele>
        <time>2017-04-05T08:25:12Z</time>
      </trkpt>
      <trkpt lat="45.92779" lon="4.74144">
        <ele>172</ele>
        <time>2017-04-05T08:25:13Z</time>
      </trkpt>
      <trkpt lat="45.92774" lon="4.74149">
        <ele>172</ele>
        <time>2017-04-05T08:25:14Z</time>
      </trkpt>
      <trkpt lat="45.92769" lon="4.74154">
        <ele>172</ele>
        <time>2017-04-05T08:25:15Z</time>
      </trkpt>
      <trkpt lat="45.92765" lon="4.74159">
        <ele>172</ele>
        <time>2017-04-05T08:25:16Z</time>
      </trkpt>
      <trkpt lat="45.9276" lon="4.74164">
        <ele>172</ele>
        <time>2017-04-05T08:25:17Z</time>
      </trkpt>
      <trkpt lat="45.92756" lon="4.74168">
        <ele>172</ele>
        <time>2017-04-05T08:25:18Z</time>
      </trkpt>
      <trkpt lat="45.92752" lon="4.74173">
        <ele>172</ele>
        <time>2017-04-05T08:25:19Z</time>
      </trkpt>
      <trkpt lat="45.92748" lon="4.74178">
        <ele>172</ele>
        <time>2017-04-05T08:25:20Z</time>
      </trkpt>
      <trkpt lat="45.92744" lon="4.74183">
        <ele>172</ele>
        <time>2017-04-05T08:25:21Z</time>
      </trkpt>
      <trkpt lat="45.9274" lon="4.74188">
        <ele>172</ele>
        <time>2017-04-05T08:25:22Z</time>
      </trkpt>
      <trkpt lat="45.92736" lon="4.74193">
        <ele>171</ele>
        <time>2017-04-05T08:25:23Z</time>
      </trkpt>
      <trkpt lat="45.92732" lon="4.74199">
        <ele>171</ele>
        <time>2017-04-05T08:25:24Z</time>
      </trkpt>
      <trkpt lat="45.92727" lon="4.74205">
        <ele>171</ele>
        <time>2017-04-05T08:25:25Z</time>
      </trkpt>
      <trkpt lat="45.92723" lon="4.74211">
        <ele>171</ele>
        <time>2017-04-05T08:25:26Z</time>
      </trkpt>
      <trkpt lat="45.92719" lon="4.74217">
        <ele>171</ele>
        <time>2017-04-05T08:25:27Z</time>
      </trkpt>
      <trkpt lat="45.92714" lon="4.74223">
        <ele>171</ele>
        <time>2017-04-05T08:25:28Z</time>
      </trkpt>
      <trkpt lat="45.9271" lon="4.74229">
        <ele>171</ele>
        <time>2017-04-05T08:25:29Z</time>
      </trkpt>
      <trkpt lat="45.92706" lon="4.74235">
        <ele>171</ele>
        <time>2017-04-05T08:25:30Z</time>
      </trkpt>
      <trkpt lat="45.92702" lon="4.74242">
        <ele>171</ele>
        <time>2017-04-05T08:25:31Z</time>
      </trkpt>
      <trkpt lat="45.92698" lon="4.74248">
        <ele>171</ele>
        <time>2017-04-05T08:25:32Z</time>
      </trkpt>
      <trkpt lat="45.92694" lon="4.74255">
        <ele>171</ele>
        <time>2017-04-05T08:25:33Z</time>
      </trkpt>
      <trkpt lat="45.9269" lon="4.74262">
        <ele>171</ele>
        <time>2017-04-05T08:25:34Z</time>
      </trkpt>
      <trkpt lat="45.92686" lon="4.74269">
        <ele>171</ele>
        <time>2017-04-05T08:25:35Z</time>
      </trkpt>
      <trkpt lat="45.92682" lon="4.74276">
        <ele>171</ele>
        <time>2017-04-05T08:25:36Z</time>
      </trkpt>
      <trkpt lat="45.92678" lon="4.74283">
        <ele>171</ele>
        <time>2017-04-05T08:25:37Z</time>
      </trkpt>
      <trkpt lat="45.92674" lon="4.7429">
        <ele>171</ele>
        <time>2017-04-05T08:25:38Z</time>
      </trkpt>
      <trkpt lat="45.9267" lon="4.74298">
        <ele>171</ele>
        <time>2017-04-05T08:25:39Z</time>
      </trkpt>
      <trkpt lat="45.92666" lon="4.74305">
        <ele>171</ele>
        <time>2017-04-05T08:25:40Z</time>
      </trkpt>
      <trkpt lat="45.92662" lon="4.74312">
        <ele>171</ele>
        <time>2017-04-05T08:25:41Z</time>
      </trkpt>
      <trkpt lat="45.92659" lon="4.74318">
        <ele>171</ele>
        <time>2017-04-05T08:25:42Z</time>
      </trkpt>
      <trkpt lat="45.92655" lon="4.74325">
        <ele>171</ele>
        <time>2017-04-05T08:25:43Z</time>
      </trkpt>
      <trkpt lat="45.92651" lon="4.74332">
        <ele>171</ele>
        <time>2017-04-05T08:25:44Z</time>
      </trkpt>
      <trkpt lat="45.92648" lon="4.74339">
        <ele>171</ele>
        <time>2017-04-05T08:25:45Z</time>
      </trkpt>
      <trkpt lat="45.92644" lon="4.74346">
        <ele>171</ele>
        <time>2017-04-05T08:25:46Z</time>
      </trkpt>
      <trkpt lat="45.9264" lon="4.74354">
        <ele>171</ele>
        <time>2017-04-05T08:25:47Z</time>
      </trkpt>
      <trkpt lat="45.92636" lon="4.74361">
        <ele>171</ele>
        <time>2017-04-05T08:25:48Z</time>
      </trkpt>
      <trkpt lat="45.92632" lon="4.74368">
        <ele>171</ele>
        <time>2017-04-05T08:25:49Z</time>
      </trkpt>
      <trkpt lat="45.92628" lon="4.74375">
        <ele>171</ele>
        <time>2017-04-05T08:25:50Z</time>
      </trkpt>
      <trkpt lat="45.92625" lon="4.74382">
        <ele>170</ele>
        <time>2017-04-05T08:25:51Z</time>
      </trkpt>
      <trkpt lat="45.92621" lon="4.74389">
        <ele>170</ele>
        <time>2017-04-05T08:25:52Z</time>
      </trkpt>
      <trkpt lat="45.92617" lon="4.74396">
        <ele>170</ele>
        <time>2017-04-05T08:25:53Z</time>
      </trkpt>
      <trkpt lat="45.92613" lon="4.74403">
        <ele>170</ele>
        <time>2017-04-05T08:25:54Z</time>
      </trkpt>
      <trkpt lat="45.92609" lon="4.7441">
        <ele>170</ele>
        <time>2017-04-05T08:25:55Z</time>
      </trkpt>
      <trkpt lat="45.92605" lon="4.74417">
        <ele>170</ele>
        <time>2017-04-05T08:25:56Z</time>
      </trkpt>
      <trkpt lat="45.92601" lon="4.74425">
        <ele>170</ele>
        <time>2017-04-05T08:25:57Z</time>
      </trkpt>
      <trkpt lat="45.92598" lon="4.74432">
        <ele>170</ele>
        <time>2017-04-05T08:25:58Z</time>
      </trkpt>
      <trkpt lat="45.92594" lon="4.74439">
        <ele>170</ele>
        <time>2017-04-05T08:25:59Z</time>
      </trkpt>
      <trkpt lat="45.9259" lon="4.74446">
        <ele>170</ele>
        <time>2017-04-05T08:26:00Z</time>
      </trkpt>
      <trkpt lat="45.92586" lon="4.74453">
        <ele>170</ele>
        <time>2017-04-05T08:26:01Z</time>
      </trkpt>
      <trkpt lat="45.92582" lon="4.7446">
        <ele>170</ele>
        <time>2017-04-05T08:26:02Z</time>
      </trkpt>
      <trkpt lat="45.92578" lon="4.74468">
        <ele>170</ele>
        <time>2017-04-05T08:26:03Z</time>
      </trkpt>
      <trkpt lat="45.92574" lon="4.74475">
        <ele>170</ele>
        <time>2017-04-05T08:26:04Z</time>
      </trkpt>
      <trkpt lat="45.9257" lon="4.74482">
        <ele>170</ele>
        <time>2017-04-05T08:26:05Z</time>
      </trkpt>
      <trkpt lat="45.92566" lon="4.7449">
        <ele>170</ele>
        <time>2017-04-05T08:26:06Z</time>
      </trkpt>
      <trkpt lat="45.92562" lon="4.74497">
        <ele>170</ele>
        <time>2017-04-05T08:26:07Z</time>
      </trkpt>
      <trkpt lat="45.92558" lon="4.74505">
        <ele>170</ele>
        <time>2017-04-05T08:26:08Z</time>
      </trkpt>
      <trkpt lat="45.92553" lon="4.74512">
        <ele>170</ele>
        <time>2017-04-05T08:26:09Z</time>
      </trkpt>
      <trkpt lat="45.92549" lon="4.7452">
        <ele>170</ele>
        <time>2017-04-05T08:26:10Z</time>
      </trkpt>
      <trkpt lat="45.92545" lon="4.74528">
        <ele>170</ele>
        <time>2017-04-05T08:26:11Z</time>
      </trkpt>
      <trkpt lat="45.92541" lon="4.74536">
        <ele>171</ele>
        <time>2017-04-05T08:26:12Z</time>
      </trkpt>
      <trkpt lat="45.92537" lon="4.74543">
        <ele>171</ele>
        <time>2017-04-05T08:26:13Z</time>
      </trkpt>
      <trkpt lat="45.92532" lon="4.7455">
        <ele>171</ele>
        <time>2017-04-05T08:26:14Z</time>
      </trkpt>
      <trkpt lat="45.92528" lon="4.74557">
        <ele>171</ele>
        <time>2017-04-05T08:26:15Z</time>
      </trkpt>
      <trkpt lat="45.92523" lon="4.74563">
        <ele>171</ele>
        <time>2017-04-05T08:26:16Z</time>
      </trkpt>
      <trkpt lat="45.92518" lon="4.7457">
        <ele>171</ele>
        <time>2017-04-05T08:26:17Z</time>
      </trkpt>
      <trkpt lat="45.92513" lon="4.74576">
        <ele>171</ele>
        <time>2017-04-05T08:26:18Z</time>
      </trkpt>
      <trkpt lat="45.92508" lon="4.74582">
        <ele>171</ele>
        <time>2017-04-05T08:26:19Z</time>
      </trkpt>
      <trkpt lat="45.92502" lon="4.74588">
        <ele>171</ele>
        <time>2017-04-05T08:26:20Z</time>
      </trkpt>
      <trkpt lat="45.92497" lon="4.74594">
        <ele>171</ele>
        <time>2017-04-05T08:26:21Z</time>
      </trkpt>
      <trkpt lat="45.92492" lon="4.746">
        <ele>171</ele>
        <time>2017-04-05T08:26:22Z</time>
      </trkpt>
      <trkpt lat="45.92487" lon="4.74606">
        <ele>171</ele>
        <time>2017-04-05T08:26:23Z</time>
      </trkpt>
      <trkpt lat="45.92482" lon="4.74612">
        <ele>171</ele>
        <time>2017-04-05T08:26:24Z</time>
      </trkpt>
      <trkpt lat="45.92477" lon="4.74619">
        <ele>171</ele>
        <time>2017-04-05T08:26:25Z</time>
      </trkpt>
      <trkpt lat="45.92473" lon="4.74626">
        <ele>171</ele>
        <time>2017-04-05T08:26:26Z</time>
      </trkpt>
      <trkpt lat="45.92468" lon="4.74632">
        <ele>171</ele>
        <time>2017-04-05T08:26:27Z</time>
      </trkpt>
      <trkpt lat="45.92463" lon="4.74639">
        <ele>171</ele>
        <time>2017-04-05T08:26:28Z</time>
      </trkpt>
      <trkpt lat="45.92459" lon="4.74646">
        <ele>171</ele>
        <time>2017-04-05T08:26:29Z</time>
      </trkpt>
      <trkpt lat="45.92454" lon="4.74653">
        <ele>171</ele>
        <time>2017-04-05T08:26:30Z</time>
      </trkpt>
      <trkpt lat="45.92451" lon="4.74661">
        <ele>171</ele>
        <time>2017-04-05T08:26:31Z</time>
      </trkpt>
      <trkpt lat="45.92446" lon="4.74669">
        <ele>171</ele>
        <time>2017-04-05T08:26:32Z</time>
      </trkpt>
      <trkpt lat="45.92443" lon="4.74676">
        <ele>171</ele>
        <time>2017-04-05T08:26:33Z</time>
      </trkpt>
      <trkpt lat="45.9244" lon="4.74684">
        <ele>171</ele>
        <time>2017-04-05T08:26:34Z</time>
      </trkpt>
      <trkpt lat="45.92437" lon="4.74692">
        <ele>171</ele>
        <time>2017-04-05T08:26:35Z</time>
      </trkpt>
      <trkpt lat="45.92433" lon="4.74699">
        <ele>171</ele>
        <time>2017-04-05T08:26:36Z</time>
      </trkpt>
      <trkpt lat="45.9243" lon="4.74707">
        <ele>171</ele>
        <time>2017-04-05T08:26:37Z</time>
      </trkpt>
      <trkpt lat="45.92427" lon="4.74714">
        <ele>171</ele>
        <time>2017-04-05T08:26:38Z</time>
      </trkpt>
      <trkpt lat="45.92424" lon="4.74722">
        <ele>171</ele>
        <time>2017-04-05T08:26:39Z</time>
      </trkpt>
      <trkpt lat="45.92421" lon="4.7473">
        <ele>171</ele>
        <time>2017-04-05T08:26:40Z</time>
      </trkpt>
      <trkpt lat="45.92418" lon="4.74738">
        <ele>172</ele>
        <time>2017-04-05T08:26:41Z</time>
      </trkpt>
      <trkpt lat="45.92416" lon="4.74747">
        <ele>172</ele>
        <time>2017-04-05T08:26:42Z</time>
      </trkpt>
      <trkpt lat="45.92413" lon="4.74755">
        <ele>172</ele>
        <time>2017-04-05T08:26:43Z</time>
      </trkpt>
      <trkpt lat="45.92411" lon="4.74764">
        <ele>172</ele>
        <time>2017-04-05T08:26:44Z</time>
      </trkpt>
      <trkpt lat="45.92409" lon="4.74773">
        <ele>171</ele>
        <time>2017-04-05T08:26:45Z</time>
      </trkpt>
      <trkpt lat="45.92407" lon="4.74782">
        <ele>171</ele>
        <time>2017-04-05T08:26:46Z</time>
      </trkpt>
      <trkpt lat="45.92405" lon="4.74791">
        <ele>171</ele>
        <time>2017-04-05T08:26:47Z</time>
      </trkpt>
      <trkpt lat="45.92403" lon="4.748">
        <ele>171</ele>
        <time>2017-04-05T08:26:48Z</time>
      </trkpt>
      <trkpt lat="45.92401" lon="4.74809">
        <ele>171</ele>
        <time>2017-04-05T08:26:49Z</time>
      </trkpt>
      <trkpt lat="45.92399" lon="4.74818">
        <ele>171</ele>
        <time>2017-04-05T08:26:50Z</time>
      </trkpt>
      <trkpt lat="45.92397" lon="4.74827">
        <ele>171</ele>
        <time>2017-04-05T08:26:51Z</time>
      </trkpt>
      <trkpt lat="45.92395" lon="4.74837">
        <ele>171</ele>
        <time>2017-04-05T08:26:52Z</time>
      </trkpt>
      <trkpt lat="45.92392" lon="4.74846">
        <ele>171</ele>
        <time>2017-04-05T08:26:53Z</time>
      </trkpt>
      <trkpt lat="45.92389" lon="4.74855">
        <ele>171</ele>
        <time>2017-04-05T08:26:54Z</time>
      </trkpt>
      <trkpt lat="45.92386" lon="4.74863">
        <ele>171</ele>
        <time>2017-04-05T08:26:55Z</time>
      </trkpt>
      <trkpt lat="45.92383" lon="4.74872">
        <ele>171</ele>
        <time>2017-04-05T08:26:56Z</time>
      </trkpt>
      <trkpt lat="45.9238" lon="4.7488">
        <ele>171</ele>
        <time>2017-04-05T08:26:57Z</time>
      </trkpt>
      <trkpt lat="45.92378" lon="4.74888">
        <ele>171</ele>
        <time>2017-04-05T08:26:58Z</time>
      </trkpt>
      <trkpt lat="45.92375" lon="4.74896">
        <ele>171</ele>
        <time>2017-04-05T08:26:59Z</time>
      </trkpt>
      <trkpt lat="45.92372" lon="4.74904">
        <ele>171</ele>
        <time>2017-04-05T08:27:00Z</time>
      </trkpt>
      <trkpt lat="45.92369" lon="4.74912">
        <ele>171</ele>
        <time>2017-04-05T08:27:01Z</time>
      </trkpt>
      <trkpt lat="45.92366" lon="4.74919">
        <ele>170</ele>
        <time>2017-04-05T08:27:02Z</time>
      </trkpt>
      <trkpt lat="45.92363" lon="4.74926">
        <ele>170</ele>
        <time>2017-04-05T08:27:03Z</time>
      </trkpt>
      <trkpt lat="45.9236" lon="4.74934">
        <ele>170</ele>
        <time>2017-04-05T08:27:04Z</time>
      </trkpt>
      <trkpt lat="45.92357" lon="4.74942">
        <ele>170</ele>
        <time>2017-04-05T08:27:05Z</time>
      </trkpt>
      <trkpt lat="45.92354" lon="4.74949">
        <ele>170</ele>
        <time>2017-04-05T08:27:06Z</time>
      </trkpt>
      <trkpt lat="45.92352" lon="4.74957">
        <ele>170</ele>
        <time>2017-04-05T08:27:07Z</time>
      </trkpt>
      <trkpt lat="45.92349" lon="4.74965">
        <ele>170</ele>
        <time>2017-04-05T08:27:08Z</time>
      </trkpt>
      <trkpt lat="45.92346" lon="4.74972">
        <ele>170</ele>
        <time>2017-04-05T08:27:09Z</time>
      </trkpt>
      <trkpt lat="45.92343" lon="4.74979">
        <ele>170</ele>
        <time>2017-04-05T08:27:10Z</time>
      </trkpt>
      <trkpt lat="45.9234" lon="4.74987">
        <ele>170</ele>
        <time>2017-04-05T08:27:11Z</time>
      </trkpt>
      <trkpt lat="45.92337" lon="4.74994">
        <ele>170</ele>
        <time>2017-04-05T08:27:12Z</time>
      </trkpt>
      <trkpt lat="45.92333" lon="4.75002">
        <ele>170</ele>
        <time>2017-04-05T08:27:13Z</time>
      </trkpt>
      <trkpt lat="45.9233" lon="4.7501">
        <ele>171</ele>
        <time>2017-04-05T08:27:14Z</time>
      </trkpt>
      <trkpt lat="45.92326" lon="4.75018">
        <ele>171</ele>
        <time>2017-04-05T08:27:15Z</time>
      </trkpt>
      <trkpt lat="45.92323" lon="4.75026">
        <ele>171</ele>
        <time>2017-04-05T08:27:16Z</time>
      </trkpt>
      <trkpt lat="45.92319" lon="4.75033">
        <ele>171</ele>
        <time>2017-04-05T08:27:17Z</time>
      </trkpt>
      <trkpt lat="45.92314" lon="4.75041">
        <ele>172</ele>
        <time>2017-04-05T08:27:18Z</time>
      </trkpt>
      <trkpt lat="45.9231" lon="4.75048">
        <ele>172</ele>
        <time>2017-04-05T08:27:19Z</time>
      </trkpt>
      <trkpt lat="45.92305" lon="4.75055">
        <ele>172</ele>
        <time>2017-04-05T08:27:20Z</time>
      </trkpt>
      <trkpt lat="45.92301" lon="4.75061">
        <ele>172</ele>
        <time>2017-04-05T08:27:21Z</time>
      </trkpt>
      <trkpt lat="45.92296" lon="4.75067">
        <ele>172</ele>
        <time>2017-04-05T08:27:22Z</time>
      </trkpt>
      <trkpt lat="45.92291" lon="4.75073">
        <ele>172</ele>
        <time>2017-04-05T08:27:23Z</time>
      </trkpt>
      <trkpt lat="45.92286" lon="4.75079">
        <ele>172</ele>
        <time>2017-04-05T08:27:24Z</time>
      </trkpt>
      <trkpt lat="45.92281" lon="4.75085">
        <ele>173</ele>
        <time>2017-04-05T08:27:25Z</time>
      </trkpt>
      <trkpt lat="45.92276" lon="4.7509">
        <ele>173</ele>
        <time>2017-04-05T08:27:26Z</time>
      </trkpt>
      <trkpt lat="45.92271" lon="4.75096">
        <ele>173</ele>
        <time>2017-04-05T08:27:27Z</time>
      </trkpt>
      <trkpt lat="45.92266" lon="4.75101">
        <ele>173</ele>
        <time>2017-04-05T08:27:28Z</time>
      </trkpt>
      <trkpt lat="45.92261" lon="4.75106">
        <ele>174</ele>
        <time>2017-04-05T08:27:29Z</time>
      </trkpt>
      <trkpt lat="45.92256" lon="4.75112">
        <ele>174</ele>
        <time>2017-04-05T08:27:30Z</time>
      </trkpt>
      <trkpt lat="45.92251" lon="4.75117">
        <ele>174</ele>
        <time>2017-04-05T08:27:31Z</time>
      </trkpt>
      <trkpt lat="45.92246" lon="4.75123">
        <ele>174</ele>
        <time>2017-04-05T08:27:32Z</time>
      </trkpt>
      <trkpt lat="45.92242" lon="4.75128">
        <ele>174</ele>
        <time>2017-04-05T08:27:33Z</time>
      </trkpt>
      <trkpt lat="45.92238" lon="4.75133">
        <ele>174</ele>
        <time>2017-04-05T08:27:34Z</time>
      </trkpt>
      <trkpt lat="45.92234" lon="4.75139">
        <ele>174</ele>
        <time>2017-04-05T08:27:35Z</time>
      </trkpt>
      <trkpt lat="45.9223" lon="4.75145">
        <ele>174</ele>
        <time>2017-04-05T08:27:36Z</time>
      </trkpt>
      <trkpt lat="45.92226" lon="4.75151">
        <ele>174</ele>
        <time>2017-04-05T08:27:37Z</time>
      </trkpt>
      <trkpt lat="45.92223" lon="4.75158">
        <ele>174</ele>
        <time>2017-04-05T08:27:38Z</time>
      </trkpt>
      <trkpt lat="45.92221" lon="4.75165">
        <ele>174</ele>
        <time>2017-04-05T08:27:39Z</time>
      </trkpt>
      <trkpt lat="45.92218" lon="4.75173">
        <ele>175</ele>
        <time>2017-04-05T08:27:40Z</time>
      </trkpt>
      <trkpt lat="45.92216" lon="4.7518">
        <ele>175</ele>
        <time>2017-04-05T08:27:41Z</time>
      </trkpt>
      <trkpt lat="45.92214" lon="4.75188">
        <ele>175</ele>
        <time>2017-04-05T08:27:42Z</time>
      </trkpt>
      <trkpt lat="45.92212" lon="4.75196">
        <ele>175</ele>
        <time>2017-04-05T08:27:43Z</time>
      </trkpt>
      <trkpt lat="45.9221" lon="4.75204">
        <ele>175</ele>
        <time>2017-04-05T08:27:44Z</time>
      </trkpt>
      <trkpt lat="45.92209" lon="4.75212">
        <ele>175</ele>
        <time>2017-04-05T08:27:45Z</time>
      </trkpt>
      <trkpt lat="45.92208" lon="4.7522">
        <ele>175</ele>
        <time>2017-04-05T08:27:46Z</time>
      </trkpt>
      <trkpt lat="45.92208" lon="4.75228">
        <ele>175</ele>
        <time>2017-04-05T08:27:47Z</time>
      </trkpt>
      <trkpt lat="45.92207" lon="4.75236">
        <ele>175</ele>
        <time>2017-04-05T08:27:48Z</time>
      </trkpt>
      <trkpt lat="45.92207" lon="4.75244">
        <ele>175</ele>
        <time>2017-04-05T08:27:49Z</time>
      </trkpt>
      <trkpt lat="45.92207" lon="4.75252">
        <ele>175</ele>
        <time>2017-04-05T08:27:50Z</time>
      </trkpt>
      <trkpt lat="45.92207" lon="4.7526">
        <ele>176</ele>
        <time>2017-04-05T08:27:51Z</time>
      </trkpt>
      <trkpt lat="45.92207" lon="4.75268">
        <ele>176</ele>
        <time>2017-04-05T08:27:52Z</time>
      </trkpt>
      <trkpt lat="45.92207" lon="4.75276">
        <ele>176</ele>
        <time>2017-04-05T08:27:53Z</time>
      </trkpt>
      <trkpt lat="45.92207" lon="4.75284">
        <ele>176</ele>
        <time>2017-04-05T08:27:54Z</time>
      </trkpt>
      <trkpt lat="45.92206" lon="4.75291">
        <ele>176</ele>
        <time>2017-04-05T08:27:55Z</time>
      </trkpt>
      <trkpt lat="45.92206" lon="4.75299">
        <ele>176</ele>
        <time>2017-04-05T08:27:56Z</time>
      </trkpt>
      <trkpt lat="45.92206" lon="4.75307">
        <ele>176</ele>
        <time>2017-04-05T08:27:57Z</time>
      </trkpt>
      <trkpt lat="45.92205" lon="4.75315">
        <ele>176</ele>
        <time>2017-04-05T08:27:58Z</time>
      </trkpt>
      <trkpt lat="45.92204" lon="4.75323">
        <ele>176</ele>
        <time>2017-04-05T08:27:59Z</time>
      </trkpt>
      <trkpt lat="45.92202" lon="4.75331">
        <ele>176</ele>
        <time>2017-04-05T08:28:00Z</time>
      </trkpt>
      <trkpt lat="45.92201" lon="4.75339">
        <ele>177</ele>
        <time>2017-04-05T08:28:01Z</time>
      </trkpt>
      <trkpt lat="45.92199" lon="4.75346">
        <ele>177</ele>
        <time>2017-04-05T08:28:02Z</time>
      </trkpt>
      <trkpt lat="45.92197" lon="4.75354">
        <ele>177</ele>
        <time>2017-04-05T08:28:03Z</time>
      </trkpt>
      <trkpt lat="45.92195" lon="4.75361">
        <ele>177</ele>
        <time>2017-04-05T08:28:04Z</time>
      </trkpt>
      <trkpt lat="45.92192" lon="4.75368">
        <ele>177</ele>
        <time>2017-04-05T08:28:05Z</time>
      </trkpt>
      <trkpt lat="45.9219" lon="4.75376">
        <ele>177</ele>
        <time>2017-04-05T08:28:06Z</time>
      </trkpt>
      <trkpt lat="45.92187" lon="4.75383">
        <ele>177</ele>
        <time>2017-04-05T08:28:07Z</time>
      </trkpt>
      <trkpt lat="45.92184" lon="4.7539">
        <ele>177</ele>
        <time>2017-04-05T08:28:08Z</time>
      </trkpt>
      <trkpt lat="45.92182" lon="4.75397">
        <ele>177</ele>
        <time>2017-04-05T08:28:09Z</time>
      </trkpt>
      <trkpt lat="45.92179" lon="4.75405">
        <ele>177</ele>
        <time>2017-04-05T08:28:10Z</time>
      </trkpt>
      <trkpt lat="45.92176" lon="4.75411">
        <ele>178</ele>
        <time>2017-04-05T08:28:11Z</time>
      </trkpt>
      <trkpt lat="45.92174" lon="4.75418">
        <ele>177</ele>
        <time>2017-04-05T08:28:12Z</time>
      </trkpt>
      <trkpt lat="45.92172" lon="4.75425">
        <ele>177</ele>
        <time>2017-04-05T08:28:13Z</time>
      </trkpt>
      <trkpt lat="45.9217" lon="4.75432">
        <ele>177</ele>
        <time>2017-04-05T08:28:14Z</time>
      </trkpt>
      <trkpt lat="45.92167" lon="4.7544">
        <ele>177</ele>
        <time>2017-04-05T08:28:15Z</time>
      </trkpt>
      <trkpt lat="45.92164" lon="4.75446">
        <ele>177</ele>
        <time>2017-04-05T08:28:16Z</time>
      </trkpt>
      <trkpt lat="45.92161" lon="4.75454">
        <ele>176</ele>
        <time>2017-04-05T08:28:17Z</time>
      </trkpt>
      <trkpt lat="45.92158" lon="4.75462">
        <ele>176</ele>
        <time>2017-04-05T08:28:18Z</time>
      </trkpt>
      <trkpt lat="45.92156" lon="4.7547">
        <ele>176</ele>
        <time>2017-04-05T08:28:19Z</time>
      </trkpt>
      <trkpt lat="45.92153" lon="4.75479">
        <ele>176</ele>
        <time>2017-04-05T08:28:20Z</time>
      </trkpt>
      <trkpt lat="45.9215" lon="4.75487">
        <ele>176</ele>
        <time>2017-04-05T08:28:21Z</time>
      </trkpt>
      <trkpt lat="45.92146" lon="4.75495">
        <ele>175</ele>
        <time>2017-04-05T08:28:22Z</time>
      </trkpt>
      <trkpt lat="45.92142" lon="4.75502">
        <ele>175</ele>
        <time>2017-04-05T08:28:23Z</time>
      </trkpt>
      <trkpt lat="45.92138" lon="4.75509">
        <ele>174</ele>
        <time>2017-04-05T08:28:24Z</time>
      </trkpt>
      <trkpt lat="45.92134" lon="4.75516">
        <ele>174</ele>
        <time>2017-04-05T08:28:25Z</time>
      </trkpt>
      <trkpt lat="45.9213" lon="4.75524">
        <ele>174</ele>
        <time>2017-04-05T08:28:26Z</time>
      </trkpt>
      <trkpt lat="45.92126" lon="4.75531">
        <ele>174</ele>
        <time>2017-04-05T08:28:27Z</time>
      </trkpt>
      <trkpt lat="45.92123" lon="4.75538">
        <ele>174</ele>
        <time>2017-04-05T08:28:28Z</time>
      </trkpt>
      <trkpt lat="45.9212" lon="4.75545">
        <ele>174</ele>
        <time>2017-04-05T08:28:29Z</time>
      </trkpt>
      <trkpt lat="45.92117" lon="4.75553">
        <ele>174</ele>
        <time>2017-04-05T08:28:30Z</time>
      </trkpt>
      <trkpt lat="45.92113" lon="4.7556">
        <ele>174</ele>
        <time>2017-04-05T08:28:31Z</time>
      </trkpt>
      <trkpt lat="45.92111" lon="4.75567">
        <ele>174</ele>
        <time>2017-04-05T08:28:32Z</time>
      </trkpt>
      <trkpt lat="45.92109" lon="4.75573">
        <ele>174</ele>
        <time>2017-04-05T08:28:33Z</time>
      </trkpt>
      <trkpt lat="45.92109" lon="4.7558">
        <ele>174</ele>
        <time>2017-04-05T08:28:34Z</time>
      </trkpt>
      <trkpt lat="45.92113" lon="4.75591">
        <ele>174</ele>
        <time>2017-04-05T08:28:36Z</time>
      </trkpt>
      <trkpt lat="45.92117" lon="4.75595">
        <ele>174</ele>
        <time>2017-04-05T08:28:37Z</time>
      </trkpt>
      <trkpt lat="45.92122" lon="4.75599">
        <ele>174</ele>
        <time>2017-04-05T08:28:38Z</time>
      </trkpt>
      <trkpt lat="45.92126" lon="4.75603">
        <ele>174</ele>
        <time>2017-04-05T08:28:39Z</time>
      </trkpt>
      <trkpt lat="45.92131" lon="4.75607">
        <ele>174</ele>
        <time>2017-04-05T08:28:40Z</time>
      </trkpt>
      <trkpt lat="45.92135" lon="4.75611">
        <ele>174</ele>
        <time>2017-04-05T08:28:41Z</time>
      </trkpt>
      <trkpt lat="45.9214" lon="4.75615">
        <ele>174</ele>
        <time>2017-04-05T08:28:42Z</time>
      </trkpt>
      <trkpt lat="45.92144" lon="4.7562">
        <ele>174</ele>
        <time>2017-04-05T08:28:43Z</time>
      </trkpt>
      <trkpt lat="45.92149" lon="4.75624">
        <ele>174</ele>
        <time>2017-04-05T08:28:44Z</time>
      </trkpt>
      <trkpt lat="45.92153" lon="4.75628">
        <ele>174</ele>
        <time>2017-04-05T08:28:45Z</time>
      </trkpt>
      <trkpt lat="45.92157" lon="4.75632">
        <ele>174</ele>
        <time>2017-04-05T08:28:46Z</time>
      </trkpt>
      <trkpt lat="45.92161" lon="4.75636">
        <ele>174</ele>
        <time>2017-04-05T08:28:47Z</time>
      </trkpt>
      <trkpt lat="45.92165" lon="4.75641">
        <ele>174</ele>
        <time>2017-04-05T08:28:48Z</time>
      </trkpt>
      <trkpt lat="45.92169" lon="4.75645">
        <ele>174</ele>
        <time>2017-04-05T08:28:49Z</time>
      </trkpt>
      <trkpt lat="45.92173" lon="4.7565">
        <ele>174</ele>
        <time>2017-04-05T08:28:50Z</time>
      </trkpt>
      <trkpt lat="45.92177" lon="4.75655">
        <ele>174</ele>
        <time>2017-04-05T08:28:51Z</time>
      </trkpt>
      <trkpt lat="45.92182" lon="4.75658">
        <ele>174</ele>
        <time>2017-04-05T08:28:52Z</time>
      </trkpt>
      <trkpt lat="45.92186" lon="4.75662">
        <ele>174</ele>
        <time>2017-04-05T08:28:53Z</time>
      </trkpt>
      <trkpt lat="45.9219" lon="4.75666">
        <ele>174</ele>
        <time>2017-04-05T08:28:54Z</time>
      </trkpt>
      <trkpt lat="45.92194" lon="4.7567">
        <ele>174</ele>
        <time>2017-04-05T08:28:55Z</time>
      </trkpt>
      <trkpt lat="45.92198" lon="4.75674">
        <ele>174</ele>
        <time>2017-04-05T08:28:56Z</time>
      </trkpt>
      <trkpt lat="45.92203" lon="4.75678">
        <ele>174</ele>
        <time>2017-04-05T08:28:57Z</time>
      </trkpt>
      <trkpt lat="45.92207" lon="4.75683">
        <ele>174</ele>
        <time>2017-04-05T08:28:58Z</time>
      </trkpt>
      <trkpt lat="45.92212" lon="4.75687">
        <ele>174</ele>
        <time>2017-04-05T08:28:59Z</time>
      </trkpt>
      <trkpt lat="45.92216" lon="4.75692">
        <ele>174</ele>
        <time>2017-04-05T08:29:00Z</time>
      </trkpt>
      <trkpt lat="45.9222" lon="4.75696">
        <ele>174</ele>
        <time>2017-04-05T08:29:01Z</time>
      </trkpt>
      <trkpt lat="45.92225" lon="4.75701">
        <ele>174</ele>
        <time>2017-04-05T08:29:02Z</time>
      </trkpt>
      <trkpt lat="45.92229" lon="4.75706">
        <ele>174</ele>
        <time>2017-04-05T08:29:03Z</time>
      </trkpt>
      <trkpt lat="45.92232" lon="4.75712">
        <ele>174</ele>
        <time>2017-04-05T08:29:04Z</time>
      </trkpt>
      <trkpt lat="45.92235" lon="4.75719">
        <ele>174</ele>
        <time>2017-04-05T08:29:05Z</time>
      </trkpt>
      <trkpt lat="45.92238" lon="4.75725">
        <ele>174</ele>
        <time>2017-04-05T08:29:06Z</time>
      </trkpt>
      <trkpt lat="45.9224" lon="4.75732">
        <ele>174</ele>
        <time>2017-04-05T08:29:07Z</time>
      </trkpt>
      <trkpt lat="45.92242" lon="4.75738">
        <ele>174</ele>
        <time>2017-04-05T08:29:08Z</time>
      </trkpt>
      <trkpt lat="45.92244" lon="4.75745">
        <ele>174</ele>
        <time>2017-04-05T08:29:09Z</time>
      </trkpt>
      <trkpt lat="45.92245" lon="4.75752">
        <ele>174</ele>
        <time>2017-04-05T08:29:10Z</time>
      </trkpt>
      <trkpt lat="45.92247" lon="4.75759">
        <ele>174</ele>
        <time>2017-04-05T08:29:11Z</time>
      </trkpt>
      <trkpt lat="45.92248" lon="4.75766">
        <ele>174</ele>
        <time>2017-04-05T08:29:12Z</time>
      </trkpt>
      <trkpt lat="45.92249" lon="4.75773">
        <ele>174</ele>
        <time>2017-04-05T08:29:13Z</time>
      </trkpt>
      <trkpt lat="45.92251" lon="4.7578">
        <ele>174</ele>
        <time>2017-04-05T08:29:14Z</time>
      </trkpt>
      <trkpt lat="45.92252" lon="4.75787">
        <ele>174</ele>
        <time>2017-04-05T08:29:15Z</time>
      </trkpt>
      <trkpt lat="45.92253" lon="4.75793">
        <ele>174</ele>
        <time>2017-04-05T08:29:16Z</time>
      </trkpt>
      <trkpt lat="45.92255" lon="4.758">
        <ele>174</ele>
        <time>2017-04-05T08:29:17Z</time>
      </trkpt>
      <trkpt lat="45.92257" lon="4.75807">
        <ele>174</ele>
        <time>2017-04-05T08:29:18Z</time>
      </trkpt>
      <trkpt lat="45.92259" lon="4.75813">
        <ele>174</ele>
        <time>2017-04-05T08:29:19Z</time>
      </trkpt>
      <trkpt lat="45.92263" lon="4.75819">
        <ele>174</ele>
        <time>2017-04-05T08:29:20Z</time>
      </trkpt>
      <trkpt lat="45.92267" lon="4.75825">
        <ele>174</ele>
        <time>2017-04-05T08:29:21Z</time>
      </trkpt>
      <trkpt lat="45.92272" lon="4.75829">
        <ele>174</ele>
        <time>2017-04-05T08:29:22Z</time>
      </trkpt>
      <trkpt lat="45.92277" lon="4.75834">
        <ele>173</ele>
        <time>2017-04-05T08:29:23Z</time>
      </trkpt>
      <trkpt lat="45.92282" lon="4.75838">
        <ele>173</ele>
        <time>2017-04-05T08:29:24Z</time>
      </trkpt>
      <trkpt lat="45.92287" lon="4.75841">
        <ele>173</ele>
        <time>2017-04-05T08:29:25Z</time>
      </trkpt>
      <trkpt lat="45.92293" lon="4.75844">
        <ele>173</ele>
        <time>2017-04-05T08:29:26Z</time>
      </trkpt>
      <trkpt lat="45.92298" lon="4.75847">
        <ele>173</ele>
        <time>2017-04-05T08:29:27Z</time>
      </trkpt>
      <trkpt lat="45.92304" lon="4.7585">
        <ele>173</ele>
        <time>2017-04-05T08:29:28Z</time>
      </trkpt>
      <trkpt lat="45.92309" lon="4.75853">
        <ele>173</ele>
        <time>2017-04-05T08:29:29Z</time>
      </trkpt>
      <trkpt lat="45.92314" lon="4.75857">
        <ele>173</ele>
        <time>2017-04-05T08:29:30Z</time>
      </trkpt>
      <trkpt lat="45.92319" lon="4.7586">
        <ele>173</ele>
        <time>2017-04-05T08:29:31Z</time>
      </trkpt>
      <trkpt lat="45.92325" lon="4.75863">
        <ele>173</ele>
        <time>2017-04-05T08:29:32Z</time>
      </trkpt>
      <trkpt lat="45.9233" lon="4.75867">
        <ele>173</ele>
        <time>2017-04-05T08:29:33Z</time>
      </trkpt>
      <trkpt lat="45.92335" lon="4.7587">
        <ele>173</ele>
        <time>2017-04-05T08:29:34Z</time>
      </trkpt>
      <trkpt lat="45.9234" lon="4.75873">
        <ele>173</ele>
        <time>2017-04-05T08:29:35Z</time>
      </trkpt>
      <trkpt lat="45.92346" lon="4.75876">
        <ele>173</ele>
        <time>2017-04-05T08:29:36Z</time>
      </trkpt>
      <trkpt lat="45.92351" lon="4.7588">
        <ele>173</ele>
        <time>2017-04-05T08:29:37Z</time>
      </trkpt>
      <trkpt lat="45.92355" lon="4.75883">
        <ele>173</ele>
        <time>2017-04-05T08:29:38Z</time>
      </trkpt>
      <trkpt lat="45.9236" lon="4.75886">
        <ele>173</ele>
        <time>2017-04-05T08:29:39Z</time>
      </trkpt>
      <trkpt lat="45.92365" lon="4.75889">
        <ele>173</ele>
        <time>2017-04-05T08:29:40Z</time>
      </trkpt>
      <trkpt lat="45.9237" lon="4.75892">
        <ele>173</ele>
        <time>2017-04-05T08:29:41Z</time>
      </trkpt>
      <trkpt lat="45.92375" lon="4.75895">
        <ele>173</ele>
        <time>2017-04-05T08:29:42Z</time>
      </trkpt>
      <trkpt lat="45.92379" lon="4.75898">
        <ele>173</ele>
        <time>2017-04-05T08:29:43Z</time>
      </trkpt>
      <trkpt lat="45.92384" lon="4.75901">
        <ele>173</ele>
        <time>2017-04-05T08:29:44Z</time>
      </trkpt>
      <trkpt lat="45.92388" lon="4.75905">
        <ele>173</ele>
        <time>2017-04-05T08:29:45Z</time>
      </trkpt>
      <trkpt lat="45.92393" lon="4.75908">
        <ele>173</ele>
        <time>2017-04-05T08:29:46Z</time>
      </trkpt>
      <trkpt lat="45.92397" lon="4.75911">
        <ele>173</ele>
        <time>2017-04-05T08:29:47Z</time>
      </trkpt>
      <trkpt lat="45.92402" lon="4.75914">
        <ele>172</ele>
        <time>2017-04-05T08:29:48Z</time>
      </trkpt>
      <trkpt lat="45.92406" lon="4.75917">
        <ele>172</ele>
        <time>2017-04-05T08:29:49Z</time>
      </trkpt>
      <trkpt lat="45.92411" lon="4.75921">
        <ele>172</ele>
        <time>2017-04-05T08:29:50Z</time>
      </trkpt>
      <trkpt lat="45.92416" lon="4.75924">
        <ele>172</ele>
        <time>2017-04-05T08:29:51Z</time>
      </trkpt>
      <trkpt lat="45.92421" lon="4.75927">
        <ele>172</ele>
        <time>2017-04-05T08:29:52Z</time>
      </trkpt>
      <trkpt lat="45.92425" lon="4.75931">
        <ele>172</ele>
        <time>2017-04-05T08:29:53Z</time>
      </trkpt>
      <trkpt lat="45.9243" lon="4.75935">
        <ele>172</ele>
        <time>2017-04-05T08:29:54Z</time>
      </trkpt>
      <trkpt lat="45.92435" lon="4.75939">
        <ele>172</ele>
        <time>2017-04-05T08:29:55Z</time>
      </trkpt>
      <trkpt lat="45.9244" lon="4.75942">
        <ele>172</ele>
        <time>2017-04-05T08:29:56Z</time>
      </trkpt>
      <trkpt lat="45.92444" lon="4.75946">
        <ele>172</ele>
        <time>2017-04-05T08:29:57Z</time>
      </trkpt>
      <trkpt lat="45.92449" lon="4.7595">
        <ele>172</ele>
        <time>2017-04-05T08:29:58Z</time>
      </trkpt>
      <trkpt lat="45.92453" lon="4.75953">
        <ele>172</ele>
        <time>2017-04-05T08:29:59Z</time>
      </trkpt>
      <trkpt lat="45.92458" lon="4.75956">
        <ele>172</ele>
        <time>2017-04-05T08:30:00Z</time>
      </trkpt>
      <trkpt lat="45.92462" lon="4.7596">
        <ele>172</ele>
        <time>2017-04-05T08:30:01Z</time>
      </trkpt>
      <trkpt lat="45.92466" lon="4.75963">
        <ele>172</ele>
        <time>2017-04-05T08:30:02Z</time>
      </trkpt>
      <trkpt lat="45.9247" lon="4.75966">
        <ele>172</ele>
        <time>2017-04-05T08:30:03Z</time>
      </trkpt>
      <trkpt lat="45.92475" lon="4.7597">
        <ele>172</ele>
        <time>2017-04-05T08:30:04Z</time>
      </trkpt>
      <trkpt lat="45.92479" lon="4.75973">
        <ele>172</ele>
        <time>2017-04-05T08:30:05Z</time>
      </trkpt>
      <trkpt lat="45.92484" lon="4.75977">
        <ele>172</ele>
        <time>2017-04-05T08:30:06Z</time>
      </trkpt>
      <trkpt lat="45.92488" lon="4.7598">
        <ele>172</ele>
        <time>2017-04-05T08:30:07Z</time>
      </trkpt>
      <trkpt lat="45.92493" lon="4.75983">
        <ele>172</ele>
        <time>2017-04-05T08:30:08Z</time>
      </trkpt>
      <trkpt lat="45.92497" lon="4.75987">
        <ele>172</ele>
        <time>2017-04-05T08:30:09Z</time>
      </trkpt>
      <trkpt lat="45.92501" lon="4.7599">
        <ele>172</ele>
        <time>2017-04-05T08:30:10Z</time>
      </trkpt>
      <trkpt lat="45.92505" lon="4.75993">
        <ele>172</ele>
        <time>2017-04-05T08:30:11Z</time>
      </trkpt>
      <trkpt lat="45.92509" lon="4.75996">
        <ele>172</ele>
        <time>2017-04-05T08:30:12Z</time>
      </trkpt>
      <trkpt lat="45.92513" lon="4.75999">
        <ele>172</ele>
        <time>2017-04-05T08:30:13Z</time>
      </trkpt>
      <trkpt lat="45.92517" lon="4.76002">
        <ele>172</ele>
        <time>2017-04-05T08:30:14Z</time>
      </trkpt>
      <trkpt lat="45.92521" lon="4.76005">
        <ele>172</ele>
        <time>2017-04-05T08:30:15Z</time>
      </trkpt>
      <trkpt lat="45.92529" lon="4.7601">
        <ele>172</ele>
        <time>2017-04-05T08:30:17Z</time>
      </trkpt>
      <trkpt lat="45.92533" lon="4.76014">
        <ele>172</ele>
        <time>2017-04-05T08:30:18Z</time>
      </trkpt>
      <trkpt lat="45.92537" lon="4.76017">
        <ele>172</ele>
        <time>2017-04-05T08:30:19Z</time>
      </trkpt>
      <trkpt lat="45.92541" lon="4.7602">
        <ele>172</ele>
        <time>2017-04-05T08:30:20Z</time>
      </trkpt>
      <trkpt lat="45.92545" lon="4.76023">
        <ele>172</ele>
        <time>2017-04-05T08:30:21Z</time>
      </trkpt>
      <trkpt lat="45.92549" lon="4.76026">
        <ele>172</ele>
        <time>2017-04-05T08:30:22Z</time>
      </trkpt>
      <trkpt lat="45.92554" lon="4.76029">
        <ele>172</ele>
        <time>2017-04-05T08:30:23Z</time>
      </trkpt>
      <trkpt lat="45.92558" lon="4.76033">
        <ele>172</ele>
        <time>2017-04-05T08:30:24Z</time>
      </trkpt>
      <trkpt lat="45.92562" lon="4.76036">
        <ele>172</ele>
        <time>2017-04-05T08:30:25Z</time>
      </trkpt>
      <trkpt lat="45.92566" lon="4.76039">
        <ele>172</ele>
        <time>2017-04-05T08:30:26Z</time>
      </trkpt>
      <trkpt lat="45.92571" lon="4.76042">
        <ele>172</ele>
        <time>2017-04-05T08:30:27Z</time>
      </trkpt>
      <trkpt lat="45.92575" lon="4.76045">
        <ele>171</ele>
        <time>2017-04-05T08:30:28Z</time>
      </trkpt>
      <trkpt lat="45.92579" lon="4.76048">
        <ele>171</ele>
        <time>2017-04-05T08:30:29Z</time>
      </trkpt>
      <trkpt lat="45.92584" lon="4.76051">
        <ele>171</ele>
        <time>2017-04-05T08:30:30Z</time>
      </trkpt>
      <trkpt lat="45.92588" lon="4.76054">
        <ele>171</ele>
        <time>2017-04-05T08:30:31Z</time>
      </trkpt>
      <trkpt lat="45.92593" lon="4.76057">
        <ele>171</ele>
        <time>2017-04-05T08:30:32Z</time>
      </trkpt>
      <trkpt lat="45.92597" lon="4.76061">
        <ele>171</ele>
        <time>2017-04-05T08:30:33Z</time>
      </trkpt>
      <trkpt lat="45.92602" lon="4.76064">
        <ele>171</ele>
        <time>2017-04-05T08:30:34Z</time>
      </trkpt>
      <trkpt lat="45.92607" lon="4.76068">
        <ele>171</ele>
        <time>2017-04-05T08:30:35Z</time>
      </trkpt>
      <trkpt lat="45.92612" lon="4.76071">
        <ele>171</ele>
        <time>2017-04-05T08:30:36Z</time>
      </trkpt>
      <trkpt lat="45.92617" lon="4.76074">
        <ele>171</ele>
        <time>2017-04-05T08:30:37Z</time>
      </trkpt>
      <trkpt lat="45.92622" lon="4.76078">
        <ele>171</ele>
        <time>2017-04-05T08:30:38Z</time>
      </trkpt>
      <trkpt lat="45.92627" lon="4.76081">
        <ele>170</ele>
        <time>2017-04-05T08:30:39Z</time>
      </trkpt>
      <trkpt lat="45.92632" lon="4.76085">
        <ele>170</ele>
        <time>2017-04-05T08:30:40Z</time>
      </trkpt>
      <trkpt lat="45.92637" lon="4.76088">
        <ele>170</ele>
        <time>2017-04-05T08:30:41Z</time>
      </trkpt>
      <trkpt lat="45.92642" lon="4.76091">
        <ele>170</ele>
        <time>2017-04-05T08:30:42Z</time>
      </trkpt>
      <trkpt lat="45.92648" lon="4.76095">
        <ele>170</ele>
        <time>2017-04-05T08:30:43Z</time>
      </trkpt>
      <trkpt lat="45.92653" lon="4.76098">
        <ele>170</ele>
        <time>2017-04-05T08:30:44Z</time>
      </trkpt>
      <trkpt lat="45.92659" lon="4.76102">
        <ele>170</ele>
        <time>2017-04-05T08:30:45Z</time>
      </trkpt>
      <trkpt lat="45.92665" lon="4.76105">
        <ele>170</ele>
        <time>2017-04-05T08:30:46Z</time>
      </trkpt>
      <trkpt lat="45.9267" lon="4.76109">
        <ele>169</ele>
        <time>2017-04-05T08:30:47Z</time>
      </trkpt>
      <trkpt lat="45.92676" lon="4.76113">
        <ele>169</ele>
        <time>2017-04-05T08:30:48Z</time>
      </trkpt>
      <trkpt lat="45.92682" lon="4.76118">
        <ele>169</ele>
        <time>2017-04-05T08:30:49Z</time>
      </trkpt>
      <trkpt lat="45.92689" lon="4.76122">
        <ele>169</ele>
        <time>2017-04-05T08:30:50Z</time>
      </trkpt>
      <trkpt lat="45.92695" lon="4.76126">
        <ele>169</ele>
        <time>2017-04-05T08:30:51Z</time>
      </trkpt>
      <trkpt lat="45.92701" lon="4.76129">
        <ele>169</ele>
        <time>2017-04-05T08:30:52Z</time>
      </trkpt>
      <trkpt lat="45.92707" lon="4.76133">
        <ele>169</ele>
        <time>2017-04-05T08:30:53Z</time>
      </trkpt>
      <trkpt lat="45.92713" lon="4.76138">
        <ele>168</ele>
        <time>2017-04-05T08:30:54Z</time>
      </trkpt>
      <trkpt lat="45.92719" lon="4.76142">
        <ele>168</ele>
        <time>2017-04-05T08:30:55Z</time>
      </trkpt>
      <trkpt lat="45.92725" lon="4.76146">
        <ele>168</ele>
        <time>2017-04-05T08:30:56Z</time>
      </trkpt>
      <trkpt lat="45.92731" lon="4.76151">
        <ele>168</ele>
        <time>2017-04-05T08:30:57Z</time>
      </trkpt>
      <trkpt lat="45.92737" lon="4.76155">
        <ele>168</ele>
        <time>2017-04-05T08:30:58Z</time>
      </trkpt>
      <trkpt lat="45.92742" lon="4.76159">
        <ele>168</ele>
        <time>2017-04-05T08:30:59Z</time>
      </trkpt>
      <trkpt lat="45.92747" lon="4.76163">
        <ele>167</ele>
        <time>2017-04-05T08:31:00Z</time>
      </trkpt>
      <trkpt lat="45.92752" lon="4.76167">
        <ele>167</ele>
        <time>2017-04-05T08:31:01Z</time>
      </trkpt>
      <trkpt lat="45.92758" lon="4.76172">
        <ele>167</ele>
        <time>2017-04-05T08:31:02Z</time>
      </trkpt>
      <trkpt lat="45.92763" lon="4.76176">
        <ele>167</ele>
        <time>2017-04-05T08:31:03Z</time>
      </trkpt>
      <trkpt lat="45.92768" lon="4.7618">
        <ele>167</ele>
        <time>2017-04-05T08:31:04Z</time>
      </trkpt>
      <trkpt lat="45.92773" lon="4.76185">
        <ele>167</ele>
        <time>2017-04-05T08:31:05Z</time>
      </trkpt>
      <trkpt lat="45.92778" lon="4.76189">
        <ele>168</ele>
        <time>2017-04-05T08:31:06Z</time>
      </trkpt>
      <trkpt lat="45.92783" lon="4.76194">
        <ele>168</ele>
        <time>2017-04-05T08:31:07Z</time>
      </trkpt>
      <trkpt lat="45.92788" lon="4.76198">
        <ele>168</ele>
        <time>2017-04-05T08:31:08Z</time>
      </trkpt>
      <trkpt lat="45.92793" lon="4.76203">
        <ele>168</ele>
        <time>2017-04-05T08:31:09Z</time>
      </trkpt>
      <trkpt lat="45.92798" lon="4.76208">
        <ele>168</ele>
        <time>2017-04-05T08:31:10Z</time>
      </trkpt>
      <trkpt lat="45.92802" lon="4.76213">
        <ele>168</ele>
        <time>2017-04-05T08:31:11Z</time>
      </trkpt>
      <trkpt lat="45.92807" lon="4.76218">
        <ele>168</ele>
        <time>2017-04-05T08:31:12Z</time>
      </trkpt>
      <trkpt lat="45.92812" lon="4.76223">
        <ele>168</ele>
        <time>2017-04-05T08:31:13Z</time>
      </trkpt>
      <trkpt lat="45.92817" lon="4.76227">
        <ele>168</ele>
        <time>2017-04-05T08:31:14Z</time>
      </trkpt>
      <trkpt lat="45.92822" lon="4.76232">
        <ele>168</ele>
        <time>2017-04-05T08:31:15Z</time>
      </trkpt>
      <trkpt lat="45.92827" lon="4.76236">
        <ele>168</ele>
        <time>2017-04-05T08:31:16Z</time>
      </trkpt>
      <trkpt lat="45.92832" lon="4.76241">
        <ele>169</ele>
        <time>2017-04-05T08:31:17Z</time>
      </trkpt>
      <trkpt lat="45.92837" lon="4.76246">
        <ele>169</ele>
        <time>2017-04-05T08:31:18Z</time>
      </trkpt>
      <trkpt lat="45.92841" lon="4.7625">
        <ele>169</ele>
        <time>2017-04-05T08:31:19Z</time>
      </trkpt>
      <trkpt lat="45.92845" lon="4.76255">
        <ele>169</ele>
        <time>2017-04-05T08:31:20Z</time>
      </trkpt>
      <trkpt lat="45.9285" lon="4.7626">
        <ele>169</ele>
        <time>2017-04-05T08:31:21Z</time>
      </trkpt>
      <trkpt lat="45.92854" lon="4.76265">
        <ele>169</ele>
        <time>2017-04-05T08:31:22Z</time>
      </trkpt>
      <trkpt lat="45.92859" lon="4.76269">
        <ele>169</ele>
        <time>2017-04-05T08:31:23Z</time>
      </trkpt>
      <trkpt lat="45.92863" lon="4.76274">
        <ele>169</ele>
        <time>2017-04-05T08:31:24Z</time>
      </trkpt>
      <trkpt lat="45.92867" lon="4.76277">
        <ele>169</ele>
        <time>2017-04-05T08:31:25Z</time>
      </trkpt>
      <trkpt lat="45.92872" lon="4.76281">
        <ele>169</ele>
        <time>2017-04-05T08:31:26Z</time>
      </trkpt>
      <trkpt lat="45.92877" lon="4.76286">
        <ele>169</ele>
        <time>2017-04-05T08:31:27Z</time>
      </trkpt>
      <trkpt lat="45.92882" lon="4.76291">
        <ele>169</ele>
        <time>2017-04-05T08:31:28Z</time>
      </trkpt>
      <trkpt lat="45.92886" lon="4.76296">
        <ele>169</ele>
        <time>2017-04-05T08:31:29Z</time>
      </trkpt>
      <trkpt lat="45.9289" lon="4.763">
        <ele>169</ele>
        <time>2017-04-05T08:31:30Z</time>
      </trkpt>
      <trkpt lat="45.92895" lon="4.76305">
        <ele>169</ele>
        <time>2017-04-05T08:31:31Z</time>
      </trkpt>
      <trkpt lat="45.92899" lon="4.76309">
        <ele>169</ele>
        <time>2017-04-05T08:31:32Z</time>
      </trkpt>
      <trkpt lat="45.92904" lon="4.76314">
        <ele>169</ele>
        <time>2017-04-05T08:31:33Z</time>
      </trkpt>
      <trkpt lat="45.92909" lon="4.76319">
        <ele>169</ele>
        <time>2017-04-05T08:31:34Z</time>
      </trkpt>
      <trkpt lat="45.92914" lon="4.76324">
        <ele>169</ele>
        <time>2017-04-05T08:31:35Z</time>
      </trkpt>
      <trkpt lat="45.92919" lon="4.76328">
        <ele>169</ele>
        <time>2017-04-05T08:31:36Z</time>
      </trkpt>
      <trkpt lat="45.92924" lon="4.76333">
        <ele>169</ele>
        <time>2017-04-05T08:31:37Z</time>
      </trkpt>
      <trkpt lat="45.92929" lon="4.76339">
        <ele>169</ele>
        <time>2017-04-05T08:31:38Z</time>
      </trkpt>
      <trkpt lat="45.92934" lon="4.76344">
        <ele>169</ele>
        <time>2017-04-05T08:31:39Z</time>
      </trkpt>
      <trkpt lat="45.92939" lon="4.76349">
        <ele>169</ele>
        <time>2017-04-05T08:31:40Z</time>
      </trkpt>
      <trkpt lat="45.92944" lon="4.76353">
        <ele>169</ele>
        <time>2017-04-05T08:31:41Z</time>
      </trkpt>
      <trkpt lat="45.92949" lon="4.76358">
        <ele>169</ele>
        <time>2017-04-05T08:31:42Z</time>
      </trkpt>
      <trkpt lat="45.92954" lon="4.76363">
        <ele>169</ele>
        <time>2017-04-05T08:31:43Z</time>
      </trkpt>
      <trkpt lat="45.92959" lon="4.76368">
        <ele>169</ele>
        <time>2017-04-05T08:31:44Z</time>
      </trkpt>
      <trkpt lat="45.92963" lon="4.76373">
        <ele>169</ele>
        <time>2017-04-05T08:31:45Z</time>
      </trkpt>
      <trkpt lat="45.92968" lon="4.76378">
        <ele>169</ele>
        <time>2017-04-05T08:31:46Z</time>
      </trkpt>
      <trkpt lat="45.92973" lon="4.76383">
        <ele>169</ele>
        <time>2017-04-05T08:31:47Z</time>
      </trkpt>
      <trkpt lat="45.92978" lon="4.76387">
        <ele>169</ele>
        <time>2017-04-05T08:31:48Z</time>
      </trkpt>
      <trkpt lat="45.92983" lon="4.76392">
        <ele>169</ele>
        <time>2017-04-05T08:31:49Z</time>
      </trkpt>
      <trkpt lat="45.92987" lon="4.76397">
        <ele>169</ele>
        <time>2017-04-05T08:31:50Z</time>
      </trkpt>
      <trkpt lat="45.92992" lon="4.76402">
        <ele>169</ele>
        <time>2017-04-05T08:31:51Z</time>
      </trkpt>
      <trkpt lat="45.92997" lon="4.76407">
        <ele>169</ele>
        <time>2017-04-05T08:31:52Z</time>
      </trkpt>
      <trkpt lat="45.93001" lon="4.76411">
        <ele>169</ele>
        <time>2017-04-05T08:31:53Z</time>
      </trkpt>
      <trkpt lat="45.93006" lon="4.76416">
        <ele>169</ele>
        <time>2017-04-05T08:31:54Z</time>
      </trkpt>
      <trkpt lat="45.93011" lon="4.76421">
        <ele>169</ele>
        <time>2017-04-05T08:31:55Z</time>
      </trkpt>
      <trkpt lat="45.93016" lon="4.76426">
        <ele>169</ele>
        <time>2017-04-05T08:31:56Z</time>
      </trkpt>
      <trkpt lat="45.93021" lon="4.76431">
        <ele>169</ele>
        <time>2017-04-05T08:31:57Z</time>
      </trkpt>
      <trkpt lat="45.93026" lon="4.76436">
        <ele>169</ele>
        <time>2017-04-05T08:31:58Z</time>
      </trkpt>
      <trkpt lat="45.93031" lon="4.76441">
        <ele>169</ele>
        <time>2017-04-05T08:31:59Z</time>
      </trkpt>
      <trkpt lat="45.93036" lon="4.76446">
        <ele>169</ele>
        <time>2017-04-05T08:32:00Z</time>
      </trkpt>
      <trkpt lat="45.93041" lon="4.76451">
        <ele>169</ele>
        <time>2017-04-05T08:32:01Z</time>
      </trkpt>
      <trkpt lat="45.93046" lon="4.76455">
        <ele>169</ele>
        <time>2017-04-05T08:32:02Z</time>
      </trkpt>
      <trkpt lat="45.9305" lon="4.7646">
        <ele>169</ele>
        <time>2017-04-05T08:32:03Z</time>
      </trkpt>
      <trkpt lat="45.93055" lon="4.76465">
        <ele>169</ele>
        <time>2017-04-05T08:32:04Z</time>
      </trkpt>
      <trkpt lat="45.93059" lon="4.76469">
        <ele>169</ele>
        <time>2017-04-05T08:32:05Z</time>
      </trkpt>
      <trkpt lat="45.93064" lon="4.76474">
        <ele>169</ele>
        <time>2017-04-05T08:32:06Z</time>
      </trkpt>
      <trkpt lat="45.93069" lon="4.76478">
        <ele>169</ele>
        <time>2017-04-05T08:32:07Z</time>
      </trkpt>
      <trkpt lat="45.93073" lon="4.76483">
        <ele>169</ele>
        <time>2017-04-05T08:32:08Z</time>
      </trkpt>
      <trkpt lat="45.93078" lon="4.76487">
        <ele>170</ele>
        <time>2017-04-05T08:32:09Z</time>
      </trkpt>
      <trkpt lat="45.93083" lon="4.76491">
        <ele>170</ele>
        <time>2017-04-05T08:32:10Z</time>
      </trkpt>
      <trkpt lat="45.93087" lon="4.76496">
        <ele>170</ele>
        <time>2017-04-05T08:32:11Z</time>
      </trkpt>
      <trkpt lat="45.93092" lon="4.765">
        <ele>170</ele>
        <time>2017-04-05T08:32:12Z</time>
      </trkpt>
      <trkpt lat="45.93097" lon="4.76505">
        <ele>170</ele>
        <time>2017-04-05T08:32:13Z</time>
      </trkpt>
      <trkpt lat="45.93101" lon="4.7651">
        <ele>170</ele>
        <time>2017-04-05T08:32:14Z</time>
      </trkpt>
      <trkpt lat="45.93105" lon="4.76515">
        <ele>170</ele>
        <time>2017-04-05T08:32:15Z</time>
      </trkpt>
      <trkpt lat="45.9311" lon="4.7652">
        <ele>170</ele>
        <time>2017-04-05T08:32:16Z</time>
      </trkpt>
      <trkpt lat="45.93114" lon="4.76524">
        <ele>170</ele>
        <time>2017-04-05T08:32:17Z</time>
      </trkpt>
      <trkpt lat="45.93119" lon="4.76528">
        <ele>170</ele>
        <time>2017-04-05T08:32:18Z</time>
      </trkpt>
      <trkpt lat="45.93124" lon="4.76532">
        <ele>170</ele>
        <time>2017-04-05T08:32:19Z</time>
      </trkpt>
      <trkpt lat="45.93128" lon="4.76536">
        <ele>170</ele>
        <time>2017-04-05T08:32:20Z</time>
      </trkpt>
      <trkpt lat="45.93133" lon="4.76541">
        <ele>170</ele>
        <time>2017-04-05T08:32:21Z</time>
      </trkpt>
      <trkpt lat="45.93138" lon="4.76545">
        <ele>170</ele>
        <time>2017-04-05T08:32:22Z</time>
      </trkpt>
      <trkpt lat="45.93142" lon="4.76549">
        <ele>170</ele>
        <time>2017-04-05T08:32:23Z</time>
      </trkpt>
      <trkpt lat="45.93146" lon="4.76553">
        <ele>170</ele>
        <time>2017-04-05T08:32:24Z</time>
      </trkpt>
      <trkpt lat="45.93151" lon="4.76558">
        <ele>170</ele>
        <time>2017-04-05T08:32:25Z</time>
      </trkpt>
      <trkpt lat="45.93155" lon="4.76562">
        <ele>170</ele>
        <time>2017-04-05T08:32:26Z</time>
      </trkpt>
      <trkpt lat="45.93159" lon="4.76566">
        <ele>170</ele>
        <time>2017-04-05T08:32:27Z</time>
      </trkpt>
      <trkpt lat="45.93163" lon="4.7657">
        <ele>170</ele>
        <time>2017-04-05T08:32:28Z</time>
      </trkpt>
      <trkpt lat="45.93167" lon="4.76573">
        <ele>170</ele>
        <time>2017-04-05T08:32:29Z</time>
      </trkpt>
      <trkpt lat="45.93172" lon="4.76578">
        <ele>170</ele>
        <time>2017-04-05T08:32:30Z</time>
      </trkpt>
      <trkpt lat="45.93176" lon="4.76582">
        <ele>170</ele>
        <time>2017-04-05T08:32:31Z</time>
      </trkpt>
      <trkpt lat="45.9318" lon="4.76586">
        <ele>171</ele>
        <time>2017-04-05T08:32:32Z</time>
      </trkpt>
      <trkpt lat="45.93185" lon="4.7659">
        <ele>171</ele>
        <time>2017-04-05T08:32:33Z</time>
      </trkpt>
      <trkpt lat="45.93189" lon="4.76594">
        <ele>170</ele>
        <time>2017-04-05T08:32:34Z</time>
      </trkpt>
      <trkpt lat="45.93194" lon="4.76599">
        <ele>170</ele>
        <time>2017-04-05T08:32:35Z</time>
      </trkpt>
      <trkpt lat="45.93198" lon="4.76603">
        <ele>170</ele>
        <time>2017-04-05T08:32:36Z</time>
      </trkpt>
      <trkpt lat="45.93202" lon="4.76608">
        <ele>170</ele>
        <time>2017-04-05T08:32:37Z</time>
      </trkpt>
      <trkpt lat="45.93207" lon="4.76613">
        <ele>170</ele>
        <time>2017-04-05T08:32:38Z</time>
      </trkpt>
      <trkpt lat="45.93212" lon="4.76617">
        <ele>170</ele>
        <time>2017-04-05T08:32:39Z</time>
      </trkpt>
      <trkpt lat="45.93216" lon="4.76622">
        <ele>170</ele>
        <time>2017-04-05T08:32:40Z</time>
      </trkpt>
      <trkpt lat="45.9322" lon="4.76626">
        <ele>170</ele>
        <time>2017-04-05T08:32:41Z</time>
      </trkpt>
      <trkpt lat="45.93225" lon="4.76631">
        <ele>170</ele>
        <time>2017-04-05T08:32:42Z</time>
      </trkpt>
      <trkpt lat="45.93229" lon="4.76636">
        <ele>171</ele>
        <time>2017-04-05T08:32:43Z</time>
      </trkpt>
      <trkpt lat="45.93234" lon="4.76641">
        <ele>171</ele>
        <time>2017-04-05T08:32:44Z</time>
      </trkpt>
      <trkpt lat="45.93238" lon="4.76646">
        <ele>171</ele>
        <time>2017-04-05T08:32:45Z</time>
      </trkpt>
      <trkpt lat="45.93242" lon="4.7665">
        <ele>171</ele>
        <time>2017-04-05T08:32:46Z</time>
      </trkpt>
      <trkpt lat="45.93247" lon="4.76655">
        <ele>171</ele>
        <time>2017-04-05T08:32:47Z</time>
      </trkpt>
      <trkpt lat="45.93252" lon="4.76659">
        <ele>171</ele>
        <time>2017-04-05T08:32:48Z</time>
      </trkpt>
      <trkpt lat="45.93257" lon="4.76663">
        <ele>171</ele>
        <time>2017-04-05T08:32:49Z</time>
      </trkpt>
      <trkpt lat="45.93261" lon="4.76667">
        <ele>172</ele>
        <time>2017-04-05T08:32:50Z</time>
      </trkpt>
      <trkpt lat="45.93266" lon="4.76672">
        <ele>172</ele>
        <time>2017-04-05T08:32:51Z</time>
      </trkpt>
      <trkpt lat="45.9327" lon="4.76676">
        <ele>172</ele>
        <time>2017-04-05T08:32:52Z</time>
      </trkpt>
      <trkpt lat="45.93275" lon="4.76682">
        <ele>172</ele>
        <time>2017-04-05T08:32:53Z</time>
      </trkpt>
      <trkpt lat="45.9328" lon="4.76687">
        <ele>172</ele>
        <time>2017-04-05T08:32:54Z</time>
      </trkpt>
      <trkpt lat="45.93285" lon="4.76692">
        <ele>172</ele>
        <time>2017-04-05T08:32:55Z</time>
      </trkpt>
      <trkpt lat="45.9329" lon="4.76697">
        <ele>172</ele>
        <time>2017-04-05T08:32:56Z</time>
      </trkpt>
      <trkpt lat="45.93295" lon="4.76702">
        <ele>172</ele>
        <time>2017-04-05T08:32:57Z</time>
      </trkpt>
      <trkpt lat="45.93299" lon="4.76707">
        <ele>172</ele>
        <time>2017-04-05T08:32:58Z</time>
      </trkpt>
      <trkpt lat="45.93304" lon="4.76711">
        <ele>172</ele>
        <time>2017-04-05T08:32:59Z</time>
      </trkpt>
      <trkpt lat="45.93309" lon="4.76715">
        <ele>172</ele>
        <time>2017-04-05T08:33:00Z</time>
      </trkpt>
      <trkpt lat="45.93313" lon="4.7672">
        <ele>172</ele>
        <time>2017-04-05T08:33:01Z</time>
      </trkpt>
      <trkpt lat="45.93317" lon="4.76724">
        <ele>172</ele>
        <time>2017-04-05T08:33:02Z</time>
      </trkpt>
      <trkpt lat="45.93322" lon="4.76728">
        <ele>172</ele>
        <time>2017-04-05T08:33:03Z</time>
      </trkpt>
      <trkpt lat="45.93326" lon="4.76733">
        <ele>172</ele>
        <time>2017-04-05T08:33:04Z</time>
      </trkpt>
      <trkpt lat="45.93331" lon="4.76737">
        <ele>172</ele>
        <time>2017-04-05T08:33:05Z</time>
      </trkpt>
      <trkpt lat="45.93335" lon="4.76742">
        <ele>173</ele>
        <time>2017-04-05T08:33:06Z</time>
      </trkpt>
      <trkpt lat="45.9334" lon="4.76747">
        <ele>173</ele>
        <time>2017-04-05T08:33:07Z</time>
      </trkpt>
      <trkpt lat="45.93344" lon="4.76751">
        <ele>173</ele>
        <time>2017-04-05T08:33:08Z</time>
      </trkpt>
      <trkpt lat="45.93349" lon="4.76756">
        <ele>172</ele>
        <time>2017-04-05T08:33:09Z</time>
      </trkpt>
      <trkpt lat="45.93353" lon="4.7676">
        <ele>172</ele>
        <time>2017-04-05T08:33:10Z</time>
      </trkpt>
      <trkpt lat="45.93358" lon="4.76764">
        <ele>172</ele>
        <time>2017-04-05T08:33:11Z</time>
      </trkpt>
      <trkpt lat="45.93362" lon="4.76769">
        <ele>172</ele>
        <time>2017-04-05T08:33:12Z</time>
      </trkpt>
      <trkpt lat="45.93366" lon="4.76774">
        <ele>172</ele>
        <time>2017-04-05T08:33:13Z</time>
      </trkpt>
      <trkpt lat="45.93371" lon="4.76778">
        <ele>172</ele>
        <time>2017-04-05T08:33:14Z</time>
      </trkpt>
      <trkpt lat="45.93375" lon="4.76783">
        <ele>172</ele>
        <time>2017-04-05T08:33:15Z</time>
      </trkpt>
      <trkpt lat="45.9338" lon="4.76788">
        <ele>172</ele>
        <time>2017-04-05T08:33:16Z</time>
      </trkpt>
      <trkpt lat="45.93384" lon="4.76792">
        <ele>172</ele>
        <time>2017-04-05T08:33:17Z</time>
      </trkpt>
      <trkpt lat="45.93388" lon="4.76798">
        <ele>172</ele>
        <time>2017-04-05T08:33:18Z</time>
      </trkpt>
      <trkpt lat="45.93392" lon="4.76803">
        <ele>172</ele>
        <time>2017-04-05T08:33:19Z</time>
      </trkpt>
      <trkpt lat="45.93396" lon="4.76809">
        <ele>172</ele>
        <time>2017-04-05T08:33:20Z</time>
      </trkpt>
      <trkpt lat="45.934" lon="4.76815">
        <ele>172</ele>
        <time>2017-04-05T08:33:21Z</time>
      </trkpt>
      <trkpt lat="45.93404" lon="4.76821">
        <ele>172</ele>
        <time>2017-04-05T08:33:22Z</time>
      </trkpt>
      <trkpt lat="45.93408" lon="4.76827">
        <ele>172</ele>
        <time>2017-04-05T08:33:23Z</time>
      </trkpt>
      <trkpt lat="45.93411" lon="4.76834">
        <ele>172</ele>
        <time>2017-04-05T08:33:24Z</time>
      </trkpt>
      <trkpt lat="45.93415" lon="4.76841">
        <ele>172</ele>
        <time>2017-04-05T08:33:25Z</time>
      </trkpt>
      <trkpt lat="45.93418" lon="4.76848">
        <ele>171</ele>
        <time>2017-04-05T08:33:26Z</time>
      </trkpt>
      <trkpt lat="45.93421" lon="4.76854">
        <ele>171</ele>
        <time>2017-04-05T08:33:27Z</time>
      </trkpt>
      <trkpt lat="45.93424" lon="4.76861">
        <ele>171</ele>
        <time>2017-04-05T08:33:28Z</time>
      </trkpt>
      <trkpt lat="45.93427" lon="4.76867">
        <ele>171</ele>
        <time>2017-04-05T08:33:29Z</time>
      </trkpt>
      <trkpt lat="45.9343" lon="4.76874">
        <ele>171</ele>
        <time>2017-04-05T08:33:30Z</time>
      </trkpt>
      <trkpt lat="45.93432" lon="4.76881">
        <ele>171</ele>
        <time>2017-04-05T08:33:31Z</time>
      </trkpt>
      <trkpt lat="45.93435" lon="4.76888">
        <ele>171</ele>
        <time>2017-04-05T08:33:32Z</time>
      </trkpt>
      <trkpt lat="45.93437" lon="4.76895">
        <ele>171</ele>
        <time>2017-04-05T08:33:33Z</time>
      </trkpt>
      <trkpt lat="45.93439" lon="4.76903">
        <ele>170</ele>
        <time>2017-04-05T08:33:34Z</time>
      </trkpt>
      <trkpt lat="45.93441" lon="4.7691">
        <ele>170</ele>
        <time>2017-04-05T08:33:35Z</time>
      </trkpt>
      <trkpt lat="45.93442" lon="4.76918">
        <ele>170</ele>
        <time>2017-04-05T08:33:36Z</time>
      </trkpt>
      <trkpt lat="45.93444" lon="4.76926">
        <ele>170</ele>
        <time>2017-04-05T08:33:37Z</time>
      </trkpt>
      <trkpt lat="45.93445" lon="4.76933">
        <ele>170</ele>
        <time>2017-04-05T08:33:38Z</time>
      </trkpt>
      <trkpt lat="45.93446" lon="4.76941">
        <ele>170</ele>
        <time>2017-04-05T08:33:39Z</time>
      </trkpt>
      <trkpt lat="45.93447" lon="4.76949">
        <ele>170</ele>
        <time>2017-04-05T08:33:40Z</time>
      </trkpt>
      <trkpt lat="45.93448" lon="4.76956">
        <ele>170</ele>
        <time>2017-04-05T08:33:41Z</time>
      </trkpt>
      <trkpt lat="45.9345" lon="4.76964">
        <ele>170</ele>
        <time>2017-04-05T08:33:42Z</time>
      </trkpt>
      <trkpt lat="45.93451" lon="4.76971">
        <ele>170</ele>
        <time>2017-04-05T08:33:43Z</time>
      </trkpt>
      <trkpt lat="45.93452" lon="4.76979">
        <ele>170</ele>
        <time>2017-04-05T08:33:44Z</time>
      </trkpt>
      <trkpt lat="45.93453" lon="4.76987">
        <ele>170</ele>
        <time>2017-04-05T08:33:45Z</time>
      </trkpt>
      <trkpt lat="45.93454" lon="4.76994">
        <ele>170</ele>
        <time>2017-04-05T08:33:46Z</time>
      </trkpt>
      <trkpt lat="45.93455" lon="4.77002">
        <ele>170</ele>
        <time>2017-04-05T08:33:47Z</time>
      </trkpt>
      <trkpt lat="45.93456" lon="4.7701">
        <ele>170</ele>
        <time>2017-04-05T08:33:48Z</time>
      </trkpt>
      <trkpt lat="45.93457" lon="4.77017">
        <ele>170</ele>
        <time>2017-04-05T08:33:49Z</time>
      </trkpt>
      <trkpt lat="45.93459" lon="4.77025">
        <ele>170</ele>
        <time>2017-04-05T08:33:50Z</time>
      </trkpt>
      <trkpt lat="45.9346" lon="4.77032">
        <ele>170</ele>
        <time>2017-04-05T08:33:51Z</time>
      </trkpt>
      <trkpt lat="45.93461" lon="4.7704">
        <ele>170</ele>
        <time>2017-04-05T08:33:52Z</time>
      </trkpt>
      <trkpt lat="45.93462" lon="4.77047">
        <ele>170</ele>
        <time>2017-04-05T08:33:53Z</time>
      </trkpt>
      <trkpt lat="45.93463" lon="4.77054">
        <ele>170</ele>
        <time>2017-04-05T08:33:54Z</time>
      </trkpt>
      <trkpt lat="45.93465" lon="4.77061">
        <ele>170</ele>
        <time>2017-04-05T08:33:55Z</time>
      </trkpt>
      <trkpt lat="45.93466" lon="4.77067">
        <ele>170</ele>
        <time>2017-04-05T08:33:56Z</time>
      </trkpt>
      <trkpt lat="45.93467" lon="4.77075">
        <ele>170</ele>
        <time>2017-04-05T08:33:57Z</time>
      </trkpt>
      <trkpt lat="45.93469" lon="4.77083">
        <ele>170</ele>
        <time>2017-04-05T08:33:58Z</time>
      </trkpt>
      <trkpt lat="45.9347" lon="4.77091">
        <ele>170</ele>
        <time>2017-04-05T08:33:59Z</time>
      </trkpt>
      <trkpt lat="45.93471" lon="4.77099">
        <ele>169</ele>
        <time>2017-04-05T08:34:00Z</time>
      </trkpt>
      <trkpt lat="45.93473" lon="4.77107">
        <ele>169</ele>
        <time>2017-04-05T08:34:01Z</time>
      </trkpt>
      <trkpt lat="45.93474" lon="4.77115">
        <ele>169</ele>
        <time>2017-04-05T08:34:02Z</time>
      </trkpt>
      <trkpt lat="45.93476" lon="4.77123">
        <ele>169</ele>
        <time>2017-04-05T08:34:03Z</time>
      </trkpt>
      <trkpt lat="45.93478" lon="4.77131">
        <ele>169</ele>
        <time>2017-04-05T08:34:04Z</time>
      </trkpt>
      <trkpt lat="45.93479" lon="4.77138">
        <ele>169</ele>
        <time>2017-04-05T08:34:05Z</time>
      </trkpt>
      <trkpt lat="45.9348" lon="4.77146">
        <ele>169</ele>
        <time>2017-04-05T08:34:06Z</time>
      </trkpt>
      <trkpt lat="45.93482" lon="4.77153">
        <ele>169</ele>
        <time>2017-04-05T08:34:07Z</time>
      </trkpt>
      <trkpt lat="45.93483" lon="4.77161">
        <ele>169</ele>
        <time>2017-04-05T08:34:08Z</time>
      </trkpt>
      <trkpt lat="45.93485" lon="4.77168">
        <ele>169</ele>
        <time>2017-04-05T08:34:09Z</time>
      </trkpt>
      <trkpt lat="45.93487" lon="4.77175">
        <ele>169</ele>
        <time>2017-04-05T08:34:10Z</time>
      </trkpt>
      <trkpt lat="45.93488" lon="4.77182">
        <ele>169</ele>
        <time>2017-04-05T08:34:11Z</time>
      </trkpt>
      <trkpt lat="45.9349" lon="4.77188">
        <ele>169</ele>
        <time>2017-04-05T08:34:12Z</time>
      </trkpt>
      <trkpt lat="45.93491" lon="4.77195">
        <ele>169</ele>
        <time>2017-04-05T08:34:13Z</time>
      </trkpt>
      <trkpt lat="45.93492" lon="4.77202">
        <ele>169</ele>
        <time>2017-04-05T08:34:14Z</time>
      </trkpt>
      <trkpt lat="45.93494" lon="4.77209">
        <ele>169</ele>
        <time>2017-04-05T08:34:15Z</time>
      </trkpt>
      <trkpt lat="45.93495" lon="4.77216">
        <ele>169</ele>
        <time>2017-04-05T08:34:16Z</time>
      </trkpt>
      <trkpt lat="45.93497" lon="4.77223">
        <ele>169</ele>
        <time>2017-04-05T08:34:17Z</time>
      </trkpt>
      <trkpt lat="45.93499" lon="4.77231">
        <ele>170</ele>
        <time>2017-04-05T08:34:18Z</time>
      </trkpt>
      <trkpt lat="45.935" lon="4.77238">
        <ele>169</ele>
        <time>2017-04-05T08:34:19Z</time>
      </trkpt>
      <trkpt lat="45.93502" lon="4.77245">
        <ele>170</ele>
        <time>2017-04-05T08:34:20Z</time>
      </trkpt>
      <trkpt lat="45.93503" lon="4.77252">
        <ele>170</ele>
        <time>2017-04-05T08:34:21Z</time>
      </trkpt>
      <trkpt lat="45.93505" lon="4.77259">
        <ele>170</ele>
        <time>2017-04-05T08:34:22Z</time>
      </trkpt>
      <trkpt lat="45.93506" lon="4.77266">
        <ele>170</ele>
        <time>2017-04-05T08:34:23Z</time>
      </trkpt>
      <trkpt lat="45.93508" lon="4.77273">
        <ele>170</ele>
        <time>2017-04-05T08:34:24Z</time>
      </trkpt>
      <trkpt lat="45.9351" lon="4.7728">
        <ele>170</ele>
        <time>2017-04-05T08:34:25Z</time>
      </trkpt>
      <trkpt lat="45.93512" lon="4.77288">
        <ele>170</ele>
        <time>2017-04-05T08:34:26Z</time>
      </trkpt>
      <trkpt lat="45.93514" lon="4.77296">
        <ele>170</ele>
        <time>2017-04-05T08:34:27Z</time>
      </trkpt>
      <trkpt lat="45.93516" lon="4.77304">
        <ele>170</ele>
        <time>2017-04-05T08:34:28Z</time>
      </trkpt>
      <trkpt lat="45.93517" lon="4.77311">
        <ele>170</ele>
        <time>2017-04-05T08:34:29Z</time>
      </trkpt>
      <trkpt lat="45.93518" lon="4.77318">
        <ele>170</ele>
        <time>2017-04-05T08:34:30Z</time>
      </trkpt>
      <trkpt lat="45.9352" lon="4.77325">
        <ele>170</ele>
        <time>2017-04-05T08:34:31Z</time>
      </trkpt>
      <trkpt lat="45.93521" lon="4.77332">
        <ele>170</ele>
        <time>2017-04-05T08:34:32Z</time>
      </trkpt>
      <trkpt lat="45.93523" lon="4.77339">
        <ele>170</ele>
        <time>2017-04-05T08:34:33Z</time>
      </trkpt>
      <trkpt lat="45.93524" lon="4.77345">
        <ele>170</ele>
        <time>2017-04-05T08:34:34Z</time>
      </trkpt>
      <trkpt lat="45.93525" lon="4.77352">
        <ele>170</ele>
        <time>2017-04-05T08:34:35Z</time>
      </trkpt>
      <trkpt lat="45.93527" lon="4.77359">
        <ele>170</ele>
        <time>2017-04-05T08:34:36Z</time>
      </trkpt>
      <trkpt lat="45.93528" lon="4.77366">
        <ele>170</ele>
        <time>2017-04-05T08:34:37Z</time>
      </trkpt>
      <trkpt lat="45.93529" lon="4.77373">
        <ele>170</ele>
        <time>2017-04-05T08:34:38Z</time>
      </trkpt>
      <trkpt lat="45.93531" lon="4.7738">
        <ele>170</ele>
        <time>2017-04-05T08:34:39Z</time>
      </trkpt>
      <trkpt lat="45.93533" lon="4.77387">
        <ele>170</ele>
        <time>2017-04-05T08:34:40Z</time>
      </trkpt>
      <trkpt lat="45.93534" lon="4.77393">
        <ele>170</ele>
        <time>2017-04-05T08:34:41Z</time>
      </trkpt>
      <trkpt lat="45.93536" lon="4.774">
        <ele>170</ele>
        <time>2017-04-05T08:34:42Z</time>
      </trkpt>
      <trkpt lat="45.93537" lon="4.77408">
        <ele>170</ele>
        <time>2017-04-05T08:34:43Z</time>
      </trkpt>
      <trkpt lat="45.93539" lon="4.77414">
        <ele>170</ele>
        <time>2017-04-05T08:34:44Z</time>
      </trkpt>
      <trkpt lat="45.93541" lon="4.77422">
        <ele>170</ele>
        <time>2017-04-05T08:34:45Z</time>
      </trkpt>
      <trkpt lat="45.93542" lon="4.77429">
        <ele>169</ele>
        <time>2017-04-05T08:34:46Z</time>
      </trkpt>
      <trkpt lat="45.93544" lon="4.77437">
        <ele>169</ele>
        <time>2017-04-05T08:34:47Z</time>
      </trkpt>
      <trkpt lat="45.93546" lon="4.77444">
        <ele>169</ele>
        <time>2017-04-05T08:34:48Z</time>
      </trkpt>
      <trkpt lat="45.93547" lon="4.77451">
        <ele>169</ele>
        <time>2017-04-05T08:34:49Z</time>
      </trkpt>
      <trkpt lat="45.93548" lon="4.77458">
        <ele>169</ele>
        <time>2017-04-05T08:34:50Z</time>
      </trkpt>
      <trkpt lat="45.9355" lon="4.77465">
        <ele>169</ele>
        <time>2017-04-05T08:34:51Z</time>
      </trkpt>
      <trkpt lat="45.93551" lon="4.77472">
        <ele>169</ele>
        <time>2017-04-05T08:34:52Z</time>
      </trkpt>
      <trkpt lat="45.93553" lon="4.77479">
        <ele>169</ele>
        <time>2017-04-05T08:34:53Z</time>
      </trkpt>
      <trkpt lat="45.93555" lon="4.77486">
        <ele>169</ele>
        <time>2017-04-05T08:34:54Z</time>
      </trkpt>
      <trkpt lat="45.93556" lon="4.77492">
        <ele>169</ele>
        <time>2017-04-05T08:34:55Z</time>
      </trkpt>
      <trkpt lat="45.93558" lon="4.77499">
        <ele>169</ele>
        <time>2017-04-05T08:34:56Z</time>
      </trkpt>
      <trkpt lat="45.93559" lon="4.77506">
        <ele>169</ele>
        <time>2017-04-05T08:34:57Z</time>
      </trkpt>
      <trkpt lat="45.93561" lon="4.77513">
        <ele>169</ele>
        <time>2017-04-05T08:34:58Z</time>
      </trkpt>
      <trkpt lat="45.93563" lon="4.77521">
        <ele>169</ele>
        <time>2017-04-05T08:34:59Z</time>
      </trkpt>
      <trkpt lat="45.93564" lon="4.77528">
        <ele>169</ele>
        <time>2017-04-05T08:35:00Z</time>
      </trkpt>
      <trkpt lat="45.93566" lon="4.77535">
        <ele>169</ele>
        <time>2017-04-05T08:35:01Z</time>
      </trkpt>
      <trkpt lat="45.93568" lon="4.77542">
        <ele>169</ele>
        <time>2017-04-05T08:35:02Z</time>
      </trkpt>
      <trkpt lat="45.93569" lon="4.7755">
        <ele>169</ele>
        <time>2017-04-05T08:35:03Z</time>
      </trkpt>
      <trkpt lat="45.93571" lon="4.77557">
        <ele>169</ele>
        <time>2017-04-05T08:35:04Z</time>
      </trkpt>
      <trkpt lat="45.93574" lon="4.77564">
        <ele>169</ele>
        <time>2017-04-05T08:35:05Z</time>
      </trkpt>
      <trkpt lat="45.93576" lon="4.77571">
        <ele>170</ele>
        <time>2017-04-05T08:35:06Z</time>
      </trkpt>
      <trkpt lat="45.93578" lon="4.77578">
        <ele>170</ele>
        <time>2017-04-05T08:35:07Z</time>
      </trkpt>
      <trkpt lat="45.93581" lon="4.77585">
        <ele>170</ele>
        <time>2017-04-05T08:35:08Z</time>
      </trkpt>
      <trkpt lat="45.93583" lon="4.77592">
        <ele>170</ele>
        <time>2017-04-05T08:35:09Z</time>
      </trkpt>
      <trkpt lat="45.93585" lon="4.77599">
        <ele>170</ele>
        <time>2017-04-05T08:35:10Z</time>
      </trkpt>
      <trkpt lat="45.93588" lon="4.77607">
        <ele>170</ele>
        <time>2017-04-05T08:35:11Z</time>
      </trkpt>
      <trkpt lat="45.9359" lon="4.77614">
        <ele>170</ele>
        <time>2017-04-05T08:35:12Z</time>
      </trkpt>
      <trkpt lat="45.93593" lon="4.77621">
        <ele>170</ele>
        <time>2017-04-05T08:35:13Z</time>
      </trkpt>
      <trkpt lat="45.93595" lon="4.77628">
        <ele>169</ele>
        <time>2017-04-05T08:35:14Z</time>
      </trkpt>
      <trkpt lat="45.93598" lon="4.77635">
        <ele>169</ele>
        <time>2017-04-05T08:35:15Z</time>
      </trkpt>
      <trkpt lat="45.93601" lon="4.77642">
        <ele>169</ele>
        <time>2017-04-05T08:35:16Z</time>
      </trkpt>
      <trkpt lat="45.93604" lon="4.77649">
        <ele>169</ele>
        <time>2017-04-05T08:35:17Z</time>
      </trkpt>
      <trkpt lat="45.93607" lon="4.77656">
        <ele>169</ele>
        <time>2017-04-05T08:35:18Z</time>
      </trkpt>
      <trkpt lat="45.9361" lon="4.77663">
        <ele>169</ele>
        <time>2017-04-05T08:35:19Z</time>
      </trkpt>
      <trkpt lat="45.93613" lon="4.77669">
        <ele>169</ele>
        <time>2017-04-05T08:35:20Z</time>
      </trkpt>
      <trkpt lat="45.93616" lon="4.77676">
        <ele>169</ele>
        <time>2017-04-05T08:35:21Z</time>
      </trkpt>
      <trkpt lat="45.93619" lon="4.77682">
        <ele>169</ele>
        <time>2017-04-05T08:35:22Z</time>
      </trkpt>
      <trkpt lat="45.93622" lon="4.77688">
        <ele>169</ele>
        <time>2017-04-05T08:35:23Z</time>
      </trkpt>
      <trkpt lat="45.93624" lon="4.77694">
        <ele>169</ele>
        <time>2017-04-05T08:35:24Z</time>
      </trkpt>
      <trkpt lat="45.93627" lon="4.777">
        <ele>169</ele>
        <time>2017-04-05T08:35:25Z</time>
      </trkpt>
      <trkpt lat="45.9363" lon="4.77705">
        <ele>170</ele>
        <time>2017-04-05T08:35:26Z</time>
      </trkpt>
      <trkpt lat="45.93633" lon="4.7771">
        <ele>170</ele>
        <time>2017-04-05T08:35:27Z</time>
      </trkpt>
      <trkpt lat="45.93636" lon="4.77716">
        <ele>170</ele>
        <time>2017-04-05T08:35:28Z</time>
      </trkpt>
      <trkpt lat="45.93642" lon="4.77725">
        <ele>170</ele>
        <time>2017-04-05T08:35:30Z</time>
      </trkpt>
      <trkpt lat="45.93645" lon="4.7773">
        <ele>170</ele>
        <time>2017-04-05T08:35:31Z</time>
      </trkpt>
      <trkpt lat="45.9365" lon="4.77738">
        <ele>170</ele>
        <time>2017-04-05T08:35:33Z</time>
      </trkpt>
      <trkpt lat="45.93653" lon="4.77742">
        <ele>170</ele>
        <time>2017-04-05T08:35:34Z</time>
      </trkpt>
      <trkpt lat="45.93658" lon="4.7775">
        <ele>171</ele>
        <time>2017-04-05T08:35:36Z</time>
      </trkpt>
      <trkpt lat="45.93661" lon="4.77755">
        <ele>171</ele>
        <time>2017-04-05T08:35:37Z</time>
      </trkpt>
      <trkpt lat="45.93667" lon="4.77763">
        <ele>170</ele>
        <time>2017-04-05T08:35:39Z</time>
      </trkpt>
      <trkpt lat="45.93669" lon="4.77768">
        <ele>170</ele>
        <time>2017-04-05T08:35:40Z</time>
      </trkpt>
      <trkpt lat="45.93675" lon="4.77776">
        <ele>170</ele>
        <time>2017-04-05T08:35:42Z</time>
      </trkpt>
      <trkpt lat="45.93678" lon="4.77781">
        <ele>170</ele>
        <time>2017-04-05T08:35:43Z</time>
      </trkpt>
      <trkpt lat="45.93684" lon="4.77788">
        <ele>170</ele>
        <time>2017-04-05T08:35:45Z</time>
      </trkpt>
      <trkpt lat="45.93686" lon="4.77792">
        <ele>170</ele>
        <time>2017-04-05T08:35:46Z</time>
      </trkpt>
      <trkpt lat="45.93692" lon="4.77798">
        <ele>169</ele>
        <time>2017-04-05T08:35:48Z</time>
      </trkpt>
      <trkpt lat="45.93694" lon="4.77801">
        <ele>169</ele>
        <time>2017-04-05T08:35:49Z</time>
      </trkpt>
      <trkpt lat="45.93699" lon="4.77808">
        <ele>169</ele>
        <time>2017-04-05T08:35:51Z</time>
      </trkpt>
      <trkpt lat="45.93702" lon="4.77812">
        <ele>169</ele>
        <time>2017-04-05T08:35:52Z</time>
      </trkpt>
      <trkpt lat="45.93707" lon="4.77819">
        <ele>169</ele>
        <time>2017-04-05T08:35:54Z</time>
      </trkpt>
      <trkpt lat="45.9371" lon="4.77823">
        <ele>169</ele>
        <time>2017-04-05T08:35:55Z</time>
      </trkpt>
      <trkpt lat="45.93716" lon="4.7783">
        <ele>169</ele>
        <time>2017-04-05T08:35:57Z</time>
      </trkpt>
      <trkpt lat="45.93719" lon="4.77834">
        <ele>167</ele>
        <time>2017-04-05T08:35:58Z</time>
      </trkpt>
      <trkpt lat="45.93724" lon="4.77841">
        <ele>167</ele>
        <time>2017-04-05T08:36:00Z</time>
      </trkpt>
      <trkpt lat="45.93727" lon="4.77844">
        <ele>167</ele>
        <time>2017-04-05T08:36:01Z</time>
      </trkpt>
      <trkpt lat="45.93732" lon="4.77852">
        <ele>167</ele>
        <time>2017-04-05T08:36:03Z</time>
      </trkpt>
      <trkpt lat="45.93735" lon="4.77856">
        <ele>167</ele>
        <time>2017-04-05T08:36:04Z</time>
      </trkpt>
      <trkpt lat="45.93741" lon="4.77864">
        <ele>167</ele>
        <time>2017-04-05T08:36:06Z</time>
      </trkpt>
      <trkpt lat="45.93744" lon="4.77867">
        <ele>167</ele>
        <time>2017-04-05T08:36:07Z</time>
      </trkpt>
      <trkpt lat="45.9375" lon="4.77875">
        <ele>167</ele>
        <time>2017-04-05T08:36:09Z</time>
      </trkpt>
      <trkpt lat="45.93753" lon="4.77878">
        <ele>166</ele>
        <time>2017-04-05T08:36:10Z</time>
      </trkpt>
      <trkpt lat="45.93759" lon="4.77886">
        <ele>166</ele>
        <time>2017-04-05T08:36:12Z</time>
      </trkpt>
      <trkpt lat="45.93761" lon="4.77889">
        <ele>166</ele>
        <time>2017-04-05T08:36:13Z</time>
      </trkpt>
      <trkpt lat="45.93767" lon="4.77897">
        <ele>166</ele>
        <time>2017-04-05T08:36:15Z</time>
      </trkpt>
      <trkpt lat="45.9377" lon="4.77901">
        <ele>166</ele>
        <time>2017-04-05T08:36:16Z</time>
      </trkpt>
      <trkpt lat="45.93776" lon="4.77909">
        <ele>166</ele>
        <time>2017-04-05T08:36:18Z</time>
      </trkpt>
      <trkpt lat="45.93779" lon="4.77913">
        <ele>166</ele>
        <time>2017-04-05T08:36:19Z</time>
      </trkpt>
      <trkpt lat="45.93785" lon="4.77921">
        <ele>168</ele>
        <time>2017-04-05T08:36:21Z</time>
      </trkpt>
      <trkpt lat="45.93789" lon="4.77926">
        <ele>168</ele>
        <time>2017-04-05T08:36:22Z</time>
      </trkpt>
      <trkpt lat="45.93792" lon="4.7793">
        <ele>168</ele>
        <time>2017-04-05T08:36:23Z</time>
      </trkpt>
      <trkpt lat="45.93796" lon="4.77935">
        <ele>168</ele>
        <time>2017-04-05T08:36:24Z</time>
      </trkpt>
      <trkpt lat="45.93799" lon="4.77939">
        <ele>169</ele>
        <time>2017-04-05T08:36:25Z</time>
      </trkpt>
      <trkpt lat="45.93802" lon="4.77944">
        <ele>169</ele>
        <time>2017-04-05T08:36:26Z</time>
      </trkpt>
      <trkpt lat="45.93806" lon="4.77948">
        <ele>169</ele>
        <time>2017-04-05T08:36:27Z</time>
      </trkpt>
      <trkpt lat="45.93809" lon="4.77953">
        <ele>170</ele>
        <time>2017-04-05T08:36:28Z</time>
      </trkpt>
      <trkpt lat="45.93813" lon="4.77957">
        <ele>170</ele>
        <time>2017-04-05T08:36:29Z</time>
      </trkpt>
      <trkpt lat="45.93816" lon="4.77962">
        <ele>170</ele>
        <time>2017-04-05T08:36:30Z</time>
      </trkpt>
      <trkpt lat="45.9382" lon="4.77966">
        <ele>171</ele>
        <time>2017-04-05T08:36:31Z</time>
      </trkpt>
      <trkpt lat="45.93824" lon="4.77971">
        <ele>172</ele>
        <time>2017-04-05T08:36:32Z</time>
      </trkpt>
      <trkpt lat="45.93827" lon="4.77975">
        <ele>172</ele>
        <time>2017-04-05T08:36:33Z</time>
      </trkpt>
      <trkpt lat="45.93831" lon="4.7798">
        <ele>173</ele>
        <time>2017-04-05T08:36:34Z</time>
      </trkpt>
      <trkpt lat="45.93834" lon="4.77986">
        <ele>178</ele>
        <time>2017-04-05T08:36:35Z</time>
      </trkpt>
      <trkpt lat="45.93836" lon="4.77991">
        <ele>179</ele>
        <time>2017-04-05T08:36:36Z</time>
      </trkpt>
      <trkpt lat="45.93837" lon="4.77998">
        <ele>179</ele>
        <time>2017-04-05T08:36:37Z</time>
      </trkpt>
      <trkpt lat="45.93838" lon="4.78005">
        <ele>180</ele>
        <time>2017-04-05T08:36:38Z</time>
      </trkpt>
      <trkpt lat="45.93839" lon="4.78012">
        <ele>181</ele>
        <time>2017-04-05T08:36:39Z</time>
      </trkpt>
      <trkpt lat="45.93841" lon="4.78019">
        <ele>181</ele>
        <time>2017-04-05T08:36:40Z</time>
      </trkpt>
      <trkpt lat="45.93846" lon="4.78026">
        <ele>182</ele>
        <time>2017-04-05T08:36:42Z</time>
      </trkpt>
      <trkpt lat="45.93849" lon="4.78027">
        <ele>182</ele>
        <time>2017-04-05T08:36:43Z</time>
      </trkpt>
      <trkpt lat="45.93856" lon="4.78026">
        <ele>183</ele>
        <time>2017-04-05T08:36:45Z</time>
      </trkpt>
      <trkpt lat="45.9386" lon="4.78024">
        <ele>183</ele>
        <time>2017-04-05T08:36:46Z</time>
      </trkpt>
      <trkpt lat="45.93867" lon="4.78022">
        <ele>183</ele>
        <time>2017-04-05T08:36:48Z</time>
      </trkpt>
      <trkpt lat="45.93871" lon="4.78022">
        <ele>183</ele>
        <time>2017-04-05T08:36:49Z</time>
      </trkpt>
      <trkpt lat="45.93877" lon="4.78019">
        <ele>184</ele>
        <time>2017-04-05T08:36:51Z</time>
      </trkpt>
      <trkpt lat="45.93879" lon="4.78016">
        <ele>184</ele>
        <time>2017-04-05T08:36:52Z</time>
      </trkpt>
      <trkpt lat="45.93885" lon="4.78008">
        <ele>184</ele>
        <time>2017-04-05T08:36:55Z</time>
      </trkpt>
      <trkpt lat="45.93887" lon="4.78006">
        <ele>184</ele>
        <time>2017-04-05T08:36:56Z</time>
      </trkpt>
      <trkpt lat="45.93895" lon="4.78002">
        <ele>184</ele>
        <time>2017-04-05T08:36:59Z</time>
      </trkpt>
      <trkpt lat="45.93897" lon="4.77999">
        <ele>182</ele>
        <time>2017-04-05T08:37:00Z</time>
      </trkpt>
      <trkpt lat="45.93904" lon="4.77994">
        <ele>183</ele>
        <time>2017-04-05T08:37:03Z</time>
      </trkpt>
      <trkpt lat="45.93906" lon="4.77991">
        <ele>183</ele>
        <time>2017-04-05T08:37:04Z</time>
      </trkpt>
      <trkpt lat="45.93914" lon="4.77985">
        <ele>183</ele>
        <time>2017-04-05T08:37:08Z</time>
      </trkpt>
      <trkpt lat="45.93916" lon="4.77983">
        <ele>183</ele>
        <time>2017-04-05T08:37:09Z</time>
      </trkpt>
      <trkpt lat="45.93922" lon="4.77979">
        <ele>188</ele>
        <time>2017-04-05T08:37:12Z</time>
      </trkpt>
      <trkpt lat="45.93924" lon="4.77978">
        <ele>188</ele>
        <time>2017-04-05T08:37:13Z</time>
      </trkpt>
      <trkpt lat="45.93932" lon="4.77973">
        <ele>189</ele>
        <time>2017-04-05T08:37:17Z</time>
      </trkpt>
      <trkpt lat="45.93933" lon="4.77972">
        <ele>189</ele>
        <time>2017-04-05T08:37:18Z</time>
      </trkpt>
      <trkpt lat="45.9394" lon="4.77967">
        <ele>189</ele>
        <time>2017-04-05T08:37:22Z</time>
      </trkpt>
      <trkpt lat="45.93942" lon="4.77965">
        <ele>189</ele>
        <time>2017-04-05T08:37:23Z</time>
      </trkpt>
      <trkpt lat="45.93948" lon="4.77959">
        <ele>189</ele>
        <time>2017-04-05T08:37:27Z</time>
      </trkpt>
      <trkpt lat="45.9395" lon="4.77958">
        <ele>189</ele>
        <time>2017-04-05T08:37:28Z</time>
      </trkpt>
      <trkpt lat="45.93957" lon="4.7795">
        <ele>190</ele>
        <time>2017-04-05T08:37:33Z</time>
      </trkpt>
      <trkpt lat="45.93958" lon="4.77948">
        <ele>190</ele>
        <time>2017-04-05T08:37:34Z</time>
      </trkpt>
      <trkpt lat="45.93964" lon="4.77939">
        <ele>190</ele>
        <time>2017-04-05T08:37:38Z</time>
      </trkpt>
      <trkpt lat="45.93965" lon="4.77937">
        <ele>190</ele>
        <time>2017-04-05T08:37:39Z</time>
      </trkpt>
      <trkpt lat="45.93972" lon="4.77932">
        <ele>191</ele>
        <time>2017-04-05T08:37:43Z</time>
      </trkpt>
      <trkpt lat="45.93974" lon="4.7793">
        <ele>191</ele>
        <time>2017-04-05T08:37:44Z</time>
      </trkpt>
      <trkpt lat="45.93982" lon="4.77929">
        <ele>192</ele>
        <time>2017-04-05T08:37:47Z</time>
      </trkpt>
      <trkpt lat="45.93985" lon="4.77929">
        <ele>192</ele>
        <time>2017-04-05T08:37:48Z</time>
      </trkpt>
      <trkpt lat="45.93992" lon="4.77928">
        <ele>192</ele>
        <time>2017-04-05T08:37:51Z</time>
      </trkpt>
      <trkpt lat="45.93994" lon="4.77927">
        <ele>193</ele>
        <time>2017-04-05T08:37:52Z</time>
      </trkpt>
      <trkpt lat="45.94003" lon="4.7793">
        <ele>197</ele>
        <time>2017-04-05T08:37:58Z</time>
      </trkpt>
      <trkpt lat="45.94003" lon="4.77932">
        <ele>197</ele>
        <time>2017-04-05T08:37:59Z</time>
      </trkpt>
      <trkpt lat="45.94009" lon="4.7794">
        <ele>198</ele>
        <time>2017-04-05T08:38:04Z</time>
      </trkpt>
      <trkpt lat="45.9401" lon="4.77942">
        <ele>199</ele>
        <time>2017-04-05T08:38:05Z</time>
      </trkpt>
      <trkpt lat="45.94012" lon="4.77951">
        <ele>199</ele>
        <time>2017-04-05T08:38:08Z</time>
      </trkpt>
      <trkpt lat="45.94013" lon="4.77955">
        <ele>199</ele>
        <time>2017-04-05T08:38:09Z</time>
      </trkpt>
      <trkpt lat="45.94013" lon="4.77966">
        <ele>200</ele>
        <time>2017-04-05T08:38:12Z</time>
      </trkpt>
      <trkpt lat="45.94013" lon="4.7797">
        <ele>200</ele>
        <time>2017-04-05T08:38:13Z</time>
      </trkpt>
      <trkpt lat="45.94012" lon="4.7798">
        <ele>199</ele>
        <time>2017-04-05T08:38:16Z</time>
      </trkpt>
      <trkpt lat="45.94012" lon="4.77984">
        <ele>199</ele>
        <time>2017-04-05T08:38:17Z</time>
      </trkpt>
      <trkpt lat="45.94012" lon="4.77995">
        <ele>198</ele>
        <time>2017-04-05T08:38:20Z</time>
      </trkpt>
      <trkpt lat="45.94011" lon="4.77999">
        <ele>198</ele>
        <time>2017-04-05T08:38:21Z</time>
      </trkpt>
      <trkpt lat="45.94012" lon="4.7801">
        <ele>199</ele>
        <time>2017-04-05T08:38:24Z</time>
      </trkpt>
      <trkpt lat="45.94012" lon="4.78014">
        <ele>200</ele>
        <time>2017-04-05T08:38:25Z</time>
      </trkpt>
      <trkpt lat="45.9401" lon="4.78025">
        <ele>200</ele>
        <time>2017-04-05T08:38:28Z</time>
      </trkpt>
      <trkpt lat="45.94009" lon="4.78028">
        <ele>201</ele>
        <time>2017-04-05T08:38:29Z</time>
      </trkpt>
      <trkpt lat="45.94007" lon="4.7804">
        <ele>201</ele>
        <time>2017-04-05T08:38:32Z</time>
      </trkpt>
      <trkpt lat="45.94006" lon="4.78044">
        <ele>201</ele>
        <time>2017-04-05T08:38:33Z</time>
      </trkpt>
      <trkpt lat="45.94004" lon="4.78054">
        <ele>201</ele>
        <time>2017-04-05T08:38:35Z</time>
      </trkpt>
      <trkpt lat="45.94003" lon="4.78059">
        <ele>201</ele>
        <time>2017-04-05T08:38:36Z</time>
      </trkpt>
      <trkpt lat="45.94002" lon="4.78069">
        <ele>201</ele>
        <time>2017-04-05T08:38:38Z</time>
      </trkpt>
      <trkpt lat="45.94001" lon="4.78073">
        <ele>200</ele>
        <time>2017-04-05T08:38:39Z</time>
      </trkpt>
      <trkpt lat="45.94" lon="4.78082">
        <ele>199</ele>
        <time>2017-04-05T08:38:41Z</time>
      </trkpt>
      <trkpt lat="45.93999" lon="4.78086">
        <ele>199</ele>
        <time>2017-04-05T08:38:42Z</time>
      </trkpt>
      <trkpt lat="45.93997" lon="4.78095">
        <ele>198</ele>
        <time>2017-04-05T08:38:44Z</time>
      </trkpt>
      <trkpt lat="45.93997" lon="4.781">
        <ele>198</ele>
        <time>2017-04-05T08:38:45Z</time>
      </trkpt>
      <trkpt lat="45.93996" lon="4.78109">
        <ele>197</ele>
        <time>2017-04-05T08:38:47Z</time>
      </trkpt>
      <trkpt lat="45.93995" lon="4.78114">
        <ele>197</ele>
        <time>2017-04-05T08:38:48Z</time>
      </trkpt>
      <trkpt lat="45.93994" lon="4.78124">
        <ele>197</ele>
        <time>2017-04-05T08:38:50Z</time>
      </trkpt>
      <trkpt lat="45.93993" lon="4.78129">
        <ele>197</ele>
        <time>2017-04-05T08:38:51Z</time>
      </trkpt>
      <trkpt lat="45.93991" lon="4.78139">
        <ele>198</ele>
        <time>2017-04-05T08:38:53Z</time>
      </trkpt>
      <trkpt lat="45.9399" lon="4.78143">
        <ele>198</ele>
        <time>2017-04-05T08:38:54Z</time>
      </trkpt>
      <trkpt lat="45.9399" lon="4.78156">
        <ele>199</ele>
        <time>2017-04-05T08:38:57Z</time>
      </trkpt>
      <trkpt lat="45.93991" lon="4.78158">
        <ele>199</ele>
        <time>2017-04-05T08:38:58Z</time>
      </trkpt>
      <trkpt lat="45.93998" lon="4.78165">
        <ele>201</ele>
        <time>2017-04-05T08:39:02Z</time>
      </trkpt>
      <trkpt lat="45.93999" lon="4.78167">
        <ele>201</ele>
        <time>2017-04-05T08:39:03Z</time>
      </trkpt>
      <trkpt lat="45.94005" lon="4.78172">
        <ele>202</ele>
        <time>2017-04-05T08:39:05Z</time>
      </trkpt>
      <trkpt lat="45.9401" lon="4.78176">
        <ele>203</ele>
        <time>2017-04-05T08:39:06Z</time>
      </trkpt>
      <trkpt lat="45.94017" lon="4.78183">
        <ele>203</ele>
        <time>2017-04-05T08:39:10Z</time>
      </trkpt>
      <trkpt lat="45.9402" lon="4.78184">
        <ele>204</ele>
        <time>2017-04-05T08:39:11Z</time>
      </trkpt>
      <trkpt lat="45.94026" lon="4.78189">
        <ele>204</ele>
        <time>2017-04-05T08:39:15Z</time>
      </trkpt>
      <trkpt lat="45.94028" lon="4.7819">
        <ele>204</ele>
        <time>2017-04-05T08:39:16Z</time>
      </trkpt>
      <trkpt lat="45.94037" lon="4.78193">
        <ele>205</ele>
        <time>2017-04-05T08:39:20Z</time>
      </trkpt>
      <trkpt lat="45.94039" lon="4.78194">
        <ele>205</ele>
        <time>2017-04-05T08:39:21Z</time>
      </trkpt>
      <trkpt lat="45.94044" lon="4.78201">
        <ele>205</ele>
        <time>2017-04-05T08:39:25Z</time>
      </trkpt>
      <trkpt lat="45.94046" lon="4.78203">
        <ele>205</ele>
        <time>2017-04-05T08:39:26Z</time>
      </trkpt>
      <trkpt lat="45.94052" lon="4.78211">
        <ele>205</ele>
        <time>2017-04-05T08:39:30Z</time>
      </trkpt>
      <trkpt lat="45.94054" lon="4.78212">
        <ele>205</ele>
        <time>2017-04-05T08:39:31Z</time>
      </trkpt>
      <trkpt lat="45.9406" lon="4.78213">
        <ele>206</ele>
        <time>2017-04-05T08:39:33Z</time>
      </trkpt>
      <trkpt lat="45.94063" lon="4.78215">
        <ele>206</ele>
        <time>2017-04-05T08:39:34Z</time>
      </trkpt>
      <trkpt lat="45.9407" lon="4.78217">
        <ele>206</ele>
        <time>2017-04-05T08:39:37Z</time>
      </trkpt>
      <trkpt lat="45.94073" lon="4.78218">
        <ele>206</ele>
        <time>2017-04-05T08:39:38Z</time>
      </trkpt>
      <trkpt lat="45.94081" lon="4.78222">
        <ele>206</ele>
        <time>2017-04-05T08:39:41Z</time>
      </trkpt>
      <trkpt lat="45.94083" lon="4.78224">
        <ele>206</ele>
        <time>2017-04-05T08:39:42Z</time>
      </trkpt>
      <trkpt lat="45.9409" lon="4.78228">
        <ele>212</ele>
        <time>2017-04-05T08:39:45Z</time>
      </trkpt>
      <trkpt lat="45.94092" lon="4.78229">
        <ele>212</ele>
        <time>2017-04-05T08:39:46Z</time>
      </trkpt>
      <trkpt lat="45.94099" lon="4.78233">
        <ele>212</ele>
        <time>2017-04-05T08:39:49Z</time>
      </trkpt>
      <trkpt lat="45.94101" lon="4.78236">
        <ele>212</ele>
        <time>2017-04-05T08:39:50Z</time>
      </trkpt>
      <trkpt lat="45.94107" lon="4.7824">
        <ele>213</ele>
        <time>2017-04-05T08:39:53Z</time>
      </trkpt>
      <trkpt lat="45.9411" lon="4.78241">
        <ele>213</ele>
        <time>2017-04-05T08:39:54Z</time>
      </trkpt>
      <trkpt lat="45.94117" lon="4.78244">
        <ele>214</ele>
        <time>2017-04-05T08:39:57Z</time>
      </trkpt>
      <trkpt lat="45.94119" lon="4.78246">
        <ele>214</ele>
        <time>2017-04-05T08:39:58Z</time>
      </trkpt>
      <trkpt lat="45.94125" lon="4.78251">
        <ele>214</ele>
        <time>2017-04-05T08:40:01Z</time>
      </trkpt>
      <trkpt lat="45.94127" lon="4.78252">
        <ele>214</ele>
        <time>2017-04-05T08:40:02Z</time>
      </trkpt>
      <trkpt lat="45.94134" lon="4.78258">
        <ele>215</ele>
        <time>2017-04-05T08:40:05Z</time>
      </trkpt>
      <trkpt lat="45.94136" lon="4.78259">
        <ele>215</ele>
        <time>2017-04-05T08:40:06Z</time>
      </trkpt>
      <trkpt lat="45.94143" lon="4.78264">
        <ele>215</ele>
        <time>2017-04-05T08:40:09Z</time>
      </trkpt>
      <trkpt lat="45.94145" lon="4.78266">
        <ele>215</ele>
        <time>2017-04-05T08:40:10Z</time>
      </trkpt>
      <trkpt lat="45.94153" lon="4.7827">
        <ele>216</ele>
        <time>2017-04-05T08:40:13Z</time>
      </trkpt>
      <trkpt lat="45.94155" lon="4.78271">
        <ele>216</ele>
        <time>2017-04-05T08:40:14Z</time>
      </trkpt>
      <trkpt lat="45.94163" lon="4.78274">
        <ele>216</ele>
        <time>2017-04-05T08:40:17Z</time>
      </trkpt>
      <trkpt lat="45.94165" lon="4.78276">
        <ele>216</ele>
        <time>2017-04-05T08:40:18Z</time>
      </trkpt>
      <trkpt lat="45.94173" lon="4.78279">
        <ele>221</ele>
        <time>2017-04-05T08:40:21Z</time>
      </trkpt>
      <trkpt lat="45.94175" lon="4.78281">
        <ele>221</ele>
        <time>2017-04-05T08:40:22Z</time>
      </trkpt>
      <trkpt lat="45.94181" lon="4.78284">
        <ele>221</ele>
        <time>2017-04-05T08:40:24Z</time>
      </trkpt>
      <trkpt lat="45.94184" lon="4.78286">
        <ele>221</ele>
        <time>2017-04-05T08:40:25Z</time>
      </trkpt>
      <trkpt lat="45.94191" lon="4.78288">
        <ele>221</ele>
        <time>2017-04-05T08:40:28Z</time>
      </trkpt>
      <trkpt lat="45.94193" lon="4.78289">
        <ele>221</ele>
        <time>2017-04-05T08:40:29Z</time>
      </trkpt>
      <trkpt lat="45.94201" lon="4.7829">
        <ele>221</ele>
        <time>2017-04-05T08:40:32Z</time>
      </trkpt>
      <trkpt lat="45.94204" lon="4.78291">
        <ele>221</ele>
        <time>2017-04-05T08:40:33Z</time>
      </trkpt>
      <trkpt lat="45.9421" lon="4.78292">
        <ele>222</ele>
        <time>2017-04-05T08:40:35Z</time>
      </trkpt>
      <trkpt lat="45.94213" lon="4.78293">
        <ele>222</ele>
        <time>2017-04-05T08:40:36Z</time>
      </trkpt>
      <trkpt lat="45.94221" lon="4.78296">
        <ele>222</ele>
        <time>2017-04-05T08:40:38Z</time>
      </trkpt>
      <trkpt lat="45.94225" lon="4.78298">
        <ele>222</ele>
        <time>2017-04-05T08:40:39Z</time>
      </trkpt>
      <trkpt lat="45.9423" lon="4.78299">
        <ele>222</ele>
        <time>2017-04-05T08:40:41Z</time>
      </trkpt>
      <trkpt lat="45.94234" lon="4.78301">
        <ele>222</ele>
        <time>2017-04-05T08:40:42Z</time>
      </trkpt>
      <trkpt lat="45.94241" lon="4.78302">
        <ele>222</ele>
        <time>2017-04-05T08:40:45Z</time>
      </trkpt>
      <trkpt lat="45.94243" lon="4.78303">
        <ele>222</ele>
        <time>2017-04-05T08:40:46Z</time>
      </trkpt>
      <trkpt lat="45.94252" lon="4.78307">
        <ele>227</ele>
        <time>2017-04-05T08:40:50Z</time>
      </trkpt>
      <trkpt lat="45.94254" lon="4.78308">
        <ele>227</ele>
        <time>2017-04-05T08:40:51Z</time>
      </trkpt>
      <trkpt lat="45.9426" lon="4.78311">
        <ele>227</ele>
        <time>2017-04-05T08:40:54Z</time>
      </trkpt>
      <trkpt lat="45.94263" lon="4.78313">
        <ele>227</ele>
        <time>2017-04-05T08:40:55Z</time>
      </trkpt>
      <trkpt lat="45.94269" lon="4.78318">
        <ele>227</ele>
        <time>2017-04-05T08:40:58Z</time>
      </trkpt>
      <trkpt lat="45.94271" lon="4.78319">
        <ele>227</ele>
        <time>2017-04-05T08:40:59Z</time>
      </trkpt>
      <trkpt lat="45.94278" lon="4.78325">
        <ele>227</ele>
        <time>2017-04-05T08:41:02Z</time>
      </trkpt>
      <trkpt lat="45.9428" lon="4.78327">
        <ele>227</ele>
        <time>2017-04-05T08:41:03Z</time>
      </trkpt>
      <trkpt lat="45.94286" lon="4.78335">
        <ele>227</ele>
        <time>2017-04-05T08:41:07Z</time>
      </trkpt>
      <trkpt lat="45.94287" lon="4.78336">
        <ele>227</ele>
        <time>2017-04-05T08:41:08Z</time>
      </trkpt>
      <trkpt lat="45.94292" lon="4.78343">
        <ele>228</ele>
        <time>2017-04-05T08:41:11Z</time>
      </trkpt>
      <trkpt lat="45.94294" lon="4.78346">
        <ele>228</ele>
        <time>2017-04-05T08:41:12Z</time>
      </trkpt>
      <trkpt lat="45.94296" lon="4.78355">
        <ele>229</ele>
        <time>2017-04-05T08:41:15Z</time>
      </trkpt>
      <trkpt lat="45.94298" lon="4.78358">
        <ele>229</ele>
        <time>2017-04-05T08:41:16Z</time>
      </trkpt>
      <trkpt lat="45.94303" lon="4.78368">
        <ele>229</ele>
        <time>2017-04-05T08:41:19Z</time>
      </trkpt>
      <trkpt lat="45.94304" lon="4.78371">
        <ele>229</ele>
        <time>2017-04-05T08:41:20Z</time>
      </trkpt>
      <trkpt lat="45.94309" lon="4.7838">
        <ele>230</ele>
        <time>2017-04-05T08:41:23Z</time>
      </trkpt>
      <trkpt lat="45.9431" lon="4.78383">
        <ele>230</ele>
        <time>2017-04-05T08:41:24Z</time>
      </trkpt>
      <trkpt lat="45.94314" lon="4.78392">
        <ele>230</ele>
        <time>2017-04-05T08:41:27Z</time>
      </trkpt>
      <trkpt lat="45.94316" lon="4.78395">
        <ele>230</ele>
        <time>2017-04-05T08:41:28Z</time>
      </trkpt>
      <trkpt lat="45.94319" lon="4.78402">
        <ele>230</ele>
        <time>2017-04-05T08:41:30Z</time>
      </trkpt>
      <trkpt lat="45.94321" lon="4.78405">
        <ele>230</ele>
        <time>2017-04-05T08:41:31Z</time>
      </trkpt>
      <trkpt lat="45.94326" lon="4.78413">
        <ele>229</ele>
        <time>2017-04-05T08:41:34Z</time>
      </trkpt>
      <trkpt lat="45.94328" lon="4.78416">
        <ele>229</ele>
        <time>2017-04-05T08:41:35Z</time>
      </trkpt>
      <trkpt lat="45.94332" lon="4.78423">
        <ele>232</ele>
        <time>2017-04-05T08:41:38Z</time>
      </trkpt>
      <trkpt lat="45.94334" lon="4.78426">
        <ele>231</ele>
        <time>2017-04-05T08:41:39Z</time>
      </trkpt>
      <trkpt lat="45.9434" lon="4.78435">
        <ele>233</ele>
        <time>2017-04-05T08:41:43Z</time>
      </trkpt>
      <trkpt lat="45.94341" lon="4.78437">
        <ele>233</ele>
        <time>2017-04-05T08:41:44Z</time>
      </trkpt>
      <trkpt lat="45.94347" lon="4.78443">
        <ele>234</ele>
        <time>2017-04-05T08:41:47Z</time>
      </trkpt>
      <trkpt lat="45.94349" lon="4.78446">
        <ele>235</ele>
        <time>2017-04-05T08:41:48Z</time>
      </trkpt>
      <trkpt lat="45.94354" lon="4.78453">
        <ele>235</ele>
        <time>2017-04-05T08:41:51Z</time>
      </trkpt>
      <trkpt lat="45.94356" lon="4.78456">
        <ele>235</ele>
        <time>2017-04-05T08:41:52Z</time>
      </trkpt>
      <trkpt lat="45.94362" lon="4.78463">
        <ele>236</ele>
        <time>2017-04-05T08:41:55Z</time>
      </trkpt>
      <trkpt lat="45.94364" lon="4.78465">
        <ele>236</ele>
        <time>2017-04-05T08:41:56Z</time>
      </trkpt>
      <trkpt lat="45.94369" lon="4.78472">
        <ele>236</ele>
        <time>2017-04-05T08:41:59Z</time>
      </trkpt>
      <trkpt lat="45.94371" lon="4.78474">
        <ele>236</ele>
        <time>2017-04-05T08:42:00Z</time>
      </trkpt>
      <trkpt lat="45.94376" lon="4.78481">
        <ele>236</ele>
        <time>2017-04-05T08:42:03Z</time>
      </trkpt>
      <trkpt lat="45.94378" lon="4.78483">
        <ele>236</ele>
        <time>2017-04-05T08:42:04Z</time>
      </trkpt>
      <trkpt lat="45.94383" lon="4.7849">
        <ele>236</ele>
        <time>2017-04-05T08:42:07Z</time>
      </trkpt>
      <trkpt lat="45.94385" lon="4.78493">
        <ele>236</ele>
        <time>2017-04-05T08:42:08Z</time>
      </trkpt>
      <trkpt lat="45.94391" lon="4.78499">
        <ele>235</ele>
        <time>2017-04-05T08:42:11Z</time>
      </trkpt>
      <trkpt lat="45.94394" lon="4.78501">
        <ele>237</ele>
        <time>2017-04-05T08:42:12Z</time>
      </trkpt>
      <trkpt lat="45.94399" lon="4.78507">
        <ele>236</ele>
        <time>2017-04-05T08:42:15Z</time>
      </trkpt>
      <trkpt lat="45.94401" lon="4.78509">
        <ele>236</ele>
        <time>2017-04-05T08:42:16Z</time>
      </trkpt>
      <trkpt lat="45.94407" lon="4.78518">
        <ele>237</ele>
        <time>2017-04-05T08:42:20Z</time>
      </trkpt>
      <trkpt lat="45.94408" lon="4.78521">
        <ele>237</ele>
        <time>2017-04-05T08:42:21Z</time>
      </trkpt>
      <trkpt lat="45.94413" lon="4.78528">
        <ele>237</ele>
        <time>2017-04-05T08:42:24Z</time>
      </trkpt>
      <trkpt lat="45.94414" lon="4.78531">
        <ele>237</ele>
        <time>2017-04-05T08:42:25Z</time>
      </trkpt>
      <trkpt lat="45.94419" lon="4.78539">
        <ele>238</ele>
        <time>2017-04-05T08:42:28Z</time>
      </trkpt>
      <trkpt lat="45.9442" lon="4.78542">
        <ele>238</ele>
        <time>2017-04-05T08:42:29Z</time>
      </trkpt>
      <trkpt lat="45.94426" lon="4.78551">
        <ele>238</ele>
        <time>2017-04-05T08:42:33Z</time>
      </trkpt>
      <trkpt lat="45.94428" lon="4.78554">
        <ele>238</ele>
        <time>2017-04-05T08:42:34Z</time>
      </trkpt>
      <trkpt lat="45.94432" lon="4.78561">
        <ele>238</ele>
        <time>2017-04-05T08:42:37Z</time>
      </trkpt>
      <trkpt lat="45.94433" lon="4.78564">
        <ele>238</ele>
        <time>2017-04-05T08:42:38Z</time>
      </trkpt>
      <trkpt lat="45.9444" lon="4.78572">
        <ele>239</ele>
        <time>2017-04-05T08:42:42Z</time>
      </trkpt>
      <trkpt lat="45.94442" lon="4.78575">
        <ele>239</ele>
        <time>2017-04-05T08:42:43Z</time>
      </trkpt>
      <trkpt lat="45.94447" lon="4.78582">
        <ele>239</ele>
        <time>2017-04-05T08:42:46Z</time>
      </trkpt>
      <trkpt lat="45.94448" lon="4.78584">
        <ele>240</ele>
        <time>2017-04-05T08:42:47Z</time>
      </trkpt>
      <trkpt lat="45.94452" lon="4.78593">
        <ele>240</ele>
        <time>2017-04-05T08:42:50Z</time>
      </trkpt>
      <trkpt lat="45.94454" lon="4.78596">
        <ele>240</ele>
        <time>2017-04-05T08:42:51Z</time>
      </trkpt>
      <trkpt lat="45.94457" lon="4.78607">
        <ele>240</ele>
        <time>2017-04-05T08:42:55Z</time>
      </trkpt>
      <trkpt lat="45.94458" lon="4.7861">
        <ele>241</ele>
        <time>2017-04-05T08:42:56Z</time>
      </trkpt>
      <trkpt lat="45.9446" lon="4.78621">
        <ele>241</ele>
        <time>2017-04-05T08:42:59Z</time>
      </trkpt>
      <trkpt lat="45.94461" lon="4.78624">
        <ele>241</ele>
        <time>2017-04-05T08:43:00Z</time>
      </trkpt>
      <trkpt lat="45.94463" lon="4.78634">
        <ele>241</ele>
        <time>2017-04-05T08:43:03Z</time>
      </trkpt>
      <trkpt lat="45.94464" lon="4.78638">
        <ele>241</ele>
        <time>2017-04-05T08:43:04Z</time>
      </trkpt>
      <trkpt lat="45.94466" lon="4.78648">
        <ele>241</ele>
        <time>2017-04-05T08:43:08Z</time>
      </trkpt>
      <trkpt lat="45.94467" lon="4.78651">
        <ele>241</ele>
        <time>2017-04-05T08:43:09Z</time>
      </trkpt>
      <trkpt lat="45.94469" lon="4.78661">
        <ele>241</ele>
        <time>2017-04-05T08:43:12Z</time>
      </trkpt>
      <trkpt lat="45.9447" lon="4.78665">
        <ele>241</ele>
        <time>2017-04-05T08:43:13Z</time>
      </trkpt>
      <trkpt lat="45.94471" lon="4.78676">
        <ele>244</ele>
        <time>2017-04-05T08:43:16Z</time>
      </trkpt>
      <trkpt lat="45.94472" lon="4.7868">
        <ele>244</ele>
        <time>2017-04-05T08:43:17Z</time>
      </trkpt>
      <trkpt lat="45.94474" lon="4.78691">
        <ele>244</ele>
        <time>2017-04-05T08:43:21Z</time>
      </trkpt>
      <trkpt lat="45.94474" lon="4.78693">
        <ele>244</ele>
        <time>2017-04-05T08:43:22Z</time>
      </trkpt>
      <trkpt lat="45.94476" lon="4.78704">
        <ele>245</ele>
        <time>2017-04-05T08:43:26Z</time>
      </trkpt>
      <trkpt lat="45.94477" lon="4.78708">
        <ele>245</ele>
        <time>2017-04-05T08:43:27Z</time>
      </trkpt>
      <trkpt lat="45.94478" lon="4.78719">
        <ele>245</ele>
        <time>2017-04-05T08:43:31Z</time>
      </trkpt>
      <trkpt lat="45.94478" lon="4.78722">
        <ele>246</ele>
        <time>2017-04-05T08:43:32Z</time>
      </trkpt>
      <trkpt lat="45.94478" lon="4.78733">
        <ele>246</ele>
        <time>2017-04-05T08:43:37Z</time>
      </trkpt>
      <trkpt lat="45.94478" lon="4.78736">
        <ele>246</ele>
        <time>2017-04-05T08:43:38Z</time>
      </trkpt>
      <trkpt lat="45.94478" lon="4.78748">
        <ele>246</ele>
        <time>2017-04-05T08:43:42Z</time>
      </trkpt>
      <trkpt lat="45.94477" lon="4.78751">
        <ele>249</ele>
        <time>2017-04-05T08:43:43Z</time>
      </trkpt>
      <trkpt lat="45.94474" lon="4.78761">
        <ele>249</ele>
        <time>2017-04-05T08:43:47Z</time>
      </trkpt>
      <trkpt lat="45.94472" lon="4.78762">
        <ele>249</ele>
        <time>2017-04-05T08:43:48Z</time>
      </trkpt>
      <trkpt lat="45.94468" lon="4.78772">
        <ele>250</ele>
        <time>2017-04-05T08:43:53Z</time>
      </trkpt>
      <trkpt lat="45.94467" lon="4.78774">
        <ele>250</ele>
        <time>2017-04-05T08:43:54Z</time>
      </trkpt>
      <trkpt lat="45.94464" lon="4.78784">
        <ele>250</ele>
        <time>2017-04-05T08:43:58Z</time>
      </trkpt>
      <trkpt lat="45.94463" lon="4.78787">
        <ele>250</ele>
        <time>2017-04-05T08:43:59Z</time>
      </trkpt>
      <trkpt lat="45.94461" lon="4.78797">
        <ele>251</ele>
        <time>2017-04-05T08:44:03Z</time>
      </trkpt>
      <trkpt lat="45.94461" lon="4.788">
        <ele>251</ele>
        <time>2017-04-05T08:44:04Z</time>
      </trkpt>
      <trkpt lat="45.94459" lon="4.78811">
        <ele>251</ele>
        <time>2017-04-05T08:44:08Z</time>
      </trkpt>
      <trkpt lat="45.94459" lon="4.78814">
        <ele>251</ele>
        <time>2017-04-05T08:44:09Z</time>
      </trkpt>
      <trkpt lat="45.94458" lon="4.78825">
        <ele>251</ele>
        <time>2017-04-05T08:44:12Z</time>
      </trkpt>
      <trkpt lat="45.94458" lon="4.78829">
        <ele>251</ele>
        <time>2017-04-05T08:44:13Z</time>
      </trkpt>
      <trkpt lat="45.94459" lon="4.78841">
        <ele>253</ele>
        <time>2017-04-05T08:44:16Z</time>
      </trkpt>
      <trkpt lat="45.9446" lon="4.78846">
        <ele>253</ele>
        <time>2017-04-05T08:44:17Z</time>
      </trkpt>
      <trkpt lat="45.94459" lon="4.78856">
        <ele>253</ele>
        <time>2017-04-05T08:44:20Z</time>
      </trkpt>
      <trkpt lat="45.94459" lon="4.7886">
        <ele>253</ele>
        <time>2017-04-05T08:44:21Z</time>
      </trkpt>
      <trkpt lat="45.94456" lon="4.78871">
        <ele>253</ele>
        <time>2017-04-05T08:44:25Z</time>
      </trkpt>
      <trkpt lat="45.94456" lon="4.78873">
        <ele>253</ele>
        <time>2017-04-05T08:44:26Z</time>
      </trkpt>
      <trkpt lat="45.94454" lon="4.78886">
        <ele>253</ele>
        <time>2017-04-05T08:44:31Z</time>
      </trkpt>
      <trkpt lat="45.94454" lon="4.78889">
        <ele>253</ele>
        <time>2017-04-05T08:44:32Z</time>
      </trkpt>
      <trkpt lat="45.94455" lon="4.78899">
        <ele>253</ele>
        <time>2017-04-05T08:44:36Z</time>
      </trkpt>
      <trkpt lat="45.94455" lon="4.78902">
        <ele>253</ele>
        <time>2017-04-05T08:44:37Z</time>
      </trkpt>
      <trkpt lat="45.94457" lon="4.78913">
        <ele>253</ele>
        <time>2017-04-05T08:44:41Z</time>
      </trkpt>
      <trkpt lat="45.94457" lon="4.78917">
        <ele>253</ele>
        <time>2017-04-05T08:44:42Z</time>
      </trkpt>
      <trkpt lat="45.9446" lon="4.78926">
        <ele>254</ele>
        <time>2017-04-05T08:44:45Z</time>
      </trkpt>
      <trkpt lat="45.94461" lon="4.78931">
        <ele>254</ele>
        <time>2017-04-05T08:44:46Z</time>
      </trkpt>
      <trkpt lat="45.94464" lon="4.78941">
        <ele>254</ele>
        <time>2017-04-05T08:44:49Z</time>
      </trkpt>
      <trkpt lat="45.94465" lon="4.78945">
        <ele>254</ele>
        <time>2017-04-05T08:44:50Z</time>
      </trkpt>
      <trkpt lat="45.94469" lon="4.78954">
        <ele>254</ele>
        <time>2017-04-05T08:44:53Z</time>
      </trkpt>
      <trkpt lat="45.94471" lon="4.78957">
        <ele>254</ele>
        <time>2017-04-05T08:44:54Z</time>
      </trkpt>
      <trkpt lat="45.94476" lon="4.78966">
        <ele>254</ele>
        <time>2017-04-05T08:44:57Z</time>
      </trkpt>
      <trkpt lat="45.94478" lon="4.78969">
        <ele>254</ele>
        <time>2017-04-05T08:44:58Z</time>
      </trkpt>
      <trkpt lat="45.94482" lon="4.78977">
        <ele>254</ele>
        <time>2017-04-05T08:45:01Z</time>
      </trkpt>
      <trkpt lat="45.94483" lon="4.78979">
        <ele>254</ele>
        <time>2017-04-05T08:45:02Z</time>
      </trkpt>
      <trkpt lat="45.94489" lon="4.78989">
        <ele>254</ele>
        <time>2017-04-05T08:45:06Z</time>
      </trkpt>
      <trkpt lat="45.9449" lon="4.78992">
        <ele>254</ele>
        <time>2017-04-05T08:45:07Z</time>
      </trkpt>
      <trkpt lat="45.94495" lon="4.78999">
        <ele>254</ele>
        <time>2017-04-05T08:45:10Z</time>
      </trkpt>
      <trkpt lat="45.94497" lon="4.79002">
        <ele>254</ele>
        <time>2017-04-05T08:45:11Z</time>
      </trkpt>
      <trkpt lat="45.94502" lon="4.79011">
        <ele>255</ele>
        <time>2017-04-05T08:45:14Z</time>
      </trkpt>
      <trkpt lat="45.94504" lon="4.79014">
        <ele>255</ele>
        <time>2017-04-05T08:45:15Z</time>
      </trkpt>
      <trkpt lat="45.94507" lon="4.79023">
        <ele>255</ele>
        <time>2017-04-05T08:45:18Z</time>
      </trkpt>
      <trkpt lat="45.94508" lon="4.79026">
        <ele>255</ele>
        <time>2017-04-05T08:45:19Z</time>
      </trkpt>
      <trkpt lat="45.94512" lon="4.79035">
        <ele>255</ele>
        <time>2017-04-05T08:45:22Z</time>
      </trkpt>
      <trkpt lat="45.94514" lon="4.79038">
        <ele>255</ele>
        <time>2017-04-05T08:45:23Z</time>
      </trkpt>
      <trkpt lat="45.94516" lon="4.79046">
        <ele>255</ele>
        <time>2017-04-05T08:45:25Z</time>
      </trkpt>
      <trkpt lat="45.94518" lon="4.79049">
        <ele>255</ele>
        <time>2017-04-05T08:45:26Z</time>
      </trkpt>
      <trkpt lat="45.94524" lon="4.7906">
        <ele>255</ele>
        <time>2017-04-05T08:45:29Z</time>
      </trkpt>
      <trkpt lat="45.94525" lon="4.79063">
        <ele>255</ele>
        <time>2017-04-05T08:45:30Z</time>
      </trkpt>
      <trkpt lat="45.94529" lon="4.7907">
        <ele>255</ele>
        <time>2017-04-05T08:45:32Z</time>
      </trkpt>
      <trkpt lat="45.94532" lon="4.79074">
        <ele>255</ele>
        <time>2017-04-05T08:45:33Z</time>
      </trkpt>
      <trkpt lat="45.94535" lon="4.79082">
        <ele>255</ele>
        <time>2017-04-05T08:45:35Z</time>
      </trkpt>
      <trkpt lat="45.94538" lon="4.79087">
        <ele>256</ele>
        <time>2017-04-05T08:45:36Z</time>
      </trkpt>
      <trkpt lat="45.94543" lon="4.79097">
        <ele>256</ele>
        <time>2017-04-05T08:45:38Z</time>
      </trkpt>
      <trkpt lat="45.94545" lon="4.79102">
        <ele>256</ele>
        <time>2017-04-05T08:45:39Z</time>
      </trkpt>
      <trkpt lat="45.94549" lon="4.79113">
        <ele>256</ele>
        <time>2017-04-05T08:45:41Z</time>
      </trkpt>
      <trkpt lat="45.94551" lon="4.79118">
        <ele>256</ele>
        <time>2017-04-05T08:45:42Z</time>
      </trkpt>
      <trkpt lat="45.94556" lon="4.79128">
        <ele>257</ele>
        <time>2017-04-05T08:45:44Z</time>
      </trkpt>
      <trkpt lat="45.94558" lon="4.79134">
        <ele>257</ele>
        <time>2017-04-05T08:45:45Z</time>
      </trkpt>
      <trkpt lat="45.94563" lon="4.79144">
        <ele>257</ele>
        <time>2017-04-05T08:45:47Z</time>
      </trkpt>
      <trkpt lat="45.94566" lon="4.7915">
        <ele>257</ele>
        <time>2017-04-05T08:45:48Z</time>
      </trkpt>
      <trkpt lat="45.94569" lon="4.79155">
        <ele>258</ele>
        <time>2017-04-05T08:45:49Z</time>
      </trkpt>
      <trkpt lat="45.94572" lon="4.79161">
        <ele>258</ele>
        <time>2017-04-05T08:45:50Z</time>
      </trkpt>
      <trkpt lat="45.94575" lon="4.79167">
        <ele>258</ele>
        <time>2017-04-05T08:45:51Z</time>
      </trkpt>
      <trkpt lat="45.94578" lon="4.79172">
        <ele>258</ele>
        <time>2017-04-05T08:45:52Z</time>
      </trkpt>
      <trkpt lat="45.94582" lon="4.79177">
        <ele>258</ele>
        <time>2017-04-05T08:45:53Z</time>
      </trkpt>
      <trkpt lat="45.94585" lon="4.79182">
        <ele>258</ele>
        <time>2017-04-05T08:45:54Z</time>
      </trkpt>
      <trkpt lat="45.9459" lon="4.79191">
        <ele>257</ele>
        <time>2017-04-05T08:45:56Z</time>
      </trkpt>
      <trkpt lat="45.94592" lon="4.79196">
        <ele>257</ele>
        <time>2017-04-05T08:45:57Z</time>
      </trkpt>
      <trkpt lat="45.94596" lon="4.79205">
        <ele>257</ele>
        <time>2017-04-05T08:45:59Z</time>
      </trkpt>
      <trkpt lat="45.94599" lon="4.7921">
        <ele>257</ele>
        <time>2017-04-05T08:46:00Z</time>
      </trkpt>
      <trkpt lat="45.94603" lon="4.7922">
        <ele>256</ele>
        <time>2017-04-05T08:46:02Z</time>
      </trkpt>
      <trkpt lat="45.94606" lon="4.79225">
        <ele>256</ele>
        <time>2017-04-05T08:46:03Z</time>
      </trkpt>
      <trkpt lat="45.94611" lon="4.79234">
        <ele>256</ele>
        <time>2017-04-05T08:46:05Z</time>
      </trkpt>
      <trkpt lat="45.94612" lon="4.79239">
        <ele>256</ele>
        <time>2017-04-05T08:46:06Z</time>
      </trkpt>
      <trkpt lat="45.94617" lon="4.79249">
        <ele>256</ele>
        <time>2017-04-05T08:46:08Z</time>
      </trkpt>
      <trkpt lat="45.94619" lon="4.79253">
        <ele>255</ele>
        <time>2017-04-05T08:46:09Z</time>
      </trkpt>
      <trkpt lat="45.94622" lon="4.79259">
        <ele>255</ele>
        <time>2017-04-05T08:46:10Z</time>
      </trkpt>
      <trkpt lat="45.94625" lon="4.79264">
        <ele>255</ele>
        <time>2017-04-05T08:46:11Z</time>
      </trkpt>
      <trkpt lat="45.94627" lon="4.7927">
        <ele>254</ele>
        <time>2017-04-05T08:46:12Z</time>
      </trkpt>
      <trkpt lat="45.9463" lon="4.79275">
        <ele>254</ele>
        <time>2017-04-05T08:46:13Z</time>
      </trkpt>
      <trkpt lat="45.94633" lon="4.79281">
        <ele>254</ele>
        <time>2017-04-05T08:46:14Z</time>
      </trkpt>
      <trkpt lat="45.94636" lon="4.79286">
        <ele>254</ele>
        <time>2017-04-05T08:46:15Z</time>
      </trkpt>
      <trkpt lat="45.94641" lon="4.79295">
        <ele>254</ele>
        <time>2017-04-05T08:46:17Z</time>
      </trkpt>
      <trkpt lat="45.94644" lon="4.793">
        <ele>254</ele>
        <time>2017-04-05T08:46:18Z</time>
      </trkpt>
      <trkpt lat="45.94648" lon="4.79304">
        <ele>254</ele>
        <time>2017-04-05T08:46:19Z</time>
      </trkpt>
      <trkpt lat="45.94651" lon="4.79308">
        <ele>254</ele>
        <time>2017-04-05T08:46:20Z</time>
      </trkpt>
      <trkpt lat="45.94656" lon="4.79318">
        <ele>254</ele>
        <time>2017-04-05T08:46:22Z</time>
      </trkpt>
      <trkpt lat="45.94659" lon="4.79323">
        <ele>254</ele>
        <time>2017-04-05T08:46:23Z</time>
      </trkpt>
      <trkpt lat="45.94664" lon="4.79332">
        <ele>254</ele>
        <time>2017-04-05T08:46:25Z</time>
      </trkpt>
      <trkpt lat="45.94666" lon="4.79337">
        <ele>254</ele>
        <time>2017-04-05T08:46:26Z</time>
      </trkpt>
      <trkpt lat="45.94671" lon="4.79348">
        <ele>253</ele>
        <time>2017-04-05T08:46:28Z</time>
      </trkpt>
      <trkpt lat="45.94673" lon="4.79353">
        <ele>253</ele>
        <time>2017-04-05T08:46:29Z</time>
      </trkpt>
      <trkpt lat="45.94677" lon="4.79362">
        <ele>253</ele>
        <time>2017-04-05T08:46:31Z</time>
      </trkpt>
      <trkpt lat="45.94678" lon="4.79367">
        <ele>253</ele>
        <time>2017-04-05T08:46:32Z</time>
      </trkpt>
      <trkpt lat="45.94682" lon="4.79377">
        <ele>253</ele>
        <time>2017-04-05T08:46:34Z</time>
      </trkpt>
      <trkpt lat="45.94684" lon="4.79381">
        <ele>253</ele>
        <time>2017-04-05T08:46:35Z</time>
      </trkpt>
      <trkpt lat="45.94688" lon="4.79391">
        <ele>253</ele>
        <time>2017-04-05T08:46:37Z</time>
      </trkpt>
      <trkpt lat="45.9469" lon="4.79396">
        <ele>253</ele>
        <time>2017-04-05T08:46:38Z</time>
      </trkpt>
      <trkpt lat="45.94695" lon="4.79407">
        <ele>253</ele>
        <time>2017-04-05T08:46:40Z</time>
      </trkpt>
      <trkpt lat="45.94697" lon="4.79412">
        <ele>253</ele>
        <time>2017-04-05T08:46:41Z</time>
      </trkpt>
      <trkpt lat="45.947" lon="4.79418">
        <ele>253</ele>
        <time>2017-04-05T08:46:42Z</time>
      </trkpt>
      <trkpt lat="45.94702" lon="4.79424">
        <ele>253</ele>
        <time>2017-04-05T08:46:43Z</time>
      </trkpt>
      <trkpt lat="45.94704" lon="4.7943">
        <ele>253</ele>
        <time>2017-04-05T08:46:44Z</time>
      </trkpt>
      <trkpt lat="45.94707" lon="4.79435">
        <ele>253</ele>
        <time>2017-04-05T08:46:45Z</time>
      </trkpt>
      <trkpt lat="45.94709" lon="4.79441">
        <ele>253</ele>
        <time>2017-04-05T08:46:46Z</time>
      </trkpt>
      <trkpt lat="45.94712" lon="4.79448">
        <ele>253</ele>
        <time>2017-04-05T08:46:47Z</time>
      </trkpt>
      <trkpt lat="45.94715" lon="4.79455">
        <ele>253</ele>
        <time>2017-04-05T08:46:48Z</time>
      </trkpt>
      <trkpt lat="45.94718" lon="4.79462">
        <ele>253</ele>
        <time>2017-04-05T08:46:49Z</time>
      </trkpt>
      <trkpt lat="45.94722" lon="4.79469">
        <ele>253</ele>
        <time>2017-04-05T08:46:50Z</time>
      </trkpt>
      <trkpt lat="45.94725" lon="4.79477">
        <ele>253</ele>
        <time>2017-04-05T08:46:51Z</time>
      </trkpt>
      <trkpt lat="45.94728" lon="4.79484">
        <ele>253</ele>
        <time>2017-04-05T08:46:52Z</time>
      </trkpt>
      <trkpt lat="45.94731" lon="4.7949">
        <ele>253</ele>
        <time>2017-04-05T08:46:53Z</time>
      </trkpt>
      <trkpt lat="45.94734" lon="4.79497">
        <ele>252</ele>
        <time>2017-04-05T08:46:54Z</time>
      </trkpt>
      <trkpt lat="45.94737" lon="4.79505">
        <ele>252</ele>
        <time>2017-04-05T08:46:55Z</time>
      </trkpt>
      <trkpt lat="45.9474" lon="4.79512">
        <ele>252</ele>
        <time>2017-04-05T08:46:56Z</time>
      </trkpt>
      <trkpt lat="45.94743" lon="4.79519">
        <ele>253</ele>
        <time>2017-04-05T08:46:57Z</time>
      </trkpt>
      <trkpt lat="45.94746" lon="4.79526">
        <ele>253</ele>
        <time>2017-04-05T08:46:58Z</time>
      </trkpt>
      <trkpt lat="45.94748" lon="4.79532">
        <ele>253</ele>
        <time>2017-04-05T08:46:59Z</time>
      </trkpt>
      <trkpt lat="45.9475" lon="4.79538">
        <ele>253</ele>
        <time>2017-04-05T08:47:00Z</time>
      </trkpt>
      <trkpt lat="45.94752" lon="4.79544">
        <ele>252</ele>
        <time>2017-04-05T08:47:01Z</time>
      </trkpt>
      <trkpt lat="45.94756" lon="4.79555">
        <ele>252</ele>
        <time>2017-04-05T08:47:03Z</time>
      </trkpt>
      <trkpt lat="45.94758" lon="4.7956">
        <ele>252</ele>
        <time>2017-04-05T08:47:04Z</time>
      </trkpt>
      <trkpt lat="45.94757" lon="4.79572">
        <ele>252</ele>
        <time>2017-04-05T08:47:06Z</time>
      </trkpt>
      <trkpt lat="45.94757" lon="4.79578">
        <ele>252</ele>
        <time>2017-04-05T08:47:07Z</time>
      </trkpt>
      <trkpt lat="45.94757" lon="4.7959">
        <ele>252</ele>
        <time>2017-04-05T08:47:09Z</time>
      </trkpt>
      <trkpt lat="45.94758" lon="4.79595">
        <ele>253</ele>
        <time>2017-04-05T08:47:10Z</time>
      </trkpt>
      <trkpt lat="45.9476" lon="4.79607">
        <ele>253</ele>
        <time>2017-04-05T08:47:12Z</time>
      </trkpt>
      <trkpt lat="45.94762" lon="4.79613">
        <ele>253</ele>
        <time>2017-04-05T08:47:13Z</time>
      </trkpt>
      <trkpt lat="45.94765" lon="4.79625">
        <ele>253</ele>
        <time>2017-04-05T08:47:15Z</time>
      </trkpt>
      <trkpt lat="45.94766" lon="4.7963">
        <ele>253</ele>
        <time>2017-04-05T08:47:16Z</time>
      </trkpt>
      <trkpt lat="45.94769" lon="4.79642">
        <ele>254</ele>
        <time>2017-04-05T08:47:18Z</time>
      </trkpt>
      <trkpt lat="45.94771" lon="4.79648">
        <ele>254</ele>
        <time>2017-04-05T08:47:19Z</time>
      </trkpt>
      <trkpt lat="45.94773" lon="4.7966">
        <ele>254</ele>
        <time>2017-04-05T08:47:21Z</time>
      </trkpt>
      <trkpt lat="45.94776" lon="4.79666">
        <ele>254</ele>
        <time>2017-04-05T08:47:22Z</time>
      </trkpt>
      <trkpt lat="45.94778" lon="4.79673">
        <ele>254</ele>
        <time>2017-04-05T08:47:23Z</time>
      </trkpt>
      <trkpt lat="45.94782" lon="4.79679">
        <ele>254</ele>
        <time>2017-04-05T08:47:24Z</time>
      </trkpt>
      <trkpt lat="45.94784" lon="4.79686">
        <ele>254</ele>
        <time>2017-04-05T08:47:25Z</time>
      </trkpt>
      <trkpt lat="45.94787" lon="4.79692">
        <ele>254</ele>
        <time>2017-04-05T08:47:26Z</time>
      </trkpt>
      <trkpt lat="45.9479" lon="4.79704">
        <ele>254</ele>
        <time>2017-04-05T08:47:28Z</time>
      </trkpt>
      <trkpt lat="45.94791" lon="4.79709">
        <ele>254</ele>
        <time>2017-04-05T08:47:29Z</time>
      </trkpt>
      <trkpt lat="45.94795" lon="4.7972">
        <ele>254</ele>
        <time>2017-04-05T08:47:31Z</time>
      </trkpt>
      <trkpt lat="45.94797" lon="4.79726">
        <ele>254</ele>
        <time>2017-04-05T08:47:32Z</time>
      </trkpt>
      <trkpt lat="45.94799" lon="4.79733">
        <ele>254</ele>
        <time>2017-04-05T08:47:33Z</time>
      </trkpt>
      <trkpt lat="45.948" lon="4.79739">
        <ele>254</ele>
        <time>2017-04-05T08:47:34Z</time>
      </trkpt>
      <trkpt lat="45.94802" lon="4.79746">
        <ele>254</ele>
        <time>2017-04-05T08:47:35Z</time>
      </trkpt>
      <trkpt lat="45.94804" lon="4.79753">
        <ele>254</ele>
        <time>2017-04-05T08:47:36Z</time>
      </trkpt>
      <trkpt lat="45.94806" lon="4.7976">
        <ele>254</ele>
        <time>2017-04-05T08:47:37Z</time>
      </trkpt>
      <trkpt lat="45.94808" lon="4.79766">
        <ele>254</ele>
        <time>2017-04-05T08:47:38Z</time>
      </trkpt>
      <trkpt lat="45.9481" lon="4.79773">
        <ele>254</ele>
        <time>2017-04-05T08:47:39Z</time>
      </trkpt>
      <trkpt lat="45.94812" lon="4.7978">
        <ele>254</ele>
        <time>2017-04-05T08:47:40Z</time>
      </trkpt>
      <trkpt lat="45.94814" lon="4.79787">
        <ele>254</ele>
        <time>2017-04-05T08:47:41Z</time>
      </trkpt>
      <trkpt lat="45.94815" lon="4.79793">
        <ele>254</ele>
        <time>2017-04-05T08:47:42Z</time>
      </trkpt>
      <trkpt lat="45.94816" lon="4.79799">
        <ele>254</ele>
        <time>2017-04-05T08:47:43Z</time>
      </trkpt>
      <trkpt lat="45.94818" lon="4.79806">
        <ele>254</ele>
        <time>2017-04-05T08:47:44Z</time>
      </trkpt>
      <trkpt lat="45.94819" lon="4.79812">
        <ele>254</ele>
        <time>2017-04-05T08:47:45Z</time>
      </trkpt>
      <trkpt lat="45.94821" lon="4.79818">
        <ele>254</ele>
        <time>2017-04-05T08:47:46Z</time>
      </trkpt>
      <trkpt lat="45.94822" lon="4.79825">
        <ele>254</ele>
        <time>2017-04-05T08:47:47Z</time>
      </trkpt>
      <trkpt lat="45.94823" lon="4.79831">
        <ele>254</ele>
        <time>2017-04-05T08:47:48Z</time>
      </trkpt>
      <trkpt lat="45.94825" lon="4.79843">
        <ele>254</ele>
        <time>2017-04-05T08:47:50Z</time>
      </trkpt>
      <trkpt lat="45.94827" lon="4.79849">
        <ele>254</ele>
        <time>2017-04-05T08:47:51Z</time>
      </trkpt>
      <trkpt lat="45.94829" lon="4.79856">
        <ele>255</ele>
        <time>2017-04-05T08:47:52Z</time>
      </trkpt>
      <trkpt lat="45.94831" lon="4.79862">
        <ele>255</ele>
        <time>2017-04-05T08:47:53Z</time>
      </trkpt>
      <trkpt lat="45.94833" lon="4.79869">
        <ele>255</ele>
        <time>2017-04-05T08:47:54Z</time>
      </trkpt>
      <trkpt lat="45.94834" lon="4.79875">
        <ele>255</ele>
        <time>2017-04-05T08:47:55Z</time>
      </trkpt>
      <trkpt lat="45.94837" lon="4.79885">
        <ele>255</ele>
        <time>2017-04-05T08:47:57Z</time>
      </trkpt>
      <trkpt lat="45.94839" lon="4.79891">
        <ele>255</ele>
        <time>2017-04-05T08:47:58Z</time>
      </trkpt>
      <trkpt lat="45.94843" lon="4.79901">
        <ele>255</ele>
        <time>2017-04-05T08:48:00Z</time>
      </trkpt>
      <trkpt lat="45.94844" lon="4.79906">
        <ele>256</ele>
        <time>2017-04-05T08:48:01Z</time>
      </trkpt>
      <trkpt lat="45.94848" lon="4.79916">
        <ele>256</ele>
        <time>2017-04-05T08:48:03Z</time>
      </trkpt>
      <trkpt lat="45.9485" lon="4.79921">
        <ele>256</ele>
        <time>2017-04-05T08:48:04Z</time>
      </trkpt>
      <trkpt lat="45.94854" lon="4.79931">
        <ele>256</ele>
        <time>2017-04-05T08:48:06Z</time>
      </trkpt>
      <trkpt lat="45.94857" lon="4.79937">
        <ele>256</ele>
        <time>2017-04-05T08:48:07Z</time>
      </trkpt>
      <trkpt lat="45.94862" lon="4.79947">
        <ele>256</ele>
        <time>2017-04-05T08:48:09Z</time>
      </trkpt>
      <trkpt lat="45.94864" lon="4.79952">
        <ele>256</ele>
        <time>2017-04-05T08:48:10Z</time>
      </trkpt>
      <trkpt lat="45.94868" lon="4.79962">
        <ele>256</ele>
        <time>2017-04-05T08:48:12Z</time>
      </trkpt>
      <trkpt lat="45.94871" lon="4.79968">
        <ele>256</ele>
        <time>2017-04-05T08:48:13Z</time>
      </trkpt>
      <trkpt lat="45.94875" lon="4.79979">
        <ele>256</ele>
        <time>2017-04-05T08:48:15Z</time>
      </trkpt>
      <trkpt lat="45.94877" lon="4.79984">
        <ele>256</ele>
        <time>2017-04-05T08:48:16Z</time>
      </trkpt>
      <trkpt lat="45.9488" lon="4.79989">
        <ele>256</ele>
        <time>2017-04-05T08:48:17Z</time>
      </trkpt>
      <trkpt lat="45.94882" lon="4.79995">
        <ele>256</ele>
        <time>2017-04-05T08:48:18Z</time>
      </trkpt>
      <trkpt lat="45.94887" lon="4.80006">
        <ele>256</ele>
        <time>2017-04-05T08:48:20Z</time>
      </trkpt>
      <trkpt lat="45.94889" lon="4.80012">
        <ele>256</ele>
        <time>2017-04-05T08:48:21Z</time>
      </trkpt>
      <trkpt lat="45.94891" lon="4.80018">
        <ele>256</ele>
        <time>2017-04-05T08:48:22Z</time>
      </trkpt>
      <trkpt lat="45.94893" lon="4.80024">
        <ele>256</ele>
        <time>2017-04-05T08:48:23Z</time>
      </trkpt>
      <trkpt lat="45.94894" lon="4.8003">
        <ele>256</ele>
        <time>2017-04-05T08:48:24Z</time>
      </trkpt>
      <trkpt lat="45.94896" lon="4.80036">
        <ele>256</ele>
        <time>2017-04-05T08:48:25Z</time>
      </trkpt>
      <trkpt lat="45.94898" lon="4.80042">
        <ele>256</ele>
        <time>2017-04-05T08:48:26Z</time>
      </trkpt>
      <trkpt lat="45.949" lon="4.80049">
        <ele>256</ele>
        <time>2017-04-05T08:48:27Z</time>
      </trkpt>
      <trkpt lat="45.94902" lon="4.80055">
        <ele>256</ele>
        <time>2017-04-05T08:48:28Z</time>
      </trkpt>
      <trkpt lat="45.94903" lon="4.80061">
        <ele>256</ele>
        <time>2017-04-05T08:48:29Z</time>
      </trkpt>
      <trkpt lat="45.94905" lon="4.80067">
        <ele>256</ele>
        <time>2017-04-05T08:48:30Z</time>
      </trkpt>
      <trkpt lat="45.94906" lon="4.80073">
        <ele>257</ele>
        <time>2017-04-05T08:48:31Z</time>
      </trkpt>
      <trkpt lat="45.94909" lon="4.80085">
        <ele>257</ele>
        <time>2017-04-05T08:48:33Z</time>
      </trkpt>
      <trkpt lat="45.9491" lon="4.80091">
        <ele>257</ele>
        <time>2017-04-05T08:48:34Z</time>
      </trkpt>
      <trkpt lat="45.94912" lon="4.80102">
        <ele>256</ele>
        <time>2017-04-05T08:48:36Z</time>
      </trkpt>
      <trkpt lat="45.94913" lon="4.80108">
        <ele>256</ele>
        <time>2017-04-05T08:48:37Z</time>
      </trkpt>
      <trkpt lat="45.94915" lon="4.8012">
        <ele>256</ele>
        <time>2017-04-05T08:48:39Z</time>
      </trkpt>
      <trkpt lat="45.94915" lon="4.80125">
        <ele>256</ele>
        <time>2017-04-05T08:48:40Z</time>
      </trkpt>
      <trkpt lat="45.94918" lon="4.80137">
        <ele>256</ele>
        <time>2017-04-05T08:48:42Z</time>
      </trkpt>
      <trkpt lat="45.94919" lon="4.80143">
        <ele>256</ele>
        <time>2017-04-05T08:48:43Z</time>
      </trkpt>
      <trkpt lat="45.94921" lon="4.80155">
        <ele>255</ele>
        <time>2017-04-05T08:48:45Z</time>
      </trkpt>
      <trkpt lat="45.94922" lon="4.80161">
        <ele>255</ele>
        <time>2017-04-05T08:48:46Z</time>
      </trkpt>
      <trkpt lat="45.94924" lon="4.80173">
        <ele>255</ele>
        <time>2017-04-05T08:48:48Z</time>
      </trkpt>
      <trkpt lat="45.94925" lon="4.80179">
        <ele>255</ele>
        <time>2017-04-05T08:48:49Z</time>
      </trkpt>
      <trkpt lat="45.94927" lon="4.80191">
        <ele>256</ele>
        <time>2017-04-05T08:48:51Z</time>
      </trkpt>
      <trkpt lat="45.94928" lon="4.80197">
        <ele>256</ele>
        <time>2017-04-05T08:48:52Z</time>
      </trkpt>
      <trkpt lat="45.94929" lon="4.80204">
        <ele>256</ele>
        <time>2017-04-05T08:48:53Z</time>
      </trkpt>
      <trkpt lat="45.9493" lon="4.8021">
        <ele>256</ele>
        <time>2017-04-05T08:48:54Z</time>
      </trkpt>
      <trkpt lat="45.94932" lon="4.80223">
        <ele>256</ele>
        <time>2017-04-05T08:48:56Z</time>
      </trkpt>
      <trkpt lat="45.94932" lon="4.80229">
        <ele>256</ele>
        <time>2017-04-05T08:48:57Z</time>
      </trkpt>
      <trkpt lat="45.94932" lon="4.80242">
        <ele>256</ele>
        <time>2017-04-05T08:48:59Z</time>
      </trkpt>
      <trkpt lat="45.94933" lon="4.80249">
        <ele>257</ele>
        <time>2017-04-05T08:49:00Z</time>
      </trkpt>
      <trkpt lat="45.94934" lon="4.80261">
        <ele>257</ele>
        <time>2017-04-05T08:49:02Z</time>
      </trkpt>
      <trkpt lat="45.94934" lon="4.80267">
        <ele>257</ele>
        <time>2017-04-05T08:49:03Z</time>
      </trkpt>
      <trkpt lat="45.94935" lon="4.80279">
        <ele>257</ele>
        <time>2017-04-05T08:49:05Z</time>
      </trkpt>
      <trkpt lat="45.94936" lon="4.80285">
        <ele>257</ele>
        <time>2017-04-05T08:49:06Z</time>
      </trkpt>
      <trkpt lat="45.94936" lon="4.80291">
        <ele>257</ele>
        <time>2017-04-05T08:49:07Z</time>
      </trkpt>
      <trkpt lat="45.94938" lon="4.80298">
        <ele>257</ele>
        <time>2017-04-05T08:49:08Z</time>
      </trkpt>
      <trkpt lat="45.94939" lon="4.80304">
        <ele>257</ele>
        <time>2017-04-05T08:49:09Z</time>
      </trkpt>
      <trkpt lat="45.9494" lon="4.80311">
        <ele>257</ele>
        <time>2017-04-05T08:49:10Z</time>
      </trkpt>
      <trkpt lat="45.94941" lon="4.80318">
        <ele>257</ele>
        <time>2017-04-05T08:49:11Z</time>
      </trkpt>
      <trkpt lat="45.94941" lon="4.80324">
        <ele>257</ele>
        <time>2017-04-05T08:49:12Z</time>
      </trkpt>
      <trkpt lat="45.94941" lon="4.80335">
        <ele>258</ele>
        <time>2017-04-05T08:49:14Z</time>
      </trkpt>
      <trkpt lat="45.94941" lon="4.80341">
        <ele>258</ele>
        <time>2017-04-05T08:49:15Z</time>
      </trkpt>
      <trkpt lat="45.94941" lon="4.80352">
        <ele>258</ele>
        <time>2017-04-05T08:49:17Z</time>
      </trkpt>
      <trkpt lat="45.9494" lon="4.80358">
        <ele>258</ele>
        <time>2017-04-05T08:49:18Z</time>
      </trkpt>
      <trkpt lat="45.9494" lon="4.80365">
        <ele>258</ele>
        <time>2017-04-05T08:49:19Z</time>
      </trkpt>
      <trkpt lat="45.9494" lon="4.80372">
        <ele>258</ele>
        <time>2017-04-05T08:49:20Z</time>
      </trkpt>
      <trkpt lat="45.9494" lon="4.80379">
        <ele>258</ele>
        <time>2017-04-05T08:49:21Z</time>
      </trkpt>
      <trkpt lat="45.94941" lon="4.80387">
        <ele>258</ele>
        <time>2017-04-05T08:49:22Z</time>
      </trkpt>
      <trkpt lat="45.94941" lon="4.80394">
        <ele>258</ele>
        <time>2017-04-05T08:49:23Z</time>
      </trkpt>
      <trkpt lat="45.94941" lon="4.80401">
        <ele>258</ele>
        <time>2017-04-05T08:49:24Z</time>
      </trkpt>
      <trkpt lat="45.9494" lon="4.80408">
        <ele>259</ele>
        <time>2017-04-05T08:49:25Z</time>
      </trkpt>
      <trkpt lat="45.9494" lon="4.80415">
        <ele>259</ele>
        <time>2017-04-05T08:49:26Z</time>
      </trkpt>
      <trkpt lat="45.94939" lon="4.80422">
        <ele>259</ele>
        <time>2017-04-05T08:49:27Z</time>
      </trkpt>
      <trkpt lat="45.94939" lon="4.80429">
        <ele>259</ele>
        <time>2017-04-05T08:49:28Z</time>
      </trkpt>
      <trkpt lat="45.94939" lon="4.80436">
        <ele>259</ele>
        <time>2017-04-05T08:49:29Z</time>
      </trkpt>
      <trkpt lat="45.94939" lon="4.80443">
        <ele>259</ele>
        <time>2017-04-05T08:49:30Z</time>
      </trkpt>
      <trkpt lat="45.94938" lon="4.80455">
        <ele>259</ele>
        <time>2017-04-05T08:49:32Z</time>
      </trkpt>
      <trkpt lat="45.94938" lon="4.80461">
        <ele>259</ele>
        <time>2017-04-05T08:49:33Z</time>
      </trkpt>
      <trkpt lat="45.94939" lon="4.80468">
        <ele>258</ele>
        <time>2017-04-05T08:49:34Z</time>
      </trkpt>
      <trkpt lat="45.94939" lon="4.80475">
        <ele>258</ele>
        <time>2017-04-05T08:49:35Z</time>
      </trkpt>
      <trkpt lat="45.94939" lon="4.80482">
        <ele>258</ele>
        <time>2017-04-05T08:49:36Z</time>
      </trkpt>
      <trkpt lat="45.94939" lon="4.80488">
        <ele>258</ele>
        <time>2017-04-05T08:49:37Z</time>
      </trkpt>
      <trkpt lat="45.9494" lon="4.80495">
        <ele>258</ele>
        <time>2017-04-05T08:49:38Z</time>
      </trkpt>
      <trkpt lat="45.9494" lon="4.80503">
        <ele>258</ele>
        <time>2017-04-05T08:49:39Z</time>
      </trkpt>
      <trkpt lat="45.94941" lon="4.8051">
        <ele>258</ele>
        <time>2017-04-05T08:49:40Z</time>
      </trkpt>
      <trkpt lat="45.94941" lon="4.80516">
        <ele>258</ele>
        <time>2017-04-05T08:49:41Z</time>
      </trkpt>
      <trkpt lat="45.94941" lon="4.80523">
        <ele>258</ele>
        <time>2017-04-05T08:49:42Z</time>
      </trkpt>
      <trkpt lat="45.94941" lon="4.80529">
        <ele>258</ele>
        <time>2017-04-05T08:49:43Z</time>
      </trkpt>
      <trkpt lat="45.94941" lon="4.80542">
        <ele>258</ele>
        <time>2017-04-05T08:49:45Z</time>
      </trkpt>
      <trkpt lat="45.94941" lon="4.80549">
        <ele>258</ele>
        <time>2017-04-05T08:49:46Z</time>
      </trkpt>
      <trkpt lat="45.94942" lon="4.80555">
        <ele>258</ele>
        <time>2017-04-05T08:49:47Z</time>
      </trkpt>
      <trkpt lat="45.94942" lon="4.80562">
        <ele>257</ele>
        <time>2017-04-05T08:49:48Z</time>
      </trkpt>
      <trkpt lat="45.94942" lon="4.80574">
        <ele>257</ele>
        <time>2017-04-05T08:49:50Z</time>
      </trkpt>
      <trkpt lat="45.94942" lon="4.80581">
        <ele>257</ele>
        <time>2017-04-05T08:49:51Z</time>
      </trkpt>
      <trkpt lat="45.94942" lon="4.80594">
        <ele>258</ele>
        <time>2017-04-05T08:49:53Z</time>
      </trkpt>
      <trkpt lat="45.94942" lon="4.80598">
        <ele>258</ele>
        <time>2017-04-05T08:49:54Z</time>
      </trkpt>
      <trkpt lat="45.94943" lon="4.8061">
        <ele>258</ele>
        <time>2017-04-05T08:49:56Z</time>
      </trkpt>
      <trkpt lat="45.94943" lon="4.80616">
        <ele>258</ele>
        <time>2017-04-05T08:49:57Z</time>
      </trkpt>
      <trkpt lat="45.94944" lon="4.80623">
        <ele>258</ele>
        <time>2017-04-05T08:49:58Z</time>
      </trkpt>
      <trkpt lat="45.94945" lon="4.8063">
        <ele>258</ele>
        <time>2017-04-05T08:49:59Z</time>
      </trkpt>
      <trkpt lat="45.94945" lon="4.80637">
        <ele>258</ele>
        <time>2017-04-05T08:50:00Z</time>
      </trkpt>
      <trkpt lat="45.94946" lon="4.80643">
        <ele>259</ele>
        <time>2017-04-05T08:50:01Z</time>
      </trkpt>
      <trkpt lat="45.94947" lon="4.80656">
        <ele>259</ele>
        <time>2017-04-05T08:50:03Z</time>
      </trkpt>
      <trkpt lat="45.94947" lon="4.80662">
        <ele>259</ele>
        <time>2017-04-05T08:50:04Z</time>
      </trkpt>
      <trkpt lat="45.94948" lon="4.80674">
        <ele>259</ele>
        <time>2017-04-05T08:50:06Z</time>
      </trkpt>
      <trkpt lat="45.94947" lon="4.80681">
        <ele>259</ele>
        <time>2017-04-05T08:50:07Z</time>
      </trkpt>
      <trkpt lat="45.94947" lon="4.80688">
        <ele>259</ele>
        <time>2017-04-05T08:50:08Z</time>
      </trkpt>
      <trkpt lat="45.94947" lon="4.80694">
        <ele>259</ele>
        <time>2017-04-05T08:50:09Z</time>
      </trkpt>
      <trkpt lat="45.94947" lon="4.80701">
        <ele>259</ele>
        <time>2017-04-05T08:50:10Z</time>
      </trkpt>
      <trkpt lat="45.94948" lon="4.80708">
        <ele>259</ele>
        <time>2017-04-05T08:50:11Z</time>
      </trkpt>
      <trkpt lat="45.94948" lon="4.80714">
        <ele>259</ele>
        <time>2017-04-05T08:50:12Z</time>
      </trkpt>
      <trkpt lat="45.94948" lon="4.80721">
        <ele>259</ele>
        <time>2017-04-05T08:50:13Z</time>
      </trkpt>
      <trkpt lat="45.94948" lon="4.80733">
        <ele>259</ele>
        <time>2017-04-05T08:50:15Z</time>
      </trkpt>
      <trkpt lat="45.94948" lon="4.80739">
        <ele>259</ele>
        <time>2017-04-05T08:50:16Z</time>
      </trkpt>
      <trkpt lat="45.94948" lon="4.80745">
        <ele>259</ele>
        <time>2017-04-05T08:50:17Z</time>
      </trkpt>
      <trkpt lat="45.94947" lon="4.80752">
        <ele>259</ele>
        <time>2017-04-05T08:50:18Z</time>
      </trkpt>
      <trkpt lat="45.94946" lon="4.80765">
        <ele>259</ele>
        <time>2017-04-05T08:50:20Z</time>
      </trkpt>
      <trkpt lat="45.94945" lon="4.8077">
        <ele>259</ele>
        <time>2017-04-05T08:50:21Z</time>
      </trkpt>
      <trkpt lat="45.94944" lon="4.80779">
        <ele>259</ele>
        <time>2017-04-05T08:50:23Z</time>
      </trkpt>
      <trkpt lat="45.94943" lon="4.80783">
        <ele>259</ele>
        <time>2017-04-05T08:50:24Z</time>
      </trkpt>
      <trkpt lat="45.94944" lon="4.8079">
        <ele>259</ele>
        <time>2017-04-05T08:50:27Z</time>
      </trkpt>
      <trkpt lat="45.94944" lon="4.80791">
        <ele>259</ele>
        <time>2017-04-05T08:50:28Z</time>
      </trkpt>
      <trkpt lat="45.94943" lon="4.80795">
        <ele>259</ele>
        <time>2017-04-05T08:50:35Z</time>
      </trkpt>
      <trkpt lat="45.94943" lon="4.80798">
        <ele>259</ele>
        <time>2017-04-05T08:50:36Z</time>
      </trkpt>
      <trkpt lat="45.94947" lon="4.80809">
        <ele>258</ele>
        <time>2017-04-05T08:50:40Z</time>
      </trkpt>
      <trkpt lat="45.94949" lon="4.80813">
        <ele>258</ele>
        <time>2017-04-05T08:50:41Z</time>
      </trkpt>
      <trkpt lat="45.94952" lon="4.80825">
        <ele>258</ele>
        <time>2017-04-05T08:50:43Z</time>
      </trkpt>
      <trkpt lat="45.94953" lon="4.80831">
        <ele>258</ele>
        <time>2017-04-05T08:50:44Z</time>
      </trkpt>
      <trkpt lat="45.94955" lon="4.80837">
        <ele>258</ele>
        <time>2017-04-05T08:50:45Z</time>
      </trkpt>
      <trkpt lat="45.94956" lon="4.80844">
        <ele>258</ele>
        <time>2017-04-05T08:50:46Z</time>
      </trkpt>
      <trkpt lat="45.94958" lon="4.80851">
        <ele>258</ele>
        <time>2017-04-05T08:50:47Z</time>
      </trkpt>
      <trkpt lat="45.9496" lon="4.80857">
        <ele>259</ele>
        <time>2017-04-05T08:50:48Z</time>
      </trkpt>
      <trkpt lat="45.94961" lon="4.80864">
        <ele>259</ele>
        <time>2017-04-05T08:50:49Z</time>
      </trkpt>
      <trkpt lat="45.94962" lon="4.80871">
        <ele>259</ele>
        <time>2017-04-05T08:50:50Z</time>
      </trkpt>
      <trkpt lat="45.94963" lon="4.80877">
        <ele>258</ele>
        <time>2017-04-05T08:50:51Z</time>
      </trkpt>
      <trkpt lat="45.94964" lon="4.80883">
        <ele>258</ele>
        <time>2017-04-05T08:50:52Z</time>
      </trkpt>
      <trkpt lat="45.94965" lon="4.8089">
        <ele>258</ele>
        <time>2017-04-05T08:50:53Z</time>
      </trkpt>
      <trkpt lat="45.94966" lon="4.80896">
        <ele>258</ele>
        <time>2017-04-05T08:50:54Z</time>
      </trkpt>
      <trkpt lat="45.94968" lon="4.80902">
        <ele>258</ele>
        <time>2017-04-05T08:50:55Z</time>
      </trkpt>
      <trkpt lat="45.9497" lon="4.8091">
        <ele>258</ele>
        <time>2017-04-05T08:50:56Z</time>
      </trkpt>
      <trkpt lat="45.94971" lon="4.80916">
        <ele>258</ele>
        <time>2017-04-05T08:50:57Z</time>
      </trkpt>
      <trkpt lat="45.94972" lon="4.80923">
        <ele>258</ele>
        <time>2017-04-05T08:50:58Z</time>
      </trkpt>
      <trkpt lat="45.94973" lon="4.80929">
        <ele>258</ele>
        <time>2017-04-05T08:50:59Z</time>
      </trkpt>
      <trkpt lat="45.94974" lon="4.80936">
        <ele>258</ele>
        <time>2017-04-05T08:51:00Z</time>
      </trkpt>
      <trkpt lat="45.94976" lon="4.80944">
        <ele>258</ele>
        <time>2017-04-05T08:51:01Z</time>
      </trkpt>
      <trkpt lat="45.94977" lon="4.80951">
        <ele>258</ele>
        <time>2017-04-05T08:51:02Z</time>
      </trkpt>
      <trkpt lat="45.94978" lon="4.80958">
        <ele>258</ele>
        <time>2017-04-05T08:51:03Z</time>
      </trkpt>
      <trkpt lat="45.94979" lon="4.80965">
        <ele>258</ele>
        <time>2017-04-05T08:51:04Z</time>
      </trkpt>
      <trkpt lat="45.9498" lon="4.80971">
        <ele>258</ele>
        <time>2017-04-05T08:51:05Z</time>
      </trkpt>
      <trkpt lat="45.9498" lon="4.80977">
        <ele>258</ele>
        <time>2017-04-05T08:51:06Z</time>
      </trkpt>
      <trkpt lat="45.94981" lon="4.80984">
        <ele>258</ele>
        <time>2017-04-05T08:51:07Z</time>
      </trkpt>
      <trkpt lat="45.94981" lon="4.80991">
        <ele>258</ele>
        <time>2017-04-05T08:51:08Z</time>
      </trkpt>
      <trkpt lat="45.94982" lon="4.80999">
        <ele>258</ele>
        <time>2017-04-05T08:51:09Z</time>
      </trkpt>
      <trkpt lat="45.94983" lon="4.81007">
        <ele>257</ele>
        <time>2017-04-05T08:51:10Z</time>
      </trkpt>
      <trkpt lat="45.94983" lon="4.81015">
        <ele>257</ele>
        <time>2017-04-05T08:51:11Z</time>
      </trkpt>
      <trkpt lat="45.94984" lon="4.81022">
        <ele>257</ele>
        <time>2017-04-05T08:51:12Z</time>
      </trkpt>
      <trkpt lat="45.94984" lon="4.81029">
        <ele>257</ele>
        <time>2017-04-05T08:51:13Z</time>
      </trkpt>
      <trkpt lat="45.94985" lon="4.81036">
        <ele>257</ele>
        <time>2017-04-05T08:51:14Z</time>
      </trkpt>
      <trkpt lat="45.94985" lon="4.81043">
        <ele>257</ele>
        <time>2017-04-05T08:51:15Z</time>
      </trkpt>
      <trkpt lat="45.94985" lon="4.8105">
        <ele>257</ele>
        <time>2017-04-05T08:51:16Z</time>
      </trkpt>
      <trkpt lat="45.94986" lon="4.81057">
        <ele>257</ele>
        <time>2017-04-05T08:51:17Z</time>
      </trkpt>
      <trkpt lat="45.94986" lon="4.81063">
        <ele>257</ele>
        <time>2017-04-05T08:51:18Z</time>
      </trkpt>
      <trkpt lat="45.94986" lon="4.81076">
        <ele>257</ele>
        <time>2017-04-05T08:51:20Z</time>
      </trkpt>
      <trkpt lat="45.94987" lon="4.81082">
        <ele>257</ele>
        <time>2017-04-05T08:51:21Z</time>
      </trkpt>
      <trkpt lat="45.94987" lon="4.81089">
        <ele>257</ele>
        <time>2017-04-05T08:51:22Z</time>
      </trkpt>
      <trkpt lat="45.94988" lon="4.81096">
        <ele>257</ele>
        <time>2017-04-05T08:51:23Z</time>
      </trkpt>
      <trkpt lat="45.94989" lon="4.81103">
        <ele>257</ele>
        <time>2017-04-05T08:51:24Z</time>
      </trkpt>
      <trkpt lat="45.94989" lon="4.81111">
        <ele>257</ele>
        <time>2017-04-05T08:51:25Z</time>
      </trkpt>
      <trkpt lat="45.9499" lon="4.81119">
        <ele>257</ele>
        <time>2017-04-05T08:51:26Z</time>
      </trkpt>
      <trkpt lat="45.94991" lon="4.81127">
        <ele>256</ele>
        <time>2017-04-05T08:51:27Z</time>
      </trkpt>
      <trkpt lat="45.94992" lon="4.81134">
        <ele>256</ele>
        <time>2017-04-05T08:51:28Z</time>
      </trkpt>
      <trkpt lat="45.94994" lon="4.81142">
        <ele>256</ele>
        <time>2017-04-05T08:51:29Z</time>
      </trkpt>
      <trkpt lat="45.94995" lon="4.8115">
        <ele>256</ele>
        <time>2017-04-05T08:51:30Z</time>
      </trkpt>
      <trkpt lat="45.94996" lon="4.81159">
        <ele>256</ele>
        <time>2017-04-05T08:51:31Z</time>
      </trkpt>
      <trkpt lat="45.94997" lon="4.81166">
        <ele>256</ele>
        <time>2017-04-05T08:51:32Z</time>
      </trkpt>
      <trkpt lat="45.94998" lon="4.81174">
        <ele>256</ele>
        <time>2017-04-05T08:51:33Z</time>
      </trkpt>
      <trkpt lat="45.94998" lon="4.81181">
        <ele>256</ele>
        <time>2017-04-05T08:51:34Z</time>
      </trkpt>
      <trkpt lat="45.94999" lon="4.81188">
        <ele>256</ele>
        <time>2017-04-05T08:51:35Z</time>
      </trkpt>
      <trkpt lat="45.95" lon="4.81196">
        <ele>256</ele>
        <time>2017-04-05T08:51:36Z</time>
      </trkpt>
      <trkpt lat="45.95001" lon="4.81203">
        <ele>256</ele>
        <time>2017-04-05T08:51:37Z</time>
      </trkpt>
      <trkpt lat="45.95002" lon="4.81211">
        <ele>256</ele>
        <time>2017-04-05T08:51:38Z</time>
      </trkpt>
      <trkpt lat="45.95003" lon="4.81218">
        <ele>256</ele>
        <time>2017-04-05T08:51:39Z</time>
      </trkpt>
      <trkpt lat="45.95004" lon="4.81225">
        <ele>256</ele>
        <time>2017-04-05T08:51:40Z</time>
      </trkpt>
      <trkpt lat="45.95005" lon="4.81232">
        <ele>256</ele>
        <time>2017-04-05T08:51:41Z</time>
      </trkpt>
      <trkpt lat="45.95005" lon="4.81239">
        <ele>256</ele>
        <time>2017-04-05T08:51:42Z</time>
      </trkpt>
      <trkpt lat="45.95006" lon="4.81246">
        <ele>256</ele>
        <time>2017-04-05T08:51:43Z</time>
      </trkpt>
      <trkpt lat="45.95007" lon="4.81253">
        <ele>256</ele>
        <time>2017-04-05T08:51:44Z</time>
      </trkpt>
      <trkpt lat="45.95008" lon="4.8126">
        <ele>256</ele>
        <time>2017-04-05T08:51:45Z</time>
      </trkpt>
      <trkpt lat="45.95009" lon="4.81266">
        <ele>256</ele>
        <time>2017-04-05T08:51:46Z</time>
      </trkpt>
      <trkpt lat="45.9501" lon="4.81273">
        <ele>255</ele>
        <time>2017-04-05T08:51:47Z</time>
      </trkpt>
      <trkpt lat="45.95012" lon="4.8128">
        <ele>255</ele>
        <time>2017-04-05T08:51:48Z</time>
      </trkpt>
      <trkpt lat="45.95013" lon="4.81287">
        <ele>255</ele>
        <time>2017-04-05T08:51:49Z</time>
      </trkpt>
      <trkpt lat="45.95015" lon="4.81294">
        <ele>255</ele>
        <time>2017-04-05T08:51:50Z</time>
      </trkpt>
      <trkpt lat="45.95017" lon="4.81302">
        <ele>255</ele>
        <time>2017-04-05T08:51:51Z</time>
      </trkpt>
      <trkpt lat="45.95019" lon="4.81309">
        <ele>255</ele>
        <time>2017-04-05T08:51:52Z</time>
      </trkpt>
      <trkpt lat="45.95021" lon="4.81317">
        <ele>255</ele>
        <time>2017-04-05T08:51:53Z</time>
      </trkpt>
      <trkpt lat="45.95023" lon="4.81325">
        <ele>255</ele>
        <time>2017-04-05T08:51:54Z</time>
      </trkpt>
      <trkpt lat="45.95025" lon="4.81333">
        <ele>255</ele>
        <time>2017-04-05T08:51:55Z</time>
      </trkpt>
      <trkpt lat="45.95027" lon="4.8134">
        <ele>254</ele>
        <time>2017-04-05T08:51:56Z</time>
      </trkpt>
      <trkpt lat="45.95029" lon="4.81348">
        <ele>254</ele>
        <time>2017-04-05T08:51:57Z</time>
      </trkpt>
      <trkpt lat="45.95032" lon="4.81356">
        <ele>254</ele>
        <time>2017-04-05T08:51:58Z</time>
      </trkpt>
      <trkpt lat="45.95034" lon="4.81364">
        <ele>254</ele>
        <time>2017-04-05T08:51:59Z</time>
      </trkpt>
      <trkpt lat="45.95037" lon="4.81372">
        <ele>254</ele>
        <time>2017-04-05T08:52:00Z</time>
      </trkpt>
      <trkpt lat="45.95039" lon="4.8138">
        <ele>254</ele>
        <time>2017-04-05T08:52:01Z</time>
      </trkpt>
      <trkpt lat="45.95042" lon="4.81388">
        <ele>254</ele>
        <time>2017-04-05T08:52:02Z</time>
      </trkpt>
      <trkpt lat="45.95045" lon="4.81396">
        <ele>253</ele>
        <time>2017-04-05T08:52:03Z</time>
      </trkpt>
      <trkpt lat="45.95048" lon="4.81405">
        <ele>253</ele>
        <time>2017-04-05T08:52:04Z</time>
      </trkpt>
      <trkpt lat="45.95051" lon="4.81413">
        <ele>253</ele>
        <time>2017-04-05T08:52:05Z</time>
      </trkpt>
      <trkpt lat="45.95054" lon="4.81421">
        <ele>253</ele>
        <time>2017-04-05T08:52:06Z</time>
      </trkpt>
      <trkpt lat="45.95058" lon="4.81429">
        <ele>253</ele>
        <time>2017-04-05T08:52:07Z</time>
      </trkpt>
      <trkpt lat="45.95061" lon="4.81437">
        <ele>253</ele>
        <time>2017-04-05T08:52:08Z</time>
      </trkpt>
      <trkpt lat="45.95065" lon="4.81445">
        <ele>253</ele>
        <time>2017-04-05T08:52:09Z</time>
      </trkpt>
      <trkpt lat="45.95068" lon="4.81453">
        <ele>253</ele>
        <time>2017-04-05T08:52:10Z</time>
      </trkpt>
      <trkpt lat="45.95071" lon="4.81461">
        <ele>253</ele>
        <time>2017-04-05T08:52:11Z</time>
      </trkpt>
      <trkpt lat="45.95074" lon="4.81469">
        <ele>253</ele>
        <time>2017-04-05T08:52:12Z</time>
      </trkpt>
      <trkpt lat="45.95076" lon="4.81476">
        <ele>253</ele>
        <time>2017-04-05T08:52:13Z</time>
      </trkpt>
      <trkpt lat="45.95079" lon="4.81484">
        <ele>253</ele>
        <time>2017-04-05T08:52:14Z</time>
      </trkpt>
      <trkpt lat="45.95083" lon="4.81492">
        <ele>252</ele>
        <time>2017-04-05T08:52:15Z</time>
      </trkpt>
      <trkpt lat="45.95085" lon="4.81499">
        <ele>252</ele>
        <time>2017-04-05T08:52:16Z</time>
      </trkpt>
      <trkpt lat="45.95088" lon="4.81506">
        <ele>252</ele>
        <time>2017-04-05T08:52:17Z</time>
      </trkpt>
      <trkpt lat="45.9509" lon="4.81514">
        <ele>252</ele>
        <time>2017-04-05T08:52:18Z</time>
      </trkpt>
      <trkpt lat="45.95093" lon="4.81522">
        <ele>251</ele>
        <time>2017-04-05T08:52:19Z</time>
      </trkpt>
      <trkpt lat="45.95095" lon="4.81529">
        <ele>251</ele>
        <time>2017-04-05T08:52:20Z</time>
      </trkpt>
      <trkpt lat="45.95098" lon="4.81537">
        <ele>251</ele>
        <time>2017-04-05T08:52:21Z</time>
      </trkpt>
      <trkpt lat="45.951" lon="4.81544">
        <ele>251</ele>
        <time>2017-04-05T08:52:22Z</time>
      </trkpt>
      <trkpt lat="45.95103" lon="4.81552">
        <ele>251</ele>
        <time>2017-04-05T08:52:23Z</time>
      </trkpt>
      <trkpt lat="45.95106" lon="4.81559">
        <ele>251</ele>
        <time>2017-04-05T08:52:24Z</time>
      </trkpt>
      <trkpt lat="45.95108" lon="4.81565">
        <ele>251</ele>
        <time>2017-04-05T08:52:25Z</time>
      </trkpt>
      <trkpt lat="45.9511" lon="4.81571">
        <ele>251</ele>
        <time>2017-04-05T08:52:26Z</time>
      </trkpt>
      <trkpt lat="45.95113" lon="4.81577">
        <ele>251</ele>
        <time>2017-04-05T08:52:27Z</time>
      </trkpt>
      <trkpt lat="45.95117" lon="4.81588">
        <ele>252</ele>
        <time>2017-04-05T08:52:29Z</time>
      </trkpt>
      <trkpt lat="45.95118" lon="4.81593">
        <ele>252</ele>
        <time>2017-04-05T08:52:30Z</time>
      </trkpt>
      <trkpt lat="45.9512" lon="4.81605">
        <ele>252</ele>
        <time>2017-04-05T08:52:32Z</time>
      </trkpt>
      <trkpt lat="45.95122" lon="4.81611">
        <ele>252</ele>
        <time>2017-04-05T08:52:33Z</time>
      </trkpt>
      <trkpt lat="45.95126" lon="4.81621">
        <ele>252</ele>
        <time>2017-04-05T08:52:35Z</time>
      </trkpt>
      <trkpt lat="45.95128" lon="4.81627">
        <ele>253</ele>
        <time>2017-04-05T08:52:36Z</time>
      </trkpt>
      <trkpt lat="45.95131" lon="4.81638">
        <ele>253</ele>
        <time>2017-04-05T08:52:38Z</time>
      </trkpt>
      <trkpt lat="45.95132" lon="4.81644">
        <ele>253</ele>
        <time>2017-04-05T08:52:39Z</time>
      </trkpt>
      <trkpt lat="45.95135" lon="4.81656">
        <ele>253</ele>
        <time>2017-04-05T08:52:41Z</time>
      </trkpt>
      <trkpt lat="45.95136" lon="4.81661">
        <ele>253</ele>
        <time>2017-04-05T08:52:42Z</time>
      </trkpt>
      <trkpt lat="45.95139" lon="4.81667">
        <ele>255</ele>
        <time>2017-04-05T08:52:43Z</time>
      </trkpt>
      <trkpt lat="45.95141" lon="4.81673">
        <ele>255</ele>
        <time>2017-04-05T08:52:44Z</time>
      </trkpt>
      <trkpt lat="45.95144" lon="4.81684">
        <ele>255</ele>
        <time>2017-04-05T08:52:46Z</time>
      </trkpt>
      <trkpt lat="45.95145" lon="4.81689">
        <ele>255</ele>
        <time>2017-04-05T08:52:47Z</time>
      </trkpt>
      <trkpt lat="45.95149" lon="4.81698">
        <ele>255</ele>
        <time>2017-04-05T08:52:49Z</time>
      </trkpt>
      <trkpt lat="45.95151" lon="4.81703">
        <ele>255</ele>
        <time>2017-04-05T08:52:50Z</time>
      </trkpt>
      <trkpt lat="45.95154" lon="4.81713">
        <ele>256</ele>
        <time>2017-04-05T08:52:52Z</time>
      </trkpt>
      <trkpt lat="45.95156" lon="4.81718">
        <ele>256</ele>
        <time>2017-04-05T08:52:53Z</time>
      </trkpt>
      <trkpt lat="45.9516" lon="4.81727">
        <ele>256</ele>
        <time>2017-04-05T08:52:55Z</time>
      </trkpt>
      <trkpt lat="45.95162" lon="4.81731">
        <ele>256</ele>
        <time>2017-04-05T08:52:56Z</time>
      </trkpt>
      <trkpt lat="45.95167" lon="4.81739">
        <ele>257</ele>
        <time>2017-04-05T08:52:58Z</time>
      </trkpt>
      <trkpt lat="45.95169" lon="4.81744">
        <ele>258</ele>
        <time>2017-04-05T08:52:59Z</time>
      </trkpt>
      <trkpt lat="45.95175" lon="4.81753">
        <ele>258</ele>
        <time>2017-04-05T08:53:01Z</time>
      </trkpt>
      <trkpt lat="45.95178" lon="4.81758">
        <ele>258</ele>
        <time>2017-04-05T08:53:02Z</time>
      </trkpt>
      <trkpt lat="45.95183" lon="4.81766">
        <ele>258</ele>
        <time>2017-04-05T08:53:04Z</time>
      </trkpt>
      <trkpt lat="45.95186" lon="4.8177">
        <ele>258</ele>
        <time>2017-04-05T08:53:05Z</time>
      </trkpt>
      <trkpt lat="45.95192" lon="4.81778">
        <ele>258</ele>
        <time>2017-04-05T08:53:07Z</time>
      </trkpt>
      <trkpt lat="45.95195" lon="4.81782">
        <ele>258</ele>
        <time>2017-04-05T08:53:08Z</time>
      </trkpt>
      <trkpt lat="45.952" lon="4.81789">
        <ele>259</ele>
        <time>2017-04-05T08:53:10Z</time>
      </trkpt>
      <trkpt lat="45.95203" lon="4.81793">
        <ele>259</ele>
        <time>2017-04-05T08:53:11Z</time>
      </trkpt>
      <trkpt lat="45.95207" lon="4.818">
        <ele>259</ele>
        <time>2017-04-05T08:53:13Z</time>
      </trkpt>
      <trkpt lat="45.95209" lon="4.81803">
        <ele>259</ele>
        <time>2017-04-05T08:53:14Z</time>
      </trkpt>
      <trkpt lat="45.95214" lon="4.81809">
        <ele>259</ele>
        <time>2017-04-05T08:53:16Z</time>
      </trkpt>
      <trkpt lat="45.95216" lon="4.81813">
        <ele>259</ele>
        <time>2017-04-05T08:53:17Z</time>
      </trkpt>
      <trkpt lat="45.95221" lon="4.8182">
        <ele>259</ele>
        <time>2017-04-05T08:53:19Z</time>
      </trkpt>
      <trkpt lat="45.95223" lon="4.81824">
        <ele>259</ele>
        <time>2017-04-05T08:53:20Z</time>
      </trkpt>
      <trkpt lat="45.95228" lon="4.8183">
        <ele>259</ele>
        <time>2017-04-05T08:53:22Z</time>
      </trkpt>
      <trkpt lat="45.9523" lon="4.81833">
        <ele>259</ele>
        <time>2017-04-05T08:53:23Z</time>
      </trkpt>
      <trkpt lat="45.95233" lon="4.81839">
        <ele>260</ele>
        <time>2017-04-05T08:53:25Z</time>
      </trkpt>
      <trkpt lat="45.95236" lon="4.81843">
        <ele>260</ele>
        <time>2017-04-05T08:53:26Z</time>
      </trkpt>
      <trkpt lat="45.9524" lon="4.81849">
        <ele>260</ele>
        <time>2017-04-05T08:53:28Z</time>
      </trkpt>
      <trkpt lat="45.95243" lon="4.81853">
        <ele>260</ele>
        <time>2017-04-05T08:53:29Z</time>
      </trkpt>
      <trkpt lat="45.95248" lon="4.81859">
        <ele>260</ele>
        <time>2017-04-05T08:53:31Z</time>
      </trkpt>
      <trkpt lat="45.9525" lon="4.81863">
        <ele>260</ele>
        <time>2017-04-05T08:53:32Z</time>
      </trkpt>
      <trkpt lat="45.95255" lon="4.8187">
        <ele>260</ele>
        <time>2017-04-05T08:53:34Z</time>
      </trkpt>
      <trkpt lat="45.95258" lon="4.81874">
        <ele>260</ele>
        <time>2017-04-05T08:53:35Z</time>
      </trkpt>
      <trkpt lat="45.95263" lon="4.81882">
        <ele>260</ele>
        <time>2017-04-05T08:53:37Z</time>
      </trkpt>
      <trkpt lat="45.95265" lon="4.81885">
        <ele>260</ele>
        <time>2017-04-05T08:53:38Z</time>
      </trkpt>
      <trkpt lat="45.9527" lon="4.81892">
        <ele>260</ele>
        <time>2017-04-05T08:53:40Z</time>
      </trkpt>
      <trkpt lat="45.95273" lon="4.81896">
        <ele>260</ele>
        <time>2017-04-05T08:53:41Z</time>
      </trkpt>
      <trkpt lat="45.95278" lon="4.81903">
        <ele>260</ele>
        <time>2017-04-05T08:53:43Z</time>
      </trkpt>
      <trkpt lat="45.9528" lon="4.81907">
        <ele>260</ele>
        <time>2017-04-05T08:53:44Z</time>
      </trkpt>
      <trkpt lat="45.95285" lon="4.81914">
        <ele>260</ele>
        <time>2017-04-05T08:53:46Z</time>
      </trkpt>
      <trkpt lat="45.95288" lon="4.81917">
        <ele>261</ele>
        <time>2017-04-05T08:53:47Z</time>
      </trkpt>
      <trkpt lat="45.95293" lon="4.81925">
        <ele>261</ele>
        <time>2017-04-05T08:53:49Z</time>
      </trkpt>
      <trkpt lat="45.95295" lon="4.81928">
        <ele>261</ele>
        <time>2017-04-05T08:53:50Z</time>
      </trkpt>
      <trkpt lat="45.953" lon="4.81935">
        <ele>261</ele>
        <time>2017-04-05T08:53:52Z</time>
      </trkpt>
      <trkpt lat="45.95302" lon="4.81938">
        <ele>261</ele>
        <time>2017-04-05T08:53:53Z</time>
      </trkpt>
      <trkpt lat="45.95308" lon="4.81945">
        <ele>261</ele>
        <time>2017-04-05T08:53:55Z</time>
      </trkpt>
      <trkpt lat="45.95311" lon="4.81948">
        <ele>262</ele>
        <time>2017-04-05T08:53:56Z</time>
      </trkpt>
      <trkpt lat="45.95317" lon="4.81955">
        <ele>262</ele>
        <time>2017-04-05T08:53:58Z</time>
      </trkpt>
      <trkpt lat="45.9532" lon="4.81958">
        <ele>262</ele>
        <time>2017-04-05T08:53:59Z</time>
      </trkpt>
      <trkpt lat="45.95327" lon="4.81964">
        <ele>262</ele>
        <time>2017-04-05T08:54:01Z</time>
      </trkpt>
      <trkpt lat="45.9533" lon="4.81968">
        <ele>262</ele>
        <time>2017-04-05T08:54:02Z</time>
      </trkpt>
      <trkpt lat="45.95337" lon="4.81975">
        <ele>262</ele>
        <time>2017-04-05T08:54:04Z</time>
      </trkpt>
      <trkpt lat="45.9534" lon="4.81979">
        <ele>262</ele>
        <time>2017-04-05T08:54:05Z</time>
      </trkpt>
      <trkpt lat="45.95347" lon="4.81986">
        <ele>262</ele>
        <time>2017-04-05T08:54:07Z</time>
      </trkpt>
      <trkpt lat="45.95351" lon="4.81989">
        <ele>262</ele>
        <time>2017-04-05T08:54:08Z</time>
      </trkpt>
      <trkpt lat="45.95358" lon="4.81996">
        <ele>262</ele>
        <time>2017-04-05T08:54:10Z</time>
      </trkpt>
      <trkpt lat="45.95361" lon="4.82">
        <ele>262</ele>
        <time>2017-04-05T08:54:11Z</time>
      </trkpt>
      <trkpt lat="45.95365" lon="4.82004">
        <ele>262</ele>
        <time>2017-04-05T08:54:12Z</time>
      </trkpt>
      <trkpt lat="45.95369" lon="4.82008">
        <ele>262</ele>
        <time>2017-04-05T08:54:13Z</time>
      </trkpt>
      <trkpt lat="45.95373" lon="4.82012">
        <ele>262</ele>
        <time>2017-04-05T08:54:14Z</time>
      </trkpt>
      <trkpt lat="45.95377" lon="4.82016">
        <ele>262</ele>
        <time>2017-04-05T08:54:15Z</time>
      </trkpt>
      <trkpt lat="45.9538" lon="4.8202">
        <ele>262</ele>
        <time>2017-04-05T08:54:16Z</time>
      </trkpt>
      <trkpt lat="45.95384" lon="4.82024">
        <ele>262</ele>
        <time>2017-04-05T08:54:17Z</time>
      </trkpt>
      <trkpt lat="45.95391" lon="4.82031">
        <ele>261</ele>
        <time>2017-04-05T08:54:19Z</time>
      </trkpt>
      <trkpt lat="45.95395" lon="4.82035">
        <ele>261</ele>
        <time>2017-04-05T08:54:20Z</time>
      </trkpt>
      <trkpt lat="45.95403" lon="4.82041">
        <ele>261</ele>
        <time>2017-04-05T08:54:22Z</time>
      </trkpt>
      <trkpt lat="45.95406" lon="4.82044">
        <ele>261</ele>
        <time>2017-04-05T08:54:23Z</time>
      </trkpt>
      <trkpt lat="45.9541" lon="4.82048">
        <ele>261</ele>
        <time>2017-04-05T08:54:24Z</time>
      </trkpt>
      <trkpt lat="45.95413" lon="4.82052">
        <ele>261</ele>
        <time>2017-04-05T08:54:25Z</time>
      </trkpt>
      <trkpt lat="45.95418" lon="4.82057">
        <ele>260</ele>
        <time>2017-04-05T08:54:26Z</time>
      </trkpt>
      <trkpt lat="45.95422" lon="4.82061">
        <ele>260</ele>
        <time>2017-04-05T08:54:27Z</time>
      </trkpt>
      <trkpt lat="45.95425" lon="4.82066">
        <ele>260</ele>
        <time>2017-04-05T08:54:28Z</time>
      </trkpt>
      <trkpt lat="45.95429" lon="4.8207">
        <ele>260</ele>
        <time>2017-04-05T08:54:29Z</time>
      </trkpt>
      <trkpt lat="45.95434" lon="4.82073">
        <ele>260</ele>
        <time>2017-04-05T08:54:30Z</time>
      </trkpt>
      <trkpt lat="45.95437" lon="4.82077">
        <ele>260</ele>
        <time>2017-04-05T08:54:31Z</time>
      </trkpt>
      <trkpt lat="45.95444" lon="4.82083">
        <ele>260</ele>
        <time>2017-04-05T08:54:33Z</time>
      </trkpt>
      <trkpt lat="45.95447" lon="4.82087">
        <ele>260</ele>
        <time>2017-04-05T08:54:34Z</time>
      </trkpt>
      <trkpt lat="45.95453" lon="4.82094">
        <ele>260</ele>
        <time>2017-04-05T08:54:36Z</time>
      </trkpt>
      <trkpt lat="45.95456" lon="4.82098">
        <ele>260</ele>
        <time>2017-04-05T08:54:37Z</time>
      </trkpt>
      <trkpt lat="45.9546" lon="4.82102">
        <ele>260</ele>
        <time>2017-04-05T08:54:38Z</time>
      </trkpt>
      <trkpt lat="45.95463" lon="4.82106">
        <ele>260</ele>
        <time>2017-04-05T08:54:39Z</time>
      </trkpt>
      <trkpt lat="45.95467" lon="4.8211">
        <ele>260</ele>
        <time>2017-04-05T08:54:40Z</time>
      </trkpt>
      <trkpt lat="45.95471" lon="4.82114">
        <ele>260</ele>
        <time>2017-04-05T08:54:41Z</time>
      </trkpt>
      <trkpt lat="45.95478" lon="4.82121">
        <ele>260</ele>
        <time>2017-04-05T08:54:43Z</time>
      </trkpt>
      <trkpt lat="45.95482" lon="4.82126">
        <ele>260</ele>
        <time>2017-04-05T08:54:44Z</time>
      </trkpt>
      <trkpt lat="45.95486" lon="4.8213">
        <ele>260</ele>
        <time>2017-04-05T08:54:45Z</time>
      </trkpt>
      <trkpt lat="45.95491" lon="4.82135">
        <ele>260</ele>
        <time>2017-04-05T08:54:46Z</time>
      </trkpt>
      <trkpt lat="45.95495" lon="4.82139">
        <ele>260</ele>
        <time>2017-04-05T08:54:47Z</time>
      </trkpt>
      <trkpt lat="45.955" lon="4.82144">
        <ele>260</ele>
        <time>2017-04-05T08:54:48Z</time>
      </trkpt>
      <trkpt lat="45.95504" lon="4.82149">
        <ele>259</ele>
        <time>2017-04-05T08:54:49Z</time>
      </trkpt>
      <trkpt lat="45.95509" lon="4.82153">
        <ele>259</ele>
        <time>2017-04-05T08:54:50Z</time>
      </trkpt>
      <trkpt lat="45.95514" lon="4.82158">
        <ele>259</ele>
        <time>2017-04-05T08:54:51Z</time>
      </trkpt>
      <trkpt lat="45.95518" lon="4.82163">
        <ele>259</ele>
        <time>2017-04-05T08:54:52Z</time>
      </trkpt>
      <trkpt lat="45.95523" lon="4.82167">
        <ele>259</ele>
        <time>2017-04-05T08:54:53Z</time>
      </trkpt>
      <trkpt lat="45.95528" lon="4.82172">
        <ele>259</ele>
        <time>2017-04-05T08:54:54Z</time>
      </trkpt>
      <trkpt lat="45.95532" lon="4.82175">
        <ele>259</ele>
        <time>2017-04-05T08:54:55Z</time>
      </trkpt>
      <trkpt lat="45.95537" lon="4.82179">
        <ele>259</ele>
        <time>2017-04-05T08:54:56Z</time>
      </trkpt>
      <trkpt lat="45.95541" lon="4.82183">
        <ele>259</ele>
        <time>2017-04-05T08:54:57Z</time>
      </trkpt>
      <trkpt lat="45.95545" lon="4.82187">
        <ele>259</ele>
        <time>2017-04-05T08:54:58Z</time>
      </trkpt>
      <trkpt lat="45.95549" lon="4.82191">
        <ele>259</ele>
        <time>2017-04-05T08:54:59Z</time>
      </trkpt>
      <trkpt lat="45.95554" lon="4.82195">
        <ele>259</ele>
        <time>2017-04-05T08:55:00Z</time>
      </trkpt>
      <trkpt lat="45.95559" lon="4.82199">
        <ele>259</ele>
        <time>2017-04-05T08:55:01Z</time>
      </trkpt>
      <trkpt lat="45.95563" lon="4.82202">
        <ele>258</ele>
        <time>2017-04-05T08:55:02Z</time>
      </trkpt>
      <trkpt lat="45.95567" lon="4.82206">
        <ele>258</ele>
        <time>2017-04-05T08:55:03Z</time>
      </trkpt>
      <trkpt lat="45.95572" lon="4.82209">
        <ele>258</ele>
        <time>2017-04-05T08:55:04Z</time>
      </trkpt>
      <trkpt lat="45.95576" lon="4.82213">
        <ele>258</ele>
        <time>2017-04-05T08:55:05Z</time>
      </trkpt>
      <trkpt lat="45.95581" lon="4.82216">
        <ele>258</ele>
        <time>2017-04-05T08:55:06Z</time>
      </trkpt>
      <trkpt lat="45.95586" lon="4.8222">
        <ele>257</ele>
        <time>2017-04-05T08:55:07Z</time>
      </trkpt>
      <trkpt lat="45.95591" lon="4.82223">
        <ele>257</ele>
        <time>2017-04-05T08:55:08Z</time>
      </trkpt>
      <trkpt lat="45.95597" lon="4.82224">
        <ele>257</ele>
        <time>2017-04-05T08:55:09Z</time>
      </trkpt>
      <trkpt lat="45.95602" lon="4.82226">
        <ele>257</ele>
        <time>2017-04-05T08:55:10Z</time>
      </trkpt>
      <trkpt lat="45.95608" lon="4.82226">
        <ele>257</ele>
        <time>2017-04-05T08:55:11Z</time>
      </trkpt>
      <trkpt lat="45.95614" lon="4.82226">
        <ele>257</ele>
        <time>2017-04-05T08:55:12Z</time>
      </trkpt>
      <trkpt lat="45.9562" lon="4.82226">
        <ele>257</ele>
        <time>2017-04-05T08:55:13Z</time>
      </trkpt>
      <trkpt lat="45.95626" lon="4.82226">
        <ele>257</ele>
        <time>2017-04-05T08:55:14Z</time>
      </trkpt>
      <trkpt lat="45.95631" lon="4.82226">
        <ele>257</ele>
        <time>2017-04-05T08:55:15Z</time>
      </trkpt>
      <trkpt lat="45.95637" lon="4.82226">
        <ele>257</ele>
        <time>2017-04-05T08:55:16Z</time>
      </trkpt>
      <trkpt lat="45.95643" lon="4.82227">
        <ele>257</ele>
        <time>2017-04-05T08:55:17Z</time>
      </trkpt>
      <trkpt lat="45.95649" lon="4.82227">
        <ele>257</ele>
        <time>2017-04-05T08:55:18Z</time>
      </trkpt>
      <trkpt lat="45.95655" lon="4.82228">
        <ele>257</ele>
        <time>2017-04-05T08:55:19Z</time>
      </trkpt>
      <trkpt lat="45.95661" lon="4.8223">
        <ele>257</ele>
        <time>2017-04-05T08:55:20Z</time>
      </trkpt>
      <trkpt lat="45.95666" lon="4.82232">
        <ele>257</ele>
        <time>2017-04-05T08:55:21Z</time>
      </trkpt>
      <trkpt lat="45.95671" lon="4.82235">
        <ele>255</ele>
        <time>2017-04-05T08:55:22Z</time>
      </trkpt>
      <trkpt lat="45.95675" lon="4.82238">
        <ele>255</ele>
        <time>2017-04-05T08:55:23Z</time>
      </trkpt>
      <trkpt lat="45.95679" lon="4.82241">
        <ele>255</ele>
        <time>2017-04-05T08:55:24Z</time>
      </trkpt>
      <trkpt lat="45.95683" lon="4.82245">
        <ele>255</ele>
        <time>2017-04-05T08:55:25Z</time>
      </trkpt>
      <trkpt lat="45.95688" lon="4.8225">
        <ele>255</ele>
        <time>2017-04-05T08:55:26Z</time>
      </trkpt>
      <trkpt lat="45.95692" lon="4.82254">
        <ele>255</ele>
        <time>2017-04-05T08:55:27Z</time>
      </trkpt>
      <trkpt lat="45.95695" lon="4.82258">
        <ele>255</ele>
        <time>2017-04-05T08:55:28Z</time>
      </trkpt>
      <trkpt lat="45.95699" lon="4.82262">
        <ele>255</ele>
        <time>2017-04-05T08:55:29Z</time>
      </trkpt>
      <trkpt lat="45.95703" lon="4.82266">
        <ele>255</ele>
        <time>2017-04-05T08:55:30Z</time>
      </trkpt>
      <trkpt lat="45.95706" lon="4.8227">
        <ele>255</ele>
        <time>2017-04-05T08:55:31Z</time>
      </trkpt>
      <trkpt lat="45.9571" lon="4.82274">
        <ele>255</ele>
        <time>2017-04-05T08:55:32Z</time>
      </trkpt>
      <trkpt lat="45.95714" lon="4.82279">
        <ele>255</ele>
        <time>2017-04-05T08:55:33Z</time>
      </trkpt>
      <trkpt lat="45.95718" lon="4.82283">
        <ele>255</ele>
        <time>2017-04-05T08:55:34Z</time>
      </trkpt>
      <trkpt lat="45.95722" lon="4.82287">
        <ele>255</ele>
        <time>2017-04-05T08:55:35Z</time>
      </trkpt>
      <trkpt lat="45.95727" lon="4.82293">
        <ele>255</ele>
        <time>2017-04-05T08:55:36Z</time>
      </trkpt>
      <trkpt lat="45.95732" lon="4.82299">
        <ele>255</ele>
        <time>2017-04-05T08:55:37Z</time>
      </trkpt>
      <trkpt lat="45.95736" lon="4.82303">
        <ele>255</ele>
        <time>2017-04-05T08:55:38Z</time>
      </trkpt>
      <trkpt lat="45.95741" lon="4.82309">
        <ele>255</ele>
        <time>2017-04-05T08:55:39Z</time>
      </trkpt>
      <trkpt lat="45.95746" lon="4.82314">
        <ele>256</ele>
        <time>2017-04-05T08:55:40Z</time>
      </trkpt>
      <trkpt lat="45.95751" lon="4.82318">
        <ele>253</ele>
        <time>2017-04-05T08:55:41Z</time>
      </trkpt>
      <trkpt lat="45.95756" lon="4.82324">
        <ele>254</ele>
        <time>2017-04-05T08:55:42Z</time>
      </trkpt>
      <trkpt lat="45.95761" lon="4.82329">
        <ele>254</ele>
        <time>2017-04-05T08:55:43Z</time>
      </trkpt>
      <trkpt lat="45.95767" lon="4.82335">
        <ele>254</ele>
        <time>2017-04-05T08:55:44Z</time>
      </trkpt>
      <trkpt lat="45.95772" lon="4.8234">
        <ele>254</ele>
        <time>2017-04-05T08:55:45Z</time>
      </trkpt>
      <trkpt lat="45.95779" lon="4.82345">
        <ele>253</ele>
        <time>2017-04-05T08:55:46Z</time>
      </trkpt>
      <trkpt lat="45.95785" lon="4.8235">
        <ele>253</ele>
        <time>2017-04-05T08:55:47Z</time>
      </trkpt>
      <trkpt lat="45.95792" lon="4.82355">
        <ele>252</ele>
        <time>2017-04-05T08:55:48Z</time>
      </trkpt>
      <trkpt lat="45.95798" lon="4.82359">
        <ele>252</ele>
        <time>2017-04-05T08:55:49Z</time>
      </trkpt>
      <trkpt lat="45.95805" lon="4.82362">
        <ele>252</ele>
        <time>2017-04-05T08:55:50Z</time>
      </trkpt>
      <trkpt lat="45.95812" lon="4.82364">
        <ele>252</ele>
        <time>2017-04-05T08:55:51Z</time>
      </trkpt>
      <trkpt lat="45.9582" lon="4.82366">
        <ele>251</ele>
        <time>2017-04-05T08:55:52Z</time>
      </trkpt>
      <trkpt lat="45.95828" lon="4.82368">
        <ele>251</ele>
        <time>2017-04-05T08:55:53Z</time>
      </trkpt>
      <trkpt lat="45.95836" lon="4.82369">
        <ele>246</ele>
        <time>2017-04-05T08:55:54Z</time>
      </trkpt>
      <trkpt lat="45.95844" lon="4.8237">
        <ele>246</ele>
        <time>2017-04-05T08:55:55Z</time>
      </trkpt>
      <trkpt lat="45.95853" lon="4.82371">
        <ele>245</ele>
        <time>2017-04-05T08:55:56Z</time>
      </trkpt>
      <trkpt lat="45.95862" lon="4.82372">
        <ele>245</ele>
        <time>2017-04-05T08:55:57Z</time>
      </trkpt>
      <trkpt lat="45.95871" lon="4.82373">
        <ele>244</ele>
        <time>2017-04-05T08:55:58Z</time>
      </trkpt>
      <trkpt lat="45.9588" lon="4.82372">
        <ele>244</ele>
        <time>2017-04-05T08:55:59Z</time>
      </trkpt>
      <trkpt lat="45.95889" lon="4.82372">
        <ele>243</ele>
        <time>2017-04-05T08:56:00Z</time>
      </trkpt>
      <trkpt lat="45.95898" lon="4.82371">
        <ele>243</ele>
        <time>2017-04-05T08:56:01Z</time>
      </trkpt>
      <trkpt lat="45.95908" lon="4.8237">
        <ele>242</ele>
        <time>2017-04-05T08:56:02Z</time>
      </trkpt>
      <trkpt lat="45.95917" lon="4.82368">
        <ele>238</ele>
        <time>2017-04-05T08:56:03Z</time>
      </trkpt>
      <trkpt lat="45.95927" lon="4.82366">
        <ele>238</ele>
        <time>2017-04-05T08:56:04Z</time>
      </trkpt>
      <trkpt lat="45.95936" lon="4.82364">
        <ele>238</ele>
        <time>2017-04-05T08:56:05Z</time>
      </trkpt>
      <trkpt lat="45.95946" lon="4.82362">
        <ele>237</ele>
        <time>2017-04-05T08:56:06Z</time>
      </trkpt>
      <trkpt lat="45.95956" lon="4.82361">
        <ele>237</ele>
        <time>2017-04-05T08:56:07Z</time>
      </trkpt>
      <trkpt lat="45.95966" lon="4.82359">
        <ele>237</ele>
        <time>2017-04-05T08:56:08Z</time>
      </trkpt>
      <trkpt lat="45.95975" lon="4.82358">
        <ele>237</ele>
        <time>2017-04-05T08:56:09Z</time>
      </trkpt>
      <trkpt lat="45.95984" lon="4.82357">
        <ele>236</ele>
        <time>2017-04-05T08:56:10Z</time>
      </trkpt>
      <trkpt lat="45.95991" lon="4.82356">
        <ele>236</ele>
        <time>2017-04-05T08:56:11Z</time>
      </trkpt>
      <trkpt lat="45.95997" lon="4.82355">
        <ele>236</ele>
        <time>2017-04-05T08:56:12Z</time>
      </trkpt>
      <trkpt lat="45.96002" lon="4.82356">
        <ele>235</ele>
        <time>2017-04-05T08:56:13Z</time>
      </trkpt>
      <trkpt lat="45.96008" lon="4.82357">
        <ele>235</ele>
        <time>2017-04-05T08:56:14Z</time>
      </trkpt>
      <trkpt lat="45.96013" lon="4.8236">
        <ele>235</ele>
        <time>2017-04-05T08:56:15Z</time>
      </trkpt>
      <trkpt lat="45.96017" lon="4.82366">
        <ele>235</ele>
        <time>2017-04-05T08:56:16Z</time>
      </trkpt>
      <trkpt lat="45.9602" lon="4.82373">
        <ele>235</ele>
        <time>2017-04-05T08:56:17Z</time>
      </trkpt>
      <trkpt lat="45.96022" lon="4.82381">
        <ele>235</ele>
        <time>2017-04-05T08:56:18Z</time>
      </trkpt>
      <trkpt lat="45.96022" lon="4.82388">
        <ele>235</ele>
        <time>2017-04-05T08:56:19Z</time>
      </trkpt>
      <trkpt lat="45.96021" lon="4.82396">
        <ele>235</ele>
        <time>2017-04-05T08:56:20Z</time>
      </trkpt>
      <trkpt lat="45.9602" lon="4.82403">
        <ele>235</ele>
        <time>2017-04-05T08:56:21Z</time>
      </trkpt>
      <trkpt lat="45.96018" lon="4.82415">
        <ele>235</ele>
        <time>2017-04-05T08:56:23Z</time>
      </trkpt>
      <trkpt lat="45.96017" lon="4.82422">
        <ele>235</ele>
        <time>2017-04-05T08:56:24Z</time>
      </trkpt>
      <trkpt lat="45.96015" lon="4.82428">
        <ele>235</ele>
        <time>2017-04-05T08:56:25Z</time>
      </trkpt>
      <trkpt lat="45.96015" lon="4.82435">
        <ele>235</ele>
        <time>2017-04-05T08:56:26Z</time>
      </trkpt>
      <trkpt lat="45.96014" lon="4.82442">
        <ele>235</ele>
        <time>2017-04-05T08:56:27Z</time>
      </trkpt>
      <trkpt lat="45.96013" lon="4.82448">
        <ele>235</ele>
        <time>2017-04-05T08:56:28Z</time>
      </trkpt>
      <trkpt lat="45.96012" lon="4.82455">
        <ele>235</ele>
        <time>2017-04-05T08:56:29Z</time>
      </trkpt>
      <trkpt lat="45.96012" lon="4.82462">
        <ele>235</ele>
        <time>2017-04-05T08:56:30Z</time>
      </trkpt>
      <trkpt lat="45.96011" lon="4.82468">
        <ele>235</ele>
        <time>2017-04-05T08:56:31Z</time>
      </trkpt>
      <trkpt lat="45.9601" lon="4.82475">
        <ele>235</ele>
        <time>2017-04-05T08:56:32Z</time>
      </trkpt>
      <trkpt lat="45.9601" lon="4.82482">
        <ele>235</ele>
        <time>2017-04-05T08:56:33Z</time>
      </trkpt>
      <trkpt lat="45.96009" lon="4.82489">
        <ele>235</ele>
        <time>2017-04-05T08:56:34Z</time>
      </trkpt>
      <trkpt lat="45.96008" lon="4.82496">
        <ele>235</ele>
        <time>2017-04-05T08:56:35Z</time>
      </trkpt>
      <trkpt lat="45.96007" lon="4.82503">
        <ele>235</ele>
        <time>2017-04-05T08:56:36Z</time>
      </trkpt>
      <trkpt lat="45.96006" lon="4.82514">
        <ele>235</ele>
        <time>2017-04-05T08:56:38Z</time>
      </trkpt>
      <trkpt lat="45.96006" lon="4.8252">
        <ele>235</ele>
        <time>2017-04-05T08:56:39Z</time>
      </trkpt>
      <trkpt lat="45.96005" lon="4.82532">
        <ele>235</ele>
        <time>2017-04-05T08:56:41Z</time>
      </trkpt>
      <trkpt lat="45.96005" lon="4.82539">
        <ele>235</ele>
        <time>2017-04-05T08:56:42Z</time>
      </trkpt>
      <trkpt lat="45.96004" lon="4.82552">
        <ele>235</ele>
        <time>2017-04-05T08:56:44Z</time>
      </trkpt>
      <trkpt lat="45.96005" lon="4.82558">
        <ele>235</ele>
        <time>2017-04-05T08:56:45Z</time>
      </trkpt>
      <trkpt lat="45.96007" lon="4.82565">
        <ele>234</ele>
        <time>2017-04-05T08:56:46Z</time>
      </trkpt>
      <trkpt lat="45.96008" lon="4.82572">
        <ele>234</ele>
        <time>2017-04-05T08:56:47Z</time>
      </trkpt>
      <trkpt lat="45.9601" lon="4.8258">
        <ele>234</ele>
        <time>2017-04-05T08:56:48Z</time>
      </trkpt>
      <trkpt lat="45.96012" lon="4.82586">
        <ele>235</ele>
        <time>2017-04-05T08:56:49Z</time>
      </trkpt>
      <trkpt lat="45.96014" lon="4.82592">
        <ele>235</ele>
        <time>2017-04-05T08:56:50Z</time>
      </trkpt>
      <trkpt lat="45.96017" lon="4.82598">
        <ele>235</ele>
        <time>2017-04-05T08:56:51Z</time>
      </trkpt>
      <trkpt lat="45.96021" lon="4.82608">
        <ele>235</ele>
        <time>2017-04-05T08:56:53Z</time>
      </trkpt>
      <trkpt lat="45.96023" lon="4.82613">
        <ele>235</ele>
        <time>2017-04-05T08:56:54Z</time>
      </trkpt>
      <trkpt lat="45.96027" lon="4.82623">
        <ele>235</ele>
        <time>2017-04-05T08:56:56Z</time>
      </trkpt>
      <trkpt lat="45.96029" lon="4.8263">
        <ele>235</ele>
        <time>2017-04-05T08:56:57Z</time>
      </trkpt>
      <trkpt lat="45.96032" lon="4.82636">
        <ele>235</ele>
        <time>2017-04-05T08:56:58Z</time>
      </trkpt>
      <trkpt lat="45.96034" lon="4.82642">
        <ele>235</ele>
        <time>2017-04-05T08:56:59Z</time>
      </trkpt>
      <trkpt lat="45.96038" lon="4.82653">
        <ele>235</ele>
        <time>2017-04-05T08:57:01Z</time>
      </trkpt>
      <trkpt lat="45.9604" lon="4.82658">
        <ele>235</ele>
        <time>2017-04-05T08:57:02Z</time>
      </trkpt>
      <trkpt lat="45.96043" lon="4.82668">
        <ele>236</ele>
        <time>2017-04-05T08:57:04Z</time>
      </trkpt>
      <trkpt lat="45.96045" lon="4.82673">
        <ele>236</ele>
        <time>2017-04-05T08:57:05Z</time>
      </trkpt>
      <trkpt lat="45.96049" lon="4.82683">
        <ele>236</ele>
        <time>2017-04-05T08:57:07Z</time>
      </trkpt>
      <trkpt lat="45.96051" lon="4.82688">
        <ele>236</ele>
        <time>2017-04-05T08:57:08Z</time>
      </trkpt>
      <trkpt lat="45.96055" lon="4.82698">
        <ele>237</ele>
        <time>2017-04-05T08:57:10Z</time>
      </trkpt>
      <trkpt lat="45.96058" lon="4.82703">
        <ele>237</ele>
        <time>2017-04-05T08:57:11Z</time>
      </trkpt>
      <trkpt lat="45.9606" lon="4.82709">
        <ele>237</ele>
        <time>2017-04-05T08:57:12Z</time>
      </trkpt>
      <trkpt lat="45.96062" lon="4.82715">
        <ele>237</ele>
        <time>2017-04-05T08:57:13Z</time>
      </trkpt>
      <trkpt lat="45.96065" lon="4.82727">
        <ele>237</ele>
        <time>2017-04-05T08:57:15Z</time>
      </trkpt>
      <trkpt lat="45.96067" lon="4.82733">
        <ele>237</ele>
        <time>2017-04-05T08:57:16Z</time>
      </trkpt>
      <trkpt lat="45.96072" lon="4.82744">
        <ele>237</ele>
        <time>2017-04-05T08:57:18Z</time>
      </trkpt>
      <trkpt lat="45.96074" lon="4.82749">
        <ele>237</ele>
        <time>2017-04-05T08:57:19Z</time>
      </trkpt>
      <trkpt lat="45.96077" lon="4.8276">
        <ele>238</ele>
        <time>2017-04-05T08:57:21Z</time>
      </trkpt>
      <trkpt lat="45.96079" lon="4.82766">
        <ele>238</ele>
        <time>2017-04-05T08:57:22Z</time>
      </trkpt>
      <trkpt lat="45.96082" lon="4.82777">
        <ele>238</ele>
        <time>2017-04-05T08:57:24Z</time>
      </trkpt>
      <trkpt lat="45.96084" lon="4.82783">
        <ele>237</ele>
        <time>2017-04-05T08:57:25Z</time>
      </trkpt>
      <trkpt lat="45.96085" lon="4.82789">
        <ele>237</ele>
        <time>2017-04-05T08:57:26Z</time>
      </trkpt>
      <trkpt lat="45.96086" lon="4.82796">
        <ele>237</ele>
        <time>2017-04-05T08:57:27Z</time>
      </trkpt>
      <trkpt lat="45.96087" lon="4.82803">
        <ele>237</ele>
        <time>2017-04-05T08:57:28Z</time>
      </trkpt>
      <trkpt lat="45.96088" lon="4.82811">
        <ele>237</ele>
        <time>2017-04-05T08:57:29Z</time>
      </trkpt>
      <trkpt lat="45.96089" lon="4.82818">
        <ele>237</ele>
        <time>2017-04-05T08:57:30Z</time>
      </trkpt>
      <trkpt lat="45.9609" lon="4.82824">
        <ele>237</ele>
        <time>2017-04-05T08:57:31Z</time>
      </trkpt>
      <trkpt lat="45.96091" lon="4.82837">
        <ele>237</ele>
        <time>2017-04-05T08:57:33Z</time>
      </trkpt>
      <trkpt lat="45.96092" lon="4.82843">
        <ele>237</ele>
        <time>2017-04-05T08:57:34Z</time>
      </trkpt>
      <trkpt lat="45.96092" lon="4.82855">
        <ele>237</ele>
        <time>2017-04-05T08:57:36Z</time>
      </trkpt>
      <trkpt lat="45.96092" lon="4.8286">
        <ele>237</ele>
        <time>2017-04-05T08:57:37Z</time>
      </trkpt>
      <trkpt lat="45.9609" lon="4.82872">
        <ele>237</ele>
        <time>2017-04-05T08:57:39Z</time>
      </trkpt>
      <trkpt lat="45.96089" lon="4.82878">
        <ele>237</ele>
        <time>2017-04-05T08:57:40Z</time>
      </trkpt>
      <trkpt lat="45.96087" lon="4.82885">
        <ele>237</ele>
        <time>2017-04-05T08:57:41Z</time>
      </trkpt>
      <trkpt lat="45.96086" lon="4.82891">
        <ele>237</ele>
        <time>2017-04-05T08:57:42Z</time>
      </trkpt>
      <trkpt lat="45.96084" lon="4.82898">
        <ele>238</ele>
        <time>2017-04-05T08:57:43Z</time>
      </trkpt>
      <trkpt lat="45.96083" lon="4.82904">
        <ele>239</ele>
        <time>2017-04-05T08:57:44Z</time>
      </trkpt>
      <trkpt lat="45.96081" lon="4.8291">
        <ele>238</ele>
        <time>2017-04-05T08:57:45Z</time>
      </trkpt>
      <trkpt lat="45.96081" lon="4.82917">
        <ele>238</ele>
        <time>2017-04-05T08:57:46Z</time>
      </trkpt>
      <trkpt lat="45.96079" lon="4.82923">
        <ele>239</ele>
        <time>2017-04-05T08:57:47Z</time>
      </trkpt>
      <trkpt lat="45.96077" lon="4.8293">
        <ele>240</ele>
        <time>2017-04-05T08:57:48Z</time>
      </trkpt>
      <trkpt lat="45.96076" lon="4.82937">
        <ele>240</ele>
        <time>2017-04-05T08:57:49Z</time>
      </trkpt>
      <trkpt lat="45.96074" lon="4.82944">
        <ele>241</ele>
        <time>2017-04-05T08:57:50Z</time>
      </trkpt>
      <trkpt lat="45.96072" lon="4.82951">
        <ele>241</ele>
        <time>2017-04-05T08:57:51Z</time>
      </trkpt>
      <trkpt lat="45.9607" lon="4.82957">
        <ele>241</ele>
        <time>2017-04-05T08:57:52Z</time>
      </trkpt>
      <trkpt lat="45.96068" lon="4.82964">
        <ele>241</ele>
        <time>2017-04-05T08:57:53Z</time>
      </trkpt>
      <trkpt lat="45.96066" lon="4.82971">
        <ele>241</ele>
        <time>2017-04-05T08:57:54Z</time>
      </trkpt>
      <trkpt lat="45.96065" lon="4.82977">
        <ele>241</ele>
        <time>2017-04-05T08:57:55Z</time>
      </trkpt>
      <trkpt lat="45.96064" lon="4.82985">
        <ele>241</ele>
        <time>2017-04-05T08:57:56Z</time>
      </trkpt>
      <trkpt lat="45.96064" lon="4.82992">
        <ele>241</ele>
        <time>2017-04-05T08:57:57Z</time>
      </trkpt>
      <trkpt lat="45.96064" lon="4.82999">
        <ele>241</ele>
        <time>2017-04-05T08:57:58Z</time>
      </trkpt>
      <trkpt lat="45.96065" lon="4.83006">
        <ele>242</ele>
        <time>2017-04-05T08:57:59Z</time>
      </trkpt>
      <trkpt lat="45.96065" lon="4.83012">
        <ele>242</ele>
        <time>2017-04-05T08:58:00Z</time>
      </trkpt>
      <trkpt lat="45.96065" lon="4.83025">
        <ele>243</ele>
        <time>2017-04-05T08:58:02Z</time>
      </trkpt>
      <trkpt lat="45.96065" lon="4.83031">
        <ele>243</ele>
        <time>2017-04-05T08:58:03Z</time>
      </trkpt>
      <trkpt lat="45.96069" lon="4.83042">
        <ele>243</ele>
        <time>2017-04-05T08:58:05Z</time>
      </trkpt>
      <trkpt lat="45.9607" lon="4.83047">
        <ele>243</ele>
        <time>2017-04-05T08:58:06Z</time>
      </trkpt>
      <trkpt lat="45.96073" lon="4.83059">
        <ele>242</ele>
        <time>2017-04-05T08:58:08Z</time>
      </trkpt>
      <trkpt lat="45.96075" lon="4.83065">
        <ele>242</ele>
        <time>2017-04-05T08:58:09Z</time>
      </trkpt>
      <trkpt lat="45.96076" lon="4.83072">
        <ele>242</ele>
        <time>2017-04-05T08:58:10Z</time>
      </trkpt>
      <trkpt lat="45.96077" lon="4.83078">
        <ele>241</ele>
        <time>2017-04-05T08:58:11Z</time>
      </trkpt>
      <trkpt lat="45.96078" lon="4.83085">
        <ele>241</ele>
        <time>2017-04-05T08:58:12Z</time>
      </trkpt>
      <trkpt lat="45.96079" lon="4.83092">
        <ele>241</ele>
        <time>2017-04-05T08:58:13Z</time>
      </trkpt>
      <trkpt lat="45.96079" lon="4.83104">
        <ele>242</ele>
        <time>2017-04-05T08:58:15Z</time>
      </trkpt>
      <trkpt lat="45.96081" lon="4.83111">
        <ele>242</ele>
        <time>2017-04-05T08:58:16Z</time>
      </trkpt>
      <trkpt lat="45.96082" lon="4.83119">
        <ele>242</ele>
        <time>2017-04-05T08:58:17Z</time>
      </trkpt>
      <trkpt lat="45.96082" lon="4.83126">
        <ele>242</ele>
        <time>2017-04-05T08:58:18Z</time>
      </trkpt>
      <trkpt lat="45.96083" lon="4.83134">
        <ele>242</ele>
        <time>2017-04-05T08:58:19Z</time>
      </trkpt>
      <trkpt lat="45.96084" lon="4.83141">
        <ele>240</ele>
        <time>2017-04-05T08:58:20Z</time>
      </trkpt>
      <trkpt lat="45.96085" lon="4.83153">
        <ele>240</ele>
        <time>2017-04-05T08:58:22Z</time>
      </trkpt>
      <trkpt lat="45.96086" lon="4.8316">
        <ele>240</ele>
        <time>2017-04-05T08:58:23Z</time>
      </trkpt>
      <trkpt lat="45.96087" lon="4.83167">
        <ele>240</ele>
        <time>2017-04-05T08:58:24Z</time>
      </trkpt>
      <trkpt lat="45.96088" lon="4.83174">
        <ele>240</ele>
        <time>2017-04-05T08:58:25Z</time>
      </trkpt>
      <trkpt lat="45.96088" lon="4.83181">
        <ele>240</ele>
        <time>2017-04-05T08:58:26Z</time>
      </trkpt>
      <trkpt lat="45.96088" lon="4.83188">
        <ele>240</ele>
        <time>2017-04-05T08:58:27Z</time>
      </trkpt>
      <trkpt lat="45.96088" lon="4.83194">
        <ele>240</ele>
        <time>2017-04-05T08:58:28Z</time>
      </trkpt>
      <trkpt lat="45.96088" lon="4.83201">
        <ele>240</ele>
        <time>2017-04-05T08:58:29Z</time>
      </trkpt>
      <trkpt lat="45.96088" lon="4.83208">
        <ele>240</ele>
        <time>2017-04-05T08:58:30Z</time>
      </trkpt>
      <trkpt lat="45.96089" lon="4.83214">
        <ele>240</ele>
        <time>2017-04-05T08:58:31Z</time>
      </trkpt>
      <trkpt lat="45.96089" lon="4.83221">
        <ele>240</ele>
        <time>2017-04-05T08:58:32Z</time>
      </trkpt>
      <trkpt lat="45.96088" lon="4.83228">
        <ele>240</ele>
        <time>2017-04-05T08:58:33Z</time>
      </trkpt>
      <trkpt lat="45.96088" lon="4.83234">
        <ele>240</ele>
        <time>2017-04-05T08:58:34Z</time>
      </trkpt>
      <trkpt lat="45.96088" lon="4.83241">
        <ele>240</ele>
        <time>2017-04-05T08:58:35Z</time>
      </trkpt>
      <trkpt lat="45.96088" lon="4.83253">
        <ele>240</ele>
        <time>2017-04-05T08:58:37Z</time>
      </trkpt>
      <trkpt lat="45.96088" lon="4.83259">
        <ele>241</ele>
        <time>2017-04-05T08:58:38Z</time>
      </trkpt>
      <trkpt lat="45.96088" lon="4.83272">
        <ele>241</ele>
        <time>2017-04-05T08:58:40Z</time>
      </trkpt>
      <trkpt lat="45.96089" lon="4.83279">
        <ele>241</ele>
        <time>2017-04-05T08:58:41Z</time>
      </trkpt>
      <trkpt lat="45.96089" lon="4.83286">
        <ele>241</ele>
        <time>2017-04-05T08:58:42Z</time>
      </trkpt>
      <trkpt lat="45.9609" lon="4.83293">
        <ele>241</ele>
        <time>2017-04-05T08:58:43Z</time>
      </trkpt>
      <trkpt lat="45.9609" lon="4.83299">
        <ele>241</ele>
        <time>2017-04-05T08:58:44Z</time>
      </trkpt>
      <trkpt lat="45.96091" lon="4.83306">
        <ele>241</ele>
        <time>2017-04-05T08:58:45Z</time>
      </trkpt>
      <trkpt lat="45.96092" lon="4.83312">
        <ele>241</ele>
        <time>2017-04-05T08:58:46Z</time>
      </trkpt>
      <trkpt lat="45.96093" lon="4.83319">
        <ele>241</ele>
        <time>2017-04-05T08:58:47Z</time>
      </trkpt>
      <trkpt lat="45.96095" lon="4.83332">
        <ele>241</ele>
        <time>2017-04-05T08:58:49Z</time>
      </trkpt>
      <trkpt lat="45.96096" lon="4.83338">
        <ele>242</ele>
        <time>2017-04-05T08:58:50Z</time>
      </trkpt>
      <trkpt lat="45.96097" lon="4.83348">
        <ele>242</ele>
        <time>2017-04-05T08:58:52Z</time>
      </trkpt>
      <trkpt lat="45.96098" lon="4.83354">
        <ele>242</ele>
        <time>2017-04-05T08:58:53Z</time>
      </trkpt>
      <trkpt lat="45.96101" lon="4.83365">
        <ele>242</ele>
        <time>2017-04-05T08:58:55Z</time>
      </trkpt>
      <trkpt lat="45.96102" lon="4.8337">
        <ele>242</ele>
        <time>2017-04-05T08:58:56Z</time>
      </trkpt>
      <trkpt lat="45.96105" lon="4.83381">
        <ele>242</ele>
        <time>2017-04-05T08:58:58Z</time>
      </trkpt>
      <trkpt lat="45.96106" lon="4.83387">
        <ele>243</ele>
        <time>2017-04-05T08:58:59Z</time>
      </trkpt>
      <trkpt lat="45.96109" lon="4.83398">
        <ele>243</ele>
        <time>2017-04-05T08:59:01Z</time>
      </trkpt>
      <trkpt lat="45.9611" lon="4.83403">
        <ele>243</ele>
        <time>2017-04-05T08:59:02Z</time>
      </trkpt>
      <trkpt lat="45.96113" lon="4.83414">
        <ele>243</ele>
        <time>2017-04-05T08:59:04Z</time>
      </trkpt>
      <trkpt lat="45.96113" lon="4.83418">
        <ele>243</ele>
        <time>2017-04-05T08:59:05Z</time>
      </trkpt>
      <trkpt lat="45.96115" lon="4.83428">
        <ele>243</ele>
        <time>2017-04-05T08:59:07Z</time>
      </trkpt>
      <trkpt lat="45.96116" lon="4.83432">
        <ele>243</ele>
        <time>2017-04-05T08:59:08Z</time>
      </trkpt>
      <trkpt lat="45.96117" lon="4.83443">
        <ele>242</ele>
        <time>2017-04-05T08:59:10Z</time>
      </trkpt>
      <trkpt lat="45.96117" lon="4.83448">
        <ele>242</ele>
        <time>2017-04-05T08:59:11Z</time>
      </trkpt>
      <trkpt lat="45.96119" lon="4.83459">
        <ele>242</ele>
        <time>2017-04-05T08:59:13Z</time>
      </trkpt>
      <trkpt lat="45.96121" lon="4.83465">
        <ele>242</ele>
        <time>2017-04-05T08:59:14Z</time>
      </trkpt>
      <trkpt lat="45.96122" lon="4.83471">
        <ele>242</ele>
        <time>2017-04-05T08:59:15Z</time>
      </trkpt>
      <trkpt lat="45.96123" lon="4.83478">
        <ele>242</ele>
        <time>2017-04-05T08:59:16Z</time>
      </trkpt>
      <trkpt lat="45.96126" lon="4.8349">
        <ele>242</ele>
        <time>2017-04-05T08:59:18Z</time>
      </trkpt>
      <trkpt lat="45.96127" lon="4.83496">
        <ele>242</ele>
        <time>2017-04-05T08:59:19Z</time>
      </trkpt>
      <trkpt lat="45.96128" lon="4.83507">
        <ele>242</ele>
        <time>2017-04-05T08:59:21Z</time>
      </trkpt>
      <trkpt lat="45.9613" lon="4.83512">
        <ele>242</ele>
        <time>2017-04-05T08:59:22Z</time>
      </trkpt>
      <trkpt lat="45.96134" lon="4.83523">
        <ele>242</ele>
        <time>2017-04-05T08:59:24Z</time>
      </trkpt>
      <trkpt lat="45.96135" lon="4.83528">
        <ele>242</ele>
        <time>2017-04-05T08:59:25Z</time>
      </trkpt>
      <trkpt lat="45.96138" lon="4.83538">
        <ele>242</ele>
        <time>2017-04-05T08:59:27Z</time>
      </trkpt>
      <trkpt lat="45.96139" lon="4.83544">
        <ele>242</ele>
        <time>2017-04-05T08:59:28Z</time>
      </trkpt>
      <trkpt lat="45.96142" lon="4.83556">
        <ele>242</ele>
        <time>2017-04-05T08:59:30Z</time>
      </trkpt>
      <trkpt lat="45.96143" lon="4.83561">
        <ele>242</ele>
        <time>2017-04-05T08:59:31Z</time>
      </trkpt>
      <trkpt lat="45.96146" lon="4.83572">
        <ele>241</ele>
        <time>2017-04-05T08:59:33Z</time>
      </trkpt>
      <trkpt lat="45.96148" lon="4.83577">
        <ele>241</ele>
        <time>2017-04-05T08:59:34Z</time>
      </trkpt>
      <trkpt lat="45.96151" lon="4.83589">
        <ele>242</ele>
        <time>2017-04-05T08:59:36Z</time>
      </trkpt>
      <trkpt lat="45.96152" lon="4.83595">
        <ele>242</ele>
        <time>2017-04-05T08:59:37Z</time>
      </trkpt>
      <trkpt lat="45.96153" lon="4.83601">
        <ele>242</ele>
        <time>2017-04-05T08:59:38Z</time>
      </trkpt>
      <trkpt lat="45.96155" lon="4.83608">
        <ele>242</ele>
        <time>2017-04-05T08:59:39Z</time>
      </trkpt>
      <trkpt lat="45.96157" lon="4.83614">
        <ele>242</ele>
        <time>2017-04-05T08:59:40Z</time>
      </trkpt>
      <trkpt lat="45.96158" lon="4.83621">
        <ele>242</ele>
        <time>2017-04-05T08:59:41Z</time>
      </trkpt>
      <trkpt lat="45.96161" lon="4.83627">
        <ele>242</ele>
        <time>2017-04-05T08:59:42Z</time>
      </trkpt>
      <trkpt lat="45.96163" lon="4.83633">
        <ele>243</ele>
        <time>2017-04-05T08:59:43Z</time>
      </trkpt>
      <trkpt lat="45.96165" lon="4.83639">
        <ele>243</ele>
        <time>2017-04-05T08:59:44Z</time>
      </trkpt>
      <trkpt lat="45.96168" lon="4.83644">
        <ele>242</ele>
        <time>2017-04-05T08:59:45Z</time>
      </trkpt>
      <trkpt lat="45.96171" lon="4.8365">
        <ele>242</ele>
        <time>2017-04-05T08:59:46Z</time>
      </trkpt>
      <trkpt lat="45.96174" lon="4.83654">
        <ele>242</ele>
        <time>2017-04-05T08:59:47Z</time>
      </trkpt>
      <trkpt lat="45.96177" lon="4.83659">
        <ele>242</ele>
        <time>2017-04-05T08:59:48Z</time>
      </trkpt>
      <trkpt lat="45.96181" lon="4.83663">
        <ele>242</ele>
        <time>2017-04-05T08:59:49Z</time>
      </trkpt>
      <trkpt lat="45.96188" lon="4.83671">
        <ele>243</ele>
        <time>2017-04-05T08:59:51Z</time>
      </trkpt>
      <trkpt lat="45.96191" lon="4.83675">
        <ele>243</ele>
        <time>2017-04-05T08:59:52Z</time>
      </trkpt>
      <trkpt lat="45.96198" lon="4.83683">
        <ele>243</ele>
        <time>2017-04-05T08:59:54Z</time>
      </trkpt>
      <trkpt lat="45.96201" lon="4.83687">
        <ele>243</ele>
        <time>2017-04-05T08:59:55Z</time>
      </trkpt>
      <trkpt lat="45.96207" lon="4.83694">
        <ele>243</ele>
        <time>2017-04-05T08:59:57Z</time>
      </trkpt>
      <trkpt lat="45.96211" lon="4.83698">
        <ele>243</ele>
        <time>2017-04-05T08:59:58Z</time>
      </trkpt>
      <trkpt lat="45.96218" lon="4.83705">
        <ele>244</ele>
        <time>2017-04-05T09:00:00Z</time>
      </trkpt>
      <trkpt lat="45.96221" lon="4.83708">
        <ele>244</ele>
        <time>2017-04-05T09:00:01Z</time>
      </trkpt>
      <trkpt lat="45.96228" lon="4.83715">
        <ele>244</ele>
        <time>2017-04-05T09:00:03Z</time>
      </trkpt>
      <trkpt lat="45.96231" lon="4.83718">
        <ele>244</ele>
        <time>2017-04-05T09:00:04Z</time>
      </trkpt>
      <trkpt lat="45.96237" lon="4.83725">
        <ele>244</ele>
        <time>2017-04-05T09:00:06Z</time>
      </trkpt>
      <trkpt lat="45.9624" lon="4.83729">
        <ele>244</ele>
        <time>2017-04-05T09:00:07Z</time>
      </trkpt>
      <trkpt lat="45.96247" lon="4.83737">
        <ele>244</ele>
        <time>2017-04-05T09:00:09Z</time>
      </trkpt>
      <trkpt lat="45.9625" lon="4.8374">
        <ele>244</ele>
        <time>2017-04-05T09:00:10Z</time>
      </trkpt>
      <trkpt lat="45.96257" lon="4.83748">
        <ele>245</ele>
        <time>2017-04-05T09:00:12Z</time>
      </trkpt>
      <trkpt lat="45.9626" lon="4.83752">
        <ele>244</ele>
        <time>2017-04-05T09:00:13Z</time>
      </trkpt>
      <trkpt lat="45.96267" lon="4.83758">
        <ele>245</ele>
        <time>2017-04-05T09:00:15Z</time>
      </trkpt>
      <trkpt lat="45.9627" lon="4.83761">
        <ele>245</ele>
        <time>2017-04-05T09:00:16Z</time>
      </trkpt>
      <trkpt lat="45.96277" lon="4.83769">
        <ele>245</ele>
        <time>2017-04-05T09:00:18Z</time>
      </trkpt>
      <trkpt lat="45.96281" lon="4.83773">
        <ele>245</ele>
        <time>2017-04-05T09:00:19Z</time>
      </trkpt>
      <trkpt lat="45.96285" lon="4.83777">
        <ele>245</ele>
        <time>2017-04-05T09:00:20Z</time>
      </trkpt>
      <trkpt lat="45.96289" lon="4.8378">
        <ele>245</ele>
        <time>2017-04-05T09:00:21Z</time>
      </trkpt>
      <trkpt lat="45.96296" lon="4.83788">
        <ele>245</ele>
        <time>2017-04-05T09:00:23Z</time>
      </trkpt>
      <trkpt lat="45.963" lon="4.83791">
        <ele>245</ele>
        <time>2017-04-05T09:00:24Z</time>
      </trkpt>
      <trkpt lat="45.96307" lon="4.83798">
        <ele>245</ele>
        <time>2017-04-05T09:00:26Z</time>
      </trkpt>
      <trkpt lat="45.96311" lon="4.83801">
        <ele>245</ele>
        <time>2017-04-05T09:00:27Z</time>
      </trkpt>
      <trkpt lat="45.96318" lon="4.83807">
        <ele>245</ele>
        <time>2017-04-05T09:00:29Z</time>
      </trkpt>
      <trkpt lat="45.96322" lon="4.83809">
        <ele>244</ele>
        <time>2017-04-05T09:00:30Z</time>
      </trkpt>
      <trkpt lat="45.96329" lon="4.83815">
        <ele>244</ele>
        <time>2017-04-05T09:00:32Z</time>
      </trkpt>
      <trkpt lat="45.96332" lon="4.83819">
        <ele>244</ele>
        <time>2017-04-05T09:00:33Z</time>
      </trkpt>
      <trkpt lat="45.96339" lon="4.83826">
        <ele>244</ele>
        <time>2017-04-05T09:00:35Z</time>
      </trkpt>
      <trkpt lat="45.96342" lon="4.8383">
        <ele>244</ele>
        <time>2017-04-05T09:00:36Z</time>
      </trkpt>
      <trkpt lat="45.96348" lon="4.83837">
        <ele>245</ele>
        <time>2017-04-05T09:00:38Z</time>
      </trkpt>
      <trkpt lat="45.96351" lon="4.83841">
        <ele>245</ele>
        <time>2017-04-05T09:00:39Z</time>
      </trkpt>
      <trkpt lat="45.96356" lon="4.8385">
        <ele>246</ele>
        <time>2017-04-05T09:00:41Z</time>
      </trkpt>
      <trkpt lat="45.96358" lon="4.83855">
        <ele>246</ele>
        <time>2017-04-05T09:00:42Z</time>
      </trkpt>
      <trkpt lat="45.96363" lon="4.83863">
        <ele>247</ele>
        <time>2017-04-05T09:00:44Z</time>
      </trkpt>
      <trkpt lat="45.96365" lon="4.83867">
        <ele>247</ele>
        <time>2017-04-05T09:00:45Z</time>
      </trkpt>
      <trkpt lat="45.96369" lon="4.83876">
        <ele>247</ele>
        <time>2017-04-05T09:00:47Z</time>
      </trkpt>
      <trkpt lat="45.96371" lon="4.8388">
        <ele>247</ele>
        <time>2017-04-05T09:00:48Z</time>
      </trkpt>
      <trkpt lat="45.96375" lon="4.83888">
        <ele>248</ele>
        <time>2017-04-05T09:00:50Z</time>
      </trkpt>
      <trkpt lat="45.96377" lon="4.83892">
        <ele>248</ele>
        <time>2017-04-05T09:00:51Z</time>
      </trkpt>
      <trkpt lat="45.9638" lon="4.839">
        <ele>248</ele>
        <time>2017-04-05T09:00:53Z</time>
      </trkpt>
      <trkpt lat="45.96383" lon="4.83904">
        <ele>248</ele>
        <time>2017-04-05T09:00:54Z</time>
      </trkpt>
      <trkpt lat="45.96387" lon="4.83914">
        <ele>248</ele>
        <time>2017-04-05T09:00:57Z</time>
      </trkpt>
      <trkpt lat="45.96388" lon="4.83917">
        <ele>251</ele>
        <time>2017-04-05T09:00:58Z</time>
      </trkpt>
      <trkpt lat="45.96393" lon="4.83928">
        <ele>251</ele>
        <time>2017-04-05T09:01:01Z</time>
      </trkpt>
      <trkpt lat="45.96395" lon="4.83931">
        <ele>251</ele>
        <time>2017-04-05T09:01:02Z</time>
      </trkpt>
      <trkpt lat="45.964" lon="4.83941">
        <ele>251</ele>
        <time>2017-04-05T09:01:05Z</time>
      </trkpt>
      <trkpt lat="45.96402" lon="4.83945">
        <ele>251</ele>
        <time>2017-04-05T09:01:06Z</time>
      </trkpt>
      <trkpt lat="45.96407" lon="4.83955">
        <ele>252</ele>
        <time>2017-04-05T09:01:09Z</time>
      </trkpt>
      <trkpt lat="45.96408" lon="4.83959">
        <ele>252</ele>
        <time>2017-04-05T09:01:10Z</time>
      </trkpt>
      <trkpt lat="45.96412" lon="4.83969">
        <ele>253</ele>
        <time>2017-04-05T09:01:13Z</time>
      </trkpt>
      <trkpt lat="45.96414" lon="4.83972">
        <ele>253</ele>
        <time>2017-04-05T09:01:14Z</time>
      </trkpt>
      <trkpt lat="45.96417" lon="4.83979">
        <ele>251</ele>
        <time>2017-04-05T09:01:16Z</time>
      </trkpt>
      <trkpt lat="45.96419" lon="4.83983">
        <ele>251</ele>
        <time>2017-04-05T09:01:17Z</time>
      </trkpt>
      <trkpt lat="45.96423" lon="4.83991">
        <ele>251</ele>
        <time>2017-04-05T09:01:19Z</time>
      </trkpt>
      <trkpt lat="45.96424" lon="4.83995">
        <ele>252</ele>
        <time>2017-04-05T09:01:20Z</time>
      </trkpt>
      <trkpt lat="45.96428" lon="4.84004">
        <ele>252</ele>
        <time>2017-04-05T09:01:22Z</time>
      </trkpt>
      <trkpt lat="45.9643" lon="4.84008">
        <ele>252</ele>
        <time>2017-04-05T09:01:23Z</time>
      </trkpt>
      <trkpt lat="45.96433" lon="4.84016">
        <ele>252</ele>
        <time>2017-04-05T09:01:25Z</time>
      </trkpt>
      <trkpt lat="45.96435" lon="4.84019">
        <ele>251</ele>
        <time>2017-04-05T09:01:26Z</time>
      </trkpt>
      <trkpt lat="45.96437" lon="4.84031">
        <ele>251</ele>
        <time>2017-04-05T09:01:29Z</time>
      </trkpt>
      <trkpt lat="45.96438" lon="4.84035">
        <ele>251</ele>
        <time>2017-04-05T09:01:30Z</time>
      </trkpt>
      <trkpt lat="45.96441" lon="4.84046">
        <ele>251</ele>
        <time>2017-04-05T09:01:33Z</time>
      </trkpt>
      <trkpt lat="45.96442" lon="4.8405">
        <ele>251</ele>
        <time>2017-04-05T09:01:34Z</time>
      </trkpt>
      <trkpt lat="45.96445" lon="4.84058">
        <ele>251</ele>
        <time>2017-04-05T09:01:36Z</time>
      </trkpt>
      <trkpt lat="45.96446" lon="4.84062">
        <ele>251</ele>
        <time>2017-04-05T09:01:37Z</time>
      </trkpt>
      <trkpt lat="45.9645" lon="4.8407">
        <ele>251</ele>
        <time>2017-04-05T09:01:39Z</time>
      </trkpt>
      <trkpt lat="45.96451" lon="4.84074">
        <ele>251</ele>
        <time>2017-04-05T09:01:40Z</time>
      </trkpt>
      <trkpt lat="45.96454" lon="4.84083">
        <ele>251</ele>
        <time>2017-04-05T09:01:42Z</time>
      </trkpt>
      <trkpt lat="45.96456" lon="4.84087">
        <ele>252</ele>
        <time>2017-04-05T09:01:43Z</time>
      </trkpt>
      <trkpt lat="45.9646" lon="4.84095">
        <ele>252</ele>
        <time>2017-04-05T09:01:45Z</time>
      </trkpt>
      <trkpt lat="45.96461" lon="4.84099">
        <ele>252</ele>
        <time>2017-04-05T09:01:46Z</time>
      </trkpt>
      <trkpt lat="45.96464" lon="4.84108">
        <ele>251</ele>
        <time>2017-04-05T09:01:48Z</time>
      </trkpt>
      <trkpt lat="45.96466" lon="4.84111">
        <ele>251</ele>
        <time>2017-04-05T09:01:49Z</time>
      </trkpt>
      <trkpt lat="45.96469" lon="4.8412">
        <ele>251</ele>
        <time>2017-04-05T09:01:51Z</time>
      </trkpt>
      <trkpt lat="45.9647" lon="4.84124">
        <ele>251</ele>
        <time>2017-04-05T09:01:52Z</time>
      </trkpt>
      <trkpt lat="45.96473" lon="4.84133">
        <ele>251</ele>
        <time>2017-04-05T09:01:54Z</time>
      </trkpt>
      <trkpt lat="45.96475" lon="4.84138">
        <ele>251</ele>
        <time>2017-04-05T09:01:55Z</time>
      </trkpt>
      <trkpt lat="45.96477" lon="4.84148">
        <ele>251</ele>
        <time>2017-04-05T09:01:57Z</time>
      </trkpt>
      <trkpt lat="45.96478" lon="4.84152">
        <ele>251</ele>
        <time>2017-04-05T09:01:58Z</time>
      </trkpt>
      <trkpt lat="45.9648" lon="4.84162">
        <ele>251</ele>
        <time>2017-04-05T09:02:00Z</time>
      </trkpt>
      <trkpt lat="45.96481" lon="4.84167">
        <ele>251</ele>
        <time>2017-04-05T09:02:01Z</time>
      </trkpt>
      <trkpt lat="45.96484" lon="4.84176">
        <ele>251</ele>
        <time>2017-04-05T09:02:03Z</time>
      </trkpt>
      <trkpt lat="45.96484" lon="4.84181">
        <ele>251</ele>
        <time>2017-04-05T09:02:04Z</time>
      </trkpt>
      <trkpt lat="45.96486" lon="4.84191">
        <ele>251</ele>
        <time>2017-04-05T09:02:06Z</time>
      </trkpt>
      <trkpt lat="45.96487" lon="4.84196">
        <ele>251</ele>
        <time>2017-04-05T09:02:07Z</time>
      </trkpt>
      <trkpt lat="45.9649" lon="4.84208">
        <ele>252</ele>
        <time>2017-04-05T09:02:09Z</time>
      </trkpt>
      <trkpt lat="45.96491" lon="4.84214">
        <ele>252</ele>
        <time>2017-04-05T09:02:10Z</time>
      </trkpt>
      <trkpt lat="45.96493" lon="4.84226">
        <ele>252</ele>
        <time>2017-04-05T09:02:12Z</time>
      </trkpt>
      <trkpt lat="45.96494" lon="4.84232">
        <ele>252</ele>
        <time>2017-04-05T09:02:13Z</time>
      </trkpt>
      <trkpt lat="45.96496" lon="4.84238">
        <ele>251</ele>
        <time>2017-04-05T09:02:14Z</time>
      </trkpt>
      <trkpt lat="45.96497" lon="4.84245">
        <ele>251</ele>
        <time>2017-04-05T09:02:15Z</time>
      </trkpt>
      <trkpt lat="45.96499" lon="4.84252">
        <ele>251</ele>
        <time>2017-04-05T09:02:16Z</time>
      </trkpt>
      <trkpt lat="45.965" lon="4.84259">
        <ele>251</ele>
        <time>2017-04-05T09:02:17Z</time>
      </trkpt>
      <trkpt lat="45.96502" lon="4.84265">
        <ele>251</ele>
        <time>2017-04-05T09:02:18Z</time>
      </trkpt>
      <trkpt lat="45.96503" lon="4.84272">
        <ele>250</ele>
        <time>2017-04-05T09:02:19Z</time>
      </trkpt>
      <trkpt lat="45.96505" lon="4.84278">
        <ele>250</ele>
        <time>2017-04-05T09:02:20Z</time>
      </trkpt>
      <trkpt lat="45.96506" lon="4.84284">
        <ele>250</ele>
        <time>2017-04-05T09:02:21Z</time>
      </trkpt>
      <trkpt lat="45.96507" lon="4.84291">
        <ele>250</ele>
        <time>2017-04-05T09:02:22Z</time>
      </trkpt>
      <trkpt lat="45.96509" lon="4.84297">
        <ele>250</ele>
        <time>2017-04-05T09:02:23Z</time>
      </trkpt>
      <trkpt lat="45.9651" lon="4.84305">
        <ele>250</ele>
        <time>2017-04-05T09:02:24Z</time>
      </trkpt>
      <trkpt lat="45.96512" lon="4.84312">
        <ele>250</ele>
        <time>2017-04-05T09:02:25Z</time>
      </trkpt>
      <trkpt lat="45.96514" lon="4.8432">
        <ele>250</ele>
        <time>2017-04-05T09:02:26Z</time>
      </trkpt>
      <trkpt lat="45.96517" lon="4.84327">
        <ele>251</ele>
        <time>2017-04-05T09:02:27Z</time>
      </trkpt>
      <trkpt lat="45.96518" lon="4.84334">
        <ele>251</ele>
        <time>2017-04-05T09:02:28Z</time>
      </trkpt>
      <trkpt lat="45.9652" lon="4.84342">
        <ele>251</ele>
        <time>2017-04-05T09:02:29Z</time>
      </trkpt>
      <trkpt lat="45.96522" lon="4.84349">
        <ele>251</ele>
        <time>2017-04-05T09:02:30Z</time>
      </trkpt>
      <trkpt lat="45.96523" lon="4.84356">
        <ele>251</ele>
        <time>2017-04-05T09:02:31Z</time>
      </trkpt>
      <trkpt lat="45.96525" lon="4.84364">
        <ele>251</ele>
        <time>2017-04-05T09:02:32Z</time>
      </trkpt>
      <trkpt lat="45.96526" lon="4.84371">
        <ele>251</ele>
        <time>2017-04-05T09:02:33Z</time>
      </trkpt>
      <trkpt lat="45.96527" lon="4.84378">
        <ele>251</ele>
        <time>2017-04-05T09:02:34Z</time>
      </trkpt>
      <trkpt lat="45.96528" lon="4.84384">
        <ele>251</ele>
        <time>2017-04-05T09:02:35Z</time>
      </trkpt>
      <trkpt lat="45.96528" lon="4.84391">
        <ele>252</ele>
        <time>2017-04-05T09:02:36Z</time>
      </trkpt>
      <trkpt lat="45.96527" lon="4.84398">
        <ele>252</ele>
        <time>2017-04-05T09:02:37Z</time>
      </trkpt>
      <trkpt lat="45.96527" lon="4.84404">
        <ele>252</ele>
        <time>2017-04-05T09:02:38Z</time>
      </trkpt>
      <trkpt lat="45.96526" lon="4.84411">
        <ele>252</ele>
        <time>2017-04-05T09:02:39Z</time>
      </trkpt>
      <trkpt lat="45.96526" lon="4.84417">
        <ele>252</ele>
        <time>2017-04-05T09:02:40Z</time>
      </trkpt>
      <trkpt lat="45.96526" lon="4.84424">
        <ele>252</ele>
        <time>2017-04-05T09:02:41Z</time>
      </trkpt>
      <trkpt lat="45.96525" lon="4.84436">
        <ele>253</ele>
        <time>2017-04-05T09:02:43Z</time>
      </trkpt>
      <trkpt lat="45.96524" lon="4.84442">
        <ele>253</ele>
        <time>2017-04-05T09:02:44Z</time>
      </trkpt>
      <trkpt lat="45.96524" lon="4.84454">
        <ele>253</ele>
        <time>2017-04-05T09:02:46Z</time>
      </trkpt>
      <trkpt lat="45.96523" lon="4.8446">
        <ele>253</ele>
        <time>2017-04-05T09:02:47Z</time>
      </trkpt>
      <trkpt lat="45.96523" lon="4.84472">
        <ele>253</ele>
        <time>2017-04-05T09:02:49Z</time>
      </trkpt>
      <trkpt lat="45.96522" lon="4.84478">
        <ele>253</ele>
        <time>2017-04-05T09:02:50Z</time>
      </trkpt>
      <trkpt lat="45.96521" lon="4.8449">
        <ele>253</ele>
        <time>2017-04-05T09:02:52Z</time>
      </trkpt>
      <trkpt lat="45.96521" lon="4.84497">
        <ele>253</ele>
        <time>2017-04-05T09:02:53Z</time>
      </trkpt>
      <trkpt lat="45.96521" lon="4.84509">
        <ele>253</ele>
        <time>2017-04-05T09:02:55Z</time>
      </trkpt>
      <trkpt lat="45.9652" lon="4.84515">
        <ele>253</ele>
        <time>2017-04-05T09:02:56Z</time>
      </trkpt>
      <trkpt lat="45.9652" lon="4.84522">
        <ele>253</ele>
        <time>2017-04-05T09:02:57Z</time>
      </trkpt>
      <trkpt lat="45.96519" lon="4.84528">
        <ele>253</ele>
        <time>2017-04-05T09:02:58Z</time>
      </trkpt>
      <trkpt lat="45.96519" lon="4.84541">
        <ele>253</ele>
        <time>2017-04-05T09:03:00Z</time>
      </trkpt>
      <trkpt lat="45.9652" lon="4.84547">
        <ele>253</ele>
        <time>2017-04-05T09:03:01Z</time>
      </trkpt>
      <trkpt lat="45.9652" lon="4.84554">
        <ele>253</ele>
        <time>2017-04-05T09:03:02Z</time>
      </trkpt>
      <trkpt lat="45.96519" lon="4.8456">
        <ele>253</ele>
        <time>2017-04-05T09:03:03Z</time>
      </trkpt>
      <trkpt lat="45.96519" lon="4.84567">
        <ele>253</ele>
        <time>2017-04-05T09:03:04Z</time>
      </trkpt>
      <trkpt lat="45.96519" lon="4.84574">
        <ele>252</ele>
        <time>2017-04-05T09:03:05Z</time>
      </trkpt>
      <trkpt lat="45.96519" lon="4.84586">
        <ele>252</ele>
        <time>2017-04-05T09:03:07Z</time>
      </trkpt>
      <trkpt lat="45.96518" lon="4.84592">
        <ele>252</ele>
        <time>2017-04-05T09:03:08Z</time>
      </trkpt>
      <trkpt lat="45.96518" lon="4.84604">
        <ele>252</ele>
        <time>2017-04-05T09:03:10Z</time>
      </trkpt>
      <trkpt lat="45.96517" lon="4.84609">
        <ele>252</ele>
        <time>2017-04-05T09:03:11Z</time>
      </trkpt>
      <trkpt lat="45.96517" lon="4.84621">
        <ele>252</ele>
        <time>2017-04-05T09:03:13Z</time>
      </trkpt>
      <trkpt lat="45.96517" lon="4.84626">
        <ele>252</ele>
        <time>2017-04-05T09:03:14Z</time>
      </trkpt>
      <trkpt lat="45.96516" lon="4.84637">
        <ele>252</ele>
        <time>2017-04-05T09:03:16Z</time>
      </trkpt>
      <trkpt lat="45.96517" lon="4.84643">
        <ele>252</ele>
        <time>2017-04-05T09:03:17Z</time>
      </trkpt>
      <trkpt lat="45.96517" lon="4.84654">
        <ele>252</ele>
        <time>2017-04-05T09:03:19Z</time>
      </trkpt>
      <trkpt lat="45.96518" lon="4.84659">
        <ele>252</ele>
        <time>2017-04-05T09:03:20Z</time>
      </trkpt>
      <trkpt lat="45.9652" lon="4.8467">
        <ele>252</ele>
        <time>2017-04-05T09:03:22Z</time>
      </trkpt>
      <trkpt lat="45.96521" lon="4.84675">
        <ele>252</ele>
        <time>2017-04-05T09:03:23Z</time>
      </trkpt>
      <trkpt lat="45.96523" lon="4.84687">
        <ele>252</ele>
        <time>2017-04-05T09:03:25Z</time>
      </trkpt>
      <trkpt lat="45.96525" lon="4.84693">
        <ele>253</ele>
        <time>2017-04-05T09:03:26Z</time>
      </trkpt>
      <trkpt lat="45.96526" lon="4.84706">
        <ele>253</ele>
        <time>2017-04-05T09:03:28Z</time>
      </trkpt>
      <trkpt lat="45.96526" lon="4.84712">
        <ele>253</ele>
        <time>2017-04-05T09:03:29Z</time>
      </trkpt>
      <trkpt lat="45.96526" lon="4.84723">
        <ele>253</ele>
        <time>2017-04-05T09:03:31Z</time>
      </trkpt>
      <trkpt lat="45.96525" lon="4.84729">
        <ele>253</ele>
        <time>2017-04-05T09:03:32Z</time>
      </trkpt>
      <trkpt lat="45.96522" lon="4.8474">
        <ele>252</ele>
        <time>2017-04-05T09:03:34Z</time>
      </trkpt>
      <trkpt lat="45.9652" lon="4.84746">
        <ele>252</ele>
        <time>2017-04-05T09:03:35Z</time>
      </trkpt>
      <trkpt lat="45.96517" lon="4.84755">
        <ele>253</ele>
        <time>2017-04-05T09:03:37Z</time>
      </trkpt>
      <trkpt lat="45.96516" lon="4.8476">
        <ele>253</ele>
        <time>2017-04-05T09:03:38Z</time>
      </trkpt>
      <trkpt lat="45.96514" lon="4.84772">
        <ele>253</ele>
        <time>2017-04-05T09:03:40Z</time>
      </trkpt>
      <trkpt lat="45.96513" lon="4.84778">
        <ele>253</ele>
        <time>2017-04-05T09:03:41Z</time>
      </trkpt>
      <trkpt lat="45.9651" lon="4.84789">
        <ele>254</ele>
        <time>2017-04-05T09:03:43Z</time>
      </trkpt>
      <trkpt lat="45.96509" lon="4.84794">
        <ele>254</ele>
        <time>2017-04-05T09:03:44Z</time>
      </trkpt>
      <trkpt lat="45.96506" lon="4.84806">
        <ele>254</ele>
        <time>2017-04-05T09:03:46Z</time>
      </trkpt>
      <trkpt lat="45.96506" lon="4.84811">
        <ele>254</ele>
        <time>2017-04-05T09:03:47Z</time>
      </trkpt>
      <trkpt lat="45.96503" lon="4.84822">
        <ele>254</ele>
        <time>2017-04-05T09:03:49Z</time>
      </trkpt>
      <trkpt lat="45.96502" lon="4.84827">
        <ele>253</ele>
        <time>2017-04-05T09:03:50Z</time>
      </trkpt>
      <trkpt lat="45.96499" lon="4.84838">
        <ele>253</ele>
        <time>2017-04-05T09:03:52Z</time>
      </trkpt>
      <trkpt lat="45.96498" lon="4.84843">
        <ele>254</ele>
        <time>2017-04-05T09:03:53Z</time>
      </trkpt>
      <trkpt lat="45.96495" lon="4.84853">
        <ele>254</ele>
        <time>2017-04-05T09:03:55Z</time>
      </trkpt>
      <trkpt lat="45.96493" lon="4.84859">
        <ele>254</ele>
        <time>2017-04-05T09:03:56Z</time>
      </trkpt>
      <trkpt lat="45.96491" lon="4.84869">
        <ele>255</ele>
        <time>2017-04-05T09:03:58Z</time>
      </trkpt>
      <trkpt lat="45.9649" lon="4.84874">
        <ele>255</ele>
        <time>2017-04-05T09:03:59Z</time>
      </trkpt>
      <trkpt lat="45.96488" lon="4.84883">
        <ele>255</ele>
        <time>2017-04-05T09:04:01Z</time>
      </trkpt>
      <trkpt lat="45.96487" lon="4.84888">
        <ele>255</ele>
        <time>2017-04-05T09:04:02Z</time>
      </trkpt>
      <trkpt lat="45.96485" lon="4.84898">
        <ele>256</ele>
        <time>2017-04-05T09:04:04Z</time>
      </trkpt>
      <trkpt lat="45.96484" lon="4.84903">
        <ele>256</ele>
        <time>2017-04-05T09:04:05Z</time>
      </trkpt>
      <trkpt lat="45.96481" lon="4.84912">
        <ele>256</ele>
        <time>2017-04-05T09:04:07Z</time>
      </trkpt>
      <trkpt lat="45.9648" lon="4.84916">
        <ele>256</ele>
        <time>2017-04-05T09:04:08Z</time>
      </trkpt>
      <trkpt lat="45.96478" lon="4.84925">
        <ele>259</ele>
        <time>2017-04-05T09:04:10Z</time>
      </trkpt>
      <trkpt lat="45.96477" lon="4.8493">
        <ele>260</ele>
        <time>2017-04-05T09:04:11Z</time>
      </trkpt>
      <trkpt lat="45.96475" lon="4.84939">
        <ele>260</ele>
        <time>2017-04-05T09:04:13Z</time>
      </trkpt>
      <trkpt lat="45.96474" lon="4.84944">
        <ele>260</ele>
        <time>2017-04-05T09:04:14Z</time>
      </trkpt>
      <trkpt lat="45.96473" lon="4.84953">
        <ele>261</ele>
        <time>2017-04-05T09:04:16Z</time>
      </trkpt>
      <trkpt lat="45.96472" lon="4.84957">
        <ele>261</ele>
        <time>2017-04-05T09:04:17Z</time>
      </trkpt>
      <trkpt lat="45.9647" lon="4.84967">
        <ele>261</ele>
        <time>2017-04-05T09:04:19Z</time>
      </trkpt>
      <trkpt lat="45.96469" lon="4.84971">
        <ele>262</ele>
        <time>2017-04-05T09:04:20Z</time>
      </trkpt>
      <trkpt lat="45.96467" lon="4.84979">
        <ele>262</ele>
        <time>2017-04-05T09:04:22Z</time>
      </trkpt>
      <trkpt lat="45.96467" lon="4.84984">
        <ele>262</ele>
        <time>2017-04-05T09:04:23Z</time>
      </trkpt>
      <trkpt lat="45.96466" lon="4.84995">
        <ele>262</ele>
        <time>2017-04-05T09:04:26Z</time>
      </trkpt>
      <trkpt lat="45.96465" lon="4.84999">
        <ele>263</ele>
        <time>2017-04-05T09:04:27Z</time>
      </trkpt>
      <trkpt lat="45.96465" lon="4.85011">
        <ele>266</ele>
        <time>2017-04-05T09:04:30Z</time>
      </trkpt>
      <trkpt lat="45.96465" lon="4.85015">
        <ele>266</ele>
        <time>2017-04-05T09:04:31Z</time>
      </trkpt>
      <trkpt lat="45.96465" lon="4.85027">
        <ele>266</ele>
        <time>2017-04-05T09:04:34Z</time>
      </trkpt>
      <trkpt lat="45.96465" lon="4.85031">
        <ele>266</ele>
        <time>2017-04-05T09:04:35Z</time>
      </trkpt>
      <trkpt lat="45.96464" lon="4.85043">
        <ele>266</ele>
        <time>2017-04-05T09:04:38Z</time>
      </trkpt>
      <trkpt lat="45.96464" lon="4.85048">
        <ele>266</ele>
        <time>2017-04-05T09:04:39Z</time>
      </trkpt>
      <trkpt lat="45.96464" lon="4.85056">
        <ele>266</ele>
        <time>2017-04-05T09:04:41Z</time>
      </trkpt>
      <trkpt lat="45.96464" lon="4.85061">
        <ele>266</ele>
        <time>2017-04-05T09:04:42Z</time>
      </trkpt>
      <trkpt lat="45.96463" lon="4.8507">
        <ele>266</ele>
        <time>2017-04-05T09:04:44Z</time>
      </trkpt>
      <trkpt lat="45.96463" lon="4.85075">
        <ele>266</ele>
        <time>2017-04-05T09:04:45Z</time>
      </trkpt>
      <trkpt lat="45.96463" lon="4.85084">
        <ele>268</ele>
        <time>2017-04-05T09:04:47Z</time>
      </trkpt>
      <trkpt lat="45.96463" lon="4.85088">
        <ele>268</ele>
        <time>2017-04-05T09:04:48Z</time>
      </trkpt>
      <trkpt lat="45.96463" lon="4.85097">
        <ele>268</ele>
        <time>2017-04-05T09:04:50Z</time>
      </trkpt>
      <trkpt lat="45.96463" lon="4.85101">
        <ele>268</ele>
        <time>2017-04-05T09:04:51Z</time>
      </trkpt>
      <trkpt lat="45.96462" lon="4.85113">
        <ele>268</ele>
        <time>2017-04-05T09:04:54Z</time>
      </trkpt>
      <trkpt lat="45.96461" lon="4.85117">
        <ele>268</ele>
        <time>2017-04-05T09:04:55Z</time>
      </trkpt>
      <trkpt lat="45.96459" lon="4.85127">
        <ele>268</ele>
        <time>2017-04-05T09:04:58Z</time>
      </trkpt>
      <trkpt lat="45.96458" lon="4.85131">
        <ele>268</ele>
        <time>2017-04-05T09:04:59Z</time>
      </trkpt>
      <trkpt lat="45.96455" lon="4.85142">
        <ele>268</ele>
        <time>2017-04-05T09:05:02Z</time>
      </trkpt>
      <trkpt lat="45.96454" lon="4.85146">
        <ele>268</ele>
        <time>2017-04-05T09:05:03Z</time>
      </trkpt>
      <trkpt lat="45.96452" lon="4.85158">
        <ele>268</ele>
        <time>2017-04-05T09:05:06Z</time>
      </trkpt>
      <trkpt lat="45.96452" lon="4.85162">
        <ele>268</ele>
        <time>2017-04-05T09:05:07Z</time>
      </trkpt>
      <trkpt lat="45.96451" lon="4.85174">
        <ele>269</ele>
        <time>2017-04-05T09:05:10Z</time>
      </trkpt>
      <trkpt lat="45.9645" lon="4.85178">
        <ele>269</ele>
        <time>2017-04-05T09:05:11Z</time>
      </trkpt>
      <trkpt lat="45.96448" lon="4.8519">
        <ele>269</ele>
        <time>2017-04-05T09:05:14Z</time>
      </trkpt>
      <trkpt lat="45.96447" lon="4.85194">
        <ele>269</ele>
        <time>2017-04-05T09:05:15Z</time>
      </trkpt>
      <trkpt lat="45.96447" lon="4.85202">
        <ele>269</ele>
        <time>2017-04-05T09:05:17Z</time>
      </trkpt>
      <trkpt lat="45.96447" lon="4.85207">
        <ele>269</ele>
        <time>2017-04-05T09:05:18Z</time>
      </trkpt>
      <trkpt lat="45.96447" lon="4.85216">
        <ele>269</ele>
        <time>2017-04-05T09:05:20Z</time>
      </trkpt>
      <trkpt lat="45.96447" lon="4.8522">
        <ele>269</ele>
        <time>2017-04-05T09:05:21Z</time>
      </trkpt>
      <trkpt lat="45.96446" lon="4.85229">
        <ele>269</ele>
        <time>2017-04-05T09:05:23Z</time>
      </trkpt>
      <trkpt lat="45.96446" lon="4.85233">
        <ele>269</ele>
        <time>2017-04-05T09:05:24Z</time>
      </trkpt>
      <trkpt lat="45.96446" lon="4.85242">
        <ele>269</ele>
        <time>2017-04-05T09:05:26Z</time>
      </trkpt>
      <trkpt lat="45.96446" lon="4.85247">
        <ele>269</ele>
        <time>2017-04-05T09:05:27Z</time>
      </trkpt>
      <trkpt lat="45.96446" lon="4.85259">
        <ele>270</ele>
        <time>2017-04-05T09:05:30Z</time>
      </trkpt>
      <trkpt lat="45.96446" lon="4.85264">
        <ele>270</ele>
        <time>2017-04-05T09:05:31Z</time>
      </trkpt>
      <trkpt lat="45.96446" lon="4.85276">
        <ele>270</ele>
        <time>2017-04-05T09:05:34Z</time>
      </trkpt>
      <trkpt lat="45.96446" lon="4.85281">
        <ele>270</ele>
        <time>2017-04-05T09:05:35Z</time>
      </trkpt>
      <trkpt lat="45.96446" lon="4.85293">
        <ele>270</ele>
        <time>2017-04-05T09:05:38Z</time>
      </trkpt>
      <trkpt lat="45.96446" lon="4.85298">
        <ele>270</ele>
        <time>2017-04-05T09:05:39Z</time>
      </trkpt>
      <trkpt lat="45.96447" lon="4.85308">
        <ele>270</ele>
        <time>2017-04-05T09:05:41Z</time>
      </trkpt>
      <trkpt lat="45.96447" lon="4.85312">
        <ele>271</ele>
        <time>2017-04-05T09:05:42Z</time>
      </trkpt>
      <trkpt lat="45.96448" lon="4.85322">
        <ele>271</ele>
        <time>2017-04-05T09:05:44Z</time>
      </trkpt>
      <trkpt lat="45.96449" lon="4.85326">
        <ele>271</ele>
        <time>2017-04-05T09:05:45Z</time>
      </trkpt>
      <trkpt lat="45.9645" lon="4.85336">
        <ele>271</ele>
        <time>2017-04-05T09:05:47Z</time>
      </trkpt>
      <trkpt lat="45.96451" lon="4.85341">
        <ele>271</ele>
        <time>2017-04-05T09:05:48Z</time>
      </trkpt>
      <trkpt lat="45.96452" lon="4.85352">
        <ele>272</ele>
        <time>2017-04-05T09:05:50Z</time>
      </trkpt>
      <trkpt lat="45.96452" lon="4.85357">
        <ele>272</ele>
        <time>2017-04-05T09:05:51Z</time>
      </trkpt>
      <trkpt lat="45.96453" lon="4.85368">
        <ele>272</ele>
        <time>2017-04-05T09:05:53Z</time>
      </trkpt>
      <trkpt lat="45.96453" lon="4.85373">
        <ele>272</ele>
        <time>2017-04-05T09:05:54Z</time>
      </trkpt>
      <trkpt lat="45.96454" lon="4.85384">
        <ele>272</ele>
        <time>2017-04-05T09:05:56Z</time>
      </trkpt>
      <trkpt lat="45.96455" lon="4.85389">
        <ele>272</ele>
        <time>2017-04-05T09:05:57Z</time>
      </trkpt>
      <trkpt lat="45.96456" lon="4.854">
        <ele>272</ele>
        <time>2017-04-05T09:05:59Z</time>
      </trkpt>
      <trkpt lat="45.96457" lon="4.85406">
        <ele>272</ele>
        <time>2017-04-05T09:06:00Z</time>
      </trkpt>
      <trkpt lat="45.96458" lon="4.85417">
        <ele>272</ele>
        <time>2017-04-05T09:06:02Z</time>
      </trkpt>
      <trkpt lat="45.96458" lon="4.85423">
        <ele>272</ele>
        <time>2017-04-05T09:06:03Z</time>
      </trkpt>
      <trkpt lat="45.96459" lon="4.85434">
        <ele>272</ele>
        <time>2017-04-05T09:06:05Z</time>
      </trkpt>
      <trkpt lat="45.96459" lon="4.8544">
        <ele>272</ele>
        <time>2017-04-05T09:06:06Z</time>
      </trkpt>
      <trkpt lat="45.9646" lon="4.85452">
        <ele>272</ele>
        <time>2017-04-05T09:06:08Z</time>
      </trkpt>
      <trkpt lat="45.9646" lon="4.85458">
        <ele>272</ele>
        <time>2017-04-05T09:06:09Z</time>
      </trkpt>
      <trkpt lat="45.9646" lon="4.85471">
        <ele>272</ele>
        <time>2017-04-05T09:06:11Z</time>
      </trkpt>
      <trkpt lat="45.9646" lon="4.85478">
        <ele>272</ele>
        <time>2017-04-05T09:06:12Z</time>
      </trkpt>
      <trkpt lat="45.96461" lon="4.85489">
        <ele>272</ele>
        <time>2017-04-05T09:06:14Z</time>
      </trkpt>
      <trkpt lat="45.9646" lon="4.85494">
        <ele>272</ele>
        <time>2017-04-05T09:06:15Z</time>
      </trkpt>
      <trkpt lat="45.96459" lon="4.85505">
        <ele>272</ele>
        <time>2017-04-05T09:06:17Z</time>
      </trkpt>
      <trkpt lat="45.96458" lon="4.85511">
        <ele>272</ele>
        <time>2017-04-05T09:06:18Z</time>
      </trkpt>
      <trkpt lat="45.96458" lon="4.85523">
        <ele>272</ele>
        <time>2017-04-05T09:06:20Z</time>
      </trkpt>
      <trkpt lat="45.96458" lon="4.85529">
        <ele>272</ele>
        <time>2017-04-05T09:06:21Z</time>
      </trkpt>
      <trkpt lat="45.96459" lon="4.85541">
        <ele>272</ele>
        <time>2017-04-05T09:06:23Z</time>
      </trkpt>
      <trkpt lat="45.9646" lon="4.85547">
        <ele>271</ele>
        <time>2017-04-05T09:06:24Z</time>
      </trkpt>
      <trkpt lat="45.96461" lon="4.85557">
        <ele>271</ele>
        <time>2017-04-05T09:06:26Z</time>
      </trkpt>
      <trkpt lat="45.96462" lon="4.85561">
        <ele>271</ele>
        <time>2017-04-05T09:06:27Z</time>
      </trkpt>
      <trkpt lat="45.96463" lon="4.8557">
        <ele>271</ele>
        <time>2017-04-05T09:06:29Z</time>
      </trkpt>
      <trkpt lat="45.96463" lon="4.85575">
        <ele>271</ele>
        <time>2017-04-05T09:06:30Z</time>
      </trkpt>
      <trkpt lat="45.96465" lon="4.85585">
        <ele>271</ele>
        <time>2017-04-05T09:06:32Z</time>
      </trkpt>
      <trkpt lat="45.96466" lon="4.8559">
        <ele>271</ele>
        <time>2017-04-05T09:06:33Z</time>
      </trkpt>
      <trkpt lat="45.96467" lon="4.85601">
        <ele>271</ele>
        <time>2017-04-05T09:06:35Z</time>
      </trkpt>
      <trkpt lat="45.96468" lon="4.85607">
        <ele>271</ele>
        <time>2017-04-05T09:06:36Z</time>
      </trkpt>
      <trkpt lat="45.96469" lon="4.85618">
        <ele>271</ele>
        <time>2017-04-05T09:06:38Z</time>
      </trkpt>
      <trkpt lat="45.9647" lon="4.85624">
        <ele>271</ele>
        <time>2017-04-05T09:06:39Z</time>
      </trkpt>
      <trkpt lat="45.96471" lon="4.85635">
        <ele>271</ele>
        <time>2017-04-05T09:06:41Z</time>
      </trkpt>
      <trkpt lat="45.96472" lon="4.85641">
        <ele>271</ele>
        <time>2017-04-05T09:06:42Z</time>
      </trkpt>
      <trkpt lat="45.96474" lon="4.85653">
        <ele>271</ele>
        <time>2017-04-05T09:06:44Z</time>
      </trkpt>
      <trkpt lat="45.96475" lon="4.85658">
        <ele>271</ele>
        <time>2017-04-05T09:06:45Z</time>
      </trkpt>
      <trkpt lat="45.96476" lon="4.85668">
        <ele>272</ele>
        <time>2017-04-05T09:06:47Z</time>
      </trkpt>
      <trkpt lat="45.96477" lon="4.85674">
        <ele>272</ele>
        <time>2017-04-05T09:06:48Z</time>
      </trkpt>
      <trkpt lat="45.96478" lon="4.85686">
        <ele>272</ele>
        <time>2017-04-05T09:06:50Z</time>
      </trkpt>
      <trkpt lat="45.96479" lon="4.85692">
        <ele>272</ele>
        <time>2017-04-05T09:06:51Z</time>
      </trkpt>
      <trkpt lat="45.9648" lon="4.85703">
        <ele>272</ele>
        <time>2017-04-05T09:06:53Z</time>
      </trkpt>
      <trkpt lat="45.96481" lon="4.85708">
        <ele>272</ele>
        <time>2017-04-05T09:06:54Z</time>
      </trkpt>
      <trkpt lat="45.96482" lon="4.85718">
        <ele>272</ele>
        <time>2017-04-05T09:06:56Z</time>
      </trkpt>
      <trkpt lat="45.96483" lon="4.85723">
        <ele>272</ele>
        <time>2017-04-05T09:06:57Z</time>
      </trkpt>
      <trkpt lat="45.96485" lon="4.85734">
        <ele>273</ele>
        <time>2017-04-05T09:06:59Z</time>
      </trkpt>
      <trkpt lat="45.96486" lon="4.8574">
        <ele>273</ele>
        <time>2017-04-05T09:07:00Z</time>
      </trkpt>
      <trkpt lat="45.96486" lon="4.85751">
        <ele>274</ele>
        <time>2017-04-05T09:07:02Z</time>
      </trkpt>
      <trkpt lat="45.96487" lon="4.85757">
        <ele>274</ele>
        <time>2017-04-05T09:07:03Z</time>
      </trkpt>
      <trkpt lat="45.96489" lon="4.85768">
        <ele>274</ele>
        <time>2017-04-05T09:07:05Z</time>
      </trkpt>
      <trkpt lat="45.9649" lon="4.85774">
        <ele>274</ele>
        <time>2017-04-05T09:07:06Z</time>
      </trkpt>
      <trkpt lat="45.96492" lon="4.85785">
        <ele>274</ele>
        <time>2017-04-05T09:07:08Z</time>
      </trkpt>
      <trkpt lat="45.96493" lon="4.85791">
        <ele>274</ele>
        <time>2017-04-05T09:07:09Z</time>
      </trkpt>
      <trkpt lat="45.96495" lon="4.85803">
        <ele>274</ele>
        <time>2017-04-05T09:07:11Z</time>
      </trkpt>
      <trkpt lat="45.96496" lon="4.85809">
        <ele>274</ele>
        <time>2017-04-05T09:07:12Z</time>
      </trkpt>
      <trkpt lat="45.96497" lon="4.85818">
        <ele>274</ele>
        <time>2017-04-05T09:07:14Z</time>
      </trkpt>
      <trkpt lat="45.96498" lon="4.85823">
        <ele>275</ele>
        <time>2017-04-05T09:07:15Z</time>
      </trkpt>
      <trkpt lat="45.96499" lon="4.85833">
        <ele>275</ele>
        <time>2017-04-05T09:07:17Z</time>
      </trkpt>
      <trkpt lat="45.965" lon="4.85837">
        <ele>275</ele>
        <time>2017-04-05T09:07:18Z</time>
      </trkpt>
      <trkpt lat="45.96501" lon="4.85848">
        <ele>275</ele>
        <time>2017-04-05T09:07:20Z</time>
      </trkpt>
      <trkpt lat="45.96502" lon="4.85853">
        <ele>275</ele>
        <time>2017-04-05T09:07:21Z</time>
      </trkpt>
      <trkpt lat="45.96503" lon="4.85862">
        <ele>275</ele>
        <time>2017-04-05T09:07:23Z</time>
      </trkpt>
      <trkpt lat="45.96503" lon="4.85868">
        <ele>275</ele>
        <time>2017-04-05T09:07:24Z</time>
      </trkpt>
      <trkpt lat="45.96505" lon="4.85879">
        <ele>275</ele>
        <time>2017-04-05T09:07:26Z</time>
      </trkpt>
      <trkpt lat="45.96506" lon="4.85884">
        <ele>275</ele>
        <time>2017-04-05T09:07:27Z</time>
      </trkpt>
      <trkpt lat="45.96508" lon="4.85895">
        <ele>275</ele>
        <time>2017-04-05T09:07:29Z</time>
      </trkpt>
      <trkpt lat="45.96509" lon="4.859">
        <ele>275</ele>
        <time>2017-04-05T09:07:30Z</time>
      </trkpt>
      <trkpt lat="45.96512" lon="4.8591">
        <ele>275</ele>
        <time>2017-04-05T09:07:32Z</time>
      </trkpt>
      <trkpt lat="45.96513" lon="4.85915">
        <ele>275</ele>
        <time>2017-04-05T09:07:33Z</time>
      </trkpt>
      <trkpt lat="45.96515" lon="4.85926">
        <ele>275</ele>
        <time>2017-04-05T09:07:35Z</time>
      </trkpt>
      <trkpt lat="45.96517" lon="4.85931">
        <ele>275</ele>
        <time>2017-04-05T09:07:36Z</time>
      </trkpt>
      <trkpt lat="45.9652" lon="4.85941">
        <ele>275</ele>
        <time>2017-04-05T09:07:38Z</time>
      </trkpt>
      <trkpt lat="45.96522" lon="4.85945">
        <ele>275</ele>
        <time>2017-04-05T09:07:39Z</time>
      </trkpt>
      <trkpt lat="45.96526" lon="4.85954">
        <ele>275</ele>
        <time>2017-04-05T09:07:41Z</time>
      </trkpt>
      <trkpt lat="45.96528" lon="4.85959">
        <ele>275</ele>
        <time>2017-04-05T09:07:42Z</time>
      </trkpt>
      <trkpt lat="45.96532" lon="4.85967">
        <ele>275</ele>
        <time>2017-04-05T09:07:44Z</time>
      </trkpt>
      <trkpt lat="45.96534" lon="4.85972">
        <ele>275</ele>
        <time>2017-04-05T09:07:45Z</time>
      </trkpt>
      <trkpt lat="45.96538" lon="4.8598">
        <ele>275</ele>
        <time>2017-04-05T09:07:47Z</time>
      </trkpt>
      <trkpt lat="45.9654" lon="4.85984">
        <ele>275</ele>
        <time>2017-04-05T09:07:48Z</time>
      </trkpt>
      <trkpt lat="45.96544" lon="4.85992">
        <ele>275</ele>
        <time>2017-04-05T09:07:50Z</time>
      </trkpt>
      <trkpt lat="45.96546" lon="4.85996">
        <ele>275</ele>
        <time>2017-04-05T09:07:51Z</time>
      </trkpt>
      <trkpt lat="45.96552" lon="4.86004">
        <ele>276</ele>
        <time>2017-04-05T09:07:53Z</time>
      </trkpt>
      <trkpt lat="45.96554" lon="4.86008">
        <ele>276</ele>
        <time>2017-04-05T09:07:54Z</time>
      </trkpt>
      <trkpt lat="45.96559" lon="4.86017">
        <ele>276</ele>
        <time>2017-04-05T09:07:56Z</time>
      </trkpt>
      <trkpt lat="45.96561" lon="4.86022">
        <ele>276</ele>
        <time>2017-04-05T09:07:57Z</time>
      </trkpt>
      <trkpt lat="45.96565" lon="4.86031">
        <ele>276</ele>
        <time>2017-04-05T09:07:59Z</time>
      </trkpt>
      <trkpt lat="45.96567" lon="4.86035">
        <ele>276</ele>
        <time>2017-04-05T09:08:00Z</time>
      </trkpt>
      <trkpt lat="45.96571" lon="4.86043">
        <ele>276</ele>
        <time>2017-04-05T09:08:02Z</time>
      </trkpt>
      <trkpt lat="45.96573" lon="4.86047">
        <ele>276</ele>
        <time>2017-04-05T09:08:03Z</time>
      </trkpt>
      <trkpt lat="45.96576" lon="4.86056">
        <ele>277</ele>
        <time>2017-04-05T09:08:05Z</time>
      </trkpt>
      <trkpt lat="45.96578" lon="4.8606">
        <ele>277</ele>
        <time>2017-04-05T09:08:06Z</time>
      </trkpt>
      <trkpt lat="45.96581" lon="4.86067">
        <ele>277</ele>
        <time>2017-04-05T09:08:08Z</time>
      </trkpt>
      <trkpt lat="45.96583" lon="4.86071">
        <ele>277</ele>
        <time>2017-04-05T09:08:09Z</time>
      </trkpt>
      <trkpt lat="45.96586" lon="4.8608">
        <ele>279</ele>
        <time>2017-04-05T09:08:11Z</time>
      </trkpt>
      <trkpt lat="45.96587" lon="4.86084">
        <ele>279</ele>
        <time>2017-04-05T09:08:12Z</time>
      </trkpt>
      <trkpt lat="45.96589" lon="4.86093">
        <ele>279</ele>
        <time>2017-04-05T09:08:14Z</time>
      </trkpt>
      <trkpt lat="45.9659" lon="4.86098">
        <ele>280</ele>
        <time>2017-04-05T09:08:15Z</time>
      </trkpt>
      <trkpt lat="45.96591" lon="4.86107">
        <ele>280</ele>
        <time>2017-04-05T09:08:17Z</time>
      </trkpt>
      <trkpt lat="45.96591" lon="4.86112">
        <ele>281</ele>
        <time>2017-04-05T09:08:18Z</time>
      </trkpt>
      <trkpt lat="45.96591" lon="4.86122">
        <ele>281</ele>
        <time>2017-04-05T09:08:20Z</time>
      </trkpt>
      <trkpt lat="45.96591" lon="4.86127">
        <ele>281</ele>
        <time>2017-04-05T09:08:21Z</time>
      </trkpt>
      <trkpt lat="45.96591" lon="4.86137">
        <ele>281</ele>
        <time>2017-04-05T09:08:23Z</time>
      </trkpt>
      <trkpt lat="45.96591" lon="4.86142">
        <ele>281</ele>
        <time>2017-04-05T09:08:24Z</time>
      </trkpt>
      <trkpt lat="45.96589" lon="4.86151">
        <ele>281</ele>
        <time>2017-04-05T09:08:26Z</time>
      </trkpt>
      <trkpt lat="45.96589" lon="4.86155">
        <ele>281</ele>
        <time>2017-04-05T09:08:27Z</time>
      </trkpt>
      <trkpt lat="45.96587" lon="4.86168">
        <ele>280</ele>
        <time>2017-04-05T09:08:30Z</time>
      </trkpt>
      <trkpt lat="45.96587" lon="4.86172">
        <ele>281</ele>
        <time>2017-04-05T09:08:31Z</time>
      </trkpt>
      <trkpt lat="45.96586" lon="4.8618">
        <ele>281</ele>
        <time>2017-04-05T09:08:33Z</time>
      </trkpt>
      <trkpt lat="45.96586" lon="4.86185">
        <ele>281</ele>
        <time>2017-04-05T09:08:34Z</time>
      </trkpt>
      <trkpt lat="45.96585" lon="4.86193">
        <ele>282</ele>
        <time>2017-04-05T09:08:36Z</time>
      </trkpt>
      <trkpt lat="45.96584" lon="4.86197">
        <ele>282</ele>
        <time>2017-04-05T09:08:37Z</time>
      </trkpt>
      <trkpt lat="45.96581" lon="4.86209">
        <ele>280</ele>
        <time>2017-04-05T09:08:40Z</time>
      </trkpt>
      <trkpt lat="45.9658" lon="4.86213">
        <ele>280</ele>
        <time>2017-04-05T09:08:41Z</time>
      </trkpt>
      <trkpt lat="45.96579" lon="4.86224">
        <ele>280</ele>
        <time>2017-04-05T09:08:44Z</time>
      </trkpt>
      <trkpt lat="45.96578" lon="4.86228">
        <ele>280</ele>
        <time>2017-04-05T09:08:45Z</time>
      </trkpt>
      <trkpt lat="45.96577" lon="4.8624">
        <ele>280</ele>
        <time>2017-04-05T09:08:48Z</time>
      </trkpt>
      <trkpt lat="45.96577" lon="4.86244">
        <ele>280</ele>
        <time>2017-04-05T09:08:49Z</time>
      </trkpt>
      <trkpt lat="45.96576" lon="4.86257">
        <ele>281</ele>
        <time>2017-04-05T09:08:52Z</time>
      </trkpt>
      <trkpt lat="45.96575" lon="4.86261">
        <ele>281</ele>
        <time>2017-04-05T09:08:53Z</time>
      </trkpt>
      <trkpt lat="45.96575" lon="4.86273">
        <ele>282</ele>
        <time>2017-04-05T09:08:56Z</time>
      </trkpt>
      <trkpt lat="45.96575" lon="4.86277">
        <ele>282</ele>
        <time>2017-04-05T09:08:57Z</time>
      </trkpt>
      <trkpt lat="45.96573" lon="4.86289">
        <ele>282</ele>
        <time>2017-04-05T09:09:00Z</time>
      </trkpt>
      <trkpt lat="45.96573" lon="4.86293">
        <ele>282</ele>
        <time>2017-04-05T09:09:01Z</time>
      </trkpt>
      <trkpt lat="45.96573" lon="4.86305">
        <ele>283</ele>
        <time>2017-04-05T09:09:04Z</time>
      </trkpt>
      <trkpt lat="45.96573" lon="4.8631">
        <ele>283</ele>
        <time>2017-04-05T09:09:05Z</time>
      </trkpt>
      <trkpt lat="45.96572" lon="4.86318">
        <ele>283</ele>
        <time>2017-04-05T09:09:07Z</time>
      </trkpt>
      <trkpt lat="45.96572" lon="4.86323">
        <ele>283</ele>
        <time>2017-04-05T09:09:08Z</time>
      </trkpt>
      <trkpt lat="45.96572" lon="4.86335">
        <ele>285</ele>
        <time>2017-04-05T09:09:11Z</time>
      </trkpt>
      <trkpt lat="45.96572" lon="4.86339">
        <ele>285</ele>
        <time>2017-04-05T09:09:12Z</time>
      </trkpt>
      <trkpt lat="45.96572" lon="4.86351">
        <ele>285</ele>
        <time>2017-04-05T09:09:15Z</time>
      </trkpt>
      <trkpt lat="45.96572" lon="4.86355">
        <ele>285</ele>
        <time>2017-04-05T09:09:16Z</time>
      </trkpt>
      <trkpt lat="45.96572" lon="4.86368">
        <ele>286</ele>
        <time>2017-04-05T09:09:19Z</time>
      </trkpt>
      <trkpt lat="45.96572" lon="4.86372">
        <ele>286</ele>
        <time>2017-04-05T09:09:20Z</time>
      </trkpt>
      <trkpt lat="45.96572" lon="4.86384">
        <ele>286</ele>
        <time>2017-04-05T09:09:23Z</time>
      </trkpt>
      <trkpt lat="45.96572" lon="4.86388">
        <ele>287</ele>
        <time>2017-04-05T09:09:24Z</time>
      </trkpt>
      <trkpt lat="45.96572" lon="4.86401">
        <ele>287</ele>
        <time>2017-04-05T09:09:27Z</time>
      </trkpt>
      <trkpt lat="45.96572" lon="4.86404">
        <ele>288</ele>
        <time>2017-04-05T09:09:28Z</time>
      </trkpt>
      <trkpt lat="45.96572" lon="4.86416">
        <ele>288</ele>
        <time>2017-04-05T09:09:31Z</time>
      </trkpt>
      <trkpt lat="45.96572" lon="4.8642">
        <ele>289</ele>
        <time>2017-04-05T09:09:32Z</time>
      </trkpt>
      <trkpt lat="45.96572" lon="4.8643">
        <ele>289</ele>
        <time>2017-04-05T09:09:34Z</time>
      </trkpt>
      <trkpt lat="45.96573" lon="4.86434">
        <ele>289</ele>
        <time>2017-04-05T09:09:35Z</time>
      </trkpt>
      <trkpt lat="45.96574" lon="4.86447">
        <ele>289</ele>
        <time>2017-04-05T09:09:38Z</time>
      </trkpt>
      <trkpt lat="45.96574" lon="4.86452">
        <ele>289</ele>
        <time>2017-04-05T09:09:39Z</time>
      </trkpt>
      <trkpt lat="45.96575" lon="4.86461">
        <ele>289</ele>
        <time>2017-04-05T09:09:41Z</time>
      </trkpt>
      <trkpt lat="45.96575" lon="4.86466">
        <ele>289</ele>
        <time>2017-04-05T09:09:42Z</time>
      </trkpt>
      <trkpt lat="45.96577" lon="4.86475">
        <ele>290</ele>
        <time>2017-04-05T09:09:44Z</time>
      </trkpt>
      <trkpt lat="45.96578" lon="4.8648">
        <ele>290</ele>
        <time>2017-04-05T09:09:45Z</time>
      </trkpt>
      <trkpt lat="45.96582" lon="4.86488">
        <ele>290</ele>
        <time>2017-04-05T09:09:47Z</time>
      </trkpt>
      <trkpt lat="45.96584" lon="4.86492">
        <ele>292</ele>
        <time>2017-04-05T09:09:48Z</time>
      </trkpt>
      <trkpt lat="45.96588" lon="4.865">
        <ele>292</ele>
        <time>2017-04-05T09:09:50Z</time>
      </trkpt>
      <trkpt lat="45.9659" lon="4.86504">
        <ele>292</ele>
        <time>2017-04-05T09:09:51Z</time>
      </trkpt>
      <trkpt lat="45.96595" lon="4.8651">
        <ele>291</ele>
        <time>2017-04-05T09:09:53Z</time>
      </trkpt>
      <trkpt lat="45.96598" lon="4.86513">
        <ele>291</ele>
        <time>2017-04-05T09:09:54Z</time>
      </trkpt>
      <trkpt lat="45.96604" lon="4.86518">
        <ele>291</ele>
        <time>2017-04-05T09:09:56Z</time>
      </trkpt>
      <trkpt lat="45.96607" lon="4.86521">
        <ele>291</ele>
        <time>2017-04-05T09:09:57Z</time>
      </trkpt>
      <trkpt lat="45.96612" lon="4.86526">
        <ele>291</ele>
        <time>2017-04-05T09:09:59Z</time>
      </trkpt>
      <trkpt lat="45.96615" lon="4.86529">
        <ele>291</ele>
        <time>2017-04-05T09:10:00Z</time>
      </trkpt>
      <trkpt lat="45.9662" lon="4.86535">
        <ele>291</ele>
        <time>2017-04-05T09:10:02Z</time>
      </trkpt>
      <trkpt lat="45.96623" lon="4.86537">
        <ele>291</ele>
        <time>2017-04-05T09:10:03Z</time>
      </trkpt>
      <trkpt lat="45.96629" lon="4.86543">
        <ele>291</ele>
        <time>2017-04-05T09:10:05Z</time>
      </trkpt>
      <trkpt lat="45.96633" lon="4.86545">
        <ele>291</ele>
        <time>2017-04-05T09:10:06Z</time>
      </trkpt>
      <trkpt lat="45.96639" lon="4.8655">
        <ele>291</ele>
        <time>2017-04-05T09:10:08Z</time>
      </trkpt>
      <trkpt lat="45.96642" lon="4.86553">
        <ele>291</ele>
        <time>2017-04-05T09:10:09Z</time>
      </trkpt>
      <trkpt lat="45.96648" lon="4.86559">
        <ele>291</ele>
        <time>2017-04-05T09:10:11Z</time>
      </trkpt>
      <trkpt lat="45.9665" lon="4.86562">
        <ele>290</ele>
        <time>2017-04-05T09:10:12Z</time>
      </trkpt>
      <trkpt lat="45.96656" lon="4.86568">
        <ele>290</ele>
        <time>2017-04-05T09:10:14Z</time>
      </trkpt>
      <trkpt lat="45.96658" lon="4.86571">
        <ele>290</ele>
        <time>2017-04-05T09:10:15Z</time>
      </trkpt>
      <trkpt lat="45.96664" lon="4.86577">
        <ele>290</ele>
        <time>2017-04-05T09:10:17Z</time>
      </trkpt>
      <trkpt lat="45.96668" lon="4.8658">
        <ele>290</ele>
        <time>2017-04-05T09:10:18Z</time>
      </trkpt>
      <trkpt lat="45.96674" lon="4.86586">
        <ele>290</ele>
        <time>2017-04-05T09:10:20Z</time>
      </trkpt>
      <trkpt lat="45.96678" lon="4.86589">
        <ele>290</ele>
        <time>2017-04-05T09:10:21Z</time>
      </trkpt>
      <trkpt lat="45.96684" lon="4.86596">
        <ele>290</ele>
        <time>2017-04-05T09:10:23Z</time>
      </trkpt>
      <trkpt lat="45.96688" lon="4.86599">
        <ele>290</ele>
        <time>2017-04-05T09:10:24Z</time>
      </trkpt>
      <trkpt lat="45.96695" lon="4.86605">
        <ele>290</ele>
        <time>2017-04-05T09:10:26Z</time>
      </trkpt>
      <trkpt lat="45.96698" lon="4.86608">
        <ele>290</ele>
        <time>2017-04-05T09:10:27Z</time>
      </trkpt>
      <trkpt lat="45.96705" lon="4.86614">
        <ele>290</ele>
        <time>2017-04-05T09:10:29Z</time>
      </trkpt>
      <trkpt lat="45.96708" lon="4.86617">
        <ele>290</ele>
        <time>2017-04-05T09:10:30Z</time>
      </trkpt>
      <trkpt lat="45.96715" lon="4.86622">
        <ele>290</ele>
        <time>2017-04-05T09:10:32Z</time>
      </trkpt>
      <trkpt lat="45.96719" lon="4.86624">
        <ele>290</ele>
        <time>2017-04-05T09:10:33Z</time>
      </trkpt>
      <trkpt lat="45.96726" lon="4.86628">
        <ele>290</ele>
        <time>2017-04-05T09:10:35Z</time>
      </trkpt>
      <trkpt lat="45.96729" lon="4.86631">
        <ele>290</ele>
        <time>2017-04-05T09:10:36Z</time>
      </trkpt>
      <trkpt lat="45.96737" lon="4.86636">
        <ele>290</ele>
        <time>2017-04-05T09:10:38Z</time>
      </trkpt>
      <trkpt lat="45.96739" lon="4.8664">
        <ele>290</ele>
        <time>2017-04-05T09:10:39Z</time>
      </trkpt>
      <trkpt lat="45.96741" lon="4.86651">
        <ele>290</ele>
        <time>2017-04-05T09:10:41Z</time>
      </trkpt>
      <trkpt lat="45.9674" lon="4.86657">
        <ele>290</ele>
        <time>2017-04-05T09:10:42Z</time>
      </trkpt>
      <trkpt lat="45.96735" lon="4.86667">
        <ele>290</ele>
        <time>2017-04-05T09:10:44Z</time>
      </trkpt>
      <trkpt lat="45.96732" lon="4.86671">
        <ele>290</ele>
        <time>2017-04-05T09:10:45Z</time>
      </trkpt>
      <trkpt lat="45.96729" lon="4.86676">
        <ele>289</ele>
        <time>2017-04-05T09:10:46Z</time>
      </trkpt>
      <trkpt lat="45.96726" lon="4.86681">
        <ele>289</ele>
        <time>2017-04-05T09:10:47Z</time>
      </trkpt>
      <trkpt lat="45.96723" lon="4.86686">
        <ele>289</ele>
        <time>2017-04-05T09:10:48Z</time>
      </trkpt>
      <trkpt lat="45.9672" lon="4.86692">
        <ele>289</ele>
        <time>2017-04-05T09:10:49Z</time>
      </trkpt>
      <trkpt lat="45.96717" lon="4.86697">
        <ele>289</ele>
        <time>2017-04-05T09:10:50Z</time>
      </trkpt>
      <trkpt lat="45.96714" lon="4.86702">
        <ele>289</ele>
        <time>2017-04-05T09:10:51Z</time>
      </trkpt>
      <trkpt lat="45.96711" lon="4.86707">
        <ele>289</ele>
        <time>2017-04-05T09:10:52Z</time>
      </trkpt>
      <trkpt lat="45.96708" lon="4.86712">
        <ele>289</ele>
        <time>2017-04-05T09:10:53Z</time>
      </trkpt>
      <trkpt lat="45.96705" lon="4.86717">
        <ele>289</ele>
        <time>2017-04-05T09:10:54Z</time>
      </trkpt>
      <trkpt lat="45.96701" lon="4.86723">
        <ele>289</ele>
        <time>2017-04-05T09:10:55Z</time>
      </trkpt>
      <trkpt lat="45.96698" lon="4.86728">
        <ele>289</ele>
        <time>2017-04-05T09:10:56Z</time>
      </trkpt>
      <trkpt lat="45.96695" lon="4.86734">
        <ele>289</ele>
        <time>2017-04-05T09:10:57Z</time>
      </trkpt>
      <trkpt lat="45.96692" lon="4.86739">
        <ele>289</ele>
        <time>2017-04-05T09:10:58Z</time>
      </trkpt>
      <trkpt lat="45.96688" lon="4.86744">
        <ele>289</ele>
        <time>2017-04-05T09:10:59Z</time>
      </trkpt>
      <trkpt lat="45.96685" lon="4.86749">
        <ele>289</ele>
        <time>2017-04-05T09:11:00Z</time>
      </trkpt>
      <trkpt lat="45.96682" lon="4.86755">
        <ele>289</ele>
        <time>2017-04-05T09:11:01Z</time>
      </trkpt>
      <trkpt lat="45.96678" lon="4.8676">
        <ele>289</ele>
        <time>2017-04-05T09:11:02Z</time>
      </trkpt>
      <trkpt lat="45.96675" lon="4.86765">
        <ele>289</ele>
        <time>2017-04-05T09:11:03Z</time>
      </trkpt>
      <trkpt lat="45.96671" lon="4.8677">
        <ele>289</ele>
        <time>2017-04-05T09:11:04Z</time>
      </trkpt>
      <trkpt lat="45.96668" lon="4.86776">
        <ele>289</ele>
        <time>2017-04-05T09:11:05Z</time>
      </trkpt>
      <trkpt lat="45.96665" lon="4.86781">
        <ele>288</ele>
        <time>2017-04-05T09:11:06Z</time>
      </trkpt>
      <trkpt lat="45.96662" lon="4.86786">
        <ele>288</ele>
        <time>2017-04-05T09:11:07Z</time>
      </trkpt>
      <trkpt lat="45.96659" lon="4.86792">
        <ele>288</ele>
        <time>2017-04-05T09:11:08Z</time>
      </trkpt>
      <trkpt lat="45.96656" lon="4.86797">
        <ele>288</ele>
        <time>2017-04-05T09:11:09Z</time>
      </trkpt>
      <trkpt lat="45.96653" lon="4.86802">
        <ele>288</ele>
        <time>2017-04-05T09:11:10Z</time>
      </trkpt>
      <trkpt lat="45.96649" lon="4.86807">
        <ele>288</ele>
        <time>2017-04-05T09:11:11Z</time>
      </trkpt>
      <trkpt lat="45.96646" lon="4.86812">
        <ele>288</ele>
        <time>2017-04-05T09:11:12Z</time>
      </trkpt>
      <trkpt lat="45.96643" lon="4.86818">
        <ele>288</ele>
        <time>2017-04-05T09:11:13Z</time>
      </trkpt>
      <trkpt lat="45.96639" lon="4.86823">
        <ele>288</ele>
        <time>2017-04-05T09:11:14Z</time>
      </trkpt>
      <trkpt lat="45.96636" lon="4.86828">
        <ele>288</ele>
        <time>2017-04-05T09:11:15Z</time>
      </trkpt>
      <trkpt lat="45.96633" lon="4.86833">
        <ele>288</ele>
        <time>2017-04-05T09:11:16Z</time>
      </trkpt>
      <trkpt lat="45.9663" lon="4.86838">
        <ele>287</ele>
        <time>2017-04-05T09:11:17Z</time>
      </trkpt>
      <trkpt lat="45.96627" lon="4.86843">
        <ele>287</ele>
        <time>2017-04-05T09:11:18Z</time>
      </trkpt>
      <trkpt lat="45.96624" lon="4.86848">
        <ele>287</ele>
        <time>2017-04-05T09:11:19Z</time>
      </trkpt>
      <trkpt lat="45.96621" lon="4.86853">
        <ele>287</ele>
        <time>2017-04-05T09:11:20Z</time>
      </trkpt>
      <trkpt lat="45.96618" lon="4.86858">
        <ele>287</ele>
        <time>2017-04-05T09:11:21Z</time>
      </trkpt>
      <trkpt lat="45.96614" lon="4.86863">
        <ele>287</ele>
        <time>2017-04-05T09:11:22Z</time>
      </trkpt>
      <trkpt lat="45.96611" lon="4.86869">
        <ele>287</ele>
        <time>2017-04-05T09:11:23Z</time>
      </trkpt>
      <trkpt lat="45.96607" lon="4.86874">
        <ele>287</ele>
        <time>2017-04-05T09:11:24Z</time>
      </trkpt>
      <trkpt lat="45.96604" lon="4.8688">
        <ele>287</ele>
        <time>2017-04-05T09:11:25Z</time>
      </trkpt>
      <trkpt lat="45.96601" lon="4.86886">
        <ele>287</ele>
        <time>2017-04-05T09:11:26Z</time>
      </trkpt>
      <trkpt lat="45.96597" lon="4.86892">
        <ele>286</ele>
        <time>2017-04-05T09:11:27Z</time>
      </trkpt>
      <trkpt lat="45.96594" lon="4.86897">
        <ele>286</ele>
        <time>2017-04-05T09:11:28Z</time>
      </trkpt>
      <trkpt lat="45.9659" lon="4.86903">
        <ele>286</ele>
        <time>2017-04-05T09:11:29Z</time>
      </trkpt>
      <trkpt lat="45.96586" lon="4.86909">
        <ele>286</ele>
        <time>2017-04-05T09:11:30Z</time>
      </trkpt>
      <trkpt lat="45.96583" lon="4.86915">
        <ele>285</ele>
        <time>2017-04-05T09:11:31Z</time>
      </trkpt>
      <trkpt lat="45.96579" lon="4.86921">
        <ele>285</ele>
        <time>2017-04-05T09:11:32Z</time>
      </trkpt>
      <trkpt lat="45.96575" lon="4.86928">
        <ele>284</ele>
        <time>2017-04-05T09:11:33Z</time>
      </trkpt>
      <trkpt lat="45.96572" lon="4.86935">
        <ele>284</ele>
        <time>2017-04-05T09:11:34Z</time>
      </trkpt>
      <trkpt lat="45.96568" lon="4.86941">
        <ele>284</ele>
        <time>2017-04-05T09:11:35Z</time>
      </trkpt>
      <trkpt lat="45.96564" lon="4.86948">
        <ele>284</ele>
        <time>2017-04-05T09:11:36Z</time>
      </trkpt>
      <trkpt lat="45.9656" lon="4.86955">
        <ele>283</ele>
        <time>2017-04-05T09:11:37Z</time>
      </trkpt>
      <trkpt lat="45.96556" lon="4.86962">
        <ele>283</ele>
        <time>2017-04-05T09:11:38Z</time>
      </trkpt>
      <trkpt lat="45.96552" lon="4.86968">
        <ele>283</ele>
        <time>2017-04-05T09:11:39Z</time>
      </trkpt>
      <trkpt lat="45.96549" lon="4.86974">
        <ele>283</ele>
        <time>2017-04-05T09:11:40Z</time>
      </trkpt>
      <trkpt lat="45.96546" lon="4.86978">
        <ele>283</ele>
        <time>2017-04-05T09:11:41Z</time>
      </trkpt>
      <trkpt lat="45.9654" lon="4.86985">
        <ele>283</ele>
        <time>2017-04-05T09:11:43Z</time>
      </trkpt>
      <trkpt lat="45.96539" lon="4.8699">
        <ele>283</ele>
        <time>2017-04-05T09:11:44Z</time>
      </trkpt>
      <trkpt lat="45.96538" lon="4.86999">
        <ele>283</ele>
        <time>2017-04-05T09:11:46Z</time>
      </trkpt>
      <trkpt lat="45.96539" lon="4.87004">
        <ele>283</ele>
        <time>2017-04-05T09:11:47Z</time>
      </trkpt>
      <trkpt lat="45.96543" lon="4.87013">
        <ele>283</ele>
        <time>2017-04-05T09:11:49Z</time>
      </trkpt>
      <trkpt lat="45.96545" lon="4.87017">
        <ele>283</ele>
        <time>2017-04-05T09:11:50Z</time>
      </trkpt>
      <trkpt lat="45.96549" lon="4.87026">
        <ele>283</ele>
        <time>2017-04-05T09:11:52Z</time>
      </trkpt>
      <trkpt lat="45.96551" lon="4.87032">
        <ele>283</ele>
        <time>2017-04-05T09:11:53Z</time>
      </trkpt>
      <trkpt lat="45.96554" lon="4.87044">
        <ele>283</ele>
        <time>2017-04-05T09:11:55Z</time>
      </trkpt>
      <trkpt lat="45.96555" lon="4.87049">
        <ele>283</ele>
        <time>2017-04-05T09:11:56Z</time>
      </trkpt>
      <trkpt lat="45.96556" lon="4.87059">
        <ele>283</ele>
        <time>2017-04-05T09:11:58Z</time>
      </trkpt>
      <trkpt lat="45.96555" lon="4.87063">
        <ele>283</ele>
        <time>2017-04-05T09:11:59Z</time>
      </trkpt>
      <trkpt lat="45.96548" lon="4.87067">
        <ele>283</ele>
        <time>2017-04-05T09:12:02Z</time>
      </trkpt>
      <trkpt lat="45.96546" lon="4.87068">
        <ele>283</ele>
        <time>2017-04-05T09:12:03Z</time>
      </trkpt>
      <trkpt lat="45.96538" lon="4.87066">
        <ele>283</ele>
        <time>2017-04-05T09:12:06Z</time>
      </trkpt>
      <trkpt lat="45.96536" lon="4.87065">
        <ele>283</ele>
        <time>2017-04-05T09:12:07Z</time>
      </trkpt>
      <trkpt lat="45.96528" lon="4.87062">
        <ele>283</ele>
        <time>2017-04-05T09:12:12Z</time>
      </trkpt>
      <trkpt lat="45.96525" lon="4.87064">
        <ele>283</ele>
        <time>2017-04-05T09:12:13Z</time>
      </trkpt>
      <trkpt lat="45.96519" lon="4.87065">
        <ele>283</ele>
        <time>2017-04-05T09:12:15Z</time>
      </trkpt>
      <trkpt lat="45.96516" lon="4.87064">
        <ele>283</ele>
        <time>2017-04-05T09:12:16Z</time>
      </trkpt>
      <trkpt lat="45.96512" lon="4.87057">
        <ele>283</ele>
        <time>2017-04-05T09:12:18Z</time>
      </trkpt>
      <trkpt lat="45.9651" lon="4.87052">
        <ele>283</ele>
        <time>2017-04-05T09:12:19Z</time>
      </trkpt>
      <trkpt lat="45.96508" lon="4.87042">
        <ele>282</ele>
        <time>2017-04-05T09:12:22Z</time>
      </trkpt>
      <trkpt lat="45.96509" lon="4.87039">
        <ele>282</ele>
        <time>2017-04-05T09:12:23Z</time>
      </trkpt>
      <trkpt lat="45.96515" lon="4.87034">
        <ele>283</ele>
        <time>2017-04-05T09:12:26Z</time>
      </trkpt>
      <trkpt lat="45.96518" lon="4.87032">
        <ele>283</ele>
        <time>2017-04-05T09:12:27Z</time>
      </trkpt>
      <trkpt lat="45.96524" lon="4.87025">
        <ele>283</ele>
        <time>2017-04-05T09:12:29Z</time>
      </trkpt>
      <trkpt lat="45.96527" lon="4.87021">
        <ele>283</ele>
        <time>2017-04-05T09:12:30Z</time>
      </trkpt>
      <trkpt lat="45.96532" lon="4.87014">
        <ele>283</ele>
        <time>2017-04-05T09:12:32Z</time>
      </trkpt>
      <trkpt lat="45.96534" lon="4.87011">
        <ele>283</ele>
        <time>2017-04-05T09:12:33Z</time>
      </trkpt>
      <trkpt lat="45.96538" lon="4.87002">
        <ele>283</ele>
        <time>2017-04-05T09:12:35Z</time>
      </trkpt>
      <trkpt lat="45.9654" lon="4.86998">
        <ele>283</ele>
        <time>2017-04-05T09:12:36Z</time>
      </trkpt>
      <trkpt lat="45.96544" lon="4.8699">
        <ele>283</ele>
        <time>2017-04-05T09:12:38Z</time>
      </trkpt>
      <trkpt lat="45.96546" lon="4.86987">
        <ele>283</ele>
        <time>2017-04-05T09:12:39Z</time>
      </trkpt>
      <trkpt lat="45.96551" lon="4.8698">
        <ele>283</ele>
        <time>2017-04-05T09:12:41Z</time>
      </trkpt>
      <trkpt lat="45.96553" lon="4.86976">
        <ele>283</ele>
        <time>2017-04-05T09:12:42Z</time>
      </trkpt>
      <trkpt lat="45.96558" lon="4.86966">
        <ele>283</ele>
        <time>2017-04-05T09:12:44Z</time>
      </trkpt>
      <trkpt lat="45.96562" lon="4.86961">
        <ele>283</ele>
        <time>2017-04-05T09:12:45Z</time>
      </trkpt>
      <trkpt lat="45.96565" lon="4.86956">
        <ele>284</ele>
        <time>2017-04-05T09:12:46Z</time>
      </trkpt>
      <trkpt lat="45.96568" lon="4.86951">
        <ele>284</ele>
        <time>2017-04-05T09:12:47Z</time>
      </trkpt>
      <trkpt lat="45.96572" lon="4.86946">
        <ele>284</ele>
        <time>2017-04-05T09:12:48Z</time>
      </trkpt>
      <trkpt lat="45.96574" lon="4.86941">
        <ele>284</ele>
        <time>2017-04-05T09:12:49Z</time>
      </trkpt>
      <trkpt lat="45.96577" lon="4.86935">
        <ele>284</ele>
        <time>2017-04-05T09:12:50Z</time>
      </trkpt>
      <trkpt lat="45.9658" lon="4.86931">
        <ele>284</ele>
        <time>2017-04-05T09:12:51Z</time>
      </trkpt>
      <trkpt lat="45.96583" lon="4.86926">
        <ele>284</ele>
        <time>2017-04-05T09:12:52Z</time>
      </trkpt>
      <trkpt lat="45.96586" lon="4.86921">
        <ele>285</ele>
        <time>2017-04-05T09:12:53Z</time>
      </trkpt>
      <trkpt lat="45.96591" lon="4.86913">
        <ele>286</ele>
        <time>2017-04-05T09:12:55Z</time>
      </trkpt>
      <trkpt lat="45.96593" lon="4.86909">
        <ele>286</ele>
        <time>2017-04-05T09:12:56Z</time>
      </trkpt>
      <trkpt lat="45.96597" lon="4.86901">
        <ele>286</ele>
        <time>2017-04-05T09:12:58Z</time>
      </trkpt>
      <trkpt lat="45.96599" lon="4.86898">
        <ele>286</ele>
        <time>2017-04-05T09:12:59Z</time>
      </trkpt>
      <trkpt lat="45.96603" lon="4.86892">
        <ele>286</ele>
        <time>2017-04-05T09:13:01Z</time>
      </trkpt>
      <trkpt lat="45.96605" lon="4.86888">
        <ele>287</ele>
        <time>2017-04-05T09:13:02Z</time>
      </trkpt>
      <trkpt lat="45.9661" lon="4.86878">
        <ele>287</ele>
        <time>2017-04-05T09:13:05Z</time>
      </trkpt>
      <trkpt lat="45.96613" lon="4.86875">
        <ele>287</ele>
        <time>2017-04-05T09:13:06Z</time>
      </trkpt>
      <trkpt lat="45.96618" lon="4.86867">
        <ele>287</ele>
        <time>2017-04-05T09:13:08Z</time>
      </trkpt>
      <trkpt lat="45.96621" lon="4.86863">
        <ele>287</ele>
        <time>2017-04-05T09:13:09Z</time>
      </trkpt>
      <trkpt lat="45.96626" lon="4.86855">
        <ele>287</ele>
        <time>2017-04-05T09:13:11Z</time>
      </trkpt>
      <trkpt lat="45.96628" lon="4.86851">
        <ele>287</ele>
        <time>2017-04-05T09:13:12Z</time>
      </trkpt>
      <trkpt lat="45.96632" lon="4.86842">
        <ele>287</ele>
        <time>2017-04-05T09:13:14Z</time>
      </trkpt>
      <trkpt lat="45.96635" lon="4.86836">
        <ele>287</ele>
        <time>2017-04-05T09:13:15Z</time>
      </trkpt>
      <trkpt lat="45.96639" lon="4.86832">
        <ele>288</ele>
        <time>2017-04-05T09:13:16Z</time>
      </trkpt>
      <trkpt lat="45.96642" lon="4.86826">
        <ele>288</ele>
        <time>2017-04-05T09:13:17Z</time>
      </trkpt>
      <trkpt lat="45.96648" lon="4.86817">
        <ele>288</ele>
        <time>2017-04-05T09:13:19Z</time>
      </trkpt>
      <trkpt lat="45.9665" lon="4.86814">
        <ele>288</ele>
        <time>2017-04-05T09:13:20Z</time>
      </trkpt>
      <trkpt lat="45.96656" lon="4.86805">
        <ele>288</ele>
        <time>2017-04-05T09:13:22Z</time>
      </trkpt>
      <trkpt lat="45.96658" lon="4.86801">
        <ele>288</ele>
        <time>2017-04-05T09:13:23Z</time>
      </trkpt>
      <trkpt lat="45.96663" lon="4.86791">
        <ele>288</ele>
        <time>2017-04-05T09:13:25Z</time>
      </trkpt>
      <trkpt lat="45.96665" lon="4.86787">
        <ele>288</ele>
        <time>2017-04-05T09:13:26Z</time>
      </trkpt>
      <trkpt lat="45.96671" lon="4.86779">
        <ele>289</ele>
        <time>2017-04-05T09:13:28Z</time>
      </trkpt>
      <trkpt lat="45.96673" lon="4.86776">
        <ele>289</ele>
        <time>2017-04-05T09:13:29Z</time>
      </trkpt>
      <trkpt lat="45.96678" lon="4.86767">
        <ele>289</ele>
        <time>2017-04-05T09:13:31Z</time>
      </trkpt>
      <trkpt lat="45.96681" lon="4.86763">
        <ele>289</ele>
        <time>2017-04-05T09:13:32Z</time>
      </trkpt>
      <trkpt lat="45.96685" lon="4.86754">
        <ele>289</ele>
        <time>2017-04-05T09:13:34Z</time>
      </trkpt>
      <trkpt lat="45.96688" lon="4.8675">
        <ele>289</ele>
        <time>2017-04-05T09:13:35Z</time>
      </trkpt>
      <trkpt lat="45.96694" lon="4.86741">
        <ele>289</ele>
        <time>2017-04-05T09:13:37Z</time>
      </trkpt>
      <trkpt lat="45.96697" lon="4.86736">
        <ele>289</ele>
        <time>2017-04-05T09:13:38Z</time>
      </trkpt>
      <trkpt lat="45.96703" lon="4.86727">
        <ele>289</ele>
        <time>2017-04-05T09:13:40Z</time>
      </trkpt>
      <trkpt lat="45.96705" lon="4.86722">
        <ele>289</ele>
        <time>2017-04-05T09:13:41Z</time>
      </trkpt>
      <trkpt lat="45.96711" lon="4.86713">
        <ele>289</ele>
        <time>2017-04-05T09:13:43Z</time>
      </trkpt>
      <trkpt lat="45.96713" lon="4.86708">
        <ele>289</ele>
        <time>2017-04-05T09:13:44Z</time>
      </trkpt>
      <trkpt lat="45.96719" lon="4.867">
        <ele>289</ele>
        <time>2017-04-05T09:13:46Z</time>
      </trkpt>
      <trkpt lat="45.96722" lon="4.86695">
        <ele>289</ele>
        <time>2017-04-05T09:13:47Z</time>
      </trkpt>
      <trkpt lat="45.96727" lon="4.86687">
        <ele>289</ele>
        <time>2017-04-05T09:13:49Z</time>
      </trkpt>
      <trkpt lat="45.9673" lon="4.86682">
        <ele>289</ele>
        <time>2017-04-05T09:13:50Z</time>
      </trkpt>
      <trkpt lat="45.96735" lon="4.86674">
        <ele>290</ele>
        <time>2017-04-05T09:13:52Z</time>
      </trkpt>
      <trkpt lat="45.96738" lon="4.8667">
        <ele>290</ele>
        <time>2017-04-05T09:13:53Z</time>
      </trkpt>
      <trkpt lat="45.96743" lon="4.86662">
        <ele>290</ele>
        <time>2017-04-05T09:13:55Z</time>
      </trkpt>
      <trkpt lat="45.96747" lon="4.8666">
        <ele>290</ele>
        <time>2017-04-05T09:13:56Z</time>
      </trkpt>
      <trkpt lat="45.96754" lon="4.86662">
        <ele>290</ele>
        <time>2017-04-05T09:13:58Z</time>
      </trkpt>
      <trkpt lat="45.96757" lon="4.86665">
        <ele>290</ele>
        <time>2017-04-05T09:13:59Z</time>
      </trkpt>
      <trkpt lat="45.96763" lon="4.86671">
        <ele>290</ele>
        <time>2017-04-05T09:14:01Z</time>
      </trkpt>
      <trkpt lat="45.96767" lon="4.86674">
        <ele>290</ele>
        <time>2017-04-05T09:14:02Z</time>
      </trkpt>
      <trkpt lat="45.96774" lon="4.86679">
        <ele>289</ele>
        <time>2017-04-05T09:14:04Z</time>
      </trkpt>
      <trkpt lat="45.96777" lon="4.86683">
        <ele>289</ele>
        <time>2017-04-05T09:14:05Z</time>
      </trkpt>
      <trkpt lat="45.96784" lon="4.8669">
        <ele>289</ele>
        <time>2017-04-05T09:14:07Z</time>
      </trkpt>
      <trkpt lat="45.96787" lon="4.86693">
        <ele>289</ele>
        <time>2017-04-05T09:14:08Z</time>
      </trkpt>
      <trkpt lat="45.96794" lon="4.867">
        <ele>289</ele>
        <time>2017-04-05T09:14:10Z</time>
      </trkpt>
      <trkpt lat="45.96798" lon="4.86704">
        <ele>289</ele>
        <time>2017-04-05T09:14:11Z</time>
      </trkpt>
      <trkpt lat="45.96805" lon="4.8671">
        <ele>289</ele>
        <time>2017-04-05T09:14:13Z</time>
      </trkpt>
      <trkpt lat="45.96808" lon="4.86713">
        <ele>289</ele>
        <time>2017-04-05T09:14:14Z</time>
      </trkpt>
      <trkpt lat="45.96816" lon="4.8672">
        <ele>289</ele>
        <time>2017-04-05T09:14:16Z</time>
      </trkpt>
      <trkpt lat="45.96819" lon="4.86723">
        <ele>289</ele>
        <time>2017-04-05T09:14:17Z</time>
      </trkpt>
      <trkpt lat="45.96825" lon="4.86728">
        <ele>289</ele>
        <time>2017-04-05T09:14:19Z</time>
      </trkpt>
      <trkpt lat="45.96829" lon="4.86731">
        <ele>289</ele>
        <time>2017-04-05T09:14:20Z</time>
      </trkpt>
      <trkpt lat="45.96836" lon="4.86738">
        <ele>289</ele>
        <time>2017-04-05T09:14:22Z</time>
      </trkpt>
      <trkpt lat="45.96839" lon="4.86742">
        <ele>289</ele>
        <time>2017-04-05T09:14:23Z</time>
      </trkpt>
      <trkpt lat="45.96847" lon="4.86748">
        <ele>289</ele>
        <time>2017-04-05T09:14:25Z</time>
      </trkpt>
      <trkpt lat="45.9685" lon="4.86751">
        <ele>289</ele>
        <time>2017-04-05T09:14:26Z</time>
      </trkpt>
      <trkpt lat="45.96854" lon="4.86754">
        <ele>289</ele>
        <time>2017-04-05T09:14:27Z</time>
      </trkpt>
      <trkpt lat="45.96858" lon="4.86758">
        <ele>289</ele>
        <time>2017-04-05T09:14:28Z</time>
      </trkpt>
      <trkpt lat="45.96862" lon="4.86762">
        <ele>289</ele>
        <time>2017-04-05T09:14:29Z</time>
      </trkpt>
      <trkpt lat="45.96866" lon="4.86765">
        <ele>289</ele>
        <time>2017-04-05T09:14:30Z</time>
      </trkpt>
      <trkpt lat="45.9687" lon="4.86769">
        <ele>289</ele>
        <time>2017-04-05T09:14:31Z</time>
      </trkpt>
      <trkpt lat="45.96874" lon="4.86773">
        <ele>289</ele>
        <time>2017-04-05T09:14:32Z</time>
      </trkpt>
      <trkpt lat="45.96878" lon="4.86777">
        <ele>289</ele>
        <time>2017-04-05T09:14:33Z</time>
      </trkpt>
      <trkpt lat="45.96883" lon="4.86781">
        <ele>289</ele>
        <time>2017-04-05T09:14:34Z</time>
      </trkpt>
      <trkpt lat="45.96887" lon="4.86784">
        <ele>289</ele>
        <time>2017-04-05T09:14:35Z</time>
      </trkpt>
      <trkpt lat="45.96891" lon="4.86788">
        <ele>289</ele>
        <time>2017-04-05T09:14:36Z</time>
      </trkpt>
      <trkpt lat="45.96895" lon="4.86792">
        <ele>289</ele>
        <time>2017-04-05T09:14:37Z</time>
      </trkpt>
      <trkpt lat="45.969" lon="4.86796">
        <ele>289</ele>
        <time>2017-04-05T09:14:38Z</time>
      </trkpt>
      <trkpt lat="45.96905" lon="4.86801">
        <ele>289</ele>
        <time>2017-04-05T09:14:39Z</time>
      </trkpt>
      <trkpt lat="45.9691" lon="4.86805">
        <ele>288</ele>
        <time>2017-04-05T09:14:40Z</time>
      </trkpt>
      <trkpt lat="45.96915" lon="4.86809">
        <ele>288</ele>
        <time>2017-04-05T09:14:41Z</time>
      </trkpt>
      <trkpt lat="45.9692" lon="4.86813">
        <ele>287</ele>
        <time>2017-04-05T09:14:42Z</time>
      </trkpt>
      <trkpt lat="45.96925" lon="4.86817">
        <ele>287</ele>
        <time>2017-04-05T09:14:43Z</time>
      </trkpt>
      <trkpt lat="45.9693" lon="4.8682">
        <ele>287</ele>
        <time>2017-04-05T09:14:44Z</time>
      </trkpt>
      <trkpt lat="45.96935" lon="4.86824">
        <ele>287</ele>
        <time>2017-04-05T09:14:45Z</time>
      </trkpt>
      <trkpt lat="45.9694" lon="4.86827">
        <ele>287</ele>
        <time>2017-04-05T09:14:46Z</time>
      </trkpt>
      <trkpt lat="45.96945" lon="4.8683">
        <ele>287</ele>
        <time>2017-04-05T09:14:47Z</time>
      </trkpt>
      <trkpt lat="45.9695" lon="4.86833">
        <ele>287</ele>
        <time>2017-04-05T09:14:48Z</time>
      </trkpt>
      <trkpt lat="45.96955" lon="4.86836">
        <ele>287</ele>
        <time>2017-04-05T09:14:49Z</time>
      </trkpt>
      <trkpt lat="45.9696" lon="4.86838">
        <ele>287</ele>
        <time>2017-04-05T09:14:50Z</time>
      </trkpt>
      <trkpt lat="45.96965" lon="4.8684">
        <ele>287</ele>
        <time>2017-04-05T09:14:51Z</time>
      </trkpt>
      <trkpt lat="45.9697" lon="4.86842">
        <ele>286</ele>
        <time>2017-04-05T09:14:52Z</time>
      </trkpt>
      <trkpt lat="45.96975" lon="4.86844">
        <ele>286</ele>
        <time>2017-04-05T09:14:53Z</time>
      </trkpt>
      <trkpt lat="45.9698" lon="4.86845">
        <ele>286</ele>
        <time>2017-04-05T09:14:54Z</time>
      </trkpt>
      <trkpt lat="45.96985" lon="4.86846">
        <ele>286</ele>
        <time>2017-04-05T09:14:55Z</time>
      </trkpt>
      <trkpt lat="45.9699" lon="4.86847">
        <ele>286</ele>
        <time>2017-04-05T09:14:56Z</time>
      </trkpt>
      <trkpt lat="45.96995" lon="4.86847">
        <ele>286</ele>
        <time>2017-04-05T09:14:57Z</time>
      </trkpt>
      <trkpt lat="45.97001" lon="4.86847">
        <ele>285</ele>
        <time>2017-04-05T09:14:58Z</time>
      </trkpt>
      <trkpt lat="45.97006" lon="4.86847">
        <ele>285</ele>
        <time>2017-04-05T09:14:59Z</time>
      </trkpt>
      <trkpt lat="45.97011" lon="4.86847">
        <ele>285</ele>
        <time>2017-04-05T09:15:00Z</time>
      </trkpt>
      <trkpt lat="45.97016" lon="4.86847">
        <ele>285</ele>
        <time>2017-04-05T09:15:01Z</time>
      </trkpt>
      <trkpt lat="45.97021" lon="4.86847">
        <ele>285</ele>
        <time>2017-04-05T09:15:02Z</time>
      </trkpt>
      <trkpt lat="45.97025" lon="4.86846">
        <ele>285</ele>
        <time>2017-04-05T09:15:03Z</time>
      </trkpt>
      <trkpt lat="45.9703" lon="4.86846">
        <ele>285</ele>
        <time>2017-04-05T09:15:04Z</time>
      </trkpt>
      <trkpt lat="45.97034" lon="4.86845">
        <ele>285</ele>
        <time>2017-04-05T09:15:05Z</time>
      </trkpt>
      <trkpt lat="45.97039" lon="4.86844">
        <ele>285</ele>
        <time>2017-04-05T09:15:06Z</time>
      </trkpt>
      <trkpt lat="45.97044" lon="4.86843">
        <ele>285</ele>
        <time>2017-04-05T09:15:07Z</time>
      </trkpt>
      <trkpt lat="45.97048" lon="4.86842">
        <ele>285</ele>
        <time>2017-04-05T09:15:08Z</time>
      </trkpt>
      <trkpt lat="45.97053" lon="4.86841">
        <ele>285</ele>
        <time>2017-04-05T09:15:09Z</time>
      </trkpt>
      <trkpt lat="45.97058" lon="4.86841">
        <ele>284</ele>
        <time>2017-04-05T09:15:10Z</time>
      </trkpt>
      <trkpt lat="45.97063" lon="4.8684">
        <ele>284</ele>
        <time>2017-04-05T09:15:11Z</time>
      </trkpt>
      <trkpt lat="45.97068" lon="4.8684">
        <ele>284</ele>
        <time>2017-04-05T09:15:12Z</time>
      </trkpt>
      <trkpt lat="45.97072" lon="4.8684">
        <ele>284</ele>
        <time>2017-04-05T09:15:13Z</time>
      </trkpt>
      <trkpt lat="45.97077" lon="4.86839">
        <ele>284</ele>
        <time>2017-04-05T09:15:14Z</time>
      </trkpt>
      <trkpt lat="45.97082" lon="4.86838">
        <ele>284</ele>
        <time>2017-04-05T09:15:15Z</time>
      </trkpt>
      <trkpt lat="45.97086" lon="4.86837">
        <ele>284</ele>
        <time>2017-04-05T09:15:16Z</time>
      </trkpt>
      <trkpt lat="45.97091" lon="4.86837">
        <ele>284</ele>
        <time>2017-04-05T09:15:17Z</time>
      </trkpt>
      <trkpt lat="45.97095" lon="4.86836">
        <ele>284</ele>
        <time>2017-04-05T09:15:18Z</time>
      </trkpt>
      <trkpt lat="45.971" lon="4.86835">
        <ele>284</ele>
        <time>2017-04-05T09:15:19Z</time>
      </trkpt>
      <trkpt lat="45.97105" lon="4.86834">
        <ele>284</ele>
        <time>2017-04-05T09:15:20Z</time>
      </trkpt>
      <trkpt lat="45.9711" lon="4.86833">
        <ele>283</ele>
        <time>2017-04-05T09:15:21Z</time>
      </trkpt>
      <trkpt lat="45.97115" lon="4.86831">
        <ele>283</ele>
        <time>2017-04-05T09:15:22Z</time>
      </trkpt>
      <trkpt lat="45.97119" lon="4.8683">
        <ele>283</ele>
        <time>2017-04-05T09:15:23Z</time>
      </trkpt>
      <trkpt lat="45.97124" lon="4.86828">
        <ele>283</ele>
        <time>2017-04-05T09:15:24Z</time>
      </trkpt>
      <trkpt lat="45.97129" lon="4.86826">
        <ele>283</ele>
        <time>2017-04-05T09:15:25Z</time>
      </trkpt>
      <trkpt lat="45.97133" lon="4.86824">
        <ele>283</ele>
        <time>2017-04-05T09:15:26Z</time>
      </trkpt>
      <trkpt lat="45.97138" lon="4.86822">
        <ele>283</ele>
        <time>2017-04-05T09:15:27Z</time>
      </trkpt>
      <trkpt lat="45.97142" lon="4.8682">
        <ele>283</ele>
        <time>2017-04-05T09:15:28Z</time>
      </trkpt>
      <trkpt lat="45.97146" lon="4.86818">
        <ele>283</ele>
        <time>2017-04-05T09:15:29Z</time>
      </trkpt>
      <trkpt lat="45.97151" lon="4.86817">
        <ele>283</ele>
        <time>2017-04-05T09:15:30Z</time>
      </trkpt>
      <trkpt lat="45.97159" lon="4.86813">
        <ele>283</ele>
        <time>2017-04-05T09:15:32Z</time>
      </trkpt>
      <trkpt lat="45.97163" lon="4.86811">
        <ele>283</ele>
        <time>2017-04-05T09:15:33Z</time>
      </trkpt>
      <trkpt lat="45.97172" lon="4.86808">
        <ele>283</ele>
        <time>2017-04-05T09:15:35Z</time>
      </trkpt>
      <trkpt lat="45.97176" lon="4.86806">
        <ele>283</ele>
        <time>2017-04-05T09:15:36Z</time>
      </trkpt>
      <trkpt lat="45.97184" lon="4.86803">
        <ele>284</ele>
        <time>2017-04-05T09:15:38Z</time>
      </trkpt>
      <trkpt lat="45.97188" lon="4.86801">
        <ele>284</ele>
        <time>2017-04-05T09:15:39Z</time>
      </trkpt>
      <trkpt lat="45.97197" lon="4.86798">
        <ele>284</ele>
        <time>2017-04-05T09:15:41Z</time>
      </trkpt>
      <trkpt lat="45.97201" lon="4.86796">
        <ele>284</ele>
        <time>2017-04-05T09:15:42Z</time>
      </trkpt>
      <trkpt lat="45.9721" lon="4.86793">
        <ele>284</ele>
        <time>2017-04-05T09:15:44Z</time>
      </trkpt>
      <trkpt lat="45.97214" lon="4.86793">
        <ele>284</ele>
        <time>2017-04-05T09:15:45Z</time>
      </trkpt>
      <trkpt lat="45.97223" lon="4.86793">
        <ele>284</ele>
        <time>2017-04-05T09:15:47Z</time>
      </trkpt>
      <trkpt lat="45.97228" lon="4.86794">
        <ele>284</ele>
        <time>2017-04-05T09:15:48Z</time>
      </trkpt>
      <trkpt lat="45.97232" lon="4.86796">
        <ele>284</ele>
        <time>2017-04-05T09:15:49Z</time>
      </trkpt>
      <trkpt lat="45.97237" lon="4.86799">
        <ele>284</ele>
        <time>2017-04-05T09:15:50Z</time>
      </trkpt>
      <trkpt lat="45.97242" lon="4.86803">
        <ele>284</ele>
        <time>2017-04-05T09:15:51Z</time>
      </trkpt>
      <trkpt lat="45.97246" lon="4.86807">
        <ele>284</ele>
        <time>2017-04-05T09:15:52Z</time>
      </trkpt>
      <trkpt lat="45.9725" lon="4.86812">
        <ele>284</ele>
        <time>2017-04-05T09:15:53Z</time>
      </trkpt>
      <trkpt lat="45.97253" lon="4.86816">
        <ele>285</ele>
        <time>2017-04-05T09:15:54Z</time>
      </trkpt>
      <trkpt lat="45.97258" lon="4.86825">
        <ele>285</ele>
        <time>2017-04-05T09:15:56Z</time>
      </trkpt>
      <trkpt lat="45.9726" lon="4.8683">
        <ele>285</ele>
        <time>2017-04-05T09:15:57Z</time>
      </trkpt>
      <trkpt lat="45.97266" lon="4.8684">
        <ele>285</ele>
        <time>2017-04-05T09:15:59Z</time>
      </trkpt>
      <trkpt lat="45.97268" lon="4.86845">
        <ele>285</ele>
        <time>2017-04-05T09:16:00Z</time>
      </trkpt>
      <trkpt lat="45.97271" lon="4.8685">
        <ele>285</ele>
        <time>2017-04-05T09:16:01Z</time>
      </trkpt>
      <trkpt lat="45.97274" lon="4.86855">
        <ele>285</ele>
        <time>2017-04-05T09:16:02Z</time>
      </trkpt>
      <trkpt lat="45.97277" lon="4.8686">
        <ele>285</ele>
        <time>2017-04-05T09:16:03Z</time>
      </trkpt>
      <trkpt lat="45.97281" lon="4.86865">
        <ele>285</ele>
        <time>2017-04-05T09:16:04Z</time>
      </trkpt>
      <trkpt lat="45.97284" lon="4.86869">
        <ele>285</ele>
        <time>2017-04-05T09:16:05Z</time>
      </trkpt>
      <trkpt lat="45.97288" lon="4.86874">
        <ele>285</ele>
        <time>2017-04-05T09:16:06Z</time>
      </trkpt>
      <trkpt lat="45.97291" lon="4.86879">
        <ele>285</ele>
        <time>2017-04-05T09:16:07Z</time>
      </trkpt>
      <trkpt lat="45.97294" lon="4.86884">
        <ele>284</ele>
        <time>2017-04-05T09:16:08Z</time>
      </trkpt>
      <trkpt lat="45.97298" lon="4.86889">
        <ele>284</ele>
        <time>2017-04-05T09:16:09Z</time>
      </trkpt>
      <trkpt lat="45.97302" lon="4.86894">
        <ele>284</ele>
        <time>2017-04-05T09:16:10Z</time>
      </trkpt>
      <trkpt lat="45.97306" lon="4.86899">
        <ele>284</ele>
        <time>2017-04-05T09:16:11Z</time>
      </trkpt>
      <trkpt lat="45.97309" lon="4.86904">
        <ele>284</ele>
        <time>2017-04-05T09:16:12Z</time>
      </trkpt>
      <trkpt lat="45.97313" lon="4.86909">
        <ele>284</ele>
        <time>2017-04-05T09:16:13Z</time>
      </trkpt>
      <trkpt lat="45.97317" lon="4.86914">
        <ele>284</ele>
        <time>2017-04-05T09:16:14Z</time>
      </trkpt>
      <trkpt lat="45.9732" lon="4.86918">
        <ele>284</ele>
        <time>2017-04-05T09:16:15Z</time>
      </trkpt>
      <trkpt lat="45.97324" lon="4.86922">
        <ele>284</ele>
        <time>2017-04-05T09:16:16Z</time>
      </trkpt>
      <trkpt lat="45.9733" lon="4.86931">
        <ele>284</ele>
        <time>2017-04-05T09:16:18Z</time>
      </trkpt>
      <trkpt lat="45.97334" lon="4.86935">
        <ele>284</ele>
        <time>2017-04-05T09:16:19Z</time>
      </trkpt>
      <trkpt lat="45.97337" lon="4.86938">
        <ele>284</ele>
        <time>2017-04-05T09:16:20Z</time>
      </trkpt>
      <trkpt lat="45.9734" lon="4.86943">
        <ele>284</ele>
        <time>2017-04-05T09:16:21Z</time>
      </trkpt>
      <trkpt lat="45.97344" lon="4.86948">
        <ele>284</ele>
        <time>2017-04-05T09:16:22Z</time>
      </trkpt>
      <trkpt lat="45.97348" lon="4.86954">
        <ele>284</ele>
        <time>2017-04-05T09:16:23Z</time>
      </trkpt>
      <trkpt lat="45.97352" lon="4.86958">
        <ele>284</ele>
        <time>2017-04-05T09:16:24Z</time>
      </trkpt>
      <trkpt lat="45.97357" lon="4.86963">
        <ele>285</ele>
        <time>2017-04-05T09:16:25Z</time>
      </trkpt>
      <trkpt lat="45.97361" lon="4.86968">
        <ele>285</ele>
        <time>2017-04-05T09:16:26Z</time>
      </trkpt>
      <trkpt lat="45.97366" lon="4.86972">
        <ele>285</ele>
        <time>2017-04-05T09:16:27Z</time>
      </trkpt>
      <trkpt lat="45.9737" lon="4.86977">
        <ele>285</ele>
        <time>2017-04-05T09:16:28Z</time>
      </trkpt>
      <trkpt lat="45.97374" lon="4.86982">
        <ele>285</ele>
        <time>2017-04-05T09:16:29Z</time>
      </trkpt>
      <trkpt lat="45.97378" lon="4.86987">
        <ele>285</ele>
        <time>2017-04-05T09:16:30Z</time>
      </trkpt>
      <trkpt lat="45.97382" lon="4.86991">
        <ele>285</ele>
        <time>2017-04-05T09:16:31Z</time>
      </trkpt>
      <trkpt lat="45.97386" lon="4.86995">
        <ele>285</ele>
        <time>2017-04-05T09:16:32Z</time>
      </trkpt>
      <trkpt lat="45.97389" lon="4.86998">
        <ele>285</ele>
        <time>2017-04-05T09:16:33Z</time>
      </trkpt>
      <trkpt lat="45.97396" lon="4.87005">
        <ele>285</ele>
        <time>2017-04-05T09:16:35Z</time>
      </trkpt>
      <trkpt lat="45.974" lon="4.87009">
        <ele>285</ele>
        <time>2017-04-05T09:16:36Z</time>
      </trkpt>
      <trkpt lat="45.97403" lon="4.87013">
        <ele>285</ele>
        <time>2017-04-05T09:16:37Z</time>
      </trkpt>
      <trkpt lat="45.97407" lon="4.87017">
        <ele>285</ele>
        <time>2017-04-05T09:16:38Z</time>
      </trkpt>
      <trkpt lat="45.97412" lon="4.87021">
        <ele>285</ele>
        <time>2017-04-05T09:16:39Z</time>
      </trkpt>
      <trkpt lat="45.97416" lon="4.87025">
        <ele>285</ele>
        <time>2017-04-05T09:16:40Z</time>
      </trkpt>
      <trkpt lat="45.9742" lon="4.87029">
        <ele>284</ele>
        <time>2017-04-05T09:16:41Z</time>
      </trkpt>
      <trkpt lat="45.97424" lon="4.87034">
        <ele>284</ele>
        <time>2017-04-05T09:16:42Z</time>
      </trkpt>
      <trkpt lat="45.97428" lon="4.87038">
        <ele>284</ele>
        <time>2017-04-05T09:16:43Z</time>
      </trkpt>
      <trkpt lat="45.97432" lon="4.87042">
        <ele>284</ele>
        <time>2017-04-05T09:16:44Z</time>
      </trkpt>
      <trkpt lat="45.97436" lon="4.87046">
        <ele>284</ele>
        <time>2017-04-05T09:16:45Z</time>
      </trkpt>
      <trkpt lat="45.9744" lon="4.8705">
        <ele>284</ele>
        <time>2017-04-05T09:16:46Z</time>
      </trkpt>
      <trkpt lat="45.97447" lon="4.87057">
        <ele>284</ele>
        <time>2017-04-05T09:16:48Z</time>
      </trkpt>
      <trkpt lat="45.9745" lon="4.8706">
        <ele>284</ele>
        <time>2017-04-05T09:16:49Z</time>
      </trkpt>
      <trkpt lat="45.97457" lon="4.87067">
        <ele>284</ele>
        <time>2017-04-05T09:16:51Z</time>
      </trkpt>
      <trkpt lat="45.97461" lon="4.87071">
        <ele>284</ele>
        <time>2017-04-05T09:16:52Z</time>
      </trkpt>
      <trkpt lat="45.97468" lon="4.87078">
        <ele>284</ele>
        <time>2017-04-05T09:16:54Z</time>
      </trkpt>
      <trkpt lat="45.97472" lon="4.87082">
        <ele>284</ele>
        <time>2017-04-05T09:16:55Z</time>
      </trkpt>
      <trkpt lat="45.97479" lon="4.8709">
        <ele>283</ele>
        <time>2017-04-05T09:16:57Z</time>
      </trkpt>
      <trkpt lat="45.97482" lon="4.87094">
        <ele>283</ele>
        <time>2017-04-05T09:16:58Z</time>
      </trkpt>
      <trkpt lat="45.97486" lon="4.87098">
        <ele>283</ele>
        <time>2017-04-05T09:16:59Z</time>
      </trkpt>
      <trkpt lat="45.9749" lon="4.87103">
        <ele>283</ele>
        <time>2017-04-05T09:17:00Z</time>
      </trkpt>
      <trkpt lat="45.97494" lon="4.87107">
        <ele>283</ele>
        <time>2017-04-05T09:17:01Z</time>
      </trkpt>
      <trkpt lat="45.97498" lon="4.87111">
        <ele>283</ele>
        <time>2017-04-05T09:17:02Z</time>
      </trkpt>
      <trkpt lat="45.97502" lon="4.87116">
        <ele>283</ele>
        <time>2017-04-05T09:17:03Z</time>
      </trkpt>
      <trkpt lat="45.97507" lon="4.8712">
        <ele>283</ele>
        <time>2017-04-05T09:17:04Z</time>
      </trkpt>
      <trkpt lat="45.97511" lon="4.87124">
        <ele>283</ele>
        <time>2017-04-05T09:17:05Z</time>
      </trkpt>
      <trkpt lat="45.97516" lon="4.87128">
        <ele>283</ele>
        <time>2017-04-05T09:17:06Z</time>
      </trkpt>
      <trkpt lat="45.9752" lon="4.87132">
        <ele>283</ele>
        <time>2017-04-05T09:17:07Z</time>
      </trkpt>
      <trkpt lat="45.97525" lon="4.87136">
        <ele>283</ele>
        <time>2017-04-05T09:17:08Z</time>
      </trkpt>
      <trkpt lat="45.97529" lon="4.8714">
        <ele>283</ele>
        <time>2017-04-05T09:17:09Z</time>
      </trkpt>
      <trkpt lat="45.97533" lon="4.87144">
        <ele>283</ele>
        <time>2017-04-05T09:17:10Z</time>
      </trkpt>
      <trkpt lat="45.97537" lon="4.87149">
        <ele>283</ele>
        <time>2017-04-05T09:17:11Z</time>
      </trkpt>
      <trkpt lat="45.97541" lon="4.87153">
        <ele>283</ele>
        <time>2017-04-05T09:17:12Z</time>
      </trkpt>
      <trkpt lat="45.97546" lon="4.87157">
        <ele>283</ele>
        <time>2017-04-05T09:17:13Z</time>
      </trkpt>
      <trkpt lat="45.9755" lon="4.87161">
        <ele>283</ele>
        <time>2017-04-05T09:17:14Z</time>
      </trkpt>
      <trkpt lat="45.97554" lon="4.87164">
        <ele>283</ele>
        <time>2017-04-05T09:17:15Z</time>
      </trkpt>
      <trkpt lat="45.97559" lon="4.87168">
        <ele>283</ele>
        <time>2017-04-05T09:17:16Z</time>
      </trkpt>
      <trkpt lat="45.97563" lon="4.87172">
        <ele>283</ele>
        <time>2017-04-05T09:17:17Z</time>
      </trkpt>
      <trkpt lat="45.97567" lon="4.87176">
        <ele>283</ele>
        <time>2017-04-05T09:17:18Z</time>
      </trkpt>
      <trkpt lat="45.9757" lon="4.8718">
        <ele>283</ele>
        <time>2017-04-05T09:17:19Z</time>
      </trkpt>
      <trkpt lat="45.97574" lon="4.87184">
        <ele>283</ele>
        <time>2017-04-05T09:17:20Z</time>
      </trkpt>
      <trkpt lat="45.97581" lon="4.87191">
        <ele>283</ele>
        <time>2017-04-05T09:17:22Z</time>
      </trkpt>
      <trkpt lat="45.97584" lon="4.87195">
        <ele>283</ele>
        <time>2017-04-05T09:17:23Z</time>
      </trkpt>
      <trkpt lat="45.97588" lon="4.87199">
        <ele>283</ele>
        <time>2017-04-05T09:17:24Z</time>
      </trkpt>
      <trkpt lat="45.97591" lon="4.87204">
        <ele>283</ele>
        <time>2017-04-05T09:17:25Z</time>
      </trkpt>
      <trkpt lat="45.97595" lon="4.87208">
        <ele>284</ele>
        <time>2017-04-05T09:17:26Z</time>
      </trkpt>
      <trkpt lat="45.97599" lon="4.87211">
        <ele>284</ele>
        <time>2017-04-05T09:17:27Z</time>
      </trkpt>
      <trkpt lat="45.97603" lon="4.87215">
        <ele>284</ele>
        <time>2017-04-05T09:17:28Z</time>
      </trkpt>
      <trkpt lat="45.97607" lon="4.87218">
        <ele>284</ele>
        <time>2017-04-05T09:17:29Z</time>
      </trkpt>
      <trkpt lat="45.97612" lon="4.87222">
        <ele>284</ele>
        <time>2017-04-05T09:17:30Z</time>
      </trkpt>
      <trkpt lat="45.97616" lon="4.87226">
        <ele>284</ele>
        <time>2017-04-05T09:17:31Z</time>
      </trkpt>
      <trkpt lat="45.9762" lon="4.87229">
        <ele>284</ele>
        <time>2017-04-05T09:17:32Z</time>
      </trkpt>
      <trkpt lat="45.97625" lon="4.87232">
        <ele>284</ele>
        <time>2017-04-05T09:17:33Z</time>
      </trkpt>
      <trkpt lat="45.97629" lon="4.87236">
        <ele>284</ele>
        <time>2017-04-05T09:17:34Z</time>
      </trkpt>
      <trkpt lat="45.97633" lon="4.8724">
        <ele>284</ele>
        <time>2017-04-05T09:17:35Z</time>
      </trkpt>
      <trkpt lat="45.97637" lon="4.87245">
        <ele>284</ele>
        <time>2017-04-05T09:17:36Z</time>
      </trkpt>
      <trkpt lat="45.97641" lon="4.87249">
        <ele>285</ele>
        <time>2017-04-05T09:17:37Z</time>
      </trkpt>
      <trkpt lat="45.97646" lon="4.87253">
        <ele>285</ele>
        <time>2017-04-05T09:17:38Z</time>
      </trkpt>
      <trkpt lat="45.9765" lon="4.87256">
        <ele>285</ele>
        <time>2017-04-05T09:17:39Z</time>
      </trkpt>
      <trkpt lat="45.97655" lon="4.8726">
        <ele>285</ele>
        <time>2017-04-05T09:17:40Z</time>
      </trkpt>
      <trkpt lat="45.97659" lon="4.87264">
        <ele>285</ele>
        <time>2017-04-05T09:17:41Z</time>
      </trkpt>
      <trkpt lat="45.97664" lon="4.87269">
        <ele>285</ele>
        <time>2017-04-05T09:17:42Z</time>
      </trkpt>
      <trkpt lat="45.97668" lon="4.87274">
        <ele>286</ele>
        <time>2017-04-05T09:17:43Z</time>
      </trkpt>
      <trkpt lat="45.97672" lon="4.87279">
        <ele>286</ele>
        <time>2017-04-05T09:17:44Z</time>
      </trkpt>
      <trkpt lat="45.97676" lon="4.87284">
        <ele>286</ele>
        <time>2017-04-05T09:17:45Z</time>
      </trkpt>
      <trkpt lat="45.9768" lon="4.87289">
        <ele>286</ele>
        <time>2017-04-05T09:17:46Z</time>
      </trkpt>
      <trkpt lat="45.97684" lon="4.87293">
        <ele>286</ele>
        <time>2017-04-05T09:17:47Z</time>
      </trkpt>
      <trkpt lat="45.97688" lon="4.87298">
        <ele>286</ele>
        <time>2017-04-05T09:17:48Z</time>
      </trkpt>
      <trkpt lat="45.97692" lon="4.87302">
        <ele>286</ele>
        <time>2017-04-05T09:17:49Z</time>
      </trkpt>
      <trkpt lat="45.97697" lon="4.87307">
        <ele>286</ele>
        <time>2017-04-05T09:17:50Z</time>
      </trkpt>
      <trkpt lat="45.97701" lon="4.87312">
        <ele>286</ele>
        <time>2017-04-05T09:17:51Z</time>
      </trkpt>
      <trkpt lat="45.97705" lon="4.87318">
        <ele>286</ele>
        <time>2017-04-05T09:17:52Z</time>
      </trkpt>
      <trkpt lat="45.9771" lon="4.87324">
        <ele>286</ele>
        <time>2017-04-05T09:17:53Z</time>
      </trkpt>
      <trkpt lat="45.97715" lon="4.87329">
        <ele>286</ele>
        <time>2017-04-05T09:17:54Z</time>
      </trkpt>
      <trkpt lat="45.9772" lon="4.87334">
        <ele>285</ele>
        <time>2017-04-05T09:17:55Z</time>
      </trkpt>
      <trkpt lat="45.97725" lon="4.8734">
        <ele>285</ele>
        <time>2017-04-05T09:17:56Z</time>
      </trkpt>
      <trkpt lat="45.9773" lon="4.87345">
        <ele>286</ele>
        <time>2017-04-05T09:17:57Z</time>
      </trkpt>
      <trkpt lat="45.97735" lon="4.8735">
        <ele>286</ele>
        <time>2017-04-05T09:17:58Z</time>
      </trkpt>
      <trkpt lat="45.97739" lon="4.87354">
        <ele>286</ele>
        <time>2017-04-05T09:17:59Z</time>
      </trkpt>
      <trkpt lat="45.97743" lon="4.87359">
        <ele>285</ele>
        <time>2017-04-05T09:18:00Z</time>
      </trkpt>
      <trkpt lat="45.97746" lon="4.87364">
        <ele>285</ele>
        <time>2017-04-05T09:18:01Z</time>
      </trkpt>
      <trkpt lat="45.97749" lon="4.87369">
        <ele>285</ele>
        <time>2017-04-05T09:18:02Z</time>
      </trkpt>
      <trkpt lat="45.97753" lon="4.87373">
        <ele>285</ele>
        <time>2017-04-05T09:18:03Z</time>
      </trkpt>
      <trkpt lat="45.97757" lon="4.87378">
        <ele>284</ele>
        <time>2017-04-05T09:18:04Z</time>
      </trkpt>
      <trkpt lat="45.97761" lon="4.87383">
        <ele>284</ele>
        <time>2017-04-05T09:18:05Z</time>
      </trkpt>
      <trkpt lat="45.97764" lon="4.87388">
        <ele>284</ele>
        <time>2017-04-05T09:18:06Z</time>
      </trkpt>
      <trkpt lat="45.97767" lon="4.87392">
        <ele>284</ele>
        <time>2017-04-05T09:18:07Z</time>
      </trkpt>
      <trkpt lat="45.97771" lon="4.87397">
        <ele>284</ele>
        <time>2017-04-05T09:18:08Z</time>
      </trkpt>
      <trkpt lat="45.97775" lon="4.87402">
        <ele>284</ele>
        <time>2017-04-05T09:18:09Z</time>
      </trkpt>
      <trkpt lat="45.97779" lon="4.87407">
        <ele>284</ele>
        <time>2017-04-05T09:18:10Z</time>
      </trkpt>
      <trkpt lat="45.97783" lon="4.87412">
        <ele>284</ele>
        <time>2017-04-05T09:18:11Z</time>
      </trkpt>
      <trkpt lat="45.97788" lon="4.87417">
        <ele>283</ele>
        <time>2017-04-05T09:18:12Z</time>
      </trkpt>
      <trkpt lat="45.97792" lon="4.87422">
        <ele>283</ele>
        <time>2017-04-05T09:18:13Z</time>
      </trkpt>
      <trkpt lat="45.97797" lon="4.87427">
        <ele>283</ele>
        <time>2017-04-05T09:18:14Z</time>
      </trkpt>
      <trkpt lat="45.97801" lon="4.87433">
        <ele>283</ele>
        <time>2017-04-05T09:18:15Z</time>
      </trkpt>
      <trkpt lat="45.97806" lon="4.87438">
        <ele>282</ele>
        <time>2017-04-05T09:18:16Z</time>
      </trkpt>
      <trkpt lat="45.9781" lon="4.87443">
        <ele>282</ele>
        <time>2017-04-05T09:18:17Z</time>
      </trkpt>
      <trkpt lat="45.97816" lon="4.87448">
        <ele>282</ele>
        <time>2017-04-05T09:18:18Z</time>
      </trkpt>
      <trkpt lat="45.97821" lon="4.87454">
        <ele>282</ele>
        <time>2017-04-05T09:18:19Z</time>
      </trkpt>
      <trkpt lat="45.97827" lon="4.87459">
        <ele>282</ele>
        <time>2017-04-05T09:18:20Z</time>
      </trkpt>
      <trkpt lat="45.97832" lon="4.87464">
        <ele>282</ele>
        <time>2017-04-05T09:18:21Z</time>
      </trkpt>
      <trkpt lat="45.97837" lon="4.8747">
        <ele>281</ele>
        <time>2017-04-05T09:18:22Z</time>
      </trkpt>
      <trkpt lat="45.97842" lon="4.87476">
        <ele>281</ele>
        <time>2017-04-05T09:18:23Z</time>
      </trkpt>
      <trkpt lat="45.97847" lon="4.87481">
        <ele>281</ele>
        <time>2017-04-05T09:18:24Z</time>
      </trkpt>
      <trkpt lat="45.97852" lon="4.87486">
        <ele>281</ele>
        <time>2017-04-05T09:18:25Z</time>
      </trkpt>
      <trkpt lat="45.97857" lon="4.87492">
        <ele>281</ele>
        <time>2017-04-05T09:18:26Z</time>
      </trkpt>
      <trkpt lat="45.97862" lon="4.87497">
        <ele>281</ele>
        <time>2017-04-05T09:18:27Z</time>
      </trkpt>
      <trkpt lat="45.97867" lon="4.87501">
        <ele>281</ele>
        <time>2017-04-05T09:18:28Z</time>
      </trkpt>
      <trkpt lat="45.97872" lon="4.87505">
        <ele>281</ele>
        <time>2017-04-05T09:18:29Z</time>
      </trkpt>
      <trkpt lat="45.97877" lon="4.87509">
        <ele>281</ele>
        <time>2017-04-05T09:18:30Z</time>
      </trkpt>
      <trkpt lat="45.97882" lon="4.87512">
        <ele>281</ele>
        <time>2017-04-05T09:18:31Z</time>
      </trkpt>
      <trkpt lat="45.97888" lon="4.87516">
        <ele>281</ele>
        <time>2017-04-05T09:18:32Z</time>
      </trkpt>
      <trkpt lat="45.97893" lon="4.87519">
        <ele>280</ele>
        <time>2017-04-05T09:18:33Z</time>
      </trkpt>
      <trkpt lat="45.97898" lon="4.87521">
        <ele>280</ele>
        <time>2017-04-05T09:18:34Z</time>
      </trkpt>
      <trkpt lat="45.97903" lon="4.87524">
        <ele>280</ele>
        <time>2017-04-05T09:18:35Z</time>
      </trkpt>
      <trkpt lat="45.97908" lon="4.87526">
        <ele>280</ele>
        <time>2017-04-05T09:18:36Z</time>
      </trkpt>
      <trkpt lat="45.97913" lon="4.87528">
        <ele>280</ele>
        <time>2017-04-05T09:18:37Z</time>
      </trkpt>
      <trkpt lat="45.97918" lon="4.8753">
        <ele>279</ele>
        <time>2017-04-05T09:18:38Z</time>
      </trkpt>
      <trkpt lat="45.97923" lon="4.87533">
        <ele>279</ele>
        <time>2017-04-05T09:18:39Z</time>
      </trkpt>
      <trkpt lat="45.97929" lon="4.87535">
        <ele>279</ele>
        <time>2017-04-05T09:18:40Z</time>
      </trkpt>
      <trkpt lat="45.97934" lon="4.87537">
        <ele>279</ele>
        <time>2017-04-05T09:18:41Z</time>
      </trkpt>
      <trkpt lat="45.9794" lon="4.8754">
        <ele>279</ele>
        <time>2017-04-05T09:18:42Z</time>
      </trkpt>
      <trkpt lat="45.97945" lon="4.87542">
        <ele>279</ele>
        <time>2017-04-05T09:18:43Z</time>
      </trkpt>
      <trkpt lat="45.97951" lon="4.87544">
        <ele>279</ele>
        <time>2017-04-05T09:18:44Z</time>
      </trkpt>
      <trkpt lat="45.97956" lon="4.87547">
        <ele>279</ele>
        <time>2017-04-05T09:18:45Z</time>
      </trkpt>
      <trkpt lat="45.97961" lon="4.87551">
        <ele>279</ele>
        <time>2017-04-05T09:18:46Z</time>
      </trkpt>
      <trkpt lat="45.97966" lon="4.87554">
        <ele>279</ele>
        <time>2017-04-05T09:18:47Z</time>
      </trkpt>
      <trkpt lat="45.9797" lon="4.87558">
        <ele>279</ele>
        <time>2017-04-05T09:18:48Z</time>
      </trkpt>
      <trkpt lat="45.97975" lon="4.87563">
        <ele>279</ele>
        <time>2017-04-05T09:18:49Z</time>
      </trkpt>
      <trkpt lat="45.97979" lon="4.87567">
        <ele>279</ele>
        <time>2017-04-05T09:18:50Z</time>
      </trkpt>
      <trkpt lat="45.97982" lon="4.87571">
        <ele>280</ele>
        <time>2017-04-05T09:18:51Z</time>
      </trkpt>
      <trkpt lat="45.97989" lon="4.87579">
        <ele>280</ele>
        <time>2017-04-05T09:18:53Z</time>
      </trkpt>
      <trkpt lat="45.97991" lon="4.87584">
        <ele>280</ele>
        <time>2017-04-05T09:18:54Z</time>
      </trkpt>
      <trkpt lat="45.97994" lon="4.8759">
        <ele>280</ele>
        <time>2017-04-05T09:18:55Z</time>
      </trkpt>
      <trkpt lat="45.97996" lon="4.87596">
        <ele>280</ele>
        <time>2017-04-05T09:18:56Z</time>
      </trkpt>
      <trkpt lat="45.97999" lon="4.87602">
        <ele>280</ele>
        <time>2017-04-05T09:18:57Z</time>
      </trkpt>
      <trkpt lat="45.98001" lon="4.87607">
        <ele>280</ele>
        <time>2017-04-05T09:18:58Z</time>
      </trkpt>
      <trkpt lat="45.98003" lon="4.87613">
        <ele>280</ele>
        <time>2017-04-05T09:18:59Z</time>
      </trkpt>
      <trkpt lat="45.98006" lon="4.87619">
        <ele>280</ele>
        <time>2017-04-05T09:19:00Z</time>
      </trkpt>
      <trkpt lat="45.98008" lon="4.87626">
        <ele>280</ele>
        <time>2017-04-05T09:19:01Z</time>
      </trkpt>
      <trkpt lat="45.9801" lon="4.87633">
        <ele>280</ele>
        <time>2017-04-05T09:19:02Z</time>
      </trkpt>
      <trkpt lat="45.98012" lon="4.8764">
        <ele>280</ele>
        <time>2017-04-05T09:19:03Z</time>
      </trkpt>
      <trkpt lat="45.98014" lon="4.87647">
        <ele>280</ele>
        <time>2017-04-05T09:19:04Z</time>
      </trkpt>
      <trkpt lat="45.98016" lon="4.87654">
        <ele>280</ele>
        <time>2017-04-05T09:19:05Z</time>
      </trkpt>
      <trkpt lat="45.98018" lon="4.87661">
        <ele>280</ele>
        <time>2017-04-05T09:19:06Z</time>
      </trkpt>
      <trkpt lat="45.9802" lon="4.87668">
        <ele>280</ele>
        <time>2017-04-05T09:19:07Z</time>
      </trkpt>
      <trkpt lat="45.98023" lon="4.87675">
        <ele>280</ele>
        <time>2017-04-05T09:19:08Z</time>
      </trkpt>
      <trkpt lat="45.98025" lon="4.87681">
        <ele>280</ele>
        <time>2017-04-05T09:19:09Z</time>
      </trkpt>
      <trkpt lat="45.98026" lon="4.87688">
        <ele>280</ele>
        <time>2017-04-05T09:19:10Z</time>
      </trkpt>
      <trkpt lat="45.98028" lon="4.87694">
        <ele>280</ele>
        <time>2017-04-05T09:19:11Z</time>
      </trkpt>
      <trkpt lat="45.9803" lon="4.877">
        <ele>280</ele>
        <time>2017-04-05T09:19:12Z</time>
      </trkpt>
      <trkpt lat="45.98032" lon="4.87706">
        <ele>280</ele>
        <time>2017-04-05T09:19:13Z</time>
      </trkpt>
      <trkpt lat="45.98034" lon="4.87712">
        <ele>279</ele>
        <time>2017-04-05T09:19:14Z</time>
      </trkpt>
      <trkpt lat="45.98036" lon="4.87719">
        <ele>279</ele>
        <time>2017-04-05T09:19:15Z</time>
      </trkpt>
      <trkpt lat="45.98038" lon="4.87725">
        <ele>279</ele>
        <time>2017-04-05T09:19:16Z</time>
      </trkpt>
      <trkpt lat="45.98041" lon="4.87732">
        <ele>279</ele>
        <time>2017-04-05T09:19:17Z</time>
      </trkpt>
      <trkpt lat="45.98043" lon="4.87739">
        <ele>280</ele>
        <time>2017-04-05T09:19:18Z</time>
      </trkpt>
      <trkpt lat="45.98045" lon="4.87746">
        <ele>280</ele>
        <time>2017-04-05T09:19:19Z</time>
      </trkpt>
      <trkpt lat="45.98047" lon="4.87752">
        <ele>280</ele>
        <time>2017-04-05T09:19:20Z</time>
      </trkpt>
      <trkpt lat="45.98049" lon="4.87758">
        <ele>280</ele>
        <time>2017-04-05T09:19:21Z</time>
      </trkpt>
      <trkpt lat="45.98051" lon="4.87764">
        <ele>280</ele>
        <time>2017-04-05T09:19:22Z</time>
      </trkpt>
      <trkpt lat="45.98053" lon="4.8777">
        <ele>280</ele>
        <time>2017-04-05T09:19:23Z</time>
      </trkpt>
      <trkpt lat="45.98055" lon="4.87777">
        <ele>280</ele>
        <time>2017-04-05T09:19:24Z</time>
      </trkpt>
      <trkpt lat="45.98056" lon="4.87783">
        <ele>280</ele>
        <time>2017-04-05T09:19:25Z</time>
      </trkpt>
      <trkpt lat="45.98058" lon="4.8779">
        <ele>280</ele>
        <time>2017-04-05T09:19:26Z</time>
      </trkpt>
      <trkpt lat="45.9806" lon="4.87797">
        <ele>280</ele>
        <time>2017-04-05T09:19:27Z</time>
      </trkpt>
      <trkpt lat="45.98062" lon="4.87803">
        <ele>280</ele>
        <time>2017-04-05T09:19:28Z</time>
      </trkpt>
      <trkpt lat="45.98064" lon="4.87809">
        <ele>280</ele>
        <time>2017-04-05T09:19:29Z</time>
      </trkpt>
      <trkpt lat="45.98066" lon="4.87816">
        <ele>280</ele>
        <time>2017-04-05T09:19:30Z</time>
      </trkpt>
      <trkpt lat="45.98068" lon="4.87823">
        <ele>279</ele>
        <time>2017-04-05T09:19:31Z</time>
      </trkpt>
      <trkpt lat="45.9807" lon="4.87829">
        <ele>279</ele>
        <time>2017-04-05T09:19:32Z</time>
      </trkpt>
      <trkpt lat="45.98072" lon="4.87836">
        <ele>279</ele>
        <time>2017-04-05T09:19:33Z</time>
      </trkpt>
      <trkpt lat="45.98074" lon="4.87843">
        <ele>279</ele>
        <time>2017-04-05T09:19:34Z</time>
      </trkpt>
      <trkpt lat="45.98076" lon="4.8785">
        <ele>280</ele>
        <time>2017-04-05T09:19:35Z</time>
      </trkpt>
      <trkpt lat="45.98078" lon="4.87857">
        <ele>280</ele>
        <time>2017-04-05T09:19:36Z</time>
      </trkpt>
      <trkpt lat="45.9808" lon="4.87864">
        <ele>280</ele>
        <time>2017-04-05T09:19:37Z</time>
      </trkpt>
      <trkpt lat="45.98082" lon="4.87871">
        <ele>280</ele>
        <time>2017-04-05T09:19:38Z</time>
      </trkpt>
      <trkpt lat="45.98084" lon="4.87878">
        <ele>278</ele>
        <time>2017-04-05T09:19:39Z</time>
      </trkpt>
      <trkpt lat="45.98086" lon="4.87885">
        <ele>278</ele>
        <time>2017-04-05T09:19:40Z</time>
      </trkpt>
      <trkpt lat="45.98088" lon="4.87891">
        <ele>278</ele>
        <time>2017-04-05T09:19:41Z</time>
      </trkpt>
      <trkpt lat="45.9809" lon="4.87898">
        <ele>278</ele>
        <time>2017-04-05T09:19:42Z</time>
      </trkpt>
      <trkpt lat="45.98092" lon="4.87905">
        <ele>278</ele>
        <time>2017-04-05T09:19:43Z</time>
      </trkpt>
      <trkpt lat="45.98095" lon="4.87912">
        <ele>278</ele>
        <time>2017-04-05T09:19:44Z</time>
      </trkpt>
      <trkpt lat="45.98097" lon="4.87919">
        <ele>278</ele>
        <time>2017-04-05T09:19:45Z</time>
      </trkpt>
      <trkpt lat="45.98099" lon="4.87925">
        <ele>278</ele>
        <time>2017-04-05T09:19:46Z</time>
      </trkpt>
      <trkpt lat="45.98101" lon="4.87932">
        <ele>277</ele>
        <time>2017-04-05T09:19:47Z</time>
      </trkpt>
      <trkpt lat="45.98103" lon="4.87939">
        <ele>277</ele>
        <time>2017-04-05T09:19:48Z</time>
      </trkpt>
      <trkpt lat="45.98105" lon="4.87947">
        <ele>277</ele>
        <time>2017-04-05T09:19:49Z</time>
      </trkpt>
      <trkpt lat="45.98107" lon="4.87955">
        <ele>277</ele>
        <time>2017-04-05T09:19:50Z</time>
      </trkpt>
      <trkpt lat="45.9811" lon="4.87963">
        <ele>277</ele>
        <time>2017-04-05T09:19:51Z</time>
      </trkpt>
      <trkpt lat="45.98113" lon="4.87971">
        <ele>277</ele>
        <time>2017-04-05T09:19:52Z</time>
      </trkpt>
      <trkpt lat="45.98115" lon="4.87979">
        <ele>277</ele>
        <time>2017-04-05T09:19:53Z</time>
      </trkpt>
      <trkpt lat="45.98118" lon="4.87987">
        <ele>277</ele>
        <time>2017-04-05T09:19:54Z</time>
      </trkpt>
      <trkpt lat="45.9812" lon="4.87995">
        <ele>277</ele>
        <time>2017-04-05T09:19:55Z</time>
      </trkpt>
      <trkpt lat="45.98122" lon="4.88004">
        <ele>276</ele>
        <time>2017-04-05T09:19:56Z</time>
      </trkpt>
      <trkpt lat="45.98125" lon="4.88012">
        <ele>276</ele>
        <time>2017-04-05T09:19:57Z</time>
      </trkpt>
      <trkpt lat="45.98128" lon="4.8802">
        <ele>276</ele>
        <time>2017-04-05T09:19:58Z</time>
      </trkpt>
      <trkpt lat="45.9813" lon="4.88029">
        <ele>276</ele>
        <time>2017-04-05T09:19:59Z</time>
      </trkpt>
      <trkpt lat="45.98133" lon="4.88038">
        <ele>276</ele>
        <time>2017-04-05T09:20:00Z</time>
      </trkpt>
      <trkpt lat="45.98136" lon="4.88047">
        <ele>275</ele>
        <time>2017-04-05T09:20:01Z</time>
      </trkpt>
      <trkpt lat="45.98139" lon="4.88056">
        <ele>275</ele>
        <time>2017-04-05T09:20:02Z</time>
      </trkpt>
      <trkpt lat="45.98141" lon="4.88064">
        <ele>275</ele>
        <time>2017-04-05T09:20:03Z</time>
      </trkpt>
      <trkpt lat="45.98144" lon="4.88073">
        <ele>275</ele>
        <time>2017-04-05T09:20:04Z</time>
      </trkpt>
      <trkpt lat="45.98147" lon="4.88082">
        <ele>275</ele>
        <time>2017-04-05T09:20:05Z</time>
      </trkpt>
      <trkpt lat="45.98149" lon="4.8809">
        <ele>274</ele>
        <time>2017-04-05T09:20:06Z</time>
      </trkpt>
      <trkpt lat="45.98152" lon="4.88099">
        <ele>274</ele>
        <time>2017-04-05T09:20:07Z</time>
      </trkpt>
      <trkpt lat="45.98154" lon="4.88108">
        <ele>274</ele>
        <time>2017-04-05T09:20:08Z</time>
      </trkpt>
      <trkpt lat="45.98157" lon="4.88115">
        <ele>274</ele>
        <time>2017-04-05T09:20:09Z</time>
      </trkpt>
      <trkpt lat="45.9816" lon="4.88124">
        <ele>274</ele>
        <time>2017-04-05T09:20:10Z</time>
      </trkpt>
      <trkpt lat="45.98162" lon="4.88132">
        <ele>274</ele>
        <time>2017-04-05T09:20:11Z</time>
      </trkpt>
      <trkpt lat="45.98165" lon="4.8814">
        <ele>274</ele>
        <time>2017-04-05T09:20:12Z</time>
      </trkpt>
      <trkpt lat="45.98167" lon="4.88148">
        <ele>273</ele>
        <time>2017-04-05T09:20:13Z</time>
      </trkpt>
      <trkpt lat="45.9817" lon="4.88157">
        <ele>273</ele>
        <time>2017-04-05T09:20:14Z</time>
      </trkpt>
      <trkpt lat="45.98172" lon="4.88165">
        <ele>273</ele>
        <time>2017-04-05T09:20:15Z</time>
      </trkpt>
      <trkpt lat="45.98174" lon="4.88173">
        <ele>273</ele>
        <time>2017-04-05T09:20:16Z</time>
      </trkpt>
      <trkpt lat="45.98176" lon="4.88181">
        <ele>273</ele>
        <time>2017-04-05T09:20:17Z</time>
      </trkpt>
      <trkpt lat="45.98178" lon="4.88189">
        <ele>273</ele>
        <time>2017-04-05T09:20:18Z</time>
      </trkpt>
      <trkpt lat="45.98181" lon="4.88196">
        <ele>273</ele>
        <time>2017-04-05T09:20:19Z</time>
      </trkpt>
      <trkpt lat="45.98183" lon="4.88203">
        <ele>273</ele>
        <time>2017-04-05T09:20:20Z</time>
      </trkpt>
      <trkpt lat="45.98185" lon="4.8821">
        <ele>273</ele>
        <time>2017-04-05T09:20:21Z</time>
      </trkpt>
      <trkpt lat="45.98187" lon="4.88216">
        <ele>273</ele>
        <time>2017-04-05T09:20:22Z</time>
      </trkpt>
      <trkpt lat="45.98189" lon="4.88223">
        <ele>273</ele>
        <time>2017-04-05T09:20:23Z</time>
      </trkpt>
      <trkpt lat="45.98191" lon="4.8823">
        <ele>273</ele>
        <time>2017-04-05T09:20:24Z</time>
      </trkpt>
      <trkpt lat="45.98193" lon="4.88237">
        <ele>273</ele>
        <time>2017-04-05T09:20:25Z</time>
      </trkpt>
      <trkpt lat="45.98195" lon="4.88244">
        <ele>273</ele>
        <time>2017-04-05T09:20:26Z</time>
      </trkpt>
      <trkpt lat="45.98196" lon="4.88252">
        <ele>274</ele>
        <time>2017-04-05T09:20:27Z</time>
      </trkpt>
      <trkpt lat="45.98199" lon="4.88259">
        <ele>274</ele>
        <time>2017-04-05T09:20:28Z</time>
      </trkpt>
      <trkpt lat="45.98201" lon="4.88267">
        <ele>274</ele>
        <time>2017-04-05T09:20:29Z</time>
      </trkpt>
      <trkpt lat="45.98203" lon="4.88274">
        <ele>274</ele>
        <time>2017-04-05T09:20:30Z</time>
      </trkpt>
      <trkpt lat="45.98204" lon="4.88281">
        <ele>274</ele>
        <time>2017-04-05T09:20:31Z</time>
      </trkpt>
      <trkpt lat="45.98205" lon="4.88288">
        <ele>274</ele>
        <time>2017-04-05T09:20:32Z</time>
      </trkpt>
      <trkpt lat="45.98206" lon="4.88296">
        <ele>274</ele>
        <time>2017-04-05T09:20:33Z</time>
      </trkpt>
      <trkpt lat="45.98207" lon="4.88304">
        <ele>274</ele>
        <time>2017-04-05T09:20:34Z</time>
      </trkpt>
      <trkpt lat="45.98208" lon="4.88312">
        <ele>274</ele>
        <time>2017-04-05T09:20:35Z</time>
      </trkpt>
      <trkpt lat="45.98209" lon="4.8832">
        <ele>274</ele>
        <time>2017-04-05T09:20:36Z</time>
      </trkpt>
      <trkpt lat="45.9821" lon="4.88328">
        <ele>274</ele>
        <time>2017-04-05T09:20:37Z</time>
      </trkpt>
      <trkpt lat="45.9821" lon="4.88335">
        <ele>275</ele>
        <time>2017-04-05T09:20:38Z</time>
      </trkpt>
      <trkpt lat="45.9821" lon="4.88343">
        <ele>275</ele>
        <time>2017-04-05T09:20:39Z</time>
      </trkpt>
      <trkpt lat="45.9821" lon="4.88351">
        <ele>275</ele>
        <time>2017-04-05T09:20:40Z</time>
      </trkpt>
      <trkpt lat="45.98211" lon="4.88359">
        <ele>275</ele>
        <time>2017-04-05T09:20:41Z</time>
      </trkpt>
      <trkpt lat="45.98211" lon="4.88367">
        <ele>275</ele>
        <time>2017-04-05T09:20:42Z</time>
      </trkpt>
      <trkpt lat="45.98212" lon="4.88374">
        <ele>275</ele>
        <time>2017-04-05T09:20:43Z</time>
      </trkpt>
      <trkpt lat="45.98213" lon="4.88382">
        <ele>275</ele>
        <time>2017-04-05T09:20:44Z</time>
      </trkpt>
      <trkpt lat="45.98215" lon="4.88389">
        <ele>275</ele>
        <time>2017-04-05T09:20:45Z</time>
      </trkpt>
      <trkpt lat="45.98216" lon="4.88396">
        <ele>275</ele>
        <time>2017-04-05T09:20:46Z</time>
      </trkpt>
      <trkpt lat="45.98218" lon="4.88402">
        <ele>275</ele>
        <time>2017-04-05T09:20:47Z</time>
      </trkpt>
      <trkpt lat="45.98219" lon="4.88408">
        <ele>275</ele>
        <time>2017-04-05T09:20:48Z</time>
      </trkpt>
      <trkpt lat="45.98222" lon="4.8842">
        <ele>276</ele>
        <time>2017-04-05T09:20:50Z</time>
      </trkpt>
      <trkpt lat="45.98223" lon="4.88426">
        <ele>276</ele>
        <time>2017-04-05T09:20:51Z</time>
      </trkpt>
      <trkpt lat="45.98226" lon="4.88438">
        <ele>276</ele>
        <time>2017-04-05T09:20:53Z</time>
      </trkpt>
      <trkpt lat="45.98227" lon="4.88444">
        <ele>276</ele>
        <time>2017-04-05T09:20:54Z</time>
      </trkpt>
      <trkpt lat="45.98229" lon="4.88451">
        <ele>276</ele>
        <time>2017-04-05T09:20:55Z</time>
      </trkpt>
      <trkpt lat="45.9823" lon="4.88457">
        <ele>276</ele>
        <time>2017-04-05T09:20:56Z</time>
      </trkpt>
      <trkpt lat="45.98232" lon="4.88463">
        <ele>276</ele>
        <time>2017-04-05T09:20:57Z</time>
      </trkpt>
      <trkpt lat="45.98233" lon="4.8847">
        <ele>276</ele>
        <time>2017-04-05T09:20:58Z</time>
      </trkpt>
      <trkpt lat="45.98235" lon="4.88477">
        <ele>276</ele>
        <time>2017-04-05T09:20:59Z</time>
      </trkpt>
      <trkpt lat="45.98236" lon="4.88485">
        <ele>276</ele>
        <time>2017-04-05T09:21:00Z</time>
      </trkpt>
      <trkpt lat="45.98237" lon="4.88492">
        <ele>276</ele>
        <time>2017-04-05T09:21:01Z</time>
      </trkpt>
      <trkpt lat="45.98239" lon="4.88499">
        <ele>276</ele>
        <time>2017-04-05T09:21:02Z</time>
      </trkpt>
      <trkpt lat="45.98241" lon="4.88506">
        <ele>277</ele>
        <time>2017-04-05T09:21:03Z</time>
      </trkpt>
      <trkpt lat="45.98243" lon="4.88513">
        <ele>276</ele>
        <time>2017-04-05T09:21:04Z</time>
      </trkpt>
      <trkpt lat="45.98246" lon="4.88525">
        <ele>276</ele>
        <time>2017-04-05T09:21:06Z</time>
      </trkpt>
      <trkpt lat="45.98248" lon="4.88531">
        <ele>276</ele>
        <time>2017-04-05T09:21:07Z</time>
      </trkpt>
      <trkpt lat="45.98251" lon="4.88543">
        <ele>276</ele>
        <time>2017-04-05T09:21:09Z</time>
      </trkpt>
      <trkpt lat="45.98252" lon="4.88549">
        <ele>276</ele>
        <time>2017-04-05T09:21:10Z</time>
      </trkpt>
      <trkpt lat="45.98254" lon="4.88556">
        <ele>276</ele>
        <time>2017-04-05T09:21:11Z</time>
      </trkpt>
      <trkpt lat="45.98255" lon="4.88563">
        <ele>276</ele>
        <time>2017-04-05T09:21:12Z</time>
      </trkpt>
      <trkpt lat="45.98257" lon="4.88569">
        <ele>276</ele>
        <time>2017-04-05T09:21:13Z</time>
      </trkpt>
      <trkpt lat="45.98258" lon="4.88576">
        <ele>276</ele>
        <time>2017-04-05T09:21:14Z</time>
      </trkpt>
      <trkpt lat="45.9826" lon="4.88582">
        <ele>276</ele>
        <time>2017-04-05T09:21:15Z</time>
      </trkpt>
      <trkpt lat="45.98261" lon="4.88589">
        <ele>275</ele>
        <time>2017-04-05T09:21:16Z</time>
      </trkpt>
      <trkpt lat="45.98263" lon="4.88595">
        <ele>275</ele>
        <time>2017-04-05T09:21:17Z</time>
      </trkpt>
      <trkpt lat="45.98265" lon="4.88602">
        <ele>275</ele>
        <time>2017-04-05T09:21:18Z</time>
      </trkpt>
      <trkpt lat="45.98266" lon="4.88609">
        <ele>276</ele>
        <time>2017-04-05T09:21:19Z</time>
      </trkpt>
      <trkpt lat="45.98268" lon="4.88616">
        <ele>276</ele>
        <time>2017-04-05T09:21:20Z</time>
      </trkpt>
      <trkpt lat="45.9827" lon="4.88623">
        <ele>276</ele>
        <time>2017-04-05T09:21:21Z</time>
      </trkpt>
      <trkpt lat="45.98271" lon="4.88629">
        <ele>276</ele>
        <time>2017-04-05T09:21:22Z</time>
      </trkpt>
      <trkpt lat="45.98273" lon="4.88636">
        <ele>276</ele>
        <time>2017-04-05T09:21:23Z</time>
      </trkpt>
      <trkpt lat="45.98274" lon="4.88642">
        <ele>276</ele>
        <time>2017-04-05T09:21:24Z</time>
      </trkpt>
      <trkpt lat="45.98276" lon="4.88649">
        <ele>276</ele>
        <time>2017-04-05T09:21:25Z</time>
      </trkpt>
      <trkpt lat="45.98278" lon="4.88655">
        <ele>276</ele>
        <time>2017-04-05T09:21:26Z</time>
      </trkpt>
      <trkpt lat="45.98279" lon="4.88662">
        <ele>276</ele>
        <time>2017-04-05T09:21:27Z</time>
      </trkpt>
      <trkpt lat="45.9828" lon="4.88668">
        <ele>276</ele>
        <time>2017-04-05T09:21:28Z</time>
      </trkpt>
      <trkpt lat="45.98282" lon="4.88674">
        <ele>276</ele>
        <time>2017-04-05T09:21:29Z</time>
      </trkpt>
      <trkpt lat="45.98284" lon="4.88681">
        <ele>276</ele>
        <time>2017-04-05T09:21:30Z</time>
      </trkpt>
      <trkpt lat="45.98286" lon="4.88688">
        <ele>276</ele>
        <time>2017-04-05T09:21:31Z</time>
      </trkpt>
      <trkpt lat="45.98288" lon="4.88694">
        <ele>276</ele>
        <time>2017-04-05T09:21:32Z</time>
      </trkpt>
      <trkpt lat="45.98289" lon="4.88701">
        <ele>276</ele>
        <time>2017-04-05T09:21:33Z</time>
      </trkpt>
      <trkpt lat="45.98291" lon="4.88708">
        <ele>276</ele>
        <time>2017-04-05T09:21:34Z</time>
      </trkpt>
      <trkpt lat="45.98293" lon="4.88715">
        <ele>276</ele>
        <time>2017-04-05T09:21:35Z</time>
      </trkpt>
      <trkpt lat="45.98294" lon="4.88722">
        <ele>276</ele>
        <time>2017-04-05T09:21:36Z</time>
      </trkpt>
      <trkpt lat="45.98296" lon="4.8873">
        <ele>276</ele>
        <time>2017-04-05T09:21:37Z</time>
      </trkpt>
      <trkpt lat="45.98298" lon="4.88737">
        <ele>276</ele>
        <time>2017-04-05T09:21:38Z</time>
      </trkpt>
      <trkpt lat="45.983" lon="4.88744">
        <ele>276</ele>
        <time>2017-04-05T09:21:39Z</time>
      </trkpt>
      <trkpt lat="45.98301" lon="4.8875">
        <ele>276</ele>
        <time>2017-04-05T09:21:40Z</time>
      </trkpt>
      <trkpt lat="45.98303" lon="4.88757">
        <ele>276</ele>
        <time>2017-04-05T09:21:41Z</time>
      </trkpt>
      <trkpt lat="45.98304" lon="4.88763">
        <ele>277</ele>
        <time>2017-04-05T09:21:42Z</time>
      </trkpt>
      <trkpt lat="45.98308" lon="4.88774">
        <ele>277</ele>
        <time>2017-04-05T09:21:44Z</time>
      </trkpt>
      <trkpt lat="45.98309" lon="4.88779">
        <ele>277</ele>
        <time>2017-04-05T09:21:45Z</time>
      </trkpt>
      <trkpt lat="45.98311" lon="4.8879">
        <ele>277</ele>
        <time>2017-04-05T09:21:47Z</time>
      </trkpt>
      <trkpt lat="45.98312" lon="4.88796">
        <ele>277</ele>
        <time>2017-04-05T09:21:48Z</time>
      </trkpt>
      <trkpt lat="45.98315" lon="4.88807">
        <ele>277</ele>
        <time>2017-04-05T09:21:50Z</time>
      </trkpt>
      <trkpt lat="45.98316" lon="4.88813">
        <ele>277</ele>
        <time>2017-04-05T09:21:51Z</time>
      </trkpt>
      <trkpt lat="45.98318" lon="4.8882">
        <ele>277</ele>
        <time>2017-04-05T09:21:52Z</time>
      </trkpt>
      <trkpt lat="45.9832" lon="4.88827">
        <ele>277</ele>
        <time>2017-04-05T09:21:53Z</time>
      </trkpt>
      <trkpt lat="45.98321" lon="4.88833">
        <ele>278</ele>
        <time>2017-04-05T09:21:54Z</time>
      </trkpt>
      <trkpt lat="45.98323" lon="4.88839">
        <ele>278</ele>
        <time>2017-04-05T09:21:55Z</time>
      </trkpt>
      <trkpt lat="45.98324" lon="4.88846">
        <ele>278</ele>
        <time>2017-04-05T09:21:56Z</time>
      </trkpt>
      <trkpt lat="45.98326" lon="4.88852">
        <ele>278</ele>
        <time>2017-04-05T09:21:57Z</time>
      </trkpt>
      <trkpt lat="45.98329" lon="4.88863">
        <ele>278</ele>
        <time>2017-04-05T09:21:59Z</time>
      </trkpt>
      <trkpt lat="45.98331" lon="4.88869">
        <ele>278</ele>
        <time>2017-04-05T09:22:00Z</time>
      </trkpt>
      <trkpt lat="45.98333" lon="4.88881">
        <ele>278</ele>
        <time>2017-04-05T09:22:02Z</time>
      </trkpt>
      <trkpt lat="45.98335" lon="4.88887">
        <ele>280</ele>
        <time>2017-04-05T09:22:03Z</time>
      </trkpt>
      <trkpt lat="45.98337" lon="4.88899">
        <ele>280</ele>
        <time>2017-04-05T09:22:05Z</time>
      </trkpt>
      <trkpt lat="45.98339" lon="4.88904">
        <ele>280</ele>
        <time>2017-04-05T09:22:06Z</time>
      </trkpt>
      <trkpt lat="45.98343" lon="4.88916">
        <ele>280</ele>
        <time>2017-04-05T09:22:08Z</time>
      </trkpt>
      <trkpt lat="45.98344" lon="4.88922">
        <ele>280</ele>
        <time>2017-04-05T09:22:09Z</time>
      </trkpt>
      <trkpt lat="45.98346" lon="4.88934">
        <ele>281</ele>
        <time>2017-04-05T09:22:11Z</time>
      </trkpt>
      <trkpt lat="45.98347" lon="4.8894">
        <ele>281</ele>
        <time>2017-04-05T09:22:12Z</time>
      </trkpt>
      <trkpt lat="45.9835" lon="4.88953">
        <ele>282</ele>
        <time>2017-04-05T09:22:14Z</time>
      </trkpt>
      <trkpt lat="45.98351" lon="4.88959">
        <ele>282</ele>
        <time>2017-04-05T09:22:15Z</time>
      </trkpt>
      <trkpt lat="45.98354" lon="4.88971">
        <ele>282</ele>
        <time>2017-04-05T09:22:17Z</time>
      </trkpt>
      <trkpt lat="45.98356" lon="4.88977">
        <ele>282</ele>
        <time>2017-04-05T09:22:18Z</time>
      </trkpt>
      <trkpt lat="45.98359" lon="4.88988">
        <ele>282</ele>
        <time>2017-04-05T09:22:20Z</time>
      </trkpt>
      <trkpt lat="45.9836" lon="4.88994">
        <ele>282</ele>
        <time>2017-04-05T09:22:21Z</time>
      </trkpt>
      <trkpt lat="45.98362" lon="4.89">
        <ele>282</ele>
        <time>2017-04-05T09:22:22Z</time>
      </trkpt>
      <trkpt lat="45.98363" lon="4.89006">
        <ele>283</ele>
        <time>2017-04-05T09:22:23Z</time>
      </trkpt>
      <trkpt lat="45.98364" lon="4.89013">
        <ele>283</ele>
        <time>2017-04-05T09:22:24Z</time>
      </trkpt>
      <trkpt lat="45.98366" lon="4.8902">
        <ele>283</ele>
        <time>2017-04-05T09:22:25Z</time>
      </trkpt>
      <trkpt lat="45.98367" lon="4.89026">
        <ele>284</ele>
        <time>2017-04-05T09:22:26Z</time>
      </trkpt>
      <trkpt lat="45.98369" lon="4.89032">
        <ele>284</ele>
        <time>2017-04-05T09:22:27Z</time>
      </trkpt>
      <trkpt lat="45.98371" lon="4.89044">
        <ele>284</ele>
        <time>2017-04-05T09:22:29Z</time>
      </trkpt>
      <trkpt lat="45.98373" lon="4.8905">
        <ele>284</ele>
        <time>2017-04-05T09:22:30Z</time>
      </trkpt>
      <trkpt lat="45.98377" lon="4.89062">
        <ele>284</ele>
        <time>2017-04-05T09:22:32Z</time>
      </trkpt>
      <trkpt lat="45.98379" lon="4.89067">
        <ele>284</ele>
        <time>2017-04-05T09:22:33Z</time>
      </trkpt>
      <trkpt lat="45.98383" lon="4.89077">
        <ele>285</ele>
        <time>2017-04-05T09:22:35Z</time>
      </trkpt>
      <trkpt lat="45.98385" lon="4.89082">
        <ele>285</ele>
        <time>2017-04-05T09:22:36Z</time>
      </trkpt>
      <trkpt lat="45.98389" lon="4.89091">
        <ele>285</ele>
        <time>2017-04-05T09:22:38Z</time>
      </trkpt>
      <trkpt lat="45.98392" lon="4.89096">
        <ele>285</ele>
        <time>2017-04-05T09:22:39Z</time>
      </trkpt>
      <trkpt lat="45.98397" lon="4.89105">
        <ele>285</ele>
        <time>2017-04-05T09:22:41Z</time>
      </trkpt>
      <trkpt lat="45.98399" lon="4.8911">
        <ele>285</ele>
        <time>2017-04-05T09:22:42Z</time>
      </trkpt>
      <trkpt lat="45.98405" lon="4.89119">
        <ele>285</ele>
        <time>2017-04-05T09:22:44Z</time>
      </trkpt>
      <trkpt lat="45.98408" lon="4.89124">
        <ele>285</ele>
        <time>2017-04-05T09:22:45Z</time>
      </trkpt>
      <trkpt lat="45.98414" lon="4.89132">
        <ele>285</ele>
        <time>2017-04-05T09:22:47Z</time>
      </trkpt>
      <trkpt lat="45.98416" lon="4.89137">
        <ele>286</ele>
        <time>2017-04-05T09:22:48Z</time>
      </trkpt>
      <trkpt lat="45.98422" lon="4.89146">
        <ele>288</ele>
        <time>2017-04-05T09:22:50Z</time>
      </trkpt>
      <trkpt lat="45.98425" lon="4.8915">
        <ele>288</ele>
        <time>2017-04-05T09:22:51Z</time>
      </trkpt>
      <trkpt lat="45.9843" lon="4.8916">
        <ele>288</ele>
        <time>2017-04-05T09:22:53Z</time>
      </trkpt>
      <trkpt lat="45.98432" lon="4.89164">
        <ele>288</ele>
        <time>2017-04-05T09:22:54Z</time>
      </trkpt>
      <trkpt lat="45.98438" lon="4.89173">
        <ele>288</ele>
        <time>2017-04-05T09:22:56Z</time>
      </trkpt>
      <trkpt lat="45.9844" lon="4.89177">
        <ele>288</ele>
        <time>2017-04-05T09:22:57Z</time>
      </trkpt>
      <trkpt lat="45.98444" lon="4.89187">
        <ele>288</ele>
        <time>2017-04-05T09:22:59Z</time>
      </trkpt>
      <trkpt lat="45.98446" lon="4.89192">
        <ele>288</ele>
        <time>2017-04-05T09:23:00Z</time>
      </trkpt>
      <trkpt lat="45.98452" lon="4.892">
        <ele>289</ele>
        <time>2017-04-05T09:23:02Z</time>
      </trkpt>
      <trkpt lat="45.98454" lon="4.89205">
        <ele>289</ele>
        <time>2017-04-05T09:23:03Z</time>
      </trkpt>
      <trkpt lat="45.98459" lon="4.89213">
        <ele>289</ele>
        <time>2017-04-05T09:23:05Z</time>
      </trkpt>
      <trkpt lat="45.98461" lon="4.89217">
        <ele>289</ele>
        <time>2017-04-05T09:23:06Z</time>
      </trkpt>
      <trkpt lat="45.98465" lon="4.89226">
        <ele>289</ele>
        <time>2017-04-05T09:23:08Z</time>
      </trkpt>
      <trkpt lat="45.98468" lon="4.89231">
        <ele>289</ele>
        <time>2017-04-05T09:23:09Z</time>
      </trkpt>
      <trkpt lat="45.98472" lon="4.89239">
        <ele>289</ele>
        <time>2017-04-05T09:23:11Z</time>
      </trkpt>
      <trkpt lat="45.98473" lon="4.89242">
        <ele>289</ele>
        <time>2017-04-05T09:23:12Z</time>
      </trkpt>
      <trkpt lat="45.98477" lon="4.89251">
        <ele>291</ele>
        <time>2017-04-05T09:23:14Z</time>
      </trkpt>
      <trkpt lat="45.98479" lon="4.89255">
        <ele>291</ele>
        <time>2017-04-05T09:23:15Z</time>
      </trkpt>
      <trkpt lat="45.98483" lon="4.89263">
        <ele>291</ele>
        <time>2017-04-05T09:23:17Z</time>
      </trkpt>
      <trkpt lat="45.98486" lon="4.89267">
        <ele>291</ele>
        <time>2017-04-05T09:23:18Z</time>
      </trkpt>
      <trkpt lat="45.9849" lon="4.89275">
        <ele>292</ele>
        <time>2017-04-05T09:23:20Z</time>
      </trkpt>
      <trkpt lat="45.98493" lon="4.89279">
        <ele>292</ele>
        <time>2017-04-05T09:23:21Z</time>
      </trkpt>
      <trkpt lat="45.98498" lon="4.89288">
        <ele>292</ele>
        <time>2017-04-05T09:23:23Z</time>
      </trkpt>
      <trkpt lat="45.985" lon="4.89292">
        <ele>293</ele>
        <time>2017-04-05T09:23:24Z</time>
      </trkpt>
      <trkpt lat="45.98506" lon="4.893">
        <ele>293</ele>
        <time>2017-04-05T09:23:26Z</time>
      </trkpt>
      <trkpt lat="45.98509" lon="4.89304">
        <ele>293</ele>
        <time>2017-04-05T09:23:27Z</time>
      </trkpt>
      <trkpt lat="45.98515" lon="4.89312">
        <ele>293</ele>
        <time>2017-04-05T09:23:29Z</time>
      </trkpt>
      <trkpt lat="45.98518" lon="4.89316">
        <ele>293</ele>
        <time>2017-04-05T09:23:30Z</time>
      </trkpt>
      <trkpt lat="45.98524" lon="4.89324">
        <ele>293</ele>
        <time>2017-04-05T09:23:32Z</time>
      </trkpt>
      <trkpt lat="45.98526" lon="4.89328">
        <ele>293</ele>
        <time>2017-04-05T09:23:33Z</time>
      </trkpt>
      <trkpt lat="45.98532" lon="4.89335">
        <ele>295</ele>
        <time>2017-04-05T09:23:35Z</time>
      </trkpt>
      <trkpt lat="45.98535" lon="4.89339">
        <ele>295</ele>
        <time>2017-04-05T09:23:36Z</time>
      </trkpt>
      <trkpt lat="45.98539" lon="4.89343">
        <ele>295</ele>
        <time>2017-04-05T09:23:37Z</time>
      </trkpt>
      <trkpt lat="45.98542" lon="4.89347">
        <ele>295</ele>
        <time>2017-04-05T09:23:38Z</time>
      </trkpt>
      <trkpt lat="45.98546" lon="4.89352">
        <ele>295</ele>
        <time>2017-04-05T09:23:39Z</time>
      </trkpt>
      <trkpt lat="45.9855" lon="4.89356">
        <ele>295</ele>
        <time>2017-04-05T09:23:40Z</time>
      </trkpt>
      <trkpt lat="45.98554" lon="4.89361">
        <ele>295</ele>
        <time>2017-04-05T09:23:41Z</time>
      </trkpt>
      <trkpt lat="45.98558" lon="4.89364">
        <ele>295</ele>
        <time>2017-04-05T09:23:42Z</time>
      </trkpt>
      <trkpt lat="45.98565" lon="4.89372">
        <ele>295</ele>
        <time>2017-04-05T09:23:44Z</time>
      </trkpt>
      <trkpt lat="45.98568" lon="4.89375">
        <ele>295</ele>
        <time>2017-04-05T09:23:45Z</time>
      </trkpt>
      <trkpt lat="45.98572" lon="4.89378">
        <ele>295</ele>
        <time>2017-04-05T09:23:46Z</time>
      </trkpt>
      <trkpt lat="45.98576" lon="4.89382">
        <ele>295</ele>
        <time>2017-04-05T09:23:47Z</time>
      </trkpt>
      <trkpt lat="45.9858" lon="4.89386">
        <ele>295</ele>
        <time>2017-04-05T09:23:48Z</time>
      </trkpt>
      <trkpt lat="45.98583" lon="4.89389">
        <ele>295</ele>
        <time>2017-04-05T09:23:49Z</time>
      </trkpt>
      <trkpt lat="45.98588" lon="4.89394">
        <ele>292</ele>
        <time>2017-04-05T09:23:50Z</time>
      </trkpt>
      <trkpt lat="45.98591" lon="4.89398">
        <ele>292</ele>
        <time>2017-04-05T09:23:51Z</time>
      </trkpt>
      <trkpt lat="45.98596" lon="4.89401">
        <ele>292</ele>
        <time>2017-04-05T09:23:52Z</time>
      </trkpt>
      <trkpt lat="45.98599" lon="4.89405">
        <ele>292</ele>
        <time>2017-04-05T09:23:53Z</time>
      </trkpt>
      <trkpt lat="45.98606" lon="4.89411">
        <ele>292</ele>
        <time>2017-04-05T09:23:55Z</time>
      </trkpt>
      <trkpt lat="45.9861" lon="4.89415">
        <ele>291</ele>
        <time>2017-04-05T09:23:56Z</time>
      </trkpt>
      <trkpt lat="45.98613" lon="4.8942">
        <ele>292</ele>
        <time>2017-04-05T09:23:57Z</time>
      </trkpt>
      <trkpt lat="45.98617" lon="4.89424">
        <ele>292</ele>
        <time>2017-04-05T09:23:58Z</time>
      </trkpt>
      <trkpt lat="45.98621" lon="4.89429">
        <ele>291</ele>
        <time>2017-04-05T09:23:59Z</time>
      </trkpt>
      <trkpt lat="45.98625" lon="4.89432">
        <ele>291</ele>
        <time>2017-04-05T09:24:00Z</time>
      </trkpt>
      <trkpt lat="45.98628" lon="4.89436">
        <ele>291</ele>
        <time>2017-04-05T09:24:01Z</time>
      </trkpt>
      <trkpt lat="45.98632" lon="4.89441">
        <ele>291</ele>
        <time>2017-04-05T09:24:02Z</time>
      </trkpt>
      <trkpt lat="45.98636" lon="4.89444">
        <ele>291</ele>
        <time>2017-04-05T09:24:03Z</time>
      </trkpt>
      <trkpt lat="45.9864" lon="4.89449">
        <ele>291</ele>
        <time>2017-04-05T09:24:04Z</time>
      </trkpt>
      <trkpt lat="45.98644" lon="4.89453">
        <ele>291</ele>
        <time>2017-04-05T09:24:05Z</time>
      </trkpt>
      <trkpt lat="45.98648" lon="4.89457">
        <ele>291</ele>
        <time>2017-04-05T09:24:06Z</time>
      </trkpt>
      <trkpt lat="45.98655" lon="4.89464">
        <ele>290</ele>
        <time>2017-04-05T09:24:08Z</time>
      </trkpt>
      <trkpt lat="45.98658" lon="4.89468">
        <ele>290</ele>
        <time>2017-04-05T09:24:09Z</time>
      </trkpt>
      <trkpt lat="45.98664" lon="4.89476">
        <ele>290</ele>
        <time>2017-04-05T09:24:11Z</time>
      </trkpt>
      <trkpt lat="45.98667" lon="4.8948">
        <ele>289</ele>
        <time>2017-04-05T09:24:12Z</time>
      </trkpt>
      <trkpt lat="45.98674" lon="4.89489">
        <ele>289</ele>
        <time>2017-04-05T09:24:14Z</time>
      </trkpt>
      <trkpt lat="45.98676" lon="4.89493">
        <ele>289</ele>
        <time>2017-04-05T09:24:15Z</time>
      </trkpt>
      <trkpt lat="45.98682" lon="4.89501">
        <ele>289</ele>
        <time>2017-04-05T09:24:17Z</time>
      </trkpt>
      <trkpt lat="45.98685" lon="4.89505">
        <ele>289</ele>
        <time>2017-04-05T09:24:18Z</time>
      </trkpt>
      <trkpt lat="45.98691" lon="4.89514">
        <ele>289</ele>
        <time>2017-04-05T09:24:20Z</time>
      </trkpt>
      <trkpt lat="45.98694" lon="4.89518">
        <ele>289</ele>
        <time>2017-04-05T09:24:21Z</time>
      </trkpt>
      <trkpt lat="45.98699" lon="4.89526">
        <ele>289</ele>
        <time>2017-04-05T09:24:23Z</time>
      </trkpt>
      <trkpt lat="45.98702" lon="4.8953">
        <ele>289</ele>
        <time>2017-04-05T09:24:24Z</time>
      </trkpt>
      <trkpt lat="45.98708" lon="4.89538">
        <ele>289</ele>
        <time>2017-04-05T09:24:26Z</time>
      </trkpt>
      <trkpt lat="45.98711" lon="4.89542">
        <ele>290</ele>
        <time>2017-04-05T09:24:27Z</time>
      </trkpt>
      <trkpt lat="45.98716" lon="4.8955">
        <ele>290</ele>
        <time>2017-04-05T09:24:29Z</time>
      </trkpt>
      <trkpt lat="45.98719" lon="4.89554">
        <ele>290</ele>
        <time>2017-04-05T09:24:30Z</time>
      </trkpt>
      <trkpt lat="45.98725" lon="4.89563">
        <ele>290</ele>
        <time>2017-04-05T09:24:32Z</time>
      </trkpt>
      <trkpt lat="45.98728" lon="4.89567">
        <ele>290</ele>
        <time>2017-04-05T09:24:33Z</time>
      </trkpt>
      <trkpt lat="45.98734" lon="4.89575">
        <ele>290</ele>
        <time>2017-04-05T09:24:35Z</time>
      </trkpt>
      <trkpt lat="45.98737" lon="4.89579">
        <ele>290</ele>
        <time>2017-04-05T09:24:36Z</time>
      </trkpt>
      <trkpt lat="45.98742" lon="4.89587">
        <ele>291</ele>
        <time>2017-04-05T09:24:38Z</time>
      </trkpt>
      <trkpt lat="45.98745" lon="4.89591">
        <ele>291</ele>
        <time>2017-04-05T09:24:39Z</time>
      </trkpt>
      <trkpt lat="45.9875" lon="4.89599">
        <ele>291</ele>
        <time>2017-04-05T09:24:41Z</time>
      </trkpt>
      <trkpt lat="45.98753" lon="4.89603">
        <ele>291</ele>
        <time>2017-04-05T09:24:42Z</time>
      </trkpt>
      <trkpt lat="45.98759" lon="4.89612">
        <ele>291</ele>
        <time>2017-04-05T09:24:44Z</time>
      </trkpt>
      <trkpt lat="45.98763" lon="4.89616">
        <ele>291</ele>
        <time>2017-04-05T09:24:45Z</time>
      </trkpt>
      <trkpt lat="45.98769" lon="4.89624">
        <ele>291</ele>
        <time>2017-04-05T09:24:47Z</time>
      </trkpt>
      <trkpt lat="45.98772" lon="4.89629">
        <ele>291</ele>
        <time>2017-04-05T09:24:48Z</time>
      </trkpt>
      <trkpt lat="45.98777" lon="4.89637">
        <ele>291</ele>
        <time>2017-04-05T09:24:50Z</time>
      </trkpt>
      <trkpt lat="45.9878" lon="4.89642">
        <ele>291</ele>
        <time>2017-04-05T09:24:51Z</time>
      </trkpt>
      <trkpt lat="45.98785" lon="4.8965">
        <ele>291</ele>
        <time>2017-04-05T09:24:53Z</time>
      </trkpt>
      <trkpt lat="45.98788" lon="4.89654">
        <ele>291</ele>
        <time>2017-04-05T09:24:54Z</time>
      </trkpt>
      <trkpt lat="45.98794" lon="4.89663">
        <ele>291</ele>
        <time>2017-04-05T09:24:56Z</time>
      </trkpt>
      <trkpt lat="45.98798" lon="4.89667">
        <ele>291</ele>
        <time>2017-04-05T09:24:57Z</time>
      </trkpt>
      <trkpt lat="45.98804" lon="4.89674">
        <ele>292</ele>
        <time>2017-04-05T09:24:59Z</time>
      </trkpt>
      <trkpt lat="45.98807" lon="4.89677">
        <ele>292</ele>
        <time>2017-04-05T09:25:00Z</time>
      </trkpt>
      <trkpt lat="45.98814" lon="4.89684">
        <ele>292</ele>
        <time>2017-04-05T09:25:02Z</time>
      </trkpt>
      <trkpt lat="45.98817" lon="4.89687">
        <ele>292</ele>
        <time>2017-04-05T09:25:03Z</time>
      </trkpt>
      <trkpt lat="45.98823" lon="4.89693">
        <ele>292</ele>
        <time>2017-04-05T09:25:05Z</time>
      </trkpt>
      <trkpt lat="45.98826" lon="4.89696">
        <ele>292</ele>
        <time>2017-04-05T09:25:06Z</time>
      </trkpt>
      <trkpt lat="45.98833" lon="4.89702">
        <ele>292</ele>
        <time>2017-04-05T09:25:08Z</time>
      </trkpt>
      <trkpt lat="45.98836" lon="4.89705">
        <ele>292</ele>
        <time>2017-04-05T09:25:09Z</time>
      </trkpt>
      <trkpt lat="45.98843" lon="4.89711">
        <ele>293</ele>
        <time>2017-04-05T09:25:11Z</time>
      </trkpt>
      <trkpt lat="45.98847" lon="4.89714">
        <ele>293</ele>
        <time>2017-04-05T09:25:12Z</time>
      </trkpt>
      <trkpt lat="45.98854" lon="4.8972">
        <ele>293</ele>
        <time>2017-04-05T09:25:14Z</time>
      </trkpt>
      <trkpt lat="45.98857" lon="4.89723">
        <ele>293</ele>
        <time>2017-04-05T09:25:15Z</time>
      </trkpt>
      <trkpt lat="45.98864" lon="4.89729">
        <ele>293</ele>
        <time>2017-04-05T09:25:17Z</time>
      </trkpt>
      <trkpt lat="45.98868" lon="4.89731">
        <ele>293</ele>
        <time>2017-04-05T09:25:18Z</time>
      </trkpt>
      <trkpt lat="45.98875" lon="4.89737">
        <ele>293</ele>
        <time>2017-04-05T09:25:20Z</time>
      </trkpt>
      <trkpt lat="45.98879" lon="4.89739">
        <ele>293</ele>
        <time>2017-04-05T09:25:21Z</time>
      </trkpt>
      <trkpt lat="45.98886" lon="4.89745">
        <ele>293</ele>
        <time>2017-04-05T09:25:23Z</time>
      </trkpt>
      <trkpt lat="45.98889" lon="4.89747">
        <ele>293</ele>
        <time>2017-04-05T09:25:24Z</time>
      </trkpt>
      <trkpt lat="45.98896" lon="4.89752">
        <ele>293</ele>
        <time>2017-04-05T09:25:26Z</time>
      </trkpt>
      <trkpt lat="45.98899" lon="4.89754">
        <ele>293</ele>
        <time>2017-04-05T09:25:27Z</time>
      </trkpt>
      <trkpt lat="45.98906" lon="4.89759">
        <ele>293</ele>
        <time>2017-04-05T09:25:29Z</time>
      </trkpt>
      <trkpt lat="45.9891" lon="4.89762">
        <ele>293</ele>
        <time>2017-04-05T09:25:30Z</time>
      </trkpt>
      <trkpt lat="45.98917" lon="4.89767">
        <ele>293</ele>
        <time>2017-04-05T09:25:32Z</time>
      </trkpt>
      <trkpt lat="45.98921" lon="4.8977">
        <ele>293</ele>
        <time>2017-04-05T09:25:33Z</time>
      </trkpt>
      <trkpt lat="45.98928" lon="4.89775">
        <ele>293</ele>
        <time>2017-04-05T09:25:35Z</time>
      </trkpt>
      <trkpt lat="45.98932" lon="4.89777">
        <ele>293</ele>
        <time>2017-04-05T09:25:36Z</time>
      </trkpt>
      <trkpt lat="45.9894" lon="4.89783">
        <ele>293</ele>
        <time>2017-04-05T09:25:38Z</time>
      </trkpt>
      <trkpt lat="45.98944" lon="4.89786">
        <ele>293</ele>
        <time>2017-04-05T09:25:39Z</time>
      </trkpt>
      <trkpt lat="45.98948" lon="4.89789">
        <ele>293</ele>
        <time>2017-04-05T09:25:40Z</time>
      </trkpt>
      <trkpt lat="45.98952" lon="4.89792">
        <ele>293</ele>
        <time>2017-04-05T09:25:41Z</time>
      </trkpt>
      <trkpt lat="45.98959" lon="4.89799">
        <ele>293</ele>
        <time>2017-04-05T09:25:43Z</time>
      </trkpt>
      <trkpt lat="45.98962" lon="4.89802">
        <ele>293</ele>
        <time>2017-04-05T09:25:44Z</time>
      </trkpt>
      <trkpt lat="45.98968" lon="4.89809">
        <ele>293</ele>
        <time>2017-04-05T09:25:46Z</time>
      </trkpt>
      <trkpt lat="45.98972" lon="4.89813">
        <ele>293</ele>
        <time>2017-04-05T09:25:47Z</time>
      </trkpt>
      <trkpt lat="45.98975" lon="4.89817">
        <ele>293</ele>
        <time>2017-04-05T09:25:48Z</time>
      </trkpt>
      <trkpt lat="45.98979" lon="4.89822">
        <ele>293</ele>
        <time>2017-04-05T09:25:49Z</time>
      </trkpt>
      <trkpt lat="45.98982" lon="4.89827">
        <ele>293</ele>
        <time>2017-04-05T09:25:50Z</time>
      </trkpt>
      <trkpt lat="45.98986" lon="4.89831">
        <ele>293</ele>
        <time>2017-04-05T09:25:51Z</time>
      </trkpt>
      <trkpt lat="45.9899" lon="4.89836">
        <ele>293</ele>
        <time>2017-04-05T09:25:52Z</time>
      </trkpt>
      <trkpt lat="45.98993" lon="4.8984">
        <ele>293</ele>
        <time>2017-04-05T09:25:53Z</time>
      </trkpt>
      <trkpt lat="45.99" lon="4.89847">
        <ele>293</ele>
        <time>2017-04-05T09:25:55Z</time>
      </trkpt>
      <trkpt lat="45.99003" lon="4.89851">
        <ele>293</ele>
        <time>2017-04-05T09:25:56Z</time>
      </trkpt>
      <trkpt lat="45.99009" lon="4.89859">
        <ele>293</ele>
        <time>2017-04-05T09:25:58Z</time>
      </trkpt>
      <trkpt lat="45.99012" lon="4.89863">
        <ele>293</ele>
        <time>2017-04-05T09:25:59Z</time>
      </trkpt>
      <trkpt lat="45.99018" lon="4.8987">
        <ele>293</ele>
        <time>2017-04-05T09:26:01Z</time>
      </trkpt>
      <trkpt lat="45.99021" lon="4.89875">
        <ele>293</ele>
        <time>2017-04-05T09:26:02Z</time>
      </trkpt>
      <trkpt lat="45.99027" lon="4.89882">
        <ele>293</ele>
        <time>2017-04-05T09:26:04Z</time>
      </trkpt>
      <trkpt lat="45.9903" lon="4.89886">
        <ele>293</ele>
        <time>2017-04-05T09:26:05Z</time>
      </trkpt>
      <trkpt lat="45.99036" lon="4.89895">
        <ele>293</ele>
        <time>2017-04-05T09:26:07Z</time>
      </trkpt>
      <trkpt lat="45.9904" lon="4.89899">
        <ele>293</ele>
        <time>2017-04-05T09:26:08Z</time>
      </trkpt>
      <trkpt lat="45.99043" lon="4.89903">
        <ele>293</ele>
        <time>2017-04-05T09:26:09Z</time>
      </trkpt>
      <trkpt lat="45.99046" lon="4.89908">
        <ele>293</ele>
        <time>2017-04-05T09:26:10Z</time>
      </trkpt>
      <trkpt lat="45.99052" lon="4.89917">
        <ele>294</ele>
        <time>2017-04-05T09:26:12Z</time>
      </trkpt>
      <trkpt lat="45.99055" lon="4.89921">
        <ele>294</ele>
        <time>2017-04-05T09:26:13Z</time>
      </trkpt>
      <trkpt lat="45.99062" lon="4.8993">
        <ele>294</ele>
        <time>2017-04-05T09:26:15Z</time>
      </trkpt>
      <trkpt lat="45.99065" lon="4.89935">
        <ele>294</ele>
        <time>2017-04-05T09:26:16Z</time>
      </trkpt>
      <trkpt lat="45.99071" lon="4.89944">
        <ele>294</ele>
        <time>2017-04-05T09:26:18Z</time>
      </trkpt>
      <trkpt lat="45.99074" lon="4.89948">
        <ele>294</ele>
        <time>2017-04-05T09:26:19Z</time>
      </trkpt>
      <trkpt lat="45.9908" lon="4.89956">
        <ele>294</ele>
        <time>2017-04-05T09:26:21Z</time>
      </trkpt>
      <trkpt lat="45.99082" lon="4.8996">
        <ele>294</ele>
        <time>2017-04-05T09:26:22Z</time>
      </trkpt>
      <trkpt lat="45.99088" lon="4.89969">
        <ele>295</ele>
        <time>2017-04-05T09:26:24Z</time>
      </trkpt>
      <trkpt lat="45.99092" lon="4.89974">
        <ele>295</ele>
        <time>2017-04-05T09:26:25Z</time>
      </trkpt>
      <trkpt lat="45.99096" lon="4.89979">
        <ele>295</ele>
        <time>2017-04-05T09:26:26Z</time>
      </trkpt>
      <trkpt lat="45.99099" lon="4.89983">
        <ele>295</ele>
        <time>2017-04-05T09:26:27Z</time>
      </trkpt>
      <trkpt lat="45.99103" lon="4.89988">
        <ele>295</ele>
        <time>2017-04-05T09:26:28Z</time>
      </trkpt>
      <trkpt lat="45.99106" lon="4.89993">
        <ele>295</ele>
        <time>2017-04-05T09:26:29Z</time>
      </trkpt>
      <trkpt lat="45.9911" lon="4.89998">
        <ele>295</ele>
        <time>2017-04-05T09:26:30Z</time>
      </trkpt>
      <trkpt lat="45.99114" lon="4.90003">
        <ele>296</ele>
        <time>2017-04-05T09:26:31Z</time>
      </trkpt>
      <trkpt lat="45.99118" lon="4.90008">
        <ele>296</ele>
        <time>2017-04-05T09:26:32Z</time>
      </trkpt>
      <trkpt lat="45.99122" lon="4.90012">
        <ele>296</ele>
        <time>2017-04-05T09:26:33Z</time>
      </trkpt>
      <trkpt lat="45.99125" lon="4.90016">
        <ele>296</ele>
        <time>2017-04-05T09:26:34Z</time>
      </trkpt>
      <trkpt lat="45.99129" lon="4.9002">
        <ele>296</ele>
        <time>2017-04-05T09:26:35Z</time>
      </trkpt>
      <trkpt lat="45.99135" lon="4.90029">
        <ele>297</ele>
        <time>2017-04-05T09:26:37Z</time>
      </trkpt>
      <trkpt lat="45.99138" lon="4.90033">
        <ele>297</ele>
        <time>2017-04-05T09:26:38Z</time>
      </trkpt>
      <trkpt lat="45.99145" lon="4.90041">
        <ele>297</ele>
        <time>2017-04-05T09:26:40Z</time>
      </trkpt>
      <trkpt lat="45.99147" lon="4.90046">
        <ele>297</ele>
        <time>2017-04-05T09:26:41Z</time>
      </trkpt>
      <trkpt lat="45.99154" lon="4.90054">
        <ele>297</ele>
        <time>2017-04-05T09:26:43Z</time>
      </trkpt>
      <trkpt lat="45.99157" lon="4.90059">
        <ele>297</ele>
        <time>2017-04-05T09:26:44Z</time>
      </trkpt>
      <trkpt lat="45.99164" lon="4.90067">
        <ele>297</ele>
        <time>2017-04-05T09:26:46Z</time>
      </trkpt>
      <trkpt lat="45.99167" lon="4.90071">
        <ele>297</ele>
        <time>2017-04-05T09:26:47Z</time>
      </trkpt>
      <trkpt lat="45.9917" lon="4.90076">
        <ele>298</ele>
        <time>2017-04-05T09:26:48Z</time>
      </trkpt>
      <trkpt lat="45.99174" lon="4.9008">
        <ele>298</ele>
        <time>2017-04-05T09:26:49Z</time>
      </trkpt>
      <trkpt lat="45.9918" lon="4.90088">
        <ele>297</ele>
        <time>2017-04-05T09:26:51Z</time>
      </trkpt>
      <trkpt lat="45.99183" lon="4.90092">
        <ele>297</ele>
        <time>2017-04-05T09:26:52Z</time>
      </trkpt>
      <trkpt lat="45.99187" lon="4.90096">
        <ele>297</ele>
        <time>2017-04-05T09:26:53Z</time>
      </trkpt>
      <trkpt lat="45.9919" lon="4.901">
        <ele>297</ele>
        <time>2017-04-05T09:26:54Z</time>
      </trkpt>
      <trkpt lat="45.99197" lon="4.90108">
        <ele>297</ele>
        <time>2017-04-05T09:26:56Z</time>
      </trkpt>
      <trkpt lat="45.992" lon="4.90112">
        <ele>297</ele>
        <time>2017-04-05T09:26:57Z</time>
      </trkpt>
      <trkpt lat="45.99205" lon="4.90121">
        <ele>297</ele>
        <time>2017-04-05T09:26:59Z</time>
      </trkpt>
      <trkpt lat="45.99208" lon="4.90125">
        <ele>297</ele>
        <time>2017-04-05T09:27:00Z</time>
      </trkpt>
      <trkpt lat="45.99212" lon="4.9013">
        <ele>297</ele>
        <time>2017-04-05T09:27:01Z</time>
      </trkpt>
      <trkpt lat="45.99215" lon="4.90134">
        <ele>297</ele>
        <time>2017-04-05T09:27:02Z</time>
      </trkpt>
      <trkpt lat="45.99219" lon="4.9014">
        <ele>297</ele>
        <time>2017-04-05T09:27:03Z</time>
      </trkpt>
      <trkpt lat="45.99223" lon="4.90146">
        <ele>297</ele>
        <time>2017-04-05T09:27:04Z</time>
      </trkpt>
      <trkpt lat="45.99227" lon="4.90152">
        <ele>297</ele>
        <time>2017-04-05T09:27:05Z</time>
      </trkpt>
      <trkpt lat="45.99231" lon="4.90157">
        <ele>297</ele>
        <time>2017-04-05T09:27:06Z</time>
      </trkpt>
      <trkpt lat="45.99235" lon="4.90163">
        <ele>297</ele>
        <time>2017-04-05T09:27:07Z</time>
      </trkpt>
      <trkpt lat="45.99239" lon="4.90168">
        <ele>297</ele>
        <time>2017-04-05T09:27:08Z</time>
      </trkpt>
      <trkpt lat="45.99243" lon="4.90173">
        <ele>297</ele>
        <time>2017-04-05T09:27:09Z</time>
      </trkpt>
      <trkpt lat="45.99247" lon="4.90178">
        <ele>297</ele>
        <time>2017-04-05T09:27:10Z</time>
      </trkpt>
      <trkpt lat="45.9925" lon="4.90183">
        <ele>297</ele>
        <time>2017-04-05T09:27:11Z</time>
      </trkpt>
      <trkpt lat="45.99254" lon="4.90187">
        <ele>298</ele>
        <time>2017-04-05T09:27:12Z</time>
      </trkpt>
      <trkpt lat="45.9926" lon="4.90195">
        <ele>298</ele>
        <time>2017-04-05T09:27:14Z</time>
      </trkpt>
      <trkpt lat="45.99263" lon="4.90199">
        <ele>298</ele>
        <time>2017-04-05T09:27:15Z</time>
      </trkpt>
      <trkpt lat="45.9927" lon="4.90207">
        <ele>298</ele>
        <time>2017-04-05T09:27:17Z</time>
      </trkpt>
      <trkpt lat="45.99273" lon="4.90212">
        <ele>298</ele>
        <time>2017-04-05T09:27:18Z</time>
      </trkpt>
      <trkpt lat="45.99276" lon="4.90217">
        <ele>298</ele>
        <time>2017-04-05T09:27:19Z</time>
      </trkpt>
      <trkpt lat="45.9928" lon="4.90222">
        <ele>298</ele>
        <time>2017-04-05T09:27:20Z</time>
      </trkpt>
      <trkpt lat="45.99284" lon="4.90227">
        <ele>298</ele>
        <time>2017-04-05T09:27:21Z</time>
      </trkpt>
      <trkpt lat="45.99287" lon="4.90232">
        <ele>298</ele>
        <time>2017-04-05T09:27:22Z</time>
      </trkpt>
      <trkpt lat="45.9929" lon="4.90237">
        <ele>298</ele>
        <time>2017-04-05T09:27:23Z</time>
      </trkpt>
      <trkpt lat="45.99293" lon="4.90241">
        <ele>298</ele>
        <time>2017-04-05T09:27:24Z</time>
      </trkpt>
      <trkpt lat="45.99299" lon="4.90249">
        <ele>298</ele>
        <time>2017-04-05T09:27:26Z</time>
      </trkpt>
      <trkpt lat="45.99302" lon="4.90252">
        <ele>299</ele>
        <time>2017-04-05T09:27:27Z</time>
      </trkpt>
      <trkpt lat="45.99307" lon="4.9026">
        <ele>299</ele>
        <time>2017-04-05T09:27:29Z</time>
      </trkpt>
      <trkpt lat="45.99308" lon="4.90264">
        <ele>299</ele>
        <time>2017-04-05T09:27:30Z</time>
      </trkpt>
      <trkpt lat="45.9931" lon="4.90275">
        <ele>299</ele>
        <time>2017-04-05T09:27:33Z</time>
      </trkpt>
      <trkpt lat="45.99312" lon="4.90278">
        <ele>299</ele>
        <time>2017-04-05T09:27:34Z</time>
      </trkpt>
      <trkpt lat="45.99316" lon="4.90285">
        <ele>299</ele>
        <time>2017-04-05T09:27:36Z</time>
      </trkpt>
      <trkpt lat="45.9932" lon="4.90288">
        <ele>299</ele>
        <time>2017-04-05T09:27:37Z</time>
      </trkpt>
      <trkpt lat="45.99324" lon="4.9029">
        <ele>299</ele>
        <time>2017-04-05T09:27:38Z</time>
      </trkpt>
      <trkpt lat="45.99329" lon="4.90291">
        <ele>299</ele>
        <time>2017-04-05T09:27:39Z</time>
      </trkpt>
      <trkpt lat="45.99333" lon="4.90293">
        <ele>299</ele>
        <time>2017-04-05T09:27:40Z</time>
      </trkpt>
      <trkpt lat="45.99338" lon="4.90294">
        <ele>300</ele>
        <time>2017-04-05T09:27:41Z</time>
      </trkpt>
      <trkpt lat="45.99343" lon="4.90296">
        <ele>300</ele>
        <time>2017-04-05T09:27:42Z</time>
      </trkpt>
      <trkpt lat="45.99348" lon="4.90298">
        <ele>300</ele>
        <time>2017-04-05T09:27:43Z</time>
      </trkpt>
      <trkpt lat="45.99357" lon="4.90298">
        <ele>300</ele>
        <time>2017-04-05T09:27:45Z</time>
      </trkpt>
      <trkpt lat="45.99361" lon="4.90298">
        <ele>300</ele>
        <time>2017-04-05T09:27:46Z</time>
      </trkpt>
      <trkpt lat="45.99368" lon="4.90298">
        <ele>300</ele>
        <time>2017-04-05T09:27:48Z</time>
      </trkpt>
      <trkpt lat="45.99372" lon="4.90298">
        <ele>300</ele>
        <time>2017-04-05T09:27:49Z</time>
      </trkpt>
      <trkpt lat="45.99379" lon="4.90298">
        <ele>300</ele>
        <time>2017-04-05T09:27:51Z</time>
      </trkpt>
      <trkpt lat="45.99383" lon="4.90298">
        <ele>300</ele>
        <time>2017-04-05T09:27:52Z</time>
      </trkpt>
      <trkpt lat="45.99391" lon="4.90299">
        <ele>300</ele>
        <time>2017-04-05T09:27:54Z</time>
      </trkpt>
      <trkpt lat="45.99395" lon="4.903">
        <ele>300</ele>
        <time>2017-04-05T09:27:55Z</time>
      </trkpt>
      <trkpt lat="45.99402" lon="4.90302">
        <ele>300</ele>
        <time>2017-04-05T09:27:57Z</time>
      </trkpt>
      <trkpt lat="45.99406" lon="4.90302">
        <ele>300</ele>
        <time>2017-04-05T09:27:58Z</time>
      </trkpt>
      <trkpt lat="45.99415" lon="4.90302">
        <ele>300</ele>
        <time>2017-04-05T09:28:00Z</time>
      </trkpt>
      <trkpt lat="45.99419" lon="4.90303">
        <ele>300</ele>
        <time>2017-04-05T09:28:01Z</time>
      </trkpt>
      <trkpt lat="45.99427" lon="4.90304">
        <ele>300</ele>
        <time>2017-04-05T09:28:03Z</time>
      </trkpt>
      <trkpt lat="45.99431" lon="4.90305">
        <ele>300</ele>
        <time>2017-04-05T09:28:04Z</time>
      </trkpt>
      <trkpt lat="45.99439" lon="4.90305">
        <ele>300</ele>
        <time>2017-04-05T09:28:06Z</time>
      </trkpt>
      <trkpt lat="45.99443" lon="4.90306">
        <ele>300</ele>
        <time>2017-04-05T09:28:07Z</time>
      </trkpt>
      <trkpt lat="45.99451" lon="4.90307">
        <ele>300</ele>
        <time>2017-04-05T09:28:09Z</time>
      </trkpt>
      <trkpt lat="45.99455" lon="4.90308">
        <ele>300</ele>
        <time>2017-04-05T09:28:10Z</time>
      </trkpt>
      <trkpt lat="45.99463" lon="4.90309">
        <ele>300</ele>
        <time>2017-04-05T09:28:12Z</time>
      </trkpt>
      <trkpt lat="45.99468" lon="4.90309">
        <ele>300</ele>
        <time>2017-04-05T09:28:13Z</time>
      </trkpt>
      <trkpt lat="45.99475" lon="4.90306">
        <ele>300</ele>
        <time>2017-04-05T09:28:15Z</time>
      </trkpt>
      <trkpt lat="45.99478" lon="4.90306">
        <ele>300</ele>
        <time>2017-04-05T09:28:16Z</time>
      </trkpt>
      <trkpt lat="45.99485" lon="4.90309">
        <ele>300</ele>
        <time>2017-04-05T09:28:18Z</time>
      </trkpt>
      <trkpt lat="45.99489" lon="4.9031">
        <ele>300</ele>
        <time>2017-04-05T09:28:19Z</time>
      </trkpt>
      <trkpt lat="45.99498" lon="4.90312">
        <ele>300</ele>
        <time>2017-04-05T09:28:21Z</time>
      </trkpt>
      <trkpt lat="45.99502" lon="4.90313">
        <ele>301</ele>
        <time>2017-04-05T09:28:22Z</time>
      </trkpt>
      <trkpt lat="45.99511" lon="4.90314">
        <ele>301</ele>
        <time>2017-04-05T09:28:24Z</time>
      </trkpt>
      <trkpt lat="45.99515" lon="4.90314">
        <ele>300</ele>
        <time>2017-04-05T09:28:25Z</time>
      </trkpt>
      <trkpt lat="45.9952" lon="4.90314">
        <ele>300</ele>
        <time>2017-04-05T09:28:26Z</time>
      </trkpt>
      <trkpt lat="45.99524" lon="4.90315">
        <ele>300</ele>
        <time>2017-04-05T09:28:27Z</time>
      </trkpt>
      <trkpt lat="45.99532" lon="4.90316">
        <ele>300</ele>
        <time>2017-04-05T09:28:29Z</time>
      </trkpt>
      <trkpt lat="45.99536" lon="4.90316">
        <ele>300</ele>
        <time>2017-04-05T09:28:30Z</time>
      </trkpt>
      <trkpt lat="45.99541" lon="4.90316">
        <ele>300</ele>
        <time>2017-04-05T09:28:31Z</time>
      </trkpt>
      <trkpt lat="45.99546" lon="4.90316">
        <ele>300</ele>
        <time>2017-04-05T09:28:32Z</time>
      </trkpt>
      <trkpt lat="45.99554" lon="4.90317">
        <ele>300</ele>
        <time>2017-04-05T09:28:34Z</time>
      </trkpt>
      <trkpt lat="45.99559" lon="4.90318">
        <ele>301</ele>
        <time>2017-04-05T09:28:35Z</time>
      </trkpt>
      <trkpt lat="45.99567" lon="4.90319">
        <ele>301</ele>
        <time>2017-04-05T09:28:37Z</time>
      </trkpt>
      <trkpt lat="45.99571" lon="4.90319">
        <ele>301</ele>
        <time>2017-04-05T09:28:38Z</time>
      </trkpt>
      <trkpt lat="45.99579" lon="4.90319">
        <ele>301</ele>
        <time>2017-04-05T09:28:40Z</time>
      </trkpt>
      <trkpt lat="45.99583" lon="4.9032">
        <ele>301</ele>
        <time>2017-04-05T09:28:41Z</time>
      </trkpt>
      <trkpt lat="45.99591" lon="4.90322">
        <ele>301</ele>
        <time>2017-04-05T09:28:43Z</time>
      </trkpt>
      <trkpt lat="45.99595" lon="4.90322">
        <ele>301</ele>
        <time>2017-04-05T09:28:44Z</time>
      </trkpt>
      <trkpt lat="45.99603" lon="4.90323">
        <ele>301</ele>
        <time>2017-04-05T09:28:46Z</time>
      </trkpt>
      <trkpt lat="45.99607" lon="4.90323">
        <ele>301</ele>
        <time>2017-04-05T09:28:47Z</time>
      </trkpt>
      <trkpt lat="45.99615" lon="4.90323">
        <ele>302</ele>
        <time>2017-04-05T09:28:49Z</time>
      </trkpt>
      <trkpt lat="45.9962" lon="4.90323">
        <ele>302</ele>
        <time>2017-04-05T09:28:50Z</time>
      </trkpt>
      <trkpt lat="45.99628" lon="4.90323">
        <ele>302</ele>
        <time>2017-04-05T09:28:52Z</time>
      </trkpt>
      <trkpt lat="45.99631" lon="4.90323">
        <ele>302</ele>
        <time>2017-04-05T09:28:53Z</time>
      </trkpt>
      <trkpt lat="45.99639" lon="4.90324">
        <ele>302</ele>
        <time>2017-04-05T09:28:55Z</time>
      </trkpt>
      <trkpt lat="45.99643" lon="4.90324">
        <ele>302</ele>
        <time>2017-04-05T09:28:56Z</time>
      </trkpt>
      <trkpt lat="45.9965" lon="4.90326">
        <ele>302</ele>
        <time>2017-04-05T09:28:58Z</time>
      </trkpt>
      <trkpt lat="45.99653" lon="4.90327">
        <ele>302</ele>
        <time>2017-04-05T09:28:59Z</time>
      </trkpt>
      <trkpt lat="45.9966" lon="4.90327">
        <ele>302</ele>
        <time>2017-04-05T09:29:01Z</time>
      </trkpt>
      <trkpt lat="45.99663" lon="4.90328">
        <ele>302</ele>
        <time>2017-04-05T09:29:02Z</time>
      </trkpt>
      <trkpt lat="45.9967" lon="4.9032">
        <ele>303</ele>
        <time>2017-04-05T09:29:07Z</time>
      </trkpt>
      <trkpt lat="45.9967" lon="4.90316">
        <ele>303</ele>
        <time>2017-04-05T09:29:08Z</time>
      </trkpt>
      <trkpt lat="45.99668" lon="4.90306">
        <ele>304</ele>
        <time>2017-04-05T09:29:10Z</time>
      </trkpt>
      <trkpt lat="45.99669" lon="4.90301">
        <ele>304</ele>
        <time>2017-04-05T09:29:11Z</time>
      </trkpt>
      <trkpt lat="45.99671" lon="4.90291">
        <ele>304</ele>
        <time>2017-04-05T09:29:13Z</time>
      </trkpt>
      <trkpt lat="45.99672" lon="4.90285">
        <ele>304</ele>
        <time>2017-04-05T09:29:14Z</time>
      </trkpt>
      <trkpt lat="45.99675" lon="4.90273">
        <ele>304</ele>
        <time>2017-04-05T09:29:16Z</time>
      </trkpt>
      <trkpt lat="45.99676" lon="4.90268">
        <ele>304</ele>
        <time>2017-04-05T09:29:17Z</time>
      </trkpt>
      <trkpt lat="45.99677" lon="4.90257">
        <ele>304</ele>
        <time>2017-04-05T09:29:19Z</time>
      </trkpt>
      <trkpt lat="45.99678" lon="4.90252">
        <ele>304</ele>
        <time>2017-04-05T09:29:20Z</time>
      </trkpt>
      <trkpt lat="45.99679" lon="4.90243">
        <ele>304</ele>
        <time>2017-04-05T09:29:22Z</time>
      </trkpt>
      <trkpt lat="45.99678" lon="4.90236">
        <ele>304</ele>
        <time>2017-04-05T09:29:23Z</time>
      </trkpt>
      <trkpt lat="45.99677" lon="4.90229">
        <ele>304</ele>
        <time>2017-04-05T09:29:24Z</time>
      </trkpt>
      <trkpt lat="45.99676" lon="4.90222">
        <ele>304</ele>
        <time>2017-04-05T09:29:25Z</time>
      </trkpt>
      <trkpt lat="45.99675" lon="4.90215">
        <ele>303</ele>
        <time>2017-04-05T09:29:26Z</time>
      </trkpt>
      <trkpt lat="45.99673" lon="4.90208">
        <ele>303</ele>
        <time>2017-04-05T09:29:27Z</time>
      </trkpt>
      <trkpt lat="45.9967" lon="4.902">
        <ele>303</ele>
        <time>2017-04-05T09:29:28Z</time>
      </trkpt>
      <trkpt lat="45.99668" lon="4.90192">
        <ele>303</ele>
        <time>2017-04-05T09:29:29Z</time>
      </trkpt>
      <trkpt lat="45.99666" lon="4.90184">
        <ele>301</ele>
        <time>2017-04-05T09:29:30Z</time>
      </trkpt>
      <trkpt lat="45.99664" lon="4.90175">
        <ele>301</ele>
        <time>2017-04-05T09:29:31Z</time>
      </trkpt>
      <trkpt lat="45.99661" lon="4.90166">
        <ele>301</ele>
        <time>2017-04-05T09:29:32Z</time>
      </trkpt>
      <trkpt lat="45.99659" lon="4.90156">
        <ele>300</ele>
        <time>2017-04-05T09:29:33Z</time>
      </trkpt>
      <trkpt lat="45.99656" lon="4.90147">
        <ele>300</ele>
        <time>2017-04-05T09:29:34Z</time>
      </trkpt>
      <trkpt lat="45.99654" lon="4.90136">
        <ele>299</ele>
        <time>2017-04-05T09:29:35Z</time>
      </trkpt>
      <trkpt lat="45.99651" lon="4.90124">
        <ele>299</ele>
        <time>2017-04-05T09:29:36Z</time>
      </trkpt>
      <trkpt lat="45.99648" lon="4.90113">
        <ele>299</ele>
        <time>2017-04-05T09:29:37Z</time>
      </trkpt>
      <trkpt lat="45.99645" lon="4.90102">
        <ele>299</ele>
        <time>2017-04-05T09:29:38Z</time>
      </trkpt>
      <trkpt lat="45.99642" lon="4.90091">
        <ele>299</ele>
        <time>2017-04-05T09:29:39Z</time>
      </trkpt>
      <trkpt lat="45.99639" lon="4.90079">
        <ele>297</ele>
        <time>2017-04-05T09:29:40Z</time>
      </trkpt>
      <trkpt lat="45.99635" lon="4.90069">
        <ele>297</ele>
        <time>2017-04-05T09:29:41Z</time>
      </trkpt>
      <trkpt lat="45.9963" lon="4.90059">
        <ele>297</ele>
        <time>2017-04-05T09:29:42Z</time>
      </trkpt>
      <trkpt lat="45.99626" lon="4.90049">
        <ele>297</ele>
        <time>2017-04-05T09:29:43Z</time>
      </trkpt>
      <trkpt lat="45.99621" lon="4.90039">
        <ele>296</ele>
        <time>2017-04-05T09:29:44Z</time>
      </trkpt>
      <trkpt lat="45.99617" lon="4.9003">
        <ele>296</ele>
        <time>2017-04-05T09:29:45Z</time>
      </trkpt>
      <trkpt lat="45.99613" lon="4.90019">
        <ele>296</ele>
        <time>2017-04-05T09:29:46Z</time>
      </trkpt>
      <trkpt lat="45.9961" lon="4.90007">
        <ele>296</ele>
        <time>2017-04-05T09:29:47Z</time>
      </trkpt>
      <trkpt lat="45.99607" lon="4.89995">
        <ele>295</ele>
        <time>2017-04-05T09:29:48Z</time>
      </trkpt>
      <trkpt lat="45.99605" lon="4.89984">
        <ele>294</ele>
        <time>2017-04-05T09:29:49Z</time>
      </trkpt>
      <trkpt lat="45.99604" lon="4.89973">
        <ele>294</ele>
        <time>2017-04-05T09:29:50Z</time>
      </trkpt>
      <trkpt lat="45.99604" lon="4.89963">
        <ele>294</ele>
        <time>2017-04-05T09:29:51Z</time>
      </trkpt>
      <trkpt lat="45.99603" lon="4.89952">
        <ele>294</ele>
        <time>2017-04-05T09:29:52Z</time>
      </trkpt>
      <trkpt lat="45.99603" lon="4.89941">
        <ele>293</ele>
        <time>2017-04-05T09:29:53Z</time>
      </trkpt>
      <trkpt lat="45.99602" lon="4.8993">
        <ele>293</ele>
        <time>2017-04-05T09:29:54Z</time>
      </trkpt>
      <trkpt lat="45.99602" lon="4.89919">
        <ele>293</ele>
        <time>2017-04-05T09:29:55Z</time>
      </trkpt>
      <trkpt lat="45.99602" lon="4.89907">
        <ele>292</ele>
        <time>2017-04-05T09:29:56Z</time>
      </trkpt>
      <trkpt lat="45.99602" lon="4.89897">
        <ele>292</ele>
        <time>2017-04-05T09:29:57Z</time>
      </trkpt>
      <trkpt lat="45.99602" lon="4.89886">
        <ele>292</ele>
        <time>2017-04-05T09:29:58Z</time>
      </trkpt>
      <trkpt lat="45.99602" lon="4.89876">
        <ele>292</ele>
        <time>2017-04-05T09:29:59Z</time>
      </trkpt>
      <trkpt lat="45.99602" lon="4.89866">
        <ele>293</ele>
        <time>2017-04-05T09:30:00Z</time>
      </trkpt>
      <trkpt lat="45.99602" lon="4.89856">
        <ele>293</ele>
        <time>2017-04-05T09:30:01Z</time>
      </trkpt>
      <trkpt lat="45.99602" lon="4.89847">
        <ele>293</ele>
        <time>2017-04-05T09:30:02Z</time>
      </trkpt>
      <trkpt lat="45.99602" lon="4.89839">
        <ele>293</ele>
        <time>2017-04-05T09:30:03Z</time>
      </trkpt>
      <trkpt lat="45.99602" lon="4.8983">
        <ele>293</ele>
        <time>2017-04-05T09:30:04Z</time>
      </trkpt>
      <trkpt lat="45.99603" lon="4.89821">
        <ele>292</ele>
        <time>2017-04-05T09:30:05Z</time>
      </trkpt>
      <trkpt lat="45.99603" lon="4.89812">
        <ele>292</ele>
        <time>2017-04-05T09:30:06Z</time>
      </trkpt>
      <trkpt lat="45.99602" lon="4.89804">
        <ele>292</ele>
        <time>2017-04-05T09:30:07Z</time>
      </trkpt>
      <trkpt lat="45.99602" lon="4.89795">
        <ele>292</ele>
        <time>2017-04-05T09:30:08Z</time>
      </trkpt>
      <trkpt lat="45.99601" lon="4.89788">
        <ele>292</ele>
        <time>2017-04-05T09:30:09Z</time>
      </trkpt>
      <trkpt lat="45.99601" lon="4.8978">
        <ele>292</ele>
        <time>2017-04-05T09:30:10Z</time>
      </trkpt>
      <trkpt lat="45.99601" lon="4.89773">
        <ele>292</ele>
        <time>2017-04-05T09:30:11Z</time>
      </trkpt>
      <trkpt lat="45.99601" lon="4.89766">
        <ele>292</ele>
        <time>2017-04-05T09:30:12Z</time>
      </trkpt>
      <trkpt lat="45.996" lon="4.89759">
        <ele>292</ele>
        <time>2017-04-05T09:30:13Z</time>
      </trkpt>
      <trkpt lat="45.99599" lon="4.89752">
        <ele>292</ele>
        <time>2017-04-05T09:30:14Z</time>
      </trkpt>
      <trkpt lat="45.99599" lon="4.89744">
        <ele>292</ele>
        <time>2017-04-05T09:30:15Z</time>
      </trkpt>
      <trkpt lat="45.99599" lon="4.89737">
        <ele>292</ele>
        <time>2017-04-05T09:30:16Z</time>
      </trkpt>
      <trkpt lat="45.99599" lon="4.8973">
        <ele>292</ele>
        <time>2017-04-05T09:30:17Z</time>
      </trkpt>
      <trkpt lat="45.996" lon="4.89724">
        <ele>292</ele>
        <time>2017-04-05T09:30:18Z</time>
      </trkpt>
      <trkpt lat="45.99601" lon="4.89715">
        <ele>292</ele>
        <time>2017-04-05T09:30:19Z</time>
      </trkpt>
      <trkpt lat="45.99601" lon="4.89707">
        <ele>292</ele>
        <time>2017-04-05T09:30:20Z</time>
      </trkpt>
      <trkpt lat="45.99602" lon="4.89697">
        <ele>292</ele>
        <time>2017-04-05T09:30:21Z</time>
      </trkpt>
      <trkpt lat="45.99603" lon="4.89687">
        <ele>292</ele>
        <time>2017-04-05T09:30:22Z</time>
      </trkpt>
      <trkpt lat="45.99603" lon="4.89677">
        <ele>292</ele>
        <time>2017-04-05T09:30:23Z</time>
      </trkpt>
      <trkpt lat="45.99604" lon="4.89669">
        <ele>292</ele>
        <time>2017-04-05T09:30:24Z</time>
      </trkpt>
      <trkpt lat="45.99604" lon="4.8966">
        <ele>292</ele>
        <time>2017-04-05T09:30:25Z</time>
      </trkpt>
      <trkpt lat="45.99603" lon="4.89651">
        <ele>291</ele>
        <time>2017-04-05T09:30:26Z</time>
      </trkpt>
      <trkpt lat="45.99603" lon="4.89642">
        <ele>291</ele>
        <time>2017-04-05T09:30:27Z</time>
      </trkpt>
      <trkpt lat="45.99602" lon="4.89633">
        <ele>291</ele>
        <time>2017-04-05T09:30:28Z</time>
      </trkpt>
      <trkpt lat="45.99602" lon="4.89625">
        <ele>291</ele>
        <time>2017-04-05T09:30:29Z</time>
      </trkpt>
      <trkpt lat="45.99601" lon="4.89617">
        <ele>291</ele>
        <time>2017-04-05T09:30:30Z</time>
      </trkpt>
      <trkpt lat="45.99601" lon="4.89609">
        <ele>292</ele>
        <time>2017-04-05T09:30:31Z</time>
      </trkpt>
      <trkpt lat="45.99601" lon="4.89601">
        <ele>292</ele>
        <time>2017-04-05T09:30:32Z</time>
      </trkpt>
      <trkpt lat="45.996" lon="4.89594">
        <ele>292</ele>
        <time>2017-04-05T09:30:33Z</time>
      </trkpt>
      <trkpt lat="45.996" lon="4.89587">
        <ele>292</ele>
        <time>2017-04-05T09:30:34Z</time>
      </trkpt>
      <trkpt lat="45.996" lon="4.8958">
        <ele>291</ele>
        <time>2017-04-05T09:30:35Z</time>
      </trkpt>
      <trkpt lat="45.99599" lon="4.89572">
        <ele>291</ele>
        <time>2017-04-05T09:30:36Z</time>
      </trkpt>
      <trkpt lat="45.99598" lon="4.89565">
        <ele>291</ele>
        <time>2017-04-05T09:30:37Z</time>
      </trkpt>
      <trkpt lat="45.99598" lon="4.89557">
        <ele>291</ele>
        <time>2017-04-05T09:30:38Z</time>
      </trkpt>
      <trkpt lat="45.99598" lon="4.89548">
        <ele>291</ele>
        <time>2017-04-05T09:30:39Z</time>
      </trkpt>
      <trkpt lat="45.99597" lon="4.8954">
        <ele>291</ele>
        <time>2017-04-05T09:30:40Z</time>
      </trkpt>
      <trkpt lat="45.99597" lon="4.89531">
        <ele>291</ele>
        <time>2017-04-05T09:30:41Z</time>
      </trkpt>
      <trkpt lat="45.99597" lon="4.89522">
        <ele>291</ele>
        <time>2017-04-05T09:30:42Z</time>
      </trkpt>
      <trkpt lat="45.99596" lon="4.89513">
        <ele>290</ele>
        <time>2017-04-05T09:30:43Z</time>
      </trkpt>
      <trkpt lat="45.99596" lon="4.89504">
        <ele>290</ele>
        <time>2017-04-05T09:30:44Z</time>
      </trkpt>
      <trkpt lat="45.99595" lon="4.89495">
        <ele>290</ele>
        <time>2017-04-05T09:30:45Z</time>
      </trkpt>
      <trkpt lat="45.99595" lon="4.89487">
        <ele>290</ele>
        <time>2017-04-05T09:30:46Z</time>
      </trkpt>
      <trkpt lat="45.99594" lon="4.89478">
        <ele>290</ele>
        <time>2017-04-05T09:30:47Z</time>
      </trkpt>
      <trkpt lat="45.99594" lon="4.8947">
        <ele>290</ele>
        <time>2017-04-05T09:30:48Z</time>
      </trkpt>
      <trkpt lat="45.99592" lon="4.89462">
        <ele>290</ele>
        <time>2017-04-05T09:30:49Z</time>
      </trkpt>
      <trkpt lat="45.99592" lon="4.89454">
        <ele>290</ele>
        <time>2017-04-05T09:30:50Z</time>
      </trkpt>
      <trkpt lat="45.99592" lon="4.89447">
        <ele>290</ele>
        <time>2017-04-05T09:30:51Z</time>
      </trkpt>
      <trkpt lat="45.99592" lon="4.89439">
        <ele>290</ele>
        <time>2017-04-05T09:30:52Z</time>
      </trkpt>
      <trkpt lat="45.99592" lon="4.89432">
        <ele>290</ele>
        <time>2017-04-05T09:30:53Z</time>
      </trkpt>
      <trkpt lat="45.99592" lon="4.89425">
        <ele>290</ele>
        <time>2017-04-05T09:30:54Z</time>
      </trkpt>
      <trkpt lat="45.99592" lon="4.89417">
        <ele>290</ele>
        <time>2017-04-05T09:30:55Z</time>
      </trkpt>
      <trkpt lat="45.99591" lon="4.89409">
        <ele>290</ele>
        <time>2017-04-05T09:30:56Z</time>
      </trkpt>
      <trkpt lat="45.9959" lon="4.89401">
        <ele>290</ele>
        <time>2017-04-05T09:30:57Z</time>
      </trkpt>
      <trkpt lat="45.9959" lon="4.89393">
        <ele>290</ele>
        <time>2017-04-05T09:30:58Z</time>
      </trkpt>
      <trkpt lat="45.9959" lon="4.89384">
        <ele>290</ele>
        <time>2017-04-05T09:30:59Z</time>
      </trkpt>
      <trkpt lat="45.99589" lon="4.89376">
        <ele>290</ele>
        <time>2017-04-05T09:31:00Z</time>
      </trkpt>
      <trkpt lat="45.99589" lon="4.89368">
        <ele>289</ele>
        <time>2017-04-05T09:31:01Z</time>
      </trkpt>
      <trkpt lat="45.99588" lon="4.89359">
        <ele>289</ele>
        <time>2017-04-05T09:31:02Z</time>
      </trkpt>
      <trkpt lat="45.99588" lon="4.89351">
        <ele>289</ele>
        <time>2017-04-05T09:31:03Z</time>
      </trkpt>
      <trkpt lat="45.99587" lon="4.89343">
        <ele>289</ele>
        <time>2017-04-05T09:31:04Z</time>
      </trkpt>
      <trkpt lat="45.99587" lon="4.89334">
        <ele>289</ele>
        <time>2017-04-05T09:31:05Z</time>
      </trkpt>
      <trkpt lat="45.99586" lon="4.89326">
        <ele>289</ele>
        <time>2017-04-05T09:31:06Z</time>
      </trkpt>
      <trkpt lat="45.99586" lon="4.89318">
        <ele>289</ele>
        <time>2017-04-05T09:31:07Z</time>
      </trkpt>
      <trkpt lat="45.99585" lon="4.8931">
        <ele>289</ele>
        <time>2017-04-05T09:31:08Z</time>
      </trkpt>
      <trkpt lat="45.99585" lon="4.89302">
        <ele>289</ele>
        <time>2017-04-05T09:31:09Z</time>
      </trkpt>
      <trkpt lat="45.99584" lon="4.89294">
        <ele>289</ele>
        <time>2017-04-05T09:31:10Z</time>
      </trkpt>
      <trkpt lat="45.99584" lon="4.89286">
        <ele>289</ele>
        <time>2017-04-05T09:31:11Z</time>
      </trkpt>
      <trkpt lat="45.99583" lon="4.89277">
        <ele>288</ele>
        <time>2017-04-05T09:31:12Z</time>
      </trkpt>
      <trkpt lat="45.99583" lon="4.89268">
        <ele>288</ele>
        <time>2017-04-05T09:31:13Z</time>
      </trkpt>
      <trkpt lat="45.99582" lon="4.8926">
        <ele>288</ele>
        <time>2017-04-05T09:31:14Z</time>
      </trkpt>
      <trkpt lat="45.99582" lon="4.89251">
        <ele>288</ele>
        <time>2017-04-05T09:31:15Z</time>
      </trkpt>
      <trkpt lat="45.99581" lon="4.89242">
        <ele>288</ele>
        <time>2017-04-05T09:31:16Z</time>
      </trkpt>
      <trkpt lat="45.99581" lon="4.89233">
        <ele>288</ele>
        <time>2017-04-05T09:31:17Z</time>
      </trkpt>
      <trkpt lat="45.9958" lon="4.89224">
        <ele>288</ele>
        <time>2017-04-05T09:31:18Z</time>
      </trkpt>
      <trkpt lat="45.99579" lon="4.89216">
        <ele>288</ele>
        <time>2017-04-05T09:31:19Z</time>
      </trkpt>
      <trkpt lat="45.99579" lon="4.89208">
        <ele>288</ele>
        <time>2017-04-05T09:31:20Z</time>
      </trkpt>
      <trkpt lat="45.99579" lon="4.89199">
        <ele>288</ele>
        <time>2017-04-05T09:31:21Z</time>
      </trkpt>
      <trkpt lat="45.99579" lon="4.89191">
        <ele>288</ele>
        <time>2017-04-05T09:31:22Z</time>
      </trkpt>
      <trkpt lat="45.99578" lon="4.89182">
        <ele>288</ele>
        <time>2017-04-05T09:31:23Z</time>
      </trkpt>
      <trkpt lat="45.99577" lon="4.89174">
        <ele>288</ele>
        <time>2017-04-05T09:31:24Z</time>
      </trkpt>
      <trkpt lat="45.99576" lon="4.89165">
        <ele>288</ele>
        <time>2017-04-05T09:31:25Z</time>
      </trkpt>
      <trkpt lat="45.99576" lon="4.89156">
        <ele>288</ele>
        <time>2017-04-05T09:31:26Z</time>
      </trkpt>
      <trkpt lat="45.99575" lon="4.89147">
        <ele>289</ele>
        <time>2017-04-05T09:31:27Z</time>
      </trkpt>
      <trkpt lat="45.99575" lon="4.89138">
        <ele>289</ele>
        <time>2017-04-05T09:31:28Z</time>
      </trkpt>
      <trkpt lat="45.99575" lon="4.89129">
        <ele>289</ele>
        <time>2017-04-05T09:31:29Z</time>
      </trkpt>
      <trkpt lat="45.99575" lon="4.89119">
        <ele>289</ele>
        <time>2017-04-05T09:31:30Z</time>
      </trkpt>
      <trkpt lat="45.99575" lon="4.8911">
        <ele>289</ele>
        <time>2017-04-05T09:31:31Z</time>
      </trkpt>
      <trkpt lat="45.99576" lon="4.891">
        <ele>289</ele>
        <time>2017-04-05T09:31:32Z</time>
      </trkpt>
      <trkpt lat="45.99576" lon="4.89091">
        <ele>289</ele>
        <time>2017-04-05T09:31:33Z</time>
      </trkpt>
      <trkpt lat="45.99577" lon="4.89082">
        <ele>289</ele>
        <time>2017-04-05T09:31:34Z</time>
      </trkpt>
      <trkpt lat="45.99578" lon="4.89074">
        <ele>289</ele>
        <time>2017-04-05T09:31:35Z</time>
      </trkpt>
      <trkpt lat="45.99578" lon="4.89066">
        <ele>289</ele>
        <time>2017-04-05T09:31:36Z</time>
      </trkpt>
      <trkpt lat="45.99579" lon="4.89058">
        <ele>289</ele>
        <time>2017-04-05T09:31:37Z</time>
      </trkpt>
      <trkpt lat="45.99579" lon="4.89051">
        <ele>288</ele>
        <time>2017-04-05T09:31:38Z</time>
      </trkpt>
      <trkpt lat="45.9958" lon="4.89042">
        <ele>288</ele>
        <time>2017-04-05T09:31:39Z</time>
      </trkpt>
      <trkpt lat="45.99581" lon="4.89034">
        <ele>288</ele>
        <time>2017-04-05T09:31:40Z</time>
      </trkpt>
      <trkpt lat="45.99581" lon="4.89026">
        <ele>288</ele>
        <time>2017-04-05T09:31:41Z</time>
      </trkpt>
      <trkpt lat="45.99582" lon="4.89019">
        <ele>288</ele>
        <time>2017-04-05T09:31:42Z</time>
      </trkpt>
      <trkpt lat="45.99582" lon="4.89011">
        <ele>288</ele>
        <time>2017-04-05T09:31:43Z</time>
      </trkpt>
      <trkpt lat="45.99582" lon="4.89003">
        <ele>288</ele>
        <time>2017-04-05T09:31:44Z</time>
      </trkpt>
      <trkpt lat="45.99582" lon="4.88995">
        <ele>288</ele>
        <time>2017-04-05T09:31:45Z</time>
      </trkpt>
      <trkpt lat="45.99581" lon="4.88986">
        <ele>288</ele>
        <time>2017-04-05T09:31:46Z</time>
      </trkpt>
      <trkpt lat="45.99581" lon="4.88977">
        <ele>287</ele>
        <time>2017-04-05T09:31:47Z</time>
      </trkpt>
      <trkpt lat="45.9958" lon="4.88968">
        <ele>287</ele>
        <time>2017-04-05T09:31:48Z</time>
      </trkpt>
      <trkpt lat="45.9958" lon="4.88959">
        <ele>287</ele>
        <time>2017-04-05T09:31:49Z</time>
      </trkpt>
      <trkpt lat="45.99579" lon="4.88949">
        <ele>287</ele>
        <time>2017-04-05T09:31:50Z</time>
      </trkpt>
      <trkpt lat="45.99578" lon="4.8894">
        <ele>287</ele>
        <time>2017-04-05T09:31:51Z</time>
      </trkpt>
      <trkpt lat="45.99576" lon="4.88931">
        <ele>287</ele>
        <time>2017-04-05T09:31:52Z</time>
      </trkpt>
      <trkpt lat="45.99576" lon="4.88922">
        <ele>287</ele>
        <time>2017-04-05T09:31:53Z</time>
      </trkpt>
      <trkpt lat="45.99575" lon="4.88913">
        <ele>287</ele>
        <time>2017-04-05T09:31:54Z</time>
      </trkpt>
      <trkpt lat="45.99574" lon="4.88904">
        <ele>287</ele>
        <time>2017-04-05T09:31:55Z</time>
      </trkpt>
      <trkpt lat="45.99574" lon="4.88896">
        <ele>287</ele>
        <time>2017-04-05T09:31:56Z</time>
      </trkpt>
      <trkpt lat="45.99573" lon="4.88887">
        <ele>287</ele>
        <time>2017-04-05T09:31:57Z</time>
      </trkpt>
      <trkpt lat="45.99572" lon="4.88879">
        <ele>287</ele>
        <time>2017-04-05T09:31:58Z</time>
      </trkpt>
      <trkpt lat="45.99571" lon="4.8887">
        <ele>287</ele>
        <time>2017-04-05T09:31:59Z</time>
      </trkpt>
      <trkpt lat="45.99571" lon="4.88862">
        <ele>287</ele>
        <time>2017-04-05T09:32:00Z</time>
      </trkpt>
      <trkpt lat="45.9957" lon="4.88854">
        <ele>287</ele>
        <time>2017-04-05T09:32:01Z</time>
      </trkpt>
      <trkpt lat="45.9957" lon="4.88846">
        <ele>287</ele>
        <time>2017-04-05T09:32:02Z</time>
      </trkpt>
      <trkpt lat="45.9957" lon="4.88838">
        <ele>287</ele>
        <time>2017-04-05T09:32:03Z</time>
      </trkpt>
      <trkpt lat="45.99569" lon="4.8883">
        <ele>287</ele>
        <time>2017-04-05T09:32:04Z</time>
      </trkpt>
      <trkpt lat="45.99568" lon="4.88821">
        <ele>287</ele>
        <time>2017-04-05T09:32:05Z</time>
      </trkpt>
      <trkpt lat="45.99567" lon="4.88812">
        <ele>287</ele>
        <time>2017-04-05T09:32:06Z</time>
      </trkpt>
      <trkpt lat="45.99566" lon="4.88804">
        <ele>287</ele>
        <time>2017-04-05T09:32:07Z</time>
      </trkpt>
      <trkpt lat="45.99565" lon="4.88794">
        <ele>287</ele>
        <time>2017-04-05T09:32:08Z</time>
      </trkpt>
      <trkpt lat="45.99564" lon="4.88785">
        <ele>287</ele>
        <time>2017-04-05T09:32:09Z</time>
      </trkpt>
      <trkpt lat="45.99564" lon="4.88776">
        <ele>287</ele>
        <time>2017-04-05T09:32:10Z</time>
      </trkpt>
      <trkpt lat="45.99563" lon="4.88767">
        <ele>287</ele>
        <time>2017-04-05T09:32:11Z</time>
      </trkpt>
      <trkpt lat="45.99562" lon="4.88758">
        <ele>287</ele>
        <time>2017-04-05T09:32:12Z</time>
      </trkpt>
      <trkpt lat="45.99562" lon="4.88749">
        <ele>287</ele>
        <time>2017-04-05T09:32:13Z</time>
      </trkpt>
      <trkpt lat="45.99561" lon="4.88741">
        <ele>287</ele>
        <time>2017-04-05T09:32:14Z</time>
      </trkpt>
      <trkpt lat="45.9956" lon="4.88733">
        <ele>286</ele>
        <time>2017-04-05T09:32:15Z</time>
      </trkpt>
      <trkpt lat="45.99559" lon="4.88725">
        <ele>286</ele>
        <time>2017-04-05T09:32:16Z</time>
      </trkpt>
      <trkpt lat="45.99558" lon="4.88717">
        <ele>286</ele>
        <time>2017-04-05T09:32:17Z</time>
      </trkpt>
      <trkpt lat="45.99557" lon="4.88709">
        <ele>286</ele>
        <time>2017-04-05T09:32:18Z</time>
      </trkpt>
      <trkpt lat="45.99557" lon="4.88701">
        <ele>286</ele>
        <time>2017-04-05T09:32:19Z</time>
      </trkpt>
      <trkpt lat="45.99556" lon="4.88692">
        <ele>286</ele>
        <time>2017-04-05T09:32:20Z</time>
      </trkpt>
      <trkpt lat="45.99555" lon="4.88684">
        <ele>286</ele>
        <time>2017-04-05T09:32:21Z</time>
      </trkpt>
      <trkpt lat="45.99555" lon="4.88676">
        <ele>286</ele>
        <time>2017-04-05T09:32:22Z</time>
      </trkpt>
      <trkpt lat="45.99554" lon="4.88668">
        <ele>286</ele>
        <time>2017-04-05T09:32:23Z</time>
      </trkpt>
      <trkpt lat="45.99554" lon="4.88659">
        <ele>286</ele>
        <time>2017-04-05T09:32:24Z</time>
      </trkpt>
      <trkpt lat="45.99553" lon="4.88651">
        <ele>286</ele>
        <time>2017-04-05T09:32:25Z</time>
      </trkpt>
      <trkpt lat="45.99553" lon="4.88642">
        <ele>286</ele>
        <time>2017-04-05T09:32:26Z</time>
      </trkpt>
      <trkpt lat="45.99552" lon="4.88633">
        <ele>286</ele>
        <time>2017-04-05T09:32:27Z</time>
      </trkpt>
      <trkpt lat="45.99551" lon="4.88625">
        <ele>286</ele>
        <time>2017-04-05T09:32:28Z</time>
      </trkpt>
      <trkpt lat="45.9955" lon="4.88616">
        <ele>286</ele>
        <time>2017-04-05T09:32:29Z</time>
      </trkpt>
      <trkpt lat="45.99549" lon="4.88607">
        <ele>286</ele>
        <time>2017-04-05T09:32:30Z</time>
      </trkpt>
      <trkpt lat="45.99548" lon="4.88598">
        <ele>286</ele>
        <time>2017-04-05T09:32:31Z</time>
      </trkpt>
      <trkpt lat="45.99547" lon="4.88589">
        <ele>286</ele>
        <time>2017-04-05T09:32:32Z</time>
      </trkpt>
      <trkpt lat="45.99545" lon="4.8858">
        <ele>286</ele>
        <time>2017-04-05T09:32:33Z</time>
      </trkpt>
      <trkpt lat="45.99543" lon="4.88571">
        <ele>286</ele>
        <time>2017-04-05T09:32:34Z</time>
      </trkpt>
      <trkpt lat="45.99541" lon="4.88562">
        <ele>285</ele>
        <time>2017-04-05T09:32:35Z</time>
      </trkpt>
      <trkpt lat="45.99538" lon="4.88554">
        <ele>285</ele>
        <time>2017-04-05T09:32:36Z</time>
      </trkpt>
      <trkpt lat="45.99534" lon="4.88546">
        <ele>285</ele>
        <time>2017-04-05T09:32:37Z</time>
      </trkpt>
      <trkpt lat="45.99531" lon="4.88538">
        <ele>285</ele>
        <time>2017-04-05T09:32:38Z</time>
      </trkpt>
      <trkpt lat="45.99527" lon="4.88531">
        <ele>285</ele>
        <time>2017-04-05T09:32:39Z</time>
      </trkpt>
      <trkpt lat="45.99524" lon="4.88523">
        <ele>285</ele>
        <time>2017-04-05T09:32:40Z</time>
      </trkpt>
      <trkpt lat="45.9952" lon="4.88516">
        <ele>285</ele>
        <time>2017-04-05T09:32:41Z</time>
      </trkpt>
      <trkpt lat="45.99516" lon="4.88509">
        <ele>285</ele>
        <time>2017-04-05T09:32:42Z</time>
      </trkpt>
      <trkpt lat="45.99512" lon="4.88502">
        <ele>284</ele>
        <time>2017-04-05T09:32:43Z</time>
      </trkpt>
      <trkpt lat="45.99509" lon="4.88495">
        <ele>284</ele>
        <time>2017-04-05T09:32:44Z</time>
      </trkpt>
      <trkpt lat="45.99505" lon="4.88488">
        <ele>284</ele>
        <time>2017-04-05T09:32:45Z</time>
      </trkpt>
      <trkpt lat="45.99501" lon="4.88481">
        <ele>284</ele>
        <time>2017-04-05T09:32:46Z</time>
      </trkpt>
      <trkpt lat="45.99497" lon="4.88473">
        <ele>284</ele>
        <time>2017-04-05T09:32:47Z</time>
      </trkpt>
      <trkpt lat="45.99494" lon="4.88465">
        <ele>284</ele>
        <time>2017-04-05T09:32:48Z</time>
      </trkpt>
      <trkpt lat="45.9949" lon="4.88458">
        <ele>284</ele>
        <time>2017-04-05T09:32:49Z</time>
      </trkpt>
      <trkpt lat="45.99485" lon="4.8845">
        <ele>284</ele>
        <time>2017-04-05T09:32:50Z</time>
      </trkpt>
      <trkpt lat="45.9948" lon="4.88443">
        <ele>284</ele>
        <time>2017-04-05T09:32:51Z</time>
      </trkpt>
      <trkpt lat="45.99475" lon="4.88436">
        <ele>284</ele>
        <time>2017-04-05T09:32:52Z</time>
      </trkpt>
      <trkpt lat="45.9947" lon="4.8843">
        <ele>284</ele>
        <time>2017-04-05T09:32:53Z</time>
      </trkpt>
      <trkpt lat="45.99465" lon="4.88424">
        <ele>284</ele>
        <time>2017-04-05T09:32:54Z</time>
      </trkpt>
      <trkpt lat="45.99459" lon="4.88419">
        <ele>284</ele>
        <time>2017-04-05T09:32:55Z</time>
      </trkpt>
      <trkpt lat="45.99453" lon="4.88414">
        <ele>283</ele>
        <time>2017-04-05T09:32:56Z</time>
      </trkpt>
      <trkpt lat="45.99447" lon="4.88409">
        <ele>283</ele>
        <time>2017-04-05T09:32:57Z</time>
      </trkpt>
      <trkpt lat="45.99442" lon="4.88403">
        <ele>283</ele>
        <time>2017-04-05T09:32:58Z</time>
      </trkpt>
      <trkpt lat="45.99437" lon="4.88397">
        <ele>283</ele>
        <time>2017-04-05T09:32:59Z</time>
      </trkpt>
      <trkpt lat="45.99432" lon="4.8839">
        <ele>283</ele>
        <time>2017-04-05T09:33:00Z</time>
      </trkpt>
      <trkpt lat="45.99429" lon="4.88383">
        <ele>283</ele>
        <time>2017-04-05T09:33:01Z</time>
      </trkpt>
      <trkpt lat="45.99425" lon="4.88375">
        <ele>283</ele>
        <time>2017-04-05T09:33:02Z</time>
      </trkpt>
      <trkpt lat="45.99422" lon="4.88367">
        <ele>283</ele>
        <time>2017-04-05T09:33:03Z</time>
      </trkpt>
      <trkpt lat="45.99419" lon="4.88359">
        <ele>283</ele>
        <time>2017-04-05T09:33:04Z</time>
      </trkpt>
      <trkpt lat="45.99416" lon="4.8835">
        <ele>282</ele>
        <time>2017-04-05T09:33:05Z</time>
      </trkpt>
      <trkpt lat="45.99413" lon="4.88342">
        <ele>282</ele>
        <time>2017-04-05T09:33:06Z</time>
      </trkpt>
      <trkpt lat="45.9941" lon="4.88333">
        <ele>282</ele>
        <time>2017-04-05T09:33:07Z</time>
      </trkpt>
      <trkpt lat="45.99406" lon="4.88325">
        <ele>283</ele>
        <time>2017-04-05T09:33:08Z</time>
      </trkpt>
      <trkpt lat="45.99403" lon="4.88316">
        <ele>283</ele>
        <time>2017-04-05T09:33:09Z</time>
      </trkpt>
      <trkpt lat="45.994" lon="4.88308">
        <ele>284</ele>
        <time>2017-04-05T09:33:10Z</time>
      </trkpt>
      <trkpt lat="45.99396" lon="4.88299">
        <ele>284</ele>
        <time>2017-04-05T09:33:11Z</time>
      </trkpt>
      <trkpt lat="45.99393" lon="4.88291">
        <ele>284</ele>
        <time>2017-04-05T09:33:12Z</time>
      </trkpt>
      <trkpt lat="45.9939" lon="4.88282">
        <ele>284</ele>
        <time>2017-04-05T09:33:13Z</time>
      </trkpt>
      <trkpt lat="45.99387" lon="4.88274">
        <ele>284</ele>
        <time>2017-04-05T09:33:14Z</time>
      </trkpt>
      <trkpt lat="45.99383" lon="4.88266">
        <ele>285</ele>
        <time>2017-04-05T09:33:15Z</time>
      </trkpt>
      <trkpt lat="45.9938" lon="4.88259">
        <ele>285</ele>
        <time>2017-04-05T09:33:16Z</time>
      </trkpt>
      <trkpt lat="45.99376" lon="4.88251">
        <ele>285</ele>
        <time>2017-04-05T09:33:17Z</time>
      </trkpt>
      <trkpt lat="45.99372" lon="4.88244">
        <ele>287</ele>
        <time>2017-04-05T09:33:18Z</time>
      </trkpt>
      <trkpt lat="45.99368" lon="4.88238">
        <ele>287</ele>
        <time>2017-04-05T09:33:19Z</time>
      </trkpt>
      <trkpt lat="45.99363" lon="4.88233">
        <ele>287</ele>
        <time>2017-04-05T09:33:20Z</time>
      </trkpt>
      <trkpt lat="45.99359" lon="4.88228">
        <ele>287</ele>
        <time>2017-04-05T09:33:21Z</time>
      </trkpt>
      <trkpt lat="45.99354" lon="4.88223">
        <ele>287</ele>
        <time>2017-04-05T09:33:22Z</time>
      </trkpt>
      <trkpt lat="45.99349" lon="4.88219">
        <ele>287</ele>
        <time>2017-04-05T09:33:23Z</time>
      </trkpt>
      <trkpt lat="45.99344" lon="4.88214">
        <ele>287</ele>
        <time>2017-04-05T09:33:24Z</time>
      </trkpt>
      <trkpt lat="45.99339" lon="4.88209">
        <ele>287</ele>
        <time>2017-04-05T09:33:25Z</time>
      </trkpt>
      <trkpt lat="45.99333" lon="4.88204">
        <ele>285</ele>
        <time>2017-04-05T09:33:26Z</time>
      </trkpt>
      <trkpt lat="45.99328" lon="4.88199">
        <ele>285</ele>
        <time>2017-04-05T09:33:27Z</time>
      </trkpt>
      <trkpt lat="45.99322" lon="4.88193">
        <ele>285</ele>
        <time>2017-04-05T09:33:28Z</time>
      </trkpt>
      <trkpt lat="45.99316" lon="4.88188">
        <ele>285</ele>
        <time>2017-04-05T09:33:29Z</time>
      </trkpt>
      <trkpt lat="45.9931" lon="4.88183">
        <ele>285</ele>
        <time>2017-04-05T09:33:30Z</time>
      </trkpt>
      <trkpt lat="45.99304" lon="4.88177">
        <ele>285</ele>
        <time>2017-04-05T09:33:31Z</time>
      </trkpt>
      <trkpt lat="45.99298" lon="4.88172">
        <ele>284</ele>
        <time>2017-04-05T09:33:32Z</time>
      </trkpt>
      <trkpt lat="45.99291" lon="4.88167">
        <ele>284</ele>
        <time>2017-04-05T09:33:33Z</time>
      </trkpt>
      <trkpt lat="45.99286" lon="4.88162">
        <ele>284</ele>
        <time>2017-04-05T09:33:34Z</time>
      </trkpt>
      <trkpt lat="45.99281" lon="4.88157">
        <ele>284</ele>
        <time>2017-04-05T09:33:35Z</time>
      </trkpt>
      <trkpt lat="45.99275" lon="4.88152">
        <ele>283</ele>
        <time>2017-04-05T09:33:36Z</time>
      </trkpt>
      <trkpt lat="45.99269" lon="4.88147">
        <ele>283</ele>
        <time>2017-04-05T09:33:37Z</time>
      </trkpt>
      <trkpt lat="45.99263" lon="4.88142">
        <ele>283</ele>
        <time>2017-04-05T09:33:38Z</time>
      </trkpt>
      <trkpt lat="45.99257" lon="4.88137">
        <ele>283</ele>
        <time>2017-04-05T09:33:39Z</time>
      </trkpt>
      <trkpt lat="45.99251" lon="4.88132">
        <ele>283</ele>
        <time>2017-04-05T09:33:40Z</time>
      </trkpt>
      <trkpt lat="45.99246" lon="4.88127">
        <ele>280</ele>
        <time>2017-04-05T09:33:41Z</time>
      </trkpt>
      <trkpt lat="45.9924" lon="4.88122">
        <ele>280</ele>
        <time>2017-04-05T09:33:42Z</time>
      </trkpt>
      <trkpt lat="45.99235" lon="4.88117">
        <ele>280</ele>
        <time>2017-04-05T09:33:43Z</time>
      </trkpt>
      <trkpt lat="45.99229" lon="4.88112">
        <ele>280</ele>
        <time>2017-04-05T09:33:44Z</time>
      </trkpt>
      <trkpt lat="45.99223" lon="4.88107">
        <ele>280</ele>
        <time>2017-04-05T09:33:45Z</time>
      </trkpt>
      <trkpt lat="45.99218" lon="4.88102">
        <ele>280</ele>
        <time>2017-04-05T09:33:46Z</time>
      </trkpt>
      <trkpt lat="45.99212" lon="4.88097">
        <ele>280</ele>
        <time>2017-04-05T09:33:47Z</time>
      </trkpt>
      <trkpt lat="45.99207" lon="4.88092">
        <ele>280</ele>
        <time>2017-04-05T09:33:48Z</time>
      </trkpt>
      <trkpt lat="45.99201" lon="4.88087">
        <ele>280</ele>
        <time>2017-04-05T09:33:49Z</time>
      </trkpt>
      <trkpt lat="45.99196" lon="4.88082">
        <ele>280</ele>
        <time>2017-04-05T09:33:50Z</time>
      </trkpt>
      <trkpt lat="45.9919" lon="4.88077">
        <ele>280</ele>
        <time>2017-04-05T09:33:51Z</time>
      </trkpt>
      <trkpt lat="45.99185" lon="4.88073">
        <ele>279</ele>
        <time>2017-04-05T09:33:52Z</time>
      </trkpt>
      <trkpt lat="45.99179" lon="4.88068">
        <ele>279</ele>
        <time>2017-04-05T09:33:53Z</time>
      </trkpt>
      <trkpt lat="45.99173" lon="4.88063">
        <ele>279</ele>
        <time>2017-04-05T09:33:54Z</time>
      </trkpt>
      <trkpt lat="45.99168" lon="4.88058">
        <ele>279</ele>
        <time>2017-04-05T09:33:55Z</time>
      </trkpt>
      <trkpt lat="45.99162" lon="4.88053">
        <ele>279</ele>
        <time>2017-04-05T09:33:56Z</time>
      </trkpt>
      <trkpt lat="45.99156" lon="4.88049">
        <ele>279</ele>
        <time>2017-04-05T09:33:57Z</time>
      </trkpt>
      <trkpt lat="45.99149" lon="4.88044">
        <ele>279</ele>
        <time>2017-04-05T09:33:58Z</time>
      </trkpt>
      <trkpt lat="45.99143" lon="4.8804">
        <ele>279</ele>
        <time>2017-04-05T09:33:59Z</time>
      </trkpt>
      <trkpt lat="45.99136" lon="4.88036">
        <ele>279</ele>
        <time>2017-04-05T09:34:00Z</time>
      </trkpt>
      <trkpt lat="45.99129" lon="4.88032">
        <ele>279</ele>
        <time>2017-04-05T09:34:01Z</time>
      </trkpt>
      <trkpt lat="45.99122" lon="4.88028">
        <ele>278</ele>
        <time>2017-04-05T09:34:02Z</time>
      </trkpt>
      <trkpt lat="45.99115" lon="4.88024">
        <ele>278</ele>
        <time>2017-04-05T09:34:03Z</time>
      </trkpt>
      <trkpt lat="45.99109" lon="4.8802">
        <ele>278</ele>
        <time>2017-04-05T09:34:04Z</time>
      </trkpt>
      <trkpt lat="45.99102" lon="4.88016">
        <ele>278</ele>
        <time>2017-04-05T09:34:05Z</time>
      </trkpt>
      <trkpt lat="45.99094" lon="4.88012">
        <ele>278</ele>
        <time>2017-04-05T09:34:06Z</time>
      </trkpt>
      <trkpt lat="45.99087" lon="4.88008">
        <ele>278</ele>
        <time>2017-04-05T09:34:07Z</time>
      </trkpt>
      <trkpt lat="45.9908" lon="4.88004">
        <ele>278</ele>
        <time>2017-04-05T09:34:08Z</time>
      </trkpt>
      <trkpt lat="45.99073" lon="4.88">
        <ele>277</ele>
        <time>2017-04-05T09:34:09Z</time>
      </trkpt>
      <trkpt lat="45.99066" lon="4.87996">
        <ele>277</ele>
        <time>2017-04-05T09:34:10Z</time>
      </trkpt>
      <trkpt lat="45.99059" lon="4.87992">
        <ele>277</ele>
        <time>2017-04-05T09:34:11Z</time>
      </trkpt>
      <trkpt lat="45.99052" lon="4.87987">
        <ele>277</ele>
        <time>2017-04-05T09:34:12Z</time>
      </trkpt>
      <trkpt lat="45.99045" lon="4.87983">
        <ele>277</ele>
        <time>2017-04-05T09:34:13Z</time>
      </trkpt>
      <trkpt lat="45.99038" lon="4.87979">
        <ele>276</ele>
        <time>2017-04-05T09:34:14Z</time>
      </trkpt>
      <trkpt lat="45.99031" lon="4.87975">
        <ele>276</ele>
        <time>2017-04-05T09:34:15Z</time>
      </trkpt>
      <trkpt lat="45.99023" lon="4.87971">
        <ele>276</ele>
        <time>2017-04-05T09:34:16Z</time>
      </trkpt>
      <trkpt lat="45.99016" lon="4.87967">
        <ele>276</ele>
        <time>2017-04-05T09:34:17Z</time>
      </trkpt>
      <trkpt lat="45.99008" lon="4.87963">
        <ele>276</ele>
        <time>2017-04-05T09:34:18Z</time>
      </trkpt>
      <trkpt lat="45.99001" lon="4.87958">
        <ele>276</ele>
        <time>2017-04-05T09:34:19Z</time>
      </trkpt>
      <trkpt lat="45.98994" lon="4.87954">
        <ele>274</ele>
        <time>2017-04-05T09:34:20Z</time>
      </trkpt>
      <trkpt lat="45.98986" lon="4.8795">
        <ele>274</ele>
        <time>2017-04-05T09:34:21Z</time>
      </trkpt>
      <trkpt lat="45.98978" lon="4.87946">
        <ele>274</ele>
        <time>2017-04-05T09:34:22Z</time>
      </trkpt>
      <trkpt lat="45.9897" lon="4.87941">
        <ele>274</ele>
        <time>2017-04-05T09:34:23Z</time>
      </trkpt>
      <trkpt lat="45.98962" lon="4.87937">
        <ele>273</ele>
        <time>2017-04-05T09:34:24Z</time>
      </trkpt>
      <trkpt lat="45.98954" lon="4.87932">
        <ele>273</ele>
        <time>2017-04-05T09:34:25Z</time>
      </trkpt>
      <trkpt lat="45.98946" lon="4.87928">
        <ele>273</ele>
        <time>2017-04-05T09:34:26Z</time>
      </trkpt>
      <trkpt lat="45.98937" lon="4.87923">
        <ele>272</ele>
        <time>2017-04-05T09:34:27Z</time>
      </trkpt>
      <trkpt lat="45.98928" lon="4.87916">
        <ele>272</ele>
        <time>2017-04-05T09:34:28Z</time>
      </trkpt>
      <trkpt lat="45.9892" lon="4.87909">
        <ele>272</ele>
        <time>2017-04-05T09:34:29Z</time>
      </trkpt>
      <trkpt lat="45.98912" lon="4.87901">
        <ele>272</ele>
        <time>2017-04-05T09:34:30Z</time>
      </trkpt>
      <trkpt lat="45.98903" lon="4.87893">
        <ele>272</ele>
        <time>2017-04-05T09:34:31Z</time>
      </trkpt>
      <trkpt lat="45.98895" lon="4.87884">
        <ele>272</ele>
        <time>2017-04-05T09:34:32Z</time>
      </trkpt>
      <trkpt lat="45.98888" lon="4.87874">
        <ele>272</ele>
        <time>2017-04-05T09:34:33Z</time>
      </trkpt>
      <trkpt lat="45.98881" lon="4.87864">
        <ele>272</ele>
        <time>2017-04-05T09:34:34Z</time>
      </trkpt>
      <trkpt lat="45.98874" lon="4.87854">
        <ele>273</ele>
        <time>2017-04-05T09:34:35Z</time>
      </trkpt>
      <trkpt lat="45.98869" lon="4.87843">
        <ele>273</ele>
        <time>2017-04-05T09:34:36Z</time>
      </trkpt>
      <trkpt lat="45.98864" lon="4.87832">
        <ele>273</ele>
        <time>2017-04-05T09:34:37Z</time>
      </trkpt>
      <trkpt lat="45.98859" lon="4.87821">
        <ele>273</ele>
        <time>2017-04-05T09:34:38Z</time>
      </trkpt>
      <trkpt lat="45.98855" lon="4.87809">
        <ele>273</ele>
        <time>2017-04-05T09:34:39Z</time>
      </trkpt>
      <trkpt lat="45.98851" lon="4.87798">
        <ele>273</ele>
        <time>2017-04-05T09:34:40Z</time>
      </trkpt>
      <trkpt lat="45.98847" lon="4.87787">
        <ele>273</ele>
        <time>2017-04-05T09:34:41Z</time>
      </trkpt>
      <trkpt lat="45.98844" lon="4.87775">
        <ele>273</ele>
        <time>2017-04-05T09:34:42Z</time>
      </trkpt>
      <trkpt lat="45.98841" lon="4.87764">
        <ele>273</ele>
        <time>2017-04-05T09:34:43Z</time>
      </trkpt>
      <trkpt lat="45.98839" lon="4.87753">
        <ele>273</ele>
        <time>2017-04-05T09:34:44Z</time>
      </trkpt>
      <trkpt lat="45.98837" lon="4.87742">
        <ele>273</ele>
        <time>2017-04-05T09:34:45Z</time>
      </trkpt>
      <trkpt lat="45.98834" lon="4.87731">
        <ele>273</ele>
        <time>2017-04-05T09:34:46Z</time>
      </trkpt>
      <trkpt lat="45.98833" lon="4.87721">
        <ele>274</ele>
        <time>2017-04-05T09:34:47Z</time>
      </trkpt>
      <trkpt lat="45.9883" lon="4.8771">
        <ele>273</ele>
        <time>2017-04-05T09:34:48Z</time>
      </trkpt>
      <trkpt lat="45.98828" lon="4.87698">
        <ele>273</ele>
        <time>2017-04-05T09:34:49Z</time>
      </trkpt>
      <trkpt lat="45.98826" lon="4.87687">
        <ele>273</ele>
        <time>2017-04-05T09:34:50Z</time>
      </trkpt>
      <trkpt lat="45.98824" lon="4.87677">
        <ele>273</ele>
        <time>2017-04-05T09:34:51Z</time>
      </trkpt>
      <trkpt lat="45.98822" lon="4.87666">
        <ele>272</ele>
        <time>2017-04-05T09:34:52Z</time>
      </trkpt>
      <trkpt lat="45.98819" lon="4.87656">
        <ele>272</ele>
        <time>2017-04-05T09:34:53Z</time>
      </trkpt>
      <trkpt lat="45.98817" lon="4.87646">
        <ele>272</ele>
        <time>2017-04-05T09:34:54Z</time>
      </trkpt>
      <trkpt lat="45.98815" lon="4.87637">
        <ele>272</ele>
        <time>2017-04-05T09:34:55Z</time>
      </trkpt>
      <trkpt lat="45.98813" lon="4.87627">
        <ele>271</ele>
        <time>2017-04-05T09:34:56Z</time>
      </trkpt>
      <trkpt lat="45.9881" lon="4.87618">
        <ele>271</ele>
        <time>2017-04-05T09:34:57Z</time>
      </trkpt>
      <trkpt lat="45.98807" lon="4.8761">
        <ele>271</ele>
        <time>2017-04-05T09:34:58Z</time>
      </trkpt>
      <trkpt lat="45.98803" lon="4.87602">
        <ele>271</ele>
        <time>2017-04-05T09:34:59Z</time>
      </trkpt>
      <trkpt lat="45.98799" lon="4.87594">
        <ele>271</ele>
        <time>2017-04-05T09:35:00Z</time>
      </trkpt>
      <trkpt lat="45.98793" lon="4.87587">
        <ele>271</ele>
        <time>2017-04-05T09:35:01Z</time>
      </trkpt>
      <trkpt lat="45.98787" lon="4.8758">
        <ele>269</ele>
        <time>2017-04-05T09:35:02Z</time>
      </trkpt>
      <trkpt lat="45.9878" lon="4.87574">
        <ele>269</ele>
        <time>2017-04-05T09:35:03Z</time>
      </trkpt>
      <trkpt lat="45.98774" lon="4.87569">
        <ele>269</ele>
        <time>2017-04-05T09:35:04Z</time>
      </trkpt>
      <trkpt lat="45.98767" lon="4.87563">
        <ele>269</ele>
        <time>2017-04-05T09:35:05Z</time>
      </trkpt>
      <trkpt lat="45.9876" lon="4.87558">
        <ele>269</ele>
        <time>2017-04-05T09:35:06Z</time>
      </trkpt>
      <trkpt lat="45.98753" lon="4.87555">
        <ele>269</ele>
        <time>2017-04-05T09:35:07Z</time>
      </trkpt>
      <trkpt lat="45.98745" lon="4.87552">
        <ele>267</ele>
        <time>2017-04-05T09:35:08Z</time>
      </trkpt>
      <trkpt lat="45.98738" lon="4.8755">
        <ele>267</ele>
        <time>2017-04-05T09:35:09Z</time>
      </trkpt>
      <trkpt lat="45.98731" lon="4.87549">
        <ele>267</ele>
        <time>2017-04-05T09:35:10Z</time>
      </trkpt>
      <trkpt lat="45.98724" lon="4.87549">
        <ele>267</ele>
        <time>2017-04-05T09:35:11Z</time>
      </trkpt>
      <trkpt lat="45.98717" lon="4.8755">
        <ele>267</ele>
        <time>2017-04-05T09:35:12Z</time>
      </trkpt>
      <trkpt lat="45.98712" lon="4.87552">
        <ele>267</ele>
        <time>2017-04-05T09:35:13Z</time>
      </trkpt>
      <trkpt lat="45.98705" lon="4.87554">
        <ele>267</ele>
        <time>2017-04-05T09:35:14Z</time>
      </trkpt>
      <trkpt lat="45.98699" lon="4.87556">
        <ele>267</ele>
        <time>2017-04-05T09:35:15Z</time>
      </trkpt>
      <trkpt lat="45.98694" lon="4.87558">
        <ele>267</ele>
        <time>2017-04-05T09:35:16Z</time>
      </trkpt>
      <trkpt lat="45.98688" lon="4.87559">
        <ele>267</ele>
        <time>2017-04-05T09:35:17Z</time>
      </trkpt>
      <trkpt lat="45.98682" lon="4.8756">
        <ele>267</ele>
        <time>2017-04-05T09:35:18Z</time>
      </trkpt>
      <trkpt lat="45.98676" lon="4.87561">
        <ele>267</ele>
        <time>2017-04-05T09:35:19Z</time>
      </trkpt>
      <trkpt lat="45.9867" lon="4.87562">
        <ele>267</ele>
        <time>2017-04-05T09:35:20Z</time>
      </trkpt>
      <trkpt lat="45.98666" lon="4.87563">
        <ele>267</ele>
        <time>2017-04-05T09:35:21Z</time>
      </trkpt>
      <trkpt lat="45.9866" lon="4.87563">
        <ele>267</ele>
        <time>2017-04-05T09:35:22Z</time>
      </trkpt>
      <trkpt lat="45.98655" lon="4.87561">
        <ele>267</ele>
        <time>2017-04-05T09:35:23Z</time>
      </trkpt>
      <trkpt lat="45.98649" lon="4.87558">
        <ele>267</ele>
        <time>2017-04-05T09:35:24Z</time>
      </trkpt>
      <trkpt lat="45.98646" lon="4.87552">
        <ele>267</ele>
        <time>2017-04-05T09:35:25Z</time>
      </trkpt>
      <trkpt lat="45.98643" lon="4.87545">
        <ele>267</ele>
        <time>2017-04-05T09:35:26Z</time>
      </trkpt>
      <trkpt lat="45.9864" lon="4.87539">
        <ele>267</ele>
        <time>2017-04-05T09:35:27Z</time>
      </trkpt>
      <trkpt lat="45.98639" lon="4.87532">
        <ele>267</ele>
        <time>2017-04-05T09:35:28Z</time>
      </trkpt>
      <trkpt lat="45.98637" lon="4.87525">
        <ele>267</ele>
        <time>2017-04-05T09:35:29Z</time>
      </trkpt>
      <trkpt lat="45.98636" lon="4.87518">
        <ele>267</ele>
        <time>2017-04-05T09:35:30Z</time>
      </trkpt>
      <trkpt lat="45.98634" lon="4.87511">
        <ele>267</ele>
        <time>2017-04-05T09:35:31Z</time>
      </trkpt>
      <trkpt lat="45.98633" lon="4.87503">
        <ele>267</ele>
        <time>2017-04-05T09:35:32Z</time>
      </trkpt>
      <trkpt lat="45.98632" lon="4.87496">
        <ele>268</ele>
        <time>2017-04-05T09:35:33Z</time>
      </trkpt>
      <trkpt lat="45.9863" lon="4.87489">
        <ele>268</ele>
        <time>2017-04-05T09:35:34Z</time>
      </trkpt>
      <trkpt lat="45.98629" lon="4.87481">
        <ele>268</ele>
        <time>2017-04-05T09:35:35Z</time>
      </trkpt>
      <trkpt lat="45.98627" lon="4.87474">
        <ele>268</ele>
        <time>2017-04-05T09:35:36Z</time>
      </trkpt>
      <trkpt lat="45.98626" lon="4.87467">
        <ele>268</ele>
        <time>2017-04-05T09:35:37Z</time>
      </trkpt>
      <trkpt lat="45.98624" lon="4.87461">
        <ele>268</ele>
        <time>2017-04-05T09:35:38Z</time>
      </trkpt>
      <trkpt lat="45.98623" lon="4.87455">
        <ele>268</ele>
        <time>2017-04-05T09:35:39Z</time>
      </trkpt>
      <trkpt lat="45.98621" lon="4.87448">
        <ele>269</ele>
        <time>2017-04-05T09:35:40Z</time>
      </trkpt>
      <trkpt lat="45.9862" lon="4.87442">
        <ele>269</ele>
        <time>2017-04-05T09:35:41Z</time>
      </trkpt>
      <trkpt lat="45.98619" lon="4.87435">
        <ele>269</ele>
        <time>2017-04-05T09:35:42Z</time>
      </trkpt>
      <trkpt lat="45.98618" lon="4.87429">
        <ele>269</ele>
        <time>2017-04-05T09:35:43Z</time>
      </trkpt>
      <trkpt lat="45.98617" lon="4.87423">
        <ele>269</ele>
        <time>2017-04-05T09:35:44Z</time>
      </trkpt>
      <trkpt lat="45.98616" lon="4.87416">
        <ele>271</ele>
        <time>2017-04-05T09:35:45Z</time>
      </trkpt>
      <trkpt lat="45.98613" lon="4.87405">
        <ele>271</ele>
        <time>2017-04-05T09:35:47Z</time>
      </trkpt>
      <trkpt lat="45.98613" lon="4.87399">
        <ele>271</ele>
        <time>2017-04-05T09:35:48Z</time>
      </trkpt>
      <trkpt lat="45.9861" lon="4.87388">
        <ele>271</ele>
        <time>2017-04-05T09:35:50Z</time>
      </trkpt>
      <trkpt lat="45.9861" lon="4.87383">
        <ele>271</ele>
        <time>2017-04-05T09:35:51Z</time>
      </trkpt>
      <trkpt lat="45.98608" lon="4.87372">
        <ele>271</ele>
        <time>2017-04-05T09:35:53Z</time>
      </trkpt>
      <trkpt lat="45.98606" lon="4.87366">
        <ele>272</ele>
        <time>2017-04-05T09:35:54Z</time>
      </trkpt>
      <trkpt lat="45.98604" lon="4.87356">
        <ele>272</ele>
        <time>2017-04-05T09:35:56Z</time>
      </trkpt>
      <trkpt lat="45.98603" lon="4.87351">
        <ele>272</ele>
        <time>2017-04-05T09:35:57Z</time>
      </trkpt>
      <trkpt lat="45.98601" lon="4.8734">
        <ele>272</ele>
        <time>2017-04-05T09:35:59Z</time>
      </trkpt>
      <trkpt lat="45.98601" lon="4.87334">
        <ele>273</ele>
        <time>2017-04-05T09:36:00Z</time>
      </trkpt>
      <trkpt lat="45.986" lon="4.87324">
        <ele>274</ele>
        <time>2017-04-05T09:36:02Z</time>
      </trkpt>
      <trkpt lat="45.98599" lon="4.87319">
        <ele>274</ele>
        <time>2017-04-05T09:36:03Z</time>
      </trkpt>
      <trkpt lat="45.98598" lon="4.8731">
        <ele>274</ele>
        <time>2017-04-05T09:36:05Z</time>
      </trkpt>
      <trkpt lat="45.98597" lon="4.87306">
        <ele>274</ele>
        <time>2017-04-05T09:36:06Z</time>
      </trkpt>
      <trkpt lat="45.98595" lon="4.87293">
        <ele>275</ele>
        <time>2017-04-05T09:36:09Z</time>
      </trkpt>
      <trkpt lat="45.98595" lon="4.8729">
        <ele>275</ele>
        <time>2017-04-05T09:36:10Z</time>
      </trkpt>
      <trkpt lat="45.98592" lon="4.87281">
        <ele>275</ele>
        <time>2017-04-05T09:36:13Z</time>
      </trkpt>
      <trkpt lat="45.98592" lon="4.87278">
        <ele>275</ele>
        <time>2017-04-05T09:36:14Z</time>
      </trkpt>
      <trkpt lat="45.98589" lon="4.87267">
        <ele>275</ele>
        <time>2017-04-05T09:36:18Z</time>
      </trkpt>
      <trkpt lat="45.98586" lon="4.87262">
        <ele>275</ele>
        <time>2017-04-05T09:36:19Z</time>
      </trkpt>
      <trkpt lat="45.98584" lon="4.87253">
        <ele>276</ele>
        <time>2017-04-05T09:36:22Z</time>
      </trkpt>
      <trkpt lat="45.98584" lon="4.87249">
        <ele>276</ele>
        <time>2017-04-05T09:36:23Z</time>
      </trkpt>
      <trkpt lat="45.98583" lon="4.8724">
        <ele>276</ele>
        <time>2017-04-05T09:36:25Z</time>
      </trkpt>
      <trkpt lat="45.98584" lon="4.87235">
        <ele>277</ele>
        <time>2017-04-05T09:36:26Z</time>
      </trkpt>
      <trkpt lat="45.98584" lon="4.87225">
        <ele>277</ele>
        <time>2017-04-05T09:36:28Z</time>
      </trkpt>
      <trkpt lat="45.98584" lon="4.87219">
        <ele>277</ele>
        <time>2017-04-05T09:36:29Z</time>
      </trkpt>
      <trkpt lat="45.98586" lon="4.87212">
        <ele>277</ele>
        <time>2017-04-05T09:36:30Z</time>
      </trkpt>
      <trkpt lat="45.98587" lon="4.87206">
        <ele>277</ele>
        <time>2017-04-05T09:36:31Z</time>
      </trkpt>
      <trkpt lat="45.98589" lon="4.87195">
        <ele>277</ele>
        <time>2017-04-05T09:36:33Z</time>
      </trkpt>
      <trkpt lat="45.98593" lon="4.87185">
        <ele>277</ele>
        <time>2017-04-05T09:36:34Z</time>
      </trkpt>
      <trkpt lat="45.98595" lon="4.87177">
        <ele>277</ele>
        <time>2017-04-05T09:36:35Z</time>
      </trkpt>
      <trkpt lat="45.98596" lon="4.87169">
        <ele>277</ele>
        <time>2017-04-05T09:36:36Z</time>
      </trkpt>
      <trkpt lat="45.98597" lon="4.87161">
        <ele>278</ele>
        <time>2017-04-05T09:36:37Z</time>
      </trkpt>
      <trkpt lat="45.98597" lon="4.87153">
        <ele>278</ele>
        <time>2017-04-05T09:36:38Z</time>
      </trkpt>
      <trkpt lat="45.98598" lon="4.8714">
        <ele>278</ele>
        <time>2017-04-05T09:36:40Z</time>
      </trkpt>
      <trkpt lat="45.98598" lon="4.87134">
        <ele>278</ele>
        <time>2017-04-05T09:36:41Z</time>
      </trkpt>
      <trkpt lat="45.98596" lon="4.87123">
        <ele>279</ele>
        <time>2017-04-05T09:36:43Z</time>
      </trkpt>
      <trkpt lat="45.98595" lon="4.87118">
        <ele>279</ele>
        <time>2017-04-05T09:36:44Z</time>
      </trkpt>
      <trkpt lat="45.98595" lon="4.87108">
        <ele>279</ele>
        <time>2017-04-05T09:36:46Z</time>
      </trkpt>
      <trkpt lat="45.98596" lon="4.87099">
        <ele>279</ele>
        <time>2017-04-05T09:36:47Z</time>
      </trkpt>
      <trkpt lat="45.98597" lon="4.87091">
        <ele>279</ele>
        <time>2017-04-05T09:36:48Z</time>
      </trkpt>
      <trkpt lat="45.98598" lon="4.87082">
        <ele>279</ele>
        <time>2017-04-05T09:36:49Z</time>
      </trkpt>
      <trkpt lat="45.98601" lon="4.87069">
        <ele>279</ele>
        <time>2017-04-05T09:36:50Z</time>
      </trkpt>
      <trkpt lat="45.98602" lon="4.87058">
        <ele>279</ele>
        <time>2017-04-05T09:36:51Z</time>
      </trkpt>
      <trkpt lat="45.986" lon="4.8705">
        <ele>279</ele>
        <time>2017-04-05T09:36:52Z</time>
      </trkpt>
      <trkpt lat="45.98599" lon="4.87042">
        <ele>279</ele>
        <time>2017-04-05T09:36:53Z</time>
      </trkpt>
      <trkpt lat="45.98597" lon="4.87035">
        <ele>279</ele>
        <time>2017-04-05T09:36:54Z</time>
      </trkpt>
      <trkpt lat="45.98595" lon="4.87029">
        <ele>279</ele>
        <time>2017-04-05T09:36:55Z</time>
      </trkpt>
      <trkpt lat="45.98593" lon="4.87022">
        <ele>279</ele>
        <time>2017-04-05T09:36:56Z</time>
      </trkpt>
      <trkpt lat="45.98592" lon="4.87016">
        <ele>279</ele>
        <time>2017-04-05T09:36:57Z</time>
      </trkpt>
      <trkpt lat="45.98591" lon="4.8701">
        <ele>279</ele>
        <time>2017-04-05T09:36:58Z</time>
      </trkpt>
      <trkpt lat="45.9859" lon="4.86997">
        <ele>279</ele>
        <time>2017-04-05T09:37:00Z</time>
      </trkpt>
      <trkpt lat="45.98589" lon="4.86992">
        <ele>279</ele>
        <time>2017-04-05T09:37:01Z</time>
      </trkpt>
      <trkpt lat="45.98588" lon="4.8698">
        <ele>279</ele>
        <time>2017-04-05T09:37:03Z</time>
      </trkpt>
      <trkpt lat="45.98588" lon="4.86974">
        <ele>279</ele>
        <time>2017-04-05T09:37:04Z</time>
      </trkpt>
      <trkpt lat="45.98587" lon="4.86962">
        <ele>279</ele>
        <time>2017-04-05T09:37:06Z</time>
      </trkpt>
      <trkpt lat="45.98587" lon="4.86956">
        <ele>279</ele>
        <time>2017-04-05T09:37:07Z</time>
      </trkpt>
      <trkpt lat="45.98587" lon="4.86943">
        <ele>279</ele>
        <time>2017-04-05T09:37:09Z</time>
      </trkpt>
      <trkpt lat="45.98586" lon="4.86938">
        <ele>279</ele>
        <time>2017-04-05T09:37:10Z</time>
      </trkpt>
      <trkpt lat="45.98587" lon="4.86927">
        <ele>279</ele>
        <time>2017-04-05T09:37:12Z</time>
      </trkpt>
      <trkpt lat="45.98587" lon="4.86921">
        <ele>279</ele>
        <time>2017-04-05T09:37:13Z</time>
      </trkpt>
      <trkpt lat="45.98588" lon="4.86909">
        <ele>278</ele>
        <time>2017-04-05T09:37:15Z</time>
      </trkpt>
      <trkpt lat="45.98588" lon="4.86903">
        <ele>278</ele>
        <time>2017-04-05T09:37:16Z</time>
      </trkpt>
      <trkpt lat="45.98588" lon="4.86891">
        <ele>278</ele>
        <time>2017-04-05T09:37:18Z</time>
      </trkpt>
      <trkpt lat="45.98588" lon="4.86885">
        <ele>278</ele>
        <time>2017-04-05T09:37:19Z</time>
      </trkpt>
      <trkpt lat="45.98588" lon="4.86872">
        <ele>277</ele>
        <time>2017-04-05T09:37:21Z</time>
      </trkpt>
      <trkpt lat="45.98588" lon="4.86866">
        <ele>277</ele>
        <time>2017-04-05T09:37:22Z</time>
      </trkpt>
      <trkpt lat="45.98588" lon="4.86854">
        <ele>277</ele>
        <time>2017-04-05T09:37:24Z</time>
      </trkpt>
      <trkpt lat="45.98587" lon="4.86848">
        <ele>277</ele>
        <time>2017-04-05T09:37:25Z</time>
      </trkpt>
      <trkpt lat="45.98587" lon="4.86836">
        <ele>277</ele>
        <time>2017-04-05T09:37:27Z</time>
      </trkpt>
      <trkpt lat="45.98587" lon="4.86829">
        <ele>277</ele>
        <time>2017-04-05T09:37:28Z</time>
      </trkpt>
      <trkpt lat="45.98586" lon="4.86817">
        <ele>276</ele>
        <time>2017-04-05T09:37:30Z</time>
      </trkpt>
      <trkpt lat="45.98585" lon="4.86812">
        <ele>276</ele>
        <time>2017-04-05T09:37:31Z</time>
      </trkpt>
      <trkpt lat="45.98583" lon="4.86801">
        <ele>277</ele>
        <time>2017-04-05T09:37:33Z</time>
      </trkpt>
      <trkpt lat="45.98582" lon="4.86795">
        <ele>277</ele>
        <time>2017-04-05T09:37:34Z</time>
      </trkpt>
      <trkpt lat="45.9858" lon="4.86784">
        <ele>277</ele>
        <time>2017-04-05T09:37:36Z</time>
      </trkpt>
      <trkpt lat="45.98578" lon="4.86778">
        <ele>277</ele>
        <time>2017-04-05T09:37:37Z</time>
      </trkpt>
      <trkpt lat="45.98576" lon="4.86765">
        <ele>277</ele>
        <time>2017-04-05T09:37:39Z</time>
      </trkpt>
      <trkpt lat="45.98575" lon="4.86759">
        <ele>277</ele>
        <time>2017-04-05T09:37:40Z</time>
      </trkpt>
      <trkpt lat="45.98574" lon="4.86746">
        <ele>276</ele>
        <time>2017-04-05T09:37:42Z</time>
      </trkpt>
      <trkpt lat="45.98573" lon="4.8674">
        <ele>277</ele>
        <time>2017-04-05T09:37:43Z</time>
      </trkpt>
      <trkpt lat="45.98572" lon="4.86728">
        <ele>277</ele>
        <time>2017-04-05T09:37:45Z</time>
      </trkpt>
      <trkpt lat="45.98571" lon="4.86722">
        <ele>277</ele>
        <time>2017-04-05T09:37:46Z</time>
      </trkpt>
      <trkpt lat="45.9857" lon="4.86709">
        <ele>277</ele>
        <time>2017-04-05T09:37:48Z</time>
      </trkpt>
      <trkpt lat="45.9857" lon="4.86703">
        <ele>277</ele>
        <time>2017-04-05T09:37:49Z</time>
      </trkpt>
      <trkpt lat="45.98569" lon="4.8669">
        <ele>277</ele>
        <time>2017-04-05T09:37:51Z</time>
      </trkpt>
      <trkpt lat="45.98568" lon="4.86684">
        <ele>277</ele>
        <time>2017-04-05T09:37:52Z</time>
      </trkpt>
      <trkpt lat="45.98568" lon="4.86671">
        <ele>276</ele>
        <time>2017-04-05T09:37:54Z</time>
      </trkpt>
      <trkpt lat="45.98567" lon="4.86665">
        <ele>277</ele>
        <time>2017-04-05T09:37:55Z</time>
      </trkpt>
      <trkpt lat="45.98566" lon="4.86658">
        <ele>277</ele>
        <time>2017-04-05T09:37:56Z</time>
      </trkpt>
      <trkpt lat="45.98565" lon="4.86652">
        <ele>277</ele>
        <time>2017-04-05T09:37:57Z</time>
      </trkpt>
      <trkpt lat="45.98565" lon="4.86645">
        <ele>277</ele>
        <time>2017-04-05T09:37:58Z</time>
      </trkpt>
      <trkpt lat="45.98564" lon="4.86638">
        <ele>277</ele>
        <time>2017-04-05T09:37:59Z</time>
      </trkpt>
      <trkpt lat="45.98562" lon="4.86631">
        <ele>278</ele>
        <time>2017-04-05T09:38:00Z</time>
      </trkpt>
      <trkpt lat="45.98561" lon="4.86624">
        <ele>278</ele>
        <time>2017-04-05T09:38:01Z</time>
      </trkpt>
      <trkpt lat="45.9856" lon="4.86618">
        <ele>278</ele>
        <time>2017-04-05T09:38:02Z</time>
      </trkpt>
      <trkpt lat="45.98558" lon="4.8661">
        <ele>278</ele>
        <time>2017-04-05T09:38:03Z</time>
      </trkpt>
      <trkpt lat="45.98556" lon="4.86603">
        <ele>278</ele>
        <time>2017-04-05T09:38:04Z</time>
      </trkpt>
      <trkpt lat="45.98555" lon="4.86595">
        <ele>278</ele>
        <time>2017-04-05T09:38:05Z</time>
      </trkpt>
      <trkpt lat="45.98553" lon="4.86588">
        <ele>278</ele>
        <time>2017-04-05T09:38:06Z</time>
      </trkpt>
      <trkpt lat="45.98551" lon="4.8658">
        <ele>278</ele>
        <time>2017-04-05T09:38:07Z</time>
      </trkpt>
      <trkpt lat="45.98548" lon="4.86573">
        <ele>278</ele>
        <time>2017-04-05T09:38:08Z</time>
      </trkpt>
      <trkpt lat="45.98546" lon="4.86566">
        <ele>278</ele>
        <time>2017-04-05T09:38:09Z</time>
      </trkpt>
      <trkpt lat="45.98543" lon="4.86559">
        <ele>278</ele>
        <time>2017-04-05T09:38:10Z</time>
      </trkpt>
      <trkpt lat="45.98541" lon="4.86553">
        <ele>278</ele>
        <time>2017-04-05T09:38:11Z</time>
      </trkpt>
      <trkpt lat="45.98538" lon="4.86546">
        <ele>278</ele>
        <time>2017-04-05T09:38:12Z</time>
      </trkpt>
      <trkpt lat="45.98535" lon="4.8654">
        <ele>278</ele>
        <time>2017-04-05T09:38:13Z</time>
      </trkpt>
      <trkpt lat="45.98532" lon="4.86535">
        <ele>279</ele>
        <time>2017-04-05T09:38:14Z</time>
      </trkpt>
      <trkpt lat="45.98529" lon="4.86529">
        <ele>279</ele>
        <time>2017-04-05T09:38:15Z</time>
      </trkpt>
      <trkpt lat="45.98526" lon="4.86523">
        <ele>279</ele>
        <time>2017-04-05T09:38:16Z</time>
      </trkpt>
      <trkpt lat="45.98523" lon="4.86517">
        <ele>279</ele>
        <time>2017-04-05T09:38:17Z</time>
      </trkpt>
      <trkpt lat="45.98519" lon="4.86511">
        <ele>279</ele>
        <time>2017-04-05T09:38:18Z</time>
      </trkpt>
      <trkpt lat="45.98517" lon="4.86505">
        <ele>279</ele>
        <time>2017-04-05T09:38:19Z</time>
      </trkpt>
      <trkpt lat="45.98514" lon="4.86498">
        <ele>279</ele>
        <time>2017-04-05T09:38:20Z</time>
      </trkpt>
      <trkpt lat="45.98511" lon="4.86492">
        <ele>279</ele>
        <time>2017-04-05T09:38:21Z</time>
      </trkpt>
      <trkpt lat="45.98508" lon="4.86486">
        <ele>279</ele>
        <time>2017-04-05T09:38:22Z</time>
      </trkpt>
      <trkpt lat="45.98505" lon="4.86479">
        <ele>278</ele>
        <time>2017-04-05T09:38:23Z</time>
      </trkpt>
      <trkpt lat="45.98502" lon="4.86472">
        <ele>278</ele>
        <time>2017-04-05T09:38:24Z</time>
      </trkpt>
      <trkpt lat="45.98499" lon="4.86465">
        <ele>279</ele>
        <time>2017-04-05T09:38:25Z</time>
      </trkpt>
      <trkpt lat="45.98496" lon="4.86459">
        <ele>278</ele>
        <time>2017-04-05T09:38:26Z</time>
      </trkpt>
      <trkpt lat="45.98494" lon="4.86452">
        <ele>278</ele>
        <time>2017-04-05T09:38:27Z</time>
      </trkpt>
      <trkpt lat="45.98491" lon="4.86446">
        <ele>278</ele>
        <time>2017-04-05T09:38:28Z</time>
      </trkpt>
      <trkpt lat="45.98489" lon="4.8644">
        <ele>278</ele>
        <time>2017-04-05T09:38:29Z</time>
      </trkpt>
      <trkpt lat="45.98486" lon="4.86435">
        <ele>278</ele>
        <time>2017-04-05T09:38:30Z</time>
      </trkpt>
      <trkpt lat="45.98483" lon="4.86429">
        <ele>278</ele>
        <time>2017-04-05T09:38:31Z</time>
      </trkpt>
      <trkpt lat="45.98481" lon="4.86422">
        <ele>278</ele>
        <time>2017-04-05T09:38:32Z</time>
      </trkpt>
      <trkpt lat="45.98478" lon="4.86416">
        <ele>277</ele>
        <time>2017-04-05T09:38:33Z</time>
      </trkpt>
      <trkpt lat="45.98475" lon="4.86409">
        <ele>277</ele>
        <time>2017-04-05T09:38:34Z</time>
      </trkpt>
      <trkpt lat="45.98472" lon="4.86403">
        <ele>277</ele>
        <time>2017-04-05T09:38:35Z</time>
      </trkpt>
      <trkpt lat="45.98468" lon="4.86396">
        <ele>277</ele>
        <time>2017-04-05T09:38:36Z</time>
      </trkpt>
      <trkpt lat="45.98465" lon="4.86389">
        <ele>277</ele>
        <time>2017-04-05T09:38:37Z</time>
      </trkpt>
      <trkpt lat="45.98462" lon="4.86382">
        <ele>277</ele>
        <time>2017-04-05T09:38:38Z</time>
      </trkpt>
      <trkpt lat="45.98459" lon="4.86375">
        <ele>277</ele>
        <time>2017-04-05T09:38:39Z</time>
      </trkpt>
      <trkpt lat="45.98457" lon="4.86368">
        <ele>277</ele>
        <time>2017-04-05T09:38:40Z</time>
      </trkpt>
      <trkpt lat="45.98455" lon="4.86361">
        <ele>277</ele>
        <time>2017-04-05T09:38:41Z</time>
      </trkpt>
      <trkpt lat="45.98453" lon="4.86354">
        <ele>277</ele>
        <time>2017-04-05T09:38:42Z</time>
      </trkpt>
      <trkpt lat="45.98451" lon="4.86348">
        <ele>277</ele>
        <time>2017-04-05T09:38:43Z</time>
      </trkpt>
      <trkpt lat="45.98449" lon="4.86341">
        <ele>277</ele>
        <time>2017-04-05T09:38:44Z</time>
      </trkpt>
      <trkpt lat="45.98447" lon="4.86335">
        <ele>277</ele>
        <time>2017-04-05T09:38:45Z</time>
      </trkpt>
      <trkpt lat="45.98446" lon="4.86329">
        <ele>276</ele>
        <time>2017-04-05T09:38:46Z</time>
      </trkpt>
      <trkpt lat="45.98444" lon="4.86323">
        <ele>276</ele>
        <time>2017-04-05T09:38:47Z</time>
      </trkpt>
      <trkpt lat="45.98442" lon="4.86311">
        <ele>276</ele>
        <time>2017-04-05T09:38:49Z</time>
      </trkpt>
      <trkpt lat="45.98441" lon="4.86305">
        <ele>276</ele>
        <time>2017-04-05T09:38:50Z</time>
      </trkpt>
      <trkpt lat="45.98438" lon="4.86294">
        <ele>276</ele>
        <time>2017-04-05T09:38:52Z</time>
      </trkpt>
      <trkpt lat="45.98437" lon="4.86288">
        <ele>276</ele>
        <time>2017-04-05T09:38:53Z</time>
      </trkpt>
      <trkpt lat="45.98435" lon="4.86281">
        <ele>276</ele>
        <time>2017-04-05T09:38:54Z</time>
      </trkpt>
      <trkpt lat="45.98434" lon="4.86275">
        <ele>276</ele>
        <time>2017-04-05T09:38:55Z</time>
      </trkpt>
      <trkpt lat="45.98432" lon="4.86263">
        <ele>275</ele>
        <time>2017-04-05T09:38:57Z</time>
      </trkpt>
      <trkpt lat="45.98431" lon="4.86257">
        <ele>275</ele>
        <time>2017-04-05T09:38:58Z</time>
      </trkpt>
      <trkpt lat="45.9843" lon="4.86246">
        <ele>275</ele>
        <time>2017-04-05T09:39:00Z</time>
      </trkpt>
      <trkpt lat="45.98429" lon="4.86241">
        <ele>275</ele>
        <time>2017-04-05T09:39:01Z</time>
      </trkpt>
      <trkpt lat="45.98428" lon="4.86231">
        <ele>275</ele>
        <time>2017-04-05T09:39:03Z</time>
      </trkpt>
      <trkpt lat="45.98427" lon="4.86225">
        <ele>275</ele>
        <time>2017-04-05T09:39:04Z</time>
      </trkpt>
      <trkpt lat="45.98426" lon="4.86215">
        <ele>275</ele>
        <time>2017-04-05T09:39:06Z</time>
      </trkpt>
      <trkpt lat="45.98425" lon="4.8621">
        <ele>275</ele>
        <time>2017-04-05T09:39:07Z</time>
      </trkpt>
      <trkpt lat="45.98423" lon="4.86199">
        <ele>275</ele>
        <time>2017-04-05T09:39:09Z</time>
      </trkpt>
      <trkpt lat="45.98422" lon="4.86193">
        <ele>275</ele>
        <time>2017-04-05T09:39:10Z</time>
      </trkpt>
      <trkpt lat="45.9842" lon="4.86182">
        <ele>275</ele>
        <time>2017-04-05T09:39:12Z</time>
      </trkpt>
      <trkpt lat="45.98419" lon="4.86177">
        <ele>276</ele>
        <time>2017-04-05T09:39:13Z</time>
      </trkpt>
      <trkpt lat="45.98417" lon="4.86166">
        <ele>276</ele>
        <time>2017-04-05T09:39:15Z</time>
      </trkpt>
      <trkpt lat="45.98417" lon="4.8616">
        <ele>276</ele>
        <time>2017-04-05T09:39:16Z</time>
      </trkpt>
      <trkpt lat="45.98415" lon="4.86148">
        <ele>276</ele>
        <time>2017-04-05T09:39:18Z</time>
      </trkpt>
      <trkpt lat="45.98414" lon="4.86142">
        <ele>276</ele>
        <time>2017-04-05T09:39:19Z</time>
      </trkpt>
      <trkpt lat="45.98413" lon="4.86136">
        <ele>276</ele>
        <time>2017-04-05T09:39:20Z</time>
      </trkpt>
      <trkpt lat="45.98412" lon="4.86129">
        <ele>276</ele>
        <time>2017-04-05T09:39:21Z</time>
      </trkpt>
      <trkpt lat="45.9841" lon="4.86122">
        <ele>277</ele>
        <time>2017-04-05T09:39:22Z</time>
      </trkpt>
      <trkpt lat="45.98409" lon="4.86115">
        <ele>277</ele>
        <time>2017-04-05T09:39:23Z</time>
      </trkpt>
      <trkpt lat="45.98408" lon="4.86107">
        <ele>277</ele>
        <time>2017-04-05T09:39:24Z</time>
      </trkpt>
      <trkpt lat="45.98406" lon="4.86099">
        <ele>277</ele>
        <time>2017-04-05T09:39:25Z</time>
      </trkpt>
      <trkpt lat="45.98404" lon="4.8609">
        <ele>277</ele>
        <time>2017-04-05T09:39:26Z</time>
      </trkpt>
      <trkpt lat="45.98402" lon="4.86081">
        <ele>277</ele>
        <time>2017-04-05T09:39:27Z</time>
      </trkpt>
      <trkpt lat="45.984" lon="4.86071">
        <ele>277</ele>
        <time>2017-04-05T09:39:28Z</time>
      </trkpt>
      <trkpt lat="45.98398" lon="4.86062">
        <ele>277</ele>
        <time>2017-04-05T09:39:29Z</time>
      </trkpt>
      <trkpt lat="45.98394" lon="4.86052">
        <ele>277</ele>
        <time>2017-04-05T09:39:30Z</time>
      </trkpt>
      <trkpt lat="45.98391" lon="4.86042">
        <ele>277</ele>
        <time>2017-04-05T09:39:31Z</time>
      </trkpt>
      <trkpt lat="45.98387" lon="4.86032">
        <ele>277</ele>
        <time>2017-04-05T09:39:32Z</time>
      </trkpt>
      <trkpt lat="45.98384" lon="4.86023">
        <ele>277</ele>
        <time>2017-04-05T09:39:33Z</time>
      </trkpt>
      <trkpt lat="45.9838" lon="4.86014">
        <ele>277</ele>
        <time>2017-04-05T09:39:34Z</time>
      </trkpt>
      <trkpt lat="45.98376" lon="4.86005">
        <ele>277</ele>
        <time>2017-04-05T09:39:35Z</time>
      </trkpt>
      <trkpt lat="45.98373" lon="4.85997">
        <ele>277</ele>
        <time>2017-04-05T09:39:36Z</time>
      </trkpt>
      <trkpt lat="45.98369" lon="4.85989">
        <ele>276</ele>
        <time>2017-04-05T09:39:37Z</time>
      </trkpt>
      <trkpt lat="45.98366" lon="4.85981">
        <ele>276</ele>
        <time>2017-04-05T09:39:38Z</time>
      </trkpt>
      <trkpt lat="45.98363" lon="4.85973">
        <ele>276</ele>
        <time>2017-04-05T09:39:39Z</time>
      </trkpt>
      <trkpt lat="45.9836" lon="4.85965">
        <ele>276</ele>
        <time>2017-04-05T09:39:40Z</time>
      </trkpt>
      <trkpt lat="45.98358" lon="4.85957">
        <ele>276</ele>
        <time>2017-04-05T09:39:41Z</time>
      </trkpt>
      <trkpt lat="45.98354" lon="4.8595">
        <ele>276</ele>
        <time>2017-04-05T09:39:42Z</time>
      </trkpt>
      <trkpt lat="45.98351" lon="4.85943">
        <ele>276</ele>
        <time>2017-04-05T09:39:43Z</time>
      </trkpt>
      <trkpt lat="45.98349" lon="4.85936">
        <ele>276</ele>
        <time>2017-04-05T09:39:44Z</time>
      </trkpt>
      <trkpt lat="45.98347" lon="4.85929">
        <ele>276</ele>
        <time>2017-04-05T09:39:45Z</time>
      </trkpt>
      <trkpt lat="45.98344" lon="4.85922">
        <ele>276</ele>
        <time>2017-04-05T09:39:46Z</time>
      </trkpt>
      <trkpt lat="45.98342" lon="4.85915">
        <ele>276</ele>
        <time>2017-04-05T09:39:47Z</time>
      </trkpt>
      <trkpt lat="45.98339" lon="4.85909">
        <ele>276</ele>
        <time>2017-04-05T09:39:48Z</time>
      </trkpt>
      <trkpt lat="45.98337" lon="4.85902">
        <ele>276</ele>
        <time>2017-04-05T09:39:49Z</time>
      </trkpt>
      <trkpt lat="45.98335" lon="4.85896">
        <ele>276</ele>
        <time>2017-04-05T09:39:50Z</time>
      </trkpt>
      <trkpt lat="45.98333" lon="4.85889">
        <ele>276</ele>
        <time>2017-04-05T09:39:51Z</time>
      </trkpt>
      <trkpt lat="45.98331" lon="4.85883">
        <ele>276</ele>
        <time>2017-04-05T09:39:52Z</time>
      </trkpt>
      <trkpt lat="45.98329" lon="4.85876">
        <ele>276</ele>
        <time>2017-04-05T09:39:53Z</time>
      </trkpt>
      <trkpt lat="45.98327" lon="4.85869">
        <ele>276</ele>
        <time>2017-04-05T09:39:54Z</time>
      </trkpt>
      <trkpt lat="45.98324" lon="4.85863">
        <ele>276</ele>
        <time>2017-04-05T09:39:55Z</time>
      </trkpt>
      <trkpt lat="45.9832" lon="4.85856">
        <ele>276</ele>
        <time>2017-04-05T09:39:56Z</time>
      </trkpt>
      <trkpt lat="45.98317" lon="4.85849">
        <ele>276</ele>
        <time>2017-04-05T09:39:57Z</time>
      </trkpt>
      <trkpt lat="45.98315" lon="4.85842">
        <ele>276</ele>
        <time>2017-04-05T09:39:58Z</time>
      </trkpt>
      <trkpt lat="45.98313" lon="4.85835">
        <ele>276</ele>
        <time>2017-04-05T09:39:59Z</time>
      </trkpt>
      <trkpt lat="45.9831" lon="4.85827">
        <ele>275</ele>
        <time>2017-04-05T09:40:00Z</time>
      </trkpt>
      <trkpt lat="45.98307" lon="4.85819">
        <ele>275</ele>
        <time>2017-04-05T09:40:01Z</time>
      </trkpt>
      <trkpt lat="45.98304" lon="4.85811">
        <ele>275</ele>
        <time>2017-04-05T09:40:02Z</time>
      </trkpt>
      <trkpt lat="45.98301" lon="4.85804">
        <ele>275</ele>
        <time>2017-04-05T09:40:03Z</time>
      </trkpt>
      <trkpt lat="45.98298" lon="4.85797">
        <ele>275</ele>
        <time>2017-04-05T09:40:04Z</time>
      </trkpt>
      <trkpt lat="45.98295" lon="4.8579">
        <ele>275</ele>
        <time>2017-04-05T09:40:05Z</time>
      </trkpt>
      <trkpt lat="45.98292" lon="4.85783">
        <ele>275</ele>
        <time>2017-04-05T09:40:06Z</time>
      </trkpt>
      <trkpt lat="45.9829" lon="4.85776">
        <ele>275</ele>
        <time>2017-04-05T09:40:07Z</time>
      </trkpt>
      <trkpt lat="45.98287" lon="4.8577">
        <ele>275</ele>
        <time>2017-04-05T09:40:08Z</time>
      </trkpt>
      <trkpt lat="45.98284" lon="4.85764">
        <ele>275</ele>
        <time>2017-04-05T09:40:09Z</time>
      </trkpt>
      <trkpt lat="45.98282" lon="4.85757">
        <ele>275</ele>
        <time>2017-04-05T09:40:10Z</time>
      </trkpt>
      <trkpt lat="45.98279" lon="4.85751">
        <ele>275</ele>
        <time>2017-04-05T09:40:11Z</time>
      </trkpt>
      <trkpt lat="45.98276" lon="4.85745">
        <ele>274</ele>
        <time>2017-04-05T09:40:12Z</time>
      </trkpt>
      <trkpt lat="45.98274" lon="4.85739">
        <ele>274</ele>
        <time>2017-04-05T09:40:13Z</time>
      </trkpt>
      <trkpt lat="45.98272" lon="4.85732">
        <ele>274</ele>
        <time>2017-04-05T09:40:14Z</time>
      </trkpt>
      <trkpt lat="45.98269" lon="4.85726">
        <ele>275</ele>
        <time>2017-04-05T09:40:15Z</time>
      </trkpt>
      <trkpt lat="45.98266" lon="4.8572">
        <ele>275</ele>
        <time>2017-04-05T09:40:16Z</time>
      </trkpt>
      <trkpt lat="45.98264" lon="4.85714">
        <ele>275</ele>
        <time>2017-04-05T09:40:17Z</time>
      </trkpt>
      <trkpt lat="45.98261" lon="4.85707">
        <ele>275</ele>
        <time>2017-04-05T09:40:18Z</time>
      </trkpt>
      <trkpt lat="45.98259" lon="4.85701">
        <ele>275</ele>
        <time>2017-04-05T09:40:19Z</time>
      </trkpt>
      <trkpt lat="45.98256" lon="4.85695">
        <ele>275</ele>
        <time>2017-04-05T09:40:20Z</time>
      </trkpt>
      <trkpt lat="45.98254" lon="4.85689">
        <ele>275</ele>
        <time>2017-04-05T09:40:21Z</time>
      </trkpt>
      <trkpt lat="45.98251" lon="4.85683">
        <ele>275</ele>
        <time>2017-04-05T09:40:22Z</time>
      </trkpt>
      <trkpt lat="45.98248" lon="4.85677">
        <ele>276</ele>
        <time>2017-04-05T09:40:23Z</time>
      </trkpt>
      <trkpt lat="45.98246" lon="4.85671">
        <ele>276</ele>
        <time>2017-04-05T09:40:24Z</time>
      </trkpt>
      <trkpt lat="45.98243" lon="4.85664">
        <ele>276</ele>
        <time>2017-04-05T09:40:25Z</time>
      </trkpt>
      <trkpt lat="45.9824" lon="4.85658">
        <ele>276</ele>
        <time>2017-04-05T09:40:26Z</time>
      </trkpt>
      <trkpt lat="45.98238" lon="4.85652">
        <ele>276</ele>
        <time>2017-04-05T09:40:27Z</time>
      </trkpt>
      <trkpt lat="45.98235" lon="4.85646">
        <ele>277</ele>
        <time>2017-04-05T09:40:28Z</time>
      </trkpt>
      <trkpt lat="45.98232" lon="4.8564">
        <ele>277</ele>
        <time>2017-04-05T09:40:29Z</time>
      </trkpt>
      <trkpt lat="45.9823" lon="4.85634">
        <ele>277</ele>
        <time>2017-04-05T09:40:30Z</time>
      </trkpt>
      <trkpt lat="45.98227" lon="4.85628">
        <ele>277</ele>
        <time>2017-04-05T09:40:31Z</time>
      </trkpt>
      <trkpt lat="45.98225" lon="4.85622">
        <ele>277</ele>
        <time>2017-04-05T09:40:32Z</time>
      </trkpt>
      <trkpt lat="45.98223" lon="4.85617">
        <ele>277</ele>
        <time>2017-04-05T09:40:33Z</time>
      </trkpt>
      <trkpt lat="45.98218" lon="4.85606">
        <ele>277</ele>
        <time>2017-04-05T09:40:35Z</time>
      </trkpt>
      <trkpt lat="45.98215" lon="4.856">
        <ele>277</ele>
        <time>2017-04-05T09:40:36Z</time>
      </trkpt>
      <trkpt lat="45.98213" lon="4.85593">
        <ele>277</ele>
        <time>2017-04-05T09:40:37Z</time>
      </trkpt>
      <trkpt lat="45.9821" lon="4.85586">
        <ele>277</ele>
        <time>2017-04-05T09:40:38Z</time>
      </trkpt>
      <trkpt lat="45.98207" lon="4.85579">
        <ele>276</ele>
        <time>2017-04-05T09:40:39Z</time>
      </trkpt>
      <trkpt lat="45.98204" lon="4.85572">
        <ele>276</ele>
        <time>2017-04-05T09:40:40Z</time>
      </trkpt>
      <trkpt lat="45.98202" lon="4.85565">
        <ele>276</ele>
        <time>2017-04-05T09:40:41Z</time>
      </trkpt>
      <trkpt lat="45.98198" lon="4.85557">
        <ele>276</ele>
        <time>2017-04-05T09:40:42Z</time>
      </trkpt>
      <trkpt lat="45.98195" lon="4.8555">
        <ele>276</ele>
        <time>2017-04-05T09:40:43Z</time>
      </trkpt>
      <trkpt lat="45.98192" lon="4.85542">
        <ele>276</ele>
        <time>2017-04-05T09:40:44Z</time>
      </trkpt>
      <trkpt lat="45.98189" lon="4.85535">
        <ele>276</ele>
        <time>2017-04-05T09:40:45Z</time>
      </trkpt>
      <trkpt lat="45.98186" lon="4.85528">
        <ele>276</ele>
        <time>2017-04-05T09:40:46Z</time>
      </trkpt>
      <trkpt lat="45.98183" lon="4.85521">
        <ele>275</ele>
        <time>2017-04-05T09:40:47Z</time>
      </trkpt>
      <trkpt lat="45.98181" lon="4.85514">
        <ele>275</ele>
        <time>2017-04-05T09:40:48Z</time>
      </trkpt>
      <trkpt lat="45.98178" lon="4.85507">
        <ele>275</ele>
        <time>2017-04-05T09:40:49Z</time>
      </trkpt>
      <trkpt lat="45.98175" lon="4.855">
        <ele>275</ele>
        <time>2017-04-05T09:40:50Z</time>
      </trkpt>
      <trkpt lat="45.98172" lon="4.85494">
        <ele>275</ele>
        <time>2017-04-05T09:40:51Z</time>
      </trkpt>
      <trkpt lat="45.9817" lon="4.85487">
        <ele>275</ele>
        <time>2017-04-05T09:40:52Z</time>
      </trkpt>
      <trkpt lat="45.98167" lon="4.85481">
        <ele>275</ele>
        <time>2017-04-05T09:40:53Z</time>
      </trkpt>
      <trkpt lat="45.98164" lon="4.85474">
        <ele>275</ele>
        <time>2017-04-05T09:40:54Z</time>
      </trkpt>
      <trkpt lat="45.98161" lon="4.85467">
        <ele>275</ele>
        <time>2017-04-05T09:40:55Z</time>
      </trkpt>
      <trkpt lat="45.98158" lon="4.8546">
        <ele>275</ele>
        <time>2017-04-05T09:40:56Z</time>
      </trkpt>
      <trkpt lat="45.98155" lon="4.85453">
        <ele>276</ele>
        <time>2017-04-05T09:40:57Z</time>
      </trkpt>
      <trkpt lat="45.98153" lon="4.85445">
        <ele>276</ele>
        <time>2017-04-05T09:40:58Z</time>
      </trkpt>
      <trkpt lat="45.9815" lon="4.85438">
        <ele>276</ele>
        <time>2017-04-05T09:40:59Z</time>
      </trkpt>
      <trkpt lat="45.98147" lon="4.85431">
        <ele>276</ele>
        <time>2017-04-05T09:41:00Z</time>
      </trkpt>
      <trkpt lat="45.98145" lon="4.85424">
        <ele>276</ele>
        <time>2017-04-05T09:41:01Z</time>
      </trkpt>
      <trkpt lat="45.98142" lon="4.85418">
        <ele>276</ele>
        <time>2017-04-05T09:41:02Z</time>
      </trkpt>
      <trkpt lat="45.98139" lon="4.85411">
        <ele>276</ele>
        <time>2017-04-05T09:41:03Z</time>
      </trkpt>
      <trkpt lat="45.98137" lon="4.85405">
        <ele>276</ele>
        <time>2017-04-05T09:41:04Z</time>
      </trkpt>
      <trkpt lat="45.98134" lon="4.85399">
        <ele>276</ele>
        <time>2017-04-05T09:41:05Z</time>
      </trkpt>
      <trkpt lat="45.98132" lon="4.85393">
        <ele>276</ele>
        <time>2017-04-05T09:41:06Z</time>
      </trkpt>
      <trkpt lat="45.98129" lon="4.85386">
        <ele>276</ele>
        <time>2017-04-05T09:41:07Z</time>
      </trkpt>
      <trkpt lat="45.98126" lon="4.8538">
        <ele>276</ele>
        <time>2017-04-05T09:41:08Z</time>
      </trkpt>
      <trkpt lat="45.98124" lon="4.85373">
        <ele>276</ele>
        <time>2017-04-05T09:41:09Z</time>
      </trkpt>
      <trkpt lat="45.98121" lon="4.85366">
        <ele>276</ele>
        <time>2017-04-05T09:41:10Z</time>
      </trkpt>
      <trkpt lat="45.98118" lon="4.85359">
        <ele>276</ele>
        <time>2017-04-05T09:41:11Z</time>
      </trkpt>
      <trkpt lat="45.98115" lon="4.85353">
        <ele>276</ele>
        <time>2017-04-05T09:41:12Z</time>
      </trkpt>
      <trkpt lat="45.98113" lon="4.85346">
        <ele>276</ele>
        <time>2017-04-05T09:41:13Z</time>
      </trkpt>
      <trkpt lat="45.9811" lon="4.8534">
        <ele>276</ele>
        <time>2017-04-05T09:41:14Z</time>
      </trkpt>
      <trkpt lat="45.98108" lon="4.85335">
        <ele>276</ele>
        <time>2017-04-05T09:41:15Z</time>
      </trkpt>
      <trkpt lat="45.98106" lon="4.85329">
        <ele>276</ele>
        <time>2017-04-05T09:41:16Z</time>
      </trkpt>
      <trkpt lat="45.98103" lon="4.85323">
        <ele>276</ele>
        <time>2017-04-05T09:41:17Z</time>
      </trkpt>
      <trkpt lat="45.98101" lon="4.85317">
        <ele>276</ele>
        <time>2017-04-05T09:41:18Z</time>
      </trkpt>
      <trkpt lat="45.98098" lon="4.85311">
        <ele>276</ele>
        <time>2017-04-05T09:41:19Z</time>
      </trkpt>
      <trkpt lat="45.98096" lon="4.85305">
        <ele>276</ele>
        <time>2017-04-05T09:41:20Z</time>
      </trkpt>
      <trkpt lat="45.98093" lon="4.85299">
        <ele>276</ele>
        <time>2017-04-05T09:41:21Z</time>
      </trkpt>
      <trkpt lat="45.9809" lon="4.85293">
        <ele>276</ele>
        <time>2017-04-05T09:41:22Z</time>
      </trkpt>
      <trkpt lat="45.98087" lon="4.85287">
        <ele>276</ele>
        <time>2017-04-05T09:41:23Z</time>
      </trkpt>
      <trkpt lat="45.98085" lon="4.85281">
        <ele>276</ele>
        <time>2017-04-05T09:41:24Z</time>
      </trkpt>
      <trkpt lat="45.98082" lon="4.85275">
        <ele>276</ele>
        <time>2017-04-05T09:41:25Z</time>
      </trkpt>
      <trkpt lat="45.9808" lon="4.8527">
        <ele>276</ele>
        <time>2017-04-05T09:41:26Z</time>
      </trkpt>
      <trkpt lat="45.98074" lon="4.8526">
        <ele>276</ele>
        <time>2017-04-05T09:41:28Z</time>
      </trkpt>
      <trkpt lat="45.98071" lon="4.85255">
        <ele>276</ele>
        <time>2017-04-05T09:41:29Z</time>
      </trkpt>
      <trkpt lat="45.98066" lon="4.85246">
        <ele>276</ele>
        <time>2017-04-05T09:41:31Z</time>
      </trkpt>
      <trkpt lat="45.98063" lon="4.85241">
        <ele>276</ele>
        <time>2017-04-05T09:41:32Z</time>
      </trkpt>
      <trkpt lat="45.98059" lon="4.85232">
        <ele>276</ele>
        <time>2017-04-05T09:41:34Z</time>
      </trkpt>
      <trkpt lat="45.98057" lon="4.85227">
        <ele>276</ele>
        <time>2017-04-05T09:41:35Z</time>
      </trkpt>
      <trkpt lat="45.98055" lon="4.85222">
        <ele>276</ele>
        <time>2017-04-05T09:41:36Z</time>
      </trkpt>
      <trkpt lat="45.98053" lon="4.85215">
        <ele>276</ele>
        <time>2017-04-05T09:41:37Z</time>
      </trkpt>
      <trkpt lat="45.9805" lon="4.85209">
        <ele>276</ele>
        <time>2017-04-05T09:41:38Z</time>
      </trkpt>
      <trkpt lat="45.98048" lon="4.85203">
        <ele>276</ele>
        <time>2017-04-05T09:41:39Z</time>
      </trkpt>
      <trkpt lat="45.98045" lon="4.85196">
        <ele>276</ele>
        <time>2017-04-05T09:41:40Z</time>
      </trkpt>
      <trkpt lat="45.98043" lon="4.85189">
        <ele>276</ele>
        <time>2017-04-05T09:41:41Z</time>
      </trkpt>
      <trkpt lat="45.98041" lon="4.85182">
        <ele>276</ele>
        <time>2017-04-05T09:41:42Z</time>
      </trkpt>
      <trkpt lat="45.98039" lon="4.85175">
        <ele>275</ele>
        <time>2017-04-05T09:41:43Z</time>
      </trkpt>
      <trkpt lat="45.98037" lon="4.85167">
        <ele>275</ele>
        <time>2017-04-05T09:41:44Z</time>
      </trkpt>
      <trkpt lat="45.98034" lon="4.85159">
        <ele>275</ele>
        <time>2017-04-05T09:41:45Z</time>
      </trkpt>
      <trkpt lat="45.98032" lon="4.85151">
        <ele>275</ele>
        <time>2017-04-05T09:41:46Z</time>
      </trkpt>
      <trkpt lat="45.98029" lon="4.85143">
        <ele>275</ele>
        <time>2017-04-05T09:41:47Z</time>
      </trkpt>
      <trkpt lat="45.98027" lon="4.85134">
        <ele>275</ele>
        <time>2017-04-05T09:41:48Z</time>
      </trkpt>
      <trkpt lat="45.98024" lon="4.85126">
        <ele>274</ele>
        <time>2017-04-05T09:41:49Z</time>
      </trkpt>
      <trkpt lat="45.98022" lon="4.85117">
        <ele>274</ele>
        <time>2017-04-05T09:41:50Z</time>
      </trkpt>
      <trkpt lat="45.9802" lon="4.85109">
        <ele>274</ele>
        <time>2017-04-05T09:41:51Z</time>
      </trkpt>
      <trkpt lat="45.98018" lon="4.851">
        <ele>274</ele>
        <time>2017-04-05T09:41:52Z</time>
      </trkpt>
      <trkpt lat="45.98016" lon="4.85091">
        <ele>274</ele>
        <time>2017-04-05T09:41:53Z</time>
      </trkpt>
      <trkpt lat="45.98016" lon="4.85082">
        <ele>273</ele>
        <time>2017-04-05T09:41:54Z</time>
      </trkpt>
      <trkpt lat="45.98015" lon="4.85073">
        <ele>273</ele>
        <time>2017-04-05T09:41:55Z</time>
      </trkpt>
      <trkpt lat="45.98015" lon="4.85064">
        <ele>273</ele>
        <time>2017-04-05T09:41:56Z</time>
      </trkpt>
      <trkpt lat="45.98015" lon="4.85056">
        <ele>273</ele>
        <time>2017-04-05T09:41:57Z</time>
      </trkpt>
      <trkpt lat="45.98015" lon="4.85048">
        <ele>273</ele>
        <time>2017-04-05T09:41:58Z</time>
      </trkpt>
      <trkpt lat="45.98015" lon="4.8504">
        <ele>273</ele>
        <time>2017-04-05T09:41:59Z</time>
      </trkpt>
      <trkpt lat="45.98015" lon="4.85031">
        <ele>273</ele>
        <time>2017-04-05T09:42:00Z</time>
      </trkpt>
      <trkpt lat="45.98015" lon="4.85023">
        <ele>273</ele>
        <time>2017-04-05T09:42:01Z</time>
      </trkpt>
      <trkpt lat="45.98014" lon="4.85015">
        <ele>273</ele>
        <time>2017-04-05T09:42:02Z</time>
      </trkpt>
      <trkpt lat="45.98013" lon="4.85007">
        <ele>272</ele>
        <time>2017-04-05T09:42:03Z</time>
      </trkpt>
      <trkpt lat="45.98012" lon="4.84999">
        <ele>272</ele>
        <time>2017-04-05T09:42:04Z</time>
      </trkpt>
      <trkpt lat="45.98012" lon="4.8499">
        <ele>272</ele>
        <time>2017-04-05T09:42:05Z</time>
      </trkpt>
      <trkpt lat="45.98011" lon="4.84982">
        <ele>272</ele>
        <time>2017-04-05T09:42:06Z</time>
      </trkpt>
      <trkpt lat="45.98011" lon="4.84974">
        <ele>272</ele>
        <time>2017-04-05T09:42:07Z</time>
      </trkpt>
      <trkpt lat="45.9801" lon="4.84966">
        <ele>272</ele>
        <time>2017-04-05T09:42:08Z</time>
      </trkpt>
      <trkpt lat="45.98009" lon="4.84958">
        <ele>272</ele>
        <time>2017-04-05T09:42:09Z</time>
      </trkpt>
      <trkpt lat="45.98008" lon="4.84949">
        <ele>272</ele>
        <time>2017-04-05T09:42:10Z</time>
      </trkpt>
      <trkpt lat="45.98008" lon="4.84941">
        <ele>272</ele>
        <time>2017-04-05T09:42:11Z</time>
      </trkpt>
      <trkpt lat="45.98007" lon="4.84932">
        <ele>272</ele>
        <time>2017-04-05T09:42:12Z</time>
      </trkpt>
      <trkpt lat="45.98006" lon="4.84923">
        <ele>272</ele>
        <time>2017-04-05T09:42:13Z</time>
      </trkpt>
      <trkpt lat="45.98006" lon="4.84915">
        <ele>272</ele>
        <time>2017-04-05T09:42:14Z</time>
      </trkpt>
      <trkpt lat="45.98005" lon="4.84906">
        <ele>272</ele>
        <time>2017-04-05T09:42:15Z</time>
      </trkpt>
      <trkpt lat="45.98004" lon="4.84897">
        <ele>272</ele>
        <time>2017-04-05T09:42:16Z</time>
      </trkpt>
      <trkpt lat="45.98003" lon="4.84889">
        <ele>272</ele>
        <time>2017-04-05T09:42:17Z</time>
      </trkpt>
      <trkpt lat="45.98002" lon="4.84881">
        <ele>272</ele>
        <time>2017-04-05T09:42:18Z</time>
      </trkpt>
      <trkpt lat="45.98002" lon="4.84873">
        <ele>272</ele>
        <time>2017-04-05T09:42:19Z</time>
      </trkpt>
      <trkpt lat="45.98001" lon="4.84865">
        <ele>272</ele>
        <time>2017-04-05T09:42:20Z</time>
      </trkpt>
      <trkpt lat="45.98" lon="4.84858">
        <ele>272</ele>
        <time>2017-04-05T09:42:21Z</time>
      </trkpt>
      <trkpt lat="45.98" lon="4.84851">
        <ele>272</ele>
        <time>2017-04-05T09:42:22Z</time>
      </trkpt>
      <trkpt lat="45.98" lon="4.84844">
        <ele>272</ele>
        <time>2017-04-05T09:42:23Z</time>
      </trkpt>
      <trkpt lat="45.98" lon="4.84837">
        <ele>272</ele>
        <time>2017-04-05T09:42:24Z</time>
      </trkpt>
      <trkpt lat="45.98" lon="4.8483">
        <ele>272</ele>
        <time>2017-04-05T09:42:25Z</time>
      </trkpt>
      <trkpt lat="45.97999" lon="4.84823">
        <ele>273</ele>
        <time>2017-04-05T09:42:26Z</time>
      </trkpt>
      <trkpt lat="45.97998" lon="4.84816">
        <ele>273</ele>
        <time>2017-04-05T09:42:27Z</time>
      </trkpt>
      <trkpt lat="45.97997" lon="4.84808">
        <ele>273</ele>
        <time>2017-04-05T09:42:28Z</time>
      </trkpt>
      <trkpt lat="45.97997" lon="4.848">
        <ele>274</ele>
        <time>2017-04-05T09:42:29Z</time>
      </trkpt>
      <trkpt lat="45.97996" lon="4.84792">
        <ele>274</ele>
        <time>2017-04-05T09:42:30Z</time>
      </trkpt>
      <trkpt lat="45.97995" lon="4.84784">
        <ele>274</ele>
        <time>2017-04-05T09:42:31Z</time>
      </trkpt>
      <trkpt lat="45.97994" lon="4.84775">
        <ele>274</ele>
        <time>2017-04-05T09:42:32Z</time>
      </trkpt>
      <trkpt lat="45.97993" lon="4.84767">
        <ele>275</ele>
        <time>2017-04-05T09:42:33Z</time>
      </trkpt>
      <trkpt lat="45.97992" lon="4.8476">
        <ele>275</ele>
        <time>2017-04-05T09:42:34Z</time>
      </trkpt>
      <trkpt lat="45.97991" lon="4.84752">
        <ele>275</ele>
        <time>2017-04-05T09:42:35Z</time>
      </trkpt>
      <trkpt lat="45.97991" lon="4.84745">
        <ele>275</ele>
        <time>2017-04-05T09:42:36Z</time>
      </trkpt>
      <trkpt lat="45.9799" lon="4.84737">
        <ele>275</ele>
        <time>2017-04-05T09:42:37Z</time>
      </trkpt>
      <trkpt lat="45.9799" lon="4.8473">
        <ele>275</ele>
        <time>2017-04-05T09:42:38Z</time>
      </trkpt>
      <trkpt lat="45.9799" lon="4.84723">
        <ele>275</ele>
        <time>2017-04-05T09:42:39Z</time>
      </trkpt>
      <trkpt lat="45.97989" lon="4.84716">
        <ele>275</ele>
        <time>2017-04-05T09:42:40Z</time>
      </trkpt>
      <trkpt lat="45.97988" lon="4.84709">
        <ele>275</ele>
        <time>2017-04-05T09:42:41Z</time>
      </trkpt>
      <trkpt lat="45.97988" lon="4.84702">
        <ele>275</ele>
        <time>2017-04-05T09:42:42Z</time>
      </trkpt>
      <trkpt lat="45.97987" lon="4.84695">
        <ele>275</ele>
        <time>2017-04-05T09:42:43Z</time>
      </trkpt>
      <trkpt lat="45.97986" lon="4.84688">
        <ele>275</ele>
        <time>2017-04-05T09:42:44Z</time>
      </trkpt>
      <trkpt lat="45.97985" lon="4.8468">
        <ele>275</ele>
        <time>2017-04-05T09:42:45Z</time>
      </trkpt>
      <trkpt lat="45.97984" lon="4.84673">
        <ele>275</ele>
        <time>2017-04-05T09:42:46Z</time>
      </trkpt>
      <trkpt lat="45.97984" lon="4.84665">
        <ele>274</ele>
        <time>2017-04-05T09:42:47Z</time>
      </trkpt>
      <trkpt lat="45.97982" lon="4.84658">
        <ele>274</ele>
        <time>2017-04-05T09:42:48Z</time>
      </trkpt>
      <trkpt lat="45.97981" lon="4.8465">
        <ele>275</ele>
        <time>2017-04-05T09:42:49Z</time>
      </trkpt>
      <trkpt lat="45.9798" lon="4.84643">
        <ele>275</ele>
        <time>2017-04-05T09:42:50Z</time>
      </trkpt>
      <trkpt lat="45.97979" lon="4.84636">
        <ele>275</ele>
        <time>2017-04-05T09:42:51Z</time>
      </trkpt>
      <trkpt lat="45.97977" lon="4.84628">
        <ele>275</ele>
        <time>2017-04-05T09:42:52Z</time>
      </trkpt>
      <trkpt lat="45.97976" lon="4.84621">
        <ele>275</ele>
        <time>2017-04-05T09:42:53Z</time>
      </trkpt>
      <trkpt lat="45.97975" lon="4.84613">
        <ele>275</ele>
        <time>2017-04-05T09:42:54Z</time>
      </trkpt>
      <trkpt lat="45.97974" lon="4.84606">
        <ele>275</ele>
        <time>2017-04-05T09:42:55Z</time>
      </trkpt>
      <trkpt lat="45.97972" lon="4.84598">
        <ele>275</ele>
        <time>2017-04-05T09:42:56Z</time>
      </trkpt>
      <trkpt lat="45.97971" lon="4.84591">
        <ele>275</ele>
        <time>2017-04-05T09:42:57Z</time>
      </trkpt>
      <trkpt lat="45.97969" lon="4.84584">
        <ele>275</ele>
        <time>2017-04-05T09:42:58Z</time>
      </trkpt>
      <trkpt lat="45.97968" lon="4.84577">
        <ele>275</ele>
        <time>2017-04-05T09:42:59Z</time>
      </trkpt>
      <trkpt lat="45.97967" lon="4.8457">
        <ele>275</ele>
        <time>2017-04-05T09:43:00Z</time>
      </trkpt>
      <trkpt lat="45.97966" lon="4.84562">
        <ele>275</ele>
        <time>2017-04-05T09:43:01Z</time>
      </trkpt>
      <trkpt lat="45.97964" lon="4.84554">
        <ele>275</ele>
        <time>2017-04-05T09:43:02Z</time>
      </trkpt>
      <trkpt lat="45.97963" lon="4.84546">
        <ele>275</ele>
        <time>2017-04-05T09:43:03Z</time>
      </trkpt>
      <trkpt lat="45.97962" lon="4.84538">
        <ele>275</ele>
        <time>2017-04-05T09:43:04Z</time>
      </trkpt>
      <trkpt lat="45.9796" lon="4.8453">
        <ele>275</ele>
        <time>2017-04-05T09:43:05Z</time>
      </trkpt>
      <trkpt lat="45.97959" lon="4.84522">
        <ele>275</ele>
        <time>2017-04-05T09:43:06Z</time>
      </trkpt>
      <trkpt lat="45.97958" lon="4.84513">
        <ele>275</ele>
        <time>2017-04-05T09:43:07Z</time>
      </trkpt>
      <trkpt lat="45.97957" lon="4.84505">
        <ele>275</ele>
        <time>2017-04-05T09:43:08Z</time>
      </trkpt>
      <trkpt lat="45.97955" lon="4.84496">
        <ele>275</ele>
        <time>2017-04-05T09:43:09Z</time>
      </trkpt>
      <trkpt lat="45.97954" lon="4.84489">
        <ele>275</ele>
        <time>2017-04-05T09:43:10Z</time>
      </trkpt>
      <trkpt lat="45.97953" lon="4.84481">
        <ele>275</ele>
        <time>2017-04-05T09:43:11Z</time>
      </trkpt>
      <trkpt lat="45.97952" lon="4.84474">
        <ele>275</ele>
        <time>2017-04-05T09:43:12Z</time>
      </trkpt>
      <trkpt lat="45.97951" lon="4.84467">
        <ele>275</ele>
        <time>2017-04-05T09:43:13Z</time>
      </trkpt>
      <trkpt lat="45.9795" lon="4.8446">
        <ele>275</ele>
        <time>2017-04-05T09:43:14Z</time>
      </trkpt>
      <trkpt lat="45.97948" lon="4.84453">
        <ele>275</ele>
        <time>2017-04-05T09:43:15Z</time>
      </trkpt>
      <trkpt lat="45.97947" lon="4.84447">
        <ele>275</ele>
        <time>2017-04-05T09:43:16Z</time>
      </trkpt>
      <trkpt lat="45.97946" lon="4.8444">
        <ele>275</ele>
        <time>2017-04-05T09:43:17Z</time>
      </trkpt>
      <trkpt lat="45.97945" lon="4.84433">
        <ele>275</ele>
        <time>2017-04-05T09:43:18Z</time>
      </trkpt>
      <trkpt lat="45.97944" lon="4.84426">
        <ele>275</ele>
        <time>2017-04-05T09:43:19Z</time>
      </trkpt>
      <trkpt lat="45.97943" lon="4.84419">
        <ele>275</ele>
        <time>2017-04-05T09:43:20Z</time>
      </trkpt>
      <trkpt lat="45.97942" lon="4.84413">
        <ele>275</ele>
        <time>2017-04-05T09:43:21Z</time>
      </trkpt>
      <trkpt lat="45.97941" lon="4.84406">
        <ele>275</ele>
        <time>2017-04-05T09:43:22Z</time>
      </trkpt>
      <trkpt lat="45.9794" lon="4.84399">
        <ele>275</ele>
        <time>2017-04-05T09:43:23Z</time>
      </trkpt>
      <trkpt lat="45.97939" lon="4.84392">
        <ele>275</ele>
        <time>2017-04-05T09:43:24Z</time>
      </trkpt>
      <trkpt lat="45.97937" lon="4.84386">
        <ele>275</ele>
        <time>2017-04-05T09:43:25Z</time>
      </trkpt>
      <trkpt lat="45.97936" lon="4.84379">
        <ele>275</ele>
        <time>2017-04-05T09:43:26Z</time>
      </trkpt>
      <trkpt lat="45.97934" lon="4.84372">
        <ele>275</ele>
        <time>2017-04-05T09:43:27Z</time>
      </trkpt>
      <trkpt lat="45.97933" lon="4.84364">
        <ele>275</ele>
        <time>2017-04-05T09:43:28Z</time>
      </trkpt>
      <trkpt lat="45.97931" lon="4.84357">
        <ele>275</ele>
        <time>2017-04-05T09:43:29Z</time>
      </trkpt>
      <trkpt lat="45.9793" lon="4.84349">
        <ele>275</ele>
        <time>2017-04-05T09:43:30Z</time>
      </trkpt>
      <trkpt lat="45.97928" lon="4.84341">
        <ele>275</ele>
        <time>2017-04-05T09:43:31Z</time>
      </trkpt>
      <trkpt lat="45.97927" lon="4.84333">
        <ele>275</ele>
        <time>2017-04-05T09:43:32Z</time>
      </trkpt>
      <trkpt lat="45.97927" lon="4.84325">
        <ele>275</ele>
        <time>2017-04-05T09:43:33Z</time>
      </trkpt>
      <trkpt lat="45.97926" lon="4.84317">
        <ele>275</ele>
        <time>2017-04-05T09:43:34Z</time>
      </trkpt>
      <trkpt lat="45.97925" lon="4.8431">
        <ele>275</ele>
        <time>2017-04-05T09:43:35Z</time>
      </trkpt>
      <trkpt lat="45.97924" lon="4.84302">
        <ele>275</ele>
        <time>2017-04-05T09:43:36Z</time>
      </trkpt>
      <trkpt lat="45.97922" lon="4.84295">
        <ele>275</ele>
        <time>2017-04-05T09:43:37Z</time>
      </trkpt>
      <trkpt lat="45.97921" lon="4.84288">
        <ele>275</ele>
        <time>2017-04-05T09:43:38Z</time>
      </trkpt>
      <trkpt lat="45.97921" lon="4.8428">
        <ele>275</ele>
        <time>2017-04-05T09:43:39Z</time>
      </trkpt>
      <trkpt lat="45.97922" lon="4.84274">
        <ele>275</ele>
        <time>2017-04-05T09:43:40Z</time>
      </trkpt>
      <trkpt lat="45.97924" lon="4.84268">
        <ele>275</ele>
        <time>2017-04-05T09:43:41Z</time>
      </trkpt>
      <trkpt lat="45.97928" lon="4.84263">
        <ele>275</ele>
        <time>2017-04-05T09:43:42Z</time>
      </trkpt>
      <trkpt lat="45.97933" lon="4.84259">
        <ele>275</ele>
        <time>2017-04-05T09:43:43Z</time>
      </trkpt>
      <trkpt lat="45.97937" lon="4.84255">
        <ele>275</ele>
        <time>2017-04-05T09:43:44Z</time>
      </trkpt>
      <trkpt lat="45.97942" lon="4.84251">
        <ele>275</ele>
        <time>2017-04-05T09:43:45Z</time>
      </trkpt>
      <trkpt lat="45.97946" lon="4.84248">
        <ele>275</ele>
        <time>2017-04-05T09:43:46Z</time>
      </trkpt>
      <trkpt lat="45.9795" lon="4.84244">
        <ele>275</ele>
        <time>2017-04-05T09:43:47Z</time>
      </trkpt>
      <trkpt lat="45.97954" lon="4.8424">
        <ele>275</ele>
        <time>2017-04-05T09:43:48Z</time>
      </trkpt>
      <trkpt lat="45.97958" lon="4.84237">
        <ele>275</ele>
        <time>2017-04-05T09:43:49Z</time>
      </trkpt>
      <trkpt lat="45.97962" lon="4.84233">
        <ele>274</ele>
        <time>2017-04-05T09:43:50Z</time>
      </trkpt>
      <trkpt lat="45.97965" lon="4.8423">
        <ele>274</ele>
        <time>2017-04-05T09:43:51Z</time>
      </trkpt>
      <trkpt lat="45.97969" lon="4.84227">
        <ele>274</ele>
        <time>2017-04-05T09:43:52Z</time>
      </trkpt>
      <trkpt lat="45.97973" lon="4.84223">
        <ele>274</ele>
        <time>2017-04-05T09:43:53Z</time>
      </trkpt>
      <trkpt lat="45.97977" lon="4.84219">
        <ele>274</ele>
        <time>2017-04-05T09:43:54Z</time>
      </trkpt>
      <trkpt lat="45.97981" lon="4.84215">
        <ele>274</ele>
        <time>2017-04-05T09:43:55Z</time>
      </trkpt>
      <trkpt lat="45.97985" lon="4.84212">
        <ele>274</ele>
        <time>2017-04-05T09:43:56Z</time>
      </trkpt>
      <trkpt lat="45.97988" lon="4.84209">
        <ele>274</ele>
        <time>2017-04-05T09:43:57Z</time>
      </trkpt>
      <trkpt lat="45.97992" lon="4.84205">
        <ele>274</ele>
        <time>2017-04-05T09:43:58Z</time>
      </trkpt>
      <trkpt lat="45.97996" lon="4.84202">
        <ele>274</ele>
        <time>2017-04-05T09:43:59Z</time>
      </trkpt>
      <trkpt lat="45.98" lon="4.84198">
        <ele>274</ele>
        <time>2017-04-05T09:44:00Z</time>
      </trkpt>
      <trkpt lat="45.98004" lon="4.84195">
        <ele>274</ele>
        <time>2017-04-05T09:44:01Z</time>
      </trkpt>
      <trkpt lat="45.98011" lon="4.84188">
        <ele>274</ele>
        <time>2017-04-05T09:44:03Z</time>
      </trkpt>
      <trkpt lat="45.98016" lon="4.84185">
        <ele>274</ele>
        <time>2017-04-05T09:44:04Z</time>
      </trkpt>
      <trkpt lat="45.98023" lon="4.84178">
        <ele>274</ele>
        <time>2017-04-05T09:44:06Z</time>
      </trkpt>
      <trkpt lat="45.98027" lon="4.84175">
        <ele>274</ele>
        <time>2017-04-05T09:44:07Z</time>
      </trkpt>
      <trkpt lat="45.98034" lon="4.84168">
        <ele>273</ele>
        <time>2017-04-05T09:44:09Z</time>
      </trkpt>
      <trkpt lat="45.98038" lon="4.84164">
        <ele>273</ele>
        <time>2017-04-05T09:44:10Z</time>
      </trkpt>
      <trkpt lat="45.98045" lon="4.84158">
        <ele>273</ele>
        <time>2017-04-05T09:44:12Z</time>
      </trkpt>
      <trkpt lat="45.98048" lon="4.84154">
        <ele>273</ele>
        <time>2017-04-05T09:44:13Z</time>
      </trkpt>
      <trkpt lat="45.98055" lon="4.84148">
        <ele>273</ele>
        <time>2017-04-05T09:44:15Z</time>
      </trkpt>
      <trkpt lat="45.98059" lon="4.84145">
        <ele>273</ele>
        <time>2017-04-05T09:44:16Z</time>
      </trkpt>
      <trkpt lat="45.98066" lon="4.84138">
        <ele>273</ele>
        <time>2017-04-05T09:44:18Z</time>
      </trkpt>
      <trkpt lat="45.9807" lon="4.84135">
        <ele>273</ele>
        <time>2017-04-05T09:44:19Z</time>
      </trkpt>
      <trkpt lat="45.98077" lon="4.84128">
        <ele>273</ele>
        <time>2017-04-05T09:44:21Z</time>
      </trkpt>
      <trkpt lat="45.9808" lon="4.84124">
        <ele>273</ele>
        <time>2017-04-05T09:44:22Z</time>
      </trkpt>
      <trkpt lat="45.98087" lon="4.84118">
        <ele>273</ele>
        <time>2017-04-05T09:44:24Z</time>
      </trkpt>
      <trkpt lat="45.9809" lon="4.84114">
        <ele>273</ele>
        <time>2017-04-05T09:44:25Z</time>
      </trkpt>
      <trkpt lat="45.98098" lon="4.84107">
        <ele>273</ele>
        <time>2017-04-05T09:44:27Z</time>
      </trkpt>
      <trkpt lat="45.98101" lon="4.84104">
        <ele>273</ele>
        <time>2017-04-05T09:44:28Z</time>
      </trkpt>
      <trkpt lat="45.98108" lon="4.84097">
        <ele>273</ele>
        <time>2017-04-05T09:44:30Z</time>
      </trkpt>
      <trkpt lat="45.98112" lon="4.84093">
        <ele>273</ele>
        <time>2017-04-05T09:44:31Z</time>
      </trkpt>
      <trkpt lat="45.98119" lon="4.84086">
        <ele>273</ele>
        <time>2017-04-05T09:44:33Z</time>
      </trkpt>
      <trkpt lat="45.98122" lon="4.84082">
        <ele>273</ele>
        <time>2017-04-05T09:44:34Z</time>
      </trkpt>
      <trkpt lat="45.98128" lon="4.84075">
        <ele>273</ele>
        <time>2017-04-05T09:44:36Z</time>
      </trkpt>
      <trkpt lat="45.98131" lon="4.84072">
        <ele>273</ele>
        <time>2017-04-05T09:44:37Z</time>
      </trkpt>
      <trkpt lat="45.98137" lon="4.84064">
        <ele>273</ele>
        <time>2017-04-05T09:44:39Z</time>
      </trkpt>
      <trkpt lat="45.9814" lon="4.8406">
        <ele>273</ele>
        <time>2017-04-05T09:44:40Z</time>
      </trkpt>
      <trkpt lat="45.98146" lon="4.84052">
        <ele>273</ele>
        <time>2017-04-05T09:44:42Z</time>
      </trkpt>
      <trkpt lat="45.98149" lon="4.84047">
        <ele>273</ele>
        <time>2017-04-05T09:44:43Z</time>
      </trkpt>
      <trkpt lat="45.98155" lon="4.84038">
        <ele>273</ele>
        <time>2017-04-05T09:44:45Z</time>
      </trkpt>
      <trkpt lat="45.98157" lon="4.84034">
        <ele>273</ele>
        <time>2017-04-05T09:44:46Z</time>
      </trkpt>
      <trkpt lat="45.98163" lon="4.84024">
        <ele>273</ele>
        <time>2017-04-05T09:44:48Z</time>
      </trkpt>
      <trkpt lat="45.98166" lon="4.84019">
        <ele>273</ele>
        <time>2017-04-05T09:44:49Z</time>
      </trkpt>
      <trkpt lat="45.98171" lon="4.84009">
        <ele>273</ele>
        <time>2017-04-05T09:44:51Z</time>
      </trkpt>
      <trkpt lat="45.98173" lon="4.84004">
        <ele>273</ele>
        <time>2017-04-05T09:44:52Z</time>
      </trkpt>
      <trkpt lat="45.98178" lon="4.83993">
        <ele>273</ele>
        <time>2017-04-05T09:44:54Z</time>
      </trkpt>
      <trkpt lat="45.9818" lon="4.83987">
        <ele>273</ele>
        <time>2017-04-05T09:44:55Z</time>
      </trkpt>
      <trkpt lat="45.98185" lon="4.83976">
        <ele>273</ele>
        <time>2017-04-05T09:44:57Z</time>
      </trkpt>
      <trkpt lat="45.98187" lon="4.83971">
        <ele>273</ele>
        <time>2017-04-05T09:44:58Z</time>
      </trkpt>
      <trkpt lat="45.98191" lon="4.83959">
        <ele>273</ele>
        <time>2017-04-05T09:45:00Z</time>
      </trkpt>
      <trkpt lat="45.98193" lon="4.83953">
        <ele>273</ele>
        <time>2017-04-05T09:45:01Z</time>
      </trkpt>
      <trkpt lat="45.98197" lon="4.83942">
        <ele>273</ele>
        <time>2017-04-05T09:45:03Z</time>
      </trkpt>
      <trkpt lat="45.98199" lon="4.83936">
        <ele>273</ele>
        <time>2017-04-05T09:45:04Z</time>
      </trkpt>
      <trkpt lat="45.98201" lon="4.83931">
        <ele>273</ele>
        <time>2017-04-05T09:45:05Z</time>
      </trkpt>
      <trkpt lat="45.98203" lon="4.83925">
        <ele>273</ele>
        <time>2017-04-05T09:45:06Z</time>
      </trkpt>
      <trkpt lat="45.98207" lon="4.83914">
        <ele>273</ele>
        <time>2017-04-05T09:45:08Z</time>
      </trkpt>
      <trkpt lat="45.98208" lon="4.83908">
        <ele>273</ele>
        <time>2017-04-05T09:45:09Z</time>
      </trkpt>
      <trkpt lat="45.98212" lon="4.83897">
        <ele>273</ele>
        <time>2017-04-05T09:45:11Z</time>
      </trkpt>
      <trkpt lat="45.98214" lon="4.83891">
        <ele>273</ele>
        <time>2017-04-05T09:45:12Z</time>
      </trkpt>
      <trkpt lat="45.98216" lon="4.83885">
        <ele>272</ele>
        <time>2017-04-05T09:45:13Z</time>
      </trkpt>
      <trkpt lat="45.98219" lon="4.83879">
        <ele>272</ele>
        <time>2017-04-05T09:45:14Z</time>
      </trkpt>
      <trkpt lat="45.98221" lon="4.83873">
        <ele>272</ele>
        <time>2017-04-05T09:45:15Z</time>
      </trkpt>
      <trkpt lat="45.98223" lon="4.83866">
        <ele>272</ele>
        <time>2017-04-05T09:45:16Z</time>
      </trkpt>
      <trkpt lat="45.98225" lon="4.8386">
        <ele>272</ele>
        <time>2017-04-05T09:45:17Z</time>
      </trkpt>
      <trkpt lat="45.98227" lon="4.83854">
        <ele>272</ele>
        <time>2017-04-05T09:45:18Z</time>
      </trkpt>
      <trkpt lat="45.98229" lon="4.83848">
        <ele>272</ele>
        <time>2017-04-05T09:45:19Z</time>
      </trkpt>
      <trkpt lat="45.98231" lon="4.83842">
        <ele>272</ele>
        <time>2017-04-05T09:45:20Z</time>
      </trkpt>
      <trkpt lat="45.98234" lon="4.83836">
        <ele>272</ele>
        <time>2017-04-05T09:45:21Z</time>
      </trkpt>
      <trkpt lat="45.98236" lon="4.8383">
        <ele>272</ele>
        <time>2017-04-05T09:45:22Z</time>
      </trkpt>
      <trkpt lat="45.98239" lon="4.83819">
        <ele>272</ele>
        <time>2017-04-05T09:45:24Z</time>
      </trkpt>
      <trkpt lat="45.98241" lon="4.83813">
        <ele>272</ele>
        <time>2017-04-05T09:45:25Z</time>
      </trkpt>
      <trkpt lat="45.98245" lon="4.83802">
        <ele>272</ele>
        <time>2017-04-05T09:45:27Z</time>
      </trkpt>
      <trkpt lat="45.98247" lon="4.83796">
        <ele>272</ele>
        <time>2017-04-05T09:45:28Z</time>
      </trkpt>
      <trkpt lat="45.98249" lon="4.83791">
        <ele>272</ele>
        <time>2017-04-05T09:45:29Z</time>
      </trkpt>
      <trkpt lat="45.98251" lon="4.83785">
        <ele>272</ele>
        <time>2017-04-05T09:45:30Z</time>
      </trkpt>
      <trkpt lat="45.98255" lon="4.83773">
        <ele>272</ele>
        <time>2017-04-05T09:45:32Z</time>
      </trkpt>
      <trkpt lat="45.98257" lon="4.83767">
        <ele>272</ele>
        <time>2017-04-05T09:45:33Z</time>
      </trkpt>
      <trkpt lat="45.98259" lon="4.83761">
        <ele>272</ele>
        <time>2017-04-05T09:45:34Z</time>
      </trkpt>
      <trkpt lat="45.98262" lon="4.83754">
        <ele>272</ele>
        <time>2017-04-05T09:45:35Z</time>
      </trkpt>
      <trkpt lat="45.98264" lon="4.83748">
        <ele>272</ele>
        <time>2017-04-05T09:45:36Z</time>
      </trkpt>
      <trkpt lat="45.98266" lon="4.83742">
        <ele>272</ele>
        <time>2017-04-05T09:45:37Z</time>
      </trkpt>
      <trkpt lat="45.98268" lon="4.83735">
        <ele>272</ele>
        <time>2017-04-05T09:45:38Z</time>
      </trkpt>
      <trkpt lat="45.9827" lon="4.8373">
        <ele>272</ele>
        <time>2017-04-05T09:45:39Z</time>
      </trkpt>
      <trkpt lat="45.98272" lon="4.83723">
        <ele>272</ele>
        <time>2017-04-05T09:45:40Z</time>
      </trkpt>
      <trkpt lat="45.98275" lon="4.83718">
        <ele>272</ele>
        <time>2017-04-05T09:45:41Z</time>
      </trkpt>
      <trkpt lat="45.98277" lon="4.83712">
        <ele>272</ele>
        <time>2017-04-05T09:45:42Z</time>
      </trkpt>
      <trkpt lat="45.98279" lon="4.83706">
        <ele>272</ele>
        <time>2017-04-05T09:45:43Z</time>
      </trkpt>
      <trkpt lat="45.98281" lon="4.837">
        <ele>272</ele>
        <time>2017-04-05T09:45:44Z</time>
      </trkpt>
      <trkpt lat="45.98283" lon="4.83694">
        <ele>272</ele>
        <time>2017-04-05T09:45:45Z</time>
      </trkpt>
      <trkpt lat="45.98285" lon="4.83688">
        <ele>272</ele>
        <time>2017-04-05T09:45:46Z</time>
      </trkpt>
      <trkpt lat="45.98287" lon="4.83682">
        <ele>272</ele>
        <time>2017-04-05T09:45:47Z</time>
      </trkpt>
      <trkpt lat="45.9829" lon="4.83676">
        <ele>272</ele>
        <time>2017-04-05T09:45:48Z</time>
      </trkpt>
      <trkpt lat="45.98292" lon="4.8367">
        <ele>272</ele>
        <time>2017-04-05T09:45:49Z</time>
      </trkpt>
      <trkpt lat="45.98294" lon="4.83665">
        <ele>271</ele>
        <time>2017-04-05T09:45:50Z</time>
      </trkpt>
      <trkpt lat="45.98296" lon="4.83659">
        <ele>271</ele>
        <time>2017-04-05T09:45:51Z</time>
      </trkpt>
      <trkpt lat="45.98298" lon="4.83653">
        <ele>271</ele>
        <time>2017-04-05T09:45:52Z</time>
      </trkpt>
      <trkpt lat="45.98301" lon="4.83648">
        <ele>271</ele>
        <time>2017-04-05T09:45:53Z</time>
      </trkpt>
      <trkpt lat="45.98304" lon="4.83642">
        <ele>271</ele>
        <time>2017-04-05T09:45:54Z</time>
      </trkpt>
      <trkpt lat="45.98306" lon="4.83636">
        <ele>271</ele>
        <time>2017-04-05T09:45:55Z</time>
      </trkpt>
      <trkpt lat="45.98309" lon="4.83631">
        <ele>271</ele>
        <time>2017-04-05T09:45:56Z</time>
      </trkpt>
      <trkpt lat="45.98312" lon="4.83625">
        <ele>271</ele>
        <time>2017-04-05T09:45:57Z</time>
      </trkpt>
      <trkpt lat="45.98315" lon="4.8362">
        <ele>271</ele>
        <time>2017-04-05T09:45:58Z</time>
      </trkpt>
      <trkpt lat="45.98318" lon="4.83614">
        <ele>271</ele>
        <time>2017-04-05T09:45:59Z</time>
      </trkpt>
      <trkpt lat="45.98321" lon="4.83609">
        <ele>271</ele>
        <time>2017-04-05T09:46:00Z</time>
      </trkpt>
      <trkpt lat="45.98324" lon="4.83604">
        <ele>271</ele>
        <time>2017-04-05T09:46:01Z</time>
      </trkpt>
      <trkpt lat="45.98328" lon="4.83599">
        <ele>271</ele>
        <time>2017-04-05T09:46:02Z</time>
      </trkpt>
      <trkpt lat="45.98331" lon="4.83594">
        <ele>270</ele>
        <time>2017-04-05T09:46:03Z</time>
      </trkpt>
      <trkpt lat="45.98335" lon="4.83589">
        <ele>270</ele>
        <time>2017-04-05T09:46:04Z</time>
      </trkpt>
      <trkpt lat="45.98338" lon="4.83584">
        <ele>270</ele>
        <time>2017-04-05T09:46:05Z</time>
      </trkpt>
      <trkpt lat="45.98341" lon="4.83579">
        <ele>270</ele>
        <time>2017-04-05T09:46:06Z</time>
      </trkpt>
      <trkpt lat="45.98345" lon="4.83574">
        <ele>270</ele>
        <time>2017-04-05T09:46:07Z</time>
      </trkpt>
      <trkpt lat="45.98348" lon="4.8357">
        <ele>269</ele>
        <time>2017-04-05T09:46:08Z</time>
      </trkpt>
      <trkpt lat="45.98352" lon="4.83566">
        <ele>269</ele>
        <time>2017-04-05T09:46:09Z</time>
      </trkpt>
      <trkpt lat="45.98356" lon="4.83562">
        <ele>269</ele>
        <time>2017-04-05T09:46:10Z</time>
      </trkpt>
      <trkpt lat="45.98359" lon="4.83558">
        <ele>269</ele>
        <time>2017-04-05T09:46:11Z</time>
      </trkpt>
      <trkpt lat="45.98362" lon="4.83553">
        <ele>269</ele>
        <time>2017-04-05T09:46:12Z</time>
      </trkpt>
      <trkpt lat="45.98366" lon="4.83548">
        <ele>269</ele>
        <time>2017-04-05T09:46:13Z</time>
      </trkpt>
      <trkpt lat="45.98369" lon="4.83543">
        <ele>269</ele>
        <time>2017-04-05T09:46:14Z</time>
      </trkpt>
      <trkpt lat="45.98373" lon="4.83539">
        <ele>269</ele>
        <time>2017-04-05T09:46:15Z</time>
      </trkpt>
      <trkpt lat="45.98376" lon="4.83534">
        <ele>269</ele>
        <time>2017-04-05T09:46:16Z</time>
      </trkpt>
      <trkpt lat="45.9838" lon="4.83529">
        <ele>269</ele>
        <time>2017-04-05T09:46:17Z</time>
      </trkpt>
      <trkpt lat="45.98384" lon="4.83524">
        <ele>269</ele>
        <time>2017-04-05T09:46:18Z</time>
      </trkpt>
      <trkpt lat="45.98388" lon="4.83519">
        <ele>269</ele>
        <time>2017-04-05T09:46:19Z</time>
      </trkpt>
      <trkpt lat="45.98393" lon="4.83514">
        <ele>269</ele>
        <time>2017-04-05T09:46:20Z</time>
      </trkpt>
      <trkpt lat="45.98397" lon="4.83508">
        <ele>269</ele>
        <time>2017-04-05T09:46:21Z</time>
      </trkpt>
      <trkpt lat="45.98401" lon="4.83502">
        <ele>268</ele>
        <time>2017-04-05T09:46:22Z</time>
      </trkpt>
      <trkpt lat="45.98405" lon="4.83497">
        <ele>268</ele>
        <time>2017-04-05T09:46:23Z</time>
      </trkpt>
      <trkpt lat="45.98409" lon="4.83492">
        <ele>268</ele>
        <time>2017-04-05T09:46:24Z</time>
      </trkpt>
      <trkpt lat="45.98413" lon="4.83487">
        <ele>269</ele>
        <time>2017-04-05T09:46:25Z</time>
      </trkpt>
      <trkpt lat="45.98417" lon="4.83482">
        <ele>269</ele>
        <time>2017-04-05T09:46:26Z</time>
      </trkpt>
      <trkpt lat="45.9842" lon="4.83477">
        <ele>268</ele>
        <time>2017-04-05T09:46:27Z</time>
      </trkpt>
      <trkpt lat="45.98426" lon="4.83468">
        <ele>268</ele>
        <time>2017-04-05T09:46:29Z</time>
      </trkpt>
      <trkpt lat="45.98429" lon="4.83464">
        <ele>268</ele>
        <time>2017-04-05T09:46:30Z</time>
      </trkpt>
      <trkpt lat="45.98433" lon="4.83459">
        <ele>268</ele>
        <time>2017-04-05T09:46:31Z</time>
      </trkpt>
      <trkpt lat="45.98436" lon="4.83455">
        <ele>268</ele>
        <time>2017-04-05T09:46:32Z</time>
      </trkpt>
      <trkpt lat="45.98439" lon="4.8345">
        <ele>268</ele>
        <time>2017-04-05T09:46:33Z</time>
      </trkpt>
      <trkpt lat="45.98443" lon="4.83445">
        <ele>268</ele>
        <time>2017-04-05T09:46:34Z</time>
      </trkpt>
      <trkpt lat="45.98446" lon="4.8344">
        <ele>268</ele>
        <time>2017-04-05T09:46:35Z</time>
      </trkpt>
      <trkpt lat="45.9845" lon="4.83435">
        <ele>268</ele>
        <time>2017-04-05T09:46:36Z</time>
      </trkpt>
      <trkpt lat="45.98454" lon="4.8343">
        <ele>268</ele>
        <time>2017-04-05T09:46:37Z</time>
      </trkpt>
      <trkpt lat="45.98458" lon="4.83425">
        <ele>269</ele>
        <time>2017-04-05T09:46:38Z</time>
      </trkpt>
      <trkpt lat="45.98462" lon="4.8342">
        <ele>269</ele>
        <time>2017-04-05T09:46:39Z</time>
      </trkpt>
      <trkpt lat="45.98466" lon="4.83415">
        <ele>269</ele>
        <time>2017-04-05T09:46:40Z</time>
      </trkpt>
      <trkpt lat="45.98469" lon="4.8341">
        <ele>269</ele>
        <time>2017-04-05T09:46:41Z</time>
      </trkpt>
      <trkpt lat="45.98473" lon="4.83405">
        <ele>269</ele>
        <time>2017-04-05T09:46:42Z</time>
      </trkpt>
      <trkpt lat="45.98479" lon="4.83397">
        <ele>269</ele>
        <time>2017-04-05T09:46:44Z</time>
      </trkpt>
      <trkpt lat="45.98481" lon="4.83392">
        <ele>269</ele>
        <time>2017-04-05T09:46:45Z</time>
      </trkpt>
      <trkpt lat="45.98487" lon="4.83384">
        <ele>269</ele>
        <time>2017-04-05T09:46:47Z</time>
      </trkpt>
      <trkpt lat="45.9849" lon="4.8338">
        <ele>269</ele>
        <time>2017-04-05T09:46:48Z</time>
      </trkpt>
      <trkpt lat="45.98496" lon="4.83373">
        <ele>270</ele>
        <time>2017-04-05T09:46:50Z</time>
      </trkpt>
      <trkpt lat="45.98499" lon="4.83369">
        <ele>270</ele>
        <time>2017-04-05T09:46:51Z</time>
      </trkpt>
      <trkpt lat="45.98505" lon="4.8336">
        <ele>269</ele>
        <time>2017-04-05T09:46:53Z</time>
      </trkpt>
      <trkpt lat="45.98508" lon="4.83355">
        <ele>270</ele>
        <time>2017-04-05T09:46:54Z</time>
      </trkpt>
      <trkpt lat="45.98512" lon="4.83351">
        <ele>270</ele>
        <time>2017-04-05T09:46:55Z</time>
      </trkpt>
      <trkpt lat="45.98515" lon="4.83347">
        <ele>270</ele>
        <time>2017-04-05T09:46:56Z</time>
      </trkpt>
      <trkpt lat="45.98518" lon="4.83342">
        <ele>270</ele>
        <time>2017-04-05T09:46:57Z</time>
      </trkpt>
      <trkpt lat="45.98522" lon="4.83338">
        <ele>270</ele>
        <time>2017-04-05T09:46:58Z</time>
      </trkpt>
      <trkpt lat="45.98525" lon="4.83333">
        <ele>270</ele>
        <time>2017-04-05T09:46:59Z</time>
      </trkpt>
      <trkpt lat="45.98528" lon="4.83328">
        <ele>269</ele>
        <time>2017-04-05T09:47:00Z</time>
      </trkpt>
      <trkpt lat="45.98531" lon="4.83324">
        <ele>269</ele>
        <time>2017-04-05T09:47:01Z</time>
      </trkpt>
      <trkpt lat="45.98535" lon="4.83319">
        <ele>269</ele>
        <time>2017-04-05T09:47:02Z</time>
      </trkpt>
      <trkpt lat="45.98538" lon="4.83315">
        <ele>269</ele>
        <time>2017-04-05T09:47:03Z</time>
      </trkpt>
      <trkpt lat="45.98541" lon="4.8331">
        <ele>269</ele>
        <time>2017-04-05T09:47:04Z</time>
      </trkpt>
      <trkpt lat="45.98545" lon="4.83306">
        <ele>269</ele>
        <time>2017-04-05T09:47:05Z</time>
      </trkpt>
      <trkpt lat="45.98549" lon="4.83301">
        <ele>269</ele>
        <time>2017-04-05T09:47:06Z</time>
      </trkpt>
      <trkpt lat="45.98552" lon="4.83296">
        <ele>269</ele>
        <time>2017-04-05T09:47:07Z</time>
      </trkpt>
      <trkpt lat="45.98556" lon="4.83292">
        <ele>269</ele>
        <time>2017-04-05T09:47:08Z</time>
      </trkpt>
      <trkpt lat="45.9856" lon="4.83286">
        <ele>269</ele>
        <time>2017-04-05T09:47:09Z</time>
      </trkpt>
      <trkpt lat="45.98563" lon="4.83281">
        <ele>269</ele>
        <time>2017-04-05T09:47:10Z</time>
      </trkpt>
      <trkpt lat="45.98567" lon="4.83275">
        <ele>269</ele>
        <time>2017-04-05T09:47:11Z</time>
      </trkpt>
      <trkpt lat="45.98571" lon="4.83269">
        <ele>269</ele>
        <time>2017-04-05T09:47:12Z</time>
      </trkpt>
      <trkpt lat="45.98575" lon="4.83264">
        <ele>269</ele>
        <time>2017-04-05T09:47:13Z</time>
      </trkpt>
      <trkpt lat="45.9858" lon="4.83259">
        <ele>268</ele>
        <time>2017-04-05T09:47:14Z</time>
      </trkpt>
      <trkpt lat="45.98583" lon="4.83254">
        <ele>268</ele>
        <time>2017-04-05T09:47:15Z</time>
      </trkpt>
      <trkpt lat="45.98587" lon="4.83249">
        <ele>268</ele>
        <time>2017-04-05T09:47:16Z</time>
      </trkpt>
      <trkpt lat="45.98591" lon="4.83243">
        <ele>268</ele>
        <time>2017-04-05T09:47:17Z</time>
      </trkpt>
      <trkpt lat="45.98595" lon="4.83238">
        <ele>268</ele>
        <time>2017-04-05T09:47:18Z</time>
      </trkpt>
      <trkpt lat="45.98599" lon="4.83233">
        <ele>268</ele>
        <time>2017-04-05T09:47:19Z</time>
      </trkpt>
      <trkpt lat="45.98603" lon="4.83227">
        <ele>268</ele>
        <time>2017-04-05T09:47:20Z</time>
      </trkpt>
      <trkpt lat="45.98607" lon="4.83222">
        <ele>267</ele>
        <time>2017-04-05T09:47:21Z</time>
      </trkpt>
      <trkpt lat="45.9861" lon="4.83218">
        <ele>267</ele>
        <time>2017-04-05T09:47:22Z</time>
      </trkpt>
      <trkpt lat="45.98614" lon="4.83213">
        <ele>267</ele>
        <time>2017-04-05T09:47:23Z</time>
      </trkpt>
      <trkpt lat="45.98617" lon="4.83209">
        <ele>267</ele>
        <time>2017-04-05T09:47:24Z</time>
      </trkpt>
      <trkpt lat="45.98621" lon="4.83204">
        <ele>267</ele>
        <time>2017-04-05T09:47:25Z</time>
      </trkpt>
      <trkpt lat="45.98624" lon="4.832">
        <ele>267</ele>
        <time>2017-04-05T09:47:26Z</time>
      </trkpt>
      <trkpt lat="45.98628" lon="4.83196">
        <ele>267</ele>
        <time>2017-04-05T09:47:27Z</time>
      </trkpt>
      <trkpt lat="45.98632" lon="4.83192">
        <ele>267</ele>
        <time>2017-04-05T09:47:28Z</time>
      </trkpt>
      <trkpt lat="45.98637" lon="4.83187">
        <ele>267</ele>
        <time>2017-04-05T09:47:29Z</time>
      </trkpt>
      <trkpt lat="45.98641" lon="4.83183">
        <ele>267</ele>
        <time>2017-04-05T09:47:30Z</time>
      </trkpt>
      <trkpt lat="45.98646" lon="4.83178">
        <ele>267</ele>
        <time>2017-04-05T09:47:31Z</time>
      </trkpt>
      <trkpt lat="45.98651" lon="4.83174">
        <ele>267</ele>
        <time>2017-04-05T09:47:32Z</time>
      </trkpt>
      <trkpt lat="45.98655" lon="4.8317">
        <ele>266</ele>
        <time>2017-04-05T09:47:33Z</time>
      </trkpt>
      <trkpt lat="45.98659" lon="4.83167">
        <ele>266</ele>
        <time>2017-04-05T09:47:34Z</time>
      </trkpt>
      <trkpt lat="45.98664" lon="4.83164">
        <ele>266</ele>
        <time>2017-04-05T09:47:35Z</time>
      </trkpt>
      <trkpt lat="45.98668" lon="4.83161">
        <ele>266</ele>
        <time>2017-04-05T09:47:36Z</time>
      </trkpt>
      <trkpt lat="45.98672" lon="4.83158">
        <ele>266</ele>
        <time>2017-04-05T09:47:37Z</time>
      </trkpt>
      <trkpt lat="45.98677" lon="4.83154">
        <ele>266</ele>
        <time>2017-04-05T09:47:38Z</time>
      </trkpt>
      <trkpt lat="45.98681" lon="4.8315">
        <ele>266</ele>
        <time>2017-04-05T09:47:39Z</time>
      </trkpt>
      <trkpt lat="45.98686" lon="4.83147">
        <ele>266</ele>
        <time>2017-04-05T09:47:40Z</time>
      </trkpt>
      <trkpt lat="45.98691" lon="4.83142">
        <ele>266</ele>
        <time>2017-04-05T09:47:41Z</time>
      </trkpt>
      <trkpt lat="45.98696" lon="4.83138">
        <ele>266</ele>
        <time>2017-04-05T09:47:42Z</time>
      </trkpt>
      <trkpt lat="45.98701" lon="4.83134">
        <ele>266</ele>
        <time>2017-04-05T09:47:43Z</time>
      </trkpt>
      <trkpt lat="45.98706" lon="4.8313">
        <ele>266</ele>
        <time>2017-04-05T09:47:44Z</time>
      </trkpt>
      <trkpt lat="45.98712" lon="4.83126">
        <ele>266</ele>
        <time>2017-04-05T09:47:45Z</time>
      </trkpt>
      <trkpt lat="45.98716" lon="4.83123">
        <ele>266</ele>
        <time>2017-04-05T09:47:46Z</time>
      </trkpt>
      <trkpt lat="45.98721" lon="4.83119">
        <ele>267</ele>
        <time>2017-04-05T09:47:47Z</time>
      </trkpt>
      <trkpt lat="45.98725" lon="4.83115">
        <ele>267</ele>
        <time>2017-04-05T09:47:48Z</time>
      </trkpt>
      <trkpt lat="45.98729" lon="4.83112">
        <ele>267</ele>
        <time>2017-04-05T09:47:49Z</time>
      </trkpt>
      <trkpt lat="45.98733" lon="4.83108">
        <ele>267</ele>
        <time>2017-04-05T09:47:50Z</time>
      </trkpt>
      <trkpt lat="45.98738" lon="4.83105">
        <ele>267</ele>
        <time>2017-04-05T09:47:51Z</time>
      </trkpt>
      <trkpt lat="45.98742" lon="4.83102">
        <ele>267</ele>
        <time>2017-04-05T09:47:52Z</time>
      </trkpt>
      <trkpt lat="45.98746" lon="4.83098">
        <ele>267</ele>
        <time>2017-04-05T09:47:53Z</time>
      </trkpt>
      <trkpt lat="45.9875" lon="4.83095">
        <ele>267</ele>
        <time>2017-04-05T09:47:54Z</time>
      </trkpt>
      <trkpt lat="45.98754" lon="4.83091">
        <ele>266</ele>
        <time>2017-04-05T09:47:55Z</time>
      </trkpt>
      <trkpt lat="45.98758" lon="4.83087">
        <ele>266</ele>
        <time>2017-04-05T09:47:56Z</time>
      </trkpt>
      <trkpt lat="45.98763" lon="4.83083">
        <ele>266</ele>
        <time>2017-04-05T09:47:57Z</time>
      </trkpt>
      <trkpt lat="45.98767" lon="4.83079">
        <ele>266</ele>
        <time>2017-04-05T09:47:58Z</time>
      </trkpt>
      <trkpt lat="45.98772" lon="4.83075">
        <ele>265</ele>
        <time>2017-04-05T09:47:59Z</time>
      </trkpt>
      <trkpt lat="45.98776" lon="4.83071">
        <ele>265</ele>
        <time>2017-04-05T09:48:00Z</time>
      </trkpt>
      <trkpt lat="45.98781" lon="4.83067">
        <ele>265</ele>
        <time>2017-04-05T09:48:01Z</time>
      </trkpt>
      <trkpt lat="45.98786" lon="4.83063">
        <ele>265</ele>
        <time>2017-04-05T09:48:02Z</time>
      </trkpt>
      <trkpt lat="45.98791" lon="4.83059">
        <ele>265</ele>
        <time>2017-04-05T09:48:03Z</time>
      </trkpt>
      <trkpt lat="45.98796" lon="4.83055">
        <ele>264</ele>
        <time>2017-04-05T09:48:04Z</time>
      </trkpt>
      <trkpt lat="45.988" lon="4.8305">
        <ele>264</ele>
        <time>2017-04-05T09:48:05Z</time>
      </trkpt>
      <trkpt lat="45.98805" lon="4.83046">
        <ele>264</ele>
        <time>2017-04-05T09:48:06Z</time>
      </trkpt>
      <trkpt lat="45.9881" lon="4.83042">
        <ele>264</ele>
        <time>2017-04-05T09:48:07Z</time>
      </trkpt>
      <trkpt lat="45.98816" lon="4.83037">
        <ele>264</ele>
        <time>2017-04-05T09:48:08Z</time>
      </trkpt>
      <trkpt lat="45.98821" lon="4.83033">
        <ele>264</ele>
        <time>2017-04-05T09:48:09Z</time>
      </trkpt>
      <trkpt lat="45.98826" lon="4.83029">
        <ele>264</ele>
        <time>2017-04-05T09:48:10Z</time>
      </trkpt>
      <trkpt lat="45.98831" lon="4.83024">
        <ele>264</ele>
        <time>2017-04-05T09:48:11Z</time>
      </trkpt>
      <trkpt lat="45.98836" lon="4.8302">
        <ele>261</ele>
        <time>2017-04-05T09:48:12Z</time>
      </trkpt>
      <trkpt lat="45.98842" lon="4.83016">
        <ele>261</ele>
        <time>2017-04-05T09:48:13Z</time>
      </trkpt>
      <trkpt lat="45.98847" lon="4.83012">
        <ele>261</ele>
        <time>2017-04-05T09:48:14Z</time>
      </trkpt>
      <trkpt lat="45.98852" lon="4.83008">
        <ele>261</ele>
        <time>2017-04-05T09:48:15Z</time>
      </trkpt>
      <trkpt lat="45.98858" lon="4.83004">
        <ele>261</ele>
        <time>2017-04-05T09:48:16Z</time>
      </trkpt>
      <trkpt lat="45.98864" lon="4.82999">
        <ele>260</ele>
        <time>2017-04-05T09:48:17Z</time>
      </trkpt>
      <trkpt lat="45.9887" lon="4.82995">
        <ele>260</ele>
        <time>2017-04-05T09:48:18Z</time>
      </trkpt>
      <trkpt lat="45.98876" lon="4.8299">
        <ele>260</ele>
        <time>2017-04-05T09:48:19Z</time>
      </trkpt>
      <trkpt lat="45.98882" lon="4.82985">
        <ele>259</ele>
        <time>2017-04-05T09:48:20Z</time>
      </trkpt>
      <trkpt lat="45.98888" lon="4.8298">
        <ele>259</ele>
        <time>2017-04-05T09:48:21Z</time>
      </trkpt>
      <trkpt lat="45.98895" lon="4.82976">
        <ele>259</ele>
        <time>2017-04-05T09:48:22Z</time>
      </trkpt>
      <trkpt lat="45.98902" lon="4.8297">
        <ele>259</ele>
        <time>2017-04-05T09:48:23Z</time>
      </trkpt>
      <trkpt lat="45.98908" lon="4.82963">
        <ele>259</ele>
        <time>2017-04-05T09:48:24Z</time>
      </trkpt>
      <trkpt lat="45.98914" lon="4.82955">
        <ele>258</ele>
        <time>2017-04-05T09:48:25Z</time>
      </trkpt>
      <trkpt lat="45.98919" lon="4.82945">
        <ele>255</ele>
        <time>2017-04-05T09:48:26Z</time>
      </trkpt>
      <trkpt lat="45.98924" lon="4.82934">
        <ele>255</ele>
        <time>2017-04-05T09:48:27Z</time>
      </trkpt>
      <trkpt lat="45.98928" lon="4.82923">
        <ele>255</ele>
        <time>2017-04-05T09:48:28Z</time>
      </trkpt>
      <trkpt lat="45.98933" lon="4.82912">
        <ele>254</ele>
        <time>2017-04-05T09:48:29Z</time>
      </trkpt>
      <trkpt lat="45.98938" lon="4.82901">
        <ele>253</ele>
        <time>2017-04-05T09:48:30Z</time>
      </trkpt>
      <trkpt lat="45.98943" lon="4.8289">
        <ele>253</ele>
        <time>2017-04-05T09:48:31Z</time>
      </trkpt>
      <trkpt lat="45.98948" lon="4.82878">
        <ele>253</ele>
        <time>2017-04-05T09:48:32Z</time>
      </trkpt>
      <trkpt lat="45.98953" lon="4.82866">
        <ele>252</ele>
        <time>2017-04-05T09:48:33Z</time>
      </trkpt>
      <trkpt lat="45.98959" lon="4.82853">
        <ele>252</ele>
        <time>2017-04-05T09:48:34Z</time>
      </trkpt>
      <trkpt lat="45.98964" lon="4.82841">
        <ele>252</ele>
        <time>2017-04-05T09:48:35Z</time>
      </trkpt>
      <trkpt lat="45.9897" lon="4.82828">
        <ele>249</ele>
        <time>2017-04-05T09:48:36Z</time>
      </trkpt>
      <trkpt lat="45.98976" lon="4.82815">
        <ele>248</ele>
        <time>2017-04-05T09:48:37Z</time>
      </trkpt>
      <trkpt lat="45.98982" lon="4.82801">
        <ele>248</ele>
        <time>2017-04-05T09:48:38Z</time>
      </trkpt>
      <trkpt lat="45.98987" lon="4.82788">
        <ele>247</ele>
        <time>2017-04-05T09:48:39Z</time>
      </trkpt>
      <trkpt lat="45.98993" lon="4.82775">
        <ele>246</ele>
        <time>2017-04-05T09:48:40Z</time>
      </trkpt>
      <trkpt lat="45.98998" lon="4.82761">
        <ele>244</ele>
        <time>2017-04-05T09:48:41Z</time>
      </trkpt>
      <trkpt lat="45.99004" lon="4.82747">
        <ele>240</ele>
        <time>2017-04-05T09:48:42Z</time>
      </trkpt>
      <trkpt lat="45.9901" lon="4.82734">
        <ele>239</ele>
        <time>2017-04-05T09:48:43Z</time>
      </trkpt>
      <trkpt lat="45.99016" lon="4.8272">
        <ele>239</ele>
        <time>2017-04-05T09:48:44Z</time>
      </trkpt>
      <trkpt lat="45.99022" lon="4.82706">
        <ele>238</ele>
        <time>2017-04-05T09:48:45Z</time>
      </trkpt>
      <trkpt lat="45.99028" lon="4.82692">
        <ele>238</ele>
        <time>2017-04-05T09:48:46Z</time>
      </trkpt>
      <trkpt lat="45.99034" lon="4.82679">
        <ele>238</ele>
        <time>2017-04-05T09:48:47Z</time>
      </trkpt>
      <trkpt lat="45.99041" lon="4.82666">
        <ele>236</ele>
        <time>2017-04-05T09:48:48Z</time>
      </trkpt>
      <trkpt lat="45.99046" lon="4.82653">
        <ele>236</ele>
        <time>2017-04-05T09:48:49Z</time>
      </trkpt>
      <trkpt lat="45.99052" lon="4.82641">
        <ele>236</ele>
        <time>2017-04-05T09:48:50Z</time>
      </trkpt>
      <trkpt lat="45.99057" lon="4.82629">
        <ele>236</ele>
        <time>2017-04-05T09:48:51Z</time>
      </trkpt>
      <trkpt lat="45.99062" lon="4.82618">
        <ele>236</ele>
        <time>2017-04-05T09:48:52Z</time>
      </trkpt>
      <trkpt lat="45.99066" lon="4.82608">
        <ele>236</ele>
        <time>2017-04-05T09:48:53Z</time>
      </trkpt>
      <trkpt lat="45.99069" lon="4.82599">
        <ele>235</ele>
        <time>2017-04-05T09:48:54Z</time>
      </trkpt>
      <trkpt lat="45.99072" lon="4.82592">
        <ele>235</ele>
        <time>2017-04-05T09:48:55Z</time>
      </trkpt>
      <trkpt lat="45.99074" lon="4.82584">
        <ele>235</ele>
        <time>2017-04-05T09:48:56Z</time>
      </trkpt>
      <trkpt lat="45.99074" lon="4.82578">
        <ele>235</ele>
        <time>2017-04-05T09:48:57Z</time>
      </trkpt>
      <trkpt lat="45.9907" lon="4.82567">
        <ele>235</ele>
        <time>2017-04-05T09:48:59Z</time>
      </trkpt>
      <trkpt lat="45.99066" lon="4.82564">
        <ele>235</ele>
        <time>2017-04-05T09:49:00Z</time>
      </trkpt>
      <trkpt lat="45.99061" lon="4.82563">
        <ele>235</ele>
        <time>2017-04-05T09:49:01Z</time>
      </trkpt>
      <trkpt lat="45.99057" lon="4.82563">
        <ele>235</ele>
        <time>2017-04-05T09:49:02Z</time>
      </trkpt>
      <trkpt lat="45.99048" lon="4.82561">
        <ele>235</ele>
        <time>2017-04-05T09:49:04Z</time>
      </trkpt>
      <trkpt lat="45.99044" lon="4.8256">
        <ele>235</ele>
        <time>2017-04-05T09:49:05Z</time>
      </trkpt>
      <trkpt lat="45.99036" lon="4.82555">
        <ele>235</ele>
        <time>2017-04-05T09:49:07Z</time>
      </trkpt>
      <trkpt lat="45.99032" lon="4.82551">
        <ele>235</ele>
        <time>2017-04-05T09:49:08Z</time>
      </trkpt>
      <trkpt lat="45.99028" lon="4.82546">
        <ele>235</ele>
        <time>2017-04-05T09:49:09Z</time>
      </trkpt>
      <trkpt lat="45.99025" lon="4.82541">
        <ele>235</ele>
        <time>2017-04-05T09:49:10Z</time>
      </trkpt>
      <trkpt lat="45.9902" lon="4.82536">
        <ele>235</ele>
        <time>2017-04-05T09:49:11Z</time>
      </trkpt>
      <trkpt lat="45.99017" lon="4.82531">
        <ele>235</ele>
        <time>2017-04-05T09:49:12Z</time>
      </trkpt>
      <trkpt lat="45.99012" lon="4.82526">
        <ele>235</ele>
        <time>2017-04-05T09:49:13Z</time>
      </trkpt>
      <trkpt lat="45.99009" lon="4.8252">
        <ele>235</ele>
        <time>2017-04-05T09:49:14Z</time>
      </trkpt>
      <trkpt lat="45.99006" lon="4.82514">
        <ele>235</ele>
        <time>2017-04-05T09:49:15Z</time>
      </trkpt>
      <trkpt lat="45.99003" lon="4.82509">
        <ele>235</ele>
        <time>2017-04-05T09:49:16Z</time>
      </trkpt>
      <trkpt lat="45.99001" lon="4.82503">
        <ele>235</ele>
        <time>2017-04-05T09:49:17Z</time>
      </trkpt>
      <trkpt lat="45.98999" lon="4.82497">
        <ele>235</ele>
        <time>2017-04-05T09:49:18Z</time>
      </trkpt>
      <trkpt lat="45.98996" lon="4.82492">
        <ele>236</ele>
        <time>2017-04-05T09:49:19Z</time>
      </trkpt>
      <trkpt lat="45.98993" lon="4.82487">
        <ele>236</ele>
        <time>2017-04-05T09:49:20Z</time>
      </trkpt>
      <trkpt lat="45.98991" lon="4.82481">
        <ele>236</ele>
        <time>2017-04-05T09:49:21Z</time>
      </trkpt>
      <trkpt lat="45.98989" lon="4.82475">
        <ele>236</ele>
        <time>2017-04-05T09:49:22Z</time>
      </trkpt>
      <trkpt lat="45.98987" lon="4.82469">
        <ele>236</ele>
        <time>2017-04-05T09:49:23Z</time>
      </trkpt>
      <trkpt lat="45.98984" lon="4.82462">
        <ele>236</ele>
        <time>2017-04-05T09:49:24Z</time>
      </trkpt>
      <trkpt lat="45.98982" lon="4.82456">
        <ele>236</ele>
        <time>2017-04-05T09:49:25Z</time>
      </trkpt>
      <trkpt lat="45.9898" lon="4.8245">
        <ele>236</ele>
        <time>2017-04-05T09:49:26Z</time>
      </trkpt>
      <trkpt lat="45.98977" lon="4.82444">
        <ele>236</ele>
        <time>2017-04-05T09:49:27Z</time>
      </trkpt>
      <trkpt lat="45.98976" lon="4.82437">
        <ele>236</ele>
        <time>2017-04-05T09:49:28Z</time>
      </trkpt>
      <trkpt lat="45.98974" lon="4.8243">
        <ele>236</ele>
        <time>2017-04-05T09:49:29Z</time>
      </trkpt>
      <trkpt lat="45.98972" lon="4.82423">
        <ele>236</ele>
        <time>2017-04-05T09:49:30Z</time>
      </trkpt>
      <trkpt lat="45.98971" lon="4.82417">
        <ele>236</ele>
        <time>2017-04-05T09:49:31Z</time>
      </trkpt>
      <trkpt lat="45.98969" lon="4.82411">
        <ele>235</ele>
        <time>2017-04-05T09:49:32Z</time>
      </trkpt>
      <trkpt lat="45.98967" lon="4.82399">
        <ele>235</ele>
        <time>2017-04-05T09:49:34Z</time>
      </trkpt>
      <trkpt lat="45.98966" lon="4.82393">
        <ele>235</ele>
        <time>2017-04-05T09:49:35Z</time>
      </trkpt>
      <trkpt lat="45.98964" lon="4.82386">
        <ele>235</ele>
        <time>2017-04-05T09:49:36Z</time>
      </trkpt>
      <trkpt lat="45.98963" lon="4.82379">
        <ele>235</ele>
        <time>2017-04-05T09:49:37Z</time>
      </trkpt>
      <trkpt lat="45.98961" lon="4.82371">
        <ele>235</ele>
        <time>2017-04-05T09:49:38Z</time>
      </trkpt>
      <trkpt lat="45.98959" lon="4.82364">
        <ele>235</ele>
        <time>2017-04-05T09:49:39Z</time>
      </trkpt>
      <trkpt lat="45.98957" lon="4.82357">
        <ele>235</ele>
        <time>2017-04-05T09:49:40Z</time>
      </trkpt>
      <trkpt lat="45.98954" lon="4.8235">
        <ele>235</ele>
        <time>2017-04-05T09:49:41Z</time>
      </trkpt>
      <trkpt lat="45.98951" lon="4.82343">
        <ele>235</ele>
        <time>2017-04-05T09:49:42Z</time>
      </trkpt>
      <trkpt lat="45.98948" lon="4.82336">
        <ele>235</ele>
        <time>2017-04-05T09:49:43Z</time>
      </trkpt>
      <trkpt lat="45.98944" lon="4.8233">
        <ele>234</ele>
        <time>2017-04-05T09:49:44Z</time>
      </trkpt>
      <trkpt lat="45.98941" lon="4.82325">
        <ele>234</ele>
        <time>2017-04-05T09:49:45Z</time>
      </trkpt>
      <trkpt lat="45.98938" lon="4.8232">
        <ele>234</ele>
        <time>2017-04-05T09:49:46Z</time>
      </trkpt>
      <trkpt lat="45.98934" lon="4.82315">
        <ele>234</ele>
        <time>2017-04-05T09:49:47Z</time>
      </trkpt>
      <trkpt lat="45.98927" lon="4.82306">
        <ele>234</ele>
        <time>2017-04-05T09:49:49Z</time>
      </trkpt>
      <trkpt lat="45.98924" lon="4.82302">
        <ele>234</ele>
        <time>2017-04-05T09:49:50Z</time>
      </trkpt>
      <trkpt lat="45.98918" lon="4.82294">
        <ele>234</ele>
        <time>2017-04-05T09:49:52Z</time>
      </trkpt>
      <trkpt lat="45.98914" lon="4.82291">
        <ele>236</ele>
        <time>2017-04-05T09:49:53Z</time>
      </trkpt>
      <trkpt lat="45.9891" lon="4.82287">
        <ele>236</ele>
        <time>2017-04-05T09:49:54Z</time>
      </trkpt>
      <trkpt lat="45.98907" lon="4.82283">
        <ele>236</ele>
        <time>2017-04-05T09:49:55Z</time>
      </trkpt>
      <trkpt lat="45.98903" lon="4.82278">
        <ele>236</ele>
        <time>2017-04-05T09:49:56Z</time>
      </trkpt>
      <trkpt lat="45.98899" lon="4.82272">
        <ele>236</ele>
        <time>2017-04-05T09:49:57Z</time>
      </trkpt>
      <trkpt lat="45.98895" lon="4.82267">
        <ele>236</ele>
        <time>2017-04-05T09:49:58Z</time>
      </trkpt>
      <trkpt lat="45.98892" lon="4.82262">
        <ele>236</ele>
        <time>2017-04-05T09:49:59Z</time>
      </trkpt>
      <trkpt lat="45.98889" lon="4.82256">
        <ele>236</ele>
        <time>2017-04-05T09:50:00Z</time>
      </trkpt>
      <trkpt lat="45.98886" lon="4.8225">
        <ele>235</ele>
        <time>2017-04-05T09:50:01Z</time>
      </trkpt>
      <trkpt lat="45.98883" lon="4.82244">
        <ele>236</ele>
        <time>2017-04-05T09:50:02Z</time>
      </trkpt>
      <trkpt lat="45.9888" lon="4.82238">
        <ele>236</ele>
        <time>2017-04-05T09:50:03Z</time>
      </trkpt>
      <trkpt lat="45.98877" lon="4.82231">
        <ele>236</ele>
        <time>2017-04-05T09:50:04Z</time>
      </trkpt>
      <trkpt lat="45.98874" lon="4.82225">
        <ele>236</ele>
        <time>2017-04-05T09:50:05Z</time>
      </trkpt>
      <trkpt lat="45.98871" lon="4.82218">
        <ele>236</ele>
        <time>2017-04-05T09:50:06Z</time>
      </trkpt>
      <trkpt lat="45.98868" lon="4.82211">
        <ele>236</ele>
        <time>2017-04-05T09:50:07Z</time>
      </trkpt>
      <trkpt lat="45.98865" lon="4.82203">
        <ele>236</ele>
        <time>2017-04-05T09:50:08Z</time>
      </trkpt>
      <trkpt lat="45.98862" lon="4.82196">
        <ele>236</ele>
        <time>2017-04-05T09:50:09Z</time>
      </trkpt>
      <trkpt lat="45.98859" lon="4.82189">
        <ele>236</ele>
        <time>2017-04-05T09:50:10Z</time>
      </trkpt>
      <trkpt lat="45.98856" lon="4.82181">
        <ele>236</ele>
        <time>2017-04-05T09:50:11Z</time>
      </trkpt>
      <trkpt lat="45.98853" lon="4.82174">
        <ele>236</ele>
        <time>2017-04-05T09:50:12Z</time>
      </trkpt>
      <trkpt lat="45.9885" lon="4.82166">
        <ele>236</ele>
        <time>2017-04-05T09:50:13Z</time>
      </trkpt>
      <trkpt lat="45.98848" lon="4.82158">
        <ele>236</ele>
        <time>2017-04-05T09:50:14Z</time>
      </trkpt>
      <trkpt lat="45.98846" lon="4.82151">
        <ele>236</ele>
        <time>2017-04-05T09:50:15Z</time>
      </trkpt>
      <trkpt lat="45.98844" lon="4.82143">
        <ele>236</ele>
        <time>2017-04-05T09:50:16Z</time>
      </trkpt>
      <trkpt lat="45.98843" lon="4.82135">
        <ele>236</ele>
        <time>2017-04-05T09:50:17Z</time>
      </trkpt>
      <trkpt lat="45.98841" lon="4.82127">
        <ele>236</ele>
        <time>2017-04-05T09:50:18Z</time>
      </trkpt>
      <trkpt lat="45.98839" lon="4.82119">
        <ele>235</ele>
        <time>2017-04-05T09:50:19Z</time>
      </trkpt>
      <trkpt lat="45.98837" lon="4.82111">
        <ele>235</ele>
        <time>2017-04-05T09:50:20Z</time>
      </trkpt>
      <trkpt lat="45.98836" lon="4.82102">
        <ele>236</ele>
        <time>2017-04-05T09:50:21Z</time>
      </trkpt>
      <trkpt lat="45.98835" lon="4.82095">
        <ele>236</ele>
        <time>2017-04-05T09:50:22Z</time>
      </trkpt>
      <trkpt lat="45.98833" lon="4.82087">
        <ele>236</ele>
        <time>2017-04-05T09:50:23Z</time>
      </trkpt>
      <trkpt lat="45.98832" lon="4.82079">
        <ele>236</ele>
        <time>2017-04-05T09:50:24Z</time>
      </trkpt>
      <trkpt lat="45.98831" lon="4.82071">
        <ele>237</ele>
        <time>2017-04-05T09:50:25Z</time>
      </trkpt>
      <trkpt lat="45.9883" lon="4.82063">
        <ele>237</ele>
        <time>2017-04-05T09:50:26Z</time>
      </trkpt>
      <trkpt lat="45.98829" lon="4.82055">
        <ele>237</ele>
        <time>2017-04-05T09:50:27Z</time>
      </trkpt>
      <trkpt lat="45.98827" lon="4.82046">
        <ele>238</ele>
        <time>2017-04-05T09:50:28Z</time>
      </trkpt>
      <trkpt lat="45.98826" lon="4.82038">
        <ele>238</ele>
        <time>2017-04-05T09:50:29Z</time>
      </trkpt>
      <trkpt lat="45.98824" lon="4.8203">
        <ele>238</ele>
        <time>2017-04-05T09:50:30Z</time>
      </trkpt>
      <trkpt lat="45.98823" lon="4.82022">
        <ele>238</ele>
        <time>2017-04-05T09:50:31Z</time>
      </trkpt>
      <trkpt lat="45.98822" lon="4.82014">
        <ele>238</ele>
        <time>2017-04-05T09:50:32Z</time>
      </trkpt>
      <trkpt lat="45.9882" lon="4.82006">
        <ele>238</ele>
        <time>2017-04-05T09:50:33Z</time>
      </trkpt>
      <trkpt lat="45.9882" lon="4.81998">
        <ele>238</ele>
        <time>2017-04-05T09:50:34Z</time>
      </trkpt>
      <trkpt lat="45.98819" lon="4.8199">
        <ele>238</ele>
        <time>2017-04-05T09:50:35Z</time>
      </trkpt>
      <trkpt lat="45.98817" lon="4.81982">
        <ele>238</ele>
        <time>2017-04-05T09:50:36Z</time>
      </trkpt>
      <trkpt lat="45.98816" lon="4.81974">
        <ele>239</ele>
        <time>2017-04-05T09:50:37Z</time>
      </trkpt>
      <trkpt lat="45.98815" lon="4.81967">
        <ele>239</ele>
        <time>2017-04-05T09:50:38Z</time>
      </trkpt>
      <trkpt lat="45.98813" lon="4.8196">
        <ele>239</ele>
        <time>2017-04-05T09:50:39Z</time>
      </trkpt>
      <trkpt lat="45.98812" lon="4.81952">
        <ele>239</ele>
        <time>2017-04-05T09:50:40Z</time>
      </trkpt>
      <trkpt lat="45.98811" lon="4.81944">
        <ele>239</ele>
        <time>2017-04-05T09:50:41Z</time>
      </trkpt>
      <trkpt lat="45.9881" lon="4.81936">
        <ele>239</ele>
        <time>2017-04-05T09:50:42Z</time>
      </trkpt>
      <trkpt lat="45.98809" lon="4.81928">
        <ele>239</ele>
        <time>2017-04-05T09:50:43Z</time>
      </trkpt>
      <trkpt lat="45.98808" lon="4.8192">
        <ele>239</ele>
        <time>2017-04-05T09:50:44Z</time>
      </trkpt>
      <trkpt lat="45.98807" lon="4.81912">
        <ele>239</ele>
        <time>2017-04-05T09:50:45Z</time>
      </trkpt>
      <trkpt lat="45.98806" lon="4.81904">
        <ele>239</ele>
        <time>2017-04-05T09:50:46Z</time>
      </trkpt>
      <trkpt lat="45.98804" lon="4.81896">
        <ele>239</ele>
        <time>2017-04-05T09:50:47Z</time>
      </trkpt>
      <trkpt lat="45.98802" lon="4.81888">
        <ele>239</ele>
        <time>2017-04-05T09:50:48Z</time>
      </trkpt>
      <trkpt lat="45.98799" lon="4.8188">
        <ele>239</ele>
        <time>2017-04-05T09:50:49Z</time>
      </trkpt>
      <trkpt lat="45.98796" lon="4.81872">
        <ele>239</ele>
        <time>2017-04-05T09:50:50Z</time>
      </trkpt>
      <trkpt lat="45.98794" lon="4.81864">
        <ele>239</ele>
        <time>2017-04-05T09:50:51Z</time>
      </trkpt>
      <trkpt lat="45.98791" lon="4.81857">
        <ele>239</ele>
        <time>2017-04-05T09:50:52Z</time>
      </trkpt>
      <trkpt lat="45.98788" lon="4.81851">
        <ele>239</ele>
        <time>2017-04-05T09:50:53Z</time>
      </trkpt>
      <trkpt lat="45.98785" lon="4.81844">
        <ele>239</ele>
        <time>2017-04-05T09:50:54Z</time>
      </trkpt>
      <trkpt lat="45.98782" lon="4.81837">
        <ele>239</ele>
        <time>2017-04-05T09:50:55Z</time>
      </trkpt>
      <trkpt lat="45.98779" lon="4.81831">
        <ele>240</ele>
        <time>2017-04-05T09:50:56Z</time>
      </trkpt>
      <trkpt lat="45.98776" lon="4.81825">
        <ele>240</ele>
        <time>2017-04-05T09:50:57Z</time>
      </trkpt>
      <trkpt lat="45.98773" lon="4.81819">
        <ele>240</ele>
        <time>2017-04-05T09:50:58Z</time>
      </trkpt>
      <trkpt lat="45.98769" lon="4.81812">
        <ele>240</ele>
        <time>2017-04-05T09:50:59Z</time>
      </trkpt>
      <trkpt lat="45.98767" lon="4.81806">
        <ele>240</ele>
        <time>2017-04-05T09:51:00Z</time>
      </trkpt>
      <trkpt lat="45.98764" lon="4.81799">
        <ele>240</ele>
        <time>2017-04-05T09:51:01Z</time>
      </trkpt>
      <trkpt lat="45.98761" lon="4.81794">
        <ele>240</ele>
        <time>2017-04-05T09:51:02Z</time>
      </trkpt>
      <trkpt lat="45.98758" lon="4.81789">
        <ele>241</ele>
        <time>2017-04-05T09:51:03Z</time>
      </trkpt>
      <trkpt lat="45.98754" lon="4.81783">
        <ele>241</ele>
        <time>2017-04-05T09:51:04Z</time>
      </trkpt>
      <trkpt lat="45.98751" lon="4.81779">
        <ele>241</ele>
        <time>2017-04-05T09:51:05Z</time>
      </trkpt>
      <trkpt lat="45.98748" lon="4.81774">
        <ele>240</ele>
        <time>2017-04-05T09:51:06Z</time>
      </trkpt>
      <trkpt lat="45.98745" lon="4.81769">
        <ele>240</ele>
        <time>2017-04-05T09:51:07Z</time>
      </trkpt>
      <trkpt lat="45.98742" lon="4.81764">
        <ele>240</ele>
        <time>2017-04-05T09:51:08Z</time>
      </trkpt>
      <trkpt lat="45.98739" lon="4.81759">
        <ele>240</ele>
        <time>2017-04-05T09:51:09Z</time>
      </trkpt>
      <trkpt lat="45.98735" lon="4.81754">
        <ele>240</ele>
        <time>2017-04-05T09:51:10Z</time>
      </trkpt>
      <trkpt lat="45.98732" lon="4.81749">
        <ele>240</ele>
        <time>2017-04-05T09:51:11Z</time>
      </trkpt>
      <trkpt lat="45.98729" lon="4.81743">
        <ele>240</ele>
        <time>2017-04-05T09:51:12Z</time>
      </trkpt>
      <trkpt lat="45.98725" lon="4.81738">
        <ele>239</ele>
        <time>2017-04-05T09:51:13Z</time>
      </trkpt>
      <trkpt lat="45.98721" lon="4.81734">
        <ele>239</ele>
        <time>2017-04-05T09:51:14Z</time>
      </trkpt>
      <trkpt lat="45.98716" lon="4.81732">
        <ele>239</ele>
        <time>2017-04-05T09:51:15Z</time>
      </trkpt>
      <trkpt lat="45.9871" lon="4.81732">
        <ele>239</ele>
        <time>2017-04-05T09:51:16Z</time>
      </trkpt>
      <trkpt lat="45.98705" lon="4.81733">
        <ele>239</ele>
        <time>2017-04-05T09:51:17Z</time>
      </trkpt>
      <trkpt lat="45.98699" lon="4.81733">
        <ele>239</ele>
        <time>2017-04-05T09:51:18Z</time>
      </trkpt>
      <trkpt lat="45.98694" lon="4.81734">
        <ele>238</ele>
        <time>2017-04-05T09:51:19Z</time>
      </trkpt>
      <trkpt lat="45.98686" lon="4.81736">
        <ele>238</ele>
        <time>2017-04-05T09:51:21Z</time>
      </trkpt>
      <trkpt lat="45.98681" lon="4.81737">
        <ele>238</ele>
        <time>2017-04-05T09:51:22Z</time>
      </trkpt>
      <trkpt lat="45.98673" lon="4.8174">
        <ele>238</ele>
        <time>2017-04-05T09:51:24Z</time>
      </trkpt>
      <trkpt lat="45.98668" lon="4.81741">
        <ele>238</ele>
        <time>2017-04-05T09:51:25Z</time>
      </trkpt>
      <trkpt lat="45.98663" lon="4.81742">
        <ele>238</ele>
        <time>2017-04-05T09:51:26Z</time>
      </trkpt>
      <trkpt lat="45.98657" lon="4.81744">
        <ele>237</ele>
        <time>2017-04-05T09:51:27Z</time>
      </trkpt>
      <trkpt lat="45.98652" lon="4.81745">
        <ele>237</ele>
        <time>2017-04-05T09:51:28Z</time>
      </trkpt>
      <trkpt lat="45.98646" lon="4.81746">
        <ele>237</ele>
        <time>2017-04-05T09:51:29Z</time>
      </trkpt>
      <trkpt lat="45.9864" lon="4.81747">
        <ele>237</ele>
        <time>2017-04-05T09:51:30Z</time>
      </trkpt>
      <trkpt lat="45.98635" lon="4.81748">
        <ele>237</ele>
        <time>2017-04-05T09:51:31Z</time>
      </trkpt>
      <trkpt lat="45.9863" lon="4.8175">
        <ele>238</ele>
        <time>2017-04-05T09:51:32Z</time>
      </trkpt>
      <trkpt lat="45.98624" lon="4.81752">
        <ele>238</ele>
        <time>2017-04-05T09:51:33Z</time>
      </trkpt>
      <trkpt lat="45.98618" lon="4.81754">
        <ele>238</ele>
        <time>2017-04-05T09:51:34Z</time>
      </trkpt>
      <trkpt lat="45.98612" lon="4.81757">
        <ele>238</ele>
        <time>2017-04-05T09:51:35Z</time>
      </trkpt>
      <trkpt lat="45.98607" lon="4.81759">
        <ele>238</ele>
        <time>2017-04-05T09:51:36Z</time>
      </trkpt>
      <trkpt lat="45.98602" lon="4.81761">
        <ele>238</ele>
        <time>2017-04-05T09:51:37Z</time>
      </trkpt>
      <trkpt lat="45.98596" lon="4.81764">
        <ele>238</ele>
        <time>2017-04-05T09:51:38Z</time>
      </trkpt>
      <trkpt lat="45.9859" lon="4.81769">
        <ele>238</ele>
        <time>2017-04-05T09:51:39Z</time>
      </trkpt>
      <trkpt lat="45.98584" lon="4.81774">
        <ele>238</ele>
        <time>2017-04-05T09:51:40Z</time>
      </trkpt>
      <trkpt lat="45.98579" lon="4.81781">
        <ele>238</ele>
        <time>2017-04-05T09:51:41Z</time>
      </trkpt>
      <trkpt lat="45.98575" lon="4.81788">
        <ele>238</ele>
        <time>2017-04-05T09:51:42Z</time>
      </trkpt>
      <trkpt lat="45.98569" lon="4.81794">
        <ele>238</ele>
        <time>2017-04-05T09:51:43Z</time>
      </trkpt>
      <trkpt lat="45.98564" lon="4.818">
        <ele>238</ele>
        <time>2017-04-05T09:51:44Z</time>
      </trkpt>
      <trkpt lat="45.98559" lon="4.81804">
        <ele>238</ele>
        <time>2017-04-05T09:51:45Z</time>
      </trkpt>
      <trkpt lat="45.98553" lon="4.81807">
        <ele>238</ele>
        <time>2017-04-05T09:51:46Z</time>
      </trkpt>
      <trkpt lat="45.98547" lon="4.81806">
        <ele>238</ele>
        <time>2017-04-05T09:51:47Z</time>
      </trkpt>
      <trkpt lat="45.98542" lon="4.81803">
        <ele>238</ele>
        <time>2017-04-05T09:51:48Z</time>
      </trkpt>
      <trkpt lat="45.98537" lon="4.81798">
        <ele>238</ele>
        <time>2017-04-05T09:51:49Z</time>
      </trkpt>
      <trkpt lat="45.98533" lon="4.81793">
        <ele>238</ele>
        <time>2017-04-05T09:51:50Z</time>
      </trkpt>
      <trkpt lat="45.98529" lon="4.81787">
        <ele>238</ele>
        <time>2017-04-05T09:51:51Z</time>
      </trkpt>
      <trkpt lat="45.98526" lon="4.81782">
        <ele>238</ele>
        <time>2017-04-05T09:51:52Z</time>
      </trkpt>
      <trkpt lat="45.98522" lon="4.81777">
        <ele>238</ele>
        <time>2017-04-05T09:51:53Z</time>
      </trkpt>
      <trkpt lat="45.98518" lon="4.81771">
        <ele>238</ele>
        <time>2017-04-05T09:51:54Z</time>
      </trkpt>
      <trkpt lat="45.98514" lon="4.81766">
        <ele>237</ele>
        <time>2017-04-05T09:51:55Z</time>
      </trkpt>
      <trkpt lat="45.98511" lon="4.8176">
        <ele>237</ele>
        <time>2017-04-05T09:51:56Z</time>
      </trkpt>
      <trkpt lat="45.98507" lon="4.81755">
        <ele>237</ele>
        <time>2017-04-05T09:51:57Z</time>
      </trkpt>
      <trkpt lat="45.98503" lon="4.81751">
        <ele>237</ele>
        <time>2017-04-05T09:51:58Z</time>
      </trkpt>
      <trkpt lat="45.98499" lon="4.81747">
        <ele>237</ele>
        <time>2017-04-05T09:51:59Z</time>
      </trkpt>
      <trkpt lat="45.98494" lon="4.81743">
        <ele>238</ele>
        <time>2017-04-05T09:52:00Z</time>
      </trkpt>
      <trkpt lat="45.9849" lon="4.81739">
        <ele>238</ele>
        <time>2017-04-05T09:52:01Z</time>
      </trkpt>
      <trkpt lat="45.98486" lon="4.81735">
        <ele>238</ele>
        <time>2017-04-05T09:52:02Z</time>
      </trkpt>
      <trkpt lat="45.98482" lon="4.81731">
        <ele>238</ele>
        <time>2017-04-05T09:52:03Z</time>
      </trkpt>
      <trkpt lat="45.98478" lon="4.81726">
        <ele>238</ele>
        <time>2017-04-05T09:52:04Z</time>
      </trkpt>
      <trkpt lat="45.98473" lon="4.81722">
        <ele>239</ele>
        <time>2017-04-05T09:52:05Z</time>
      </trkpt>
      <trkpt lat="45.98469" lon="4.81717">
        <ele>239</ele>
        <time>2017-04-05T09:52:06Z</time>
      </trkpt>
      <trkpt lat="45.98465" lon="4.81713">
        <ele>239</ele>
        <time>2017-04-05T09:52:07Z</time>
      </trkpt>
      <trkpt lat="45.98462" lon="4.81708">
        <ele>239</ele>
        <time>2017-04-05T09:52:08Z</time>
      </trkpt>
      <trkpt lat="45.98459" lon="4.81703">
        <ele>239</ele>
        <time>2017-04-05T09:52:09Z</time>
      </trkpt>
      <trkpt lat="45.98456" lon="4.81698">
        <ele>239</ele>
        <time>2017-04-05T09:52:10Z</time>
      </trkpt>
      <trkpt lat="45.98453" lon="4.81692">
        <ele>239</ele>
        <time>2017-04-05T09:52:11Z</time>
      </trkpt>
      <trkpt lat="45.9845" lon="4.81686">
        <ele>239</ele>
        <time>2017-04-05T09:52:12Z</time>
      </trkpt>
      <trkpt lat="45.98446" lon="4.8168">
        <ele>239</ele>
        <time>2017-04-05T09:52:13Z</time>
      </trkpt>
      <trkpt lat="45.98443" lon="4.81676">
        <ele>239</ele>
        <time>2017-04-05T09:52:14Z</time>
      </trkpt>
      <trkpt lat="45.98439" lon="4.81672">
        <ele>240</ele>
        <time>2017-04-05T09:52:15Z</time>
      </trkpt>
      <trkpt lat="45.98434" lon="4.81668">
        <ele>240</ele>
        <time>2017-04-05T09:52:16Z</time>
      </trkpt>
      <trkpt lat="45.9843" lon="4.81666">
        <ele>239</ele>
        <time>2017-04-05T09:52:17Z</time>
      </trkpt>
      <trkpt lat="45.98425" lon="4.81664">
        <ele>240</ele>
        <time>2017-04-05T09:52:18Z</time>
      </trkpt>
      <trkpt lat="45.98419" lon="4.81663">
        <ele>240</ele>
        <time>2017-04-05T09:52:19Z</time>
      </trkpt>
      <trkpt lat="45.98413" lon="4.81664">
        <ele>241</ele>
        <time>2017-04-05T09:52:20Z</time>
      </trkpt>
      <trkpt lat="45.98407" lon="4.81665">
        <ele>241</ele>
        <time>2017-04-05T09:52:21Z</time>
      </trkpt>
      <trkpt lat="45.98402" lon="4.81666">
        <ele>242</ele>
        <time>2017-04-05T09:52:22Z</time>
      </trkpt>
      <trkpt lat="45.98397" lon="4.81667">
        <ele>243</ele>
        <time>2017-04-05T09:52:23Z</time>
      </trkpt>
      <trkpt lat="45.98392" lon="4.81669">
        <ele>243</ele>
        <time>2017-04-05T09:52:24Z</time>
      </trkpt>
      <trkpt lat="45.98387" lon="4.8167">
        <ele>243</ele>
        <time>2017-04-05T09:52:25Z</time>
      </trkpt>
      <trkpt lat="45.98382" lon="4.81671">
        <ele>244</ele>
        <time>2017-04-05T09:52:26Z</time>
      </trkpt>
      <trkpt lat="45.98377" lon="4.81672">
        <ele>244</ele>
        <time>2017-04-05T09:52:27Z</time>
      </trkpt>
      <trkpt lat="45.98372" lon="4.81672">
        <ele>244</ele>
        <time>2017-04-05T09:52:28Z</time>
      </trkpt>
      <trkpt lat="45.98368" lon="4.81673">
        <ele>244</ele>
        <time>2017-04-05T09:52:29Z</time>
      </trkpt>
      <trkpt lat="45.98363" lon="4.81673">
        <ele>244</ele>
        <time>2017-04-05T09:52:30Z</time>
      </trkpt>
      <trkpt lat="45.98359" lon="4.81674">
        <ele>245</ele>
        <time>2017-04-05T09:52:31Z</time>
      </trkpt>
      <trkpt lat="45.9835" lon="4.81672">
        <ele>245</ele>
        <time>2017-04-05T09:52:33Z</time>
      </trkpt>
      <trkpt lat="45.98345" lon="4.81672">
        <ele>245</ele>
        <time>2017-04-05T09:52:34Z</time>
      </trkpt>
      <trkpt lat="45.98341" lon="4.81669">
        <ele>245</ele>
        <time>2017-04-05T09:52:35Z</time>
      </trkpt>
      <trkpt lat="45.98336" lon="4.81667">
        <ele>246</ele>
        <time>2017-04-05T09:52:36Z</time>
      </trkpt>
      <trkpt lat="45.98332" lon="4.81665">
        <ele>246</ele>
        <time>2017-04-05T09:52:37Z</time>
      </trkpt>
      <trkpt lat="45.98327" lon="4.81662">
        <ele>246</ele>
        <time>2017-04-05T09:52:38Z</time>
      </trkpt>
      <trkpt lat="45.98323" lon="4.81659">
        <ele>246</ele>
        <time>2017-04-05T09:52:39Z</time>
      </trkpt>
      <trkpt lat="45.98318" lon="4.81654">
        <ele>246</ele>
        <time>2017-04-05T09:52:40Z</time>
      </trkpt>
      <trkpt lat="45.98314" lon="4.8165">
        <ele>246</ele>
        <time>2017-04-05T09:52:41Z</time>
      </trkpt>
      <trkpt lat="45.98309" lon="4.81646">
        <ele>246</ele>
        <time>2017-04-05T09:52:42Z</time>
      </trkpt>
      <trkpt lat="45.98304" lon="4.81641">
        <ele>246</ele>
        <time>2017-04-05T09:52:43Z</time>
      </trkpt>
      <trkpt lat="45.983" lon="4.81637">
        <ele>246</ele>
        <time>2017-04-05T09:52:44Z</time>
      </trkpt>
      <trkpt lat="45.98296" lon="4.81632">
        <ele>246</ele>
        <time>2017-04-05T09:52:45Z</time>
      </trkpt>
      <trkpt lat="45.98292" lon="4.81628">
        <ele>247</ele>
        <time>2017-04-05T09:52:46Z</time>
      </trkpt>
      <trkpt lat="45.98288" lon="4.81624">
        <ele>247</ele>
        <time>2017-04-05T09:52:47Z</time>
      </trkpt>
      <trkpt lat="45.98285" lon="4.81619">
        <ele>247</ele>
        <time>2017-04-05T09:52:48Z</time>
      </trkpt>
      <trkpt lat="45.98281" lon="4.81614">
        <ele>247</ele>
        <time>2017-04-05T09:52:49Z</time>
      </trkpt>
      <trkpt lat="45.98278" lon="4.81609">
        <ele>247</ele>
        <time>2017-04-05T09:52:50Z</time>
      </trkpt>
      <trkpt lat="45.98275" lon="4.81603">
        <ele>247</ele>
        <time>2017-04-05T09:52:51Z</time>
      </trkpt>
      <trkpt lat="45.98273" lon="4.81597">
        <ele>247</ele>
        <time>2017-04-05T09:52:52Z</time>
      </trkpt>
      <trkpt lat="45.9827" lon="4.81591">
        <ele>247</ele>
        <time>2017-04-05T09:52:53Z</time>
      </trkpt>
      <trkpt lat="45.98269" lon="4.81584">
        <ele>247</ele>
        <time>2017-04-05T09:52:54Z</time>
      </trkpt>
      <trkpt lat="45.98267" lon="4.81577">
        <ele>247</ele>
        <time>2017-04-05T09:52:55Z</time>
      </trkpt>
      <trkpt lat="45.98265" lon="4.81569">
        <ele>247</ele>
        <time>2017-04-05T09:52:56Z</time>
      </trkpt>
      <trkpt lat="45.98263" lon="4.81563">
        <ele>247</ele>
        <time>2017-04-05T09:52:57Z</time>
      </trkpt>
      <trkpt lat="45.9826" lon="4.81555">
        <ele>247</ele>
        <time>2017-04-05T09:52:58Z</time>
      </trkpt>
      <trkpt lat="45.98258" lon="4.81548">
        <ele>247</ele>
        <time>2017-04-05T09:52:59Z</time>
      </trkpt>
      <trkpt lat="45.98255" lon="4.81541">
        <ele>247</ele>
        <time>2017-04-05T09:53:00Z</time>
      </trkpt>
      <trkpt lat="45.98253" lon="4.81533">
        <ele>247</ele>
        <time>2017-04-05T09:53:01Z</time>
      </trkpt>
      <trkpt lat="45.9825" lon="4.81527">
        <ele>247</ele>
        <time>2017-04-05T09:53:02Z</time>
      </trkpt>
      <trkpt lat="45.98248" lon="4.8152">
        <ele>249</ele>
        <time>2017-04-05T09:53:03Z</time>
      </trkpt>
      <trkpt lat="45.98246" lon="4.81513">
        <ele>249</ele>
        <time>2017-04-05T09:53:04Z</time>
      </trkpt>
      <trkpt lat="45.98244" lon="4.81507">
        <ele>249</ele>
        <time>2017-04-05T09:53:05Z</time>
      </trkpt>
      <trkpt lat="45.98242" lon="4.81501">
        <ele>249</ele>
        <time>2017-04-05T09:53:06Z</time>
      </trkpt>
      <trkpt lat="45.9824" lon="4.81495">
        <ele>249</ele>
        <time>2017-04-05T09:53:07Z</time>
      </trkpt>
      <trkpt lat="45.98237" lon="4.81489">
        <ele>249</ele>
        <time>2017-04-05T09:53:08Z</time>
      </trkpt>
      <trkpt lat="45.98235" lon="4.81483">
        <ele>249</ele>
        <time>2017-04-05T09:53:09Z</time>
      </trkpt>
      <trkpt lat="45.98232" lon="4.81476">
        <ele>249</ele>
        <time>2017-04-05T09:53:10Z</time>
      </trkpt>
      <trkpt lat="45.9823" lon="4.8147">
        <ele>249</ele>
        <time>2017-04-05T09:53:11Z</time>
      </trkpt>
      <trkpt lat="45.98228" lon="4.81463">
        <ele>249</ele>
        <time>2017-04-05T09:53:12Z</time>
      </trkpt>
      <trkpt lat="45.98225" lon="4.81456">
        <ele>249</ele>
        <time>2017-04-05T09:53:13Z</time>
      </trkpt>
      <trkpt lat="45.98223" lon="4.81449">
        <ele>249</ele>
        <time>2017-04-05T09:53:14Z</time>
      </trkpt>
      <trkpt lat="45.98221" lon="4.81441">
        <ele>249</ele>
        <time>2017-04-05T09:53:15Z</time>
      </trkpt>
      <trkpt lat="45.98219" lon="4.81434">
        <ele>249</ele>
        <time>2017-04-05T09:53:16Z</time>
      </trkpt>
      <trkpt lat="45.98216" lon="4.81427">
        <ele>249</ele>
        <time>2017-04-05T09:53:17Z</time>
      </trkpt>
      <trkpt lat="45.98214" lon="4.81421">
        <ele>249</ele>
        <time>2017-04-05T09:53:18Z</time>
      </trkpt>
      <trkpt lat="45.98212" lon="4.81414">
        <ele>248</ele>
        <time>2017-04-05T09:53:19Z</time>
      </trkpt>
      <trkpt lat="45.9821" lon="4.81408">
        <ele>248</ele>
        <time>2017-04-05T09:53:20Z</time>
      </trkpt>
      <trkpt lat="45.98208" lon="4.81401">
        <ele>248</ele>
        <time>2017-04-05T09:53:21Z</time>
      </trkpt>
      <trkpt lat="45.98206" lon="4.81394">
        <ele>248</ele>
        <time>2017-04-05T09:53:22Z</time>
      </trkpt>
      <trkpt lat="45.98204" lon="4.81387">
        <ele>248</ele>
        <time>2017-04-05T09:53:23Z</time>
      </trkpt>
      <trkpt lat="45.98202" lon="4.8138">
        <ele>248</ele>
        <time>2017-04-05T09:53:24Z</time>
      </trkpt>
      <trkpt lat="45.98201" lon="4.81373">
        <ele>248</ele>
        <time>2017-04-05T09:53:25Z</time>
      </trkpt>
      <trkpt lat="45.98199" lon="4.81365">
        <ele>248</ele>
        <time>2017-04-05T09:53:26Z</time>
      </trkpt>
      <trkpt lat="45.98197" lon="4.81358">
        <ele>248</ele>
        <time>2017-04-05T09:53:27Z</time>
      </trkpt>
      <trkpt lat="45.98195" lon="4.81351">
        <ele>248</ele>
        <time>2017-04-05T09:53:28Z</time>
      </trkpt>
      <trkpt lat="45.98193" lon="4.81343">
        <ele>248</ele>
        <time>2017-04-05T09:53:29Z</time>
      </trkpt>
      <trkpt lat="45.98191" lon="4.81335">
        <ele>248</ele>
        <time>2017-04-05T09:53:30Z</time>
      </trkpt>
      <trkpt lat="45.9819" lon="4.81327">
        <ele>247</ele>
        <time>2017-04-05T09:53:31Z</time>
      </trkpt>
      <trkpt lat="45.98188" lon="4.81319">
        <ele>247</ele>
        <time>2017-04-05T09:53:32Z</time>
      </trkpt>
      <trkpt lat="45.98187" lon="4.8131">
        <ele>247</ele>
        <time>2017-04-05T09:53:33Z</time>
      </trkpt>
      <trkpt lat="45.98186" lon="4.81302">
        <ele>247</ele>
        <time>2017-04-05T09:53:34Z</time>
      </trkpt>
      <trkpt lat="45.98184" lon="4.81293">
        <ele>247</ele>
        <time>2017-04-05T09:53:35Z</time>
      </trkpt>
      <trkpt lat="45.98182" lon="4.81285">
        <ele>247</ele>
        <time>2017-04-05T09:53:36Z</time>
      </trkpt>
      <trkpt lat="45.98181" lon="4.81277">
        <ele>247</ele>
        <time>2017-04-05T09:53:37Z</time>
      </trkpt>
      <trkpt lat="45.98179" lon="4.81269">
        <ele>247</ele>
        <time>2017-04-05T09:53:38Z</time>
      </trkpt>
      <trkpt lat="45.98178" lon="4.81261">
        <ele>247</ele>
        <time>2017-04-05T09:53:39Z</time>
      </trkpt>
      <trkpt lat="45.98177" lon="4.81253">
        <ele>247</ele>
        <time>2017-04-05T09:53:40Z</time>
      </trkpt>
      <trkpt lat="45.98176" lon="4.81244">
        <ele>247</ele>
        <time>2017-04-05T09:53:41Z</time>
      </trkpt>
      <trkpt lat="45.98175" lon="4.81236">
        <ele>247</ele>
        <time>2017-04-05T09:53:42Z</time>
      </trkpt>
      <trkpt lat="45.98174" lon="4.81228">
        <ele>246</ele>
        <time>2017-04-05T09:53:43Z</time>
      </trkpt>
      <trkpt lat="45.98174" lon="4.8122">
        <ele>246</ele>
        <time>2017-04-05T09:53:44Z</time>
      </trkpt>
      <trkpt lat="45.98174" lon="4.81212">
        <ele>246</ele>
        <time>2017-04-05T09:53:45Z</time>
      </trkpt>
      <trkpt lat="45.98172" lon="4.81203">
        <ele>245</ele>
        <time>2017-04-05T09:53:46Z</time>
      </trkpt>
      <trkpt lat="45.98171" lon="4.81195">
        <ele>245</ele>
        <time>2017-04-05T09:53:47Z</time>
      </trkpt>
      <trkpt lat="45.9817" lon="4.81187">
        <ele>245</ele>
        <time>2017-04-05T09:53:48Z</time>
      </trkpt>
      <trkpt lat="45.98168" lon="4.81178">
        <ele>245</ele>
        <time>2017-04-05T09:53:49Z</time>
      </trkpt>
      <trkpt lat="45.98166" lon="4.8117">
        <ele>245</ele>
        <time>2017-04-05T09:53:50Z</time>
      </trkpt>
      <trkpt lat="45.98163" lon="4.81162">
        <ele>245</ele>
        <time>2017-04-05T09:53:51Z</time>
      </trkpt>
      <trkpt lat="45.9816" lon="4.81154">
        <ele>245</ele>
        <time>2017-04-05T09:53:52Z</time>
      </trkpt>
      <trkpt lat="45.98157" lon="4.81146">
        <ele>245</ele>
        <time>2017-04-05T09:53:53Z</time>
      </trkpt>
      <trkpt lat="45.98154" lon="4.81138">
        <ele>245</ele>
        <time>2017-04-05T09:53:54Z</time>
      </trkpt>
      <trkpt lat="45.9815" lon="4.81131">
        <ele>245</ele>
        <time>2017-04-05T09:53:55Z</time>
      </trkpt>
      <trkpt lat="45.98146" lon="4.81123">
        <ele>245</ele>
        <time>2017-04-05T09:53:56Z</time>
      </trkpt>
      <trkpt lat="45.98143" lon="4.81116">
        <ele>245</ele>
        <time>2017-04-05T09:53:57Z</time>
      </trkpt>
      <trkpt lat="45.9814" lon="4.81107">
        <ele>245</ele>
        <time>2017-04-05T09:53:58Z</time>
      </trkpt>
      <trkpt lat="45.98138" lon="4.81099">
        <ele>245</ele>
        <time>2017-04-05T09:53:59Z</time>
      </trkpt>
      <trkpt lat="45.98135" lon="4.81092">
        <ele>245</ele>
        <time>2017-04-05T09:54:00Z</time>
      </trkpt>
      <trkpt lat="45.98131" lon="4.81085">
        <ele>245</ele>
        <time>2017-04-05T09:54:01Z</time>
      </trkpt>
      <trkpt lat="45.98129" lon="4.81077">
        <ele>243</ele>
        <time>2017-04-05T09:54:02Z</time>
      </trkpt>
      <trkpt lat="45.98126" lon="4.81069">
        <ele>243</ele>
        <time>2017-04-05T09:54:03Z</time>
      </trkpt>
      <trkpt lat="45.98123" lon="4.81061">
        <ele>243</ele>
        <time>2017-04-05T09:54:04Z</time>
      </trkpt>
      <trkpt lat="45.98122" lon="4.81053">
        <ele>243</ele>
        <time>2017-04-05T09:54:05Z</time>
      </trkpt>
      <trkpt lat="45.98119" lon="4.81045">
        <ele>242</ele>
        <time>2017-04-05T09:54:06Z</time>
      </trkpt>
      <trkpt lat="45.98117" lon="4.81037">
        <ele>242</ele>
        <time>2017-04-05T09:54:07Z</time>
      </trkpt>
      <trkpt lat="45.98115" lon="4.81029">
        <ele>242</ele>
        <time>2017-04-05T09:54:08Z</time>
      </trkpt>
      <trkpt lat="45.98113" lon="4.81022">
        <ele>242</ele>
        <time>2017-04-05T09:54:09Z</time>
      </trkpt>
      <trkpt lat="45.9811" lon="4.81014">
        <ele>242</ele>
        <time>2017-04-05T09:54:10Z</time>
      </trkpt>
      <trkpt lat="45.98108" lon="4.81007">
        <ele>242</ele>
        <time>2017-04-05T09:54:11Z</time>
      </trkpt>
      <trkpt lat="45.98105" lon="4.80999">
        <ele>240</ele>
        <time>2017-04-05T09:54:12Z</time>
      </trkpt>
      <trkpt lat="45.98102" lon="4.80993">
        <ele>240</ele>
        <time>2017-04-05T09:54:13Z</time>
      </trkpt>
      <trkpt lat="45.981" lon="4.80986">
        <ele>239</ele>
        <time>2017-04-05T09:54:14Z</time>
      </trkpt>
      <trkpt lat="45.98098" lon="4.80979">
        <ele>239</ele>
        <time>2017-04-05T09:54:15Z</time>
      </trkpt>
      <trkpt lat="45.98095" lon="4.80972">
        <ele>239</ele>
        <time>2017-04-05T09:54:16Z</time>
      </trkpt>
      <trkpt lat="45.98093" lon="4.80964">
        <ele>239</ele>
        <time>2017-04-05T09:54:17Z</time>
      </trkpt>
      <trkpt lat="45.9809" lon="4.80955">
        <ele>238</ele>
        <time>2017-04-05T09:54:18Z</time>
      </trkpt>
      <trkpt lat="45.98087" lon="4.80945">
        <ele>238</ele>
        <time>2017-04-05T09:54:19Z</time>
      </trkpt>
      <trkpt lat="45.98085" lon="4.80935">
        <ele>238</ele>
        <time>2017-04-05T09:54:20Z</time>
      </trkpt>
      <trkpt lat="45.98082" lon="4.80924">
        <ele>240</ele>
        <time>2017-04-05T09:54:21Z</time>
      </trkpt>
      <trkpt lat="45.98079" lon="4.80913">
        <ele>239</ele>
        <time>2017-04-05T09:54:22Z</time>
      </trkpt>
      <trkpt lat="45.98076" lon="4.80901">
        <ele>238</ele>
        <time>2017-04-05T09:54:23Z</time>
      </trkpt>
      <trkpt lat="45.98074" lon="4.80889">
        <ele>238</ele>
        <time>2017-04-05T09:54:24Z</time>
      </trkpt>
      <trkpt lat="45.98071" lon="4.80877">
        <ele>237</ele>
        <time>2017-04-05T09:54:25Z</time>
      </trkpt>
      <trkpt lat="45.98068" lon="4.80864">
        <ele>237</ele>
        <time>2017-04-05T09:54:26Z</time>
      </trkpt>
      <trkpt lat="45.98064" lon="4.80851">
        <ele>236</ele>
        <time>2017-04-05T09:54:27Z</time>
      </trkpt>
      <trkpt lat="45.98061" lon="4.80837">
        <ele>236</ele>
        <time>2017-04-05T09:54:28Z</time>
      </trkpt>
      <trkpt lat="45.98058" lon="4.80824">
        <ele>234</ele>
        <time>2017-04-05T09:54:29Z</time>
      </trkpt>
      <trkpt lat="45.98054" lon="4.80812">
        <ele>234</ele>
        <time>2017-04-05T09:54:30Z</time>
      </trkpt>
      <trkpt lat="45.98051" lon="4.80799">
        <ele>234</ele>
        <time>2017-04-05T09:54:31Z</time>
      </trkpt>
      <trkpt lat="45.98049" lon="4.80787">
        <ele>233</ele>
        <time>2017-04-05T09:54:32Z</time>
      </trkpt>
      <trkpt lat="45.98046" lon="4.80775">
        <ele>233</ele>
        <time>2017-04-05T09:54:33Z</time>
      </trkpt>
      <trkpt lat="45.98043" lon="4.80764">
        <ele>233</ele>
        <time>2017-04-05T09:54:34Z</time>
      </trkpt>
      <trkpt lat="45.9804" lon="4.80753">
        <ele>233</ele>
        <time>2017-04-05T09:54:35Z</time>
      </trkpt>
      <trkpt lat="45.98037" lon="4.80742">
        <ele>231</ele>
        <time>2017-04-05T09:54:36Z</time>
      </trkpt>
      <trkpt lat="45.98034" lon="4.80733">
        <ele>231</ele>
        <time>2017-04-05T09:54:37Z</time>
      </trkpt>
      <trkpt lat="45.98032" lon="4.80724">
        <ele>231</ele>
        <time>2017-04-05T09:54:38Z</time>
      </trkpt>
      <trkpt lat="45.9803" lon="4.80716">
        <ele>231</ele>
        <time>2017-04-05T09:54:39Z</time>
      </trkpt>
      <trkpt lat="45.9803" lon="4.80704">
        <ele>231</ele>
        <time>2017-04-05T09:54:41Z</time>
      </trkpt>
      <trkpt lat="45.98033" lon="4.807">
        <ele>230</ele>
        <time>2017-04-05T09:54:42Z</time>
      </trkpt>
      <trkpt lat="45.98041" lon="4.80696">
        <ele>230</ele>
        <time>2017-04-05T09:54:44Z</time>
      </trkpt>
      <trkpt lat="45.98046" lon="4.80695">
        <ele>230</ele>
        <time>2017-04-05T09:54:45Z</time>
      </trkpt>
      <trkpt lat="45.98052" lon="4.80695">
        <ele>230</ele>
        <time>2017-04-05T09:54:46Z</time>
      </trkpt>
      <trkpt lat="45.98058" lon="4.80695">
        <ele>230</ele>
        <time>2017-04-05T09:54:47Z</time>
      </trkpt>
      <trkpt lat="45.98064" lon="4.80694">
        <ele>230</ele>
        <time>2017-04-05T09:54:48Z</time>
      </trkpt>
      <trkpt lat="45.9807" lon="4.80694">
        <ele>230</ele>
        <time>2017-04-05T09:54:49Z</time>
      </trkpt>
      <trkpt lat="45.98076" lon="4.80693">
        <ele>230</ele>
        <time>2017-04-05T09:54:50Z</time>
      </trkpt>
      <trkpt lat="45.98083" lon="4.80693">
        <ele>230</ele>
        <time>2017-04-05T09:54:51Z</time>
      </trkpt>
      <trkpt lat="45.98089" lon="4.80693">
        <ele>228</ele>
        <time>2017-04-05T09:54:52Z</time>
      </trkpt>
      <trkpt lat="45.98095" lon="4.80693">
        <ele>228</ele>
        <time>2017-04-05T09:54:53Z</time>
      </trkpt>
      <trkpt lat="45.98101" lon="4.80693">
        <ele>228</ele>
        <time>2017-04-05T09:54:54Z</time>
      </trkpt>
      <trkpt lat="45.98107" lon="4.80692">
        <ele>228</ele>
        <time>2017-04-05T09:54:55Z</time>
      </trkpt>
      <trkpt lat="45.98113" lon="4.80692">
        <ele>228</ele>
        <time>2017-04-05T09:54:56Z</time>
      </trkpt>
      <trkpt lat="45.98119" lon="4.80692">
        <ele>228</ele>
        <time>2017-04-05T09:54:57Z</time>
      </trkpt>
      <trkpt lat="45.98125" lon="4.80692">
        <ele>228</ele>
        <time>2017-04-05T09:54:58Z</time>
      </trkpt>
      <trkpt lat="45.98131" lon="4.80692">
        <ele>228</ele>
        <time>2017-04-05T09:54:59Z</time>
      </trkpt>
      <trkpt lat="45.98137" lon="4.80692">
        <ele>228</ele>
        <time>2017-04-05T09:55:00Z</time>
      </trkpt>
      <trkpt lat="45.98143" lon="4.80692">
        <ele>228</ele>
        <time>2017-04-05T09:55:01Z</time>
      </trkpt>
      <trkpt lat="45.98149" lon="4.80692">
        <ele>228</ele>
        <time>2017-04-05T09:55:02Z</time>
      </trkpt>
      <trkpt lat="45.98155" lon="4.80692">
        <ele>227</ele>
        <time>2017-04-05T09:55:03Z</time>
      </trkpt>
      <trkpt lat="45.98161" lon="4.80691">
        <ele>227</ele>
        <time>2017-04-05T09:55:04Z</time>
      </trkpt>
      <trkpt lat="45.98166" lon="4.8069">
        <ele>227</ele>
        <time>2017-04-05T09:55:05Z</time>
      </trkpt>
      <trkpt lat="45.98171" lon="4.80689">
        <ele>225</ele>
        <time>2017-04-05T09:55:06Z</time>
      </trkpt>
      <trkpt lat="45.98176" lon="4.80688">
        <ele>225</ele>
        <time>2017-04-05T09:55:07Z</time>
      </trkpt>
      <trkpt lat="45.98181" lon="4.80686">
        <ele>225</ele>
        <time>2017-04-05T09:55:08Z</time>
      </trkpt>
      <trkpt lat="45.98187" lon="4.80685">
        <ele>225</ele>
        <time>2017-04-05T09:55:09Z</time>
      </trkpt>
      <trkpt lat="45.98192" lon="4.80683">
        <ele>225</ele>
        <time>2017-04-05T09:55:10Z</time>
      </trkpt>
      <trkpt lat="45.98198" lon="4.80682">
        <ele>225</ele>
        <time>2017-04-05T09:55:11Z</time>
      </trkpt>
      <trkpt lat="45.98203" lon="4.80679">
        <ele>225</ele>
        <time>2017-04-05T09:55:12Z</time>
      </trkpt>
      <trkpt lat="45.98209" lon="4.80675">
        <ele>224</ele>
        <time>2017-04-05T09:55:13Z</time>
      </trkpt>
      <trkpt lat="45.98214" lon="4.80671">
        <ele>224</ele>
        <time>2017-04-05T09:55:14Z</time>
      </trkpt>
      <trkpt lat="45.98219" lon="4.80666">
        <ele>224</ele>
        <time>2017-04-05T09:55:15Z</time>
      </trkpt>
      <trkpt lat="45.98223" lon="4.80659">
        <ele>224</ele>
        <time>2017-04-05T09:55:16Z</time>
      </trkpt>
      <trkpt lat="45.98226" lon="4.80652">
        <ele>224</ele>
        <time>2017-04-05T09:55:17Z</time>
      </trkpt>
      <trkpt lat="45.98229" lon="4.80644">
        <ele>224</ele>
        <time>2017-04-05T09:55:18Z</time>
      </trkpt>
      <trkpt lat="45.98232" lon="4.80635">
        <ele>224</ele>
        <time>2017-04-05T09:55:19Z</time>
      </trkpt>
      <trkpt lat="45.98235" lon="4.80626">
        <ele>224</ele>
        <time>2017-04-05T09:55:20Z</time>
      </trkpt>
      <trkpt lat="45.98237" lon="4.80617">
        <ele>224</ele>
        <time>2017-04-05T09:55:21Z</time>
      </trkpt>
      <trkpt lat="45.98241" lon="4.80608">
        <ele>224</ele>
        <time>2017-04-05T09:55:22Z</time>
      </trkpt>
      <trkpt lat="45.98243" lon="4.80599">
        <ele>224</ele>
        <time>2017-04-05T09:55:23Z</time>
      </trkpt>
      <trkpt lat="45.98246" lon="4.80589">
        <ele>224</ele>
        <time>2017-04-05T09:55:24Z</time>
      </trkpt>
      <trkpt lat="45.98248" lon="4.80581">
        <ele>224</ele>
        <time>2017-04-05T09:55:25Z</time>
      </trkpt>
      <trkpt lat="45.98251" lon="4.80572">
        <ele>224</ele>
        <time>2017-04-05T09:55:26Z</time>
      </trkpt>
      <trkpt lat="45.98253" lon="4.80564">
        <ele>224</ele>
        <time>2017-04-05T09:55:27Z</time>
      </trkpt>
      <trkpt lat="45.98255" lon="4.80556">
        <ele>224</ele>
        <time>2017-04-05T09:55:28Z</time>
      </trkpt>
      <trkpt lat="45.98257" lon="4.8055">
        <ele>224</ele>
        <time>2017-04-05T09:55:29Z</time>
      </trkpt>
      <trkpt lat="45.98259" lon="4.80542">
        <ele>224</ele>
        <time>2017-04-05T09:55:30Z</time>
      </trkpt>
      <trkpt lat="45.98262" lon="4.80535">
        <ele>224</ele>
        <time>2017-04-05T09:55:31Z</time>
      </trkpt>
      <trkpt lat="45.98264" lon="4.80528">
        <ele>224</ele>
        <time>2017-04-05T09:55:32Z</time>
      </trkpt>
      <trkpt lat="45.98266" lon="4.80521">
        <ele>223</ele>
        <time>2017-04-05T09:55:33Z</time>
      </trkpt>
      <trkpt lat="45.98268" lon="4.80514">
        <ele>223</ele>
        <time>2017-04-05T09:55:34Z</time>
      </trkpt>
      <trkpt lat="45.9827" lon="4.80508">
        <ele>223</ele>
        <time>2017-04-05T09:55:35Z</time>
      </trkpt>
      <trkpt lat="45.98272" lon="4.80495">
        <ele>223</ele>
        <time>2017-04-05T09:55:37Z</time>
      </trkpt>
      <trkpt lat="45.98274" lon="4.80489">
        <ele>223</ele>
        <time>2017-04-05T09:55:38Z</time>
      </trkpt>
      <trkpt lat="45.98275" lon="4.80478">
        <ele>223</ele>
        <time>2017-04-05T09:55:40Z</time>
      </trkpt>
      <trkpt lat="45.98276" lon="4.80473">
        <ele>223</ele>
        <time>2017-04-05T09:55:41Z</time>
      </trkpt>
      <trkpt lat="45.98278" lon="4.80467">
        <ele>223</ele>
        <time>2017-04-05T09:55:42Z</time>
      </trkpt>
      <trkpt lat="45.98279" lon="4.80459">
        <ele>223</ele>
        <time>2017-04-05T09:55:43Z</time>
      </trkpt>
      <trkpt lat="45.9828" lon="4.80447">
        <ele>223</ele>
        <time>2017-04-05T09:55:45Z</time>
      </trkpt>
      <trkpt lat="45.98281" lon="4.8044">
        <ele>223</ele>
        <time>2017-04-05T09:55:46Z</time>
      </trkpt>
      <trkpt lat="45.98283" lon="4.80433">
        <ele>223</ele>
        <time>2017-04-05T09:55:47Z</time>
      </trkpt>
      <trkpt lat="45.98284" lon="4.80426">
        <ele>223</ele>
        <time>2017-04-05T09:55:48Z</time>
      </trkpt>
      <trkpt lat="45.98285" lon="4.80419">
        <ele>223</ele>
        <time>2017-04-05T09:55:49Z</time>
      </trkpt>
      <trkpt lat="45.98286" lon="4.80412">
        <ele>224</ele>
        <time>2017-04-05T09:55:50Z</time>
      </trkpt>
      <trkpt lat="45.98288" lon="4.804">
        <ele>224</ele>
        <time>2017-04-05T09:55:52Z</time>
      </trkpt>
      <trkpt lat="45.98289" lon="4.80394">
        <ele>224</ele>
        <time>2017-04-05T09:55:53Z</time>
      </trkpt>
      <trkpt lat="45.98291" lon="4.80382">
        <ele>224</ele>
        <time>2017-04-05T09:55:55Z</time>
      </trkpt>
      <trkpt lat="45.98292" lon="4.80376">
        <ele>224</ele>
        <time>2017-04-05T09:55:56Z</time>
      </trkpt>
      <trkpt lat="45.98295" lon="4.80364">
        <ele>224</ele>
        <time>2017-04-05T09:55:58Z</time>
      </trkpt>
      <trkpt lat="45.98296" lon="4.80358">
        <ele>225</ele>
        <time>2017-04-05T09:55:59Z</time>
      </trkpt>
      <trkpt lat="45.98297" lon="4.80347">
        <ele>225</ele>
        <time>2017-04-05T09:56:01Z</time>
      </trkpt>
      <trkpt lat="45.98299" lon="4.8034">
        <ele>225</ele>
        <time>2017-04-05T09:56:02Z</time>
      </trkpt>
      <trkpt lat="45.983" lon="4.80334">
        <ele>225</ele>
        <time>2017-04-05T09:56:03Z</time>
      </trkpt>
      <trkpt lat="45.98301" lon="4.80328">
        <ele>226</ele>
        <time>2017-04-05T09:56:04Z</time>
      </trkpt>
      <trkpt lat="45.98303" lon="4.80322">
        <ele>226</ele>
        <time>2017-04-05T09:56:05Z</time>
      </trkpt>
      <trkpt lat="45.98304" lon="4.80315">
        <ele>226</ele>
        <time>2017-04-05T09:56:06Z</time>
      </trkpt>
      <trkpt lat="45.98305" lon="4.80308">
        <ele>226</ele>
        <time>2017-04-05T09:56:07Z</time>
      </trkpt>
      <trkpt lat="45.98307" lon="4.80302">
        <ele>226</ele>
        <time>2017-04-05T09:56:08Z</time>
      </trkpt>
      <trkpt lat="45.98308" lon="4.80296">
        <ele>226</ele>
        <time>2017-04-05T09:56:09Z</time>
      </trkpt>
      <trkpt lat="45.9831" lon="4.8029">
        <ele>226</ele>
        <time>2017-04-05T09:56:10Z</time>
      </trkpt>
      <trkpt lat="45.98312" lon="4.80279">
        <ele>226</ele>
        <time>2017-04-05T09:56:12Z</time>
      </trkpt>
      <trkpt lat="45.98313" lon="4.80273">
        <ele>227</ele>
        <time>2017-04-05T09:56:13Z</time>
      </trkpt>
      <trkpt lat="45.98315" lon="4.80262">
        <ele>227</ele>
        <time>2017-04-05T09:56:15Z</time>
      </trkpt>
      <trkpt lat="45.98316" lon="4.80257">
        <ele>227</ele>
        <time>2017-04-05T09:56:16Z</time>
      </trkpt>
      <trkpt lat="45.98319" lon="4.80249">
        <ele>228</ele>
        <time>2017-04-05T09:56:17Z</time>
      </trkpt>
      <trkpt lat="45.9832" lon="4.80241">
        <ele>228</ele>
        <time>2017-04-05T09:56:18Z</time>
      </trkpt>
      <trkpt lat="45.98322" lon="4.80232">
        <ele>228</ele>
        <time>2017-04-05T09:56:19Z</time>
      </trkpt>
      <trkpt lat="45.98322" lon="4.80224">
        <ele>227</ele>
        <time>2017-04-05T09:56:20Z</time>
      </trkpt>
      <trkpt lat="45.98321" lon="4.80217">
        <ele>227</ele>
        <time>2017-04-05T09:56:21Z</time>
      </trkpt>
      <trkpt lat="45.98319" lon="4.80212">
        <ele>227</ele>
        <time>2017-04-05T09:56:22Z</time>
      </trkpt>
      <trkpt lat="45.98318" lon="4.80205">
        <ele>227</ele>
        <time>2017-04-05T09:56:23Z</time>
      </trkpt>
      <trkpt lat="45.98318" lon="4.80196">
        <ele>227</ele>
        <time>2017-04-05T09:56:24Z</time>
      </trkpt>
      <trkpt lat="45.98318" lon="4.80188">
        <ele>227</ele>
        <time>2017-04-05T09:56:25Z</time>
      </trkpt>
      <trkpt lat="45.98318" lon="4.80181">
        <ele>227</ele>
        <time>2017-04-05T09:56:26Z</time>
      </trkpt>
      <trkpt lat="45.98315" lon="4.80169">
        <ele>227</ele>
        <time>2017-04-05T09:56:28Z</time>
      </trkpt>
      <trkpt lat="45.98313" lon="4.80162">
        <ele>228</ele>
        <time>2017-04-05T09:56:29Z</time>
      </trkpt>
      <trkpt lat="45.98312" lon="4.80156">
        <ele>228</ele>
        <time>2017-04-05T09:56:30Z</time>
      </trkpt>
      <trkpt lat="45.9831" lon="4.8015">
        <ele>228</ele>
        <time>2017-04-05T09:56:31Z</time>
      </trkpt>
      <trkpt lat="45.98308" lon="4.80143">
        <ele>228</ele>
        <time>2017-04-05T09:56:32Z</time>
      </trkpt>
      <trkpt lat="45.98305" lon="4.80137">
        <ele>228</ele>
        <time>2017-04-05T09:56:33Z</time>
      </trkpt>
      <trkpt lat="45.98304" lon="4.80131">
        <ele>228</ele>
        <time>2017-04-05T09:56:34Z</time>
      </trkpt>
      <trkpt lat="45.98301" lon="4.80125">
        <ele>228</ele>
        <time>2017-04-05T09:56:35Z</time>
      </trkpt>
      <trkpt lat="45.98299" lon="4.80119">
        <ele>228</ele>
        <time>2017-04-05T09:56:36Z</time>
      </trkpt>
      <trkpt lat="45.98296" lon="4.80113">
        <ele>228</ele>
        <time>2017-04-05T09:56:37Z</time>
      </trkpt>
      <trkpt lat="45.98294" lon="4.80106">
        <ele>228</ele>
        <time>2017-04-05T09:56:38Z</time>
      </trkpt>
      <trkpt lat="45.98292" lon="4.80099">
        <ele>228</ele>
        <time>2017-04-05T09:56:39Z</time>
      </trkpt>
      <trkpt lat="45.9829" lon="4.80093">
        <ele>228</ele>
        <time>2017-04-05T09:56:40Z</time>
      </trkpt>
      <trkpt lat="45.98288" lon="4.80087">
        <ele>228</ele>
        <time>2017-04-05T09:56:41Z</time>
      </trkpt>
      <trkpt lat="45.98286" lon="4.80081">
        <ele>229</ele>
        <time>2017-04-05T09:56:42Z</time>
      </trkpt>
      <trkpt lat="45.98284" lon="4.80075">
        <ele>229</ele>
        <time>2017-04-05T09:56:43Z</time>
      </trkpt>
      <trkpt lat="45.98282" lon="4.80069">
        <ele>229</ele>
        <time>2017-04-05T09:56:44Z</time>
      </trkpt>
      <trkpt lat="45.98279" lon="4.80062">
        <ele>229</ele>
        <time>2017-04-05T09:56:45Z</time>
      </trkpt>
      <trkpt lat="45.98277" lon="4.80056">
        <ele>229</ele>
        <time>2017-04-05T09:56:46Z</time>
      </trkpt>
      <trkpt lat="45.98274" lon="4.8005">
        <ele>229</ele>
        <time>2017-04-05T09:56:47Z</time>
      </trkpt>
      <trkpt lat="45.98271" lon="4.80043">
        <ele>229</ele>
        <time>2017-04-05T09:56:48Z</time>
      </trkpt>
      <trkpt lat="45.98269" lon="4.80037">
        <ele>229</ele>
        <time>2017-04-05T09:56:49Z</time>
      </trkpt>
      <trkpt lat="45.98266" lon="4.80031">
        <ele>228</ele>
        <time>2017-04-05T09:56:50Z</time>
      </trkpt>
      <trkpt lat="45.98263" lon="4.80024">
        <ele>228</ele>
        <time>2017-04-05T09:56:51Z</time>
      </trkpt>
      <trkpt lat="45.98261" lon="4.80017">
        <ele>228</ele>
        <time>2017-04-05T09:56:52Z</time>
      </trkpt>
      <trkpt lat="45.98258" lon="4.80011">
        <ele>227</ele>
        <time>2017-04-05T09:56:53Z</time>
      </trkpt>
      <trkpt lat="45.98256" lon="4.80004">
        <ele>227</ele>
        <time>2017-04-05T09:56:54Z</time>
      </trkpt>
      <trkpt lat="45.98253" lon="4.79998">
        <ele>227</ele>
        <time>2017-04-05T09:56:55Z</time>
      </trkpt>
      <trkpt lat="45.98251" lon="4.79991">
        <ele>227</ele>
        <time>2017-04-05T09:56:56Z</time>
      </trkpt>
      <trkpt lat="45.9825" lon="4.79985">
        <ele>225</ele>
        <time>2017-04-05T09:56:57Z</time>
      </trkpt>
      <trkpt lat="45.98248" lon="4.79979">
        <ele>225</ele>
        <time>2017-04-05T09:56:58Z</time>
      </trkpt>
      <trkpt lat="45.98246" lon="4.79973">
        <ele>225</ele>
        <time>2017-04-05T09:56:59Z</time>
      </trkpt>
      <trkpt lat="45.98244" lon="4.79967">
        <ele>225</ele>
        <time>2017-04-05T09:57:00Z</time>
      </trkpt>
      <trkpt lat="45.98242" lon="4.79961">
        <ele>225</ele>
        <time>2017-04-05T09:57:01Z</time>
      </trkpt>
      <trkpt lat="45.98238" lon="4.7995">
        <ele>225</ele>
        <time>2017-04-05T09:57:03Z</time>
      </trkpt>
      <trkpt lat="45.98237" lon="4.79945">
        <ele>225</ele>
        <time>2017-04-05T09:57:04Z</time>
      </trkpt>
      <trkpt lat="45.98233" lon="4.79933">
        <ele>225</ele>
        <time>2017-04-05T09:57:06Z</time>
      </trkpt>
      <trkpt lat="45.98233" lon="4.79926">
        <ele>225</ele>
        <time>2017-04-05T09:57:07Z</time>
      </trkpt>
      <trkpt lat="45.98232" lon="4.79919">
        <ele>225</ele>
        <time>2017-04-05T09:57:08Z</time>
      </trkpt>
      <trkpt lat="45.98231" lon="4.79912">
        <ele>225</ele>
        <time>2017-04-05T09:57:09Z</time>
      </trkpt>
      <trkpt lat="45.9823" lon="4.79906">
        <ele>225</ele>
        <time>2017-04-05T09:57:10Z</time>
      </trkpt>
      <trkpt lat="45.98229" lon="4.799">
        <ele>225</ele>
        <time>2017-04-05T09:57:11Z</time>
      </trkpt>
      <trkpt lat="45.98226" lon="4.79888">
        <ele>225</ele>
        <time>2017-04-05T09:57:13Z</time>
      </trkpt>
      <trkpt lat="45.98225" lon="4.79881">
        <ele>225</ele>
        <time>2017-04-05T09:57:14Z</time>
      </trkpt>
      <trkpt lat="45.98223" lon="4.79875">
        <ele>225</ele>
        <time>2017-04-05T09:57:15Z</time>
      </trkpt>
      <trkpt lat="45.98221" lon="4.79869">
        <ele>225</ele>
        <time>2017-04-05T09:57:16Z</time>
      </trkpt>
      <trkpt lat="45.98219" lon="4.79863">
        <ele>225</ele>
        <time>2017-04-05T09:57:17Z</time>
      </trkpt>
      <trkpt lat="45.98216" lon="4.79857">
        <ele>225</ele>
        <time>2017-04-05T09:57:18Z</time>
      </trkpt>
      <trkpt lat="45.98212" lon="4.79851">
        <ele>225</ele>
        <time>2017-04-05T09:57:19Z</time>
      </trkpt>
      <trkpt lat="45.98209" lon="4.79844">
        <ele>225</ele>
        <time>2017-04-05T09:57:20Z</time>
      </trkpt>
      <trkpt lat="45.98206" lon="4.79837">
        <ele>225</ele>
        <time>2017-04-05T09:57:21Z</time>
      </trkpt>
      <trkpt lat="45.98202" lon="4.7983">
        <ele>226</ele>
        <time>2017-04-05T09:57:22Z</time>
      </trkpt>
      <trkpt lat="45.98199" lon="4.79824">
        <ele>225</ele>
        <time>2017-04-05T09:57:23Z</time>
      </trkpt>
      <trkpt lat="45.98196" lon="4.79817">
        <ele>226</ele>
        <time>2017-04-05T09:57:24Z</time>
      </trkpt>
      <trkpt lat="45.98193" lon="4.7981">
        <ele>226</ele>
        <time>2017-04-05T09:57:25Z</time>
      </trkpt>
      <trkpt lat="45.98191" lon="4.79804">
        <ele>226</ele>
        <time>2017-04-05T09:57:26Z</time>
      </trkpt>
      <trkpt lat="45.98188" lon="4.79797">
        <ele>226</ele>
        <time>2017-04-05T09:57:27Z</time>
      </trkpt>
      <trkpt lat="45.98187" lon="4.79791">
        <ele>226</ele>
        <time>2017-04-05T09:57:28Z</time>
      </trkpt>
      <trkpt lat="45.98184" lon="4.79779">
        <ele>226</ele>
        <time>2017-04-05T09:57:30Z</time>
      </trkpt>
      <trkpt lat="45.98184" lon="4.79773">
        <ele>226</ele>
        <time>2017-04-05T09:57:31Z</time>
      </trkpt>
      <trkpt lat="45.98184" lon="4.79761">
        <ele>226</ele>
        <time>2017-04-05T09:57:33Z</time>
      </trkpt>
      <trkpt lat="45.98185" lon="4.79756">
        <ele>226</ele>
        <time>2017-04-05T09:57:34Z</time>
      </trkpt>
      <trkpt lat="45.98183" lon="4.79745">
        <ele>227</ele>
        <time>2017-04-05T09:57:36Z</time>
      </trkpt>
      <trkpt lat="45.9818" lon="4.7974">
        <ele>227</ele>
        <time>2017-04-05T09:57:37Z</time>
      </trkpt>
      <trkpt lat="45.98176" lon="4.79736">
        <ele>227</ele>
        <time>2017-04-05T09:57:38Z</time>
      </trkpt>
      <trkpt lat="45.98171" lon="4.79736">
        <ele>227</ele>
        <time>2017-04-05T09:57:39Z</time>
      </trkpt>
      <trkpt lat="45.98166" lon="4.79737">
        <ele>226</ele>
        <time>2017-04-05T09:57:40Z</time>
      </trkpt>
      <trkpt lat="45.98161" lon="4.79741">
        <ele>226</ele>
        <time>2017-04-05T09:57:41Z</time>
      </trkpt>
      <trkpt lat="45.98157" lon="4.79745">
        <ele>226</ele>
        <time>2017-04-05T09:57:42Z</time>
      </trkpt>
      <trkpt lat="45.98151" lon="4.79749">
        <ele>226</ele>
        <time>2017-04-05T09:57:43Z</time>
      </trkpt>
      <trkpt lat="45.98146" lon="4.79752">
        <ele>225</ele>
        <time>2017-04-05T09:57:44Z</time>
      </trkpt>
      <trkpt lat="45.98139" lon="4.79753">
        <ele>224</ele>
        <time>2017-04-05T09:57:45Z</time>
      </trkpt>
      <trkpt lat="45.98133" lon="4.79754">
        <ele>224</ele>
        <time>2017-04-05T09:57:46Z</time>
      </trkpt>
      <trkpt lat="45.98127" lon="4.79755">
        <ele>224</ele>
        <time>2017-04-05T09:57:47Z</time>
      </trkpt>
      <trkpt lat="45.9812" lon="4.79756">
        <ele>224</ele>
        <time>2017-04-05T09:57:48Z</time>
      </trkpt>
      <trkpt lat="45.98112" lon="4.79756">
        <ele>224</ele>
        <time>2017-04-05T09:57:49Z</time>
      </trkpt>
      <trkpt lat="45.98105" lon="4.79758">
        <ele>224</ele>
        <time>2017-04-05T09:57:50Z</time>
      </trkpt>
      <trkpt lat="45.98097" lon="4.79759">
        <ele>223</ele>
        <time>2017-04-05T09:57:51Z</time>
      </trkpt>
      <trkpt lat="45.98089" lon="4.7976">
        <ele>223</ele>
        <time>2017-04-05T09:57:52Z</time>
      </trkpt>
      <trkpt lat="45.98082" lon="4.79761">
        <ele>223</ele>
        <time>2017-04-05T09:57:53Z</time>
      </trkpt>
      <trkpt lat="45.98074" lon="4.79762">
        <ele>223</ele>
        <time>2017-04-05T09:57:54Z</time>
      </trkpt>
      <trkpt lat="45.98066" lon="4.79763">
        <ele>223</ele>
        <time>2017-04-05T09:57:55Z</time>
      </trkpt>
      <trkpt lat="45.98059" lon="4.79764">
        <ele>223</ele>
        <time>2017-04-05T09:57:56Z</time>
      </trkpt>
      <trkpt lat="45.98051" lon="4.79765">
        <ele>223</ele>
        <time>2017-04-05T09:57:57Z</time>
      </trkpt>
      <trkpt lat="45.98044" lon="4.79766">
        <ele>223</ele>
        <time>2017-04-05T09:57:58Z</time>
      </trkpt>
      <trkpt lat="45.98036" lon="4.79767">
        <ele>223</ele>
        <time>2017-04-05T09:57:59Z</time>
      </trkpt>
      <trkpt lat="45.98028" lon="4.79768">
        <ele>223</ele>
        <time>2017-04-05T09:58:00Z</time>
      </trkpt>
      <trkpt lat="45.9802" lon="4.79769">
        <ele>223</ele>
        <time>2017-04-05T09:58:01Z</time>
      </trkpt>
      <trkpt lat="45.98013" lon="4.7977">
        <ele>223</ele>
        <time>2017-04-05T09:58:02Z</time>
      </trkpt>
      <trkpt lat="45.98005" lon="4.79771">
        <ele>223</ele>
        <time>2017-04-05T09:58:03Z</time>
      </trkpt>
      <trkpt lat="45.97998" lon="4.79772">
        <ele>224</ele>
        <time>2017-04-05T09:58:04Z</time>
      </trkpt>
      <trkpt lat="45.9799" lon="4.79772">
        <ele>224</ele>
        <time>2017-04-05T09:58:05Z</time>
      </trkpt>
      <trkpt lat="45.97983" lon="4.79773">
        <ele>224</ele>
        <time>2017-04-05T09:58:06Z</time>
      </trkpt>
      <trkpt lat="45.97975" lon="4.79775">
        <ele>224</ele>
        <time>2017-04-05T09:58:07Z</time>
      </trkpt>
      <trkpt lat="45.97968" lon="4.79776">
        <ele>224</ele>
        <time>2017-04-05T09:58:08Z</time>
      </trkpt>
      <trkpt lat="45.9796" lon="4.79777">
        <ele>224</ele>
        <time>2017-04-05T09:58:09Z</time>
      </trkpt>
      <trkpt lat="45.97953" lon="4.79778">
        <ele>224</ele>
        <time>2017-04-05T09:58:10Z</time>
      </trkpt>
      <trkpt lat="45.97946" lon="4.79779">
        <ele>224</ele>
        <time>2017-04-05T09:58:11Z</time>
      </trkpt>
      <trkpt lat="45.97939" lon="4.7978">
        <ele>225</ele>
        <time>2017-04-05T09:58:12Z</time>
      </trkpt>
      <trkpt lat="45.97932" lon="4.79781">
        <ele>225</ele>
        <time>2017-04-05T09:58:13Z</time>
      </trkpt>
      <trkpt lat="45.97924" lon="4.79783">
        <ele>225</ele>
        <time>2017-04-05T09:58:14Z</time>
      </trkpt>
      <trkpt lat="45.97916" lon="4.79785">
        <ele>225</ele>
        <time>2017-04-05T09:58:15Z</time>
      </trkpt>
      <trkpt lat="45.97908" lon="4.79788">
        <ele>225</ele>
        <time>2017-04-05T09:58:16Z</time>
      </trkpt>
      <trkpt lat="45.979" lon="4.79789">
        <ele>225</ele>
        <time>2017-04-05T09:58:17Z</time>
      </trkpt>
      <trkpt lat="45.97893" lon="4.79791">
        <ele>224</ele>
        <time>2017-04-05T09:58:18Z</time>
      </trkpt>
      <trkpt lat="45.97885" lon="4.79792">
        <ele>224</ele>
        <time>2017-04-05T09:58:19Z</time>
      </trkpt>
      <trkpt lat="45.97877" lon="4.79794">
        <ele>224</ele>
        <time>2017-04-05T09:58:20Z</time>
      </trkpt>
      <trkpt lat="45.9787" lon="4.79795">
        <ele>224</ele>
        <time>2017-04-05T09:58:21Z</time>
      </trkpt>
      <trkpt lat="45.97862" lon="4.79797">
        <ele>224</ele>
        <time>2017-04-05T09:58:22Z</time>
      </trkpt>
      <trkpt lat="45.97855" lon="4.79798">
        <ele>224</ele>
        <time>2017-04-05T09:58:23Z</time>
      </trkpt>
      <trkpt lat="45.97847" lon="4.79799">
        <ele>224</ele>
        <time>2017-04-05T09:58:24Z</time>
      </trkpt>
      <trkpt lat="45.9784" lon="4.798">
        <ele>224</ele>
        <time>2017-04-05T09:58:25Z</time>
      </trkpt>
      <trkpt lat="45.97833" lon="4.79802">
        <ele>223</ele>
        <time>2017-04-05T09:58:26Z</time>
      </trkpt>
      <trkpt lat="45.97827" lon="4.79803">
        <ele>223</ele>
        <time>2017-04-05T09:58:27Z</time>
      </trkpt>
      <trkpt lat="45.9782" lon="4.79804">
        <ele>223</ele>
        <time>2017-04-05T09:58:28Z</time>
      </trkpt>
      <trkpt lat="45.97813" lon="4.79806">
        <ele>223</ele>
        <time>2017-04-05T09:58:29Z</time>
      </trkpt>
      <trkpt lat="45.97806" lon="4.79807">
        <ele>223</ele>
        <time>2017-04-05T09:58:30Z</time>
      </trkpt>
      <trkpt lat="45.97798" lon="4.79808">
        <ele>223</ele>
        <time>2017-04-05T09:58:31Z</time>
      </trkpt>
      <trkpt lat="45.9779" lon="4.79809">
        <ele>223</ele>
        <time>2017-04-05T09:58:32Z</time>
      </trkpt>
      <trkpt lat="45.97782" lon="4.7981">
        <ele>223</ele>
        <time>2017-04-05T09:58:33Z</time>
      </trkpt>
      <trkpt lat="45.97774" lon="4.79812">
        <ele>223</ele>
        <time>2017-04-05T09:58:34Z</time>
      </trkpt>
      <trkpt lat="45.97766" lon="4.79813">
        <ele>223</ele>
        <time>2017-04-05T09:58:35Z</time>
      </trkpt>
      <trkpt lat="45.97758" lon="4.79815">
        <ele>223</ele>
        <time>2017-04-05T09:58:36Z</time>
      </trkpt>
      <trkpt lat="45.9775" lon="4.79816">
        <ele>223</ele>
        <time>2017-04-05T09:58:37Z</time>
      </trkpt>
      <trkpt lat="45.97743" lon="4.79817">
        <ele>223</ele>
        <time>2017-04-05T09:58:38Z</time>
      </trkpt>
      <trkpt lat="45.97735" lon="4.79818">
        <ele>223</ele>
        <time>2017-04-05T09:58:39Z</time>
      </trkpt>
      <trkpt lat="45.97728" lon="4.79818">
        <ele>223</ele>
        <time>2017-04-05T09:58:40Z</time>
      </trkpt>
      <trkpt lat="45.9772" lon="4.79819">
        <ele>223</ele>
        <time>2017-04-05T09:58:41Z</time>
      </trkpt>
      <trkpt lat="45.97713" lon="4.7982">
        <ele>223</ele>
        <time>2017-04-05T09:58:42Z</time>
      </trkpt>
      <trkpt lat="45.97706" lon="4.79822">
        <ele>223</ele>
        <time>2017-04-05T09:58:43Z</time>
      </trkpt>
      <trkpt lat="45.97699" lon="4.79823">
        <ele>223</ele>
        <time>2017-04-05T09:58:44Z</time>
      </trkpt>
      <trkpt lat="45.97693" lon="4.79824">
        <ele>223</ele>
        <time>2017-04-05T09:58:45Z</time>
      </trkpt>
      <trkpt lat="45.97686" lon="4.79825">
        <ele>223</ele>
        <time>2017-04-05T09:58:46Z</time>
      </trkpt>
      <trkpt lat="45.9768" lon="4.79827">
        <ele>223</ele>
        <time>2017-04-05T09:58:47Z</time>
      </trkpt>
      <trkpt lat="45.97674" lon="4.79829">
        <ele>222</ele>
        <time>2017-04-05T09:58:48Z</time>
      </trkpt>
      <trkpt lat="45.97669" lon="4.79831">
        <ele>222</ele>
        <time>2017-04-05T09:58:49Z</time>
      </trkpt>
      <trkpt lat="45.97662" lon="4.79833">
        <ele>222</ele>
        <time>2017-04-05T09:58:50Z</time>
      </trkpt>
      <trkpt lat="45.97656" lon="4.79835">
        <ele>221</ele>
        <time>2017-04-05T09:58:51Z</time>
      </trkpt>
      <trkpt lat="45.9765" lon="4.79837">
        <ele>221</ele>
        <time>2017-04-05T09:58:52Z</time>
      </trkpt>
      <trkpt lat="45.97643" lon="4.79839">
        <ele>221</ele>
        <time>2017-04-05T09:58:53Z</time>
      </trkpt>
      <trkpt lat="45.97637" lon="4.79841">
        <ele>221</ele>
        <time>2017-04-05T09:58:54Z</time>
      </trkpt>
      <trkpt lat="45.9763" lon="4.79843">
        <ele>221</ele>
        <time>2017-04-05T09:58:55Z</time>
      </trkpt>
      <trkpt lat="45.97623" lon="4.79846">
        <ele>221</ele>
        <time>2017-04-05T09:58:56Z</time>
      </trkpt>
      <trkpt lat="45.97616" lon="4.79848">
        <ele>221</ele>
        <time>2017-04-05T09:58:57Z</time>
      </trkpt>
      <trkpt lat="45.97609" lon="4.79851">
        <ele>221</ele>
        <time>2017-04-05T09:58:58Z</time>
      </trkpt>
      <trkpt lat="45.97602" lon="4.79854">
        <ele>221</ele>
        <time>2017-04-05T09:58:59Z</time>
      </trkpt>
      <trkpt lat="45.97596" lon="4.79857">
        <ele>221</ele>
        <time>2017-04-05T09:59:00Z</time>
      </trkpt>
      <trkpt lat="45.97589" lon="4.79859">
        <ele>221</ele>
        <time>2017-04-05T09:59:01Z</time>
      </trkpt>
      <trkpt lat="45.97581" lon="4.79862">
        <ele>222</ele>
        <time>2017-04-05T09:59:02Z</time>
      </trkpt>
      <trkpt lat="45.97574" lon="4.79864">
        <ele>222</ele>
        <time>2017-04-05T09:59:03Z</time>
      </trkpt>
      <trkpt lat="45.97566" lon="4.79867">
        <ele>222</ele>
        <time>2017-04-05T09:59:04Z</time>
      </trkpt>
      <trkpt lat="45.97559" lon="4.79869">
        <ele>222</ele>
        <time>2017-04-05T09:59:05Z</time>
      </trkpt>
      <trkpt lat="45.97551" lon="4.79872">
        <ele>222</ele>
        <time>2017-04-05T09:59:06Z</time>
      </trkpt>
      <trkpt lat="45.97542" lon="4.79874">
        <ele>222</ele>
        <time>2017-04-05T09:59:07Z</time>
      </trkpt>
      <trkpt lat="45.97534" lon="4.79876">
        <ele>222</ele>
        <time>2017-04-05T09:59:08Z</time>
      </trkpt>
      <trkpt lat="45.97525" lon="4.79877">
        <ele>222</ele>
        <time>2017-04-05T09:59:09Z</time>
      </trkpt>
      <trkpt lat="45.97516" lon="4.79878">
        <ele>222</ele>
        <time>2017-04-05T09:59:10Z</time>
      </trkpt>
      <trkpt lat="45.97506" lon="4.79879">
        <ele>222</ele>
        <time>2017-04-05T09:59:11Z</time>
      </trkpt>
      <trkpt lat="45.97496" lon="4.79881">
        <ele>221</ele>
        <time>2017-04-05T09:59:12Z</time>
      </trkpt>
      <trkpt lat="45.97487" lon="4.79882">
        <ele>221</ele>
        <time>2017-04-05T09:59:13Z</time>
      </trkpt>
      <trkpt lat="45.97476" lon="4.79882">
        <ele>221</ele>
        <time>2017-04-05T09:59:14Z</time>
      </trkpt>
      <trkpt lat="45.97466" lon="4.79882">
        <ele>221</ele>
        <time>2017-04-05T09:59:15Z</time>
      </trkpt>
      <trkpt lat="45.97456" lon="4.79882">
        <ele>221</ele>
        <time>2017-04-05T09:59:16Z</time>
      </trkpt>
      <trkpt lat="45.97445" lon="4.79881">
        <ele>221</ele>
        <time>2017-04-05T09:59:17Z</time>
      </trkpt>
      <trkpt lat="45.97434" lon="4.79882">
        <ele>220</ele>
        <time>2017-04-05T09:59:18Z</time>
      </trkpt>
      <trkpt lat="45.97424" lon="4.79883">
        <ele>220</ele>
        <time>2017-04-05T09:59:19Z</time>
      </trkpt>
      <trkpt lat="45.97414" lon="4.79884">
        <ele>218</ele>
        <time>2017-04-05T09:59:20Z</time>
      </trkpt>
      <trkpt lat="45.97404" lon="4.79886">
        <ele>218</ele>
        <time>2017-04-05T09:59:21Z</time>
      </trkpt>
      <trkpt lat="45.97394" lon="4.79888">
        <ele>218</ele>
        <time>2017-04-05T09:59:22Z</time>
      </trkpt>
      <trkpt lat="45.97384" lon="4.7989">
        <ele>217</ele>
        <time>2017-04-05T09:59:23Z</time>
      </trkpt>
      <trkpt lat="45.97374" lon="4.79892">
        <ele>217</ele>
        <time>2017-04-05T09:59:24Z</time>
      </trkpt>
      <trkpt lat="45.97364" lon="4.79894">
        <ele>217</ele>
        <time>2017-04-05T09:59:25Z</time>
      </trkpt>
      <trkpt lat="45.97353" lon="4.79897">
        <ele>216</ele>
        <time>2017-04-05T09:59:26Z</time>
      </trkpt>
      <trkpt lat="45.97343" lon="4.79898">
        <ele>216</ele>
        <time>2017-04-05T09:59:27Z</time>
      </trkpt>
      <trkpt lat="45.97332" lon="4.799">
        <ele>214</ele>
        <time>2017-04-05T09:59:28Z</time>
      </trkpt>
      <trkpt lat="45.97323" lon="4.79901">
        <ele>214</ele>
        <time>2017-04-05T09:59:29Z</time>
      </trkpt>
      <trkpt lat="45.97313" lon="4.79903">
        <ele>214</ele>
        <time>2017-04-05T09:59:30Z</time>
      </trkpt>
      <trkpt lat="45.97303" lon="4.79905">
        <ele>213</ele>
        <time>2017-04-05T09:59:31Z</time>
      </trkpt>
      <trkpt lat="45.97294" lon="4.79907">
        <ele>213</ele>
        <time>2017-04-05T09:59:32Z</time>
      </trkpt>
      <trkpt lat="45.97286" lon="4.79909">
        <ele>213</ele>
        <time>2017-04-05T09:59:33Z</time>
      </trkpt>
      <trkpt lat="45.97279" lon="4.7991">
        <ele>213</ele>
        <time>2017-04-05T09:59:34Z</time>
      </trkpt>
      <trkpt lat="45.97272" lon="4.79911">
        <ele>213</ele>
        <time>2017-04-05T09:59:35Z</time>
      </trkpt>
      <trkpt lat="45.97266" lon="4.79912">
        <ele>213</ele>
        <time>2017-04-05T09:59:36Z</time>
      </trkpt>
      <trkpt lat="45.97261" lon="4.79912">
        <ele>213</ele>
        <time>2017-04-05T09:59:37Z</time>
      </trkpt>
      <trkpt lat="45.97257" lon="4.7991">
        <ele>212</ele>
        <time>2017-04-05T09:59:38Z</time>
      </trkpt>
      <trkpt lat="45.97253" lon="4.79905">
        <ele>213</ele>
        <time>2017-04-05T09:59:39Z</time>
      </trkpt>
      <trkpt lat="45.9725" lon="4.79899">
        <ele>213</ele>
        <time>2017-04-05T09:59:40Z</time>
      </trkpt>
      <trkpt lat="45.97248" lon="4.79892">
        <ele>211</ele>
        <time>2017-04-05T09:59:41Z</time>
      </trkpt>
      <trkpt lat="45.97246" lon="4.79885">
        <ele>211</ele>
        <time>2017-04-05T09:59:42Z</time>
      </trkpt>
      <trkpt lat="45.97244" lon="4.79878">
        <ele>211</ele>
        <time>2017-04-05T09:59:43Z</time>
      </trkpt>
      <trkpt lat="45.97241" lon="4.7987">
        <ele>211</ele>
        <time>2017-04-05T09:59:44Z</time>
      </trkpt>
      <trkpt lat="45.97239" lon="4.79862">
        <ele>211</ele>
        <time>2017-04-05T09:59:45Z</time>
      </trkpt>
      <trkpt lat="45.97239" lon="4.79852">
        <ele>211</ele>
        <time>2017-04-05T09:59:46Z</time>
      </trkpt>
      <trkpt lat="45.97238" lon="4.79843">
        <ele>211</ele>
        <time>2017-04-05T09:59:47Z</time>
      </trkpt>
      <trkpt lat="45.97238" lon="4.79834">
        <ele>212</ele>
        <time>2017-04-05T09:59:48Z</time>
      </trkpt>
      <trkpt lat="45.97238" lon="4.79824">
        <ele>211</ele>
        <time>2017-04-05T09:59:49Z</time>
      </trkpt>
      <trkpt lat="45.97238" lon="4.79815">
        <ele>211</ele>
        <time>2017-04-05T09:59:50Z</time>
      </trkpt>
      <trkpt lat="45.97238" lon="4.79806">
        <ele>210</ele>
        <time>2017-04-05T09:59:51Z</time>
      </trkpt>
      <trkpt lat="45.97239" lon="4.79797">
        <ele>210</ele>
        <time>2017-04-05T09:59:52Z</time>
      </trkpt>
      <trkpt lat="45.9724" lon="4.79789">
        <ele>210</ele>
        <time>2017-04-05T09:59:53Z</time>
      </trkpt>
      <trkpt lat="45.9724" lon="4.79781">
        <ele>210</ele>
        <time>2017-04-05T09:59:54Z</time>
      </trkpt>
      <trkpt lat="45.9724" lon="4.79772">
        <ele>210</ele>
        <time>2017-04-05T09:59:55Z</time>
      </trkpt>
      <trkpt lat="45.9724" lon="4.79764">
        <ele>209</ele>
        <time>2017-04-05T09:59:56Z</time>
      </trkpt>
      <trkpt lat="45.97241" lon="4.79756">
        <ele>209</ele>
        <time>2017-04-05T09:59:57Z</time>
      </trkpt>
      <trkpt lat="45.97242" lon="4.79748">
        <ele>209</ele>
        <time>2017-04-05T09:59:58Z</time>
      </trkpt>
      <trkpt lat="45.97243" lon="4.7974">
        <ele>209</ele>
        <time>2017-04-05T09:59:59Z</time>
      </trkpt>
      <trkpt lat="45.97244" lon="4.79732">
        <ele>209</ele>
        <time>2017-04-05T10:00:00Z</time>
      </trkpt>
      <trkpt lat="45.97245" lon="4.79724">
        <ele>209</ele>
        <time>2017-04-05T10:00:01Z</time>
      </trkpt>
      <trkpt lat="45.97247" lon="4.79717">
        <ele>209</ele>
        <time>2017-04-05T10:00:02Z</time>
      </trkpt>
      <trkpt lat="45.97248" lon="4.79709">
        <ele>209</ele>
        <time>2017-04-05T10:00:03Z</time>
      </trkpt>
      <trkpt lat="45.97248" lon="4.79699">
        <ele>208</ele>
        <time>2017-04-05T10:00:04Z</time>
      </trkpt>
      <trkpt lat="45.97249" lon="4.7969">
        <ele>208</ele>
        <time>2017-04-05T10:00:05Z</time>
      </trkpt>
      <trkpt lat="45.9725" lon="4.7968">
        <ele>208</ele>
        <time>2017-04-05T10:00:06Z</time>
      </trkpt>
      <trkpt lat="45.97251" lon="4.79672">
        <ele>209</ele>
        <time>2017-04-05T10:00:07Z</time>
      </trkpt>
      <trkpt lat="45.97252" lon="4.79665">
        <ele>209</ele>
        <time>2017-04-05T10:00:08Z</time>
      </trkpt>
      <trkpt lat="45.97254" lon="4.79656">
        <ele>210</ele>
        <time>2017-04-05T10:00:09Z</time>
      </trkpt>
      <trkpt lat="45.97255" lon="4.79649">
        <ele>212</ele>
        <time>2017-04-05T10:00:10Z</time>
      </trkpt>
      <trkpt lat="45.97256" lon="4.79641">
        <ele>212</ele>
        <time>2017-04-05T10:00:11Z</time>
      </trkpt>
      <trkpt lat="45.97256" lon="4.79634">
        <ele>213</ele>
        <time>2017-04-05T10:00:12Z</time>
      </trkpt>
      <trkpt lat="45.97256" lon="4.79626">
        <ele>213</ele>
        <time>2017-04-05T10:00:13Z</time>
      </trkpt>
      <trkpt lat="45.97256" lon="4.79619">
        <ele>213</ele>
        <time>2017-04-05T10:00:14Z</time>
      </trkpt>
      <trkpt lat="45.97256" lon="4.79611">
        <ele>213</ele>
        <time>2017-04-05T10:00:15Z</time>
      </trkpt>
      <trkpt lat="45.97256" lon="4.79603">
        <ele>212</ele>
        <time>2017-04-05T10:00:16Z</time>
      </trkpt>
      <trkpt lat="45.97256" lon="4.79595">
        <ele>212</ele>
        <time>2017-04-05T10:00:17Z</time>
      </trkpt>
      <trkpt lat="45.97256" lon="4.79587">
        <ele>211</ele>
        <time>2017-04-05T10:00:18Z</time>
      </trkpt>
      <trkpt lat="45.97256" lon="4.7958">
        <ele>211</ele>
        <time>2017-04-05T10:00:19Z</time>
      </trkpt>
      <trkpt lat="45.97256" lon="4.79567">
        <ele>213</ele>
        <time>2017-04-05T10:00:21Z</time>
      </trkpt>
      <trkpt lat="45.97256" lon="4.79561">
        <ele>213</ele>
        <time>2017-04-05T10:00:22Z</time>
      </trkpt>
      <trkpt lat="45.97255" lon="4.79554">
        <ele>214</ele>
        <time>2017-04-05T10:00:23Z</time>
      </trkpt>
      <trkpt lat="45.97254" lon="4.79548">
        <ele>214</ele>
        <time>2017-04-05T10:00:24Z</time>
      </trkpt>
      <trkpt lat="45.97252" lon="4.79541">
        <ele>214</ele>
        <time>2017-04-05T10:00:25Z</time>
      </trkpt>
      <trkpt lat="45.97251" lon="4.79533">
        <ele>214</ele>
        <time>2017-04-05T10:00:26Z</time>
      </trkpt>
      <trkpt lat="45.97249" lon="4.79526">
        <ele>210</ele>
        <time>2017-04-05T10:00:27Z</time>
      </trkpt>
      <trkpt lat="45.97248" lon="4.79519">
        <ele>210</ele>
        <time>2017-04-05T10:00:28Z</time>
      </trkpt>
      <trkpt lat="45.97248" lon="4.79511">
        <ele>210</ele>
        <time>2017-04-05T10:00:29Z</time>
      </trkpt>
      <trkpt lat="45.97248" lon="4.79503">
        <ele>211</ele>
        <time>2017-04-05T10:00:30Z</time>
      </trkpt>
      <trkpt lat="45.97247" lon="4.79496">
        <ele>210</ele>
        <time>2017-04-05T10:00:31Z</time>
      </trkpt>
      <trkpt lat="45.97246" lon="4.79488">
        <ele>210</ele>
        <time>2017-04-05T10:00:32Z</time>
      </trkpt>
      <trkpt lat="45.97244" lon="4.7948">
        <ele>210</ele>
        <time>2017-04-05T10:00:33Z</time>
      </trkpt>
      <trkpt lat="45.97243" lon="4.79473">
        <ele>209</ele>
        <time>2017-04-05T10:00:34Z</time>
      </trkpt>
      <trkpt lat="45.97241" lon="4.79466">
        <ele>209</ele>
        <time>2017-04-05T10:00:35Z</time>
      </trkpt>
      <trkpt lat="45.97238" lon="4.7946">
        <ele>209</ele>
        <time>2017-04-05T10:00:36Z</time>
      </trkpt>
      <trkpt lat="45.97233" lon="4.79451">
        <ele>209</ele>
        <time>2017-04-05T10:00:39Z</time>
      </trkpt>
      <trkpt lat="45.97232" lon="4.79448">
        <ele>209</ele>
        <time>2017-04-05T10:00:40Z</time>
      </trkpt>
      <trkpt lat="45.97228" lon="4.79437">
        <ele>209</ele>
        <time>2017-04-05T10:00:43Z</time>
      </trkpt>
      <trkpt lat="45.97226" lon="4.79433">
        <ele>209</ele>
        <time>2017-04-05T10:00:44Z</time>
      </trkpt>
      <trkpt lat="45.97222" lon="4.79423">
        <ele>209</ele>
        <time>2017-04-05T10:00:46Z</time>
      </trkpt>
      <trkpt lat="45.9722" lon="4.79417">
        <ele>208</ele>
        <time>2017-04-05T10:00:47Z</time>
      </trkpt>
      <trkpt lat="45.97216" lon="4.79407">
        <ele>208</ele>
        <time>2017-04-05T10:00:49Z</time>
      </trkpt>
      <trkpt lat="45.97213" lon="4.79402">
        <ele>208</ele>
        <time>2017-04-05T10:00:50Z</time>
      </trkpt>
      <trkpt lat="45.9721" lon="4.7939">
        <ele>208</ele>
        <time>2017-04-05T10:00:52Z</time>
      </trkpt>
      <trkpt lat="45.97208" lon="4.79384">
        <ele>208</ele>
        <time>2017-04-05T10:00:53Z</time>
      </trkpt>
      <trkpt lat="45.97206" lon="4.79377">
        <ele>208</ele>
        <time>2017-04-05T10:00:54Z</time>
      </trkpt>
      <trkpt lat="45.97204" lon="4.7937">
        <ele>208</ele>
        <time>2017-04-05T10:00:55Z</time>
      </trkpt>
      <trkpt lat="45.97201" lon="4.79364">
        <ele>208</ele>
        <time>2017-04-05T10:00:56Z</time>
      </trkpt>
      <trkpt lat="45.97197" lon="4.79357">
        <ele>207</ele>
        <time>2017-04-05T10:00:57Z</time>
      </trkpt>
      <trkpt lat="45.97194" lon="4.79351">
        <ele>207</ele>
        <time>2017-04-05T10:00:58Z</time>
      </trkpt>
      <trkpt lat="45.9719" lon="4.79345">
        <ele>207</ele>
        <time>2017-04-05T10:00:59Z</time>
      </trkpt>
      <trkpt lat="45.97186" lon="4.79338">
        <ele>207</ele>
        <time>2017-04-05T10:01:00Z</time>
      </trkpt>
      <trkpt lat="45.97183" lon="4.79331">
        <ele>207</ele>
        <time>2017-04-05T10:01:01Z</time>
      </trkpt>
      <trkpt lat="45.97179" lon="4.79325">
        <ele>207</ele>
        <time>2017-04-05T10:01:02Z</time>
      </trkpt>
      <trkpt lat="45.97175" lon="4.79317">
        <ele>207</ele>
        <time>2017-04-05T10:01:03Z</time>
      </trkpt>
      <trkpt lat="45.97172" lon="4.79309">
        <ele>207</ele>
        <time>2017-04-05T10:01:04Z</time>
      </trkpt>
      <trkpt lat="45.97169" lon="4.79301">
        <ele>207</ele>
        <time>2017-04-05T10:01:05Z</time>
      </trkpt>
      <trkpt lat="45.97167" lon="4.79293">
        <ele>204</ele>
        <time>2017-04-05T10:01:06Z</time>
      </trkpt>
      <trkpt lat="45.97164" lon="4.79285">
        <ele>204</ele>
        <time>2017-04-05T10:01:07Z</time>
      </trkpt>
      <trkpt lat="45.97162" lon="4.79277">
        <ele>204</ele>
        <time>2017-04-05T10:01:08Z</time>
      </trkpt>
      <trkpt lat="45.9716" lon="4.79269">
        <ele>204</ele>
        <time>2017-04-05T10:01:09Z</time>
      </trkpt>
      <trkpt lat="45.97158" lon="4.79261">
        <ele>205</ele>
        <time>2017-04-05T10:01:10Z</time>
      </trkpt>
      <trkpt lat="45.97155" lon="4.79254">
        <ele>205</ele>
        <time>2017-04-05T10:01:11Z</time>
      </trkpt>
      <trkpt lat="45.97152" lon="4.79247">
        <ele>205</ele>
        <time>2017-04-05T10:01:12Z</time>
      </trkpt>
      <trkpt lat="45.97149" lon="4.7924">
        <ele>205</ele>
        <time>2017-04-05T10:01:13Z</time>
      </trkpt>
      <trkpt lat="45.97145" lon="4.79233">
        <ele>205</ele>
        <time>2017-04-05T10:01:14Z</time>
      </trkpt>
      <trkpt lat="45.97142" lon="4.79226">
        <ele>205</ele>
        <time>2017-04-05T10:01:15Z</time>
      </trkpt>
      <trkpt lat="45.97139" lon="4.79219">
        <ele>206</ele>
        <time>2017-04-05T10:01:16Z</time>
      </trkpt>
      <trkpt lat="45.97136" lon="4.79212">
        <ele>206</ele>
        <time>2017-04-05T10:01:17Z</time>
      </trkpt>
      <trkpt lat="45.97133" lon="4.79204">
        <ele>206</ele>
        <time>2017-04-05T10:01:18Z</time>
      </trkpt>
      <trkpt lat="45.97129" lon="4.79196">
        <ele>206</ele>
        <time>2017-04-05T10:01:19Z</time>
      </trkpt>
      <trkpt lat="45.97125" lon="4.79189">
        <ele>206</ele>
        <time>2017-04-05T10:01:20Z</time>
      </trkpt>
      <trkpt lat="45.97121" lon="4.79181">
        <ele>206</ele>
        <time>2017-04-05T10:01:21Z</time>
      </trkpt>
      <trkpt lat="45.97118" lon="4.79173">
        <ele>206</ele>
        <time>2017-04-05T10:01:22Z</time>
      </trkpt>
      <trkpt lat="45.97114" lon="4.79166">
        <ele>207</ele>
        <time>2017-04-05T10:01:23Z</time>
      </trkpt>
      <trkpt lat="45.97111" lon="4.79158">
        <ele>206</ele>
        <time>2017-04-05T10:01:24Z</time>
      </trkpt>
      <trkpt lat="45.97107" lon="4.7915">
        <ele>206</ele>
        <time>2017-04-05T10:01:25Z</time>
      </trkpt>
      <trkpt lat="45.97103" lon="4.79143">
        <ele>206</ele>
        <time>2017-04-05T10:01:26Z</time>
      </trkpt>
      <trkpt lat="45.97099" lon="4.79136">
        <ele>206</ele>
        <time>2017-04-05T10:01:27Z</time>
      </trkpt>
      <trkpt lat="45.97095" lon="4.7913">
        <ele>206</ele>
        <time>2017-04-05T10:01:28Z</time>
      </trkpt>
      <trkpt lat="45.97091" lon="4.79123">
        <ele>206</ele>
        <time>2017-04-05T10:01:29Z</time>
      </trkpt>
      <trkpt lat="45.97088" lon="4.79115">
        <ele>206</ele>
        <time>2017-04-05T10:01:30Z</time>
      </trkpt>
      <trkpt lat="45.97085" lon="4.79108">
        <ele>206</ele>
        <time>2017-04-05T10:01:31Z</time>
      </trkpt>
      <trkpt lat="45.97082" lon="4.791">
        <ele>204</ele>
        <time>2017-04-05T10:01:32Z</time>
      </trkpt>
      <trkpt lat="45.97081" lon="4.79092">
        <ele>204</ele>
        <time>2017-04-05T10:01:33Z</time>
      </trkpt>
      <trkpt lat="45.97079" lon="4.79084">
        <ele>204</ele>
        <time>2017-04-05T10:01:34Z</time>
      </trkpt>
      <trkpt lat="45.97077" lon="4.79076">
        <ele>204</ele>
        <time>2017-04-05T10:01:35Z</time>
      </trkpt>
      <trkpt lat="45.97074" lon="4.79067">
        <ele>204</ele>
        <time>2017-04-05T10:01:36Z</time>
      </trkpt>
      <trkpt lat="45.97072" lon="4.79059">
        <ele>203</ele>
        <time>2017-04-05T10:01:37Z</time>
      </trkpt>
      <trkpt lat="45.9707" lon="4.7905">
        <ele>203</ele>
        <time>2017-04-05T10:01:38Z</time>
      </trkpt>
      <trkpt lat="45.97066" lon="4.79042">
        <ele>203</ele>
        <time>2017-04-05T10:01:39Z</time>
      </trkpt>
      <trkpt lat="45.97064" lon="4.79034">
        <ele>203</ele>
        <time>2017-04-05T10:01:40Z</time>
      </trkpt>
      <trkpt lat="45.97062" lon="4.79025">
        <ele>203</ele>
        <time>2017-04-05T10:01:41Z</time>
      </trkpt>
      <trkpt lat="45.97059" lon="4.79017">
        <ele>203</ele>
        <time>2017-04-05T10:01:42Z</time>
      </trkpt>
      <trkpt lat="45.97056" lon="4.79008">
        <ele>203</ele>
        <time>2017-04-05T10:01:43Z</time>
      </trkpt>
      <trkpt lat="45.97054" lon="4.79">
        <ele>203</ele>
        <time>2017-04-05T10:01:44Z</time>
      </trkpt>
      <trkpt lat="45.97051" lon="4.78993">
        <ele>205</ele>
        <time>2017-04-05T10:01:45Z</time>
      </trkpt>
      <trkpt lat="45.97048" lon="4.78985">
        <ele>205</ele>
        <time>2017-04-05T10:01:46Z</time>
      </trkpt>
      <trkpt lat="45.97046" lon="4.78977">
        <ele>205</ele>
        <time>2017-04-05T10:01:47Z</time>
      </trkpt>
      <trkpt lat="45.97043" lon="4.7897">
        <ele>205</ele>
        <time>2017-04-05T10:01:48Z</time>
      </trkpt>
      <trkpt lat="45.97039" lon="4.78962">
        <ele>205</ele>
        <time>2017-04-05T10:01:49Z</time>
      </trkpt>
      <trkpt lat="45.97036" lon="4.78955">
        <ele>205</ele>
        <time>2017-04-05T10:01:50Z</time>
      </trkpt>
      <trkpt lat="45.97032" lon="4.78948">
        <ele>205</ele>
        <time>2017-04-05T10:01:51Z</time>
      </trkpt>
      <trkpt lat="45.97028" lon="4.78942">
        <ele>205</ele>
        <time>2017-04-05T10:01:52Z</time>
      </trkpt>
      <trkpt lat="45.97023" lon="4.78935">
        <ele>205</ele>
        <time>2017-04-05T10:01:53Z</time>
      </trkpt>
      <trkpt lat="45.97019" lon="4.78929">
        <ele>205</ele>
        <time>2017-04-05T10:01:54Z</time>
      </trkpt>
      <trkpt lat="45.97014" lon="4.78922">
        <ele>205</ele>
        <time>2017-04-05T10:01:55Z</time>
      </trkpt>
      <trkpt lat="45.97008" lon="4.78916">
        <ele>205</ele>
        <time>2017-04-05T10:01:56Z</time>
      </trkpt>
      <trkpt lat="45.97002" lon="4.78909">
        <ele>205</ele>
        <time>2017-04-05T10:01:57Z</time>
      </trkpt>
      <trkpt lat="45.96997" lon="4.78902">
        <ele>204</ele>
        <time>2017-04-05T10:01:58Z</time>
      </trkpt>
      <trkpt lat="45.96991" lon="4.78896">
        <ele>203</ele>
        <time>2017-04-05T10:01:59Z</time>
      </trkpt>
      <trkpt lat="45.96986" lon="4.7889">
        <ele>203</ele>
        <time>2017-04-05T10:02:00Z</time>
      </trkpt>
      <trkpt lat="45.96981" lon="4.78883">
        <ele>203</ele>
        <time>2017-04-05T10:02:01Z</time>
      </trkpt>
      <trkpt lat="45.96976" lon="4.78877">
        <ele>203</ele>
        <time>2017-04-05T10:02:02Z</time>
      </trkpt>
      <trkpt lat="45.96972" lon="4.7887">
        <ele>203</ele>
        <time>2017-04-05T10:02:03Z</time>
      </trkpt>
      <trkpt lat="45.96967" lon="4.78864">
        <ele>203</ele>
        <time>2017-04-05T10:02:04Z</time>
      </trkpt>
      <trkpt lat="45.96962" lon="4.78858">
        <ele>203</ele>
        <time>2017-04-05T10:02:05Z</time>
      </trkpt>
      <trkpt lat="45.96957" lon="4.78852">
        <ele>203</ele>
        <time>2017-04-05T10:02:06Z</time>
      </trkpt>
      <trkpt lat="45.96952" lon="4.78847">
        <ele>203</ele>
        <time>2017-04-05T10:02:07Z</time>
      </trkpt>
      <trkpt lat="45.96946" lon="4.78841">
        <ele>202</ele>
        <time>2017-04-05T10:02:08Z</time>
      </trkpt>
      <trkpt lat="45.96942" lon="4.78835">
        <ele>202</ele>
        <time>2017-04-05T10:02:09Z</time>
      </trkpt>
      <trkpt lat="45.96938" lon="4.78829">
        <ele>202</ele>
        <time>2017-04-05T10:02:10Z</time>
      </trkpt>
      <trkpt lat="45.96934" lon="4.78822">
        <ele>202</ele>
        <time>2017-04-05T10:02:11Z</time>
      </trkpt>
      <trkpt lat="45.96929" lon="4.78816">
        <ele>202</ele>
        <time>2017-04-05T10:02:12Z</time>
      </trkpt>
      <trkpt lat="45.96925" lon="4.78809">
        <ele>203</ele>
        <time>2017-04-05T10:02:13Z</time>
      </trkpt>
      <trkpt lat="45.96921" lon="4.78803">
        <ele>203</ele>
        <time>2017-04-05T10:02:14Z</time>
      </trkpt>
      <trkpt lat="45.96917" lon="4.78796">
        <ele>203</ele>
        <time>2017-04-05T10:02:15Z</time>
      </trkpt>
      <trkpt lat="45.96913" lon="4.7879">
        <ele>201</ele>
        <time>2017-04-05T10:02:16Z</time>
      </trkpt>
      <trkpt lat="45.96909" lon="4.78783">
        <ele>201</ele>
        <time>2017-04-05T10:02:17Z</time>
      </trkpt>
      <trkpt lat="45.96905" lon="4.78776">
        <ele>201</ele>
        <time>2017-04-05T10:02:18Z</time>
      </trkpt>
      <trkpt lat="45.96902" lon="4.78769">
        <ele>201</ele>
        <time>2017-04-05T10:02:19Z</time>
      </trkpt>
      <trkpt lat="45.96898" lon="4.78761">
        <ele>201</ele>
        <time>2017-04-05T10:02:20Z</time>
      </trkpt>
      <trkpt lat="45.96894" lon="4.78753">
        <ele>201</ele>
        <time>2017-04-05T10:02:21Z</time>
      </trkpt>
      <trkpt lat="45.9689" lon="4.78745">
        <ele>202</ele>
        <time>2017-04-05T10:02:22Z</time>
      </trkpt>
      <trkpt lat="45.96887" lon="4.78737">
        <ele>202</ele>
        <time>2017-04-05T10:02:23Z</time>
      </trkpt>
      <trkpt lat="45.96883" lon="4.78729">
        <ele>202</ele>
        <time>2017-04-05T10:02:24Z</time>
      </trkpt>
      <trkpt lat="45.96879" lon="4.78721">
        <ele>202</ele>
        <time>2017-04-05T10:02:25Z</time>
      </trkpt>
      <trkpt lat="45.96875" lon="4.78713">
        <ele>202</ele>
        <time>2017-04-05T10:02:26Z</time>
      </trkpt>
      <trkpt lat="45.96871" lon="4.78706">
        <ele>202</ele>
        <time>2017-04-05T10:02:27Z</time>
      </trkpt>
      <trkpt lat="45.96867" lon="4.78698">
        <ele>202</ele>
        <time>2017-04-05T10:02:28Z</time>
      </trkpt>
      <trkpt lat="45.96863" lon="4.78691">
        <ele>202</ele>
        <time>2017-04-05T10:02:29Z</time>
      </trkpt>
      <trkpt lat="45.9686" lon="4.78683">
        <ele>202</ele>
        <time>2017-04-05T10:02:30Z</time>
      </trkpt>
      <trkpt lat="45.96856" lon="4.78675">
        <ele>202</ele>
        <time>2017-04-05T10:02:31Z</time>
      </trkpt>
      <trkpt lat="45.96853" lon="4.78667">
        <ele>202</ele>
        <time>2017-04-05T10:02:32Z</time>
      </trkpt>
      <trkpt lat="45.9685" lon="4.7866">
        <ele>203</ele>
        <time>2017-04-05T10:02:33Z</time>
      </trkpt>
      <trkpt lat="45.96847" lon="4.78652">
        <ele>203</ele>
        <time>2017-04-05T10:02:34Z</time>
      </trkpt>
      <trkpt lat="45.96844" lon="4.78645">
        <ele>203</ele>
        <time>2017-04-05T10:02:35Z</time>
      </trkpt>
      <trkpt lat="45.9684" lon="4.78637">
        <ele>203</ele>
        <time>2017-04-05T10:02:36Z</time>
      </trkpt>
      <trkpt lat="45.96837" lon="4.7863">
        <ele>203</ele>
        <time>2017-04-05T10:02:37Z</time>
      </trkpt>
      <trkpt lat="45.96833" lon="4.78622">
        <ele>201</ele>
        <time>2017-04-05T10:02:38Z</time>
      </trkpt>
      <trkpt lat="45.9683" lon="4.78615">
        <ele>202</ele>
        <time>2017-04-05T10:02:39Z</time>
      </trkpt>
      <trkpt lat="45.96827" lon="4.78608">
        <ele>202</ele>
        <time>2017-04-05T10:02:40Z</time>
      </trkpt>
      <trkpt lat="45.96824" lon="4.786">
        <ele>202</ele>
        <time>2017-04-05T10:02:41Z</time>
      </trkpt>
      <trkpt lat="45.96822" lon="4.78592">
        <ele>202</ele>
        <time>2017-04-05T10:02:42Z</time>
      </trkpt>
      <trkpt lat="45.96819" lon="4.78585">
        <ele>202</ele>
        <time>2017-04-05T10:02:43Z</time>
      </trkpt>
      <trkpt lat="45.96816" lon="4.78579">
        <ele>203</ele>
        <time>2017-04-05T10:02:44Z</time>
      </trkpt>
      <trkpt lat="45.96812" lon="4.78572">
        <ele>203</ele>
        <time>2017-04-05T10:02:45Z</time>
      </trkpt>
      <trkpt lat="45.96808" lon="4.78565">
        <ele>203</ele>
        <time>2017-04-05T10:02:46Z</time>
      </trkpt>
      <trkpt lat="45.96804" lon="4.78558">
        <ele>203</ele>
        <time>2017-04-05T10:02:47Z</time>
      </trkpt>
      <trkpt lat="45.96799" lon="4.7855">
        <ele>203</ele>
        <time>2017-04-05T10:02:48Z</time>
      </trkpt>
      <trkpt lat="45.96794" lon="4.78543">
        <ele>203</ele>
        <time>2017-04-05T10:02:49Z</time>
      </trkpt>
      <trkpt lat="45.9679" lon="4.78535">
        <ele>203</ele>
        <time>2017-04-05T10:02:50Z</time>
      </trkpt>
      <trkpt lat="45.96785" lon="4.78528">
        <ele>203</ele>
        <time>2017-04-05T10:02:51Z</time>
      </trkpt>
      <trkpt lat="45.96781" lon="4.7852">
        <ele>203</ele>
        <time>2017-04-05T10:02:52Z</time>
      </trkpt>
      <trkpt lat="45.96777" lon="4.78513">
        <ele>203</ele>
        <time>2017-04-05T10:02:53Z</time>
      </trkpt>
      <trkpt lat="45.96773" lon="4.78505">
        <ele>203</ele>
        <time>2017-04-05T10:02:54Z</time>
      </trkpt>
      <trkpt lat="45.96768" lon="4.78498">
        <ele>205</ele>
        <time>2017-04-05T10:02:55Z</time>
      </trkpt>
      <trkpt lat="45.96764" lon="4.7849">
        <ele>205</ele>
        <time>2017-04-05T10:02:56Z</time>
      </trkpt>
      <trkpt lat="45.96759" lon="4.78484">
        <ele>205</ele>
        <time>2017-04-05T10:02:57Z</time>
      </trkpt>
      <trkpt lat="45.96754" lon="4.78479">
        <ele>205</ele>
        <time>2017-04-05T10:02:58Z</time>
      </trkpt>
      <trkpt lat="45.96749" lon="4.78474">
        <ele>203</ele>
        <time>2017-04-05T10:02:59Z</time>
      </trkpt>
      <trkpt lat="45.96744" lon="4.78469">
        <ele>203</ele>
        <time>2017-04-05T10:03:00Z</time>
      </trkpt>
      <trkpt lat="45.96739" lon="4.78465">
        <ele>203</ele>
        <time>2017-04-05T10:03:01Z</time>
      </trkpt>
      <trkpt lat="45.96733" lon="4.78461">
        <ele>203</ele>
        <time>2017-04-05T10:03:02Z</time>
      </trkpt>
      <trkpt lat="45.96728" lon="4.78456">
        <ele>203</ele>
        <time>2017-04-05T10:03:03Z</time>
      </trkpt>
      <trkpt lat="45.96723" lon="4.78452">
        <ele>203</ele>
        <time>2017-04-05T10:03:04Z</time>
      </trkpt>
      <trkpt lat="45.96718" lon="4.78447">
        <ele>203</ele>
        <time>2017-04-05T10:03:05Z</time>
      </trkpt>
      <trkpt lat="45.96713" lon="4.78442">
        <ele>203</ele>
        <time>2017-04-05T10:03:06Z</time>
      </trkpt>
      <trkpt lat="45.96708" lon="4.78437">
        <ele>203</ele>
        <time>2017-04-05T10:03:07Z</time>
      </trkpt>
      <trkpt lat="45.96703" lon="4.78432">
        <ele>203</ele>
        <time>2017-04-05T10:03:08Z</time>
      </trkpt>
      <trkpt lat="45.96699" lon="4.78427">
        <ele>203</ele>
        <time>2017-04-05T10:03:09Z</time>
      </trkpt>
      <trkpt lat="45.96694" lon="4.78422">
        <ele>202</ele>
        <time>2017-04-05T10:03:10Z</time>
      </trkpt>
      <trkpt lat="45.96689" lon="4.78417">
        <ele>202</ele>
        <time>2017-04-05T10:03:11Z</time>
      </trkpt>
      <trkpt lat="45.96684" lon="4.78413">
        <ele>204</ele>
        <time>2017-04-05T10:03:12Z</time>
      </trkpt>
      <trkpt lat="45.9668" lon="4.78408">
        <ele>204</ele>
        <time>2017-04-05T10:03:13Z</time>
      </trkpt>
      <trkpt lat="45.96675" lon="4.78403">
        <ele>204</ele>
        <time>2017-04-05T10:03:14Z</time>
      </trkpt>
      <trkpt lat="45.96671" lon="4.78398">
        <ele>204</ele>
        <time>2017-04-05T10:03:15Z</time>
      </trkpt>
      <trkpt lat="45.96667" lon="4.78392">
        <ele>201</ele>
        <time>2017-04-05T10:03:16Z</time>
      </trkpt>
      <trkpt lat="45.96662" lon="4.78387">
        <ele>201</ele>
        <time>2017-04-05T10:03:17Z</time>
      </trkpt>
      <trkpt lat="45.96657" lon="4.78382">
        <ele>201</ele>
        <time>2017-04-05T10:03:18Z</time>
      </trkpt>
      <trkpt lat="45.96652" lon="4.78378">
        <ele>201</ele>
        <time>2017-04-05T10:03:19Z</time>
      </trkpt>
      <trkpt lat="45.96646" lon="4.78373">
        <ele>201</ele>
        <time>2017-04-05T10:03:20Z</time>
      </trkpt>
      <trkpt lat="45.96641" lon="4.78368">
        <ele>201</ele>
        <time>2017-04-05T10:03:21Z</time>
      </trkpt>
      <trkpt lat="45.96636" lon="4.78363">
        <ele>201</ele>
        <time>2017-04-05T10:03:22Z</time>
      </trkpt>
      <trkpt lat="45.96631" lon="4.78358">
        <ele>201</ele>
        <time>2017-04-05T10:03:23Z</time>
      </trkpt>
      <trkpt lat="45.96626" lon="4.78354">
        <ele>201</ele>
        <time>2017-04-05T10:03:24Z</time>
      </trkpt>
      <trkpt lat="45.96621" lon="4.78349">
        <ele>201</ele>
        <time>2017-04-05T10:03:25Z</time>
      </trkpt>
      <trkpt lat="45.96616" lon="4.78344">
        <ele>201</ele>
        <time>2017-04-05T10:03:26Z</time>
      </trkpt>
      <trkpt lat="45.9661" lon="4.78339">
        <ele>200</ele>
        <time>2017-04-05T10:03:27Z</time>
      </trkpt>
      <trkpt lat="45.96605" lon="4.78334">
        <ele>200</ele>
        <time>2017-04-05T10:03:28Z</time>
      </trkpt>
      <trkpt lat="45.966" lon="4.78328">
        <ele>202</ele>
        <time>2017-04-05T10:03:29Z</time>
      </trkpt>
      <trkpt lat="45.96595" lon="4.78323">
        <ele>202</ele>
        <time>2017-04-05T10:03:30Z</time>
      </trkpt>
      <trkpt lat="45.9659" lon="4.78318">
        <ele>202</ele>
        <time>2017-04-05T10:03:31Z</time>
      </trkpt>
      <trkpt lat="45.96585" lon="4.78313">
        <ele>203</ele>
        <time>2017-04-05T10:03:32Z</time>
      </trkpt>
      <trkpt lat="45.9658" lon="4.78309">
        <ele>200</ele>
        <time>2017-04-05T10:03:33Z</time>
      </trkpt>
      <trkpt lat="45.96575" lon="4.78304">
        <ele>200</ele>
        <time>2017-04-05T10:03:34Z</time>
      </trkpt>
      <trkpt lat="45.9657" lon="4.78299">
        <ele>200</ele>
        <time>2017-04-05T10:03:35Z</time>
      </trkpt>
      <trkpt lat="45.96566" lon="4.78294">
        <ele>200</ele>
        <time>2017-04-05T10:03:36Z</time>
      </trkpt>
      <trkpt lat="45.96563" lon="4.78289">
        <ele>200</ele>
        <time>2017-04-05T10:03:37Z</time>
      </trkpt>
      <trkpt lat="45.96558" lon="4.78284">
        <ele>200</ele>
        <time>2017-04-05T10:03:38Z</time>
      </trkpt>
      <trkpt lat="45.96553" lon="4.78278">
        <ele>200</ele>
        <time>2017-04-05T10:03:39Z</time>
      </trkpt>
      <trkpt lat="45.96549" lon="4.78272">
        <ele>200</ele>
        <time>2017-04-05T10:03:40Z</time>
      </trkpt>
      <trkpt lat="45.96544" lon="4.78265">
        <ele>200</ele>
        <time>2017-04-05T10:03:41Z</time>
      </trkpt>
      <trkpt lat="45.96539" lon="4.78258">
        <ele>200</ele>
        <time>2017-04-05T10:03:42Z</time>
      </trkpt>
      <trkpt lat="45.96534" lon="4.78251">
        <ele>200</ele>
        <time>2017-04-05T10:03:43Z</time>
      </trkpt>
      <trkpt lat="45.96529" lon="4.78243">
        <ele>204</ele>
        <time>2017-04-05T10:03:44Z</time>
      </trkpt>
      <trkpt lat="45.96524" lon="4.78235">
        <ele>204</ele>
        <time>2017-04-05T10:03:45Z</time>
      </trkpt>
      <trkpt lat="45.9652" lon="4.78227">
        <ele>204</ele>
        <time>2017-04-05T10:03:46Z</time>
      </trkpt>
      <trkpt lat="45.96515" lon="4.78221">
        <ele>204</ele>
        <time>2017-04-05T10:03:47Z</time>
      </trkpt>
      <trkpt lat="45.9651" lon="4.78214">
        <ele>205</ele>
        <time>2017-04-05T10:03:48Z</time>
      </trkpt>
      <trkpt lat="45.96505" lon="4.78207">
        <ele>205</ele>
        <time>2017-04-05T10:03:49Z</time>
      </trkpt>
      <trkpt lat="45.965" lon="4.78201">
        <ele>200</ele>
        <time>2017-04-05T10:03:50Z</time>
      </trkpt>
      <trkpt lat="45.96494" lon="4.78196">
        <ele>201</ele>
        <time>2017-04-05T10:03:51Z</time>
      </trkpt>
      <trkpt lat="45.96487" lon="4.78192">
        <ele>201</ele>
        <time>2017-04-05T10:03:52Z</time>
      </trkpt>
      <trkpt lat="45.9648" lon="4.78188">
        <ele>201</ele>
        <time>2017-04-05T10:03:53Z</time>
      </trkpt>
      <trkpt lat="45.96473" lon="4.78184">
        <ele>200</ele>
        <time>2017-04-05T10:03:54Z</time>
      </trkpt>
      <trkpt lat="45.96465" lon="4.7818">
        <ele>200</ele>
        <time>2017-04-05T10:03:55Z</time>
      </trkpt>
      <trkpt lat="45.96459" lon="4.78174">
        <ele>200</ele>
        <time>2017-04-05T10:03:56Z</time>
      </trkpt>
      <trkpt lat="45.96453" lon="4.78169">
        <ele>200</ele>
        <time>2017-04-05T10:03:57Z</time>
      </trkpt>
      <trkpt lat="45.96447" lon="4.78163">
        <ele>203</ele>
        <time>2017-04-05T10:03:58Z</time>
      </trkpt>
      <trkpt lat="45.96441" lon="4.78158">
        <ele>203</ele>
        <time>2017-04-05T10:03:59Z</time>
      </trkpt>
      <trkpt lat="45.96433" lon="4.78153">
        <ele>202</ele>
        <time>2017-04-05T10:04:00Z</time>
      </trkpt>
      <trkpt lat="45.96427" lon="4.78147">
        <ele>202</ele>
        <time>2017-04-05T10:04:01Z</time>
      </trkpt>
      <trkpt lat="45.96422" lon="4.78142">
        <ele>203</ele>
        <time>2017-04-05T10:04:02Z</time>
      </trkpt>
      <trkpt lat="45.96418" lon="4.78136">
        <ele>203</ele>
        <time>2017-04-05T10:04:03Z</time>
      </trkpt>
      <trkpt lat="45.96413" lon="4.78131">
        <ele>199</ele>
        <time>2017-04-05T10:04:04Z</time>
      </trkpt>
      <trkpt lat="45.96409" lon="4.78126">
        <ele>200</ele>
        <time>2017-04-05T10:04:05Z</time>
      </trkpt>
      <trkpt lat="45.96404" lon="4.78122">
        <ele>200</ele>
        <time>2017-04-05T10:04:06Z</time>
      </trkpt>
      <trkpt lat="45.964" lon="4.78118">
        <ele>200</ele>
        <time>2017-04-05T10:04:07Z</time>
      </trkpt>
      <trkpt lat="45.96395" lon="4.78113">
        <ele>200</ele>
        <time>2017-04-05T10:04:08Z</time>
      </trkpt>
      <trkpt lat="45.9639" lon="4.78108">
        <ele>200</ele>
        <time>2017-04-05T10:04:09Z</time>
      </trkpt>
      <trkpt lat="45.96386" lon="4.78103">
        <ele>200</ele>
        <time>2017-04-05T10:04:10Z</time>
      </trkpt>
      <trkpt lat="45.96381" lon="4.78098">
        <ele>200</ele>
        <time>2017-04-05T10:04:11Z</time>
      </trkpt>
      <trkpt lat="45.96376" lon="4.78093">
        <ele>200</ele>
        <time>2017-04-05T10:04:12Z</time>
      </trkpt>
      <trkpt lat="45.96371" lon="4.78088">
        <ele>200</ele>
        <time>2017-04-05T10:04:13Z</time>
      </trkpt>
      <trkpt lat="45.96363" lon="4.78083">
        <ele>202</ele>
        <time>2017-04-05T10:04:14Z</time>
      </trkpt>
      <trkpt lat="45.96355" lon="4.78078">
        <ele>202</ele>
        <time>2017-04-05T10:04:15Z</time>
      </trkpt>
      <trkpt lat="45.96348" lon="4.78072">
        <ele>201</ele>
        <time>2017-04-05T10:04:16Z</time>
      </trkpt>
      <trkpt lat="45.96342" lon="4.78066">
        <ele>201</ele>
        <time>2017-04-05T10:04:17Z</time>
      </trkpt>
      <trkpt lat="45.96336" lon="4.78059">
        <ele>202</ele>
        <time>2017-04-05T10:04:18Z</time>
      </trkpt>
      <trkpt lat="45.96331" lon="4.78052">
        <ele>199</ele>
        <time>2017-04-05T10:04:19Z</time>
      </trkpt>
      <trkpt lat="45.96326" lon="4.78045">
        <ele>199</ele>
        <time>2017-04-05T10:04:20Z</time>
      </trkpt>
      <trkpt lat="45.96321" lon="4.78038">
        <ele>199</ele>
        <time>2017-04-05T10:04:21Z</time>
      </trkpt>
      <trkpt lat="45.96316" lon="4.78032">
        <ele>200</ele>
        <time>2017-04-05T10:04:22Z</time>
      </trkpt>
      <trkpt lat="45.96311" lon="4.78025">
        <ele>200</ele>
        <time>2017-04-05T10:04:23Z</time>
      </trkpt>
      <trkpt lat="45.96306" lon="4.78019">
        <ele>200</ele>
        <time>2017-04-05T10:04:24Z</time>
      </trkpt>
      <trkpt lat="45.96301" lon="4.78013">
        <ele>200</ele>
        <time>2017-04-05T10:04:25Z</time>
      </trkpt>
      <trkpt lat="45.96295" lon="4.78008">
        <ele>199</ele>
        <time>2017-04-05T10:04:26Z</time>
      </trkpt>
      <trkpt lat="45.96289" lon="4.78003">
        <ele>199</ele>
        <time>2017-04-05T10:04:27Z</time>
      </trkpt>
      <trkpt lat="45.96285" lon="4.77998">
        <ele>203</ele>
        <time>2017-04-05T10:04:28Z</time>
      </trkpt>
      <trkpt lat="45.96279" lon="4.77993">
        <ele>203</ele>
        <time>2017-04-05T10:04:29Z</time>
      </trkpt>
      <trkpt lat="45.96274" lon="4.77989">
        <ele>203</ele>
        <time>2017-04-05T10:04:30Z</time>
      </trkpt>
      <trkpt lat="45.9627" lon="4.77984">
        <ele>203</ele>
        <time>2017-04-05T10:04:31Z</time>
      </trkpt>
      <trkpt lat="45.96265" lon="4.77979">
        <ele>203</ele>
        <time>2017-04-05T10:04:32Z</time>
      </trkpt>
      <trkpt lat="45.9626" lon="4.77974">
        <ele>203</ele>
        <time>2017-04-05T10:04:33Z</time>
      </trkpt>
      <trkpt lat="45.96254" lon="4.77969">
        <ele>203</ele>
        <time>2017-04-05T10:04:34Z</time>
      </trkpt>
      <trkpt lat="45.96249" lon="4.77965">
        <ele>199</ele>
        <time>2017-04-05T10:04:35Z</time>
      </trkpt>
      <trkpt lat="45.96244" lon="4.7796">
        <ele>199</ele>
        <time>2017-04-05T10:04:36Z</time>
      </trkpt>
      <trkpt lat="45.9624" lon="4.77955">
        <ele>199</ele>
        <time>2017-04-05T10:04:37Z</time>
      </trkpt>
      <trkpt lat="45.96236" lon="4.77951">
        <ele>200</ele>
        <time>2017-04-05T10:04:38Z</time>
      </trkpt>
      <trkpt lat="45.96232" lon="4.77946">
        <ele>200</ele>
        <time>2017-04-05T10:04:39Z</time>
      </trkpt>
      <trkpt lat="45.96229" lon="4.77941">
        <ele>200</ele>
        <time>2017-04-05T10:04:40Z</time>
      </trkpt>
      <trkpt lat="45.96225" lon="4.77936">
        <ele>200</ele>
        <time>2017-04-05T10:04:41Z</time>
      </trkpt>
      <trkpt lat="45.96221" lon="4.7793">
        <ele>200</ele>
        <time>2017-04-05T10:04:42Z</time>
      </trkpt>
      <trkpt lat="45.96217" lon="4.77924">
        <ele>200</ele>
        <time>2017-04-05T10:04:43Z</time>
      </trkpt>
      <trkpt lat="45.96212" lon="4.77918">
        <ele>199</ele>
        <time>2017-04-05T10:04:44Z</time>
      </trkpt>
      <trkpt lat="45.96207" lon="4.77913">
        <ele>202</ele>
        <time>2017-04-05T10:04:45Z</time>
      </trkpt>
      <trkpt lat="45.96203" lon="4.77906">
        <ele>202</ele>
        <time>2017-04-05T10:04:46Z</time>
      </trkpt>
      <trkpt lat="45.96198" lon="4.779">
        <ele>201</ele>
        <time>2017-04-05T10:04:47Z</time>
      </trkpt>
      <trkpt lat="45.96195" lon="4.77892">
        <ele>201</ele>
        <time>2017-04-05T10:04:48Z</time>
      </trkpt>
      <trkpt lat="45.96191" lon="4.77885">
        <ele>201</ele>
        <time>2017-04-05T10:04:49Z</time>
      </trkpt>
      <trkpt lat="45.96187" lon="4.77878">
        <ele>201</ele>
        <time>2017-04-05T10:04:50Z</time>
      </trkpt>
      <trkpt lat="45.96183" lon="4.77871">
        <ele>201</ele>
        <time>2017-04-05T10:04:51Z</time>
      </trkpt>
      <trkpt lat="45.96179" lon="4.77864">
        <ele>201</ele>
        <time>2017-04-05T10:04:52Z</time>
      </trkpt>
      <trkpt lat="45.96174" lon="4.77858">
        <ele>201</ele>
        <time>2017-04-05T10:04:53Z</time>
      </trkpt>
      <trkpt lat="45.9617" lon="4.77851">
        <ele>201</ele>
        <time>2017-04-05T10:04:54Z</time>
      </trkpt>
      <trkpt lat="45.96166" lon="4.77845">
        <ele>197</ele>
        <time>2017-04-05T10:04:55Z</time>
      </trkpt>
      <trkpt lat="45.96162" lon="4.77838">
        <ele>198</ele>
        <time>2017-04-05T10:04:56Z</time>
      </trkpt>
      <trkpt lat="45.96158" lon="4.77832">
        <ele>198</ele>
        <time>2017-04-05T10:04:57Z</time>
      </trkpt>
      <trkpt lat="45.96153" lon="4.77826">
        <ele>198</ele>
        <time>2017-04-05T10:04:58Z</time>
      </trkpt>
      <trkpt lat="45.96149" lon="4.7782">
        <ele>198</ele>
        <time>2017-04-05T10:04:59Z</time>
      </trkpt>
      <trkpt lat="45.96146" lon="4.77814">
        <ele>198</ele>
        <time>2017-04-05T10:05:00Z</time>
      </trkpt>
      <trkpt lat="45.96142" lon="4.77808">
        <ele>198</ele>
        <time>2017-04-05T10:05:01Z</time>
      </trkpt>
      <trkpt lat="45.96139" lon="4.77802">
        <ele>198</ele>
        <time>2017-04-05T10:05:02Z</time>
      </trkpt>
      <trkpt lat="45.96136" lon="4.77796">
        <ele>198</ele>
        <time>2017-04-05T10:05:03Z</time>
      </trkpt>
      <trkpt lat="45.96132" lon="4.7779">
        <ele>198</ele>
        <time>2017-04-05T10:05:04Z</time>
      </trkpt>
      <trkpt lat="45.96129" lon="4.77783">
        <ele>198</ele>
        <time>2017-04-05T10:05:05Z</time>
      </trkpt>
      <trkpt lat="45.96125" lon="4.77776">
        <ele>197</ele>
        <time>2017-04-05T10:05:06Z</time>
      </trkpt>
      <trkpt lat="45.96121" lon="4.77769">
        <ele>197</ele>
        <time>2017-04-05T10:05:07Z</time>
      </trkpt>
      <trkpt lat="45.96118" lon="4.77762">
        <ele>197</ele>
        <time>2017-04-05T10:05:08Z</time>
      </trkpt>
      <trkpt lat="45.96114" lon="4.77755">
        <ele>197</ele>
        <time>2017-04-05T10:05:09Z</time>
      </trkpt>
      <trkpt lat="45.9611" lon="4.77748">
        <ele>199</ele>
        <time>2017-04-05T10:05:10Z</time>
      </trkpt>
      <trkpt lat="45.96106" lon="4.77741">
        <ele>199</ele>
        <time>2017-04-05T10:05:11Z</time>
      </trkpt>
      <trkpt lat="45.96101" lon="4.77733">
        <ele>199</ele>
        <time>2017-04-05T10:05:12Z</time>
      </trkpt>
      <trkpt lat="45.96097" lon="4.77726">
        <ele>199</ele>
        <time>2017-04-05T10:05:13Z</time>
      </trkpt>
      <trkpt lat="45.96092" lon="4.77718">
        <ele>199</ele>
        <time>2017-04-05T10:05:14Z</time>
      </trkpt>
      <trkpt lat="45.96087" lon="4.7771">
        <ele>200</ele>
        <time>2017-04-05T10:05:15Z</time>
      </trkpt>
      <trkpt lat="45.96082" lon="4.77703">
        <ele>197</ele>
        <time>2017-04-05T10:05:16Z</time>
      </trkpt>
      <trkpt lat="45.96077" lon="4.77695">
        <ele>197</ele>
        <time>2017-04-05T10:05:17Z</time>
      </trkpt>
      <trkpt lat="45.96072" lon="4.77687">
        <ele>198</ele>
        <time>2017-04-05T10:05:18Z</time>
      </trkpt>
      <trkpt lat="45.96068" lon="4.7768">
        <ele>198</ele>
        <time>2017-04-05T10:05:19Z</time>
      </trkpt>
      <trkpt lat="45.96062" lon="4.77673">
        <ele>198</ele>
        <time>2017-04-05T10:05:20Z</time>
      </trkpt>
      <trkpt lat="45.96057" lon="4.77666">
        <ele>200</ele>
        <time>2017-04-05T10:05:21Z</time>
      </trkpt>
      <trkpt lat="45.96051" lon="4.77659">
        <ele>200</ele>
        <time>2017-04-05T10:05:22Z</time>
      </trkpt>
      <trkpt lat="45.96046" lon="4.77652">
        <ele>199</ele>
        <time>2017-04-05T10:05:23Z</time>
      </trkpt>
      <trkpt lat="45.96041" lon="4.77645">
        <ele>199</ele>
        <time>2017-04-05T10:05:24Z</time>
      </trkpt>
      <trkpt lat="45.96036" lon="4.77639">
        <ele>199</ele>
        <time>2017-04-05T10:05:25Z</time>
      </trkpt>
      <trkpt lat="45.96031" lon="4.77632">
        <ele>199</ele>
        <time>2017-04-05T10:05:26Z</time>
      </trkpt>
      <trkpt lat="45.96026" lon="4.77626">
        <ele>199</ele>
        <time>2017-04-05T10:05:27Z</time>
      </trkpt>
      <trkpt lat="45.9602" lon="4.77619">
        <ele>199</ele>
        <time>2017-04-05T10:05:28Z</time>
      </trkpt>
      <trkpt lat="45.96015" lon="4.77612">
        <ele>199</ele>
        <time>2017-04-05T10:05:29Z</time>
      </trkpt>
      <trkpt lat="45.9601" lon="4.77606">
        <ele>199</ele>
        <time>2017-04-05T10:05:30Z</time>
      </trkpt>
      <trkpt lat="45.96005" lon="4.77601">
        <ele>198</ele>
        <time>2017-04-05T10:05:31Z</time>
      </trkpt>
      <trkpt lat="45.96" lon="4.77595">
        <ele>198</ele>
        <time>2017-04-05T10:05:32Z</time>
      </trkpt>
      <trkpt lat="45.95996" lon="4.77589">
        <ele>196</ele>
        <time>2017-04-05T10:05:33Z</time>
      </trkpt>
      <trkpt lat="45.95993" lon="4.77582">
        <ele>196</ele>
        <time>2017-04-05T10:05:34Z</time>
      </trkpt>
      <trkpt lat="45.95989" lon="4.77574">
        <ele>196</ele>
        <time>2017-04-05T10:05:35Z</time>
      </trkpt>
      <trkpt lat="45.95986" lon="4.77567">
        <ele>196</ele>
        <time>2017-04-05T10:05:36Z</time>
      </trkpt>
      <trkpt lat="45.95983" lon="4.7756">
        <ele>196</ele>
        <time>2017-04-05T10:05:37Z</time>
      </trkpt>
      <trkpt lat="45.95981" lon="4.77553">
        <ele>196</ele>
        <time>2017-04-05T10:05:38Z</time>
      </trkpt>
      <trkpt lat="45.95979" lon="4.77546">
        <ele>196</ele>
        <time>2017-04-05T10:05:39Z</time>
      </trkpt>
      <trkpt lat="45.95976" lon="4.7754">
        <ele>196</ele>
        <time>2017-04-05T10:05:40Z</time>
      </trkpt>
      <trkpt lat="45.95973" lon="4.77534">
        <ele>196</ele>
        <time>2017-04-05T10:05:41Z</time>
      </trkpt>
      <trkpt lat="45.9597" lon="4.77527">
        <ele>196</ele>
        <time>2017-04-05T10:05:42Z</time>
      </trkpt>
      <trkpt lat="45.95966" lon="4.77521">
        <ele>195</ele>
        <time>2017-04-05T10:05:43Z</time>
      </trkpt>
      <trkpt lat="45.95962" lon="4.77514">
        <ele>195</ele>
        <time>2017-04-05T10:05:44Z</time>
      </trkpt>
      <trkpt lat="45.95959" lon="4.77506">
        <ele>195</ele>
        <time>2017-04-05T10:05:45Z</time>
      </trkpt>
      <trkpt lat="45.95956" lon="4.77499">
        <ele>196</ele>
        <time>2017-04-05T10:05:46Z</time>
      </trkpt>
      <trkpt lat="45.95951" lon="4.7749">
        <ele>195</ele>
        <time>2017-04-05T10:05:47Z</time>
      </trkpt>
      <trkpt lat="45.95947" lon="4.77482">
        <ele>195</ele>
        <time>2017-04-05T10:05:48Z</time>
      </trkpt>
      <trkpt lat="45.95944" lon="4.77473">
        <ele>195</ele>
        <time>2017-04-05T10:05:49Z</time>
      </trkpt>
      <trkpt lat="45.9594" lon="4.77465">
        <ele>195</ele>
        <time>2017-04-05T10:05:50Z</time>
      </trkpt>
      <trkpt lat="45.95937" lon="4.77456">
        <ele>195</ele>
        <time>2017-04-05T10:05:51Z</time>
      </trkpt>
      <trkpt lat="45.95933" lon="4.77448">
        <ele>195</ele>
        <time>2017-04-05T10:05:52Z</time>
      </trkpt>
      <trkpt lat="45.9593" lon="4.77439">
        <ele>195</ele>
        <time>2017-04-05T10:05:53Z</time>
      </trkpt>
      <trkpt lat="45.95927" lon="4.77431">
        <ele>195</ele>
        <time>2017-04-05T10:05:54Z</time>
      </trkpt>
      <trkpt lat="45.95924" lon="4.77422">
        <ele>195</ele>
        <time>2017-04-05T10:05:55Z</time>
      </trkpt>
      <trkpt lat="45.95921" lon="4.77414">
        <ele>195</ele>
        <time>2017-04-05T10:05:56Z</time>
      </trkpt>
      <trkpt lat="45.95918" lon="4.77405">
        <ele>195</ele>
        <time>2017-04-05T10:05:57Z</time>
      </trkpt>
      <trkpt lat="45.95915" lon="4.77396">
        <ele>193</ele>
        <time>2017-04-05T10:05:58Z</time>
      </trkpt>
      <trkpt lat="45.95912" lon="4.77387">
        <ele>193</ele>
        <time>2017-04-05T10:05:59Z</time>
      </trkpt>
      <trkpt lat="45.95909" lon="4.77379">
        <ele>193</ele>
        <time>2017-04-05T10:06:00Z</time>
      </trkpt>
      <trkpt lat="45.95906" lon="4.7737">
        <ele>193</ele>
        <time>2017-04-05T10:06:01Z</time>
      </trkpt>
      <trkpt lat="45.95904" lon="4.77362">
        <ele>193</ele>
        <time>2017-04-05T10:06:02Z</time>
      </trkpt>
      <trkpt lat="45.95901" lon="4.77354">
        <ele>193</ele>
        <time>2017-04-05T10:06:03Z</time>
      </trkpt>
      <trkpt lat="45.95898" lon="4.77346">
        <ele>193</ele>
        <time>2017-04-05T10:06:04Z</time>
      </trkpt>
      <trkpt lat="45.95895" lon="4.77338">
        <ele>193</ele>
        <time>2017-04-05T10:06:05Z</time>
      </trkpt>
      <trkpt lat="45.95893" lon="4.7733">
        <ele>193</ele>
        <time>2017-04-05T10:06:06Z</time>
      </trkpt>
      <trkpt lat="45.9589" lon="4.77323">
        <ele>193</ele>
        <time>2017-04-05T10:06:07Z</time>
      </trkpt>
      <trkpt lat="45.95887" lon="4.77314">
        <ele>193</ele>
        <time>2017-04-05T10:06:08Z</time>
      </trkpt>
      <trkpt lat="45.95885" lon="4.77305">
        <ele>193</ele>
        <time>2017-04-05T10:06:09Z</time>
      </trkpt>
      <trkpt lat="45.95883" lon="4.77295">
        <ele>193</ele>
        <time>2017-04-05T10:06:10Z</time>
      </trkpt>
      <trkpt lat="45.95881" lon="4.77286">
        <ele>193</ele>
        <time>2017-04-05T10:06:11Z</time>
      </trkpt>
      <trkpt lat="45.95879" lon="4.77275">
        <ele>193</ele>
        <time>2017-04-05T10:06:12Z</time>
      </trkpt>
      <trkpt lat="45.95877" lon="4.77265">
        <ele>193</ele>
        <time>2017-04-05T10:06:13Z</time>
      </trkpt>
      <trkpt lat="45.95875" lon="4.77254">
        <ele>193</ele>
        <time>2017-04-05T10:06:14Z</time>
      </trkpt>
      <trkpt lat="45.95872" lon="4.77243">
        <ele>193</ele>
        <time>2017-04-05T10:06:15Z</time>
      </trkpt>
      <trkpt lat="45.9587" lon="4.77232">
        <ele>193</ele>
        <time>2017-04-05T10:06:16Z</time>
      </trkpt>
      <trkpt lat="45.95868" lon="4.77222">
        <ele>193</ele>
        <time>2017-04-05T10:06:17Z</time>
      </trkpt>
      <trkpt lat="45.95866" lon="4.77211">
        <ele>193</ele>
        <time>2017-04-05T10:06:18Z</time>
      </trkpt>
      <trkpt lat="45.95864" lon="4.77201">
        <ele>193</ele>
        <time>2017-04-05T10:06:19Z</time>
      </trkpt>
      <trkpt lat="45.95862" lon="4.77192">
        <ele>192</ele>
        <time>2017-04-05T10:06:20Z</time>
      </trkpt>
      <trkpt lat="45.95859" lon="4.77182">
        <ele>192</ele>
        <time>2017-04-05T10:06:21Z</time>
      </trkpt>
      <trkpt lat="45.95857" lon="4.77173">
        <ele>192</ele>
        <time>2017-04-05T10:06:22Z</time>
      </trkpt>
      <trkpt lat="45.95854" lon="4.77164">
        <ele>192</ele>
        <time>2017-04-05T10:06:23Z</time>
      </trkpt>
      <trkpt lat="45.95852" lon="4.77155">
        <ele>192</ele>
        <time>2017-04-05T10:06:24Z</time>
      </trkpt>
      <trkpt lat="45.95849" lon="4.77146">
        <ele>192</ele>
        <time>2017-04-05T10:06:25Z</time>
      </trkpt>
      <trkpt lat="45.95847" lon="4.77137">
        <ele>193</ele>
        <time>2017-04-05T10:06:26Z</time>
      </trkpt>
      <trkpt lat="45.95844" lon="4.77128">
        <ele>193</ele>
        <time>2017-04-05T10:06:27Z</time>
      </trkpt>
      <trkpt lat="45.95842" lon="4.77119">
        <ele>193</ele>
        <time>2017-04-05T10:06:28Z</time>
      </trkpt>
      <trkpt lat="45.9584" lon="4.7711">
        <ele>193</ele>
        <time>2017-04-05T10:06:29Z</time>
      </trkpt>
      <trkpt lat="45.95837" lon="4.77102">
        <ele>193</ele>
        <time>2017-04-05T10:06:30Z</time>
      </trkpt>
      <trkpt lat="45.95834" lon="4.77094">
        <ele>193</ele>
        <time>2017-04-05T10:06:31Z</time>
      </trkpt>
      <trkpt lat="45.95831" lon="4.77085">
        <ele>192</ele>
        <time>2017-04-05T10:06:32Z</time>
      </trkpt>
      <trkpt lat="45.95829" lon="4.77077">
        <ele>191</ele>
        <time>2017-04-05T10:06:33Z</time>
      </trkpt>
      <trkpt lat="45.95826" lon="4.77069">
        <ele>191</ele>
        <time>2017-04-05T10:06:34Z</time>
      </trkpt>
      <trkpt lat="45.95823" lon="4.77061">
        <ele>190</ele>
        <time>2017-04-05T10:06:35Z</time>
      </trkpt>
      <trkpt lat="45.95819" lon="4.77053">
        <ele>190</ele>
        <time>2017-04-05T10:06:36Z</time>
      </trkpt>
      <trkpt lat="45.95816" lon="4.77046">
        <ele>190</ele>
        <time>2017-04-05T10:06:37Z</time>
      </trkpt>
      <trkpt lat="45.95813" lon="4.77038">
        <ele>190</ele>
        <time>2017-04-05T10:06:38Z</time>
      </trkpt>
      <trkpt lat="45.95809" lon="4.77031">
        <ele>190</ele>
        <time>2017-04-05T10:06:39Z</time>
      </trkpt>
      <trkpt lat="45.95806" lon="4.77023">
        <ele>190</ele>
        <time>2017-04-05T10:06:40Z</time>
      </trkpt>
      <trkpt lat="45.95804" lon="4.77014">
        <ele>190</ele>
        <time>2017-04-05T10:06:41Z</time>
      </trkpt>
      <trkpt lat="45.95802" lon="4.77005">
        <ele>190</ele>
        <time>2017-04-05T10:06:42Z</time>
      </trkpt>
      <trkpt lat="45.95801" lon="4.76996">
        <ele>189</ele>
        <time>2017-04-05T10:06:43Z</time>
      </trkpt>
      <trkpt lat="45.958" lon="4.76986">
        <ele>189</ele>
        <time>2017-04-05T10:06:44Z</time>
      </trkpt>
      <trkpt lat="45.95801" lon="4.76976">
        <ele>189</ele>
        <time>2017-04-05T10:06:45Z</time>
      </trkpt>
      <trkpt lat="45.95801" lon="4.76967">
        <ele>189</ele>
        <time>2017-04-05T10:06:46Z</time>
      </trkpt>
      <trkpt lat="45.95803" lon="4.76958">
        <ele>189</ele>
        <time>2017-04-05T10:06:47Z</time>
      </trkpt>
      <trkpt lat="45.95804" lon="4.76949">
        <ele>189</ele>
        <time>2017-04-05T10:06:48Z</time>
      </trkpt>
      <trkpt lat="45.95806" lon="4.7694">
        <ele>189</ele>
        <time>2017-04-05T10:06:49Z</time>
      </trkpt>
      <trkpt lat="45.95808" lon="4.76932">
        <ele>189</ele>
        <time>2017-04-05T10:06:50Z</time>
      </trkpt>
      <trkpt lat="45.9581" lon="4.76924">
        <ele>189</ele>
        <time>2017-04-05T10:06:51Z</time>
      </trkpt>
      <trkpt lat="45.95811" lon="4.76916">
        <ele>189</ele>
        <time>2017-04-05T10:06:52Z</time>
      </trkpt>
      <trkpt lat="45.95813" lon="4.76908">
        <ele>189</ele>
        <time>2017-04-05T10:06:53Z</time>
      </trkpt>
      <trkpt lat="45.95815" lon="4.76901">
        <ele>189</ele>
        <time>2017-04-05T10:06:54Z</time>
      </trkpt>
      <trkpt lat="45.95816" lon="4.76893">
        <ele>189</ele>
        <time>2017-04-05T10:06:55Z</time>
      </trkpt>
      <trkpt lat="45.95817" lon="4.76886">
        <ele>189</ele>
        <time>2017-04-05T10:06:56Z</time>
      </trkpt>
      <trkpt lat="45.95818" lon="4.76879">
        <ele>189</ele>
        <time>2017-04-05T10:06:57Z</time>
      </trkpt>
      <trkpt lat="45.9582" lon="4.76872">
        <ele>189</ele>
        <time>2017-04-05T10:06:58Z</time>
      </trkpt>
      <trkpt lat="45.95821" lon="4.76865">
        <ele>189</ele>
        <time>2017-04-05T10:06:59Z</time>
      </trkpt>
      <trkpt lat="45.95822" lon="4.76859">
        <ele>189</ele>
        <time>2017-04-05T10:07:00Z</time>
      </trkpt>
      <trkpt lat="45.95824" lon="4.76853">
        <ele>189</ele>
        <time>2017-04-05T10:07:01Z</time>
      </trkpt>
      <trkpt lat="45.95825" lon="4.76847">
        <ele>190</ele>
        <time>2017-04-05T10:07:02Z</time>
      </trkpt>
      <trkpt lat="45.95826" lon="4.7684">
        <ele>190</ele>
        <time>2017-04-05T10:07:03Z</time>
      </trkpt>
      <trkpt lat="45.95827" lon="4.76834">
        <ele>190</ele>
        <time>2017-04-05T10:07:04Z</time>
      </trkpt>
      <trkpt lat="45.95828" lon="4.76827">
        <ele>190</ele>
        <time>2017-04-05T10:07:05Z</time>
      </trkpt>
      <trkpt lat="45.95829" lon="4.7682">
        <ele>190</ele>
        <time>2017-04-05T10:07:06Z</time>
      </trkpt>
      <trkpt lat="45.95831" lon="4.76814">
        <ele>190</ele>
        <time>2017-04-05T10:07:07Z</time>
      </trkpt>
      <trkpt lat="45.95834" lon="4.76803">
        <ele>191</ele>
        <time>2017-04-05T10:07:09Z</time>
      </trkpt>
      <trkpt lat="45.95835" lon="4.76798">
        <ele>191</ele>
        <time>2017-04-05T10:07:10Z</time>
      </trkpt>
      <trkpt lat="45.95836" lon="4.76786">
        <ele>191</ele>
        <time>2017-04-05T10:07:12Z</time>
      </trkpt>
      <trkpt lat="45.95834" lon="4.76781">
        <ele>191</ele>
        <time>2017-04-05T10:07:13Z</time>
      </trkpt>
      <trkpt lat="45.95832" lon="4.76775">
        <ele>190</ele>
        <time>2017-04-05T10:07:14Z</time>
      </trkpt>
      <trkpt lat="45.95829" lon="4.76768">
        <ele>190</ele>
        <time>2017-04-05T10:07:15Z</time>
      </trkpt>
      <trkpt lat="45.95828" lon="4.76761">
        <ele>191</ele>
        <time>2017-04-05T10:07:16Z</time>
      </trkpt>
      <trkpt lat="45.95827" lon="4.76753">
        <ele>191</ele>
        <time>2017-04-05T10:07:17Z</time>
      </trkpt>
      <trkpt lat="45.95825" lon="4.76745">
        <ele>190</ele>
        <time>2017-04-05T10:07:18Z</time>
      </trkpt>
      <trkpt lat="45.95824" lon="4.76737">
        <ele>190</ele>
        <time>2017-04-05T10:07:19Z</time>
      </trkpt>
      <trkpt lat="45.95823" lon="4.76728">
        <ele>190</ele>
        <time>2017-04-05T10:07:20Z</time>
      </trkpt>
      <trkpt lat="45.95821" lon="4.7672">
        <ele>189</ele>
        <time>2017-04-05T10:07:21Z</time>
      </trkpt>
      <trkpt lat="45.9582" lon="4.76712">
        <ele>189</ele>
        <time>2017-04-05T10:07:22Z</time>
      </trkpt>
      <trkpt lat="45.95819" lon="4.76704">
        <ele>189</ele>
        <time>2017-04-05T10:07:23Z</time>
      </trkpt>
      <trkpt lat="45.95818" lon="4.76696">
        <ele>189</ele>
        <time>2017-04-05T10:07:24Z</time>
      </trkpt>
      <trkpt lat="45.95817" lon="4.76689">
        <ele>189</ele>
        <time>2017-04-05T10:07:25Z</time>
      </trkpt>
      <trkpt lat="45.95816" lon="4.76681">
        <ele>189</ele>
        <time>2017-04-05T10:07:26Z</time>
      </trkpt>
      <trkpt lat="45.95815" lon="4.76672">
        <ele>189</ele>
        <time>2017-04-05T10:07:27Z</time>
      </trkpt>
      <trkpt lat="45.95813" lon="4.76664">
        <ele>188</ele>
        <time>2017-04-05T10:07:28Z</time>
      </trkpt>
      <trkpt lat="45.95812" lon="4.76656">
        <ele>188</ele>
        <time>2017-04-05T10:07:29Z</time>
      </trkpt>
      <trkpt lat="45.9581" lon="4.76648">
        <ele>188</ele>
        <time>2017-04-05T10:07:30Z</time>
      </trkpt>
      <trkpt lat="45.95809" lon="4.7664">
        <ele>188</ele>
        <time>2017-04-05T10:07:31Z</time>
      </trkpt>
      <trkpt lat="45.95808" lon="4.76632">
        <ele>188</ele>
        <time>2017-04-05T10:07:32Z</time>
      </trkpt>
      <trkpt lat="45.95806" lon="4.76624">
        <ele>188</ele>
        <time>2017-04-05T10:07:33Z</time>
      </trkpt>
      <trkpt lat="45.95805" lon="4.76616">
        <ele>188</ele>
        <time>2017-04-05T10:07:34Z</time>
      </trkpt>
      <trkpt lat="45.95804" lon="4.76608">
        <ele>188</ele>
        <time>2017-04-05T10:07:35Z</time>
      </trkpt>
      <trkpt lat="45.95802" lon="4.76601">
        <ele>187</ele>
        <time>2017-04-05T10:07:36Z</time>
      </trkpt>
      <trkpt lat="45.95801" lon="4.76594">
        <ele>187</ele>
        <time>2017-04-05T10:07:37Z</time>
      </trkpt>
      <trkpt lat="45.958" lon="4.76586">
        <ele>187</ele>
        <time>2017-04-05T10:07:38Z</time>
      </trkpt>
      <trkpt lat="45.95799" lon="4.76578">
        <ele>187</ele>
        <time>2017-04-05T10:07:39Z</time>
      </trkpt>
      <trkpt lat="45.95798" lon="4.76571">
        <ele>187</ele>
        <time>2017-04-05T10:07:40Z</time>
      </trkpt>
      <trkpt lat="45.95797" lon="4.76563">
        <ele>187</ele>
        <time>2017-04-05T10:07:41Z</time>
      </trkpt>
      <trkpt lat="45.95796" lon="4.76555">
        <ele>187</ele>
        <time>2017-04-05T10:07:42Z</time>
      </trkpt>
      <trkpt lat="45.95795" lon="4.76548">
        <ele>187</ele>
        <time>2017-04-05T10:07:43Z</time>
      </trkpt>
      <trkpt lat="45.95793" lon="4.7654">
        <ele>187</ele>
        <time>2017-04-05T10:07:44Z</time>
      </trkpt>
      <trkpt lat="45.95792" lon="4.76532">
        <ele>187</ele>
        <time>2017-04-05T10:07:45Z</time>
      </trkpt>
      <trkpt lat="45.95791" lon="4.76525">
        <ele>187</ele>
        <time>2017-04-05T10:07:46Z</time>
      </trkpt>
      <trkpt lat="45.9579" lon="4.76518">
        <ele>187</ele>
        <time>2017-04-05T10:07:47Z</time>
      </trkpt>
      <trkpt lat="45.95789" lon="4.76511">
        <ele>187</ele>
        <time>2017-04-05T10:07:48Z</time>
      </trkpt>
      <trkpt lat="45.95788" lon="4.76504">
        <ele>187</ele>
        <time>2017-04-05T10:07:49Z</time>
      </trkpt>
      <trkpt lat="45.95787" lon="4.76498">
        <ele>186</ele>
        <time>2017-04-05T10:07:50Z</time>
      </trkpt>
      <trkpt lat="45.95786" lon="4.76491">
        <ele>186</ele>
        <time>2017-04-05T10:07:51Z</time>
      </trkpt>
      <trkpt lat="45.95785" lon="4.76485">
        <ele>186</ele>
        <time>2017-04-05T10:07:52Z</time>
      </trkpt>
      <trkpt lat="45.95784" lon="4.76478">
        <ele>186</ele>
        <time>2017-04-05T10:07:53Z</time>
      </trkpt>
      <trkpt lat="45.95783" lon="4.76472">
        <ele>186</ele>
        <time>2017-04-05T10:07:54Z</time>
      </trkpt>
      <trkpt lat="45.95782" lon="4.76465">
        <ele>186</ele>
        <time>2017-04-05T10:07:55Z</time>
      </trkpt>
      <trkpt lat="45.95781" lon="4.76459">
        <ele>186</ele>
        <time>2017-04-05T10:07:56Z</time>
      </trkpt>
      <trkpt lat="45.95781" lon="4.76452">
        <ele>186</ele>
        <time>2017-04-05T10:07:57Z</time>
      </trkpt>
      <trkpt lat="45.9578" lon="4.76445">
        <ele>186</ele>
        <time>2017-04-05T10:07:58Z</time>
      </trkpt>
      <trkpt lat="45.95779" lon="4.76438">
        <ele>186</ele>
        <time>2017-04-05T10:07:59Z</time>
      </trkpt>
      <trkpt lat="45.95778" lon="4.76431">
        <ele>186</ele>
        <time>2017-04-05T10:08:00Z</time>
      </trkpt>
      <trkpt lat="45.95777" lon="4.76424">
        <ele>186</ele>
        <time>2017-04-05T10:08:01Z</time>
      </trkpt>
      <trkpt lat="45.95777" lon="4.76417">
        <ele>186</ele>
        <time>2017-04-05T10:08:02Z</time>
      </trkpt>
      <trkpt lat="45.95776" lon="4.7641">
        <ele>186</ele>
        <time>2017-04-05T10:08:03Z</time>
      </trkpt>
      <trkpt lat="45.95775" lon="4.76403">
        <ele>186</ele>
        <time>2017-04-05T10:08:04Z</time>
      </trkpt>
      <trkpt lat="45.95774" lon="4.76395">
        <ele>186</ele>
        <time>2017-04-05T10:08:05Z</time>
      </trkpt>
      <trkpt lat="45.95774" lon="4.76387">
        <ele>186</ele>
        <time>2017-04-05T10:08:06Z</time>
      </trkpt>
      <trkpt lat="45.95773" lon="4.76379">
        <ele>186</ele>
        <time>2017-04-05T10:08:07Z</time>
      </trkpt>
      <trkpt lat="45.95773" lon="4.76372">
        <ele>186</ele>
        <time>2017-04-05T10:08:08Z</time>
      </trkpt>
      <trkpt lat="45.95772" lon="4.76364">
        <ele>186</ele>
        <time>2017-04-05T10:08:09Z</time>
      </trkpt>
      <trkpt lat="45.95772" lon="4.76356">
        <ele>186</ele>
        <time>2017-04-05T10:08:10Z</time>
      </trkpt>
      <trkpt lat="45.95771" lon="4.76349">
        <ele>186</ele>
        <time>2017-04-05T10:08:11Z</time>
      </trkpt>
      <trkpt lat="45.95771" lon="4.76341">
        <ele>186</ele>
        <time>2017-04-05T10:08:12Z</time>
      </trkpt>
      <trkpt lat="45.9577" lon="4.76334">
        <ele>186</ele>
        <time>2017-04-05T10:08:13Z</time>
      </trkpt>
      <trkpt lat="45.9577" lon="4.76326">
        <ele>185</ele>
        <time>2017-04-05T10:08:14Z</time>
      </trkpt>
      <trkpt lat="45.9577" lon="4.76319">
        <ele>185</ele>
        <time>2017-04-05T10:08:15Z</time>
      </trkpt>
      <trkpt lat="45.95769" lon="4.76311">
        <ele>185</ele>
        <time>2017-04-05T10:08:16Z</time>
      </trkpt>
      <trkpt lat="45.95769" lon="4.76302">
        <ele>186</ele>
        <time>2017-04-05T10:08:17Z</time>
      </trkpt>
      <trkpt lat="45.95769" lon="4.76294">
        <ele>186</ele>
        <time>2017-04-05T10:08:18Z</time>
      </trkpt>
      <trkpt lat="45.95768" lon="4.76285">
        <ele>186</ele>
        <time>2017-04-05T10:08:19Z</time>
      </trkpt>
      <trkpt lat="45.95768" lon="4.76277">
        <ele>186</ele>
        <time>2017-04-05T10:08:20Z</time>
      </trkpt>
      <trkpt lat="45.95768" lon="4.76269">
        <ele>186</ele>
        <time>2017-04-05T10:08:21Z</time>
      </trkpt>
      <trkpt lat="45.95767" lon="4.76261">
        <ele>185</ele>
        <time>2017-04-05T10:08:22Z</time>
      </trkpt>
      <trkpt lat="45.95767" lon="4.76254">
        <ele>185</ele>
        <time>2017-04-05T10:08:23Z</time>
      </trkpt>
      <trkpt lat="45.95766" lon="4.76247">
        <ele>186</ele>
        <time>2017-04-05T10:08:24Z</time>
      </trkpt>
      <trkpt lat="45.95766" lon="4.7624">
        <ele>186</ele>
        <time>2017-04-05T10:08:25Z</time>
      </trkpt>
      <trkpt lat="45.95765" lon="4.76233">
        <ele>186</ele>
        <time>2017-04-05T10:08:26Z</time>
      </trkpt>
      <trkpt lat="45.95765" lon="4.76226">
        <ele>186</ele>
        <time>2017-04-05T10:08:27Z</time>
      </trkpt>
      <trkpt lat="45.95764" lon="4.76218">
        <ele>186</ele>
        <time>2017-04-05T10:08:28Z</time>
      </trkpt>
      <trkpt lat="45.95764" lon="4.76211">
        <ele>186</ele>
        <time>2017-04-05T10:08:29Z</time>
      </trkpt>
      <trkpt lat="45.95764" lon="4.76204">
        <ele>186</ele>
        <time>2017-04-05T10:08:30Z</time>
      </trkpt>
      <trkpt lat="45.95764" lon="4.76197">
        <ele>186</ele>
        <time>2017-04-05T10:08:31Z</time>
      </trkpt>
      <trkpt lat="45.95763" lon="4.76189">
        <ele>186</ele>
        <time>2017-04-05T10:08:32Z</time>
      </trkpt>
      <trkpt lat="45.95763" lon="4.76182">
        <ele>186</ele>
        <time>2017-04-05T10:08:33Z</time>
      </trkpt>
      <trkpt lat="45.95762" lon="4.76175">
        <ele>185</ele>
        <time>2017-04-05T10:08:34Z</time>
      </trkpt>
      <trkpt lat="45.95762" lon="4.76168">
        <ele>185</ele>
        <time>2017-04-05T10:08:35Z</time>
      </trkpt>
      <trkpt lat="45.95762" lon="4.7616">
        <ele>186</ele>
        <time>2017-04-05T10:08:36Z</time>
      </trkpt>
      <trkpt lat="45.95761" lon="4.76153">
        <ele>186</ele>
        <time>2017-04-05T10:08:37Z</time>
      </trkpt>
      <trkpt lat="45.9576" lon="4.76145">
        <ele>186</ele>
        <time>2017-04-05T10:08:38Z</time>
      </trkpt>
      <trkpt lat="45.9576" lon="4.76138">
        <ele>186</ele>
        <time>2017-04-05T10:08:39Z</time>
      </trkpt>
      <trkpt lat="45.95759" lon="4.76131">
        <ele>186</ele>
        <time>2017-04-05T10:08:40Z</time>
      </trkpt>
      <trkpt lat="45.95758" lon="4.76123">
        <ele>186</ele>
        <time>2017-04-05T10:08:41Z</time>
      </trkpt>
      <trkpt lat="45.95757" lon="4.76115">
        <ele>186</ele>
        <time>2017-04-05T10:08:42Z</time>
      </trkpt>
      <trkpt lat="45.95756" lon="4.76107">
        <ele>186</ele>
        <time>2017-04-05T10:08:43Z</time>
      </trkpt>
      <trkpt lat="45.95754" lon="4.76098">
        <ele>186</ele>
        <time>2017-04-05T10:08:44Z</time>
      </trkpt>
      <trkpt lat="45.95752" lon="4.7609">
        <ele>185</ele>
        <time>2017-04-05T10:08:45Z</time>
      </trkpt>
      <trkpt lat="45.95749" lon="4.76082">
        <ele>185</ele>
        <time>2017-04-05T10:08:46Z</time>
      </trkpt>
      <trkpt lat="45.95746" lon="4.76074">
        <ele>185</ele>
        <time>2017-04-05T10:08:47Z</time>
      </trkpt>
      <trkpt lat="45.95743" lon="4.76066">
        <ele>185</ele>
        <time>2017-04-05T10:08:48Z</time>
      </trkpt>
      <trkpt lat="45.9574" lon="4.76058">
        <ele>184</ele>
        <time>2017-04-05T10:08:49Z</time>
      </trkpt>
      <trkpt lat="45.95736" lon="4.7605">
        <ele>184</ele>
        <time>2017-04-05T10:08:50Z</time>
      </trkpt>
      <trkpt lat="45.95733" lon="4.76042">
        <ele>184</ele>
        <time>2017-04-05T10:08:51Z</time>
      </trkpt>
      <trkpt lat="45.95729" lon="4.76034">
        <ele>184</ele>
        <time>2017-04-05T10:08:52Z</time>
      </trkpt>
      <trkpt lat="45.95725" lon="4.76026">
        <ele>184</ele>
        <time>2017-04-05T10:08:53Z</time>
      </trkpt>
      <trkpt lat="45.95722" lon="4.76018">
        <ele>184</ele>
        <time>2017-04-05T10:08:54Z</time>
      </trkpt>
      <trkpt lat="45.95718" lon="4.7601">
        <ele>184</ele>
        <time>2017-04-05T10:08:55Z</time>
      </trkpt>
      <trkpt lat="45.95714" lon="4.76002">
        <ele>184</ele>
        <time>2017-04-05T10:08:56Z</time>
      </trkpt>
      <trkpt lat="45.9571" lon="4.75994">
        <ele>185</ele>
        <time>2017-04-05T10:08:57Z</time>
      </trkpt>
      <trkpt lat="45.95706" lon="4.75986">
        <ele>185</ele>
        <time>2017-04-05T10:08:58Z</time>
      </trkpt>
      <trkpt lat="45.95703" lon="4.75978">
        <ele>185</ele>
        <time>2017-04-05T10:08:59Z</time>
      </trkpt>
      <trkpt lat="45.95699" lon="4.7597">
        <ele>185</ele>
        <time>2017-04-05T10:09:00Z</time>
      </trkpt>
      <trkpt lat="45.95696" lon="4.75962">
        <ele>185</ele>
        <time>2017-04-05T10:09:01Z</time>
      </trkpt>
      <trkpt lat="45.95693" lon="4.75955">
        <ele>185</ele>
        <time>2017-04-05T10:09:02Z</time>
      </trkpt>
      <trkpt lat="45.95689" lon="4.75947">
        <ele>185</ele>
        <time>2017-04-05T10:09:03Z</time>
      </trkpt>
      <trkpt lat="45.95686" lon="4.7594">
        <ele>185</ele>
        <time>2017-04-05T10:09:04Z</time>
      </trkpt>
      <trkpt lat="45.95683" lon="4.75933">
        <ele>185</ele>
        <time>2017-04-05T10:09:05Z</time>
      </trkpt>
      <trkpt lat="45.9568" lon="4.75925">
        <ele>185</ele>
        <time>2017-04-05T10:09:06Z</time>
      </trkpt>
      <trkpt lat="45.95676" lon="4.75918">
        <ele>184</ele>
        <time>2017-04-05T10:09:07Z</time>
      </trkpt>
      <trkpt lat="45.95673" lon="4.7591">
        <ele>185</ele>
        <time>2017-04-05T10:09:08Z</time>
      </trkpt>
      <trkpt lat="45.9567" lon="4.75902">
        <ele>185</ele>
        <time>2017-04-05T10:09:09Z</time>
      </trkpt>
      <trkpt lat="45.95668" lon="4.75894">
        <ele>186</ele>
        <time>2017-04-05T10:09:10Z</time>
      </trkpt>
      <trkpt lat="45.95665" lon="4.75886">
        <ele>184</ele>
        <time>2017-04-05T10:09:11Z</time>
      </trkpt>
      <trkpt lat="45.95662" lon="4.75878">
        <ele>184</ele>
        <time>2017-04-05T10:09:12Z</time>
      </trkpt>
      <trkpt lat="45.9566" lon="4.75871">
        <ele>184</ele>
        <time>2017-04-05T10:09:13Z</time>
      </trkpt>
      <trkpt lat="45.95657" lon="4.75863">
        <ele>184</ele>
        <time>2017-04-05T10:09:14Z</time>
      </trkpt>
      <trkpt lat="45.95654" lon="4.75854">
        <ele>184</ele>
        <time>2017-04-05T10:09:15Z</time>
      </trkpt>
      <trkpt lat="45.95652" lon="4.75846">
        <ele>185</ele>
        <time>2017-04-05T10:09:16Z</time>
      </trkpt>
      <trkpt lat="45.9565" lon="4.75837">
        <ele>185</ele>
        <time>2017-04-05T10:09:17Z</time>
      </trkpt>
      <trkpt lat="45.95648" lon="4.75828">
        <ele>185</ele>
        <time>2017-04-05T10:09:18Z</time>
      </trkpt>
      <trkpt lat="45.95646" lon="4.75819">
        <ele>185</ele>
        <time>2017-04-05T10:09:19Z</time>
      </trkpt>
      <trkpt lat="45.95644" lon="4.75811">
        <ele>185</ele>
        <time>2017-04-05T10:09:20Z</time>
      </trkpt>
      <trkpt lat="45.95643" lon="4.75802">
        <ele>185</ele>
        <time>2017-04-05T10:09:21Z</time>
      </trkpt>
      <trkpt lat="45.95641" lon="4.75793">
        <ele>185</ele>
        <time>2017-04-05T10:09:22Z</time>
      </trkpt>
      <trkpt lat="45.9564" lon="4.75784">
        <ele>185</ele>
        <time>2017-04-05T10:09:23Z</time>
      </trkpt>
      <trkpt lat="45.95639" lon="4.75775">
        <ele>186</ele>
        <time>2017-04-05T10:09:24Z</time>
      </trkpt>
      <trkpt lat="45.95638" lon="4.75767">
        <ele>186</ele>
        <time>2017-04-05T10:09:25Z</time>
      </trkpt>
      <trkpt lat="45.95636" lon="4.75758">
        <ele>186</ele>
        <time>2017-04-05T10:09:26Z</time>
      </trkpt>
      <trkpt lat="45.95634" lon="4.7575">
        <ele>187</ele>
        <time>2017-04-05T10:09:27Z</time>
      </trkpt>
      <trkpt lat="45.95633" lon="4.75742">
        <ele>187</ele>
        <time>2017-04-05T10:09:28Z</time>
      </trkpt>
      <trkpt lat="45.95632" lon="4.75734">
        <ele>187</ele>
        <time>2017-04-05T10:09:29Z</time>
      </trkpt>
      <trkpt lat="45.95631" lon="4.75726">
        <ele>187</ele>
        <time>2017-04-05T10:09:30Z</time>
      </trkpt>
      <trkpt lat="45.9563" lon="4.75718">
        <ele>187</ele>
        <time>2017-04-05T10:09:31Z</time>
      </trkpt>
      <trkpt lat="45.95629" lon="4.75711">
        <ele>187</ele>
        <time>2017-04-05T10:09:32Z</time>
      </trkpt>
      <trkpt lat="45.95627" lon="4.75704">
        <ele>187</ele>
        <time>2017-04-05T10:09:33Z</time>
      </trkpt>
      <trkpt lat="45.95626" lon="4.75697">
        <ele>187</ele>
        <time>2017-04-05T10:09:34Z</time>
      </trkpt>
      <trkpt lat="45.95625" lon="4.7569">
        <ele>187</ele>
        <time>2017-04-05T10:09:35Z</time>
      </trkpt>
      <trkpt lat="45.95624" lon="4.75683">
        <ele>187</ele>
        <time>2017-04-05T10:09:36Z</time>
      </trkpt>
      <trkpt lat="45.95623" lon="4.75676">
        <ele>187</ele>
        <time>2017-04-05T10:09:37Z</time>
      </trkpt>
      <trkpt lat="45.95622" lon="4.75669">
        <ele>187</ele>
        <time>2017-04-05T10:09:38Z</time>
      </trkpt>
      <trkpt lat="45.95621" lon="4.75661">
        <ele>188</ele>
        <time>2017-04-05T10:09:39Z</time>
      </trkpt>
      <trkpt lat="45.95619" lon="4.75654">
        <ele>188</ele>
        <time>2017-04-05T10:09:40Z</time>
      </trkpt>
      <trkpt lat="45.95618" lon="4.75647">
        <ele>188</ele>
        <time>2017-04-05T10:09:41Z</time>
      </trkpt>
      <trkpt lat="45.95616" lon="4.75639">
        <ele>188</ele>
        <time>2017-04-05T10:09:42Z</time>
      </trkpt>
      <trkpt lat="45.95614" lon="4.75632">
        <ele>188</ele>
        <time>2017-04-05T10:09:43Z</time>
      </trkpt>
      <trkpt lat="45.95612" lon="4.75625">
        <ele>188</ele>
        <time>2017-04-05T10:09:44Z</time>
      </trkpt>
      <trkpt lat="45.9561" lon="4.75617">
        <ele>188</ele>
        <time>2017-04-05T10:09:45Z</time>
      </trkpt>
      <trkpt lat="45.95607" lon="4.7561">
        <ele>188</ele>
        <time>2017-04-05T10:09:46Z</time>
      </trkpt>
      <trkpt lat="45.95605" lon="4.75603">
        <ele>187</ele>
        <time>2017-04-05T10:09:47Z</time>
      </trkpt>
      <trkpt lat="45.95602" lon="4.75596">
        <ele>187</ele>
        <time>2017-04-05T10:09:48Z</time>
      </trkpt>
      <trkpt lat="45.956" lon="4.75589">
        <ele>187</ele>
        <time>2017-04-05T10:09:49Z</time>
      </trkpt>
      <trkpt lat="45.95597" lon="4.75583">
        <ele>187</ele>
        <time>2017-04-05T10:09:50Z</time>
      </trkpt>
      <trkpt lat="45.95594" lon="4.75576">
        <ele>187</ele>
        <time>2017-04-05T10:09:51Z</time>
      </trkpt>
      <trkpt lat="45.95591" lon="4.7557">
        <ele>188</ele>
        <time>2017-04-05T10:09:52Z</time>
      </trkpt>
      <trkpt lat="45.95588" lon="4.75564">
        <ele>188</ele>
        <time>2017-04-05T10:09:53Z</time>
      </trkpt>
      <trkpt lat="45.95584" lon="4.75558">
        <ele>188</ele>
        <time>2017-04-05T10:09:54Z</time>
      </trkpt>
      <trkpt lat="45.9558" lon="4.75552">
        <ele>186</ele>
        <time>2017-04-05T10:09:55Z</time>
      </trkpt>
      <trkpt lat="45.95576" lon="4.75546">
        <ele>186</ele>
        <time>2017-04-05T10:09:56Z</time>
      </trkpt>
      <trkpt lat="45.95572" lon="4.75541">
        <ele>186</ele>
        <time>2017-04-05T10:09:57Z</time>
      </trkpt>
      <trkpt lat="45.95568" lon="4.75535">
        <ele>186</ele>
        <time>2017-04-05T10:09:58Z</time>
      </trkpt>
      <trkpt lat="45.95563" lon="4.7553">
        <ele>186</ele>
        <time>2017-04-05T10:09:59Z</time>
      </trkpt>
      <trkpt lat="45.95558" lon="4.75525">
        <ele>186</ele>
        <time>2017-04-05T10:10:00Z</time>
      </trkpt>
      <trkpt lat="45.95554" lon="4.7552">
        <ele>186</ele>
        <time>2017-04-05T10:10:01Z</time>
      </trkpt>
      <trkpt lat="45.95549" lon="4.75515">
        <ele>186</ele>
        <time>2017-04-05T10:10:02Z</time>
      </trkpt>
      <trkpt lat="45.95545" lon="4.7551">
        <ele>186</ele>
        <time>2017-04-05T10:10:03Z</time>
      </trkpt>
      <trkpt lat="45.95538" lon="4.75501">
        <ele>186</ele>
        <time>2017-04-05T10:10:05Z</time>
      </trkpt>
      <trkpt lat="45.95537" lon="4.75498">
        <ele>187</ele>
        <time>2017-04-05T10:10:06Z</time>
      </trkpt>
      <trkpt lat="45.95537" lon="4.75489">
        <ele>187</ele>
        <time>2017-04-05T10:10:13Z</time>
      </trkpt>
      <trkpt lat="45.95537" lon="4.75487">
        <ele>187</ele>
        <time>2017-04-05T10:10:14Z</time>
      </trkpt>
      <trkpt lat="45.95537" lon="4.75484">
        <ele>187</ele>
        <time>2017-04-05T10:10:16Z</time>
      </trkpt>
      <trkpt lat="45.95538" lon="4.75481">
        <ele>187</ele>
        <time>2017-04-05T10:10:17Z</time>
      </trkpt>
      <trkpt lat="45.95539" lon="4.75472">
        <ele>187</ele>
        <time>2017-04-05T10:10:20Z</time>
      </trkpt>
      <trkpt lat="45.95538" lon="4.75467">
        <ele>187</ele>
        <time>2017-04-05T10:10:21Z</time>
      </trkpt>
      <trkpt lat="45.95535" lon="4.75457">
        <ele>187</ele>
        <time>2017-04-05T10:10:23Z</time>
      </trkpt>
      <trkpt lat="45.95532" lon="4.75452">
        <ele>187</ele>
        <time>2017-04-05T10:10:24Z</time>
      </trkpt>
      <trkpt lat="45.95529" lon="4.75447">
        <ele>187</ele>
        <time>2017-04-05T10:10:25Z</time>
      </trkpt>
      <trkpt lat="45.95525" lon="4.75443">
        <ele>187</ele>
        <time>2017-04-05T10:10:26Z</time>
      </trkpt>
      <trkpt lat="45.9552" lon="4.75438">
        <ele>187</ele>
        <time>2017-04-05T10:10:27Z</time>
      </trkpt>
      <trkpt lat="45.95516" lon="4.75432">
        <ele>187</ele>
        <time>2017-04-05T10:10:28Z</time>
      </trkpt>
      <trkpt lat="45.95513" lon="4.75426">
        <ele>186</ele>
        <time>2017-04-05T10:10:29Z</time>
      </trkpt>
      <trkpt lat="45.95511" lon="4.7542">
        <ele>186</ele>
        <time>2017-04-05T10:10:30Z</time>
      </trkpt>
      <trkpt lat="45.95508" lon="4.75408">
        <ele>187</ele>
        <time>2017-04-05T10:10:32Z</time>
      </trkpt>
      <trkpt lat="45.95506" lon="4.75402">
        <ele>187</ele>
        <time>2017-04-05T10:10:33Z</time>
      </trkpt>
      <trkpt lat="45.95504" lon="4.75396">
        <ele>188</ele>
        <time>2017-04-05T10:10:34Z</time>
      </trkpt>
      <trkpt lat="45.95501" lon="4.7539">
        <ele>188</ele>
        <time>2017-04-05T10:10:35Z</time>
      </trkpt>
      <trkpt lat="45.95499" lon="4.75384">
        <ele>185</ele>
        <time>2017-04-05T10:10:36Z</time>
      </trkpt>
      <trkpt lat="45.95496" lon="4.75378">
        <ele>185</ele>
        <time>2017-04-05T10:10:37Z</time>
      </trkpt>
      <trkpt lat="45.95493" lon="4.75372">
        <ele>185</ele>
        <time>2017-04-05T10:10:38Z</time>
      </trkpt>
      <trkpt lat="45.9549" lon="4.75366">
        <ele>186</ele>
        <time>2017-04-05T10:10:39Z</time>
      </trkpt>
      <trkpt lat="45.95487" lon="4.7536">
        <ele>186</ele>
        <time>2017-04-05T10:10:40Z</time>
      </trkpt>
      <trkpt lat="45.95484" lon="4.75354">
        <ele>186</ele>
        <time>2017-04-05T10:10:41Z</time>
      </trkpt>
      <trkpt lat="45.95481" lon="4.75348">
        <ele>186</ele>
        <time>2017-04-05T10:10:42Z</time>
      </trkpt>
      <trkpt lat="45.95478" lon="4.75343">
        <ele>186</ele>
        <time>2017-04-05T10:10:43Z</time>
      </trkpt>
      <trkpt lat="45.95475" lon="4.75337">
        <ele>186</ele>
        <time>2017-04-05T10:10:44Z</time>
      </trkpt>
      <trkpt lat="45.95472" lon="4.75332">
        <ele>188</ele>
        <time>2017-04-05T10:10:45Z</time>
      </trkpt>
      <trkpt lat="45.9547" lon="4.75327">
        <ele>188</ele>
        <time>2017-04-05T10:10:46Z</time>
      </trkpt>
      <trkpt lat="45.95467" lon="4.75322">
        <ele>188</ele>
        <time>2017-04-05T10:10:47Z</time>
      </trkpt>
      <trkpt lat="45.95462" lon="4.75312">
        <ele>188</ele>
        <time>2017-04-05T10:10:49Z</time>
      </trkpt>
      <trkpt lat="45.95459" lon="4.75307">
        <ele>188</ele>
        <time>2017-04-05T10:10:50Z</time>
      </trkpt>
      <trkpt lat="45.95455" lon="4.75297">
        <ele>188</ele>
        <time>2017-04-05T10:10:52Z</time>
      </trkpt>
      <trkpt lat="45.95453" lon="4.75292">
        <ele>188</ele>
        <time>2017-04-05T10:10:53Z</time>
      </trkpt>
      <trkpt lat="45.95448" lon="4.75282">
        <ele>188</ele>
        <time>2017-04-05T10:10:55Z</time>
      </trkpt>
      <trkpt lat="45.95445" lon="4.75278">
        <ele>189</ele>
        <time>2017-04-05T10:10:56Z</time>
      </trkpt>
      <trkpt lat="45.95442" lon="4.75272">
        <ele>189</ele>
        <time>2017-04-05T10:10:57Z</time>
      </trkpt>
      <trkpt lat="45.95439" lon="4.75266">
        <ele>189</ele>
        <time>2017-04-05T10:10:58Z</time>
      </trkpt>
      <trkpt lat="45.95436" lon="4.75261">
        <ele>189</ele>
        <time>2017-04-05T10:10:59Z</time>
      </trkpt>
      <trkpt lat="45.95433" lon="4.75256">
        <ele>189</ele>
        <time>2017-04-05T10:11:00Z</time>
      </trkpt>
      <trkpt lat="45.95431" lon="4.7525">
        <ele>189</ele>
        <time>2017-04-05T10:11:01Z</time>
      </trkpt>
      <trkpt lat="45.95429" lon="4.75244">
        <ele>190</ele>
        <time>2017-04-05T10:11:02Z</time>
      </trkpt>
      <trkpt lat="45.95426" lon="4.75239">
        <ele>190</ele>
        <time>2017-04-05T10:11:03Z</time>
      </trkpt>
      <trkpt lat="45.95423" lon="4.75233">
        <ele>190</ele>
        <time>2017-04-05T10:11:04Z</time>
      </trkpt>
      <trkpt lat="45.9542" lon="4.75228">
        <ele>191</ele>
        <time>2017-04-05T10:11:05Z</time>
      </trkpt>
      <trkpt lat="45.95417" lon="4.75222">
        <ele>191</ele>
        <time>2017-04-05T10:11:06Z</time>
      </trkpt>
      <trkpt lat="45.95414" lon="4.75216">
        <ele>189</ele>
        <time>2017-04-05T10:11:07Z</time>
      </trkpt>
      <trkpt lat="45.95411" lon="4.75211">
        <ele>189</ele>
        <time>2017-04-05T10:11:08Z</time>
      </trkpt>
      <trkpt lat="45.95409" lon="4.75206">
        <ele>189</ele>
        <time>2017-04-05T10:11:09Z</time>
      </trkpt>
      <trkpt lat="45.95406" lon="4.752">
        <ele>189</ele>
        <time>2017-04-05T10:11:10Z</time>
      </trkpt>
      <trkpt lat="45.95403" lon="4.75195">
        <ele>189</ele>
        <time>2017-04-05T10:11:11Z</time>
      </trkpt>
      <trkpt lat="45.954" lon="4.75189">
        <ele>189</ele>
        <time>2017-04-05T10:11:12Z</time>
      </trkpt>
      <trkpt lat="45.95394" lon="4.7518">
        <ele>189</ele>
        <time>2017-04-05T10:11:14Z</time>
      </trkpt>
      <trkpt lat="45.95391" lon="4.75175">
        <ele>189</ele>
        <time>2017-04-05T10:11:15Z</time>
      </trkpt>
      <trkpt lat="45.95388" lon="4.7517">
        <ele>189</ele>
        <time>2017-04-05T10:11:16Z</time>
      </trkpt>
      <trkpt lat="45.95385" lon="4.75165">
        <ele>191</ele>
        <time>2017-04-05T10:11:17Z</time>
      </trkpt>
      <trkpt lat="45.95382" lon="4.7516">
        <ele>191</ele>
        <time>2017-04-05T10:11:18Z</time>
      </trkpt>
      <trkpt lat="45.95379" lon="4.75155">
        <ele>191</ele>
        <time>2017-04-05T10:11:19Z</time>
      </trkpt>
      <trkpt lat="45.95375" lon="4.7515">
        <ele>191</ele>
        <time>2017-04-05T10:11:20Z</time>
      </trkpt>
      <trkpt lat="45.95372" lon="4.75146">
        <ele>191</ele>
        <time>2017-04-05T10:11:21Z</time>
      </trkpt>
      <trkpt lat="45.95366" lon="4.75136">
        <ele>191</ele>
        <time>2017-04-05T10:11:23Z</time>
      </trkpt>
      <trkpt lat="45.95364" lon="4.75131">
        <ele>191</ele>
        <time>2017-04-05T10:11:24Z</time>
      </trkpt>
      <trkpt lat="45.95358" lon="4.75122">
        <ele>191</ele>
        <time>2017-04-05T10:11:26Z</time>
      </trkpt>
      <trkpt lat="45.95355" lon="4.75118">
        <ele>192</ele>
        <time>2017-04-05T10:11:27Z</time>
      </trkpt>
      <trkpt lat="45.95349" lon="4.75108">
        <ele>192</ele>
        <time>2017-04-05T10:11:29Z</time>
      </trkpt>
      <trkpt lat="45.95345" lon="4.75103">
        <ele>192</ele>
        <time>2017-04-05T10:11:30Z</time>
      </trkpt>
      <trkpt lat="45.95341" lon="4.75098">
        <ele>192</ele>
        <time>2017-04-05T10:11:31Z</time>
      </trkpt>
      <trkpt lat="45.95337" lon="4.75092">
        <ele>192</ele>
        <time>2017-04-05T10:11:32Z</time>
      </trkpt>
      <trkpt lat="45.95334" lon="4.75087">
        <ele>193</ele>
        <time>2017-04-05T10:11:33Z</time>
      </trkpt>
      <trkpt lat="45.9533" lon="4.75081">
        <ele>193</ele>
        <time>2017-04-05T10:11:34Z</time>
      </trkpt>
      <trkpt lat="45.95326" lon="4.75076">
        <ele>192</ele>
        <time>2017-04-05T10:11:35Z</time>
      </trkpt>
      <trkpt lat="45.95323" lon="4.7507">
        <ele>192</ele>
        <time>2017-04-05T10:11:36Z</time>
      </trkpt>
      <trkpt lat="45.95319" lon="4.75065">
        <ele>192</ele>
        <time>2017-04-05T10:11:37Z</time>
      </trkpt>
      <trkpt lat="45.95315" lon="4.75059">
        <ele>192</ele>
        <time>2017-04-05T10:11:38Z</time>
      </trkpt>
      <trkpt lat="45.95311" lon="4.75054">
        <ele>192</ele>
        <time>2017-04-05T10:11:39Z</time>
      </trkpt>
      <trkpt lat="45.95308" lon="4.75048">
        <ele>192</ele>
        <time>2017-04-05T10:11:40Z</time>
      </trkpt>
      <trkpt lat="45.95304" lon="4.75043">
        <ele>191</ele>
        <time>2017-04-05T10:11:41Z</time>
      </trkpt>
      <trkpt lat="45.95301" lon="4.75037">
        <ele>191</ele>
        <time>2017-04-05T10:11:42Z</time>
      </trkpt>
      <trkpt lat="45.95297" lon="4.75032">
        <ele>191</ele>
        <time>2017-04-05T10:11:43Z</time>
      </trkpt>
      <trkpt lat="45.95294" lon="4.75027">
        <ele>191</ele>
        <time>2017-04-05T10:11:44Z</time>
      </trkpt>
      <trkpt lat="45.95291" lon="4.75022">
        <ele>191</ele>
        <time>2017-04-05T10:11:45Z</time>
      </trkpt>
      <trkpt lat="45.95287" lon="4.75016">
        <ele>191</ele>
        <time>2017-04-05T10:11:46Z</time>
      </trkpt>
      <trkpt lat="45.95284" lon="4.75011">
        <ele>191</ele>
        <time>2017-04-05T10:11:47Z</time>
      </trkpt>
      <trkpt lat="45.9528" lon="4.75006">
        <ele>191</ele>
        <time>2017-04-05T10:11:48Z</time>
      </trkpt>
      <trkpt lat="45.95277" lon="4.75001">
        <ele>191</ele>
        <time>2017-04-05T10:11:49Z</time>
      </trkpt>
      <trkpt lat="45.95274" lon="4.74996">
        <ele>192</ele>
        <time>2017-04-05T10:11:50Z</time>
      </trkpt>
      <trkpt lat="45.95271" lon="4.7499">
        <ele>192</ele>
        <time>2017-04-05T10:11:51Z</time>
      </trkpt>
      <trkpt lat="45.95268" lon="4.74985">
        <ele>192</ele>
        <time>2017-04-05T10:11:52Z</time>
      </trkpt>
      <trkpt lat="45.95264" lon="4.74979">
        <ele>192</ele>
        <time>2017-04-05T10:11:53Z</time>
      </trkpt>
      <trkpt lat="45.9526" lon="4.74974">
        <ele>192</ele>
        <time>2017-04-05T10:11:54Z</time>
      </trkpt>
      <trkpt lat="45.95256" lon="4.74968">
        <ele>192</ele>
        <time>2017-04-05T10:11:55Z</time>
      </trkpt>
      <trkpt lat="45.95253" lon="4.74962">
        <ele>192</ele>
        <time>2017-04-05T10:11:56Z</time>
      </trkpt>
      <trkpt lat="45.95249" lon="4.74956">
        <ele>192</ele>
        <time>2017-04-05T10:11:57Z</time>
      </trkpt>
      <trkpt lat="45.95246" lon="4.7495">
        <ele>192</ele>
        <time>2017-04-05T10:11:58Z</time>
      </trkpt>
      <trkpt lat="45.95243" lon="4.74944">
        <ele>192</ele>
        <time>2017-04-05T10:11:59Z</time>
      </trkpt>
      <trkpt lat="45.9524" lon="4.74938">
        <ele>192</ele>
        <time>2017-04-05T10:12:00Z</time>
      </trkpt>
      <trkpt lat="45.95237" lon="4.74933">
        <ele>192</ele>
        <time>2017-04-05T10:12:01Z</time>
      </trkpt>
      <trkpt lat="45.95234" lon="4.74928">
        <ele>192</ele>
        <time>2017-04-05T10:12:02Z</time>
      </trkpt>
      <trkpt lat="45.95231" lon="4.74923">
        <ele>192</ele>
        <time>2017-04-05T10:12:03Z</time>
      </trkpt>
      <trkpt lat="45.95228" lon="4.74918">
        <ele>192</ele>
        <time>2017-04-05T10:12:04Z</time>
      </trkpt>
      <trkpt lat="45.95225" lon="4.74913">
        <ele>193</ele>
        <time>2017-04-05T10:12:05Z</time>
      </trkpt>
      <trkpt lat="45.95222" lon="4.74908">
        <ele>193</ele>
        <time>2017-04-05T10:12:06Z</time>
      </trkpt>
      <trkpt lat="45.95219" lon="4.74903">
        <ele>193</ele>
        <time>2017-04-05T10:12:07Z</time>
      </trkpt>
      <trkpt lat="45.95216" lon="4.74897">
        <ele>193</ele>
        <time>2017-04-05T10:12:08Z</time>
      </trkpt>
      <trkpt lat="45.95212" lon="4.74892">
        <ele>193</ele>
        <time>2017-04-05T10:12:09Z</time>
      </trkpt>
      <trkpt lat="45.95208" lon="4.74886">
        <ele>194</ele>
        <time>2017-04-05T10:12:10Z</time>
      </trkpt>
      <trkpt lat="45.95204" lon="4.74881">
        <ele>194</ele>
        <time>2017-04-05T10:12:11Z</time>
      </trkpt>
      <trkpt lat="45.952" lon="4.74874">
        <ele>194</ele>
        <time>2017-04-05T10:12:12Z</time>
      </trkpt>
      <trkpt lat="45.95197" lon="4.74868">
        <ele>194</ele>
        <time>2017-04-05T10:12:13Z</time>
      </trkpt>
      <trkpt lat="45.95193" lon="4.74862">
        <ele>194</ele>
        <time>2017-04-05T10:12:14Z</time>
      </trkpt>
      <trkpt lat="45.95188" lon="4.74856">
        <ele>194</ele>
        <time>2017-04-05T10:12:15Z</time>
      </trkpt>
      <trkpt lat="45.95184" lon="4.74851">
        <ele>194</ele>
        <time>2017-04-05T10:12:16Z</time>
      </trkpt>
      <trkpt lat="45.95181" lon="4.74844">
        <ele>194</ele>
        <time>2017-04-05T10:12:17Z</time>
      </trkpt>
      <trkpt lat="45.95177" lon="4.74838">
        <ele>194</ele>
        <time>2017-04-05T10:12:18Z</time>
      </trkpt>
      <trkpt lat="45.95173" lon="4.74833">
        <ele>194</ele>
        <time>2017-04-05T10:12:19Z</time>
      </trkpt>
      <trkpt lat="45.95168" lon="4.74827">
        <ele>194</ele>
        <time>2017-04-05T10:12:20Z</time>
      </trkpt>
      <trkpt lat="45.95164" lon="4.74821">
        <ele>194</ele>
        <time>2017-04-05T10:12:21Z</time>
      </trkpt>
      <trkpt lat="45.95161" lon="4.74815">
        <ele>194</ele>
        <time>2017-04-05T10:12:22Z</time>
      </trkpt>
      <trkpt lat="45.95157" lon="4.7481">
        <ele>194</ele>
        <time>2017-04-05T10:12:23Z</time>
      </trkpt>
      <trkpt lat="45.95154" lon="4.74804">
        <ele>194</ele>
        <time>2017-04-05T10:12:24Z</time>
      </trkpt>
      <trkpt lat="45.9515" lon="4.74798">
        <ele>194</ele>
        <time>2017-04-05T10:12:25Z</time>
      </trkpt>
      <trkpt lat="45.95147" lon="4.74793">
        <ele>194</ele>
        <time>2017-04-05T10:12:26Z</time>
      </trkpt>
      <trkpt lat="45.95144" lon="4.74787">
        <ele>194</ele>
        <time>2017-04-05T10:12:27Z</time>
      </trkpt>
      <trkpt lat="45.95141" lon="4.74782">
        <ele>194</ele>
        <time>2017-04-05T10:12:28Z</time>
      </trkpt>
      <trkpt lat="45.95138" lon="4.74776">
        <ele>194</ele>
        <time>2017-04-05T10:12:29Z</time>
      </trkpt>
      <trkpt lat="45.95134" lon="4.74771">
        <ele>194</ele>
        <time>2017-04-05T10:12:30Z</time>
      </trkpt>
      <trkpt lat="45.95129" lon="4.74766">
        <ele>194</ele>
        <time>2017-04-05T10:12:31Z</time>
      </trkpt>
      <trkpt lat="45.95125" lon="4.74759">
        <ele>194</ele>
        <time>2017-04-05T10:12:32Z</time>
      </trkpt>
      <trkpt lat="45.95121" lon="4.74753">
        <ele>194</ele>
        <time>2017-04-05T10:12:33Z</time>
      </trkpt>
      <trkpt lat="45.95117" lon="4.74746">
        <ele>194</ele>
        <time>2017-04-05T10:12:34Z</time>
      </trkpt>
      <trkpt lat="45.95113" lon="4.74739">
        <ele>194</ele>
        <time>2017-04-05T10:12:35Z</time>
      </trkpt>
      <trkpt lat="45.9511" lon="4.74732">
        <ele>194</ele>
        <time>2017-04-05T10:12:36Z</time>
      </trkpt>
      <trkpt lat="45.95106" lon="4.74725">
        <ele>194</ele>
        <time>2017-04-05T10:12:37Z</time>
      </trkpt>
      <trkpt lat="45.95103" lon="4.74718">
        <ele>194</ele>
        <time>2017-04-05T10:12:38Z</time>
      </trkpt>
      <trkpt lat="45.95099" lon="4.74712">
        <ele>194</ele>
        <time>2017-04-05T10:12:39Z</time>
      </trkpt>
      <trkpt lat="45.95095" lon="4.74706">
        <ele>194</ele>
        <time>2017-04-05T10:12:40Z</time>
      </trkpt>
      <trkpt lat="45.95091" lon="4.747">
        <ele>194</ele>
        <time>2017-04-05T10:12:41Z</time>
      </trkpt>
      <trkpt lat="45.95088" lon="4.74695">
        <ele>194</ele>
        <time>2017-04-05T10:12:42Z</time>
      </trkpt>
      <trkpt lat="45.95084" lon="4.74689">
        <ele>195</ele>
        <time>2017-04-05T10:12:43Z</time>
      </trkpt>
      <trkpt lat="45.95081" lon="4.74683">
        <ele>194</ele>
        <time>2017-04-05T10:12:44Z</time>
      </trkpt>
      <trkpt lat="45.95077" lon="4.74676">
        <ele>194</ele>
        <time>2017-04-05T10:12:45Z</time>
      </trkpt>
      <trkpt lat="45.95073" lon="4.74668">
        <ele>194</ele>
        <time>2017-04-05T10:12:46Z</time>
      </trkpt>
      <trkpt lat="45.95069" lon="4.74661">
        <ele>195</ele>
        <time>2017-04-05T10:12:47Z</time>
      </trkpt>
      <trkpt lat="45.95066" lon="4.74654">
        <ele>195</ele>
        <time>2017-04-05T10:12:48Z</time>
      </trkpt>
      <trkpt lat="45.95062" lon="4.74648">
        <ele>194</ele>
        <time>2017-04-05T10:12:49Z</time>
      </trkpt>
      <trkpt lat="45.95058" lon="4.74641">
        <ele>194</ele>
        <time>2017-04-05T10:12:50Z</time>
      </trkpt>
      <trkpt lat="45.95055" lon="4.74634">
        <ele>194</ele>
        <time>2017-04-05T10:12:51Z</time>
      </trkpt>
      <trkpt lat="45.95051" lon="4.74628">
        <ele>194</ele>
        <time>2017-04-05T10:12:52Z</time>
      </trkpt>
      <trkpt lat="45.95047" lon="4.74622">
        <ele>194</ele>
        <time>2017-04-05T10:12:53Z</time>
      </trkpt>
      <trkpt lat="45.95044" lon="4.74615">
        <ele>194</ele>
        <time>2017-04-05T10:12:54Z</time>
      </trkpt>
      <trkpt lat="45.95041" lon="4.74609">
        <ele>194</ele>
        <time>2017-04-05T10:12:55Z</time>
      </trkpt>
      <trkpt lat="45.95037" lon="4.74603">
        <ele>194</ele>
        <time>2017-04-05T10:12:56Z</time>
      </trkpt>
      <trkpt lat="45.95034" lon="4.74597">
        <ele>194</ele>
        <time>2017-04-05T10:12:57Z</time>
      </trkpt>
      <trkpt lat="45.95031" lon="4.7459">
        <ele>194</ele>
        <time>2017-04-05T10:12:58Z</time>
      </trkpt>
      <trkpt lat="45.95028" lon="4.74584">
        <ele>194</ele>
        <time>2017-04-05T10:12:59Z</time>
      </trkpt>
      <trkpt lat="45.95024" lon="4.74578">
        <ele>194</ele>
        <time>2017-04-05T10:13:00Z</time>
      </trkpt>
      <trkpt lat="45.95021" lon="4.74571">
        <ele>194</ele>
        <time>2017-04-05T10:13:01Z</time>
      </trkpt>
      <trkpt lat="45.95018" lon="4.74564">
        <ele>194</ele>
        <time>2017-04-05T10:13:02Z</time>
      </trkpt>
      <trkpt lat="45.95014" lon="4.74557">
        <ele>194</ele>
        <time>2017-04-05T10:13:03Z</time>
      </trkpt>
      <trkpt lat="45.95009" lon="4.7455">
        <ele>194</ele>
        <time>2017-04-05T10:13:04Z</time>
      </trkpt>
      <trkpt lat="45.95004" lon="4.74543">
        <ele>194</ele>
        <time>2017-04-05T10:13:05Z</time>
      </trkpt>
      <trkpt lat="45.95" lon="4.74535">
        <ele>194</ele>
        <time>2017-04-05T10:13:06Z</time>
      </trkpt>
      <trkpt lat="45.94996" lon="4.74528">
        <ele>193</ele>
        <time>2017-04-05T10:13:07Z</time>
      </trkpt>
      <trkpt lat="45.94992" lon="4.7452">
        <ele>193</ele>
        <time>2017-04-05T10:13:08Z</time>
      </trkpt>
      <trkpt lat="45.94987" lon="4.74513">
        <ele>193</ele>
        <time>2017-04-05T10:13:09Z</time>
      </trkpt>
      <trkpt lat="45.94982" lon="4.74506">
        <ele>193</ele>
        <time>2017-04-05T10:13:10Z</time>
      </trkpt>
      <trkpt lat="45.94979" lon="4.74498">
        <ele>193</ele>
        <time>2017-04-05T10:13:11Z</time>
      </trkpt>
      <trkpt lat="45.94975" lon="4.7449">
        <ele>193</ele>
        <time>2017-04-05T10:13:12Z</time>
      </trkpt>
      <trkpt lat="45.94972" lon="4.74483">
        <ele>193</ele>
        <time>2017-04-05T10:13:13Z</time>
      </trkpt>
      <trkpt lat="45.94968" lon="4.74475">
        <ele>193</ele>
        <time>2017-04-05T10:13:14Z</time>
      </trkpt>
      <trkpt lat="45.94964" lon="4.74467">
        <ele>193</ele>
        <time>2017-04-05T10:13:15Z</time>
      </trkpt>
      <trkpt lat="45.9496" lon="4.7446">
        <ele>193</ele>
        <time>2017-04-05T10:13:16Z</time>
      </trkpt>
      <trkpt lat="45.94956" lon="4.74453">
        <ele>192</ele>
        <time>2017-04-05T10:13:17Z</time>
      </trkpt>
      <trkpt lat="45.94952" lon="4.74445">
        <ele>192</ele>
        <time>2017-04-05T10:13:18Z</time>
      </trkpt>
      <trkpt lat="45.94949" lon="4.74438">
        <ele>192</ele>
        <time>2017-04-05T10:13:19Z</time>
      </trkpt>
      <trkpt lat="45.94945" lon="4.7443">
        <ele>192</ele>
        <time>2017-04-05T10:13:20Z</time>
      </trkpt>
      <trkpt lat="45.94941" lon="4.74423">
        <ele>192</ele>
        <time>2017-04-05T10:13:21Z</time>
      </trkpt>
      <trkpt lat="45.94937" lon="4.74415">
        <ele>192</ele>
        <time>2017-04-05T10:13:22Z</time>
      </trkpt>
      <trkpt lat="45.94933" lon="4.74408">
        <ele>192</ele>
        <time>2017-04-05T10:13:23Z</time>
      </trkpt>
      <trkpt lat="45.94929" lon="4.744">
        <ele>192</ele>
        <time>2017-04-05T10:13:24Z</time>
      </trkpt>
      <trkpt lat="45.94925" lon="4.74392">
        <ele>192</ele>
        <time>2017-04-05T10:13:25Z</time>
      </trkpt>
      <trkpt lat="45.9492" lon="4.74385">
        <ele>192</ele>
        <time>2017-04-05T10:13:26Z</time>
      </trkpt>
      <trkpt lat="45.94916" lon="4.74377">
        <ele>191</ele>
        <time>2017-04-05T10:13:27Z</time>
      </trkpt>
      <trkpt lat="45.94912" lon="4.7437">
        <ele>191</ele>
        <time>2017-04-05T10:13:28Z</time>
      </trkpt>
      <trkpt lat="45.94908" lon="4.74362">
        <ele>191</ele>
        <time>2017-04-05T10:13:29Z</time>
      </trkpt>
      <trkpt lat="45.94904" lon="4.74355">
        <ele>191</ele>
        <time>2017-04-05T10:13:30Z</time>
      </trkpt>
      <trkpt lat="45.949" lon="4.74347">
        <ele>191</ele>
        <time>2017-04-05T10:13:31Z</time>
      </trkpt>
      <trkpt lat="45.94896" lon="4.7434">
        <ele>191</ele>
        <time>2017-04-05T10:13:32Z</time>
      </trkpt>
      <trkpt lat="45.94893" lon="4.74333">
        <ele>191</ele>
        <time>2017-04-05T10:13:33Z</time>
      </trkpt>
      <trkpt lat="45.94889" lon="4.74326">
        <ele>191</ele>
        <time>2017-04-05T10:13:34Z</time>
      </trkpt>
      <trkpt lat="45.94885" lon="4.74319">
        <ele>191</ele>
        <time>2017-04-05T10:13:35Z</time>
      </trkpt>
      <trkpt lat="45.94881" lon="4.74311">
        <ele>191</ele>
        <time>2017-04-05T10:13:36Z</time>
      </trkpt>
      <trkpt lat="45.94878" lon="4.74304">
        <ele>191</ele>
        <time>2017-04-05T10:13:37Z</time>
      </trkpt>
      <trkpt lat="45.94874" lon="4.74296">
        <ele>191</ele>
        <time>2017-04-05T10:13:38Z</time>
      </trkpt>
      <trkpt lat="45.94869" lon="4.74288">
        <ele>191</ele>
        <time>2017-04-05T10:13:39Z</time>
      </trkpt>
      <trkpt lat="45.94865" lon="4.7428">
        <ele>191</ele>
        <time>2017-04-05T10:13:40Z</time>
      </trkpt>
      <trkpt lat="45.94861" lon="4.74272">
        <ele>190</ele>
        <time>2017-04-05T10:13:41Z</time>
      </trkpt>
      <trkpt lat="45.94858" lon="4.74264">
        <ele>190</ele>
        <time>2017-04-05T10:13:42Z</time>
      </trkpt>
      <trkpt lat="45.94855" lon="4.74257">
        <ele>190</ele>
        <time>2017-04-05T10:13:43Z</time>
      </trkpt>
      <trkpt lat="45.94852" lon="4.74249">
        <ele>190</ele>
        <time>2017-04-05T10:13:44Z</time>
      </trkpt>
      <trkpt lat="45.94849" lon="4.74241">
        <ele>190</ele>
        <time>2017-04-05T10:13:45Z</time>
      </trkpt>
      <trkpt lat="45.94846" lon="4.74233">
        <ele>190</ele>
        <time>2017-04-05T10:13:46Z</time>
      </trkpt>
      <trkpt lat="45.94842" lon="4.74225">
        <ele>190</ele>
        <time>2017-04-05T10:13:47Z</time>
      </trkpt>
      <trkpt lat="45.94838" lon="4.74219">
        <ele>190</ele>
        <time>2017-04-05T10:13:48Z</time>
      </trkpt>
      <trkpt lat="45.94834" lon="4.74212">
        <ele>190</ele>
        <time>2017-04-05T10:13:49Z</time>
      </trkpt>
      <trkpt lat="45.9483" lon="4.74205">
        <ele>189</ele>
        <time>2017-04-05T10:13:50Z</time>
      </trkpt>
      <trkpt lat="45.94827" lon="4.74198">
        <ele>189</ele>
        <time>2017-04-05T10:13:51Z</time>
      </trkpt>
      <trkpt lat="45.94823" lon="4.74192">
        <ele>189</ele>
        <time>2017-04-05T10:13:52Z</time>
      </trkpt>
      <trkpt lat="45.9482" lon="4.74185">
        <ele>189</ele>
        <time>2017-04-05T10:13:53Z</time>
      </trkpt>
      <trkpt lat="45.94816" lon="4.74179">
        <ele>189</ele>
        <time>2017-04-05T10:13:54Z</time>
      </trkpt>
      <trkpt lat="45.94812" lon="4.74172">
        <ele>189</ele>
        <time>2017-04-05T10:13:55Z</time>
      </trkpt>
      <trkpt lat="45.94808" lon="4.74164">
        <ele>189</ele>
        <time>2017-04-05T10:13:56Z</time>
      </trkpt>
      <trkpt lat="45.94804" lon="4.74157">
        <ele>189</ele>
        <time>2017-04-05T10:13:57Z</time>
      </trkpt>
      <trkpt lat="45.948" lon="4.7415">
        <ele>189</ele>
        <time>2017-04-05T10:13:58Z</time>
      </trkpt>
      <trkpt lat="45.94796" lon="4.74143">
        <ele>189</ele>
        <time>2017-04-05T10:13:59Z</time>
      </trkpt>
      <trkpt lat="45.94792" lon="4.74135">
        <ele>189</ele>
        <time>2017-04-05T10:14:00Z</time>
      </trkpt>
      <trkpt lat="45.94787" lon="4.74128">
        <ele>189</ele>
        <time>2017-04-05T10:14:01Z</time>
      </trkpt>
      <trkpt lat="45.94783" lon="4.74121">
        <ele>189</ele>
        <time>2017-04-05T10:14:02Z</time>
      </trkpt>
      <trkpt lat="45.94779" lon="4.74114">
        <ele>189</ele>
        <time>2017-04-05T10:14:03Z</time>
      </trkpt>
      <trkpt lat="45.94775" lon="4.74107">
        <ele>189</ele>
        <time>2017-04-05T10:14:04Z</time>
      </trkpt>
      <trkpt lat="45.9477" lon="4.74101">
        <ele>189</ele>
        <time>2017-04-05T10:14:05Z</time>
      </trkpt>
      <trkpt lat="45.94765" lon="4.74095">
        <ele>189</ele>
        <time>2017-04-05T10:14:06Z</time>
      </trkpt>
      <trkpt lat="45.94759" lon="4.74089">
        <ele>189</ele>
        <time>2017-04-05T10:14:07Z</time>
      </trkpt>
      <trkpt lat="45.94754" lon="4.74084">
        <ele>189</ele>
        <time>2017-04-05T10:14:08Z</time>
      </trkpt>
      <trkpt lat="45.9475" lon="4.74078">
        <ele>189</ele>
        <time>2017-04-05T10:14:09Z</time>
      </trkpt>
      <trkpt lat="45.94746" lon="4.74071">
        <ele>188</ele>
        <time>2017-04-05T10:14:10Z</time>
      </trkpt>
      <trkpt lat="45.94741" lon="4.74065">
        <ele>188</ele>
        <time>2017-04-05T10:14:11Z</time>
      </trkpt>
      <trkpt lat="45.94737" lon="4.74059">
        <ele>188</ele>
        <time>2017-04-05T10:14:12Z</time>
      </trkpt>
      <trkpt lat="45.94733" lon="4.74053">
        <ele>188</ele>
        <time>2017-04-05T10:14:13Z</time>
      </trkpt>
      <trkpt lat="45.94728" lon="4.74047">
        <ele>188</ele>
        <time>2017-04-05T10:14:14Z</time>
      </trkpt>
      <trkpt lat="45.94723" lon="4.74042">
        <ele>187</ele>
        <time>2017-04-05T10:14:15Z</time>
      </trkpt>
      <trkpt lat="45.94719" lon="4.74037">
        <ele>187</ele>
        <time>2017-04-05T10:14:16Z</time>
      </trkpt>
      <trkpt lat="45.94716" lon="4.74032">
        <ele>187</ele>
        <time>2017-04-05T10:14:17Z</time>
      </trkpt>
      <trkpt lat="45.94711" lon="4.74026">
        <ele>187</ele>
        <time>2017-04-05T10:14:18Z</time>
      </trkpt>
      <trkpt lat="45.94707" lon="4.74021">
        <ele>187</ele>
        <time>2017-04-05T10:14:19Z</time>
      </trkpt>
      <trkpt lat="45.94703" lon="4.74016">
        <ele>187</ele>
        <time>2017-04-05T10:14:20Z</time>
      </trkpt>
      <trkpt lat="45.94699" lon="4.74011">
        <ele>187</ele>
        <time>2017-04-05T10:14:21Z</time>
      </trkpt>
      <trkpt lat="45.94695" lon="4.74006">
        <ele>187</ele>
        <time>2017-04-05T10:14:22Z</time>
      </trkpt>
      <trkpt lat="45.94691" lon="4.74001">
        <ele>187</ele>
        <time>2017-04-05T10:14:23Z</time>
      </trkpt>
      <trkpt lat="45.94687" lon="4.73995">
        <ele>187</ele>
        <time>2017-04-05T10:14:24Z</time>
      </trkpt>
      <trkpt lat="45.94682" lon="4.73989">
        <ele>187</ele>
        <time>2017-04-05T10:14:25Z</time>
      </trkpt>
      <trkpt lat="45.94678" lon="4.73982">
        <ele>187</ele>
        <time>2017-04-05T10:14:26Z</time>
      </trkpt>
      <trkpt lat="45.94673" lon="4.73976">
        <ele>187</ele>
        <time>2017-04-05T10:14:27Z</time>
      </trkpt>
      <trkpt lat="45.94668" lon="4.73969">
        <ele>187</ele>
        <time>2017-04-05T10:14:28Z</time>
      </trkpt>
      <trkpt lat="45.94663" lon="4.73963">
        <ele>187</ele>
        <time>2017-04-05T10:14:29Z</time>
      </trkpt>
      <trkpt lat="45.94658" lon="4.73956">
        <ele>187</ele>
        <time>2017-04-05T10:14:30Z</time>
      </trkpt>
      <trkpt lat="45.94653" lon="4.7395">
        <ele>187</ele>
        <time>2017-04-05T10:14:31Z</time>
      </trkpt>
      <trkpt lat="45.94648" lon="4.73944">
        <ele>187</ele>
        <time>2017-04-05T10:14:32Z</time>
      </trkpt>
      <trkpt lat="45.94643" lon="4.73938">
        <ele>187</ele>
        <time>2017-04-05T10:14:33Z</time>
      </trkpt>
      <trkpt lat="45.94638" lon="4.73931">
        <ele>187</ele>
        <time>2017-04-05T10:14:34Z</time>
      </trkpt>
      <trkpt lat="45.94633" lon="4.73925">
        <ele>187</ele>
        <time>2017-04-05T10:14:35Z</time>
      </trkpt>
      <trkpt lat="45.94628" lon="4.73919">
        <ele>187</ele>
        <time>2017-04-05T10:14:36Z</time>
      </trkpt>
      <trkpt lat="45.94623" lon="4.73913">
        <ele>187</ele>
        <time>2017-04-05T10:14:37Z</time>
      </trkpt>
      <trkpt lat="45.94618" lon="4.73907">
        <ele>187</ele>
        <time>2017-04-05T10:14:38Z</time>
      </trkpt>
      <trkpt lat="45.94613" lon="4.73901">
        <ele>187</ele>
        <time>2017-04-05T10:14:39Z</time>
      </trkpt>
      <trkpt lat="45.94608" lon="4.73895">
        <ele>187</ele>
        <time>2017-04-05T10:14:40Z</time>
      </trkpt>
      <trkpt lat="45.94604" lon="4.73888">
        <ele>187</ele>
        <time>2017-04-05T10:14:41Z</time>
      </trkpt>
      <trkpt lat="45.94598" lon="4.73882">
        <ele>187</ele>
        <time>2017-04-05T10:14:42Z</time>
      </trkpt>
      <trkpt lat="45.94593" lon="4.73876">
        <ele>187</ele>
        <time>2017-04-05T10:14:43Z</time>
      </trkpt>
      <trkpt lat="45.94589" lon="4.7387">
        <ele>187</ele>
        <time>2017-04-05T10:14:44Z</time>
      </trkpt>
      <trkpt lat="45.94584" lon="4.73864">
        <ele>187</ele>
        <time>2017-04-05T10:14:45Z</time>
      </trkpt>
      <trkpt lat="45.94578" lon="4.73859">
        <ele>186</ele>
        <time>2017-04-05T10:14:46Z</time>
      </trkpt>
      <trkpt lat="45.94573" lon="4.73853">
        <ele>186</ele>
        <time>2017-04-05T10:14:47Z</time>
      </trkpt>
      <trkpt lat="45.94567" lon="4.73847">
        <ele>186</ele>
        <time>2017-04-05T10:14:48Z</time>
      </trkpt>
      <trkpt lat="45.94561" lon="4.73841">
        <ele>186</ele>
        <time>2017-04-05T10:14:49Z</time>
      </trkpt>
      <trkpt lat="45.94556" lon="4.73836">
        <ele>186</ele>
        <time>2017-04-05T10:14:50Z</time>
      </trkpt>
      <trkpt lat="45.94551" lon="4.7383">
        <ele>186</ele>
        <time>2017-04-05T10:14:51Z</time>
      </trkpt>
      <trkpt lat="45.94546" lon="4.73825">
        <ele>186</ele>
        <time>2017-04-05T10:14:52Z</time>
      </trkpt>
      <trkpt lat="45.9454" lon="4.7382">
        <ele>186</ele>
        <time>2017-04-05T10:14:53Z</time>
      </trkpt>
      <trkpt lat="45.94535" lon="4.73814">
        <ele>186</ele>
        <time>2017-04-05T10:14:54Z</time>
      </trkpt>
      <trkpt lat="45.9453" lon="4.73809">
        <ele>186</ele>
        <time>2017-04-05T10:14:55Z</time>
      </trkpt>
      <trkpt lat="45.94525" lon="4.73803">
        <ele>186</ele>
        <time>2017-04-05T10:14:56Z</time>
      </trkpt>
      <trkpt lat="45.9452" lon="4.73798">
        <ele>186</ele>
        <time>2017-04-05T10:14:57Z</time>
      </trkpt>
      <trkpt lat="45.94515" lon="4.73792">
        <ele>186</ele>
        <time>2017-04-05T10:14:58Z</time>
      </trkpt>
      <trkpt lat="45.9451" lon="4.73787">
        <ele>186</ele>
        <time>2017-04-05T10:14:59Z</time>
      </trkpt>
      <trkpt lat="45.94506" lon="4.73782">
        <ele>186</ele>
        <time>2017-04-05T10:15:00Z</time>
      </trkpt>
      <trkpt lat="45.94501" lon="4.73777">
        <ele>186</ele>
        <time>2017-04-05T10:15:01Z</time>
      </trkpt>
      <trkpt lat="45.94496" lon="4.73771">
        <ele>186</ele>
        <time>2017-04-05T10:15:02Z</time>
      </trkpt>
      <trkpt lat="45.94493" lon="4.73763">
        <ele>186</ele>
        <time>2017-04-05T10:15:03Z</time>
      </trkpt>
      <trkpt lat="45.94489" lon="4.73756">
        <ele>186</ele>
        <time>2017-04-05T10:15:04Z</time>
      </trkpt>
      <trkpt lat="45.94486" lon="4.73748">
        <ele>186</ele>
        <time>2017-04-05T10:15:05Z</time>
      </trkpt>
      <trkpt lat="45.94485" lon="4.7374">
        <ele>186</ele>
        <time>2017-04-05T10:15:06Z</time>
      </trkpt>
      <trkpt lat="45.94485" lon="4.73731">
        <ele>186</ele>
        <time>2017-04-05T10:15:07Z</time>
      </trkpt>
      <trkpt lat="45.94485" lon="4.73723">
        <ele>186</ele>
        <time>2017-04-05T10:15:08Z</time>
      </trkpt>
      <trkpt lat="45.94486" lon="4.73715">
        <ele>186</ele>
        <time>2017-04-05T10:15:09Z</time>
      </trkpt>
      <trkpt lat="45.94488" lon="4.73706">
        <ele>186</ele>
        <time>2017-04-05T10:15:10Z</time>
      </trkpt>
      <trkpt lat="45.94489" lon="4.73697">
        <ele>186</ele>
        <time>2017-04-05T10:15:11Z</time>
      </trkpt>
      <trkpt lat="45.9449" lon="4.73687">
        <ele>186</ele>
        <time>2017-04-05T10:15:12Z</time>
      </trkpt>
      <trkpt lat="45.94491" lon="4.73678">
        <ele>185</ele>
        <time>2017-04-05T10:15:13Z</time>
      </trkpt>
      <trkpt lat="45.94493" lon="4.73668">
        <ele>185</ele>
        <time>2017-04-05T10:15:14Z</time>
      </trkpt>
      <trkpt lat="45.94494" lon="4.73659">
        <ele>185</ele>
        <time>2017-04-05T10:15:15Z</time>
      </trkpt>
      <trkpt lat="45.94495" lon="4.73649">
        <ele>185</ele>
        <time>2017-04-05T10:15:16Z</time>
      </trkpt>
      <trkpt lat="45.94496" lon="4.7364">
        <ele>186</ele>
        <time>2017-04-05T10:15:17Z</time>
      </trkpt>
      <trkpt lat="45.94497" lon="4.73631">
        <ele>186</ele>
        <time>2017-04-05T10:15:18Z</time>
      </trkpt>
      <trkpt lat="45.94498" lon="4.73622">
        <ele>186</ele>
        <time>2017-04-05T10:15:19Z</time>
      </trkpt>
      <trkpt lat="45.94498" lon="4.73613">
        <ele>186</ele>
        <time>2017-04-05T10:15:20Z</time>
      </trkpt>
      <trkpt lat="45.94499" lon="4.73604">
        <ele>185</ele>
        <time>2017-04-05T10:15:21Z</time>
      </trkpt>
      <trkpt lat="45.945" lon="4.73595">
        <ele>185</ele>
        <time>2017-04-05T10:15:22Z</time>
      </trkpt>
      <trkpt lat="45.945" lon="4.73586">
        <ele>185</ele>
        <time>2017-04-05T10:15:23Z</time>
      </trkpt>
      <trkpt lat="45.945" lon="4.73577">
        <ele>184</ele>
        <time>2017-04-05T10:15:24Z</time>
      </trkpt>
      <trkpt lat="45.94501" lon="4.73568">
        <ele>184</ele>
        <time>2017-04-05T10:15:25Z</time>
      </trkpt>
      <trkpt lat="45.94501" lon="4.73558">
        <ele>184</ele>
        <time>2017-04-05T10:15:26Z</time>
      </trkpt>
      <trkpt lat="45.94502" lon="4.73549">
        <ele>183</ele>
        <time>2017-04-05T10:15:27Z</time>
      </trkpt>
      <trkpt lat="45.94502" lon="4.73539">
        <ele>183</ele>
        <time>2017-04-05T10:15:28Z</time>
      </trkpt>
      <trkpt lat="45.94502" lon="4.73529">
        <ele>183</ele>
        <time>2017-04-05T10:15:29Z</time>
      </trkpt>
      <trkpt lat="45.94503" lon="4.73519">
        <ele>183</ele>
        <time>2017-04-05T10:15:30Z</time>
      </trkpt>
      <trkpt lat="45.94502" lon="4.73509">
        <ele>183</ele>
        <time>2017-04-05T10:15:31Z</time>
      </trkpt>
      <trkpt lat="45.94502" lon="4.73499">
        <ele>183</ele>
        <time>2017-04-05T10:15:32Z</time>
      </trkpt>
      <trkpt lat="45.94502" lon="4.73488">
        <ele>182</ele>
        <time>2017-04-05T10:15:33Z</time>
      </trkpt>
      <trkpt lat="45.94502" lon="4.73479">
        <ele>182</ele>
        <time>2017-04-05T10:15:34Z</time>
      </trkpt>
      <trkpt lat="45.94503" lon="4.73469">
        <ele>181</ele>
        <time>2017-04-05T10:15:35Z</time>
      </trkpt>
      <trkpt lat="45.94503" lon="4.73459">
        <ele>181</ele>
        <time>2017-04-05T10:15:36Z</time>
      </trkpt>
      <trkpt lat="45.94503" lon="4.73448">
        <ele>181</ele>
        <time>2017-04-05T10:15:37Z</time>
      </trkpt>
      <trkpt lat="45.94503" lon="4.73437">
        <ele>181</ele>
        <time>2017-04-05T10:15:38Z</time>
      </trkpt>
      <trkpt lat="45.94502" lon="4.73425">
        <ele>180</ele>
        <time>2017-04-05T10:15:39Z</time>
      </trkpt>
      <trkpt lat="45.94502" lon="4.73414">
        <ele>180</ele>
        <time>2017-04-05T10:15:40Z</time>
      </trkpt>
      <trkpt lat="45.94501" lon="4.73403">
        <ele>179</ele>
        <time>2017-04-05T10:15:41Z</time>
      </trkpt>
      <trkpt lat="45.945" lon="4.73392">
        <ele>179</ele>
        <time>2017-04-05T10:15:42Z</time>
      </trkpt>
      <trkpt lat="45.94499" lon="4.73381">
        <ele>179</ele>
        <time>2017-04-05T10:15:43Z</time>
      </trkpt>
      <trkpt lat="45.94498" lon="4.7337">
        <ele>179</ele>
        <time>2017-04-05T10:15:44Z</time>
      </trkpt>
      <trkpt lat="45.94497" lon="4.73358">
        <ele>178</ele>
        <time>2017-04-05T10:15:45Z</time>
      </trkpt>
      <trkpt lat="45.94495" lon="4.73347">
        <ele>178</ele>
        <time>2017-04-05T10:15:46Z</time>
      </trkpt>
      <trkpt lat="45.94494" lon="4.73335">
        <ele>178</ele>
        <time>2017-04-05T10:15:47Z</time>
      </trkpt>
      <trkpt lat="45.94492" lon="4.73324">
        <ele>177</ele>
        <time>2017-04-05T10:15:48Z</time>
      </trkpt>
      <trkpt lat="45.9449" lon="4.73312">
        <ele>177</ele>
        <time>2017-04-05T10:15:49Z</time>
      </trkpt>
      <trkpt lat="45.94489" lon="4.733">
        <ele>177</ele>
        <time>2017-04-05T10:15:50Z</time>
      </trkpt>
      <trkpt lat="45.94487" lon="4.73288">
        <ele>177</ele>
        <time>2017-04-05T10:15:51Z</time>
      </trkpt>
      <trkpt lat="45.94486" lon="4.73276">
        <ele>177</ele>
        <time>2017-04-05T10:15:52Z</time>
      </trkpt>
      <trkpt lat="45.94484" lon="4.73265">
        <ele>177</ele>
        <time>2017-04-05T10:15:53Z</time>
      </trkpt>
      <trkpt lat="45.94482" lon="4.73254">
        <ele>176</ele>
        <time>2017-04-05T10:15:54Z</time>
      </trkpt>
      <trkpt lat="45.9448" lon="4.73242">
        <ele>175</ele>
        <time>2017-04-05T10:15:55Z</time>
      </trkpt>
      <trkpt lat="45.94478" lon="4.73231">
        <ele>175</ele>
        <time>2017-04-05T10:15:56Z</time>
      </trkpt>
      <trkpt lat="45.94477" lon="4.73219">
        <ele>175</ele>
        <time>2017-04-05T10:15:57Z</time>
      </trkpt>
      <trkpt lat="45.94475" lon="4.73208">
        <ele>175</ele>
        <time>2017-04-05T10:15:58Z</time>
      </trkpt>
      <trkpt lat="45.94474" lon="4.73196">
        <ele>174</ele>
        <time>2017-04-05T10:15:59Z</time>
      </trkpt>
      <trkpt lat="45.94472" lon="4.73183">
        <ele>174</ele>
        <time>2017-04-05T10:16:00Z</time>
      </trkpt>
      <trkpt lat="45.9447" lon="4.73171">
        <ele>174</ele>
        <time>2017-04-05T10:16:01Z</time>
      </trkpt>
      <trkpt lat="45.94469" lon="4.7316">
        <ele>172</ele>
        <time>2017-04-05T10:16:02Z</time>
      </trkpt>
      <trkpt lat="45.94467" lon="4.73148">
        <ele>172</ele>
        <time>2017-04-05T10:16:03Z</time>
      </trkpt>
      <trkpt lat="45.94466" lon="4.73137">
        <ele>172</ele>
        <time>2017-04-05T10:16:04Z</time>
      </trkpt>
      <trkpt lat="45.94465" lon="4.73126">
        <ele>172</ele>
        <time>2017-04-05T10:16:05Z</time>
      </trkpt>
      <trkpt lat="45.94464" lon="4.73116">
        <ele>172</ele>
        <time>2017-04-05T10:16:06Z</time>
      </trkpt>
      <trkpt lat="45.94463" lon="4.73105">
        <ele>172</ele>
        <time>2017-04-05T10:16:07Z</time>
      </trkpt>
      <trkpt lat="45.94462" lon="4.73095">
        <ele>171</ele>
        <time>2017-04-05T10:16:08Z</time>
      </trkpt>
      <trkpt lat="45.94461" lon="4.73085">
        <ele>171</ele>
        <time>2017-04-05T10:16:09Z</time>
      </trkpt>
      <trkpt lat="45.94459" lon="4.73074">
        <ele>170</ele>
        <time>2017-04-05T10:16:10Z</time>
      </trkpt>
      <trkpt lat="45.94458" lon="4.73064">
        <ele>170</ele>
        <time>2017-04-05T10:16:11Z</time>
      </trkpt>
      <trkpt lat="45.94457" lon="4.73055">
        <ele>170</ele>
        <time>2017-04-05T10:16:12Z</time>
      </trkpt>
      <trkpt lat="45.94456" lon="4.73046">
        <ele>169</ele>
        <time>2017-04-05T10:16:13Z</time>
      </trkpt>
      <trkpt lat="45.94455" lon="4.73036">
        <ele>169</ele>
        <time>2017-04-05T10:16:14Z</time>
      </trkpt>
      <trkpt lat="45.94454" lon="4.73028">
        <ele>169</ele>
        <time>2017-04-05T10:16:15Z</time>
      </trkpt>
      <trkpt lat="45.94453" lon="4.73019">
        <ele>169</ele>
        <time>2017-04-05T10:16:16Z</time>
      </trkpt>
      <trkpt lat="45.94452" lon="4.73011">
        <ele>169</ele>
        <time>2017-04-05T10:16:17Z</time>
      </trkpt>
      <trkpt lat="45.9445" lon="4.73002">
        <ele>169</ele>
        <time>2017-04-05T10:16:18Z</time>
      </trkpt>
      <trkpt lat="45.94449" lon="4.72993">
        <ele>167</ele>
        <time>2017-04-05T10:16:19Z</time>
      </trkpt>
      <trkpt lat="45.94448" lon="4.72985">
        <ele>167</ele>
        <time>2017-04-05T10:16:20Z</time>
      </trkpt>
      <trkpt lat="45.94447" lon="4.72977">
        <ele>167</ele>
        <time>2017-04-05T10:16:21Z</time>
      </trkpt>
      <trkpt lat="45.94446" lon="4.72969">
        <ele>167</ele>
        <time>2017-04-05T10:16:22Z</time>
      </trkpt>
      <trkpt lat="45.94445" lon="4.7296">
        <ele>167</ele>
        <time>2017-04-05T10:16:23Z</time>
      </trkpt>
      <trkpt lat="45.94444" lon="4.72953">
        <ele>167</ele>
        <time>2017-04-05T10:16:24Z</time>
      </trkpt>
      <trkpt lat="45.94443" lon="4.72945">
        <ele>167</ele>
        <time>2017-04-05T10:16:25Z</time>
      </trkpt>
      <trkpt lat="45.94442" lon="4.72937">
        <ele>167</ele>
        <time>2017-04-05T10:16:26Z</time>
      </trkpt>
      <trkpt lat="45.94441" lon="4.7293">
        <ele>167</ele>
        <time>2017-04-05T10:16:27Z</time>
      </trkpt>
      <trkpt lat="45.9444" lon="4.72923">
        <ele>167</ele>
        <time>2017-04-05T10:16:28Z</time>
      </trkpt>
      <trkpt lat="45.94439" lon="4.72915">
        <ele>166</ele>
        <time>2017-04-05T10:16:29Z</time>
      </trkpt>
      <trkpt lat="45.94438" lon="4.72908">
        <ele>166</ele>
        <time>2017-04-05T10:16:30Z</time>
      </trkpt>
      <trkpt lat="45.94437" lon="4.729">
        <ele>166</ele>
        <time>2017-04-05T10:16:31Z</time>
      </trkpt>
      <trkpt lat="45.94436" lon="4.72893">
        <ele>166</ele>
        <time>2017-04-05T10:16:32Z</time>
      </trkpt>
      <trkpt lat="45.94435" lon="4.72885">
        <ele>166</ele>
        <time>2017-04-05T10:16:33Z</time>
      </trkpt>
      <trkpt lat="45.94434" lon="4.72878">
        <ele>166</ele>
        <time>2017-04-05T10:16:34Z</time>
      </trkpt>
      <trkpt lat="45.94433" lon="4.72871">
        <ele>166</ele>
        <time>2017-04-05T10:16:35Z</time>
      </trkpt>
      <trkpt lat="45.94432" lon="4.72863">
        <ele>166</ele>
        <time>2017-04-05T10:16:36Z</time>
      </trkpt>
      <trkpt lat="45.94431" lon="4.72855">
        <ele>166</ele>
        <time>2017-04-05T10:16:37Z</time>
      </trkpt>
      <trkpt lat="45.9443" lon="4.72847">
        <ele>166</ele>
        <time>2017-04-05T10:16:38Z</time>
      </trkpt>
      <trkpt lat="45.94429" lon="4.72839">
        <ele>166</ele>
        <time>2017-04-05T10:16:39Z</time>
      </trkpt>
      <trkpt lat="45.94427" lon="4.7283">
        <ele>166</ele>
        <time>2017-04-05T10:16:40Z</time>
      </trkpt>
      <trkpt lat="45.94426" lon="4.72821">
        <ele>167</ele>
        <time>2017-04-05T10:16:41Z</time>
      </trkpt>
      <trkpt lat="45.94425" lon="4.72811">
        <ele>167</ele>
        <time>2017-04-05T10:16:42Z</time>
      </trkpt>
      <trkpt lat="45.94424" lon="4.72801">
        <ele>167</ele>
        <time>2017-04-05T10:16:43Z</time>
      </trkpt>
      <trkpt lat="45.94423" lon="4.72792">
        <ele>168</ele>
        <time>2017-04-05T10:16:44Z</time>
      </trkpt>
      <trkpt lat="45.94421" lon="4.72781">
        <ele>168</ele>
        <time>2017-04-05T10:16:45Z</time>
      </trkpt>
      <trkpt lat="45.9442" lon="4.72771">
        <ele>169</ele>
        <time>2017-04-05T10:16:46Z</time>
      </trkpt>
      <trkpt lat="45.94419" lon="4.72761">
        <ele>170</ele>
        <time>2017-04-05T10:16:47Z</time>
      </trkpt>
      <trkpt lat="45.94417" lon="4.72751">
        <ele>171</ele>
        <time>2017-04-05T10:16:48Z</time>
      </trkpt>
      <trkpt lat="45.94416" lon="4.7274">
        <ele>171</ele>
        <time>2017-04-05T10:16:49Z</time>
      </trkpt>
      <trkpt lat="45.94415" lon="4.7273">
        <ele>172</ele>
        <time>2017-04-05T10:16:50Z</time>
      </trkpt>
      <trkpt lat="45.94414" lon="4.7272">
        <ele>172</ele>
        <time>2017-04-05T10:16:51Z</time>
      </trkpt>
      <trkpt lat="45.94412" lon="4.7271">
        <ele>172</ele>
        <time>2017-04-05T10:16:52Z</time>
      </trkpt>
      <trkpt lat="45.94411" lon="4.72701">
        <ele>172</ele>
        <time>2017-04-05T10:16:53Z</time>
      </trkpt>
      <trkpt lat="45.9441" lon="4.72691">
        <ele>173</ele>
        <time>2017-04-05T10:16:54Z</time>
      </trkpt>
      <trkpt lat="45.94409" lon="4.72682">
        <ele>173</ele>
        <time>2017-04-05T10:16:55Z</time>
      </trkpt>
      <trkpt lat="45.94407" lon="4.72673">
        <ele>173</ele>
        <time>2017-04-05T10:16:56Z</time>
      </trkpt>
      <trkpt lat="45.94406" lon="4.72663">
        <ele>174</ele>
        <time>2017-04-05T10:16:57Z</time>
      </trkpt>
      <trkpt lat="45.94405" lon="4.72654">
        <ele>174</ele>
        <time>2017-04-05T10:16:58Z</time>
      </trkpt>
      <trkpt lat="45.94404" lon="4.72644">
        <ele>174</ele>
        <time>2017-04-05T10:16:59Z</time>
      </trkpt>
      <trkpt lat="45.94403" lon="4.72635">
        <ele>174</ele>
        <time>2017-04-05T10:17:00Z</time>
      </trkpt>
      <trkpt lat="45.94402" lon="4.72626">
        <ele>174</ele>
        <time>2017-04-05T10:17:01Z</time>
      </trkpt>
      <trkpt lat="45.94401" lon="4.72617">
        <ele>173</ele>
        <time>2017-04-05T10:17:02Z</time>
      </trkpt>
      <trkpt lat="45.94399" lon="4.72609">
        <ele>173</ele>
        <time>2017-04-05T10:17:03Z</time>
      </trkpt>
      <trkpt lat="45.94398" lon="4.726">
        <ele>173</ele>
        <time>2017-04-05T10:17:04Z</time>
      </trkpt>
      <trkpt lat="45.94397" lon="4.72591">
        <ele>173</ele>
        <time>2017-04-05T10:17:05Z</time>
      </trkpt>
      <trkpt lat="45.94396" lon="4.72583">
        <ele>173</ele>
        <time>2017-04-05T10:17:06Z</time>
      </trkpt>
      <trkpt lat="45.94394" lon="4.72575">
        <ele>173</ele>
        <time>2017-04-05T10:17:07Z</time>
      </trkpt>
      <trkpt lat="45.94393" lon="4.72567">
        <ele>173</ele>
        <time>2017-04-05T10:17:08Z</time>
      </trkpt>
      <trkpt lat="45.94391" lon="4.72559">
        <ele>173</ele>
        <time>2017-04-05T10:17:09Z</time>
      </trkpt>
      <trkpt lat="45.94389" lon="4.72551">
        <ele>173</ele>
        <time>2017-04-05T10:17:10Z</time>
      </trkpt>
      <trkpt lat="45.94387" lon="4.72543">
        <ele>173</ele>
        <time>2017-04-05T10:17:11Z</time>
      </trkpt>
      <trkpt lat="45.94386" lon="4.72535">
        <ele>174</ele>
        <time>2017-04-05T10:17:12Z</time>
      </trkpt>
      <trkpt lat="45.94385" lon="4.72527">
        <ele>174</ele>
        <time>2017-04-05T10:17:13Z</time>
      </trkpt>
      <trkpt lat="45.94383" lon="4.7252">
        <ele>174</ele>
        <time>2017-04-05T10:17:14Z</time>
      </trkpt>
      <trkpt lat="45.94382" lon="4.72512">
        <ele>174</ele>
        <time>2017-04-05T10:17:15Z</time>
      </trkpt>
      <trkpt lat="45.9438" lon="4.72505">
        <ele>174</ele>
        <time>2017-04-05T10:17:16Z</time>
      </trkpt>
      <trkpt lat="45.94378" lon="4.72497">
        <ele>173</ele>
        <time>2017-04-05T10:17:17Z</time>
      </trkpt>
      <trkpt lat="45.94375" lon="4.7249">
        <ele>173</ele>
        <time>2017-04-05T10:17:18Z</time>
      </trkpt>
      <trkpt lat="45.94373" lon="4.72482">
        <ele>173</ele>
        <time>2017-04-05T10:17:19Z</time>
      </trkpt>
      <trkpt lat="45.9437" lon="4.72475">
        <ele>173</ele>
        <time>2017-04-05T10:17:20Z</time>
      </trkpt>
      <trkpt lat="45.94367" lon="4.72468">
        <ele>173</ele>
        <time>2017-04-05T10:17:21Z</time>
      </trkpt>
      <trkpt lat="45.94364" lon="4.72461">
        <ele>173</ele>
        <time>2017-04-05T10:17:22Z</time>
      </trkpt>
      <trkpt lat="45.9436" lon="4.72454">
        <ele>173</ele>
        <time>2017-04-05T10:17:23Z</time>
      </trkpt>
      <trkpt lat="45.94358" lon="4.72448">
        <ele>173</ele>
        <time>2017-04-05T10:17:24Z</time>
      </trkpt>
      <trkpt lat="45.94355" lon="4.72442">
        <ele>173</ele>
        <time>2017-04-05T10:17:25Z</time>
      </trkpt>
      <trkpt lat="45.94353" lon="4.72435">
        <ele>173</ele>
        <time>2017-04-05T10:17:26Z</time>
      </trkpt>
      <trkpt lat="45.9435" lon="4.72428">
        <ele>173</ele>
        <time>2017-04-05T10:17:27Z</time>
      </trkpt>
      <trkpt lat="45.94347" lon="4.72421">
        <ele>173</ele>
        <time>2017-04-05T10:17:28Z</time>
      </trkpt>
      <trkpt lat="45.94344" lon="4.72414">
        <ele>173</ele>
        <time>2017-04-05T10:17:29Z</time>
      </trkpt>
      <trkpt lat="45.9434" lon="4.72406">
        <ele>173</ele>
        <time>2017-04-05T10:17:30Z</time>
      </trkpt>
      <trkpt lat="45.94336" lon="4.72399">
        <ele>172</ele>
        <time>2017-04-05T10:17:31Z</time>
      </trkpt>
      <trkpt lat="45.94332" lon="4.72391">
        <ele>172</ele>
        <time>2017-04-05T10:17:32Z</time>
      </trkpt>
      <trkpt lat="45.94329" lon="4.72384">
        <ele>172</ele>
        <time>2017-04-05T10:17:33Z</time>
      </trkpt>
      <trkpt lat="45.94325" lon="4.72377">
        <ele>172</ele>
        <time>2017-04-05T10:17:34Z</time>
      </trkpt>
      <trkpt lat="45.94322" lon="4.7237">
        <ele>172</ele>
        <time>2017-04-05T10:17:35Z</time>
      </trkpt>
      <trkpt lat="45.94318" lon="4.72363">
        <ele>172</ele>
        <time>2017-04-05T10:17:36Z</time>
      </trkpt>
      <trkpt lat="45.94315" lon="4.72356">
        <ele>172</ele>
        <time>2017-04-05T10:17:37Z</time>
      </trkpt>
      <trkpt lat="45.94312" lon="4.72349">
        <ele>172</ele>
        <time>2017-04-05T10:17:38Z</time>
      </trkpt>
      <trkpt lat="45.94309" lon="4.72342">
        <ele>172</ele>
        <time>2017-04-05T10:17:39Z</time>
      </trkpt>
      <trkpt lat="45.94306" lon="4.72335">
        <ele>172</ele>
        <time>2017-04-05T10:17:40Z</time>
      </trkpt>
      <trkpt lat="45.94302" lon="4.72328">
        <ele>171</ele>
        <time>2017-04-05T10:17:41Z</time>
      </trkpt>
      <trkpt lat="45.94299" lon="4.72321">
        <ele>171</ele>
        <time>2017-04-05T10:17:42Z</time>
      </trkpt>
      <trkpt lat="45.94295" lon="4.72314">
        <ele>171</ele>
        <time>2017-04-05T10:17:43Z</time>
      </trkpt>
      <trkpt lat="45.94292" lon="4.72307">
        <ele>171</ele>
        <time>2017-04-05T10:17:44Z</time>
      </trkpt>
      <trkpt lat="45.94289" lon="4.723">
        <ele>171</ele>
        <time>2017-04-05T10:17:45Z</time>
      </trkpt>
      <trkpt lat="45.94286" lon="4.72293">
        <ele>171</ele>
        <time>2017-04-05T10:17:46Z</time>
      </trkpt>
      <trkpt lat="45.94283" lon="4.72287">
        <ele>171</ele>
        <time>2017-04-05T10:17:47Z</time>
      </trkpt>
      <trkpt lat="45.9428" lon="4.72281">
        <ele>171</ele>
        <time>2017-04-05T10:17:48Z</time>
      </trkpt>
      <trkpt lat="45.94276" lon="4.72273">
        <ele>171</ele>
        <time>2017-04-05T10:17:50Z</time>
      </trkpt>
      <trkpt lat="45.94274" lon="4.7227">
        <ele>171</ele>
        <time>2017-04-05T10:17:51Z</time>
      </trkpt>
      <trkpt lat="45.94267" lon="4.72264">
        <ele>171</ele>
        <time>2017-04-05T10:17:54Z</time>
      </trkpt>
      <trkpt lat="45.94264" lon="4.72266">
        <ele>171</ele>
        <time>2017-04-05T10:17:55Z</time>
      </trkpt>
      <trkpt lat="45.94257" lon="4.72273">
        <ele>171</ele>
        <time>2017-04-05T10:17:57Z</time>
      </trkpt>
      <trkpt lat="45.94253" lon="4.72276">
        <ele>171</ele>
        <time>2017-04-05T10:17:58Z</time>
      </trkpt>
      <trkpt lat="45.94248" lon="4.72277">
        <ele>171</ele>
        <time>2017-04-05T10:17:59Z</time>
      </trkpt>
      <trkpt lat="45.94243" lon="4.72279">
        <ele>171</ele>
        <time>2017-04-05T10:18:00Z</time>
      </trkpt>
      <trkpt lat="45.94238" lon="4.72281">
        <ele>171</ele>
        <time>2017-04-05T10:18:01Z</time>
      </trkpt>
      <trkpt lat="45.94232" lon="4.72283">
        <ele>171</ele>
        <time>2017-04-05T10:18:02Z</time>
      </trkpt>
      <trkpt lat="45.94227" lon="4.72285">
        <ele>171</ele>
        <time>2017-04-05T10:18:03Z</time>
      </trkpt>
      <trkpt lat="45.94221" lon="4.72286">
        <ele>171</ele>
        <time>2017-04-05T10:18:04Z</time>
      </trkpt>
      <trkpt lat="45.94215" lon="4.72288">
        <ele>171</ele>
        <time>2017-04-05T10:18:05Z</time>
      </trkpt>
      <trkpt lat="45.94209" lon="4.72289">
        <ele>171</ele>
        <time>2017-04-05T10:18:06Z</time>
      </trkpt>
      <trkpt lat="45.94204" lon="4.72289">
        <ele>171</ele>
        <time>2017-04-05T10:18:07Z</time>
      </trkpt>
      <trkpt lat="45.94198" lon="4.72288">
        <ele>171</ele>
        <time>2017-04-05T10:18:08Z</time>
      </trkpt>
      <trkpt lat="45.94193" lon="4.72287">
        <ele>171</ele>
        <time>2017-04-05T10:18:09Z</time>
      </trkpt>
      <trkpt lat="45.94187" lon="4.72287">
        <ele>171</ele>
        <time>2017-04-05T10:18:10Z</time>
      </trkpt>
      <trkpt lat="45.94181" lon="4.72286">
        <ele>171</ele>
        <time>2017-04-05T10:18:11Z</time>
      </trkpt>
      <trkpt lat="45.94176" lon="4.72286">
        <ele>171</ele>
        <time>2017-04-05T10:18:12Z</time>
      </trkpt>
      <trkpt lat="45.9417" lon="4.72286">
        <ele>171</ele>
        <time>2017-04-05T10:18:13Z</time>
      </trkpt>
      <trkpt lat="45.94164" lon="4.72285">
        <ele>171</ele>
        <time>2017-04-05T10:18:14Z</time>
      </trkpt>
      <trkpt lat="45.94159" lon="4.72283">
        <ele>171</ele>
        <time>2017-04-05T10:18:15Z</time>
      </trkpt>
      <trkpt lat="45.94154" lon="4.72282">
        <ele>171</ele>
        <time>2017-04-05T10:18:16Z</time>
      </trkpt>
      <trkpt lat="45.94148" lon="4.7228">
        <ele>171</ele>
        <time>2017-04-05T10:18:17Z</time>
      </trkpt>
      <trkpt lat="45.94143" lon="4.72277">
        <ele>171</ele>
        <time>2017-04-05T10:18:18Z</time>
      </trkpt>
      <trkpt lat="45.94138" lon="4.72274">
        <ele>171</ele>
        <time>2017-04-05T10:18:19Z</time>
      </trkpt>
      <trkpt lat="45.94134" lon="4.72272">
        <ele>171</ele>
        <time>2017-04-05T10:18:20Z</time>
      </trkpt>
      <trkpt lat="45.94129" lon="4.72269">
        <ele>171</ele>
        <time>2017-04-05T10:18:21Z</time>
      </trkpt>
      <trkpt lat="45.94123" lon="4.72268">
        <ele>171</ele>
        <time>2017-04-05T10:18:22Z</time>
      </trkpt>
      <trkpt lat="45.94118" lon="4.72265">
        <ele>171</ele>
        <time>2017-04-05T10:18:23Z</time>
      </trkpt>
      <trkpt lat="45.94112" lon="4.72263">
        <ele>171</ele>
        <time>2017-04-05T10:18:24Z</time>
      </trkpt>
      <trkpt lat="45.94106" lon="4.72262">
        <ele>171</ele>
        <time>2017-04-05T10:18:25Z</time>
      </trkpt>
      <trkpt lat="45.941" lon="4.72262">
        <ele>171</ele>
        <time>2017-04-05T10:18:26Z</time>
      </trkpt>
      <trkpt lat="45.94092" lon="4.72262">
        <ele>171</ele>
        <time>2017-04-05T10:18:27Z</time>
      </trkpt>
      <trkpt lat="45.94085" lon="4.72264">
        <ele>171</ele>
        <time>2017-04-05T10:18:28Z</time>
      </trkpt>
      <trkpt lat="45.94078" lon="4.72268">
        <ele>171</ele>
        <time>2017-04-05T10:18:29Z</time>
      </trkpt>
      <trkpt lat="45.94072" lon="4.72273">
        <ele>171</ele>
        <time>2017-04-05T10:18:30Z</time>
      </trkpt>
      <trkpt lat="45.94066" lon="4.72278">
        <ele>171</ele>
        <time>2017-04-05T10:18:31Z</time>
      </trkpt>
      <trkpt lat="45.9406" lon="4.72284">
        <ele>171</ele>
        <time>2017-04-05T10:18:32Z</time>
      </trkpt>
      <trkpt lat="45.94054" lon="4.72291">
        <ele>171</ele>
        <time>2017-04-05T10:18:33Z</time>
      </trkpt>
      <trkpt lat="45.94049" lon="4.72297">
        <ele>171</ele>
        <time>2017-04-05T10:18:34Z</time>
      </trkpt>
      <trkpt lat="45.94043" lon="4.72304">
        <ele>171</ele>
        <time>2017-04-05T10:18:35Z</time>
      </trkpt>
      <trkpt lat="45.94038" lon="4.72311">
        <ele>171</ele>
        <time>2017-04-05T10:18:36Z</time>
      </trkpt>
      <trkpt lat="45.94033" lon="4.72317">
        <ele>171</ele>
        <time>2017-04-05T10:18:37Z</time>
      </trkpt>
      <trkpt lat="45.94028" lon="4.72324">
        <ele>171</ele>
        <time>2017-04-05T10:18:38Z</time>
      </trkpt>
      <trkpt lat="45.94023" lon="4.72331">
        <ele>171</ele>
        <time>2017-04-05T10:18:39Z</time>
      </trkpt>
      <trkpt lat="45.94018" lon="4.72338">
        <ele>171</ele>
        <time>2017-04-05T10:18:40Z</time>
      </trkpt>
      <trkpt lat="45.94013" lon="4.72344">
        <ele>171</ele>
        <time>2017-04-05T10:18:41Z</time>
      </trkpt>
      <trkpt lat="45.94007" lon="4.72351">
        <ele>171</ele>
        <time>2017-04-05T10:18:42Z</time>
      </trkpt>
      <trkpt lat="45.94003" lon="4.72357">
        <ele>171</ele>
        <time>2017-04-05T10:18:43Z</time>
      </trkpt>
      <trkpt lat="45.93998" lon="4.72363">
        <ele>171</ele>
        <time>2017-04-05T10:18:44Z</time>
      </trkpt>
      <trkpt lat="45.93993" lon="4.72369">
        <ele>171</ele>
        <time>2017-04-05T10:18:45Z</time>
      </trkpt>
      <trkpt lat="45.93988" lon="4.72375">
        <ele>171</ele>
        <time>2017-04-05T10:18:46Z</time>
      </trkpt>
      <trkpt lat="45.93984" lon="4.7238">
        <ele>171</ele>
        <time>2017-04-05T10:18:47Z</time>
      </trkpt>
      <trkpt lat="45.93979" lon="4.72385">
        <ele>171</ele>
        <time>2017-04-05T10:18:48Z</time>
      </trkpt>
      <trkpt lat="45.93975" lon="4.7239">
        <ele>171</ele>
        <time>2017-04-05T10:18:49Z</time>
      </trkpt>
      <trkpt lat="45.93971" lon="4.72395">
        <ele>171</ele>
        <time>2017-04-05T10:18:50Z</time>
      </trkpt>
      <trkpt lat="45.93967" lon="4.724">
        <ele>171</ele>
        <time>2017-04-05T10:18:51Z</time>
      </trkpt>
      <trkpt lat="45.93962" lon="4.72405">
        <ele>171</ele>
        <time>2017-04-05T10:18:52Z</time>
      </trkpt>
      <trkpt lat="45.93958" lon="4.7241">
        <ele>171</ele>
        <time>2017-04-05T10:18:53Z</time>
      </trkpt>
      <trkpt lat="45.93953" lon="4.72415">
        <ele>171</ele>
        <time>2017-04-05T10:18:54Z</time>
      </trkpt>
      <trkpt lat="45.93949" lon="4.72421">
        <ele>171</ele>
        <time>2017-04-05T10:18:55Z</time>
      </trkpt>
      <trkpt lat="45.93944" lon="4.72427">
        <ele>171</ele>
        <time>2017-04-05T10:18:56Z</time>
      </trkpt>
      <trkpt lat="45.9394" lon="4.72433">
        <ele>171</ele>
        <time>2017-04-05T10:18:57Z</time>
      </trkpt>
      <trkpt lat="45.93935" lon="4.72439">
        <ele>171</ele>
        <time>2017-04-05T10:18:58Z</time>
      </trkpt>
      <trkpt lat="45.9393" lon="4.72445">
        <ele>171</ele>
        <time>2017-04-05T10:18:59Z</time>
      </trkpt>
      <trkpt lat="45.93925" lon="4.72451">
        <ele>171</ele>
        <time>2017-04-05T10:19:00Z</time>
      </trkpt>
      <trkpt lat="45.9392" lon="4.72457">
        <ele>171</ele>
        <time>2017-04-05T10:19:01Z</time>
      </trkpt>
      <trkpt lat="45.93916" lon="4.72463">
        <ele>172</ele>
        <time>2017-04-05T10:19:02Z</time>
      </trkpt>
      <trkpt lat="45.93911" lon="4.72469">
        <ele>172</ele>
        <time>2017-04-05T10:19:03Z</time>
      </trkpt>
      <trkpt lat="45.93907" lon="4.72474">
        <ele>172</ele>
        <time>2017-04-05T10:19:04Z</time>
      </trkpt>
      <trkpt lat="45.93903" lon="4.7248">
        <ele>172</ele>
        <time>2017-04-05T10:19:05Z</time>
      </trkpt>
      <trkpt lat="45.93899" lon="4.72484">
        <ele>172</ele>
        <time>2017-04-05T10:19:06Z</time>
      </trkpt>
      <trkpt lat="45.93895" lon="4.72489">
        <ele>172</ele>
        <time>2017-04-05T10:19:07Z</time>
      </trkpt>
      <trkpt lat="45.93892" lon="4.72494">
        <ele>172</ele>
        <time>2017-04-05T10:19:08Z</time>
      </trkpt>
      <trkpt lat="45.93889" lon="4.72499">
        <ele>172</ele>
        <time>2017-04-05T10:19:09Z</time>
      </trkpt>
      <trkpt lat="45.93885" lon="4.72503">
        <ele>173</ele>
        <time>2017-04-05T10:19:10Z</time>
      </trkpt>
      <trkpt lat="45.93881" lon="4.72507">
        <ele>173</ele>
        <time>2017-04-05T10:19:11Z</time>
      </trkpt>
      <trkpt lat="45.93876" lon="4.72511">
        <ele>173</ele>
        <time>2017-04-05T10:19:12Z</time>
      </trkpt>
      <trkpt lat="45.93871" lon="4.72512">
        <ele>173</ele>
        <time>2017-04-05T10:19:13Z</time>
      </trkpt>
      <trkpt lat="45.93866" lon="4.72512">
        <ele>173</ele>
        <time>2017-04-05T10:19:14Z</time>
      </trkpt>
      <trkpt lat="45.93861" lon="4.72511">
        <ele>173</ele>
        <time>2017-04-05T10:19:15Z</time>
      </trkpt>
      <trkpt lat="45.93857" lon="4.72508">
        <ele>173</ele>
        <time>2017-04-05T10:19:16Z</time>
      </trkpt>
      <trkpt lat="45.93851" lon="4.72505">
        <ele>174</ele>
        <time>2017-04-05T10:19:17Z</time>
      </trkpt>
      <trkpt lat="45.93846" lon="4.72503">
        <ele>174</ele>
        <time>2017-04-05T10:19:18Z</time>
      </trkpt>
      <trkpt lat="45.93841" lon="4.725">
        <ele>173</ele>
        <time>2017-04-05T10:19:19Z</time>
      </trkpt>
      <trkpt lat="45.93837" lon="4.72497">
        <ele>174</ele>
        <time>2017-04-05T10:19:20Z</time>
      </trkpt>
      <trkpt lat="45.93832" lon="4.72491">
        <ele>173</ele>
        <time>2017-04-05T10:19:22Z</time>
      </trkpt>
      <trkpt lat="45.9383" lon="4.72476">
        <ele>173</ele>
        <time>2017-04-05T10:19:23Z</time>
      </trkpt>
      <trkpt lat="45.9383" lon="4.72467">
        <ele>172</ele>
        <time>2017-04-05T10:19:24Z</time>
      </trkpt>
      <trkpt lat="45.93827" lon="4.72463">
        <ele>172</ele>
        <time>2017-04-05T10:19:25Z</time>
      </trkpt>
      <trkpt lat="45.93821" lon="4.7246">
        <ele>172</ele>
        <time>2017-04-05T10:19:26Z</time>
      </trkpt>
      <trkpt lat="45.93817" lon="4.72457">
        <ele>172</ele>
        <time>2017-04-05T10:19:27Z</time>
      </trkpt>
      <trkpt lat="45.9381" lon="4.72451">
        <ele>172</ele>
        <time>2017-04-05T10:19:29Z</time>
      </trkpt>
      <trkpt lat="45.93809" lon="4.72448">
        <ele>172</ele>
        <time>2017-04-05T10:19:30Z</time>
      </trkpt>
      <trkpt lat="45.93806" lon="4.72444">
        <ele>172</ele>
        <time>2017-04-05T10:19:31Z</time>
      </trkpt>
      <trkpt lat="45.93801" lon="4.72441">
        <ele>172</ele>
        <time>2017-04-05T10:19:32Z</time>
      </trkpt>
      <trkpt lat="45.93796" lon="4.72438">
        <ele>172</ele>
        <time>2017-04-05T10:19:33Z</time>
      </trkpt>
      <trkpt lat="45.93791" lon="4.72434">
        <ele>172</ele>
        <time>2017-04-05T10:19:34Z</time>
      </trkpt>
      <trkpt lat="45.93787" lon="4.72429">
        <ele>172</ele>
        <time>2017-04-05T10:19:35Z</time>
      </trkpt>
      <trkpt lat="45.93781" lon="4.72425">
        <ele>172</ele>
        <time>2017-04-05T10:19:36Z</time>
      </trkpt>
      <trkpt lat="45.93776" lon="4.7242">
        <ele>171</ele>
        <time>2017-04-05T10:19:37Z</time>
      </trkpt>
      <trkpt lat="45.93771" lon="4.72416">
        <ele>171</ele>
        <time>2017-04-05T10:19:38Z</time>
      </trkpt>
      <trkpt lat="45.93766" lon="4.72412">
        <ele>171</ele>
        <time>2017-04-05T10:19:39Z</time>
      </trkpt>
      <trkpt lat="45.9376" lon="4.72407">
        <ele>171</ele>
        <time>2017-04-05T10:19:40Z</time>
      </trkpt>
      <trkpt lat="45.93755" lon="4.72402">
        <ele>171</ele>
        <time>2017-04-05T10:19:41Z</time>
      </trkpt>
      <trkpt lat="45.9375" lon="4.72397">
        <ele>171</ele>
        <time>2017-04-05T10:19:42Z</time>
      </trkpt>
      <trkpt lat="45.93745" lon="4.72393">
        <ele>171</ele>
        <time>2017-04-05T10:19:43Z</time>
      </trkpt>
      <trkpt lat="45.93741" lon="4.72388">
        <ele>171</ele>
        <time>2017-04-05T10:19:44Z</time>
      </trkpt>
      <trkpt lat="45.93736" lon="4.72383">
        <ele>171</ele>
        <time>2017-04-05T10:19:45Z</time>
      </trkpt>
      <trkpt lat="45.9373" lon="4.72379">
        <ele>171</ele>
        <time>2017-04-05T10:19:46Z</time>
      </trkpt>
      <trkpt lat="45.93724" lon="4.72375">
        <ele>171</ele>
        <time>2017-04-05T10:19:47Z</time>
      </trkpt>
      <trkpt lat="45.93719" lon="4.72371">
        <ele>172</ele>
        <time>2017-04-05T10:19:48Z</time>
      </trkpt>
      <trkpt lat="45.93715" lon="4.72366">
        <ele>172</ele>
        <time>2017-04-05T10:19:49Z</time>
      </trkpt>
      <trkpt lat="45.9371" lon="4.72361">
        <ele>172</ele>
        <time>2017-04-05T10:19:50Z</time>
      </trkpt>
      <trkpt lat="45.93706" lon="4.72357">
        <ele>171</ele>
        <time>2017-04-05T10:19:51Z</time>
      </trkpt>
      <trkpt lat="45.93703" lon="4.72353">
        <ele>171</ele>
        <time>2017-04-05T10:19:52Z</time>
      </trkpt>
      <trkpt lat="45.93696" lon="4.72347">
        <ele>171</ele>
        <time>2017-04-05T10:19:54Z</time>
      </trkpt>
      <trkpt lat="45.93691" lon="4.72343">
        <ele>171</ele>
        <time>2017-04-05T10:19:55Z</time>
      </trkpt>
      <trkpt lat="45.93686" lon="4.7234">
        <ele>171</ele>
        <time>2017-04-05T10:19:56Z</time>
      </trkpt>
      <trkpt lat="45.93682" lon="4.72336">
        <ele>171</ele>
        <time>2017-04-05T10:19:57Z</time>
      </trkpt>
      <trkpt lat="45.93677" lon="4.72332">
        <ele>171</ele>
        <time>2017-04-05T10:19:58Z</time>
      </trkpt>
      <trkpt lat="45.93673" lon="4.72326">
        <ele>171</ele>
        <time>2017-04-05T10:19:59Z</time>
      </trkpt>
      <trkpt lat="45.93669" lon="4.7232">
        <ele>171</ele>
        <time>2017-04-05T10:20:00Z</time>
      </trkpt>
      <trkpt lat="45.93665" lon="4.72316">
        <ele>172</ele>
        <time>2017-04-05T10:20:01Z</time>
      </trkpt>
      <trkpt lat="45.93661" lon="4.72311">
        <ele>172</ele>
        <time>2017-04-05T10:20:02Z</time>
      </trkpt>
      <trkpt lat="45.93657" lon="4.72307">
        <ele>172</ele>
        <time>2017-04-05T10:20:03Z</time>
      </trkpt>
      <trkpt lat="45.93653" lon="4.72303">
        <ele>172</ele>
        <time>2017-04-05T10:20:04Z</time>
      </trkpt>
      <trkpt lat="45.93649" lon="4.72298">
        <ele>172</ele>
        <time>2017-04-05T10:20:05Z</time>
      </trkpt>
      <trkpt lat="45.93645" lon="4.72294">
        <ele>172</ele>
        <time>2017-04-05T10:20:06Z</time>
      </trkpt>
      <trkpt lat="45.9364" lon="4.7229">
        <ele>172</ele>
        <time>2017-04-05T10:20:07Z</time>
      </trkpt>
      <trkpt lat="45.93636" lon="4.72286">
        <ele>172</ele>
        <time>2017-04-05T10:20:08Z</time>
      </trkpt>
      <trkpt lat="45.93632" lon="4.72282">
        <ele>172</ele>
        <time>2017-04-05T10:20:09Z</time>
      </trkpt>
      <trkpt lat="45.93628" lon="4.72279">
        <ele>172</ele>
        <time>2017-04-05T10:20:10Z</time>
      </trkpt>
      <trkpt lat="45.93624" lon="4.72276">
        <ele>172</ele>
        <time>2017-04-05T10:20:11Z</time>
      </trkpt>
      <trkpt lat="45.93619" lon="4.72272">
        <ele>172</ele>
        <time>2017-04-05T10:20:12Z</time>
      </trkpt>
      <trkpt lat="45.93614" lon="4.72269">
        <ele>172</ele>
        <time>2017-04-05T10:20:13Z</time>
      </trkpt>
      <trkpt lat="45.9361" lon="4.72266">
        <ele>172</ele>
        <time>2017-04-05T10:20:14Z</time>
      </trkpt>
      <trkpt lat="45.93604" lon="4.72265">
        <ele>173</ele>
        <time>2017-04-05T10:20:15Z</time>
      </trkpt>
      <trkpt lat="45.93599" lon="4.72262">
        <ele>173</ele>
        <time>2017-04-05T10:20:16Z</time>
      </trkpt>
      <trkpt lat="45.93595" lon="4.7226">
        <ele>173</ele>
        <time>2017-04-05T10:20:17Z</time>
      </trkpt>
      <trkpt lat="45.9359" lon="4.72257">
        <ele>173</ele>
        <time>2017-04-05T10:20:18Z</time>
      </trkpt>
      <trkpt lat="45.93586" lon="4.72254">
        <ele>173</ele>
        <time>2017-04-05T10:20:19Z</time>
      </trkpt>
      <trkpt lat="45.93581" lon="4.72246">
        <ele>173</ele>
        <time>2017-04-05T10:20:21Z</time>
      </trkpt>
      <trkpt lat="45.93581" lon="4.72238">
        <ele>173</ele>
        <time>2017-04-05T10:20:22Z</time>
      </trkpt>
      <trkpt lat="45.9358" lon="4.72227">
        <ele>173</ele>
        <time>2017-04-05T10:20:24Z</time>
      </trkpt>
      <trkpt lat="45.93579" lon="4.72223">
        <ele>173</ele>
        <time>2017-04-05T10:20:25Z</time>
      </trkpt>
      <trkpt lat="45.93575" lon="4.72214">
        <ele>173</ele>
        <time>2017-04-05T10:20:28Z</time>
      </trkpt>
      <trkpt lat="45.93573" lon="4.72212">
        <ele>173</ele>
        <time>2017-04-05T10:20:29Z</time>
      </trkpt>
      <trkpt lat="45.93565" lon="4.72209">
        <ele>173</ele>
        <time>2017-04-05T10:20:32Z</time>
      </trkpt>
      <trkpt lat="45.93562" lon="4.7221">
        <ele>173</ele>
        <time>2017-04-05T10:20:33Z</time>
      </trkpt>
      <trkpt lat="45.93556" lon="4.72217">
        <ele>173</ele>
        <time>2017-04-05T10:20:35Z</time>
      </trkpt>
      <trkpt lat="45.93554" lon="4.72222">
        <ele>173</ele>
        <time>2017-04-05T10:20:36Z</time>
      </trkpt>
      <trkpt lat="45.93549" lon="4.7223">
        <ele>172</ele>
        <time>2017-04-05T10:20:38Z</time>
      </trkpt>
      <trkpt lat="45.93546" lon="4.72235">
        <ele>172</ele>
        <time>2017-04-05T10:20:39Z</time>
      </trkpt>
      <trkpt lat="45.93544" lon="4.7224">
        <ele>172</ele>
        <time>2017-04-05T10:20:40Z</time>
      </trkpt>
      <trkpt lat="45.93541" lon="4.72246">
        <ele>172</ele>
        <time>2017-04-05T10:20:41Z</time>
      </trkpt>
      <trkpt lat="45.93538" lon="4.72252">
        <ele>172</ele>
        <time>2017-04-05T10:20:42Z</time>
      </trkpt>
      <trkpt lat="45.93536" lon="4.72257">
        <ele>172</ele>
        <time>2017-04-05T10:20:43Z</time>
      </trkpt>
      <trkpt lat="45.93533" lon="4.72264">
        <ele>172</ele>
        <time>2017-04-05T10:20:44Z</time>
      </trkpt>
      <trkpt lat="45.9353" lon="4.7227">
        <ele>172</ele>
        <time>2017-04-05T10:20:45Z</time>
      </trkpt>
      <trkpt lat="45.93527" lon="4.72277">
        <ele>172</ele>
        <time>2017-04-05T10:20:46Z</time>
      </trkpt>
      <trkpt lat="45.93524" lon="4.72284">
        <ele>172</ele>
        <time>2017-04-05T10:20:47Z</time>
      </trkpt>
      <trkpt lat="45.93521" lon="4.7229">
        <ele>172</ele>
        <time>2017-04-05T10:20:48Z</time>
      </trkpt>
      <trkpt lat="45.93517" lon="4.72297">
        <ele>172</ele>
        <time>2017-04-05T10:20:49Z</time>
      </trkpt>
      <trkpt lat="45.93513" lon="4.72302">
        <ele>172</ele>
        <time>2017-04-05T10:20:50Z</time>
      </trkpt>
      <trkpt lat="45.93509" lon="4.72308">
        <ele>173</ele>
        <time>2017-04-05T10:20:51Z</time>
      </trkpt>
      <trkpt lat="45.93505" lon="4.72315">
        <ele>173</ele>
        <time>2017-04-05T10:20:52Z</time>
      </trkpt>
      <trkpt lat="45.935" lon="4.72321">
        <ele>173</ele>
        <time>2017-04-05T10:20:53Z</time>
      </trkpt>
      <trkpt lat="45.93496" lon="4.72327">
        <ele>173</ele>
        <time>2017-04-05T10:20:54Z</time>
      </trkpt>
      <trkpt lat="45.93491" lon="4.72334">
        <ele>173</ele>
        <time>2017-04-05T10:20:55Z</time>
      </trkpt>
      <trkpt lat="45.93487" lon="4.72341">
        <ele>173</ele>
        <time>2017-04-05T10:20:56Z</time>
      </trkpt>
      <trkpt lat="45.93483" lon="4.72348">
        <ele>173</ele>
        <time>2017-04-05T10:20:57Z</time>
      </trkpt>
      <trkpt lat="45.93479" lon="4.72354">
        <ele>173</ele>
        <time>2017-04-05T10:20:58Z</time>
      </trkpt>
      <trkpt lat="45.93474" lon="4.7236">
        <ele>173</ele>
        <time>2017-04-05T10:20:59Z</time>
      </trkpt>
      <trkpt lat="45.9347" lon="4.72367">
        <ele>173</ele>
        <time>2017-04-05T10:21:00Z</time>
      </trkpt>
      <trkpt lat="45.93466" lon="4.72372">
        <ele>173</ele>
        <time>2017-04-05T10:21:01Z</time>
      </trkpt>
      <trkpt lat="45.93462" lon="4.72377">
        <ele>173</ele>
        <time>2017-04-05T10:21:02Z</time>
      </trkpt>
      <trkpt lat="45.93457" lon="4.72382">
        <ele>173</ele>
        <time>2017-04-05T10:21:03Z</time>
      </trkpt>
      <trkpt lat="45.93452" lon="4.72386">
        <ele>173</ele>
        <time>2017-04-05T10:21:04Z</time>
      </trkpt>
      <trkpt lat="45.93447" lon="4.72389">
        <ele>173</ele>
        <time>2017-04-05T10:21:05Z</time>
      </trkpt>
      <trkpt lat="45.93441" lon="4.72392">
        <ele>173</ele>
        <time>2017-04-05T10:21:06Z</time>
      </trkpt>
      <trkpt lat="45.93436" lon="4.72395">
        <ele>173</ele>
        <time>2017-04-05T10:21:07Z</time>
      </trkpt>
      <trkpt lat="45.9343" lon="4.72398">
        <ele>174</ele>
        <time>2017-04-05T10:21:08Z</time>
      </trkpt>
      <trkpt lat="45.93426" lon="4.724">
        <ele>174</ele>
        <time>2017-04-05T10:21:09Z</time>
      </trkpt>
      <trkpt lat="45.9342" lon="4.72402">
        <ele>174</ele>
        <time>2017-04-05T10:21:11Z</time>
      </trkpt>
      <trkpt lat="45.93416" lon="4.72404">
        <ele>174</ele>
        <time>2017-04-05T10:21:12Z</time>
      </trkpt>
      <trkpt lat="45.93408" lon="4.72405">
        <ele>174</ele>
        <time>2017-04-05T10:21:14Z</time>
      </trkpt>
      <trkpt lat="45.93404" lon="4.72404">
        <ele>174</ele>
        <time>2017-04-05T10:21:15Z</time>
      </trkpt>
      <trkpt lat="45.93395" lon="4.72405">
        <ele>174</ele>
        <time>2017-04-05T10:21:17Z</time>
      </trkpt>
      <trkpt lat="45.93391" lon="4.72409">
        <ele>174</ele>
        <time>2017-04-05T10:21:18Z</time>
      </trkpt>
      <trkpt lat="45.93388" lon="4.72418">
        <ele>173</ele>
        <time>2017-04-05T10:21:20Z</time>
      </trkpt>
      <trkpt lat="45.93388" lon="4.72423">
        <ele>173</ele>
        <time>2017-04-05T10:21:21Z</time>
      </trkpt>
      <trkpt lat="45.93389" lon="4.72429">
        <ele>173</ele>
        <time>2017-04-05T10:21:22Z</time>
      </trkpt>
      <trkpt lat="45.9339" lon="4.72436">
        <ele>173</ele>
        <time>2017-04-05T10:21:23Z</time>
      </trkpt>
      <trkpt lat="45.93391" lon="4.72443">
        <ele>173</ele>
        <time>2017-04-05T10:21:24Z</time>
      </trkpt>
      <trkpt lat="45.9339" lon="4.72451">
        <ele>173</ele>
        <time>2017-04-05T10:21:25Z</time>
      </trkpt>
      <trkpt lat="45.93388" lon="4.72458">
        <ele>173</ele>
        <time>2017-04-05T10:21:26Z</time>
      </trkpt>
      <trkpt lat="45.93384" lon="4.72464">
        <ele>173</ele>
        <time>2017-04-05T10:21:27Z</time>
      </trkpt>
      <trkpt lat="45.9338" lon="4.7247">
        <ele>173</ele>
        <time>2017-04-05T10:21:28Z</time>
      </trkpt>
      <trkpt lat="45.93376" lon="4.72475">
        <ele>173</ele>
        <time>2017-04-05T10:21:29Z</time>
      </trkpt>
      <trkpt lat="45.93372" lon="4.72481">
        <ele>173</ele>
        <time>2017-04-05T10:21:30Z</time>
      </trkpt>
      <trkpt lat="45.93367" lon="4.72486">
        <ele>173</ele>
        <time>2017-04-05T10:21:31Z</time>
      </trkpt>
      <trkpt lat="45.93363" lon="4.72491">
        <ele>173</ele>
        <time>2017-04-05T10:21:32Z</time>
      </trkpt>
      <trkpt lat="45.93359" lon="4.72496">
        <ele>173</ele>
        <time>2017-04-05T10:21:33Z</time>
      </trkpt>
      <trkpt lat="45.93355" lon="4.72501">
        <ele>172</ele>
        <time>2017-04-05T10:21:34Z</time>
      </trkpt>
      <trkpt lat="45.93351" lon="4.72506">
        <ele>172</ele>
        <time>2017-04-05T10:21:35Z</time>
      </trkpt>
      <trkpt lat="45.93347" lon="4.72512">
        <ele>172</ele>
        <time>2017-04-05T10:21:36Z</time>
      </trkpt>
      <trkpt lat="45.93342" lon="4.72517">
        <ele>172</ele>
        <time>2017-04-05T10:21:37Z</time>
      </trkpt>
      <trkpt lat="45.93337" lon="4.72523">
        <ele>172</ele>
        <time>2017-04-05T10:21:38Z</time>
      </trkpt>
      <trkpt lat="45.93333" lon="4.72528">
        <ele>172</ele>
        <time>2017-04-05T10:21:39Z</time>
      </trkpt>
      <trkpt lat="45.93329" lon="4.72534">
        <ele>172</ele>
        <time>2017-04-05T10:21:40Z</time>
      </trkpt>
      <trkpt lat="45.93324" lon="4.72539">
        <ele>172</ele>
        <time>2017-04-05T10:21:41Z</time>
      </trkpt>
      <trkpt lat="45.9332" lon="4.72544">
        <ele>172</ele>
        <time>2017-04-05T10:21:42Z</time>
      </trkpt>
      <trkpt lat="45.93316" lon="4.72549">
        <ele>172</ele>
        <time>2017-04-05T10:21:43Z</time>
      </trkpt>
      <trkpt lat="45.93312" lon="4.72554">
        <ele>172</ele>
        <time>2017-04-05T10:21:44Z</time>
      </trkpt>
      <trkpt lat="45.93308" lon="4.72558">
        <ele>172</ele>
        <time>2017-04-05T10:21:45Z</time>
      </trkpt>
      <trkpt lat="45.93303" lon="4.72563">
        <ele>172</ele>
        <time>2017-04-05T10:21:46Z</time>
      </trkpt>
      <trkpt lat="45.93299" lon="4.72568">
        <ele>172</ele>
        <time>2017-04-05T10:21:47Z</time>
      </trkpt>
      <trkpt lat="45.93295" lon="4.72573">
        <ele>171</ele>
        <time>2017-04-05T10:21:48Z</time>
      </trkpt>
      <trkpt lat="45.9329" lon="4.72579">
        <ele>171</ele>
        <time>2017-04-05T10:21:49Z</time>
      </trkpt>
      <trkpt lat="45.93286" lon="4.72584">
        <ele>170</ele>
        <time>2017-04-05T10:21:50Z</time>
      </trkpt>
      <trkpt lat="45.93281" lon="4.72589">
        <ele>170</ele>
        <time>2017-04-05T10:21:51Z</time>
      </trkpt>
      <trkpt lat="45.93277" lon="4.72594">
        <ele>170</ele>
        <time>2017-04-05T10:21:52Z</time>
      </trkpt>
      <trkpt lat="45.93272" lon="4.72599">
        <ele>170</ele>
        <time>2017-04-05T10:21:53Z</time>
      </trkpt>
      <trkpt lat="45.93268" lon="4.72604">
        <ele>170</ele>
        <time>2017-04-05T10:21:54Z</time>
      </trkpt>
      <trkpt lat="45.93263" lon="4.7261">
        <ele>170</ele>
        <time>2017-04-05T10:21:55Z</time>
      </trkpt>
      <trkpt lat="45.93259" lon="4.72615">
        <ele>170</ele>
        <time>2017-04-05T10:21:56Z</time>
      </trkpt>
      <trkpt lat="45.93254" lon="4.7262">
        <ele>170</ele>
        <time>2017-04-05T10:21:57Z</time>
      </trkpt>
      <trkpt lat="45.93249" lon="4.72626">
        <ele>170</ele>
        <time>2017-04-05T10:21:58Z</time>
      </trkpt>
      <trkpt lat="45.93244" lon="4.72632">
        <ele>170</ele>
        <time>2017-04-05T10:21:59Z</time>
      </trkpt>
      <trkpt lat="45.9324" lon="4.72637">
        <ele>170</ele>
        <time>2017-04-05T10:22:00Z</time>
      </trkpt>
      <trkpt lat="45.93235" lon="4.72643">
        <ele>170</ele>
        <time>2017-04-05T10:22:01Z</time>
      </trkpt>
      <trkpt lat="45.93231" lon="4.72648">
        <ele>170</ele>
        <time>2017-04-05T10:22:02Z</time>
      </trkpt>
      <trkpt lat="45.93227" lon="4.72653">
        <ele>170</ele>
        <time>2017-04-05T10:22:03Z</time>
      </trkpt>
      <trkpt lat="45.93223" lon="4.72658">
        <ele>170</ele>
        <time>2017-04-05T10:22:04Z</time>
      </trkpt>
      <trkpt lat="45.93219" lon="4.72662">
        <ele>170</ele>
        <time>2017-04-05T10:22:05Z</time>
      </trkpt>
      <trkpt lat="45.93214" lon="4.72667">
        <ele>169</ele>
        <time>2017-04-05T10:22:06Z</time>
      </trkpt>
      <trkpt lat="45.9321" lon="4.72673">
        <ele>169</ele>
        <time>2017-04-05T10:22:07Z</time>
      </trkpt>
      <trkpt lat="45.93205" lon="4.72678">
        <ele>169</ele>
        <time>2017-04-05T10:22:08Z</time>
      </trkpt>
      <trkpt lat="45.932" lon="4.72683">
        <ele>169</ele>
        <time>2017-04-05T10:22:09Z</time>
      </trkpt>
      <trkpt lat="45.93196" lon="4.72689">
        <ele>169</ele>
        <time>2017-04-05T10:22:10Z</time>
      </trkpt>
      <trkpt lat="45.93191" lon="4.72695">
        <ele>169</ele>
        <time>2017-04-05T10:22:11Z</time>
      </trkpt>
      <trkpt lat="45.93186" lon="4.727">
        <ele>169</ele>
        <time>2017-04-05T10:22:12Z</time>
      </trkpt>
      <trkpt lat="45.93181" lon="4.72706">
        <ele>169</ele>
        <time>2017-04-05T10:22:13Z</time>
      </trkpt>
      <trkpt lat="45.93177" lon="4.72712">
        <ele>169</ele>
        <time>2017-04-05T10:22:14Z</time>
      </trkpt>
      <trkpt lat="45.93172" lon="4.72717">
        <ele>170</ele>
        <time>2017-04-05T10:22:15Z</time>
      </trkpt>
      <trkpt lat="45.93167" lon="4.72722">
        <ele>170</ele>
        <time>2017-04-05T10:22:16Z</time>
      </trkpt>
      <trkpt lat="45.93162" lon="4.72727">
        <ele>170</ele>
        <time>2017-04-05T10:22:17Z</time>
      </trkpt>
      <trkpt lat="45.93158" lon="4.72732">
        <ele>170</ele>
        <time>2017-04-05T10:22:18Z</time>
      </trkpt>
      <trkpt lat="45.93153" lon="4.72738">
        <ele>170</ele>
        <time>2017-04-05T10:22:19Z</time>
      </trkpt>
      <trkpt lat="45.93149" lon="4.72743">
        <ele>170</ele>
        <time>2017-04-05T10:22:20Z</time>
      </trkpt>
      <trkpt lat="45.93145" lon="4.72748">
        <ele>170</ele>
        <time>2017-04-05T10:22:21Z</time>
      </trkpt>
      <trkpt lat="45.9314" lon="4.72753">
        <ele>171</ele>
        <time>2017-04-05T10:22:22Z</time>
      </trkpt>
      <trkpt lat="45.93136" lon="4.72758">
        <ele>171</ele>
        <time>2017-04-05T10:22:23Z</time>
      </trkpt>
      <trkpt lat="45.93131" lon="4.72764">
        <ele>171</ele>
        <time>2017-04-05T10:22:24Z</time>
      </trkpt>
      <trkpt lat="45.93127" lon="4.72769">
        <ele>171</ele>
        <time>2017-04-05T10:22:25Z</time>
      </trkpt>
      <trkpt lat="45.93122" lon="4.72774">
        <ele>171</ele>
        <time>2017-04-05T10:22:26Z</time>
      </trkpt>
      <trkpt lat="45.93118" lon="4.72779">
        <ele>171</ele>
        <time>2017-04-05T10:22:27Z</time>
      </trkpt>
      <trkpt lat="45.93114" lon="4.72785">
        <ele>171</ele>
        <time>2017-04-05T10:22:28Z</time>
      </trkpt>
      <trkpt lat="45.9311" lon="4.7279">
        <ele>171</ele>
        <time>2017-04-05T10:22:29Z</time>
      </trkpt>
      <trkpt lat="45.93106" lon="4.72795">
        <ele>171</ele>
        <time>2017-04-05T10:22:30Z</time>
      </trkpt>
      <trkpt lat="45.93101" lon="4.72799">
        <ele>171</ele>
        <time>2017-04-05T10:22:31Z</time>
      </trkpt>
      <trkpt lat="45.93097" lon="4.72804">
        <ele>171</ele>
        <time>2017-04-05T10:22:32Z</time>
      </trkpt>
      <trkpt lat="45.93093" lon="4.72809">
        <ele>172</ele>
        <time>2017-04-05T10:22:33Z</time>
      </trkpt>
      <trkpt lat="45.93088" lon="4.72814">
        <ele>172</ele>
        <time>2017-04-05T10:22:34Z</time>
      </trkpt>
      <trkpt lat="45.93084" lon="4.72819">
        <ele>172</ele>
        <time>2017-04-05T10:22:35Z</time>
      </trkpt>
      <trkpt lat="45.9308" lon="4.72825">
        <ele>173</ele>
        <time>2017-04-05T10:22:36Z</time>
      </trkpt>
      <trkpt lat="45.93076" lon="4.7283">
        <ele>173</ele>
        <time>2017-04-05T10:22:37Z</time>
      </trkpt>
      <trkpt lat="45.93072" lon="4.72835">
        <ele>173</ele>
        <time>2017-04-05T10:22:38Z</time>
      </trkpt>
      <trkpt lat="45.93069" lon="4.72838">
        <ele>173</ele>
        <time>2017-04-05T10:22:39Z</time>
      </trkpt>
      <trkpt lat="45.93065" lon="4.72844">
        <ele>172</ele>
        <time>2017-04-05T10:22:40Z</time>
      </trkpt>
      <trkpt lat="45.93061" lon="4.72849">
        <ele>172</ele>
        <time>2017-04-05T10:22:41Z</time>
      </trkpt>
      <trkpt lat="45.93056" lon="4.72854">
        <ele>172</ele>
        <time>2017-04-05T10:22:42Z</time>
      </trkpt>
      <trkpt lat="45.93052" lon="4.72858">
        <ele>172</ele>
        <time>2017-04-05T10:22:43Z</time>
      </trkpt>
      <trkpt lat="45.93046" lon="4.72862">
        <ele>172</ele>
        <time>2017-04-05T10:22:44Z</time>
      </trkpt>
      <trkpt lat="45.93041" lon="4.72867">
        <ele>172</ele>
        <time>2017-04-05T10:22:45Z</time>
      </trkpt>
      <trkpt lat="45.93037" lon="4.72873">
        <ele>172</ele>
        <time>2017-04-05T10:22:46Z</time>
      </trkpt>
      <trkpt lat="45.93032" lon="4.72879">
        <ele>172</ele>
        <time>2017-04-05T10:22:47Z</time>
      </trkpt>
      <trkpt lat="45.93028" lon="4.72884">
        <ele>172</ele>
        <time>2017-04-05T10:22:48Z</time>
      </trkpt>
      <trkpt lat="45.93024" lon="4.7289">
        <ele>172</ele>
        <time>2017-04-05T10:22:49Z</time>
      </trkpt>
      <trkpt lat="45.9302" lon="4.72894">
        <ele>172</ele>
        <time>2017-04-05T10:22:50Z</time>
      </trkpt>
      <trkpt lat="45.93016" lon="4.729">
        <ele>172</ele>
        <time>2017-04-05T10:22:51Z</time>
      </trkpt>
      <trkpt lat="45.93012" lon="4.72905">
        <ele>171</ele>
        <time>2017-04-05T10:22:52Z</time>
      </trkpt>
      <trkpt lat="45.93007" lon="4.7291">
        <ele>171</ele>
        <time>2017-04-05T10:22:53Z</time>
      </trkpt>
      <trkpt lat="45.93003" lon="4.72915">
        <ele>171</ele>
        <time>2017-04-05T10:22:54Z</time>
      </trkpt>
      <trkpt lat="45.92999" lon="4.7292">
        <ele>171</ele>
        <time>2017-04-05T10:22:55Z</time>
      </trkpt>
      <trkpt lat="45.92994" lon="4.72925">
        <ele>171</ele>
        <time>2017-04-05T10:22:56Z</time>
      </trkpt>
      <trkpt lat="45.9299" lon="4.72931">
        <ele>171</ele>
        <time>2017-04-05T10:22:57Z</time>
      </trkpt>
      <trkpt lat="45.92985" lon="4.72936">
        <ele>171</ele>
        <time>2017-04-05T10:22:58Z</time>
      </trkpt>
      <trkpt lat="45.92981" lon="4.72941">
        <ele>171</ele>
        <time>2017-04-05T10:22:59Z</time>
      </trkpt>
      <trkpt lat="45.92976" lon="4.72946">
        <ele>171</ele>
        <time>2017-04-05T10:23:00Z</time>
      </trkpt>
      <trkpt lat="45.92972" lon="4.72951">
        <ele>171</ele>
        <time>2017-04-05T10:23:01Z</time>
      </trkpt>
      <trkpt lat="45.92968" lon="4.72956">
        <ele>171</ele>
        <time>2017-04-05T10:23:02Z</time>
      </trkpt>
      <trkpt lat="45.92964" lon="4.72961">
        <ele>171</ele>
        <time>2017-04-05T10:23:03Z</time>
      </trkpt>
      <trkpt lat="45.9296" lon="4.72966">
        <ele>171</ele>
        <time>2017-04-05T10:23:04Z</time>
      </trkpt>
      <trkpt lat="45.92956" lon="4.72971">
        <ele>171</ele>
        <time>2017-04-05T10:23:05Z</time>
      </trkpt>
      <trkpt lat="45.92952" lon="4.72976">
        <ele>171</ele>
        <time>2017-04-05T10:23:06Z</time>
      </trkpt>
      <trkpt lat="45.92948" lon="4.72981">
        <ele>171</ele>
        <time>2017-04-05T10:23:07Z</time>
      </trkpt>
      <trkpt lat="45.92943" lon="4.72986">
        <ele>171</ele>
        <time>2017-04-05T10:23:08Z</time>
      </trkpt>
      <trkpt lat="45.92939" lon="4.72992">
        <ele>171</ele>
        <time>2017-04-05T10:23:09Z</time>
      </trkpt>
      <trkpt lat="45.92935" lon="4.72997">
        <ele>172</ele>
        <time>2017-04-05T10:23:10Z</time>
      </trkpt>
      <trkpt lat="45.92931" lon="4.73001">
        <ele>172</ele>
        <time>2017-04-05T10:23:11Z</time>
      </trkpt>
      <trkpt lat="45.92926" lon="4.73006">
        <ele>172</ele>
        <time>2017-04-05T10:23:12Z</time>
      </trkpt>
      <trkpt lat="45.92922" lon="4.73011">
        <ele>172</ele>
        <time>2017-04-05T10:23:13Z</time>
      </trkpt>
      <trkpt lat="45.92918" lon="4.73016">
        <ele>172</ele>
        <time>2017-04-05T10:23:14Z</time>
      </trkpt>
      <trkpt lat="45.92914" lon="4.73021">
        <ele>172</ele>
        <time>2017-04-05T10:23:15Z</time>
      </trkpt>
      <trkpt lat="45.92911" lon="4.73026">
        <ele>172</ele>
        <time>2017-04-05T10:23:16Z</time>
      </trkpt>
      <trkpt lat="45.92907" lon="4.73031">
        <ele>172</ele>
        <time>2017-04-05T10:23:17Z</time>
      </trkpt>
      <trkpt lat="45.92903" lon="4.73037">
        <ele>172</ele>
        <time>2017-04-05T10:23:18Z</time>
      </trkpt>
      <trkpt lat="45.92899" lon="4.73043">
        <ele>172</ele>
        <time>2017-04-05T10:23:19Z</time>
      </trkpt>
      <trkpt lat="45.92895" lon="4.73049">
        <ele>172</ele>
        <time>2017-04-05T10:23:20Z</time>
      </trkpt>
      <trkpt lat="45.92891" lon="4.73055">
        <ele>172</ele>
        <time>2017-04-05T10:23:21Z</time>
      </trkpt>
      <trkpt lat="45.92887" lon="4.73061">
        <ele>172</ele>
        <time>2017-04-05T10:23:22Z</time>
      </trkpt>
      <trkpt lat="45.92884" lon="4.73067">
        <ele>172</ele>
        <time>2017-04-05T10:23:23Z</time>
      </trkpt>
      <trkpt lat="45.9288" lon="4.73072">
        <ele>172</ele>
        <time>2017-04-05T10:23:24Z</time>
      </trkpt>
      <trkpt lat="45.92876" lon="4.73077">
        <ele>172</ele>
        <time>2017-04-05T10:23:25Z</time>
      </trkpt>
      <trkpt lat="45.92872" lon="4.73082">
        <ele>172</ele>
        <time>2017-04-05T10:23:26Z</time>
      </trkpt>
      <trkpt lat="45.92868" lon="4.73087">
        <ele>172</ele>
        <time>2017-04-05T10:23:27Z</time>
      </trkpt>
      <trkpt lat="45.92864" lon="4.73092">
        <ele>171</ele>
        <time>2017-04-05T10:23:28Z</time>
      </trkpt>
      <trkpt lat="45.9286" lon="4.73097">
        <ele>171</ele>
        <time>2017-04-05T10:23:29Z</time>
      </trkpt>
      <trkpt lat="45.92853" lon="4.73102">
        <ele>171</ele>
        <time>2017-04-05T10:23:31Z</time>
      </trkpt>
      <trkpt lat="45.9285" lon="4.73101">
        <ele>171</ele>
        <time>2017-04-05T10:23:32Z</time>
      </trkpt>
      <trkpt lat="45.92846" lon="4.73094">
        <ele>171</ele>
        <time>2017-04-05T10:23:34Z</time>
      </trkpt>
      <trkpt lat="45.92846" lon="4.73088">
        <ele>171</ele>
        <time>2017-04-05T10:23:35Z</time>
      </trkpt>
      <trkpt lat="45.92846" lon="4.73082">
        <ele>171</ele>
        <time>2017-04-05T10:23:36Z</time>
      </trkpt>
      <trkpt lat="45.92844" lon="4.73074">
        <ele>171</ele>
        <time>2017-04-05T10:23:37Z</time>
      </trkpt>
      <trkpt lat="45.92843" lon="4.73067">
        <ele>171</ele>
        <time>2017-04-05T10:23:38Z</time>
      </trkpt>
      <trkpt lat="45.92841" lon="4.73059">
        <ele>171</ele>
        <time>2017-04-05T10:23:39Z</time>
      </trkpt>
      <trkpt lat="45.9284" lon="4.73051">
        <ele>171</ele>
        <time>2017-04-05T10:23:40Z</time>
      </trkpt>
      <trkpt lat="45.92839" lon="4.73043">
        <ele>171</ele>
        <time>2017-04-05T10:23:41Z</time>
      </trkpt>
      <trkpt lat="45.92837" lon="4.73036">
        <ele>171</ele>
        <time>2017-04-05T10:23:42Z</time>
      </trkpt>
      <trkpt lat="45.92836" lon="4.73028">
        <ele>171</ele>
        <time>2017-04-05T10:23:43Z</time>
      </trkpt>
      <trkpt lat="45.92835" lon="4.7302">
        <ele>171</ele>
        <time>2017-04-05T10:23:44Z</time>
      </trkpt>
      <trkpt lat="45.92833" lon="4.73013">
        <ele>170</ele>
        <time>2017-04-05T10:23:45Z</time>
      </trkpt>
      <trkpt lat="45.92832" lon="4.73006">
        <ele>170</ele>
        <time>2017-04-05T10:23:46Z</time>
      </trkpt>
      <trkpt lat="45.9283" lon="4.72999">
        <ele>170</ele>
        <time>2017-04-05T10:23:47Z</time>
      </trkpt>
      <trkpt lat="45.92829" lon="4.72992">
        <ele>170</ele>
        <time>2017-04-05T10:23:48Z</time>
      </trkpt>
      <trkpt lat="45.92829" lon="4.72985">
        <ele>170</ele>
        <time>2017-04-05T10:23:49Z</time>
      </trkpt>
      <trkpt lat="45.92828" lon="4.72978">
        <ele>170</ele>
        <time>2017-04-05T10:23:50Z</time>
      </trkpt>
      <trkpt lat="45.92827" lon="4.72971">
        <ele>170</ele>
        <time>2017-04-05T10:23:51Z</time>
      </trkpt>
      <trkpt lat="45.92827" lon="4.72964">
        <ele>170</ele>
        <time>2017-04-05T10:23:52Z</time>
      </trkpt>
      <trkpt lat="45.92826" lon="4.72956">
        <ele>170</ele>
        <time>2017-04-05T10:23:53Z</time>
      </trkpt>
      <trkpt lat="45.92825" lon="4.72949">
        <ele>170</ele>
        <time>2017-04-05T10:23:54Z</time>
      </trkpt>
      <trkpt lat="45.92824" lon="4.72941">
        <ele>170</ele>
        <time>2017-04-05T10:23:55Z</time>
      </trkpt>
      <trkpt lat="45.92824" lon="4.72934">
        <ele>170</ele>
        <time>2017-04-05T10:23:56Z</time>
      </trkpt>
      <trkpt lat="45.92823" lon="4.72926">
        <ele>170</ele>
        <time>2017-04-05T10:23:57Z</time>
      </trkpt>
      <trkpt lat="45.92822" lon="4.72919">
        <ele>170</ele>
        <time>2017-04-05T10:23:58Z</time>
      </trkpt>
      <trkpt lat="45.92822" lon="4.72911">
        <ele>170</ele>
        <time>2017-04-05T10:23:59Z</time>
      </trkpt>
      <trkpt lat="45.92821" lon="4.72904">
        <ele>170</ele>
        <time>2017-04-05T10:24:00Z</time>
      </trkpt>
      <trkpt lat="45.9282" lon="4.72897">
        <ele>170</ele>
        <time>2017-04-05T10:24:01Z</time>
      </trkpt>
      <trkpt lat="45.92819" lon="4.7289">
        <ele>170</ele>
        <time>2017-04-05T10:24:02Z</time>
      </trkpt>
      <trkpt lat="45.92817" lon="4.72883">
        <ele>170</ele>
        <time>2017-04-05T10:24:03Z</time>
      </trkpt>
      <trkpt lat="45.92816" lon="4.72876">
        <ele>170</ele>
        <time>2017-04-05T10:24:04Z</time>
      </trkpt>
      <trkpt lat="45.92814" lon="4.72869">
        <ele>170</ele>
        <time>2017-04-05T10:24:05Z</time>
      </trkpt>
      <trkpt lat="45.92813" lon="4.72862">
        <ele>170</ele>
        <time>2017-04-05T10:24:06Z</time>
      </trkpt>
      <trkpt lat="45.92811" lon="4.72854">
        <ele>170</ele>
        <time>2017-04-05T10:24:07Z</time>
      </trkpt>
      <trkpt lat="45.9281" lon="4.72847">
        <ele>170</ele>
        <time>2017-04-05T10:24:08Z</time>
      </trkpt>
      <trkpt lat="45.92809" lon="4.72841">
        <ele>170</ele>
        <time>2017-04-05T10:24:09Z</time>
      </trkpt>
      <trkpt lat="45.92808" lon="4.72834">
        <ele>170</ele>
        <time>2017-04-05T10:24:10Z</time>
      </trkpt>
      <trkpt lat="45.92807" lon="4.72827">
        <ele>171</ele>
        <time>2017-04-05T10:24:11Z</time>
      </trkpt>
      <trkpt lat="45.92806" lon="4.7282">
        <ele>171</ele>
        <time>2017-04-05T10:24:12Z</time>
      </trkpt>
      <trkpt lat="45.92805" lon="4.72814">
        <ele>171</ele>
        <time>2017-04-05T10:24:13Z</time>
      </trkpt>
      <trkpt lat="45.92803" lon="4.72807">
        <ele>171</ele>
        <time>2017-04-05T10:24:14Z</time>
      </trkpt>
      <trkpt lat="45.92802" lon="4.728">
        <ele>171</ele>
        <time>2017-04-05T10:24:15Z</time>
      </trkpt>
      <trkpt lat="45.928" lon="4.72788">
        <ele>171</ele>
        <time>2017-04-05T10:24:17Z</time>
      </trkpt>
      <trkpt lat="45.92799" lon="4.72785">
        <ele>171</ele>
        <time>2017-04-05T10:24:18Z</time>
      </trkpt>
      <trkpt lat="45.92792" lon="4.72786">
        <ele>171</ele>
        <time>2017-04-05T10:24:20Z</time>
      </trkpt>
      <trkpt lat="45.92789" lon="4.72789">
        <ele>170</ele>
        <time>2017-04-05T10:24:21Z</time>
      </trkpt>
      <trkpt lat="45.92785" lon="4.72793">
        <ele>170</ele>
        <time>2017-04-05T10:24:22Z</time>
      </trkpt>
      <trkpt lat="45.92781" lon="4.72797">
        <ele>170</ele>
        <time>2017-04-05T10:24:23Z</time>
      </trkpt>
      <trkpt lat="45.92776" lon="4.72799">
        <ele>170</ele>
        <time>2017-04-05T10:24:24Z</time>
      </trkpt>
      <trkpt lat="45.92772" lon="4.72802">
        <ele>170</ele>
        <time>2017-04-05T10:24:25Z</time>
      </trkpt>
      <trkpt lat="45.92767" lon="4.72805">
        <ele>170</ele>
        <time>2017-04-05T10:24:26Z</time>
      </trkpt>
      <trkpt lat="45.92762" lon="4.72809">
        <ele>170</ele>
        <time>2017-04-05T10:24:27Z</time>
      </trkpt>
      <trkpt lat="45.92756" lon="4.72813">
        <ele>170</ele>
        <time>2017-04-05T10:24:28Z</time>
      </trkpt>
      <trkpt lat="45.92751" lon="4.72817">
        <ele>170</ele>
        <time>2017-04-05T10:24:29Z</time>
      </trkpt>
      <trkpt lat="45.92746" lon="4.72822">
        <ele>169</ele>
        <time>2017-04-05T10:24:30Z</time>
      </trkpt>
      <trkpt lat="45.92741" lon="4.72826">
        <ele>169</ele>
        <time>2017-04-05T10:24:31Z</time>
      </trkpt>
      <trkpt lat="45.92737" lon="4.7283">
        <ele>169</ele>
        <time>2017-04-05T10:24:32Z</time>
      </trkpt>
      <trkpt lat="45.92732" lon="4.72834">
        <ele>169</ele>
        <time>2017-04-05T10:24:33Z</time>
      </trkpt>
      <trkpt lat="45.92727" lon="4.72837">
        <ele>169</ele>
        <time>2017-04-05T10:24:34Z</time>
      </trkpt>
      <trkpt lat="45.92722" lon="4.72841">
        <ele>169</ele>
        <time>2017-04-05T10:24:35Z</time>
      </trkpt>
      <trkpt lat="45.92717" lon="4.72845">
        <ele>169</ele>
        <time>2017-04-05T10:24:36Z</time>
      </trkpt>
      <trkpt lat="45.92712" lon="4.72849">
        <ele>169</ele>
        <time>2017-04-05T10:24:37Z</time>
      </trkpt>
      <trkpt lat="45.92707" lon="4.72852">
        <ele>169</ele>
        <time>2017-04-05T10:24:38Z</time>
      </trkpt>
      <trkpt lat="45.92703" lon="4.72856">
        <ele>169</ele>
        <time>2017-04-05T10:24:39Z</time>
      </trkpt>
      <trkpt lat="45.92698" lon="4.7286">
        <ele>169</ele>
        <time>2017-04-05T10:24:40Z</time>
      </trkpt>
      <trkpt lat="45.92694" lon="4.72863">
        <ele>169</ele>
        <time>2017-04-05T10:24:41Z</time>
      </trkpt>
      <trkpt lat="45.92689" lon="4.72867">
        <ele>169</ele>
        <time>2017-04-05T10:24:42Z</time>
      </trkpt>
      <trkpt lat="45.92684" lon="4.72871">
        <ele>169</ele>
        <time>2017-04-05T10:24:43Z</time>
      </trkpt>
      <trkpt lat="45.9268" lon="4.72875">
        <ele>169</ele>
        <time>2017-04-05T10:24:44Z</time>
      </trkpt>
      <trkpt lat="45.92676" lon="4.72879">
        <ele>170</ele>
        <time>2017-04-05T10:24:45Z</time>
      </trkpt>
      <trkpt lat="45.92671" lon="4.72882">
        <ele>170</ele>
        <time>2017-04-05T10:24:46Z</time>
      </trkpt>
      <trkpt lat="45.92666" lon="4.72886">
        <ele>169</ele>
        <time>2017-04-05T10:24:47Z</time>
      </trkpt>
      <trkpt lat="45.92661" lon="4.72889">
        <ele>169</ele>
        <time>2017-04-05T10:24:48Z</time>
      </trkpt>
      <trkpt lat="45.92656" lon="4.72893">
        <ele>169</ele>
        <time>2017-04-05T10:24:49Z</time>
      </trkpt>
      <trkpt lat="45.9265" lon="4.72898">
        <ele>169</ele>
        <time>2017-04-05T10:24:50Z</time>
      </trkpt>
      <trkpt lat="45.92645" lon="4.72902">
        <ele>169</ele>
        <time>2017-04-05T10:24:51Z</time>
      </trkpt>
      <trkpt lat="45.92639" lon="4.72906">
        <ele>169</ele>
        <time>2017-04-05T10:24:52Z</time>
      </trkpt>
      <trkpt lat="45.92634" lon="4.72911">
        <ele>169</ele>
        <time>2017-04-05T10:24:53Z</time>
      </trkpt>
      <trkpt lat="45.92628" lon="4.72916">
        <ele>169</ele>
        <time>2017-04-05T10:24:54Z</time>
      </trkpt>
      <trkpt lat="45.92622" lon="4.72921">
        <ele>169</ele>
        <time>2017-04-05T10:24:55Z</time>
      </trkpt>
      <trkpt lat="45.92616" lon="4.72927">
        <ele>169</ele>
        <time>2017-04-05T10:24:56Z</time>
      </trkpt>
      <trkpt lat="45.9261" lon="4.72932">
        <ele>169</ele>
        <time>2017-04-05T10:24:57Z</time>
      </trkpt>
      <trkpt lat="45.92604" lon="4.72938">
        <ele>169</ele>
        <time>2017-04-05T10:24:58Z</time>
      </trkpt>
      <trkpt lat="45.92599" lon="4.72944">
        <ele>169</ele>
        <time>2017-04-05T10:24:59Z</time>
      </trkpt>
      <trkpt lat="45.92594" lon="4.7295">
        <ele>169</ele>
        <time>2017-04-05T10:25:00Z</time>
      </trkpt>
      <trkpt lat="45.92588" lon="4.72956">
        <ele>169</ele>
        <time>2017-04-05T10:25:01Z</time>
      </trkpt>
      <trkpt lat="45.92583" lon="4.72962">
        <ele>169</ele>
        <time>2017-04-05T10:25:02Z</time>
      </trkpt>
      <trkpt lat="45.92578" lon="4.72967">
        <ele>169</ele>
        <time>2017-04-05T10:25:03Z</time>
      </trkpt>
      <trkpt lat="45.92573" lon="4.72973">
        <ele>169</ele>
        <time>2017-04-05T10:25:04Z</time>
      </trkpt>
      <trkpt lat="45.92568" lon="4.72978">
        <ele>169</ele>
        <time>2017-04-05T10:25:05Z</time>
      </trkpt>
      <trkpt lat="45.92563" lon="4.72984">
        <ele>169</ele>
        <time>2017-04-05T10:25:06Z</time>
      </trkpt>
      <trkpt lat="45.92559" lon="4.72989">
        <ele>169</ele>
        <time>2017-04-05T10:25:07Z</time>
      </trkpt>
      <trkpt lat="45.92554" lon="4.72994">
        <ele>169</ele>
        <time>2017-04-05T10:25:08Z</time>
      </trkpt>
      <trkpt lat="45.92549" lon="4.72999">
        <ele>169</ele>
        <time>2017-04-05T10:25:09Z</time>
      </trkpt>
      <trkpt lat="45.92544" lon="4.73004">
        <ele>169</ele>
        <time>2017-04-05T10:25:10Z</time>
      </trkpt>
      <trkpt lat="45.92539" lon="4.73008">
        <ele>169</ele>
        <time>2017-04-05T10:25:11Z</time>
      </trkpt>
      <trkpt lat="45.92534" lon="4.73012">
        <ele>169</ele>
        <time>2017-04-05T10:25:12Z</time>
      </trkpt>
      <trkpt lat="45.9253" lon="4.73016">
        <ele>169</ele>
        <time>2017-04-05T10:25:13Z</time>
      </trkpt>
      <trkpt lat="45.92525" lon="4.73021">
        <ele>169</ele>
        <time>2017-04-05T10:25:14Z</time>
      </trkpt>
      <trkpt lat="45.9252" lon="4.73025">
        <ele>169</ele>
        <time>2017-04-05T10:25:15Z</time>
      </trkpt>
      <trkpt lat="45.92515" lon="4.7303">
        <ele>169</ele>
        <time>2017-04-05T10:25:16Z</time>
      </trkpt>
      <trkpt lat="45.92509" lon="4.73034">
        <ele>169</ele>
        <time>2017-04-05T10:25:17Z</time>
      </trkpt>
      <trkpt lat="45.92504" lon="4.73039">
        <ele>169</ele>
        <time>2017-04-05T10:25:18Z</time>
      </trkpt>
      <trkpt lat="45.92498" lon="4.73045">
        <ele>170</ele>
        <time>2017-04-05T10:25:19Z</time>
      </trkpt>
      <trkpt lat="45.92492" lon="4.7305">
        <ele>170</ele>
        <time>2017-04-05T10:25:20Z</time>
      </trkpt>
      <trkpt lat="45.92486" lon="4.73055">
        <ele>170</ele>
        <time>2017-04-05T10:25:21Z</time>
      </trkpt>
      <trkpt lat="45.92481" lon="4.7306">
        <ele>170</ele>
        <time>2017-04-05T10:25:22Z</time>
      </trkpt>
      <trkpt lat="45.92475" lon="4.73065">
        <ele>170</ele>
        <time>2017-04-05T10:25:23Z</time>
      </trkpt>
      <trkpt lat="45.92469" lon="4.7307">
        <ele>170</ele>
        <time>2017-04-05T10:25:24Z</time>
      </trkpt>
      <trkpt lat="45.92464" lon="4.73075">
        <ele>170</ele>
        <time>2017-04-05T10:25:25Z</time>
      </trkpt>
      <trkpt lat="45.92458" lon="4.73079">
        <ele>170</ele>
        <time>2017-04-05T10:25:26Z</time>
      </trkpt>
      <trkpt lat="45.92453" lon="4.73083">
        <ele>170</ele>
        <time>2017-04-05T10:25:27Z</time>
      </trkpt>
      <trkpt lat="45.92447" lon="4.73087">
        <ele>170</ele>
        <time>2017-04-05T10:25:28Z</time>
      </trkpt>
      <trkpt lat="45.92442" lon="4.73091">
        <ele>170</ele>
        <time>2017-04-05T10:25:29Z</time>
      </trkpt>
      <trkpt lat="45.92437" lon="4.73096">
        <ele>171</ele>
        <time>2017-04-05T10:25:30Z</time>
      </trkpt>
      <trkpt lat="45.92432" lon="4.73099">
        <ele>171</ele>
        <time>2017-04-05T10:25:31Z</time>
      </trkpt>
      <trkpt lat="45.92427" lon="4.73104">
        <ele>171</ele>
        <time>2017-04-05T10:25:32Z</time>
      </trkpt>
      <trkpt lat="45.92423" lon="4.73108">
        <ele>170</ele>
        <time>2017-04-05T10:25:33Z</time>
      </trkpt>
      <trkpt lat="45.92418" lon="4.73112">
        <ele>170</ele>
        <time>2017-04-05T10:25:34Z</time>
      </trkpt>
      <trkpt lat="45.92414" lon="4.73117">
        <ele>171</ele>
        <time>2017-04-05T10:25:35Z</time>
      </trkpt>
      <trkpt lat="45.9241" lon="4.73123">
        <ele>171</ele>
        <time>2017-04-05T10:25:36Z</time>
      </trkpt>
      <trkpt lat="45.92408" lon="4.7313">
        <ele>171</ele>
        <time>2017-04-05T10:25:37Z</time>
      </trkpt>
      <trkpt lat="45.92406" lon="4.73138">
        <ele>171</ele>
        <time>2017-04-05T10:25:38Z</time>
      </trkpt>
      <trkpt lat="45.92406" lon="4.73146">
        <ele>171</ele>
        <time>2017-04-05T10:25:39Z</time>
      </trkpt>
      <trkpt lat="45.92405" lon="4.73155">
        <ele>171</ele>
        <time>2017-04-05T10:25:40Z</time>
      </trkpt>
      <trkpt lat="45.92405" lon="4.73163">
        <ele>170</ele>
        <time>2017-04-05T10:25:41Z</time>
      </trkpt>
      <trkpt lat="45.92406" lon="4.73171">
        <ele>170</ele>
        <time>2017-04-05T10:25:42Z</time>
      </trkpt>
      <trkpt lat="45.92406" lon="4.73179">
        <ele>171</ele>
        <time>2017-04-05T10:25:43Z</time>
      </trkpt>
      <trkpt lat="45.92406" lon="4.73187">
        <ele>171</ele>
        <time>2017-04-05T10:25:44Z</time>
      </trkpt>
      <trkpt lat="45.92406" lon="4.73195">
        <ele>171</ele>
        <time>2017-04-05T10:25:45Z</time>
      </trkpt>
      <trkpt lat="45.92406" lon="4.73203">
        <ele>171</ele>
        <time>2017-04-05T10:25:46Z</time>
      </trkpt>
      <trkpt lat="45.92407" lon="4.73211">
        <ele>171</ele>
        <time>2017-04-05T10:25:47Z</time>
      </trkpt>
      <trkpt lat="45.92407" lon="4.73219">
        <ele>171</ele>
        <time>2017-04-05T10:25:48Z</time>
      </trkpt>
      <trkpt lat="45.92407" lon="4.73227">
        <ele>171</ele>
        <time>2017-04-05T10:25:49Z</time>
      </trkpt>
      <trkpt lat="45.92408" lon="4.73235">
        <ele>171</ele>
        <time>2017-04-05T10:25:50Z</time>
      </trkpt>
      <trkpt lat="45.92408" lon="4.73243">
        <ele>171</ele>
        <time>2017-04-05T10:25:51Z</time>
      </trkpt>
      <trkpt lat="45.92409" lon="4.7325">
        <ele>171</ele>
        <time>2017-04-05T10:25:52Z</time>
      </trkpt>
      <trkpt lat="45.92409" lon="4.73257">
        <ele>171</ele>
        <time>2017-04-05T10:25:53Z</time>
      </trkpt>
      <trkpt lat="45.92409" lon="4.73264">
        <ele>171</ele>
        <time>2017-04-05T10:25:54Z</time>
      </trkpt>
      <trkpt lat="45.92409" lon="4.73271">
        <ele>171</ele>
        <time>2017-04-05T10:25:55Z</time>
      </trkpt>
      <trkpt lat="45.9241" lon="4.73278">
        <ele>171</ele>
        <time>2017-04-05T10:25:56Z</time>
      </trkpt>
      <trkpt lat="45.92411" lon="4.73285">
        <ele>171</ele>
        <time>2017-04-05T10:25:57Z</time>
      </trkpt>
      <trkpt lat="45.92411" lon="4.73292">
        <ele>171</ele>
        <time>2017-04-05T10:25:58Z</time>
      </trkpt>
      <trkpt lat="45.92412" lon="4.73299">
        <ele>171</ele>
        <time>2017-04-05T10:25:59Z</time>
      </trkpt>
      <trkpt lat="45.92412" lon="4.73306">
        <ele>171</ele>
        <time>2017-04-05T10:26:00Z</time>
      </trkpt>
      <trkpt lat="45.92413" lon="4.73313">
        <ele>171</ele>
        <time>2017-04-05T10:26:01Z</time>
      </trkpt>
      <trkpt lat="45.92413" lon="4.7332">
        <ele>171</ele>
        <time>2017-04-05T10:26:02Z</time>
      </trkpt>
      <trkpt lat="45.92414" lon="4.73327">
        <ele>171</ele>
        <time>2017-04-05T10:26:03Z</time>
      </trkpt>
      <trkpt lat="45.92415" lon="4.73333">
        <ele>171</ele>
        <time>2017-04-05T10:26:04Z</time>
      </trkpt>
      <trkpt lat="45.92416" lon="4.7334">
        <ele>171</ele>
        <time>2017-04-05T10:26:05Z</time>
      </trkpt>
      <trkpt lat="45.92417" lon="4.73346">
        <ele>171</ele>
        <time>2017-04-05T10:26:06Z</time>
      </trkpt>
      <trkpt lat="45.92418" lon="4.73353">
        <ele>171</ele>
        <time>2017-04-05T10:26:07Z</time>
      </trkpt>
      <trkpt lat="45.92419" lon="4.7336">
        <ele>171</ele>
        <time>2017-04-05T10:26:08Z</time>
      </trkpt>
      <trkpt lat="45.9242" lon="4.73366">
        <ele>172</ele>
        <time>2017-04-05T10:26:09Z</time>
      </trkpt>
      <trkpt lat="45.92421" lon="4.73373">
        <ele>172</ele>
        <time>2017-04-05T10:26:10Z</time>
      </trkpt>
      <trkpt lat="45.92422" lon="4.7338">
        <ele>172</ele>
        <time>2017-04-05T10:26:11Z</time>
      </trkpt>
      <trkpt lat="45.92423" lon="4.73386">
        <ele>172</ele>
        <time>2017-04-05T10:26:12Z</time>
      </trkpt>
      <trkpt lat="45.92424" lon="4.73393">
        <ele>172</ele>
        <time>2017-04-05T10:26:13Z</time>
      </trkpt>
      <trkpt lat="45.92426" lon="4.734">
        <ele>172</ele>
        <time>2017-04-05T10:26:14Z</time>
      </trkpt>
      <trkpt lat="45.92428" lon="4.73406">
        <ele>172</ele>
        <time>2017-04-05T10:26:15Z</time>
      </trkpt>
      <trkpt lat="45.92431" lon="4.73411">
        <ele>172</ele>
        <time>2017-04-05T10:26:16Z</time>
      </trkpt>
      <trkpt lat="45.92435" lon="4.73416">
        <ele>172</ele>
        <time>2017-04-05T10:26:17Z</time>
      </trkpt>
      <trkpt lat="45.92438" lon="4.7342">
        <ele>173</ele>
        <time>2017-04-05T10:26:18Z</time>
      </trkpt>
      <trkpt lat="45.92442" lon="4.73423">
        <ele>173</ele>
        <time>2017-04-05T10:26:19Z</time>
      </trkpt>
      <trkpt lat="45.92446" lon="4.73426">
        <ele>173</ele>
        <time>2017-04-05T10:26:20Z</time>
      </trkpt>
      <trkpt lat="45.9245" lon="4.73429">
        <ele>173</ele>
        <time>2017-04-05T10:26:21Z</time>
      </trkpt>
      <trkpt lat="45.92458" lon="4.73436">
        <ele>173</ele>
        <time>2017-04-05T10:26:23Z</time>
      </trkpt>
      <trkpt lat="45.9246" lon="4.73441">
        <ele>173</ele>
        <time>2017-04-05T10:26:24Z</time>
      </trkpt>
      <trkpt lat="45.92463" lon="4.73447">
        <ele>173</ele>
        <time>2017-04-05T10:26:25Z</time>
      </trkpt>
      <trkpt lat="45.92465" lon="4.73452">
        <ele>173</ele>
        <time>2017-04-05T10:26:26Z</time>
      </trkpt>
      <trkpt lat="45.92466" lon="4.73464">
        <ele>173</ele>
        <time>2017-04-05T10:26:28Z</time>
      </trkpt>
      <trkpt lat="45.92466" lon="4.73469">
        <ele>173</ele>
        <time>2017-04-05T10:26:29Z</time>
      </trkpt>
      <trkpt lat="45.92466" lon="4.73482">
        <ele>173</ele>
        <time>2017-04-05T10:26:31Z</time>
      </trkpt>
      <trkpt lat="45.92466" lon="4.73489">
        <ele>173</ele>
        <time>2017-04-05T10:26:32Z</time>
      </trkpt>
      <trkpt lat="45.92466" lon="4.73497">
        <ele>173</ele>
        <time>2017-04-05T10:26:33Z</time>
      </trkpt>
      <trkpt lat="45.92466" lon="4.73504">
        <ele>174</ele>
        <time>2017-04-05T10:26:34Z</time>
      </trkpt>
      <trkpt lat="45.92466" lon="4.73511">
        <ele>174</ele>
        <time>2017-04-05T10:26:35Z</time>
      </trkpt>
      <trkpt lat="45.92466" lon="4.73518">
        <ele>174</ele>
        <time>2017-04-05T10:26:36Z</time>
      </trkpt>
      <trkpt lat="45.92466" lon="4.73531">
        <ele>174</ele>
        <time>2017-04-05T10:26:38Z</time>
      </trkpt>
      <trkpt lat="45.92466" lon="4.73537">
        <ele>174</ele>
        <time>2017-04-05T10:26:39Z</time>
      </trkpt>
      <trkpt lat="45.92465" lon="4.7355">
        <ele>173</ele>
        <time>2017-04-05T10:26:41Z</time>
      </trkpt>
      <trkpt lat="45.92465" lon="4.73557">
        <ele>173</ele>
        <time>2017-04-05T10:26:42Z</time>
      </trkpt>
      <trkpt lat="45.92465" lon="4.73564">
        <ele>173</ele>
        <time>2017-04-05T10:26:43Z</time>
      </trkpt>
      <trkpt lat="45.92465" lon="4.73572">
        <ele>173</ele>
        <time>2017-04-05T10:26:44Z</time>
      </trkpt>
      <trkpt lat="45.92466" lon="4.73579">
        <ele>173</ele>
        <time>2017-04-05T10:26:45Z</time>
      </trkpt>
      <trkpt lat="45.92466" lon="4.73587">
        <ele>174</ele>
        <time>2017-04-05T10:26:46Z</time>
      </trkpt>
      <trkpt lat="45.92467" lon="4.73595">
        <ele>174</ele>
        <time>2017-04-05T10:26:47Z</time>
      </trkpt>
      <trkpt lat="45.92468" lon="4.73604">
        <ele>174</ele>
        <time>2017-04-05T10:26:48Z</time>
      </trkpt>
      <trkpt lat="45.92468" lon="4.73612">
        <ele>174</ele>
        <time>2017-04-05T10:26:49Z</time>
      </trkpt>
      <trkpt lat="45.92469" lon="4.7362">
        <ele>174</ele>
        <time>2017-04-05T10:26:50Z</time>
      </trkpt>
      <trkpt lat="45.92469" lon="4.73628">
        <ele>174</ele>
        <time>2017-04-05T10:26:51Z</time>
      </trkpt>
      <trkpt lat="45.92469" lon="4.73635">
        <ele>174</ele>
        <time>2017-04-05T10:26:52Z</time>
      </trkpt>
      <trkpt lat="45.92469" lon="4.73643">
        <ele>174</ele>
        <time>2017-04-05T10:26:53Z</time>
      </trkpt>
      <trkpt lat="45.92469" lon="4.73649">
        <ele>174</ele>
        <time>2017-04-05T10:26:54Z</time>
      </trkpt>
      <trkpt lat="45.92468" lon="4.73662">
        <ele>174</ele>
        <time>2017-04-05T10:26:56Z</time>
      </trkpt>
      <trkpt lat="45.92468" lon="4.73668">
        <ele>174</ele>
        <time>2017-04-05T10:26:57Z</time>
      </trkpt>
      <trkpt lat="45.92466" lon="4.73679">
        <ele>174</ele>
        <time>2017-04-05T10:26:59Z</time>
      </trkpt>
      <trkpt lat="45.92465" lon="4.73686">
        <ele>174</ele>
        <time>2017-04-05T10:27:00Z</time>
      </trkpt>
      <trkpt lat="45.92464" lon="4.73697">
        <ele>174</ele>
        <time>2017-04-05T10:27:02Z</time>
      </trkpt>
      <trkpt lat="45.92463" lon="4.737">
        <ele>174</ele>
        <time>2017-04-05T10:27:03Z</time>
      </trkpt>
      <trkpt lat="45.92463" lon="4.73705">
        <ele>174</ele>
        <time>2017-04-05T10:27:05Z</time>
      </trkpt>
      <trkpt lat="45.92464" lon="4.73706">
        <ele>174</ele>
        <time>2017-04-05T10:27:06Z</time>
      </trkpt>
      <trkpt lat="45.9246" lon="4.73709">
        <ele>174</ele>
        <time>2017-04-05T10:27:38.27Z</time>
      </trkpt>
    </trkseg>
  </trk>
</gpx>